<?xml version="1.0" encoding="UTF-8"?>
<gpx xmlns="http://www.topografix.com/GPX/1/1" version="1.1" creator="Trails 1.12 - http://www.trails.io">
	<metadata>
		<time>2015-05-07T08:53:20Z</time>
	</metadata>
	<trk>
		<name>Bob's/Kookie's Run</name>
		<trkseg>
			<trkpt lat="-27.392338" lon="152.984999">
				<ele>65</ele>
				<time>2015-05-06T20:38:20Z</time>
				<extensions>
				</extensions>
			</trkpt>
			<trkpt lat="-27.392651" lon="152.985041">
				<ele>62</ele>
				<time>2015-05-06T20:38:22Z</time>
				<extensions>
				</extensions>
			</trkpt>
			<trkpt lat="-27.392924" lon="152.985139">
				<ele>58</ele>
				<time>2015-05-06T20:38:24Z</time>
				<extensions>
				</extensions>
			</trkpt>
			<trkpt lat="-27.393182" lon="152.985246">
				<ele>57</ele>
				<time>2015-05-06T20:38:26Z</time>
				<extensions>
				</extensions>
			</trkpt>
			<trkpt lat="-27.393446" lon="152.985352">
				<ele>59</ele>
				<time>2015-05-06T20:38:28Z</time>
				<extensions>
				</extensions>
			</trkpt>
			<trkpt lat="-27.393739" lon="152.985463">
				<ele>64</ele>
				<time>2015-05-06T20:38:30Z</time>
				<extensions>
				</extensions>
			</trkpt>
			<trkpt lat="-27.393994" lon="152.985575">
				<ele>65</ele>
				<time>2015-05-06T20:38:32Z</time>
				<extensions>
				</extensions>
			</trkpt>
			<trkpt lat="-27.394236" lon="152.985678">
				<ele>66</ele>
				<time>2015-05-06T20:38:34Z</time>
				<extensions>
				</extensions>
			</trkpt>
			<trkpt lat="-27.394478" lon="152.985782">
				<ele>66</ele>
				<time>2015-05-06T20:38:36Z</time>
				<extensions>
				</extensions>
			</trkpt>
			<trkpt lat="-27.394723" lon="152.985888">
				<ele>65</ele>
				<time>2015-05-06T20:38:38Z</time>
				<extensions>
				</extensions>
			</trkpt>
			<trkpt lat="-27.394981" lon="152.986003">
				<ele>63</ele>
				<time>2015-05-06T20:38:40Z</time>
				<extensions>
				</extensions>
			</trkpt>
			<trkpt lat="-27.395232" lon="152.986120">
				<ele>60</ele>
				<time>2015-05-06T20:38:42Z</time>
				<extensions>
				</extensions>
			</trkpt>
			<trkpt lat="-27.395497" lon="152.986235">
				<ele>56</ele>
				<time>2015-05-06T20:38:44Z</time>
				<extensions>
				</extensions>
			</trkpt>
			<trkpt lat="-27.395781" lon="152.986356">
				<ele>54</ele>
				<time>2015-05-06T20:38:46Z</time>
				<extensions>
				</extensions>
			</trkpt>
			<trkpt lat="-27.396047" lon="152.986479">
				<ele>53</ele>
				<time>2015-05-06T20:38:48Z</time>
				<extensions>
				</extensions>
			</trkpt>
			<trkpt lat="-27.396260" lon="152.986580">
				<ele>49</ele>
				<time>2015-05-06T20:38:50Z</time>
				<extensions>
				</extensions>
			</trkpt>
			<trkpt lat="-27.396430" lon="152.986663">
				<ele>50</ele>
				<time>2015-05-06T20:38:52Z</time>
				<extensions>
				</extensions>
			</trkpt>
			<trkpt lat="-27.396622" lon="152.986755">
				<ele>52</ele>
				<time>2015-05-06T20:38:55Z</time>
				<extensions>
				</extensions>
			</trkpt>
			<trkpt lat="-27.396843" lon="152.986864">
				<ele>56</ele>
				<time>2015-05-06T20:38:58Z</time>
				<extensions>
				</extensions>
			</trkpt>
			<trkpt lat="-27.397023" lon="152.986952">
				<ele>59</ele>
				<time>2015-05-06T20:39:00Z</time>
				<extensions>
				</extensions>
			</trkpt>
			<trkpt lat="-27.397208" lon="152.987030">
				<ele>61</ele>
				<time>2015-05-06T20:39:02Z</time>
				<extensions>
				</extensions>
			</trkpt>
			<trkpt lat="-27.397406" lon="152.987084">
				<ele>63</ele>
				<time>2015-05-06T20:39:04Z</time>
				<extensions>
				</extensions>
			</trkpt>
			<trkpt lat="-27.397608" lon="152.987098">
				<ele>64</ele>
				<time>2015-05-06T20:39:06Z</time>
				<extensions>
				</extensions>
			</trkpt>
			<trkpt lat="-27.397803" lon="152.987037">
				<ele>66</ele>
				<time>2015-05-06T20:39:08Z</time>
				<extensions>
				</extensions>
			</trkpt>
			<trkpt lat="-27.398009" lon="152.986883">
				<ele>66</ele>
				<time>2015-05-06T20:39:10Z</time>
				<extensions>
				</extensions>
			</trkpt>
			<trkpt lat="-27.398184" lon="152.986751">
				<ele>64</ele>
				<time>2015-05-06T20:39:12Z</time>
				<extensions>
				</extensions>
			</trkpt>
			<trkpt lat="-27.398364" lon="152.986610">
				<ele>63</ele>
				<time>2015-05-06T20:39:14Z</time>
				<extensions>
				</extensions>
			</trkpt>
			<trkpt lat="-27.398557" lon="152.986469">
				<ele>60</ele>
				<time>2015-05-06T20:39:16Z</time>
				<extensions>
				</extensions>
			</trkpt>
			<trkpt lat="-27.398756" lon="152.986345">
				<ele>57</ele>
				<time>2015-05-06T20:39:18Z</time>
				<extensions>
				</extensions>
			</trkpt>
			<trkpt lat="-27.398964" lon="152.986270">
				<ele>54</ele>
				<time>2015-05-06T20:39:20Z</time>
				<extensions>
				</extensions>
			</trkpt>
			<trkpt lat="-27.399192" lon="152.986268">
				<ele>51</ele>
				<time>2015-05-06T20:39:22Z</time>
				<extensions>
				</extensions>
			</trkpt>
			<trkpt lat="-27.399471" lon="152.986319">
				<ele>49</ele>
				<time>2015-05-06T20:39:24Z</time>
				<extensions>
				</extensions>
			</trkpt>
			<trkpt lat="-27.399776" lon="152.986386">
				<ele>45</ele>
				<time>2015-05-06T20:39:26Z</time>
				<extensions>
				</extensions>
			</trkpt>
			<trkpt lat="-27.400083" lon="152.986453">
				<ele>44</ele>
				<time>2015-05-06T20:39:28Z</time>
				<extensions>
				</extensions>
			</trkpt>
			<trkpt lat="-27.400383" lon="152.986518">
				<ele>42</ele>
				<time>2015-05-06T20:39:30Z</time>
				<extensions>
				</extensions>
			</trkpt>
			<trkpt lat="-27.400675" lon="152.986583">
				<ele>40</ele>
				<time>2015-05-06T20:39:32Z</time>
				<extensions>
				</extensions>
			</trkpt>
			<trkpt lat="-27.400952" lon="152.986671">
				<ele>40</ele>
				<time>2015-05-06T20:39:34Z</time>
				<extensions>
				</extensions>
			</trkpt>
			<trkpt lat="-27.401195" lon="152.986796">
				<ele>38</ele>
				<time>2015-05-06T20:39:36Z</time>
				<extensions>
				</extensions>
			</trkpt>
			<trkpt lat="-27.401422" lon="152.986922">
				<ele>35</ele>
				<time>2015-05-06T20:39:38Z</time>
				<extensions>
				</extensions>
			</trkpt>
			<trkpt lat="-27.401660" lon="152.986992">
				<ele>34</ele>
				<time>2015-05-06T20:39:40Z</time>
				<extensions>
				</extensions>
			</trkpt>
			<trkpt lat="-27.401932" lon="152.987028">
				<ele>34</ele>
				<time>2015-05-06T20:39:42Z</time>
				<extensions>
				</extensions>
			</trkpt>
			<trkpt lat="-27.402191" lon="152.987057">
				<ele>33</ele>
				<time>2015-05-06T20:39:44Z</time>
				<extensions>
				</extensions>
			</trkpt>
			<trkpt lat="-27.402431" lon="152.987089">
				<ele>32</ele>
				<time>2015-05-06T20:39:46Z</time>
				<extensions>
				</extensions>
			</trkpt>
			<trkpt lat="-27.402672" lon="152.987177">
				<ele>33</ele>
				<time>2015-05-06T20:39:48Z</time>
				<extensions>
				</extensions>
			</trkpt>
			<trkpt lat="-27.402880" lon="152.987319">
				<ele>31</ele>
				<time>2015-05-06T20:39:50Z</time>
				<extensions>
				</extensions>
			</trkpt>
			<trkpt lat="-27.403046" lon="152.987463">
				<ele>30</ele>
				<time>2015-05-06T20:39:52Z</time>
				<extensions>
				</extensions>
			</trkpt>
			<trkpt lat="-27.403210" lon="152.987603">
				<ele>30</ele>
				<time>2015-05-06T20:39:54Z</time>
				<extensions>
				</extensions>
			</trkpt>
			<trkpt lat="-27.403384" lon="152.987760">
				<ele>30</ele>
				<time>2015-05-06T20:39:56Z</time>
				<extensions>
				</extensions>
			</trkpt>
			<trkpt lat="-27.403561" lon="152.987913">
				<ele>29</ele>
				<time>2015-05-06T20:39:58Z</time>
				<extensions>
				</extensions>
			</trkpt>
			<trkpt lat="-27.403740" lon="152.988073">
				<ele>29</ele>
				<time>2015-05-06T20:40:00Z</time>
				<extensions>
				</extensions>
			</trkpt>
			<trkpt lat="-27.403934" lon="152.988238">
				<ele>30</ele>
				<time>2015-05-06T20:40:02Z</time>
				<extensions>
				</extensions>
			</trkpt>
			<trkpt lat="-27.404131" lon="152.988403">
				<ele>30</ele>
				<time>2015-05-06T20:40:04Z</time>
				<extensions>
				</extensions>
			</trkpt>
			<trkpt lat="-27.404302" lon="152.988545">
				<ele>28</ele>
				<time>2015-05-06T20:40:06Z</time>
				<extensions>
				</extensions>
			</trkpt>
			<trkpt lat="-27.404502" lon="152.988712">
				<ele>27</ele>
				<time>2015-05-06T20:40:09Z</time>
				<extensions>
				</extensions>
			</trkpt>
			<trkpt lat="-27.404628" lon="152.988871">
				<ele>26</ele>
				<time>2015-05-06T20:40:15Z</time>
				<extensions>
				</extensions>
			</trkpt>
			<trkpt lat="-27.404734" lon="152.989061">
				<ele>26</ele>
				<time>2015-05-06T20:40:22Z</time>
				<extensions>
				</extensions>
			</trkpt>
			<trkpt lat="-27.404842" lon="152.989270">
				<ele>26</ele>
				<time>2015-05-06T20:40:57Z</time>
				<extensions>
				</extensions>
			</trkpt>
			<trkpt lat="-27.404973" lon="152.989482">
				<ele>28</ele>
				<time>2015-05-06T20:41:00Z</time>
				<extensions>
				</extensions>
			</trkpt>
			<trkpt lat="-27.405087" lon="152.989666">
				<ele>29</ele>
				<time>2015-05-06T20:41:02Z</time>
				<extensions>
				</extensions>
			</trkpt>
			<trkpt lat="-27.405220" lon="152.989860">
				<ele>28</ele>
				<time>2015-05-06T20:41:04Z</time>
				<extensions>
				</extensions>
			</trkpt>
			<trkpt lat="-27.405350" lon="152.990038">
				<ele>27</ele>
				<time>2015-05-06T20:41:06Z</time>
				<extensions>
				</extensions>
			</trkpt>
			<trkpt lat="-27.405484" lon="152.990210">
				<ele>28</ele>
				<time>2015-05-06T20:41:08Z</time>
				<extensions>
				</extensions>
			</trkpt>
			<trkpt lat="-27.405627" lon="152.990388">
				<ele>28</ele>
				<time>2015-05-06T20:41:10Z</time>
				<extensions>
				</extensions>
			</trkpt>
			<trkpt lat="-27.405769" lon="152.990565">
				<ele>28</ele>
				<time>2015-05-06T20:41:12Z</time>
				<extensions>
				</extensions>
			</trkpt>
			<trkpt lat="-27.405916" lon="152.990724">
				<ele>27</ele>
				<time>2015-05-06T20:41:14Z</time>
				<extensions>
				</extensions>
			</trkpt>
			<trkpt lat="-27.406096" lon="152.990820">
				<ele>26</ele>
				<time>2015-05-06T20:41:16Z</time>
				<extensions>
				</extensions>
			</trkpt>
			<trkpt lat="-27.406345" lon="152.990878">
				<ele>28</ele>
				<time>2015-05-06T20:41:18Z</time>
				<extensions>
				</extensions>
			</trkpt>
			<trkpt lat="-27.406606" lon="152.990913">
				<ele>28</ele>
				<time>2015-05-06T20:41:20Z</time>
				<extensions>
				</extensions>
			</trkpt>
			<trkpt lat="-27.406824" lon="152.990937">
				<ele>27</ele>
				<time>2015-05-06T20:41:22Z</time>
				<extensions>
				</extensions>
			</trkpt>
			<trkpt lat="-27.407003" lon="152.990963">
				<ele>24</ele>
				<time>2015-05-06T20:41:25Z</time>
				<extensions>
				</extensions>
			</trkpt>
			<trkpt lat="-27.407172" lon="152.991127">
				<ele>25</ele>
				<time>2015-05-06T20:41:53Z</time>
				<extensions>
				</extensions>
			</trkpt>
			<trkpt lat="-27.407111" lon="152.991427">
				<ele>27</ele>
				<time>2015-05-06T20:41:56Z</time>
				<extensions>
				</extensions>
			</trkpt>
			<trkpt lat="-27.407049" lon="152.991721">
				<ele>29</ele>
				<time>2015-05-06T20:41:58Z</time>
				<extensions>
				</extensions>
			</trkpt>
			<trkpt lat="-27.406982" lon="152.992031">
				<ele>29</ele>
				<time>2015-05-06T20:42:00Z</time>
				<extensions>
				</extensions>
			</trkpt>
			<trkpt lat="-27.406945" lon="152.992378">
				<ele>29</ele>
				<time>2015-05-06T20:42:02Z</time>
				<extensions>
				</extensions>
			</trkpt>
			<trkpt lat="-27.406967" lon="152.992734">
				<ele>28</ele>
				<time>2015-05-06T20:42:04Z</time>
				<extensions>
				</extensions>
			</trkpt>
			<trkpt lat="-27.407006" lon="152.993045">
				<ele>29</ele>
				<time>2015-05-06T20:42:06Z</time>
				<extensions>
				</extensions>
			</trkpt>
			<trkpt lat="-27.407066" lon="152.993408">
				<ele>29</ele>
				<time>2015-05-06T20:42:08Z</time>
				<extensions>
				</extensions>
			</trkpt>
			<trkpt lat="-27.407113" lon="152.993758">
				<ele>29</ele>
				<time>2015-05-06T20:42:10Z</time>
				<extensions>
				</extensions>
			</trkpt>
			<trkpt lat="-27.407164" lon="152.994122">
				<ele>28</ele>
				<time>2015-05-06T20:42:12Z</time>
				<extensions>
				</extensions>
			</trkpt>
			<trkpt lat="-27.407217" lon="152.994490">
				<ele>29</ele>
				<time>2015-05-06T20:42:14Z</time>
				<extensions>
				</extensions>
			</trkpt>
			<trkpt lat="-27.407280" lon="152.994867">
				<ele>29</ele>
				<time>2015-05-06T20:42:16Z</time>
				<extensions>
				</extensions>
			</trkpt>
			<trkpt lat="-27.407338" lon="152.995233">
				<ele>28</ele>
				<time>2015-05-06T20:42:18Z</time>
				<extensions>
				</extensions>
			</trkpt>
			<trkpt lat="-27.407377" lon="152.995565">
				<ele>28</ele>
				<time>2015-05-06T20:42:20Z</time>
				<extensions>
				</extensions>
			</trkpt>
			<trkpt lat="-27.407431" lon="152.995918">
				<ele>29</ele>
				<time>2015-05-06T20:42:22Z</time>
				<extensions>
				</extensions>
			</trkpt>
			<trkpt lat="-27.407460" lon="152.996276">
				<ele>29</ele>
				<time>2015-05-06T20:42:24Z</time>
				<extensions>
				</extensions>
			</trkpt>
			<trkpt lat="-27.407443" lon="152.996624">
				<ele>30</ele>
				<time>2015-05-06T20:42:26Z</time>
				<extensions>
				</extensions>
			</trkpt>
			<trkpt lat="-27.407387" lon="152.996972">
				<ele>31</ele>
				<time>2015-05-06T20:42:28Z</time>
				<extensions>
				</extensions>
			</trkpt>
			<trkpt lat="-27.407320" lon="152.997303">
				<ele>33</ele>
				<time>2015-05-06T20:42:30Z</time>
				<extensions>
				</extensions>
			</trkpt>
			<trkpt lat="-27.407273" lon="152.997596">
				<ele>33</ele>
				<time>2015-05-06T20:42:32Z</time>
				<extensions>
				</extensions>
			</trkpt>
			<trkpt lat="-27.407235" lon="152.997842">
				<ele>34</ele>
				<time>2015-05-06T20:42:34Z</time>
				<extensions>
				</extensions>
			</trkpt>
			<trkpt lat="-27.407198" lon="152.998070">
				<ele>33</ele>
				<time>2015-05-06T20:42:38Z</time>
				<extensions>
				</extensions>
			</trkpt>
			<trkpt lat="-27.407154" lon="152.998327">
				<ele>36</ele>
				<time>2015-05-06T20:42:55Z</time>
				<extensions>
				</extensions>
			</trkpt>
			<trkpt lat="-27.407213" lon="152.998626">
				<ele>40</ele>
				<time>2015-05-06T20:42:58Z</time>
				<extensions>
				</extensions>
			</trkpt>
			<trkpt lat="-27.407340" lon="152.998880">
				<ele>43</ele>
				<time>2015-05-06T20:43:00Z</time>
				<extensions>
				</extensions>
			</trkpt>
			<trkpt lat="-27.407490" lon="152.999179">
				<ele>46</ele>
				<time>2015-05-06T20:43:02Z</time>
				<extensions>
				</extensions>
			</trkpt>
			<trkpt lat="-27.407650" lon="152.999496">
				<ele>48</ele>
				<time>2015-05-06T20:43:04Z</time>
				<extensions>
				</extensions>
			</trkpt>
			<trkpt lat="-27.407802" lon="152.999801">
				<ele>48</ele>
				<time>2015-05-06T20:43:06Z</time>
				<extensions>
				</extensions>
			</trkpt>
			<trkpt lat="-27.407953" lon="153.000080">
				<ele>47</ele>
				<time>2015-05-06T20:43:08Z</time>
				<extensions>
				</extensions>
			</trkpt>
			<trkpt lat="-27.408080" lon="153.000367">
				<ele>45</ele>
				<time>2015-05-06T20:43:10Z</time>
				<extensions>
				</extensions>
			</trkpt>
			<trkpt lat="-27.408148" lon="153.000686">
				<ele>45</ele>
				<time>2015-05-06T20:43:12Z</time>
				<extensions>
				</extensions>
			</trkpt>
			<trkpt lat="-27.408195" lon="153.001016">
				<ele>44</ele>
				<time>2015-05-06T20:43:14Z</time>
				<extensions>
				</extensions>
			</trkpt>
			<trkpt lat="-27.408244" lon="153.001359">
				<ele>42</ele>
				<time>2015-05-06T20:43:16Z</time>
				<extensions>
				</extensions>
			</trkpt>
			<trkpt lat="-27.408291" lon="153.001701">
				<ele>41</ele>
				<time>2015-05-06T20:43:18Z</time>
				<extensions>
				</extensions>
			</trkpt>
			<trkpt lat="-27.408341" lon="153.002038">
				<ele>40</ele>
				<time>2015-05-06T20:43:20Z</time>
				<extensions>
				</extensions>
			</trkpt>
			<trkpt lat="-27.408394" lon="153.002393">
				<ele>38</ele>
				<time>2015-05-06T20:43:22Z</time>
				<extensions>
				</extensions>
			</trkpt>
			<trkpt lat="-27.408445" lon="153.002745">
				<ele>37</ele>
				<time>2015-05-06T20:43:24Z</time>
				<extensions>
				</extensions>
			</trkpt>
			<trkpt lat="-27.408495" lon="153.003092">
				<ele>34</ele>
				<time>2015-05-06T20:43:26Z</time>
				<extensions>
				</extensions>
			</trkpt>
			<trkpt lat="-27.408550" lon="153.003441">
				<ele>34</ele>
				<time>2015-05-06T20:43:28Z</time>
				<extensions>
				</extensions>
			</trkpt>
			<trkpt lat="-27.408614" lon="153.003801">
				<ele>33</ele>
				<time>2015-05-06T20:43:30Z</time>
				<extensions>
				</extensions>
			</trkpt>
			<trkpt lat="-27.408677" lon="153.004154">
				<ele>33</ele>
				<time>2015-05-06T20:43:32Z</time>
				<extensions>
				</extensions>
			</trkpt>
			<trkpt lat="-27.408731" lon="153.004485">
				<ele>31</ele>
				<time>2015-05-06T20:43:34Z</time>
				<extensions>
				</extensions>
			</trkpt>
			<trkpt lat="-27.408783" lon="153.004811">
				<ele>31</ele>
				<time>2015-05-06T20:43:36Z</time>
				<extensions>
				</extensions>
			</trkpt>
			<trkpt lat="-27.408836" lon="153.005141">
				<ele>30</ele>
				<time>2015-05-06T20:43:38Z</time>
				<extensions>
				</extensions>
			</trkpt>
			<trkpt lat="-27.408881" lon="153.005430">
				<ele>26</ele>
				<time>2015-05-06T20:43:40Z</time>
				<extensions>
				</extensions>
			</trkpt>
			<trkpt lat="-27.408917" lon="153.005688">
				<ele>25</ele>
				<time>2015-05-06T20:43:42Z</time>
				<extensions>
				</extensions>
			</trkpt>
			<trkpt lat="-27.408953" lon="153.005941">
				<ele>24</ele>
				<time>2015-05-06T20:43:44Z</time>
				<extensions>
				</extensions>
			</trkpt>
			<trkpt lat="-27.408993" lon="153.006222">
				<ele>24</ele>
				<time>2015-05-06T20:43:46Z</time>
				<extensions>
				</extensions>
			</trkpt>
			<trkpt lat="-27.409034" lon="153.006511">
				<ele>23</ele>
				<time>2015-05-06T20:43:48Z</time>
				<extensions>
				</extensions>
			</trkpt>
			<trkpt lat="-27.409079" lon="153.006813">
				<ele>23</ele>
				<time>2015-05-06T20:43:50Z</time>
				<extensions>
				</extensions>
			</trkpt>
			<trkpt lat="-27.409121" lon="153.007103">
				<ele>22</ele>
				<time>2015-05-06T20:43:52Z</time>
				<extensions>
				</extensions>
			</trkpt>
			<trkpt lat="-27.409159" lon="153.007365">
				<ele>22</ele>
				<time>2015-05-06T20:43:54Z</time>
				<extensions>
				</extensions>
			</trkpt>
			<trkpt lat="-27.409191" lon="153.007567">
				<ele>17</ele>
				<time>2015-05-06T20:43:58Z</time>
				<extensions>
				</extensions>
			</trkpt>
			<trkpt lat="-27.409218" lon="153.007819">
				<ele>23</ele>
				<time>2015-05-06T20:45:08Z</time>
				<extensions>
				</extensions>
			</trkpt>
			<trkpt lat="-27.409253" lon="153.008069">
				<ele>26</ele>
				<time>2015-05-06T20:45:10Z</time>
				<extensions>
				</extensions>
			</trkpt>
			<trkpt lat="-27.409296" lon="153.008384">
				<ele>28</ele>
				<time>2015-05-06T20:45:12Z</time>
				<extensions>
				</extensions>
			</trkpt>
			<trkpt lat="-27.409346" lon="153.008726">
				<ele>29</ele>
				<time>2015-05-06T20:45:14Z</time>
				<extensions>
				</extensions>
			</trkpt>
			<trkpt lat="-27.409390" lon="153.009070">
				<ele>28</ele>
				<time>2015-05-06T20:45:16Z</time>
				<extensions>
				</extensions>
			</trkpt>
			<trkpt lat="-27.409439" lon="153.009418">
				<ele>27</ele>
				<time>2015-05-06T20:45:18Z</time>
				<extensions>
				</extensions>
			</trkpt>
			<trkpt lat="-27.409482" lon="153.009752">
				<ele>26</ele>
				<time>2015-05-06T20:45:20Z</time>
				<extensions>
				</extensions>
			</trkpt>
			<trkpt lat="-27.409527" lon="153.010069">
				<ele>25</ele>
				<time>2015-05-06T20:45:22Z</time>
				<extensions>
				</extensions>
			</trkpt>
			<trkpt lat="-27.409571" lon="153.010407">
				<ele>25</ele>
				<time>2015-05-06T20:45:24Z</time>
				<extensions>
				</extensions>
			</trkpt>
			<trkpt lat="-27.409634" lon="153.010765">
				<ele>26</ele>
				<time>2015-05-06T20:45:26Z</time>
				<extensions>
				</extensions>
			</trkpt>
			<trkpt lat="-27.409672" lon="153.011111">
				<ele>25</ele>
				<time>2015-05-06T20:45:28Z</time>
				<extensions>
				</extensions>
			</trkpt>
			<trkpt lat="-27.409718" lon="153.011461">
				<ele>26</ele>
				<time>2015-05-06T20:45:30Z</time>
				<extensions>
				</extensions>
			</trkpt>
			<trkpt lat="-27.409769" lon="153.011811">
				<ele>25</ele>
				<time>2015-05-06T20:45:32Z</time>
				<extensions>
				</extensions>
			</trkpt>
			<trkpt lat="-27.409820" lon="153.012148">
				<ele>24</ele>
				<time>2015-05-06T20:45:34Z</time>
				<extensions>
				</extensions>
			</trkpt>
			<trkpt lat="-27.409863" lon="153.012449">
				<ele>24</ele>
				<time>2015-05-06T20:45:36Z</time>
				<extensions>
				</extensions>
			</trkpt>
			<trkpt lat="-27.409902" lon="153.012731">
				<ele>22</ele>
				<time>2015-05-06T20:45:38Z</time>
				<extensions>
				</extensions>
			</trkpt>
			<trkpt lat="-27.409939" lon="153.012999">
				<ele>22</ele>
				<time>2015-05-06T20:45:40Z</time>
				<extensions>
				</extensions>
			</trkpt>
			<trkpt lat="-27.409978" lon="153.013280">
				<ele>23</ele>
				<time>2015-05-06T20:45:42Z</time>
				<extensions>
				</extensions>
			</trkpt>
			<trkpt lat="-27.410020" lon="153.013594">
				<ele>24</ele>
				<time>2015-05-06T20:45:44Z</time>
				<extensions>
				</extensions>
			</trkpt>
			<trkpt lat="-27.410061" lon="153.013932">
				<ele>25</ele>
				<time>2015-05-06T20:45:46Z</time>
				<extensions>
				</extensions>
			</trkpt>
			<trkpt lat="-27.410108" lon="153.014265">
				<ele>24</ele>
				<time>2015-05-06T20:45:48Z</time>
				<extensions>
				</extensions>
			</trkpt>
			<trkpt lat="-27.410153" lon="153.014591">
				<ele>23</ele>
				<time>2015-05-06T20:45:50Z</time>
				<extensions>
				</extensions>
			</trkpt>
			<trkpt lat="-27.410194" lon="153.014886">
				<ele>22</ele>
				<time>2015-05-06T20:45:52Z</time>
				<extensions>
				</extensions>
			</trkpt>
			<trkpt lat="-27.410230" lon="153.015168">
				<ele>20</ele>
				<time>2015-05-06T20:45:54Z</time>
				<extensions>
				</extensions>
			</trkpt>
			<trkpt lat="-27.410271" lon="153.015448">
				<ele>20</ele>
				<time>2015-05-06T20:45:56Z</time>
				<extensions>
				</extensions>
			</trkpt>
			<trkpt lat="-27.410322" lon="153.015751">
				<ele>21</ele>
				<time>2015-05-06T20:45:58Z</time>
				<extensions>
				</extensions>
			</trkpt>
			<trkpt lat="-27.410344" lon="153.016003">
				<ele>21</ele>
				<time>2015-05-06T20:46:00Z</time>
				<extensions>
				</extensions>
			</trkpt>
			<trkpt lat="-27.410379" lon="153.016260">
				<ele>21</ele>
				<time>2015-05-06T20:46:02Z</time>
				<extensions>
				</extensions>
			</trkpt>
			<trkpt lat="-27.410413" lon="153.016542">
				<ele>22</ele>
				<time>2015-05-06T20:46:04Z</time>
				<extensions>
				</extensions>
			</trkpt>
			<trkpt lat="-27.410447" lon="153.016827">
				<ele>22</ele>
				<time>2015-05-06T20:46:06Z</time>
				<extensions>
				</extensions>
			</trkpt>
			<trkpt lat="-27.410485" lon="153.017109">
				<ele>22</ele>
				<time>2015-05-06T20:46:08Z</time>
				<extensions>
				</extensions>
			</trkpt>
			<trkpt lat="-27.410524" lon="153.017387">
				<ele>20</ele>
				<time>2015-05-06T20:46:10Z</time>
				<extensions>
				</extensions>
			</trkpt>
			<trkpt lat="-27.410562" lon="153.017660">
				<ele>19</ele>
				<time>2015-05-06T20:46:12Z</time>
				<extensions>
				</extensions>
			</trkpt>
			<trkpt lat="-27.410600" lon="153.017917">
				<ele>18</ele>
				<time>2015-05-06T20:46:14Z</time>
				<extensions>
				</extensions>
			</trkpt>
			<trkpt lat="-27.410634" lon="153.018131">
				<ele>18</ele>
				<time>2015-05-06T20:46:16Z</time>
				<extensions>
				</extensions>
			</trkpt>
			<trkpt lat="-27.410669" lon="153.018346">
				<ele>17</ele>
				<time>2015-05-06T20:46:22Z</time>
				<extensions>
				</extensions>
			</trkpt>
			<trkpt lat="-27.410703" lon="153.018595">
				<ele>20</ele>
				<time>2015-05-06T20:46:26Z</time>
				<extensions>
				</extensions>
			</trkpt>
			<trkpt lat="-27.410732" lon="153.018819">
				<ele>22</ele>
				<time>2015-05-06T20:46:28Z</time>
				<extensions>
				</extensions>
			</trkpt>
			<trkpt lat="-27.410759" lon="153.019039">
				<ele>22</ele>
				<time>2015-05-06T20:46:30Z</time>
				<extensions>
				</extensions>
			</trkpt>
			<trkpt lat="-27.410795" lon="153.019332">
				<ele>21</ele>
				<time>2015-05-06T20:46:33Z</time>
				<extensions>
				</extensions>
			</trkpt>
			<trkpt lat="-27.410828" lon="153.019593">
				<ele>19</ele>
				<time>2015-05-06T20:46:36Z</time>
				<extensions>
				</extensions>
			</trkpt>
			<trkpt lat="-27.410856" lon="153.019795">
				<ele>20</ele>
				<time>2015-05-06T20:46:38Z</time>
				<extensions>
				</extensions>
			</trkpt>
			<trkpt lat="-27.410881" lon="153.020013">
				<ele>20</ele>
				<time>2015-05-06T20:46:40Z</time>
				<extensions>
				</extensions>
			</trkpt>
			<trkpt lat="-27.410908" lon="153.020251">
				<ele>19</ele>
				<time>2015-05-06T20:46:42Z</time>
				<extensions>
				</extensions>
			</trkpt>
			<trkpt lat="-27.410942" lon="153.020516">
				<ele>20</ele>
				<time>2015-05-06T20:46:44Z</time>
				<extensions>
				</extensions>
			</trkpt>
			<trkpt lat="-27.410973" lon="153.020796">
				<ele>21</ele>
				<time>2015-05-06T20:46:46Z</time>
				<extensions>
				</extensions>
			</trkpt>
			<trkpt lat="-27.411006" lon="153.021078">
				<ele>20</ele>
				<time>2015-05-06T20:46:48Z</time>
				<extensions>
				</extensions>
			</trkpt>
			<trkpt lat="-27.411043" lon="153.021359">
				<ele>21</ele>
				<time>2015-05-06T20:46:50Z</time>
				<extensions>
				</extensions>
			</trkpt>
			<trkpt lat="-27.411086" lon="153.021653">
				<ele>22</ele>
				<time>2015-05-06T20:46:52Z</time>
				<extensions>
				</extensions>
			</trkpt>
			<trkpt lat="-27.411123" lon="153.021921">
				<ele>22</ele>
				<time>2015-05-06T20:46:54Z</time>
				<extensions>
				</extensions>
			</trkpt>
			<trkpt lat="-27.411152" lon="153.022139">
				<ele>22</ele>
				<time>2015-05-06T20:46:56Z</time>
				<extensions>
				</extensions>
			</trkpt>
			<trkpt lat="-27.411181" lon="153.022362">
				<ele>22</ele>
				<time>2015-05-06T20:46:58Z</time>
				<extensions>
				</extensions>
			</trkpt>
			<trkpt lat="-27.411217" lon="153.022617">
				<ele>24</ele>
				<time>2015-05-06T20:47:00Z</time>
				<extensions>
				</extensions>
			</trkpt>
			<trkpt lat="-27.411252" lon="153.022901">
				<ele>24</ele>
				<time>2015-05-06T20:47:02Z</time>
				<extensions>
				</extensions>
			</trkpt>
			<trkpt lat="-27.411289" lon="153.023170">
				<ele>24</ele>
				<time>2015-05-06T20:47:04Z</time>
				<extensions>
				</extensions>
			</trkpt>
			<trkpt lat="-27.411325" lon="153.023425">
				<ele>24</ele>
				<time>2015-05-06T20:47:06Z</time>
				<extensions>
				</extensions>
			</trkpt>
			<trkpt lat="-27.411357" lon="153.023661">
				<ele>24</ele>
				<time>2015-05-06T20:47:08Z</time>
				<extensions>
				</extensions>
			</trkpt>
			<trkpt lat="-27.411397" lon="153.023933">
				<ele>26</ele>
				<time>2015-05-06T20:47:10Z</time>
				<extensions>
				</extensions>
			</trkpt>
			<trkpt lat="-27.411434" lon="153.024233">
				<ele>28</ele>
				<time>2015-05-06T20:47:12Z</time>
				<extensions>
				</extensions>
			</trkpt>
			<trkpt lat="-27.411477" lon="153.024562">
				<ele>30</ele>
				<time>2015-05-06T20:47:14Z</time>
				<extensions>
				</extensions>
			</trkpt>
			<trkpt lat="-27.411520" lon="153.024899">
				<ele>31</ele>
				<time>2015-05-06T20:47:16Z</time>
				<extensions>
				</extensions>
			</trkpt>
			<trkpt lat="-27.411549" lon="153.025138">
				<ele>29</ele>
				<time>2015-05-06T20:47:18Z</time>
				<extensions>
				</extensions>
			</trkpt>
			<trkpt lat="-27.411580" lon="153.025381">
				<ele>28</ele>
				<time>2015-05-06T20:47:22Z</time>
				<extensions>
				</extensions>
			</trkpt>
			<trkpt lat="-27.411599" lon="153.025586">
				<ele>29</ele>
				<time>2015-05-06T20:47:44Z</time>
				<extensions>
				</extensions>
			</trkpt>
			<trkpt lat="-27.411627" lon="153.025794">
				<ele>31</ele>
				<time>2015-05-06T20:47:58Z</time>
				<extensions>
				</extensions>
			</trkpt>
			<trkpt lat="-27.411659" lon="153.026048">
				<ele>33</ele>
				<time>2015-05-06T20:48:01Z</time>
				<extensions>
				</extensions>
			</trkpt>
			<trkpt lat="-27.411690" lon="153.026274">
				<ele>34</ele>
				<time>2015-05-06T20:48:03Z</time>
				<extensions>
				</extensions>
			</trkpt>
			<trkpt lat="-27.411729" lon="153.026556">
				<ele>37</ele>
				<time>2015-05-06T20:48:05Z</time>
				<extensions>
				</extensions>
			</trkpt>
			<trkpt lat="-27.411766" lon="153.026881">
				<ele>39</ele>
				<time>2015-05-06T20:48:07Z</time>
				<extensions>
				</extensions>
			</trkpt>
			<trkpt lat="-27.411808" lon="153.027203">
				<ele>39</ele>
				<time>2015-05-06T20:48:09Z</time>
				<extensions>
				</extensions>
			</trkpt>
			<trkpt lat="-27.411846" lon="153.027515">
				<ele>37</ele>
				<time>2015-05-06T20:48:11Z</time>
				<extensions>
				</extensions>
			</trkpt>
			<trkpt lat="-27.411884" lon="153.027797">
				<ele>34</ele>
				<time>2015-05-06T20:48:13Z</time>
				<extensions>
				</extensions>
			</trkpt>
			<trkpt lat="-27.411920" lon="153.028067">
				<ele>33</ele>
				<time>2015-05-06T20:48:15Z</time>
				<extensions>
				</extensions>
			</trkpt>
			<trkpt lat="-27.411954" lon="153.028321">
				<ele>32</ele>
				<time>2015-05-06T20:48:17Z</time>
				<extensions>
				</extensions>
			</trkpt>
			<trkpt lat="-27.411988" lon="153.028569">
				<ele>30</ele>
				<time>2015-05-06T20:48:19Z</time>
				<extensions>
				</extensions>
			</trkpt>
			<trkpt lat="-27.412018" lon="153.028791">
				<ele>28</ele>
				<time>2015-05-06T20:48:21Z</time>
				<extensions>
				</extensions>
			</trkpt>
			<trkpt lat="-27.412046" lon="153.029011">
				<ele>27</ele>
				<time>2015-05-06T20:48:23Z</time>
				<extensions>
				</extensions>
			</trkpt>
			<trkpt lat="-27.412078" lon="153.029235">
				<ele>26</ele>
				<time>2015-05-06T20:48:25Z</time>
				<extensions>
				</extensions>
			</trkpt>
			<trkpt lat="-27.412116" lon="153.029511">
				<ele>26</ele>
				<time>2015-05-06T20:48:27Z</time>
				<extensions>
				</extensions>
			</trkpt>
			<trkpt lat="-27.612230" lon="153.122972">
				<ele>20</ele>
				<time>2015-05-06T21:06:32Z</time>
				<extensions>
				</extensions>
			</trkpt>
			<trkpt lat="-27.612477" lon="153.123078">
				<ele>20</ele>
				<time>2015-05-06T21:06:33Z</time>
				<extensions>
				</extensions>
			</trkpt>
			<trkpt lat="-27.612719" lon="153.123185">
				<ele>20</ele>
				<time>2015-05-06T21:06:34Z</time>
				<extensions>
				</extensions>
			</trkpt>
			<trkpt lat="-27.612964" lon="153.123280">
				<ele>18</ele>
				<time>2015-05-06T21:06:35Z</time>
				<extensions>
				</extensions>
			</trkpt>
			<trkpt lat="-27.613210" lon="153.123367">
				<ele>20</ele>
				<time>2015-05-06T21:06:36Z</time>
				<extensions>
				</extensions>
			</trkpt>
			<trkpt lat="-27.613460" lon="153.123447">
				<ele>19</ele>
				<time>2015-05-06T21:06:37Z</time>
				<extensions>
				</extensions>
			</trkpt>
			<trkpt lat="-27.613713" lon="153.123522">
				<ele>22</ele>
				<time>2015-05-06T21:06:38Z</time>
				<extensions>
				</extensions>
			</trkpt>
			<trkpt lat="-27.613969" lon="153.123590">
				<ele>20</ele>
				<time>2015-05-06T21:06:39Z</time>
				<extensions>
				</extensions>
			</trkpt>
			<trkpt lat="-27.614234" lon="153.123666">
				<ele>20</ele>
				<time>2015-05-06T21:06:40Z</time>
				<extensions>
				</extensions>
			</trkpt>
			<trkpt lat="-27.614497" lon="153.123744">
				<ele>23</ele>
				<time>2015-05-06T21:06:41Z</time>
				<extensions>
				</extensions>
			</trkpt>
			<trkpt lat="-27.614758" lon="153.123827">
				<ele>22</ele>
				<time>2015-05-06T21:06:42Z</time>
				<extensions>
				</extensions>
			</trkpt>
			<trkpt lat="-27.615020" lon="153.123925">
				<ele>22</ele>
				<time>2015-05-06T21:06:43Z</time>
				<extensions>
				</extensions>
			</trkpt>
			<trkpt lat="-27.615277" lon="153.124030">
				<ele>22</ele>
				<time>2015-05-06T21:06:44Z</time>
				<extensions>
				</extensions>
			</trkpt>
			<trkpt lat="-27.615528" lon="153.124132">
				<ele>23</ele>
				<time>2015-05-06T21:06:45Z</time>
				<extensions>
				</extensions>
			</trkpt>
			<trkpt lat="-27.615775" lon="153.124242">
				<ele>22</ele>
				<time>2015-05-06T21:06:46Z</time>
				<extensions>
				</extensions>
			</trkpt>
			<trkpt lat="-27.616011" lon="153.124355">
				<ele>20</ele>
				<time>2015-05-06T21:06:47Z</time>
				<extensions>
				</extensions>
			</trkpt>
			<trkpt lat="-27.616240" lon="153.124481">
				<ele>19</ele>
				<time>2015-05-06T21:06:48Z</time>
				<extensions>
				</extensions>
			</trkpt>
			<trkpt lat="-27.616462" lon="153.124613">
				<ele>18</ele>
				<time>2015-05-06T21:06:49Z</time>
				<extensions>
				</extensions>
			</trkpt>
			<trkpt lat="-27.616687" lon="153.124752">
				<ele>22</ele>
				<time>2015-05-06T21:06:50Z</time>
				<extensions>
				</extensions>
			</trkpt>
			<trkpt lat="-27.616917" lon="153.124891">
				<ele>20</ele>
				<time>2015-05-06T21:06:51Z</time>
				<extensions>
				</extensions>
			</trkpt>
			<trkpt lat="-27.617143" lon="153.125038">
				<ele>21</ele>
				<time>2015-05-06T21:06:52Z</time>
				<extensions>
				</extensions>
			</trkpt>
			<trkpt lat="-27.617373" lon="153.125178">
				<ele>18</ele>
				<time>2015-05-06T21:06:53Z</time>
				<extensions>
				</extensions>
			</trkpt>
			<trkpt lat="-27.617604" lon="153.125314">
				<ele>15</ele>
				<time>2015-05-06T21:06:54Z</time>
				<extensions>
				</extensions>
			</trkpt>
			<trkpt lat="-27.617836" lon="153.125453">
				<ele>17</ele>
				<time>2015-05-06T21:06:55Z</time>
				<extensions>
				</extensions>
			</trkpt>
			<trkpt lat="-27.618067" lon="153.125582">
				<ele>16</ele>
				<time>2015-05-06T21:06:56Z</time>
				<extensions>
				</extensions>
			</trkpt>
			<trkpt lat="-27.618300" lon="153.125712">
				<ele>15</ele>
				<time>2015-05-06T21:06:57Z</time>
				<extensions>
				</extensions>
			</trkpt>
			<trkpt lat="-27.618536" lon="153.125832">
				<ele>15</ele>
				<time>2015-05-06T21:06:58Z</time>
				<extensions>
				</extensions>
			</trkpt>
			<trkpt lat="-27.618773" lon="153.125950">
				<ele>13</ele>
				<time>2015-05-06T21:06:59Z</time>
				<extensions>
				</extensions>
			</trkpt>
			<trkpt lat="-27.619018" lon="153.126068">
				<ele>13</ele>
				<time>2015-05-06T21:07:00Z</time>
				<extensions>
				</extensions>
			</trkpt>
			<trkpt lat="-27.619258" lon="153.126187">
				<ele>10</ele>
				<time>2015-05-06T21:07:01Z</time>
				<extensions>
				</extensions>
			</trkpt>
			<trkpt lat="-27.619499" lon="153.126298">
				<ele>11</ele>
				<time>2015-05-06T21:07:02Z</time>
				<extensions>
				</extensions>
			</trkpt>
			<trkpt lat="-27.619738" lon="153.126413">
				<ele>14</ele>
				<time>2015-05-06T21:07:03Z</time>
				<extensions>
				</extensions>
			</trkpt>
			<trkpt lat="-27.619983" lon="153.126523">
				<ele>12</ele>
				<time>2015-05-06T21:07:04Z</time>
				<extensions>
				</extensions>
			</trkpt>
			<trkpt lat="-27.620225" lon="153.126628">
				<ele>12</ele>
				<time>2015-05-06T21:07:05Z</time>
				<extensions>
				</extensions>
			</trkpt>
			<trkpt lat="-27.620469" lon="153.126730">
				<ele>10</ele>
				<time>2015-05-06T21:07:06Z</time>
				<extensions>
				</extensions>
			</trkpt>
			<trkpt lat="-27.620712" lon="153.126842">
				<ele>8</ele>
				<time>2015-05-06T21:07:07Z</time>
				<extensions>
				</extensions>
			</trkpt>
			<trkpt lat="-27.620955" lon="153.126956">
				<ele>9</ele>
				<time>2015-05-06T21:07:08Z</time>
				<extensions>
				</extensions>
			</trkpt>
			<trkpt lat="-27.621202" lon="153.127066">
				<ele>11</ele>
				<time>2015-05-06T21:07:09Z</time>
				<extensions>
				</extensions>
			</trkpt>
			<trkpt lat="-27.621450" lon="153.127177">
				<ele>10</ele>
				<time>2015-05-06T21:07:10Z</time>
				<extensions>
				</extensions>
			</trkpt>
			<trkpt lat="-27.621697" lon="153.127285">
				<ele>12</ele>
				<time>2015-05-06T21:07:11Z</time>
				<extensions>
				</extensions>
			</trkpt>
			<trkpt lat="-27.621942" lon="153.127395">
				<ele>13</ele>
				<time>2015-05-06T21:07:12Z</time>
				<extensions>
				</extensions>
			</trkpt>
			<trkpt lat="-27.622189" lon="153.127503">
				<ele>11</ele>
				<time>2015-05-06T21:07:13Z</time>
				<extensions>
				</extensions>
			</trkpt>
			<trkpt lat="-27.622440" lon="153.127617">
				<ele>14</ele>
				<time>2015-05-06T21:07:14Z</time>
				<extensions>
				</extensions>
			</trkpt>
			<trkpt lat="-27.622689" lon="153.127732">
				<ele>15</ele>
				<time>2015-05-06T21:07:15Z</time>
				<extensions>
				</extensions>
			</trkpt>
			<trkpt lat="-27.622941" lon="153.127853">
				<ele>13</ele>
				<time>2015-05-06T21:07:16Z</time>
				<extensions>
				</extensions>
			</trkpt>
			<trkpt lat="-27.623190" lon="153.127973">
				<ele>15</ele>
				<time>2015-05-06T21:07:17Z</time>
				<extensions>
				</extensions>
			</trkpt>
			<trkpt lat="-27.623440" lon="153.128095">
				<ele>16</ele>
				<time>2015-05-06T21:07:18Z</time>
				<extensions>
				</extensions>
			</trkpt>
			<trkpt lat="-27.623688" lon="153.128210">
				<ele>17</ele>
				<time>2015-05-06T21:07:19Z</time>
				<extensions>
				</extensions>
			</trkpt>
			<trkpt lat="-27.623935" lon="153.128325">
				<ele>18</ele>
				<time>2015-05-06T21:07:20Z</time>
				<extensions>
				</extensions>
			</trkpt>
			<trkpt lat="-27.624181" lon="153.128440">
				<ele>19</ele>
				<time>2015-05-06T21:07:21Z</time>
				<extensions>
				</extensions>
			</trkpt>
			<trkpt lat="-27.624426" lon="153.128554">
				<ele>14</ele>
				<time>2015-05-06T21:07:22Z</time>
				<extensions>
				</extensions>
			</trkpt>
			<trkpt lat="-27.624679" lon="153.128670">
				<ele>12</ele>
				<time>2015-05-06T21:07:23Z</time>
				<extensions>
				</extensions>
			</trkpt>
			<trkpt lat="-27.624926" lon="153.128779">
				<ele>14</ele>
				<time>2015-05-06T21:07:24Z</time>
				<extensions>
				</extensions>
			</trkpt>
			<trkpt lat="-27.625166" lon="153.128895">
				<ele>17</ele>
				<time>2015-05-06T21:07:25Z</time>
				<extensions>
				</extensions>
			</trkpt>
			<trkpt lat="-27.625407" lon="153.128999">
				<ele>16</ele>
				<time>2015-05-06T21:07:26Z</time>
				<extensions>
				</extensions>
			</trkpt>
			<trkpt lat="-27.625653" lon="153.129090">
				<ele>16</ele>
				<time>2015-05-06T21:07:27Z</time>
				<extensions>
				</extensions>
			</trkpt>
			<trkpt lat="-27.625896" lon="153.129176">
				<ele>21</ele>
				<time>2015-05-06T21:07:28Z</time>
				<extensions>
				</extensions>
			</trkpt>
			<trkpt lat="-27.626142" lon="153.129269">
				<ele>19</ele>
				<time>2015-05-06T21:07:29Z</time>
				<extensions>
				</extensions>
			</trkpt>
			<trkpt lat="-27.626388" lon="153.129365">
				<ele>15</ele>
				<time>2015-05-06T21:07:30Z</time>
				<extensions>
				</extensions>
			</trkpt>
			<trkpt lat="-27.626638" lon="153.129465">
				<ele>15</ele>
				<time>2015-05-06T21:07:31Z</time>
				<extensions>
				</extensions>
			</trkpt>
			<trkpt lat="-27.626890" lon="153.129567">
				<ele>17</ele>
				<time>2015-05-06T21:07:32Z</time>
				<extensions>
				</extensions>
			</trkpt>
			<trkpt lat="-27.627139" lon="153.129670">
				<ele>17</ele>
				<time>2015-05-06T21:07:33Z</time>
				<extensions>
				</extensions>
			</trkpt>
			<trkpt lat="-27.627394" lon="153.129771">
				<ele>17</ele>
				<time>2015-05-06T21:07:34Z</time>
				<extensions>
				</extensions>
			</trkpt>
			<trkpt lat="-27.627651" lon="153.129871">
				<ele>16</ele>
				<time>2015-05-06T21:07:35Z</time>
				<extensions>
				</extensions>
			</trkpt>
			<trkpt lat="-27.627905" lon="153.129973">
				<ele>15</ele>
				<time>2015-05-06T21:07:36Z</time>
				<extensions>
				</extensions>
			</trkpt>
			<trkpt lat="-27.628160" lon="153.130075">
				<ele>18</ele>
				<time>2015-05-06T21:07:37Z</time>
				<extensions>
				</extensions>
			</trkpt>
			<trkpt lat="-27.628409" lon="153.130178">
				<ele>17</ele>
				<time>2015-05-06T21:07:38Z</time>
				<extensions>
				</extensions>
			</trkpt>
			<trkpt lat="-27.628656" lon="153.130280">
				<ele>17</ele>
				<time>2015-05-06T21:07:39Z</time>
				<extensions>
				</extensions>
			</trkpt>
			<trkpt lat="-27.628897" lon="153.130374">
				<ele>16</ele>
				<time>2015-05-06T21:07:40Z</time>
				<extensions>
				</extensions>
			</trkpt>
			<trkpt lat="-27.629129" lon="153.130470">
				<ele>14</ele>
				<time>2015-05-06T21:07:41Z</time>
				<extensions>
				</extensions>
			</trkpt>
			<trkpt lat="-27.629357" lon="153.130558">
				<ele>15</ele>
				<time>2015-05-06T21:07:42Z</time>
				<extensions>
				</extensions>
			</trkpt>
			<trkpt lat="-27.629586" lon="153.130653">
				<ele>16</ele>
				<time>2015-05-06T21:07:43Z</time>
				<extensions>
				</extensions>
			</trkpt>
			<trkpt lat="-27.629823" lon="153.130754">
				<ele>17</ele>
				<time>2015-05-06T21:07:44Z</time>
				<extensions>
				</extensions>
			</trkpt>
			<trkpt lat="-27.630066" lon="153.130849">
				<ele>20</ele>
				<time>2015-05-06T21:07:45Z</time>
				<extensions>
				</extensions>
			</trkpt>
			<trkpt lat="-27.630311" lon="153.130951">
				<ele>22</ele>
				<time>2015-05-06T21:07:46Z</time>
				<extensions>
				</extensions>
			</trkpt>
			<trkpt lat="-27.630550" lon="153.131057">
				<ele>24</ele>
				<time>2015-05-06T21:07:47Z</time>
				<extensions>
				</extensions>
			</trkpt>
			<trkpt lat="-27.630781" lon="153.131174">
				<ele>24</ele>
				<time>2015-05-06T21:07:48Z</time>
				<extensions>
				</extensions>
			</trkpt>
			<trkpt lat="-27.631012" lon="153.131299">
				<ele>24</ele>
				<time>2015-05-06T21:07:49Z</time>
				<extensions>
				</extensions>
			</trkpt>
			<trkpt lat="-27.631232" lon="153.131434">
				<ele>23</ele>
				<time>2015-05-06T21:07:50Z</time>
				<extensions>
				</extensions>
			</trkpt>
			<trkpt lat="-27.631445" lon="153.131574">
				<ele>23</ele>
				<time>2015-05-06T21:07:51Z</time>
				<extensions>
				</extensions>
			</trkpt>
			<trkpt lat="-27.631660" lon="153.131723">
				<ele>21</ele>
				<time>2015-05-06T21:07:52Z</time>
				<extensions>
				</extensions>
			</trkpt>
			<trkpt lat="-27.631871" lon="153.131886">
				<ele>22</ele>
				<time>2015-05-06T21:07:53Z</time>
				<extensions>
				</extensions>
			</trkpt>
			<trkpt lat="-27.632082" lon="153.132065">
				<ele>23</ele>
				<time>2015-05-06T21:07:54Z</time>
				<extensions>
				</extensions>
			</trkpt>
			<trkpt lat="-27.632294" lon="153.132248">
				<ele>23</ele>
				<time>2015-05-06T21:07:55Z</time>
				<extensions>
				</extensions>
			</trkpt>
			<trkpt lat="-27.632498" lon="153.132440">
				<ele>23</ele>
				<time>2015-05-06T21:07:56Z</time>
				<extensions>
				</extensions>
			</trkpt>
			<trkpt lat="-27.632692" lon="153.132636">
				<ele>23</ele>
				<time>2015-05-06T21:07:57Z</time>
				<extensions>
				</extensions>
			</trkpt>
			<trkpt lat="-27.632885" lon="153.132836">
				<ele>22</ele>
				<time>2015-05-06T21:07:58Z</time>
				<extensions>
				</extensions>
			</trkpt>
			<trkpt lat="-27.633080" lon="153.133038">
				<ele>20</ele>
				<time>2015-05-06T21:07:59Z</time>
				<extensions>
				</extensions>
			</trkpt>
			<trkpt lat="-27.633269" lon="153.133240">
				<ele>20</ele>
				<time>2015-05-06T21:08:00Z</time>
				<extensions>
				</extensions>
			</trkpt>
			<trkpt lat="-27.633462" lon="153.133439">
				<ele>19</ele>
				<time>2015-05-06T21:08:01Z</time>
				<extensions>
				</extensions>
			</trkpt>
			<trkpt lat="-27.633654" lon="153.133640">
				<ele>17</ele>
				<time>2015-05-06T21:08:02Z</time>
				<extensions>
				</extensions>
			</trkpt>
			<trkpt lat="-27.633851" lon="153.133840">
				<ele>19</ele>
				<time>2015-05-06T21:08:03Z</time>
				<extensions>
				</extensions>
			</trkpt>
			<trkpt lat="-27.634039" lon="153.134040">
				<ele>18</ele>
				<time>2015-05-06T21:08:04Z</time>
				<extensions>
				</extensions>
			</trkpt>
			<trkpt lat="-27.634230" lon="153.134237">
				<ele>21</ele>
				<time>2015-05-06T21:08:05Z</time>
				<extensions>
				</extensions>
			</trkpt>
			<trkpt lat="-27.634411" lon="153.134425">
				<ele>19</ele>
				<time>2015-05-06T21:08:06Z</time>
				<extensions>
				</extensions>
			</trkpt>
			<trkpt lat="-27.634594" lon="153.134615">
				<ele>16</ele>
				<time>2015-05-06T21:08:07Z</time>
				<extensions>
				</extensions>
			</trkpt>
			<trkpt lat="-27.634774" lon="153.134812">
				<ele>15</ele>
				<time>2015-05-06T21:08:08Z</time>
				<extensions>
				</extensions>
			</trkpt>
			<trkpt lat="-27.634955" lon="153.135015">
				<ele>15</ele>
				<time>2015-05-06T21:08:09Z</time>
				<extensions>
				</extensions>
			</trkpt>
			<trkpt lat="-27.635137" lon="153.135224">
				<ele>13</ele>
				<time>2015-05-06T21:08:10Z</time>
				<extensions>
				</extensions>
			</trkpt>
			<trkpt lat="-27.635323" lon="153.135425">
				<ele>11</ele>
				<time>2015-05-06T21:08:11Z</time>
				<extensions>
				</extensions>
			</trkpt>
			<trkpt lat="-27.635506" lon="153.135630">
				<ele>10</ele>
				<time>2015-05-06T21:08:12Z</time>
				<extensions>
				</extensions>
			</trkpt>
			<trkpt lat="-27.635688" lon="153.135825">
				<ele>9</ele>
				<time>2015-05-06T21:08:13Z</time>
				<extensions>
				</extensions>
			</trkpt>
			<trkpt lat="-27.635877" lon="153.136022">
				<ele>9</ele>
				<time>2015-05-06T21:08:14Z</time>
				<extensions>
				</extensions>
			</trkpt>
			<trkpt lat="-27.636064" lon="153.136218">
				<ele>8</ele>
				<time>2015-05-06T21:08:15Z</time>
				<extensions>
				</extensions>
			</trkpt>
			<trkpt lat="-27.636250" lon="153.136417">
				<ele>9</ele>
				<time>2015-05-06T21:08:16Z</time>
				<extensions>
				</extensions>
			</trkpt>
			<trkpt lat="-27.636436" lon="153.136617">
				<ele>8</ele>
				<time>2015-05-06T21:08:17Z</time>
				<extensions>
				</extensions>
			</trkpt>
			<trkpt lat="-27.636620" lon="153.136821">
				<ele>6</ele>
				<time>2015-05-06T21:08:18Z</time>
				<extensions>
				</extensions>
			</trkpt>
			<trkpt lat="-27.636808" lon="153.137022">
				<ele>9</ele>
				<time>2015-05-06T21:08:19Z</time>
				<extensions>
				</extensions>
			</trkpt>
			<trkpt lat="-27.636993" lon="153.137230">
				<ele>10</ele>
				<time>2015-05-06T21:08:20Z</time>
				<extensions>
				</extensions>
			</trkpt>
			<trkpt lat="-27.637178" lon="153.137437">
				<ele>8</ele>
				<time>2015-05-06T21:08:21Z</time>
				<extensions>
				</extensions>
			</trkpt>
			<trkpt lat="-27.637364" lon="153.137636">
				<ele>8</ele>
				<time>2015-05-06T21:08:22Z</time>
				<extensions>
				</extensions>
			</trkpt>
			<trkpt lat="-27.637552" lon="153.137844">
				<ele>7</ele>
				<time>2015-05-06T21:08:23Z</time>
				<extensions>
				</extensions>
			</trkpt>
			<trkpt lat="-27.637740" lon="153.138039">
				<ele>9</ele>
				<time>2015-05-06T21:08:24Z</time>
				<extensions>
				</extensions>
			</trkpt>
			<trkpt lat="-27.637924" lon="153.138241">
				<ele>7</ele>
				<time>2015-05-06T21:08:25Z</time>
				<extensions>
				</extensions>
			</trkpt>
			<trkpt lat="-27.638108" lon="153.138447">
				<ele>6</ele>
				<time>2015-05-06T21:08:26Z</time>
				<extensions>
				</extensions>
			</trkpt>
			<trkpt lat="-27.638295" lon="153.138649">
				<ele>8</ele>
				<time>2015-05-06T21:08:27Z</time>
				<extensions>
				</extensions>
			</trkpt>
			<trkpt lat="-27.638481" lon="153.138857">
				<ele>9</ele>
				<time>2015-05-06T21:08:28Z</time>
				<extensions>
				</extensions>
			</trkpt>
			<trkpt lat="-27.638672" lon="153.139068">
				<ele>9</ele>
				<time>2015-05-06T21:08:29Z</time>
				<extensions>
				</extensions>
			</trkpt>
			<trkpt lat="-27.638871" lon="153.139282">
				<ele>8</ele>
				<time>2015-05-06T21:08:30Z</time>
				<extensions>
				</extensions>
			</trkpt>
			<trkpt lat="-27.639064" lon="153.139495">
				<ele>7</ele>
				<time>2015-05-06T21:08:31Z</time>
				<extensions>
				</extensions>
			</trkpt>
			<trkpt lat="-27.639262" lon="153.139713">
				<ele>7</ele>
				<time>2015-05-06T21:08:32Z</time>
				<extensions>
				</extensions>
			</trkpt>
			<trkpt lat="-27.639450" lon="153.139922">
				<ele>5</ele>
				<time>2015-05-06T21:08:33Z</time>
				<extensions>
				</extensions>
			</trkpt>
			<trkpt lat="-27.639648" lon="153.140144">
				<ele>6</ele>
				<time>2015-05-06T21:08:34Z</time>
				<extensions>
				</extensions>
			</trkpt>
			<trkpt lat="-27.639843" lon="153.140370">
				<ele>5</ele>
				<time>2015-05-06T21:08:35Z</time>
				<extensions>
				</extensions>
			</trkpt>
			<trkpt lat="-27.640034" lon="153.140582">
				<ele>3</ele>
				<time>2015-05-06T21:08:36Z</time>
				<extensions>
				</extensions>
			</trkpt>
			<trkpt lat="-27.640217" lon="153.140789">
				<ele>6</ele>
				<time>2015-05-06T21:08:37Z</time>
				<extensions>
				</extensions>
			</trkpt>
			<trkpt lat="-27.640392" lon="153.140993">
				<ele>1</ele>
				<time>2015-05-06T21:08:38Z</time>
				<extensions>
				</extensions>
			</trkpt>
			<trkpt lat="-27.640565" lon="153.141203">
				<ele>2</ele>
				<time>2015-05-06T21:08:39Z</time>
				<extensions>
				</extensions>
			</trkpt>
			<trkpt lat="-27.640733" lon="153.141417">
				<ele>1</ele>
				<time>2015-05-06T21:08:40Z</time>
				<extensions>
				</extensions>
			</trkpt>
			<trkpt lat="-27.640903" lon="153.141629">
				<ele>1</ele>
				<time>2015-05-06T21:08:41Z</time>
				<extensions>
				</extensions>
			</trkpt>
			<trkpt lat="-27.641070" lon="153.141836">
				<ele>3</ele>
				<time>2015-05-06T21:08:42Z</time>
				<extensions>
				</extensions>
			</trkpt>
			<trkpt lat="-27.641235" lon="153.142054">
				<ele>3</ele>
				<time>2015-05-06T21:08:43Z</time>
				<extensions>
				</extensions>
			</trkpt>
			<trkpt lat="-27.641397" lon="153.142272">
				<ele>6</ele>
				<time>2015-05-06T21:08:44Z</time>
				<extensions>
				</extensions>
			</trkpt>
			<trkpt lat="-27.641561" lon="153.142495">
				<ele>6</ele>
				<time>2015-05-06T21:08:45Z</time>
				<extensions>
				</extensions>
			</trkpt>
			<trkpt lat="-27.641728" lon="153.142719">
				<ele>9</ele>
				<time>2015-05-06T21:08:46Z</time>
				<extensions>
				</extensions>
			</trkpt>
			<trkpt lat="-27.641885" lon="153.142948">
				<ele>8</ele>
				<time>2015-05-06T21:08:47Z</time>
				<extensions>
				</extensions>
			</trkpt>
			<trkpt lat="-27.642044" lon="153.143173">
				<ele>10</ele>
				<time>2015-05-06T21:08:48Z</time>
				<extensions>
				</extensions>
			</trkpt>
			<trkpt lat="-27.642206" lon="153.143403">
				<ele>11</ele>
				<time>2015-05-06T21:08:49Z</time>
				<extensions>
				</extensions>
			</trkpt>
			<trkpt lat="-27.642366" lon="153.143627">
				<ele>12</ele>
				<time>2015-05-06T21:08:50Z</time>
				<extensions>
				</extensions>
			</trkpt>
			<trkpt lat="-27.642525" lon="153.143855">
				<ele>13</ele>
				<time>2015-05-06T21:08:51Z</time>
				<extensions>
				</extensions>
			</trkpt>
			<trkpt lat="-27.642685" lon="153.144082">
				<ele>12</ele>
				<time>2015-05-06T21:08:52Z</time>
				<extensions>
				</extensions>
			</trkpt>
			<trkpt lat="-27.642844" lon="153.144309">
				<ele>15</ele>
				<time>2015-05-06T21:08:53Z</time>
				<extensions>
				</extensions>
			</trkpt>
			<trkpt lat="-27.643003" lon="153.144533">
				<ele>13</ele>
				<time>2015-05-06T21:08:54Z</time>
				<extensions>
				</extensions>
			</trkpt>
			<trkpt lat="-27.643164" lon="153.144757">
				<ele>13</ele>
				<time>2015-05-06T21:08:55Z</time>
				<extensions>
				</extensions>
			</trkpt>
			<trkpt lat="-27.643326" lon="153.144982">
				<ele>14</ele>
				<time>2015-05-06T21:08:56Z</time>
				<extensions>
				</extensions>
			</trkpt>
			<trkpt lat="-27.643485" lon="153.145209">
				<ele>17</ele>
				<time>2015-05-06T21:08:57Z</time>
				<extensions>
				</extensions>
			</trkpt>
			<trkpt lat="-27.643645" lon="153.145440">
				<ele>17</ele>
				<time>2015-05-06T21:08:58Z</time>
				<extensions>
				</extensions>
			</trkpt>
			<trkpt lat="-27.643795" lon="153.145654">
				<ele>14</ele>
				<time>2015-05-06T21:08:59Z</time>
				<extensions>
				</extensions>
			</trkpt>
			<trkpt lat="-27.643961" lon="153.145884">
				<ele>14</ele>
				<time>2015-05-06T21:09:00Z</time>
				<extensions>
				</extensions>
			</trkpt>
			<trkpt lat="-27.644121" lon="153.146107">
				<ele>13</ele>
				<time>2015-05-06T21:09:01Z</time>
				<extensions>
				</extensions>
			</trkpt>
			<trkpt lat="-27.644271" lon="153.146329">
				<ele>12</ele>
				<time>2015-05-06T21:09:02Z</time>
				<extensions>
				</extensions>
			</trkpt>
			<trkpt lat="-27.644425" lon="153.146546">
				<ele>13</ele>
				<time>2015-05-06T21:09:03Z</time>
				<extensions>
				</extensions>
			</trkpt>
			<trkpt lat="-27.644583" lon="153.146768">
				<ele>11</ele>
				<time>2015-05-06T21:09:04Z</time>
				<extensions>
				</extensions>
			</trkpt>
			<trkpt lat="-27.644740" lon="153.146997">
				<ele>12</ele>
				<time>2015-05-06T21:09:05Z</time>
				<extensions>
				</extensions>
			</trkpt>
			<trkpt lat="-27.644901" lon="153.147224">
				<ele>13</ele>
				<time>2015-05-06T21:09:06Z</time>
				<extensions>
				</extensions>
			</trkpt>
			<trkpt lat="-27.645058" lon="153.147450">
				<ele>13</ele>
				<time>2015-05-06T21:09:07Z</time>
				<extensions>
				</extensions>
			</trkpt>
			<trkpt lat="-27.645222" lon="153.147687">
				<ele>14</ele>
				<time>2015-05-06T21:09:08Z</time>
				<extensions>
				</extensions>
			</trkpt>
			<trkpt lat="-27.645375" lon="153.147920">
				<ele>11</ele>
				<time>2015-05-06T21:09:09Z</time>
				<extensions>
				</extensions>
			</trkpt>
			<trkpt lat="-27.645528" lon="153.148163">
				<ele>9</ele>
				<time>2015-05-06T21:09:10Z</time>
				<extensions>
				</extensions>
			</trkpt>
			<trkpt lat="-27.645671" lon="153.148400">
				<ele>11</ele>
				<time>2015-05-06T21:09:11Z</time>
				<extensions>
				</extensions>
			</trkpt>
			<trkpt lat="-27.645815" lon="153.148649">
				<ele>12</ele>
				<time>2015-05-06T21:09:12Z</time>
				<extensions>
				</extensions>
			</trkpt>
			<trkpt lat="-27.645951" lon="153.148901">
				<ele>10</ele>
				<time>2015-05-06T21:09:13Z</time>
				<extensions>
				</extensions>
			</trkpt>
			<trkpt lat="-27.646078" lon="153.149157">
				<ele>9</ele>
				<time>2015-05-06T21:09:14Z</time>
				<extensions>
				</extensions>
			</trkpt>
			<trkpt lat="-27.646201" lon="153.149414">
				<ele>10</ele>
				<time>2015-05-06T21:09:15Z</time>
				<extensions>
				</extensions>
			</trkpt>
			<trkpt lat="-27.646316" lon="153.149668">
				<ele>8</ele>
				<time>2015-05-06T21:09:16Z</time>
				<extensions>
				</extensions>
			</trkpt>
			<trkpt lat="-27.646433" lon="153.149919">
				<ele>8</ele>
				<time>2015-05-06T21:09:17Z</time>
				<extensions>
				</extensions>
			</trkpt>
			<trkpt lat="-27.646533" lon="153.150180">
				<ele>9</ele>
				<time>2015-05-06T21:09:18Z</time>
				<extensions>
				</extensions>
			</trkpt>
			<trkpt lat="-27.646633" lon="153.150441">
				<ele>5</ele>
				<time>2015-05-06T21:09:19Z</time>
				<extensions>
				</extensions>
			</trkpt>
			<trkpt lat="-27.646724" lon="153.150714">
				<ele>5</ele>
				<time>2015-05-06T21:09:20Z</time>
				<extensions>
				</extensions>
			</trkpt>
			<trkpt lat="-27.646807" lon="153.150985">
				<ele>6</ele>
				<time>2015-05-06T21:09:21Z</time>
				<extensions>
				</extensions>
			</trkpt>
			<trkpt lat="-27.646888" lon="153.151262">
				<ele>5</ele>
				<time>2015-05-06T21:09:22Z</time>
				<extensions>
				</extensions>
			</trkpt>
			<trkpt lat="-27.646969" lon="153.151534">
				<ele>4</ele>
				<time>2015-05-06T21:09:23Z</time>
				<extensions>
				</extensions>
			</trkpt>
			<trkpt lat="-27.647048" lon="153.151798">
				<ele>5</ele>
				<time>2015-05-06T21:09:24Z</time>
				<extensions>
				</extensions>
			</trkpt>
			<trkpt lat="-27.647128" lon="153.152068">
				<ele>7</ele>
				<time>2015-05-06T21:09:25Z</time>
				<extensions>
				</extensions>
			</trkpt>
			<trkpt lat="-27.647207" lon="153.152333">
				<ele>3</ele>
				<time>2015-05-06T21:09:26Z</time>
				<extensions>
				</extensions>
			</trkpt>
			<trkpt lat="-27.647293" lon="153.152604">
				<ele>3</ele>
				<time>2015-05-06T21:09:27Z</time>
				<extensions>
				</extensions>
			</trkpt>
			<trkpt lat="-27.647371" lon="153.152867">
				<ele>3</ele>
				<time>2015-05-06T21:09:28Z</time>
				<extensions>
				</extensions>
			</trkpt>
			<trkpt lat="-27.647450" lon="153.153130">
				<ele>3</ele>
				<time>2015-05-06T21:09:29Z</time>
				<extensions>
				</extensions>
			</trkpt>
			<trkpt lat="-27.647530" lon="153.153387">
				<ele>2</ele>
				<time>2015-05-06T21:09:30Z</time>
				<extensions>
				</extensions>
			</trkpt>
			<trkpt lat="-27.647612" lon="153.153661">
				<ele>3</ele>
				<time>2015-05-06T21:09:31Z</time>
				<extensions>
				</extensions>
			</trkpt>
			<trkpt lat="-27.647696" lon="153.153927">
				<ele>1</ele>
				<time>2015-05-06T21:09:32Z</time>
				<extensions>
				</extensions>
			</trkpt>
			<trkpt lat="-27.647781" lon="153.154191">
				<ele>2</ele>
				<time>2015-05-06T21:09:33Z</time>
				<extensions>
				</extensions>
			</trkpt>
			<trkpt lat="-27.647855" lon="153.154460">
				<ele>0</ele>
				<time>2015-05-06T21:09:34Z</time>
				<extensions>
				</extensions>
			</trkpt>
			<trkpt lat="-27.647936" lon="153.154730">
				<ele>0</ele>
				<time>2015-05-06T21:09:35Z</time>
				<extensions>
				</extensions>
			</trkpt>
			<trkpt lat="-27.648024" lon="153.155000">
				<ele>0</ele>
				<time>2015-05-06T21:09:36Z</time>
				<extensions>
				</extensions>
			</trkpt>
			<trkpt lat="-27.648123" lon="153.155272">
				<ele>1</ele>
				<time>2015-05-06T21:09:37Z</time>
				<extensions>
				</extensions>
			</trkpt>
			<trkpt lat="-27.648229" lon="153.155535">
				<ele>2</ele>
				<time>2015-05-06T21:09:38Z</time>
				<extensions>
				</extensions>
			</trkpt>
			<trkpt lat="-27.648348" lon="153.155803">
				<ele>2</ele>
				<time>2015-05-06T21:09:39Z</time>
				<extensions>
				</extensions>
			</trkpt>
			<trkpt lat="-27.648479" lon="153.156063">
				<ele>3</ele>
				<time>2015-05-06T21:09:40Z</time>
				<extensions>
				</extensions>
			</trkpt>
			<trkpt lat="-27.648612" lon="153.156314">
				<ele>3</ele>
				<time>2015-05-06T21:09:41Z</time>
				<extensions>
				</extensions>
			</trkpt>
			<trkpt lat="-27.648757" lon="153.156567">
				<ele>3</ele>
				<time>2015-05-06T21:09:42Z</time>
				<extensions>
				</extensions>
			</trkpt>
			<trkpt lat="-27.648907" lon="153.156803">
				<ele>1</ele>
				<time>2015-05-06T21:09:43Z</time>
				<extensions>
				</extensions>
			</trkpt>
			<trkpt lat="-27.649067" lon="153.157040">
				<ele>1</ele>
				<time>2015-05-06T21:09:44Z</time>
				<extensions>
				</extensions>
			</trkpt>
			<trkpt lat="-27.649232" lon="153.157272">
				<ele>2</ele>
				<time>2015-05-06T21:09:45Z</time>
				<extensions>
				</extensions>
			</trkpt>
			<trkpt lat="-27.649406" lon="153.157490">
				<ele>1</ele>
				<time>2015-05-06T21:09:46Z</time>
				<extensions>
				</extensions>
			</trkpt>
			<trkpt lat="-27.649584" lon="153.157704">
				<ele>-0</ele>
				<time>2015-05-06T21:09:47Z</time>
				<extensions>
				</extensions>
			</trkpt>
			<trkpt lat="-27.649760" lon="153.157905">
				<ele>-1</ele>
				<time>2015-05-06T21:09:48Z</time>
				<extensions>
				</extensions>
			</trkpt>
			<trkpt lat="-27.649948" lon="153.158117">
				<ele>1</ele>
				<time>2015-05-06T21:09:49Z</time>
				<extensions>
				</extensions>
			</trkpt>
			<trkpt lat="-27.650138" lon="153.158328">
				<ele>0</ele>
				<time>2015-05-06T21:09:50Z</time>
				<extensions>
				</extensions>
			</trkpt>
			<trkpt lat="-27.650326" lon="153.158546">
				<ele>5</ele>
				<time>2015-05-06T21:09:51Z</time>
				<extensions>
				</extensions>
			</trkpt>
			<trkpt lat="-27.650501" lon="153.158762">
				<ele>5</ele>
				<time>2015-05-06T21:09:52Z</time>
				<extensions>
				</extensions>
			</trkpt>
			<trkpt lat="-27.650684" lon="153.158985">
				<ele>7</ele>
				<time>2015-05-06T21:09:53Z</time>
				<extensions>
				</extensions>
			</trkpt>
			<trkpt lat="-27.650878" lon="153.159197">
				<ele>6</ele>
				<time>2015-05-06T21:09:54Z</time>
				<extensions>
				</extensions>
			</trkpt>
			<trkpt lat="-27.651065" lon="153.159404">
				<ele>6</ele>
				<time>2015-05-06T21:09:55Z</time>
				<extensions>
				</extensions>
			</trkpt>
			<trkpt lat="-27.651241" lon="153.159600">
				<ele>6</ele>
				<time>2015-05-06T21:09:56Z</time>
				<extensions>
				</extensions>
			</trkpt>
			<trkpt lat="-27.651407" lon="153.159808">
				<ele>5</ele>
				<time>2015-05-06T21:09:57Z</time>
				<extensions>
				</extensions>
			</trkpt>
			<trkpt lat="-27.651582" lon="153.160004">
				<ele>5</ele>
				<time>2015-05-06T21:09:58Z</time>
				<extensions>
				</extensions>
			</trkpt>
			<trkpt lat="-27.651752" lon="153.160208">
				<ele>6</ele>
				<time>2015-05-06T21:09:59Z</time>
				<extensions>
				</extensions>
			</trkpt>
			<trkpt lat="-27.651927" lon="153.160412">
				<ele>5</ele>
				<time>2015-05-06T21:10:00Z</time>
				<extensions>
				</extensions>
			</trkpt>
			<trkpt lat="-27.652106" lon="153.160622">
				<ele>5</ele>
				<time>2015-05-06T21:10:01Z</time>
				<extensions>
				</extensions>
			</trkpt>
			<trkpt lat="-27.652286" lon="153.160832">
				<ele>4</ele>
				<time>2015-05-06T21:10:02Z</time>
				<extensions>
				</extensions>
			</trkpt>
			<trkpt lat="-27.652464" lon="153.161030">
				<ele>4</ele>
				<time>2015-05-06T21:10:03Z</time>
				<extensions>
				</extensions>
			</trkpt>
			<trkpt lat="-27.652641" lon="153.161235">
				<ele>6</ele>
				<time>2015-05-06T21:10:04Z</time>
				<extensions>
				</extensions>
			</trkpt>
			<trkpt lat="-27.652813" lon="153.161428">
				<ele>6</ele>
				<time>2015-05-06T21:10:05Z</time>
				<extensions>
				</extensions>
			</trkpt>
			<trkpt lat="-27.652987" lon="153.161625">
				<ele>8</ele>
				<time>2015-05-06T21:10:06Z</time>
				<extensions>
				</extensions>
			</trkpt>
			<trkpt lat="-27.653159" lon="153.161830">
				<ele>8</ele>
				<time>2015-05-06T21:10:07Z</time>
				<extensions>
				</extensions>
			</trkpt>
			<trkpt lat="-27.653335" lon="153.162033">
				<ele>7</ele>
				<time>2015-05-06T21:10:08Z</time>
				<extensions>
				</extensions>
			</trkpt>
			<trkpt lat="-27.653512" lon="153.162236">
				<ele>4</ele>
				<time>2015-05-06T21:10:09Z</time>
				<extensions>
				</extensions>
			</trkpt>
			<trkpt lat="-27.653690" lon="153.162440">
				<ele>7</ele>
				<time>2015-05-06T21:10:10Z</time>
				<extensions>
				</extensions>
			</trkpt>
			<trkpt lat="-27.653868" lon="153.162642">
				<ele>8</ele>
				<time>2015-05-06T21:10:11Z</time>
				<extensions>
				</extensions>
			</trkpt>
			<trkpt lat="-27.654045" lon="153.162848">
				<ele>6</ele>
				<time>2015-05-06T21:10:12Z</time>
				<extensions>
				</extensions>
			</trkpt>
			<trkpt lat="-27.654216" lon="153.163053">
				<ele>7</ele>
				<time>2015-05-06T21:10:13Z</time>
				<extensions>
				</extensions>
			</trkpt>
			<trkpt lat="-27.654395" lon="153.163261">
				<ele>6</ele>
				<time>2015-05-06T21:10:14Z</time>
				<extensions>
				</extensions>
			</trkpt>
			<trkpt lat="-27.654575" lon="153.163463">
				<ele>6</ele>
				<time>2015-05-06T21:10:15Z</time>
				<extensions>
				</extensions>
			</trkpt>
			<trkpt lat="-27.654748" lon="153.163667">
				<ele>4</ele>
				<time>2015-05-06T21:10:16Z</time>
				<extensions>
				</extensions>
			</trkpt>
			<trkpt lat="-27.654926" lon="153.163871">
				<ele>2</ele>
				<time>2015-05-06T21:10:17Z</time>
				<extensions>
				</extensions>
			</trkpt>
			<trkpt lat="-27.655110" lon="153.164074">
				<ele>1</ele>
				<time>2015-05-06T21:10:18Z</time>
				<extensions>
				</extensions>
			</trkpt>
			<trkpt lat="-27.655291" lon="153.164284">
				<ele>2</ele>
				<time>2015-05-06T21:10:19Z</time>
				<extensions>
				</extensions>
			</trkpt>
			<trkpt lat="-27.655471" lon="153.164480">
				<ele>1</ele>
				<time>2015-05-06T21:10:20Z</time>
				<extensions>
				</extensions>
			</trkpt>
			<trkpt lat="-27.655656" lon="153.164679">
				<ele>1</ele>
				<time>2015-05-06T21:10:21Z</time>
				<extensions>
				</extensions>
			</trkpt>
			<trkpt lat="-27.655839" lon="153.164878">
				<ele>1</ele>
				<time>2015-05-06T21:10:22Z</time>
				<extensions>
				</extensions>
			</trkpt>
			<trkpt lat="-27.656025" lon="153.165074">
				<ele>2</ele>
				<time>2015-05-06T21:10:23Z</time>
				<extensions>
				</extensions>
			</trkpt>
			<trkpt lat="-27.656211" lon="153.165266">
				<ele>0</ele>
				<time>2015-05-06T21:10:24Z</time>
				<extensions>
				</extensions>
			</trkpt>
			<trkpt lat="-27.656395" lon="153.165458">
				<ele>3</ele>
				<time>2015-05-06T21:10:25Z</time>
				<extensions>
				</extensions>
			</trkpt>
			<trkpt lat="-27.656580" lon="153.165634">
				<ele>-1</ele>
				<time>2015-05-06T21:10:26Z</time>
				<extensions>
				</extensions>
			</trkpt>
			<trkpt lat="-27.656771" lon="153.165816">
				<ele>2</ele>
				<time>2015-05-06T21:10:27Z</time>
				<extensions>
				</extensions>
			</trkpt>
			<trkpt lat="-27.656969" lon="153.165997">
				<ele>0</ele>
				<time>2015-05-06T21:10:28Z</time>
				<extensions>
				</extensions>
			</trkpt>
			<trkpt lat="-27.657164" lon="153.166184">
				<ele>2</ele>
				<time>2015-05-06T21:10:29Z</time>
				<extensions>
				</extensions>
			</trkpt>
			<trkpt lat="-27.657356" lon="153.166358">
				<ele>3</ele>
				<time>2015-05-06T21:10:30Z</time>
				<extensions>
				</extensions>
			</trkpt>
			<trkpt lat="-27.657549" lon="153.166537">
				<ele>3</ele>
				<time>2015-05-06T21:10:31Z</time>
				<extensions>
				</extensions>
			</trkpt>
			<trkpt lat="-27.657749" lon="153.166716">
				<ele>3</ele>
				<time>2015-05-06T21:10:32Z</time>
				<extensions>
				</extensions>
			</trkpt>
			<trkpt lat="-27.657953" lon="153.166894">
				<ele>4</ele>
				<time>2015-05-06T21:10:33Z</time>
				<extensions>
				</extensions>
			</trkpt>
			<trkpt lat="-27.658154" lon="153.167065">
				<ele>4</ele>
				<time>2015-05-06T21:10:34Z</time>
				<extensions>
				</extensions>
			</trkpt>
			<trkpt lat="-27.658358" lon="153.167232">
				<ele>5</ele>
				<time>2015-05-06T21:10:35Z</time>
				<extensions>
				</extensions>
			</trkpt>
			<trkpt lat="-27.658558" lon="153.167400">
				<ele>5</ele>
				<time>2015-05-06T21:10:36Z</time>
				<extensions>
				</extensions>
			</trkpt>
			<trkpt lat="-27.658761" lon="153.167575">
				<ele>5</ele>
				<time>2015-05-06T21:10:37Z</time>
				<extensions>
				</extensions>
			</trkpt>
			<trkpt lat="-27.658967" lon="153.167742">
				<ele>6</ele>
				<time>2015-05-06T21:10:38Z</time>
				<extensions>
				</extensions>
			</trkpt>
			<trkpt lat="-27.659171" lon="153.167912">
				<ele>3</ele>
				<time>2015-05-06T21:10:39Z</time>
				<extensions>
				</extensions>
			</trkpt>
			<trkpt lat="-27.659373" lon="153.168083">
				<ele>4</ele>
				<time>2015-05-06T21:10:40Z</time>
				<extensions>
				</extensions>
			</trkpt>
			<trkpt lat="-27.659573" lon="153.168247">
				<ele>2</ele>
				<time>2015-05-06T21:10:41Z</time>
				<extensions>
				</extensions>
			</trkpt>
			<trkpt lat="-27.659782" lon="153.168413">
				<ele>5</ele>
				<time>2015-05-06T21:10:42Z</time>
				<extensions>
				</extensions>
			</trkpt>
			<trkpt lat="-27.659988" lon="153.168579">
				<ele>4</ele>
				<time>2015-05-06T21:10:43Z</time>
				<extensions>
				</extensions>
			</trkpt>
			<trkpt lat="-27.660193" lon="153.168745">
				<ele>4</ele>
				<time>2015-05-06T21:10:44Z</time>
				<extensions>
				</extensions>
			</trkpt>
			<trkpt lat="-27.660395" lon="153.168917">
				<ele>4</ele>
				<time>2015-05-06T21:10:45Z</time>
				<extensions>
				</extensions>
			</trkpt>
			<trkpt lat="-27.660594" lon="153.169090">
				<ele>3</ele>
				<time>2015-05-06T21:10:46Z</time>
				<extensions>
				</extensions>
			</trkpt>
			<trkpt lat="-27.660797" lon="153.169266">
				<ele>7</ele>
				<time>2015-05-06T21:10:47Z</time>
				<extensions>
				</extensions>
			</trkpt>
			<trkpt lat="-27.660994" lon="153.169431">
				<ele>9</ele>
				<time>2015-05-06T21:10:48Z</time>
				<extensions>
				</extensions>
			</trkpt>
			<trkpt lat="-27.661187" lon="153.169608">
				<ele>11</ele>
				<time>2015-05-06T21:10:49Z</time>
				<extensions>
				</extensions>
			</trkpt>
			<trkpt lat="-27.661379" lon="153.169779">
				<ele>12</ele>
				<time>2015-05-06T21:10:50Z</time>
				<extensions>
				</extensions>
			</trkpt>
			<trkpt lat="-27.661568" lon="153.169953">
				<ele>12</ele>
				<time>2015-05-06T21:10:51Z</time>
				<extensions>
				</extensions>
			</trkpt>
			<trkpt lat="-27.661754" lon="153.170130">
				<ele>12</ele>
				<time>2015-05-06T21:10:52Z</time>
				<extensions>
				</extensions>
			</trkpt>
			<trkpt lat="-27.661938" lon="153.170301">
				<ele>12</ele>
				<time>2015-05-06T21:10:53Z</time>
				<extensions>
				</extensions>
			</trkpt>
			<trkpt lat="-27.662126" lon="153.170487">
				<ele>13</ele>
				<time>2015-05-06T21:10:54Z</time>
				<extensions>
				</extensions>
			</trkpt>
			<trkpt lat="-27.662324" lon="153.170685">
				<ele>14</ele>
				<time>2015-05-06T21:10:55Z</time>
				<extensions>
				</extensions>
			</trkpt>
			<trkpt lat="-27.662510" lon="153.170884">
				<ele>19</ele>
				<time>2015-05-06T21:10:56Z</time>
				<extensions>
				</extensions>
			</trkpt>
			<trkpt lat="-27.662691" lon="153.171060">
				<ele>20</ele>
				<time>2015-05-06T21:10:57Z</time>
				<extensions>
				</extensions>
			</trkpt>
			<trkpt lat="-27.662869" lon="153.171249">
				<ele>16</ele>
				<time>2015-05-06T21:10:58Z</time>
				<extensions>
				</extensions>
			</trkpt>
			<trkpt lat="-27.663049" lon="153.171433">
				<ele>16</ele>
				<time>2015-05-06T21:10:59Z</time>
				<extensions>
				</extensions>
			</trkpt>
			<trkpt lat="-27.663229" lon="153.171618">
				<ele>14</ele>
				<time>2015-05-06T21:11:00Z</time>
				<extensions>
				</extensions>
			</trkpt>
			<trkpt lat="-27.663409" lon="153.171803">
				<ele>13</ele>
				<time>2015-05-06T21:11:01Z</time>
				<extensions>
				</extensions>
			</trkpt>
			<trkpt lat="-27.663590" lon="153.171992">
				<ele>14</ele>
				<time>2015-05-06T21:11:02Z</time>
				<extensions>
				</extensions>
			</trkpt>
			<trkpt lat="-27.663766" lon="153.172184">
				<ele>17</ele>
				<time>2015-05-06T21:11:03Z</time>
				<extensions>
				</extensions>
			</trkpt>
			<trkpt lat="-27.663945" lon="153.172368">
				<ele>18</ele>
				<time>2015-05-06T21:11:04Z</time>
				<extensions>
				</extensions>
			</trkpt>
			<trkpt lat="-27.664126" lon="153.172549">
				<ele>22</ele>
				<time>2015-05-06T21:11:05Z</time>
				<extensions>
				</extensions>
			</trkpt>
			<trkpt lat="-27.664308" lon="153.172748">
				<ele>23</ele>
				<time>2015-05-06T21:11:06Z</time>
				<extensions>
				</extensions>
			</trkpt>
			<trkpt lat="-27.664491" lon="153.172939">
				<ele>19</ele>
				<time>2015-05-06T21:11:07Z</time>
				<extensions>
				</extensions>
			</trkpt>
			<trkpt lat="-27.664680" lon="153.173132">
				<ele>16</ele>
				<time>2015-05-06T21:11:08Z</time>
				<extensions>
				</extensions>
			</trkpt>
			<trkpt lat="-27.664865" lon="153.173329">
				<ele>15</ele>
				<time>2015-05-06T21:11:09Z</time>
				<extensions>
				</extensions>
			</trkpt>
			<trkpt lat="-27.665041" lon="153.173516">
				<ele>14</ele>
				<time>2015-05-06T21:11:10Z</time>
				<extensions>
				</extensions>
			</trkpt>
			<trkpt lat="-27.665221" lon="153.173701">
				<ele>12</ele>
				<time>2015-05-06T21:11:11Z</time>
				<extensions>
				</extensions>
			</trkpt>
			<trkpt lat="-27.665400" lon="153.173887">
				<ele>10</ele>
				<time>2015-05-06T21:11:12Z</time>
				<extensions>
				</extensions>
			</trkpt>
			<trkpt lat="-27.665582" lon="153.174075">
				<ele>11</ele>
				<time>2015-05-06T21:11:13Z</time>
				<extensions>
				</extensions>
			</trkpt>
			<trkpt lat="-27.665766" lon="153.174263">
				<ele>10</ele>
				<time>2015-05-06T21:11:14Z</time>
				<extensions>
				</extensions>
			</trkpt>
			<trkpt lat="-27.665954" lon="153.174457">
				<ele>8</ele>
				<time>2015-05-06T21:11:15Z</time>
				<extensions>
				</extensions>
			</trkpt>
			<trkpt lat="-27.666147" lon="153.174648">
				<ele>9</ele>
				<time>2015-05-06T21:11:16Z</time>
				<extensions>
				</extensions>
			</trkpt>
			<trkpt lat="-27.666332" lon="153.174840">
				<ele>8</ele>
				<time>2015-05-06T21:11:17Z</time>
				<extensions>
				</extensions>
			</trkpt>
			<trkpt lat="-27.666515" lon="153.175032">
				<ele>6</ele>
				<time>2015-05-06T21:11:18Z</time>
				<extensions>
				</extensions>
			</trkpt>
			<trkpt lat="-27.666699" lon="153.175221">
				<ele>7</ele>
				<time>2015-05-06T21:11:19Z</time>
				<extensions>
				</extensions>
			</trkpt>
			<trkpt lat="-27.666882" lon="153.175407">
				<ele>7</ele>
				<time>2015-05-06T21:11:20Z</time>
				<extensions>
				</extensions>
			</trkpt>
			<trkpt lat="-27.667064" lon="153.175597">
				<ele>7</ele>
				<time>2015-05-06T21:11:21Z</time>
				<extensions>
				</extensions>
			</trkpt>
			<trkpt lat="-27.667245" lon="153.175787">
				<ele>10</ele>
				<time>2015-05-06T21:11:22Z</time>
				<extensions>
				</extensions>
			</trkpt>
			<trkpt lat="-27.667440" lon="153.175983">
				<ele>8</ele>
				<time>2015-05-06T21:11:23Z</time>
				<extensions>
				</extensions>
			</trkpt>
			<trkpt lat="-27.667627" lon="153.176166">
				<ele>9</ele>
				<time>2015-05-06T21:11:24Z</time>
				<extensions>
				</extensions>
			</trkpt>
			<trkpt lat="-27.667819" lon="153.176363">
				<ele>9</ele>
				<time>2015-05-06T21:11:25Z</time>
				<extensions>
				</extensions>
			</trkpt>
			<trkpt lat="-27.668004" lon="153.176554">
				<ele>11</ele>
				<time>2015-05-06T21:11:26Z</time>
				<extensions>
				</extensions>
			</trkpt>
			<trkpt lat="-27.668189" lon="153.176741">
				<ele>10</ele>
				<time>2015-05-06T21:11:27Z</time>
				<extensions>
				</extensions>
			</trkpt>
			<trkpt lat="-27.668374" lon="153.176933">
				<ele>12</ele>
				<time>2015-05-06T21:11:28Z</time>
				<extensions>
				</extensions>
			</trkpt>
			<trkpt lat="-27.668562" lon="153.177122">
				<ele>13</ele>
				<time>2015-05-06T21:11:29Z</time>
				<extensions>
				</extensions>
			</trkpt>
			<trkpt lat="-27.668746" lon="153.177315">
				<ele>11</ele>
				<time>2015-05-06T21:11:30Z</time>
				<extensions>
				</extensions>
			</trkpt>
			<trkpt lat="-27.668934" lon="153.177504">
				<ele>10</ele>
				<time>2015-05-06T21:11:31Z</time>
				<extensions>
				</extensions>
			</trkpt>
			<trkpt lat="-27.669123" lon="153.177691">
				<ele>12</ele>
				<time>2015-05-06T21:11:32Z</time>
				<extensions>
				</extensions>
			</trkpt>
			<trkpt lat="-27.669313" lon="153.177877">
				<ele>11</ele>
				<time>2015-05-06T21:11:33Z</time>
				<extensions>
				</extensions>
			</trkpt>
			<trkpt lat="-27.669502" lon="153.178068">
				<ele>11</ele>
				<time>2015-05-06T21:11:34Z</time>
				<extensions>
				</extensions>
			</trkpt>
			<trkpt lat="-27.669696" lon="153.178261">
				<ele>13</ele>
				<time>2015-05-06T21:11:35Z</time>
				<extensions>
				</extensions>
			</trkpt>
			<trkpt lat="-27.669886" lon="153.178454">
				<ele>9</ele>
				<time>2015-05-06T21:11:36Z</time>
				<extensions>
				</extensions>
			</trkpt>
			<trkpt lat="-27.670079" lon="153.178650">
				<ele>12</ele>
				<time>2015-05-06T21:11:37Z</time>
				<extensions>
				</extensions>
			</trkpt>
			<trkpt lat="-27.670265" lon="153.178834">
				<ele>12</ele>
				<time>2015-05-06T21:11:38Z</time>
				<extensions>
				</extensions>
			</trkpt>
			<trkpt lat="-27.670452" lon="153.179021">
				<ele>13</ele>
				<time>2015-05-06T21:11:39Z</time>
				<extensions>
				</extensions>
			</trkpt>
			<trkpt lat="-27.670639" lon="153.179213">
				<ele>10</ele>
				<time>2015-05-06T21:11:40Z</time>
				<extensions>
				</extensions>
			</trkpt>
			<trkpt lat="-27.670829" lon="153.179396">
				<ele>11</ele>
				<time>2015-05-06T21:11:41Z</time>
				<extensions>
				</extensions>
			</trkpt>
			<trkpt lat="-27.671016" lon="153.179588">
				<ele>9</ele>
				<time>2015-05-06T21:11:42Z</time>
				<extensions>
				</extensions>
			</trkpt>
			<trkpt lat="-27.671199" lon="153.179767">
				<ele>10</ele>
				<time>2015-05-06T21:11:43Z</time>
				<extensions>
				</extensions>
			</trkpt>
			<trkpt lat="-27.671386" lon="153.179955">
				<ele>10</ele>
				<time>2015-05-06T21:11:44Z</time>
				<extensions>
				</extensions>
			</trkpt>
			<trkpt lat="-27.671580" lon="153.180151">
				<ele>11</ele>
				<time>2015-05-06T21:11:45Z</time>
				<extensions>
				</extensions>
			</trkpt>
			<trkpt lat="-27.671764" lon="153.180330">
				<ele>12</ele>
				<time>2015-05-06T21:11:46Z</time>
				<extensions>
				</extensions>
			</trkpt>
			<trkpt lat="-27.671948" lon="153.180521">
				<ele>11</ele>
				<time>2015-05-06T21:11:47Z</time>
				<extensions>
				</extensions>
			</trkpt>
			<trkpt lat="-27.672136" lon="153.180710">
				<ele>12</ele>
				<time>2015-05-06T21:11:48Z</time>
				<extensions>
				</extensions>
			</trkpt>
			<trkpt lat="-27.672324" lon="153.180907">
				<ele>11</ele>
				<time>2015-05-06T21:11:49Z</time>
				<extensions>
				</extensions>
			</trkpt>
			<trkpt lat="-27.672515" lon="153.181092">
				<ele>11</ele>
				<time>2015-05-06T21:11:50Z</time>
				<extensions>
				</extensions>
			</trkpt>
			<trkpt lat="-27.672706" lon="153.181289">
				<ele>12</ele>
				<time>2015-05-06T21:11:51Z</time>
				<extensions>
				</extensions>
			</trkpt>
			<trkpt lat="-27.672894" lon="153.181478">
				<ele>10</ele>
				<time>2015-05-06T21:11:52Z</time>
				<extensions>
				</extensions>
			</trkpt>
			<trkpt lat="-27.673080" lon="153.181667">
				<ele>11</ele>
				<time>2015-05-06T21:11:53Z</time>
				<extensions>
				</extensions>
			</trkpt>
			<trkpt lat="-27.673267" lon="153.181857">
				<ele>9</ele>
				<time>2015-05-06T21:11:54Z</time>
				<extensions>
				</extensions>
			</trkpt>
			<trkpt lat="-27.673454" lon="153.182044">
				<ele>8</ele>
				<time>2015-05-06T21:11:55Z</time>
				<extensions>
				</extensions>
			</trkpt>
			<trkpt lat="-27.673641" lon="153.182231">
				<ele>9</ele>
				<time>2015-05-06T21:11:56Z</time>
				<extensions>
				</extensions>
			</trkpt>
			<trkpt lat="-27.673827" lon="153.182423">
				<ele>11</ele>
				<time>2015-05-06T21:11:57Z</time>
				<extensions>
				</extensions>
			</trkpt>
			<trkpt lat="-27.674015" lon="153.182617">
				<ele>9</ele>
				<time>2015-05-06T21:11:58Z</time>
				<extensions>
				</extensions>
			</trkpt>
			<trkpt lat="-27.674207" lon="153.182799">
				<ele>8</ele>
				<time>2015-05-06T21:11:59Z</time>
				<extensions>
				</extensions>
			</trkpt>
			<trkpt lat="-27.674396" lon="153.182984">
				<ele>8</ele>
				<time>2015-05-06T21:12:00Z</time>
				<extensions>
				</extensions>
			</trkpt>
			<trkpt lat="-27.674583" lon="153.183164">
				<ele>11</ele>
				<time>2015-05-06T21:12:01Z</time>
				<extensions>
				</extensions>
			</trkpt>
			<trkpt lat="-27.674778" lon="153.183342">
				<ele>10</ele>
				<time>2015-05-06T21:12:02Z</time>
				<extensions>
				</extensions>
			</trkpt>
			<trkpt lat="-27.674977" lon="153.183509">
				<ele>14</ele>
				<time>2015-05-06T21:12:03Z</time>
				<extensions>
				</extensions>
			</trkpt>
			<trkpt lat="-27.675175" lon="153.183679">
				<ele>15</ele>
				<time>2015-05-06T21:12:04Z</time>
				<extensions>
				</extensions>
			</trkpt>
			<trkpt lat="-27.675373" lon="153.183843">
				<ele>15</ele>
				<time>2015-05-06T21:12:05Z</time>
				<extensions>
				</extensions>
			</trkpt>
			<trkpt lat="-27.675577" lon="153.184008">
				<ele>12</ele>
				<time>2015-05-06T21:12:06Z</time>
				<extensions>
				</extensions>
			</trkpt>
			<trkpt lat="-27.675785" lon="153.184171">
				<ele>17</ele>
				<time>2015-05-06T21:12:07Z</time>
				<extensions>
				</extensions>
			</trkpt>
			<trkpt lat="-27.675997" lon="153.184325">
				<ele>18</ele>
				<time>2015-05-06T21:12:08Z</time>
				<extensions>
				</extensions>
			</trkpt>
			<trkpt lat="-27.676204" lon="153.184476">
				<ele>18</ele>
				<time>2015-05-06T21:12:09Z</time>
				<extensions>
				</extensions>
			</trkpt>
			<trkpt lat="-27.676414" lon="153.184619">
				<ele>17</ele>
				<time>2015-05-06T21:12:10Z</time>
				<extensions>
				</extensions>
			</trkpt>
			<trkpt lat="-27.676626" lon="153.184762">
				<ele>18</ele>
				<time>2015-05-06T21:12:11Z</time>
				<extensions>
				</extensions>
			</trkpt>
			<trkpt lat="-27.676844" lon="153.184896">
				<ele>19</ele>
				<time>2015-05-06T21:12:12Z</time>
				<extensions>
				</extensions>
			</trkpt>
			<trkpt lat="-27.677063" lon="153.185034">
				<ele>19</ele>
				<time>2015-05-06T21:12:13Z</time>
				<extensions>
				</extensions>
			</trkpt>
			<trkpt lat="-27.677285" lon="153.185165">
				<ele>18</ele>
				<time>2015-05-06T21:12:14Z</time>
				<extensions>
				</extensions>
			</trkpt>
			<trkpt lat="-27.677504" lon="153.185293">
				<ele>16</ele>
				<time>2015-05-06T21:12:15Z</time>
				<extensions>
				</extensions>
			</trkpt>
			<trkpt lat="-27.677727" lon="153.185422">
				<ele>15</ele>
				<time>2015-05-06T21:12:16Z</time>
				<extensions>
				</extensions>
			</trkpt>
			<trkpt lat="-27.677952" lon="153.185553">
				<ele>15</ele>
				<time>2015-05-06T21:12:17Z</time>
				<extensions>
				</extensions>
			</trkpt>
			<trkpt lat="-27.678178" lon="153.185681">
				<ele>18</ele>
				<time>2015-05-06T21:12:18Z</time>
				<extensions>
				</extensions>
			</trkpt>
			<trkpt lat="-27.678410" lon="153.185808">
				<ele>16</ele>
				<time>2015-05-06T21:12:19Z</time>
				<extensions>
				</extensions>
			</trkpt>
			<trkpt lat="-27.678641" lon="153.185929">
				<ele>14</ele>
				<time>2015-05-06T21:12:20Z</time>
				<extensions>
				</extensions>
			</trkpt>
			<trkpt lat="-27.678875" lon="153.186047">
				<ele>13</ele>
				<time>2015-05-06T21:12:21Z</time>
				<extensions>
				</extensions>
			</trkpt>
			<trkpt lat="-27.679103" lon="153.186167">
				<ele>11</ele>
				<time>2015-05-06T21:12:22Z</time>
				<extensions>
				</extensions>
			</trkpt>
			<trkpt lat="-27.679328" lon="153.186283">
				<ele>9</ele>
				<time>2015-05-06T21:12:23Z</time>
				<extensions>
				</extensions>
			</trkpt>
			<trkpt lat="-27.679551" lon="153.186401">
				<ele>10</ele>
				<time>2015-05-06T21:12:24Z</time>
				<extensions>
				</extensions>
			</trkpt>
			<trkpt lat="-27.679769" lon="153.186527">
				<ele>7</ele>
				<time>2015-05-06T21:12:25Z</time>
				<extensions>
				</extensions>
			</trkpt>
			<trkpt lat="-27.679987" lon="153.186654">
				<ele>5</ele>
				<time>2015-05-06T21:12:26Z</time>
				<extensions>
				</extensions>
			</trkpt>
			<trkpt lat="-27.680207" lon="153.186778">
				<ele>4</ele>
				<time>2015-05-06T21:12:27Z</time>
				<extensions>
				</extensions>
			</trkpt>
			<trkpt lat="-27.680430" lon="153.186895">
				<ele>4</ele>
				<time>2015-05-06T21:12:28Z</time>
				<extensions>
				</extensions>
			</trkpt>
			<trkpt lat="-27.680655" lon="153.187016">
				<ele>4</ele>
				<time>2015-05-06T21:12:29Z</time>
				<extensions>
				</extensions>
			</trkpt>
			<trkpt lat="-27.680876" lon="153.187132">
				<ele>3</ele>
				<time>2015-05-06T21:12:30Z</time>
				<extensions>
				</extensions>
			</trkpt>
			<trkpt lat="-27.681102" lon="153.187244">
				<ele>3</ele>
				<time>2015-05-06T21:12:31Z</time>
				<extensions>
				</extensions>
			</trkpt>
			<trkpt lat="-27.681333" lon="153.187365">
				<ele>4</ele>
				<time>2015-05-06T21:12:32Z</time>
				<extensions>
				</extensions>
			</trkpt>
			<trkpt lat="-27.681568" lon="153.187486">
				<ele>5</ele>
				<time>2015-05-06T21:12:33Z</time>
				<extensions>
				</extensions>
			</trkpt>
			<trkpt lat="-27.681802" lon="153.187606">
				<ele>6</ele>
				<time>2015-05-06T21:12:34Z</time>
				<extensions>
				</extensions>
			</trkpt>
			<trkpt lat="-27.682036" lon="153.187728">
				<ele>5</ele>
				<time>2015-05-06T21:12:35Z</time>
				<extensions>
				</extensions>
			</trkpt>
			<trkpt lat="-27.682269" lon="153.187848">
				<ele>6</ele>
				<time>2015-05-06T21:12:36Z</time>
				<extensions>
				</extensions>
			</trkpt>
			<trkpt lat="-27.682506" lon="153.187966">
				<ele>6</ele>
				<time>2015-05-06T21:12:37Z</time>
				<extensions>
				</extensions>
			</trkpt>
			<trkpt lat="-27.682739" lon="153.188081">
				<ele>6</ele>
				<time>2015-05-06T21:12:38Z</time>
				<extensions>
				</extensions>
			</trkpt>
			<trkpt lat="-27.682977" lon="153.188193">
				<ele>6</ele>
				<time>2015-05-06T21:12:39Z</time>
				<extensions>
				</extensions>
			</trkpt>
			<trkpt lat="-27.683213" lon="153.188303">
				<ele>3</ele>
				<time>2015-05-06T21:12:40Z</time>
				<extensions>
				</extensions>
			</trkpt>
			<trkpt lat="-27.683450" lon="153.188411">
				<ele>4</ele>
				<time>2015-05-06T21:12:41Z</time>
				<extensions>
				</extensions>
			</trkpt>
			<trkpt lat="-27.683684" lon="153.188516">
				<ele>4</ele>
				<time>2015-05-06T21:12:42Z</time>
				<extensions>
				</extensions>
			</trkpt>
			<trkpt lat="-27.683915" lon="153.188630">
				<ele>5</ele>
				<time>2015-05-06T21:12:43Z</time>
				<extensions>
				</extensions>
			</trkpt>
			<trkpt lat="-27.684143" lon="153.188748">
				<ele>3</ele>
				<time>2015-05-06T21:12:44Z</time>
				<extensions>
				</extensions>
			</trkpt>
			<trkpt lat="-27.684377" lon="153.188869">
				<ele>3</ele>
				<time>2015-05-06T21:12:45Z</time>
				<extensions>
				</extensions>
			</trkpt>
			<trkpt lat="-27.684613" lon="153.188990">
				<ele>2</ele>
				<time>2015-05-06T21:12:46Z</time>
				<extensions>
				</extensions>
			</trkpt>
			<trkpt lat="-27.684845" lon="153.189105">
				<ele>3</ele>
				<time>2015-05-06T21:12:47Z</time>
				<extensions>
				</extensions>
			</trkpt>
			<trkpt lat="-27.685076" lon="153.189229">
				<ele>6</ele>
				<time>2015-05-06T21:12:48Z</time>
				<extensions>
				</extensions>
			</trkpt>
			<trkpt lat="-27.685305" lon="153.189350">
				<ele>7</ele>
				<time>2015-05-06T21:12:49Z</time>
				<extensions>
				</extensions>
			</trkpt>
			<trkpt lat="-27.685537" lon="153.189476">
				<ele>6</ele>
				<time>2015-05-06T21:12:50Z</time>
				<extensions>
				</extensions>
			</trkpt>
			<trkpt lat="-27.685766" lon="153.189602">
				<ele>5</ele>
				<time>2015-05-06T21:12:51Z</time>
				<extensions>
				</extensions>
			</trkpt>
			<trkpt lat="-27.685997" lon="153.189731">
				<ele>6</ele>
				<time>2015-05-06T21:12:52Z</time>
				<extensions>
				</extensions>
			</trkpt>
			<trkpt lat="-27.686233" lon="153.189853">
				<ele>4</ele>
				<time>2015-05-06T21:12:53Z</time>
				<extensions>
				</extensions>
			</trkpt>
			<trkpt lat="-27.686464" lon="153.189981">
				<ele>7</ele>
				<time>2015-05-06T21:12:54Z</time>
				<extensions>
				</extensions>
			</trkpt>
			<trkpt lat="-27.686699" lon="153.190104">
				<ele>5</ele>
				<time>2015-05-06T21:12:55Z</time>
				<extensions>
				</extensions>
			</trkpt>
			<trkpt lat="-27.686934" lon="153.190225">
				<ele>4</ele>
				<time>2015-05-06T21:12:56Z</time>
				<extensions>
				</extensions>
			</trkpt>
			<trkpt lat="-27.687167" lon="153.190354">
				<ele>4</ele>
				<time>2015-05-06T21:12:57Z</time>
				<extensions>
				</extensions>
			</trkpt>
			<trkpt lat="-27.687405" lon="153.190481">
				<ele>5</ele>
				<time>2015-05-06T21:12:58Z</time>
				<extensions>
				</extensions>
			</trkpt>
			<trkpt lat="-27.687637" lon="153.190604">
				<ele>6</ele>
				<time>2015-05-06T21:12:59Z</time>
				<extensions>
				</extensions>
			</trkpt>
			<trkpt lat="-27.687870" lon="153.190731">
				<ele>5</ele>
				<time>2015-05-06T21:13:00Z</time>
				<extensions>
				</extensions>
			</trkpt>
			<trkpt lat="-27.688106" lon="153.190857">
				<ele>7</ele>
				<time>2015-05-06T21:13:01Z</time>
				<extensions>
				</extensions>
			</trkpt>
			<trkpt lat="-27.688337" lon="153.190979">
				<ele>7</ele>
				<time>2015-05-06T21:13:02Z</time>
				<extensions>
				</extensions>
			</trkpt>
			<trkpt lat="-27.688573" lon="153.191102">
				<ele>7</ele>
				<time>2015-05-06T21:13:03Z</time>
				<extensions>
				</extensions>
			</trkpt>
			<trkpt lat="-27.688801" lon="153.191228">
				<ele>7</ele>
				<time>2015-05-06T21:13:04Z</time>
				<extensions>
				</extensions>
			</trkpt>
			<trkpt lat="-27.689028" lon="153.191348">
				<ele>9</ele>
				<time>2015-05-06T21:13:05Z</time>
				<extensions>
				</extensions>
			</trkpt>
			<trkpt lat="-27.689258" lon="153.191465">
				<ele>9</ele>
				<time>2015-05-06T21:13:06Z</time>
				<extensions>
				</extensions>
			</trkpt>
			<trkpt lat="-27.689484" lon="153.191583">
				<ele>6</ele>
				<time>2015-05-06T21:13:07Z</time>
				<extensions>
				</extensions>
			</trkpt>
			<trkpt lat="-27.689704" lon="153.191703">
				<ele>4</ele>
				<time>2015-05-06T21:13:08Z</time>
				<extensions>
				</extensions>
			</trkpt>
			<trkpt lat="-27.689929" lon="153.191826">
				<ele>4</ele>
				<time>2015-05-06T21:13:09Z</time>
				<extensions>
				</extensions>
			</trkpt>
			<trkpt lat="-27.690158" lon="153.191952">
				<ele>5</ele>
				<time>2015-05-06T21:13:10Z</time>
				<extensions>
				</extensions>
			</trkpt>
			<trkpt lat="-27.690386" lon="153.192088">
				<ele>6</ele>
				<time>2015-05-06T21:13:11Z</time>
				<extensions>
				</extensions>
			</trkpt>
			<trkpt lat="-27.690613" lon="153.192214">
				<ele>6</ele>
				<time>2015-05-06T21:13:12Z</time>
				<extensions>
				</extensions>
			</trkpt>
			<trkpt lat="-27.690842" lon="153.192345">
				<ele>5</ele>
				<time>2015-05-06T21:13:13Z</time>
				<extensions>
				</extensions>
			</trkpt>
			<trkpt lat="-27.691068" lon="153.192481">
				<ele>5</ele>
				<time>2015-05-06T21:13:14Z</time>
				<extensions>
				</extensions>
			</trkpt>
			<trkpt lat="-27.691293" lon="153.192614">
				<ele>5</ele>
				<time>2015-05-06T21:13:15Z</time>
				<extensions>
				</extensions>
			</trkpt>
			<trkpt lat="-27.691514" lon="153.192754">
				<ele>4</ele>
				<time>2015-05-06T21:13:16Z</time>
				<extensions>
				</extensions>
			</trkpt>
			<trkpt lat="-27.691739" lon="153.192898">
				<ele>3</ele>
				<time>2015-05-06T21:13:17Z</time>
				<extensions>
				</extensions>
			</trkpt>
			<trkpt lat="-27.691972" lon="153.193041">
				<ele>5</ele>
				<time>2015-05-06T21:13:18Z</time>
				<extensions>
				</extensions>
			</trkpt>
			<trkpt lat="-27.692198" lon="153.193177">
				<ele>5</ele>
				<time>2015-05-06T21:13:19Z</time>
				<extensions>
				</extensions>
			</trkpt>
			<trkpt lat="-27.692424" lon="153.193312">
				<ele>4</ele>
				<time>2015-05-06T21:13:20Z</time>
				<extensions>
				</extensions>
			</trkpt>
			<trkpt lat="-27.692650" lon="153.193445">
				<ele>4</ele>
				<time>2015-05-06T21:13:21Z</time>
				<extensions>
				</extensions>
			</trkpt>
			<trkpt lat="-27.692877" lon="153.193578">
				<ele>-0</ele>
				<time>2015-05-06T21:13:22Z</time>
				<extensions>
				</extensions>
			</trkpt>
			<trkpt lat="-27.693111" lon="153.193705">
				<ele>2</ele>
				<time>2015-05-06T21:13:23Z</time>
				<extensions>
				</extensions>
			</trkpt>
			<trkpt lat="-27.693343" lon="153.193837">
				<ele>0</ele>
				<time>2015-05-06T21:13:24Z</time>
				<extensions>
				</extensions>
			</trkpt>
			<trkpt lat="-27.693582" lon="153.193967">
				<ele>-0</ele>
				<time>2015-05-06T21:13:25Z</time>
				<extensions>
				</extensions>
			</trkpt>
			<trkpt lat="-27.693818" lon="153.194092">
				<ele>3</ele>
				<time>2015-05-06T21:13:26Z</time>
				<extensions>
				</extensions>
			</trkpt>
			<trkpt lat="-27.694053" lon="153.194211">
				<ele>1</ele>
				<time>2015-05-06T21:13:27Z</time>
				<extensions>
				</extensions>
			</trkpt>
			<trkpt lat="-27.694285" lon="153.194328">
				<ele>-1</ele>
				<time>2015-05-06T21:13:28Z</time>
				<extensions>
				</extensions>
			</trkpt>
			<trkpt lat="-27.694524" lon="153.194444">
				<ele>1</ele>
				<time>2015-05-06T21:13:29Z</time>
				<extensions>
				</extensions>
			</trkpt>
			<trkpt lat="-27.694760" lon="153.194562">
				<ele>3</ele>
				<time>2015-05-06T21:13:30Z</time>
				<extensions>
				</extensions>
			</trkpt>
			<trkpt lat="-27.694995" lon="153.194675">
				<ele>1</ele>
				<time>2015-05-06T21:13:31Z</time>
				<extensions>
				</extensions>
			</trkpt>
			<trkpt lat="-27.695232" lon="153.194778">
				<ele>3</ele>
				<time>2015-05-06T21:13:32Z</time>
				<extensions>
				</extensions>
			</trkpt>
			<trkpt lat="-27.695466" lon="153.194885">
				<ele>1</ele>
				<time>2015-05-06T21:13:33Z</time>
				<extensions>
				</extensions>
			</trkpt>
			<trkpt lat="-27.695700" lon="153.194988">
				<ele>2</ele>
				<time>2015-05-06T21:13:34Z</time>
				<extensions>
				</extensions>
			</trkpt>
			<trkpt lat="-27.695936" lon="153.195085">
				<ele>3</ele>
				<time>2015-05-06T21:13:35Z</time>
				<extensions>
				</extensions>
			</trkpt>
			<trkpt lat="-27.696166" lon="153.195192">
				<ele>1</ele>
				<time>2015-05-06T21:13:36Z</time>
				<extensions>
				</extensions>
			</trkpt>
			<trkpt lat="-27.696402" lon="153.195296">
				<ele>1</ele>
				<time>2015-05-06T21:13:37Z</time>
				<extensions>
				</extensions>
			</trkpt>
			<trkpt lat="-27.696634" lon="153.195401">
				<ele>2</ele>
				<time>2015-05-06T21:13:38Z</time>
				<extensions>
				</extensions>
			</trkpt>
			<trkpt lat="-27.696863" lon="153.195502">
				<ele>2</ele>
				<time>2015-05-06T21:13:39Z</time>
				<extensions>
				</extensions>
			</trkpt>
			<trkpt lat="-27.697095" lon="153.195604">
				<ele>0</ele>
				<time>2015-05-06T21:13:40Z</time>
				<extensions>
				</extensions>
			</trkpt>
			<trkpt lat="-27.697326" lon="153.195703">
				<ele>-0</ele>
				<time>2015-05-06T21:13:41Z</time>
				<extensions>
				</extensions>
			</trkpt>
			<trkpt lat="-27.697554" lon="153.195802">
				<ele>1</ele>
				<time>2015-05-06T21:13:42Z</time>
				<extensions>
				</extensions>
			</trkpt>
			<trkpt lat="-27.697787" lon="153.195903">
				<ele>2</ele>
				<time>2015-05-06T21:13:43Z</time>
				<extensions>
				</extensions>
			</trkpt>
			<trkpt lat="-27.698021" lon="153.196009">
				<ele>0</ele>
				<time>2015-05-06T21:13:44Z</time>
				<extensions>
				</extensions>
			</trkpt>
			<trkpt lat="-27.698255" lon="153.196112">
				<ele>1</ele>
				<time>2015-05-06T21:13:45Z</time>
				<extensions>
				</extensions>
			</trkpt>
			<trkpt lat="-27.698496" lon="153.196225">
				<ele>0</ele>
				<time>2015-05-06T21:13:46Z</time>
				<extensions>
				</extensions>
			</trkpt>
			<trkpt lat="-27.698735" lon="153.196338">
				<ele>0</ele>
				<time>2015-05-06T21:13:47Z</time>
				<extensions>
				</extensions>
			</trkpt>
			<trkpt lat="-27.698969" lon="153.196461">
				<ele>2</ele>
				<time>2015-05-06T21:13:48Z</time>
				<extensions>
				</extensions>
			</trkpt>
			<trkpt lat="-27.699206" lon="153.196585">
				<ele>1</ele>
				<time>2015-05-06T21:13:49Z</time>
				<extensions>
				</extensions>
			</trkpt>
			<trkpt lat="-27.699437" lon="153.196728">
				<ele>-1</ele>
				<time>2015-05-06T21:13:50Z</time>
				<extensions>
				</extensions>
			</trkpt>
			<trkpt lat="-27.699661" lon="153.196880">
				<ele>-0</ele>
				<time>2015-05-06T21:13:51Z</time>
				<extensions>
				</extensions>
			</trkpt>
			<trkpt lat="-27.699878" lon="153.197031">
				<ele>-1</ele>
				<time>2015-05-06T21:13:52Z</time>
				<extensions>
				</extensions>
			</trkpt>
			<trkpt lat="-27.700099" lon="153.197200">
				<ele>-0</ele>
				<time>2015-05-06T21:13:53Z</time>
				<extensions>
				</extensions>
			</trkpt>
			<trkpt lat="-27.700328" lon="153.197398">
				<ele>3</ele>
				<time>2015-05-06T21:13:54Z</time>
				<extensions>
				</extensions>
			</trkpt>
			<trkpt lat="-27.700550" lon="153.197596">
				<ele>7</ele>
				<time>2015-05-06T21:13:55Z</time>
				<extensions>
				</extensions>
			</trkpt>
			<trkpt lat="-27.700766" lon="153.197808">
				<ele>9</ele>
				<time>2015-05-06T21:13:56Z</time>
				<extensions>
				</extensions>
			</trkpt>
			<trkpt lat="-27.700979" lon="153.198024">
				<ele>11</ele>
				<time>2015-05-06T21:13:57Z</time>
				<extensions>
				</extensions>
			</trkpt>
			<trkpt lat="-27.701183" lon="153.198244">
				<ele>11</ele>
				<time>2015-05-06T21:13:58Z</time>
				<extensions>
				</extensions>
			</trkpt>
			<trkpt lat="-27.701380" lon="153.198467">
				<ele>12</ele>
				<time>2015-05-06T21:13:59Z</time>
				<extensions>
				</extensions>
			</trkpt>
			<trkpt lat="-27.701575" lon="153.198692">
				<ele>11</ele>
				<time>2015-05-06T21:14:00Z</time>
				<extensions>
				</extensions>
			</trkpt>
			<trkpt lat="-27.701763" lon="153.198913">
				<ele>12</ele>
				<time>2015-05-06T21:14:01Z</time>
				<extensions>
				</extensions>
			</trkpt>
			<trkpt lat="-27.701952" lon="153.199134">
				<ele>14</ele>
				<time>2015-05-06T21:14:02Z</time>
				<extensions>
				</extensions>
			</trkpt>
			<trkpt lat="-27.702138" lon="153.199356">
				<ele>12</ele>
				<time>2015-05-06T21:14:03Z</time>
				<extensions>
				</extensions>
			</trkpt>
			<trkpt lat="-27.702333" lon="153.199568">
				<ele>14</ele>
				<time>2015-05-06T21:14:04Z</time>
				<extensions>
				</extensions>
			</trkpt>
			<trkpt lat="-27.702523" lon="153.199779">
				<ele>13</ele>
				<time>2015-05-06T21:14:05Z</time>
				<extensions>
				</extensions>
			</trkpt>
			<trkpt lat="-27.702717" lon="153.199999">
				<ele>15</ele>
				<time>2015-05-06T21:14:06Z</time>
				<extensions>
				</extensions>
			</trkpt>
			<trkpt lat="-27.702912" lon="153.200217">
				<ele>17</ele>
				<time>2015-05-06T21:14:07Z</time>
				<extensions>
				</extensions>
			</trkpt>
			<trkpt lat="-27.703107" lon="153.200437">
				<ele>19</ele>
				<time>2015-05-06T21:14:08Z</time>
				<extensions>
				</extensions>
			</trkpt>
			<trkpt lat="-27.703301" lon="153.200662">
				<ele>21</ele>
				<time>2015-05-06T21:14:09Z</time>
				<extensions>
				</extensions>
			</trkpt>
			<trkpt lat="-27.703499" lon="153.200886">
				<ele>24</ele>
				<time>2015-05-06T21:14:10Z</time>
				<extensions>
				</extensions>
			</trkpt>
			<trkpt lat="-27.703696" lon="153.201111">
				<ele>23</ele>
				<time>2015-05-06T21:14:11Z</time>
				<extensions>
				</extensions>
			</trkpt>
			<trkpt lat="-27.703894" lon="153.201337">
				<ele>22</ele>
				<time>2015-05-06T21:14:12Z</time>
				<extensions>
				</extensions>
			</trkpt>
			<trkpt lat="-27.704091" lon="153.201566">
				<ele>24</ele>
				<time>2015-05-06T21:14:13Z</time>
				<extensions>
				</extensions>
			</trkpt>
			<trkpt lat="-27.704288" lon="153.201794">
				<ele>24</ele>
				<time>2015-05-06T21:14:14Z</time>
				<extensions>
				</extensions>
			</trkpt>
			<trkpt lat="-27.704481" lon="153.202020">
				<ele>22</ele>
				<time>2015-05-06T21:14:15Z</time>
				<extensions>
				</extensions>
			</trkpt>
			<trkpt lat="-27.704676" lon="153.202247">
				<ele>22</ele>
				<time>2015-05-06T21:14:16Z</time>
				<extensions>
				</extensions>
			</trkpt>
			<trkpt lat="-27.704871" lon="153.202465">
				<ele>22</ele>
				<time>2015-05-06T21:14:17Z</time>
				<extensions>
				</extensions>
			</trkpt>
			<trkpt lat="-27.705060" lon="153.202687">
				<ele>21</ele>
				<time>2015-05-06T21:14:18Z</time>
				<extensions>
				</extensions>
			</trkpt>
			<trkpt lat="-27.705249" lon="153.202907">
				<ele>19</ele>
				<time>2015-05-06T21:14:19Z</time>
				<extensions>
				</extensions>
			</trkpt>
			<trkpt lat="-27.705434" lon="153.203115">
				<ele>22</ele>
				<time>2015-05-06T21:14:20Z</time>
				<extensions>
				</extensions>
			</trkpt>
			<trkpt lat="-27.705632" lon="153.203313">
				<ele>20</ele>
				<time>2015-05-06T21:14:21Z</time>
				<extensions>
				</extensions>
			</trkpt>
			<trkpt lat="-27.705826" lon="153.203505">
				<ele>20</ele>
				<time>2015-05-06T21:14:22Z</time>
				<extensions>
				</extensions>
			</trkpt>
			<trkpt lat="-27.706020" lon="153.203682">
				<ele>19</ele>
				<time>2015-05-06T21:14:23Z</time>
				<extensions>
				</extensions>
			</trkpt>
			<trkpt lat="-27.706216" lon="153.203854">
				<ele>19</ele>
				<time>2015-05-06T21:14:24Z</time>
				<extensions>
				</extensions>
			</trkpt>
			<trkpt lat="-27.706415" lon="153.204023">
				<ele>18</ele>
				<time>2015-05-06T21:14:25Z</time>
				<extensions>
				</extensions>
			</trkpt>
			<trkpt lat="-27.706620" lon="153.204191">
				<ele>20</ele>
				<time>2015-05-06T21:14:26Z</time>
				<extensions>
				</extensions>
			</trkpt>
			<trkpt lat="-27.706822" lon="153.204363">
				<ele>21</ele>
				<time>2015-05-06T21:14:27Z</time>
				<extensions>
				</extensions>
			</trkpt>
			<trkpt lat="-27.707030" lon="153.204522">
				<ele>16</ele>
				<time>2015-05-06T21:14:28Z</time>
				<extensions>
				</extensions>
			</trkpt>
			<trkpt lat="-27.707244" lon="153.204671">
				<ele>15</ele>
				<time>2015-05-06T21:14:29Z</time>
				<extensions>
				</extensions>
			</trkpt>
			<trkpt lat="-27.707460" lon="153.204814">
				<ele>16</ele>
				<time>2015-05-06T21:14:30Z</time>
				<extensions>
				</extensions>
			</trkpt>
			<trkpt lat="-27.707680" lon="153.204948">
				<ele>16</ele>
				<time>2015-05-06T21:14:31Z</time>
				<extensions>
				</extensions>
			</trkpt>
			<trkpt lat="-27.707898" lon="153.205088">
				<ele>17</ele>
				<time>2015-05-06T21:14:32Z</time>
				<extensions>
				</extensions>
			</trkpt>
			<trkpt lat="-27.708117" lon="153.205227">
				<ele>17</ele>
				<time>2015-05-06T21:14:33Z</time>
				<extensions>
				</extensions>
			</trkpt>
			<trkpt lat="-27.708336" lon="153.205369">
				<ele>16</ele>
				<time>2015-05-06T21:14:34Z</time>
				<extensions>
				</extensions>
			</trkpt>
			<trkpt lat="-27.708559" lon="153.205510">
				<ele>15</ele>
				<time>2015-05-06T21:14:35Z</time>
				<extensions>
				</extensions>
			</trkpt>
			<trkpt lat="-27.708783" lon="153.205652">
				<ele>13</ele>
				<time>2015-05-06T21:14:36Z</time>
				<extensions>
				</extensions>
			</trkpt>
			<trkpt lat="-27.709002" lon="153.205792">
				<ele>12</ele>
				<time>2015-05-06T21:14:37Z</time>
				<extensions>
				</extensions>
			</trkpt>
			<trkpt lat="-27.709223" lon="153.205927">
				<ele>11</ele>
				<time>2015-05-06T21:14:38Z</time>
				<extensions>
				</extensions>
			</trkpt>
			<trkpt lat="-27.709447" lon="153.206068">
				<ele>12</ele>
				<time>2015-05-06T21:14:39Z</time>
				<extensions>
				</extensions>
			</trkpt>
			<trkpt lat="-27.709669" lon="153.206216">
				<ele>13</ele>
				<time>2015-05-06T21:14:40Z</time>
				<extensions>
				</extensions>
			</trkpt>
			<trkpt lat="-27.709896" lon="153.206364">
				<ele>13</ele>
				<time>2015-05-06T21:14:41Z</time>
				<extensions>
				</extensions>
			</trkpt>
			<trkpt lat="-27.710117" lon="153.206497">
				<ele>13</ele>
				<time>2015-05-06T21:14:42Z</time>
				<extensions>
				</extensions>
			</trkpt>
			<trkpt lat="-27.710334" lon="153.206623">
				<ele>11</ele>
				<time>2015-05-06T21:14:43Z</time>
				<extensions>
				</extensions>
			</trkpt>
			<trkpt lat="-27.710549" lon="153.206753">
				<ele>12</ele>
				<time>2015-05-06T21:14:44Z</time>
				<extensions>
				</extensions>
			</trkpt>
			<trkpt lat="-27.710760" lon="153.206881">
				<ele>10</ele>
				<time>2015-05-06T21:14:45Z</time>
				<extensions>
				</extensions>
			</trkpt>
			<trkpt lat="-27.710966" lon="153.207014">
				<ele>9</ele>
				<time>2015-05-06T21:14:46Z</time>
				<extensions>
				</extensions>
			</trkpt>
			<trkpt lat="-27.711166" lon="153.207137">
				<ele>6</ele>
				<time>2015-05-06T21:14:47Z</time>
				<extensions>
				</extensions>
			</trkpt>
			<trkpt lat="-27.711369" lon="153.207267">
				<ele>5</ele>
				<time>2015-05-06T21:14:48Z</time>
				<extensions>
				</extensions>
			</trkpt>
			<trkpt lat="-27.711572" lon="153.207380">
				<ele>5</ele>
				<time>2015-05-06T21:14:49Z</time>
				<extensions>
				</extensions>
			</trkpt>
			<trkpt lat="-27.711771" lon="153.207475">
				<ele>4</ele>
				<time>2015-05-06T21:14:50Z</time>
				<extensions>
				</extensions>
			</trkpt>
			<trkpt lat="-27.711964" lon="153.207581">
				<ele>3</ele>
				<time>2015-05-06T21:14:51Z</time>
				<extensions>
				</extensions>
			</trkpt>
			<trkpt lat="-27.712157" lon="153.207683">
				<ele>3</ele>
				<time>2015-05-06T21:14:52Z</time>
				<extensions>
				</extensions>
			</trkpt>
			<trkpt lat="-27.712356" lon="153.207792">
				<ele>2</ele>
				<time>2015-05-06T21:14:53Z</time>
				<extensions>
				</extensions>
			</trkpt>
			<trkpt lat="-27.712554" lon="153.207900">
				<ele>1</ele>
				<time>2015-05-06T21:14:54Z</time>
				<extensions>
				</extensions>
			</trkpt>
			<trkpt lat="-27.712758" lon="153.208006">
				<ele>4</ele>
				<time>2015-05-06T21:14:55Z</time>
				<extensions>
				</extensions>
			</trkpt>
			<trkpt lat="-27.712964" lon="153.208125">
				<ele>2</ele>
				<time>2015-05-06T21:14:56Z</time>
				<extensions>
				</extensions>
			</trkpt>
			<trkpt lat="-27.713170" lon="153.208239">
				<ele>2</ele>
				<time>2015-05-06T21:14:57Z</time>
				<extensions>
				</extensions>
			</trkpt>
			<trkpt lat="-27.713379" lon="153.208362">
				<ele>2</ele>
				<time>2015-05-06T21:14:58Z</time>
				<extensions>
				</extensions>
			</trkpt>
			<trkpt lat="-27.713588" lon="153.208478">
				<ele>1</ele>
				<time>2015-05-06T21:14:59Z</time>
				<extensions>
				</extensions>
			</trkpt>
			<trkpt lat="-27.713798" lon="153.208599">
				<ele>2</ele>
				<time>2015-05-06T21:15:00Z</time>
				<extensions>
				</extensions>
			</trkpt>
			<trkpt lat="-27.714005" lon="153.208718">
				<ele>0</ele>
				<time>2015-05-06T21:15:01Z</time>
				<extensions>
				</extensions>
			</trkpt>
			<trkpt lat="-27.714213" lon="153.208838">
				<ele>-1</ele>
				<time>2015-05-06T21:15:02Z</time>
				<extensions>
				</extensions>
			</trkpt>
			<trkpt lat="-27.714421" lon="153.208958">
				<ele>0</ele>
				<time>2015-05-06T21:15:03Z</time>
				<extensions>
				</extensions>
			</trkpt>
			<trkpt lat="-27.714633" lon="153.209084">
				<ele>-1</ele>
				<time>2015-05-06T21:15:04Z</time>
				<extensions>
				</extensions>
			</trkpt>
			<trkpt lat="-27.714845" lon="153.209209">
				<ele>-1</ele>
				<time>2015-05-06T21:15:05Z</time>
				<extensions>
				</extensions>
			</trkpt>
			<trkpt lat="-27.715058" lon="153.209341">
				<ele>1</ele>
				<time>2015-05-06T21:15:06Z</time>
				<extensions>
				</extensions>
			</trkpt>
			<trkpt lat="-27.715280" lon="153.209484">
				<ele>-0</ele>
				<time>2015-05-06T21:15:07Z</time>
				<extensions>
				</extensions>
			</trkpt>
			<trkpt lat="-27.715490" lon="153.209612">
				<ele>0</ele>
				<time>2015-05-06T21:15:08Z</time>
				<extensions>
				</extensions>
			</trkpt>
			<trkpt lat="-27.715705" lon="153.209741">
				<ele>-2</ele>
				<time>2015-05-06T21:15:09Z</time>
				<extensions>
				</extensions>
			</trkpt>
			<trkpt lat="-27.715926" lon="153.209866">
				<ele>-1</ele>
				<time>2015-05-06T21:15:10Z</time>
				<extensions>
				</extensions>
			</trkpt>
			<trkpt lat="-27.716126" lon="153.210008">
				<ele>-3</ele>
				<time>2015-05-06T21:15:11Z</time>
				<extensions>
				</extensions>
			</trkpt>
			<trkpt lat="-27.716318" lon="153.210141">
				<ele>-2</ele>
				<time>2015-05-06T21:15:12Z</time>
				<extensions>
				</extensions>
			</trkpt>
			<trkpt lat="-27.716511" lon="153.210277">
				<ele>-3</ele>
				<time>2015-05-06T21:15:13Z</time>
				<extensions>
				</extensions>
			</trkpt>
			<trkpt lat="-27.716696" lon="153.210417">
				<ele>-3</ele>
				<time>2015-05-06T21:15:14Z</time>
				<extensions>
				</extensions>
			</trkpt>
			<trkpt lat="-27.716879" lon="153.210561">
				<ele>-5</ele>
				<time>2015-05-06T21:15:15Z</time>
				<extensions>
				</extensions>
			</trkpt>
			<trkpt lat="-27.717063" lon="153.210721">
				<ele>-5</ele>
				<time>2015-05-06T21:15:16Z</time>
				<extensions>
				</extensions>
			</trkpt>
			<trkpt lat="-27.717245" lon="153.210874">
				<ele>-4</ele>
				<time>2015-05-06T21:15:17Z</time>
				<extensions>
				</extensions>
			</trkpt>
			<trkpt lat="-27.717428" lon="153.211033">
				<ele>-4</ele>
				<time>2015-05-06T21:15:18Z</time>
				<extensions>
				</extensions>
			</trkpt>
			<trkpt lat="-27.717607" lon="153.211194">
				<ele>-1</ele>
				<time>2015-05-06T21:15:19Z</time>
				<extensions>
				</extensions>
			</trkpt>
			<trkpt lat="-27.717787" lon="153.211349">
				<ele>-2</ele>
				<time>2015-05-06T21:15:20Z</time>
				<extensions>
				</extensions>
			</trkpt>
			<trkpt lat="-27.717967" lon="153.211514">
				<ele>-3</ele>
				<time>2015-05-06T21:15:21Z</time>
				<extensions>
				</extensions>
			</trkpt>
			<trkpt lat="-27.718140" lon="153.211674">
				<ele>-2</ele>
				<time>2015-05-06T21:15:22Z</time>
				<extensions>
				</extensions>
			</trkpt>
			<trkpt lat="-27.718311" lon="153.211830">
				<ele>-2</ele>
				<time>2015-05-06T21:15:23Z</time>
				<extensions>
				</extensions>
			</trkpt>
			<trkpt lat="-27.718482" lon="153.211995">
				<ele>-3</ele>
				<time>2015-05-06T21:15:24Z</time>
				<extensions>
				</extensions>
			</trkpt>
			<trkpt lat="-27.718639" lon="153.212168">
				<ele>-1</ele>
				<time>2015-05-06T21:15:25Z</time>
				<extensions>
				</extensions>
			</trkpt>
			<trkpt lat="-27.718801" lon="153.212337">
				<ele>-0</ele>
				<time>2015-05-06T21:15:26Z</time>
				<extensions>
				</extensions>
			</trkpt>
			<trkpt lat="-27.718969" lon="153.212514">
				<ele>-2</ele>
				<time>2015-05-06T21:15:27Z</time>
				<extensions>
				</extensions>
			</trkpt>
			<trkpt lat="-27.719142" lon="153.212704">
				<ele>0</ele>
				<time>2015-05-06T21:15:28Z</time>
				<extensions>
				</extensions>
			</trkpt>
			<trkpt lat="-27.719329" lon="153.212906">
				<ele>1</ele>
				<time>2015-05-06T21:15:29Z</time>
				<extensions>
				</extensions>
			</trkpt>
			<trkpt lat="-27.719522" lon="153.213126">
				<ele>2</ele>
				<time>2015-05-06T21:15:30Z</time>
				<extensions>
				</extensions>
			</trkpt>
			<trkpt lat="-27.719723" lon="153.213348">
				<ele>6</ele>
				<time>2015-05-06T21:15:31Z</time>
				<extensions>
				</extensions>
			</trkpt>
			<trkpt lat="-27.719918" lon="153.213572">
				<ele>8</ele>
				<time>2015-05-06T21:15:32Z</time>
				<extensions>
				</extensions>
			</trkpt>
			<trkpt lat="-27.720110" lon="153.213812">
				<ele>8</ele>
				<time>2015-05-06T21:15:33Z</time>
				<extensions>
				</extensions>
			</trkpt>
			<trkpt lat="-27.720301" lon="153.214063">
				<ele>9</ele>
				<time>2015-05-06T21:15:34Z</time>
				<extensions>
				</extensions>
			</trkpt>
			<trkpt lat="-27.720466" lon="153.214307">
				<ele>12</ele>
				<time>2015-05-06T21:15:35Z</time>
				<extensions>
				</extensions>
			</trkpt>
			<trkpt lat="-27.720649" lon="153.214557">
				<ele>8</ele>
				<time>2015-05-06T21:15:36Z</time>
				<extensions>
				</extensions>
			</trkpt>
			<trkpt lat="-27.720826" lon="153.214810">
				<ele>9</ele>
				<time>2015-05-06T21:15:37Z</time>
				<extensions>
				</extensions>
			</trkpt>
			<trkpt lat="-27.721008" lon="153.215057">
				<ele>10</ele>
				<time>2015-05-06T21:15:38Z</time>
				<extensions>
				</extensions>
			</trkpt>
			<trkpt lat="-27.721184" lon="153.215316">
				<ele>11</ele>
				<time>2015-05-06T21:15:39Z</time>
				<extensions>
				</extensions>
			</trkpt>
			<trkpt lat="-27.721357" lon="153.215571">
				<ele>8</ele>
				<time>2015-05-06T21:15:40Z</time>
				<extensions>
				</extensions>
			</trkpt>
			<trkpt lat="-27.721523" lon="153.215821">
				<ele>8</ele>
				<time>2015-05-06T21:15:41Z</time>
				<extensions>
				</extensions>
			</trkpt>
			<trkpt lat="-27.721691" lon="153.216057">
				<ele>9</ele>
				<time>2015-05-06T21:15:42Z</time>
				<extensions>
				</extensions>
			</trkpt>
			<trkpt lat="-27.721858" lon="153.216293">
				<ele>9</ele>
				<time>2015-05-06T21:15:43Z</time>
				<extensions>
				</extensions>
			</trkpt>
			<trkpt lat="-27.722023" lon="153.216531">
				<ele>7</ele>
				<time>2015-05-06T21:15:44Z</time>
				<extensions>
				</extensions>
			</trkpt>
			<trkpt lat="-27.722188" lon="153.216769">
				<ele>7</ele>
				<time>2015-05-06T21:15:45Z</time>
				<extensions>
				</extensions>
			</trkpt>
			<trkpt lat="-27.722355" lon="153.217010">
				<ele>11</ele>
				<time>2015-05-06T21:15:46Z</time>
				<extensions>
				</extensions>
			</trkpt>
			<trkpt lat="-27.722525" lon="153.217242">
				<ele>11</ele>
				<time>2015-05-06T21:15:47Z</time>
				<extensions>
				</extensions>
			</trkpt>
			<trkpt lat="-27.722701" lon="153.217471">
				<ele>10</ele>
				<time>2015-05-06T21:15:48Z</time>
				<extensions>
				</extensions>
			</trkpt>
			<trkpt lat="-27.722879" lon="153.217697">
				<ele>11</ele>
				<time>2015-05-06T21:15:49Z</time>
				<extensions>
				</extensions>
			</trkpt>
			<trkpt lat="-27.723057" lon="153.217917">
				<ele>9</ele>
				<time>2015-05-06T21:15:50Z</time>
				<extensions>
				</extensions>
			</trkpt>
			<trkpt lat="-27.723237" lon="153.218138">
				<ele>12</ele>
				<time>2015-05-06T21:15:51Z</time>
				<extensions>
				</extensions>
			</trkpt>
			<trkpt lat="-27.723420" lon="153.218356">
				<ele>11</ele>
				<time>2015-05-06T21:15:52Z</time>
				<extensions>
				</extensions>
			</trkpt>
			<trkpt lat="-27.723600" lon="153.218577">
				<ele>11</ele>
				<time>2015-05-06T21:15:53Z</time>
				<extensions>
				</extensions>
			</trkpt>
			<trkpt lat="-27.723779" lon="153.218798">
				<ele>11</ele>
				<time>2015-05-06T21:15:54Z</time>
				<extensions>
				</extensions>
			</trkpt>
			<trkpt lat="-27.723972" lon="153.219016">
				<ele>11</ele>
				<time>2015-05-06T21:15:55Z</time>
				<extensions>
				</extensions>
			</trkpt>
			<trkpt lat="-27.724159" lon="153.219227">
				<ele>9</ele>
				<time>2015-05-06T21:15:56Z</time>
				<extensions>
				</extensions>
			</trkpt>
			<trkpt lat="-27.724351" lon="153.219433">
				<ele>8</ele>
				<time>2015-05-06T21:15:57Z</time>
				<extensions>
				</extensions>
			</trkpt>
			<trkpt lat="-27.724545" lon="153.219635">
				<ele>11</ele>
				<time>2015-05-06T21:15:58Z</time>
				<extensions>
				</extensions>
			</trkpt>
			<trkpt lat="-27.724739" lon="153.219838">
				<ele>9</ele>
				<time>2015-05-06T21:15:59Z</time>
				<extensions>
				</extensions>
			</trkpt>
			<trkpt lat="-27.724939" lon="153.220038">
				<ele>7</ele>
				<time>2015-05-06T21:16:00Z</time>
				<extensions>
				</extensions>
			</trkpt>
			<trkpt lat="-27.725137" lon="153.220240">
				<ele>7</ele>
				<time>2015-05-06T21:16:01Z</time>
				<extensions>
				</extensions>
			</trkpt>
			<trkpt lat="-27.725334" lon="153.220438">
				<ele>8</ele>
				<time>2015-05-06T21:16:02Z</time>
				<extensions>
				</extensions>
			</trkpt>
			<trkpt lat="-27.725534" lon="153.220636">
				<ele>7</ele>
				<time>2015-05-06T21:16:03Z</time>
				<extensions>
				</extensions>
			</trkpt>
			<trkpt lat="-27.725732" lon="153.220828">
				<ele>7</ele>
				<time>2015-05-06T21:16:04Z</time>
				<extensions>
				</extensions>
			</trkpt>
			<trkpt lat="-27.725925" lon="153.221017">
				<ele>6</ele>
				<time>2015-05-06T21:16:05Z</time>
				<extensions>
				</extensions>
			</trkpt>
			<trkpt lat="-27.726115" lon="153.221195">
				<ele>3</ele>
				<time>2015-05-06T21:16:06Z</time>
				<extensions>
				</extensions>
			</trkpt>
			<trkpt lat="-27.726312" lon="153.221375">
				<ele>3</ele>
				<time>2015-05-06T21:16:07Z</time>
				<extensions>
				</extensions>
			</trkpt>
			<trkpt lat="-27.726508" lon="153.221558">
				<ele>3</ele>
				<time>2015-05-06T21:16:08Z</time>
				<extensions>
				</extensions>
			</trkpt>
			<trkpt lat="-27.726701" lon="153.221734">
				<ele>6</ele>
				<time>2015-05-06T21:16:09Z</time>
				<extensions>
				</extensions>
			</trkpt>
			<trkpt lat="-27.726899" lon="153.221907">
				<ele>5</ele>
				<time>2015-05-06T21:16:10Z</time>
				<extensions>
				</extensions>
			</trkpt>
			<trkpt lat="-27.727100" lon="153.222083">
				<ele>3</ele>
				<time>2015-05-06T21:16:11Z</time>
				<extensions>
				</extensions>
			</trkpt>
			<trkpt lat="-27.727303" lon="153.222254">
				<ele>2</ele>
				<time>2015-05-06T21:16:12Z</time>
				<extensions>
				</extensions>
			</trkpt>
			<trkpt lat="-27.727507" lon="153.222427">
				<ele>5</ele>
				<time>2015-05-06T21:16:13Z</time>
				<extensions>
				</extensions>
			</trkpt>
			<trkpt lat="-27.727710" lon="153.222597">
				<ele>4</ele>
				<time>2015-05-06T21:16:14Z</time>
				<extensions>
				</extensions>
			</trkpt>
			<trkpt lat="-27.727912" lon="153.222772">
				<ele>4</ele>
				<time>2015-05-06T21:16:15Z</time>
				<extensions>
				</extensions>
			</trkpt>
			<trkpt lat="-27.728121" lon="153.222939">
				<ele>3</ele>
				<time>2015-05-06T21:16:16Z</time>
				<extensions>
				</extensions>
			</trkpt>
			<trkpt lat="-27.728333" lon="153.223108">
				<ele>2</ele>
				<time>2015-05-06T21:16:17Z</time>
				<extensions>
				</extensions>
			</trkpt>
			<trkpt lat="-27.728544" lon="153.223279">
				<ele>4</ele>
				<time>2015-05-06T21:16:18Z</time>
				<extensions>
				</extensions>
			</trkpt>
			<trkpt lat="-27.728759" lon="153.223445">
				<ele>6</ele>
				<time>2015-05-06T21:16:19Z</time>
				<extensions>
				</extensions>
			</trkpt>
			<trkpt lat="-27.728978" lon="153.223613">
				<ele>4</ele>
				<time>2015-05-06T21:16:20Z</time>
				<extensions>
				</extensions>
			</trkpt>
			<trkpt lat="-27.729201" lon="153.223780">
				<ele>5</ele>
				<time>2015-05-06T21:16:21Z</time>
				<extensions>
				</extensions>
			</trkpt>
			<trkpt lat="-27.729427" lon="153.223948">
				<ele>5</ele>
				<time>2015-05-06T21:16:22Z</time>
				<extensions>
				</extensions>
			</trkpt>
			<trkpt lat="-27.729654" lon="153.224115">
				<ele>4</ele>
				<time>2015-05-06T21:16:23Z</time>
				<extensions>
				</extensions>
			</trkpt>
			<trkpt lat="-27.729878" lon="153.224280">
				<ele>2</ele>
				<time>2015-05-06T21:16:24Z</time>
				<extensions>
				</extensions>
			</trkpt>
			<trkpt lat="-27.730094" lon="153.224443">
				<ele>2</ele>
				<time>2015-05-06T21:16:25Z</time>
				<extensions>
				</extensions>
			</trkpt>
			<trkpt lat="-27.730300" lon="153.224603">
				<ele>-0</ele>
				<time>2015-05-06T21:16:26Z</time>
				<extensions>
				</extensions>
			</trkpt>
			<trkpt lat="-27.730499" lon="153.224764">
				<ele>-0</ele>
				<time>2015-05-06T21:16:27Z</time>
				<extensions>
				</extensions>
			</trkpt>
			<trkpt lat="-27.730688" lon="153.224916">
				<ele>-1</ele>
				<time>2015-05-06T21:16:28Z</time>
				<extensions>
				</extensions>
			</trkpt>
			<trkpt lat="-27.730877" lon="153.225067">
				<ele>-3</ele>
				<time>2015-05-06T21:16:29Z</time>
				<extensions>
				</extensions>
			</trkpt>
			<trkpt lat="-27.731057" lon="153.225210">
				<ele>-3</ele>
				<time>2015-05-06T21:16:30Z</time>
				<extensions>
				</extensions>
			</trkpt>
			<trkpt lat="-27.731243" lon="153.225353">
				<ele>-3</ele>
				<time>2015-05-06T21:16:31Z</time>
				<extensions>
				</extensions>
			</trkpt>
			<trkpt lat="-27.731435" lon="153.225495">
				<ele>-3</ele>
				<time>2015-05-06T21:16:32Z</time>
				<extensions>
				</extensions>
			</trkpt>
			<trkpt lat="-27.731634" lon="153.225644">
				<ele>-1</ele>
				<time>2015-05-06T21:16:33Z</time>
				<extensions>
				</extensions>
			</trkpt>
			<trkpt lat="-27.731826" lon="153.225791">
				<ele>-1</ele>
				<time>2015-05-06T21:16:34Z</time>
				<extensions>
				</extensions>
			</trkpt>
			<trkpt lat="-27.732016" lon="153.225934">
				<ele>-2</ele>
				<time>2015-05-06T21:16:35Z</time>
				<extensions>
				</extensions>
			</trkpt>
			<trkpt lat="-27.732200" lon="153.226078">
				<ele>-3</ele>
				<time>2015-05-06T21:16:36Z</time>
				<extensions>
				</extensions>
			</trkpt>
			<trkpt lat="-27.732375" lon="153.226218">
				<ele>-2</ele>
				<time>2015-05-06T21:16:37Z</time>
				<extensions>
				</extensions>
			</trkpt>
			<trkpt lat="-27.732542" lon="153.226357">
				<ele>-4</ele>
				<time>2015-05-06T21:16:38Z</time>
				<extensions>
				</extensions>
			</trkpt>
			<trkpt lat="-27.732702" lon="153.226492">
				<ele>-5</ele>
				<time>2015-05-06T21:16:39Z</time>
				<extensions>
				</extensions>
			</trkpt>
			<trkpt lat="-27.732855" lon="153.226623">
				<ele>-4</ele>
				<time>2015-05-06T21:16:40Z</time>
				<extensions>
				</extensions>
			</trkpt>
			<trkpt lat="-27.733009" lon="153.226763">
				<ele>-4</ele>
				<time>2015-05-06T21:16:41Z</time>
				<extensions>
				</extensions>
			</trkpt>
			<trkpt lat="-27.733153" lon="153.226900">
				<ele>-5</ele>
				<time>2015-05-06T21:16:42Z</time>
				<extensions>
				</extensions>
			</trkpt>
			<trkpt lat="-27.733299" lon="153.227039">
				<ele>-5</ele>
				<time>2015-05-06T21:16:43Z</time>
				<extensions>
				</extensions>
			</trkpt>
			<trkpt lat="-27.733443" lon="153.227173">
				<ele>-5</ele>
				<time>2015-05-06T21:16:44Z</time>
				<extensions>
				</extensions>
			</trkpt>
			<trkpt lat="-27.733711" lon="153.227405">
				<ele>-6</ele>
				<time>2015-05-06T21:16:46Z</time>
				<extensions>
				</extensions>
			</trkpt>
			<trkpt lat="-27.733926" lon="153.227598">
				<ele>-8</ele>
				<time>2015-05-06T21:16:48Z</time>
				<extensions>
				</extensions>
			</trkpt>
			<trkpt lat="-27.734115" lon="153.227797">
				<ele>-8</ele>
				<time>2015-05-06T21:16:50Z</time>
				<extensions>
				</extensions>
			</trkpt>
			<trkpt lat="-27.734278" lon="153.227982">
				<ele>-9</ele>
				<time>2015-05-06T21:16:52Z</time>
				<extensions>
				</extensions>
			</trkpt>
			<trkpt lat="-27.734454" lon="153.228120">
				<ele>-9</ele>
				<time>2015-05-06T21:16:54Z</time>
				<extensions>
				</extensions>
			</trkpt>
			<trkpt lat="-27.734633" lon="153.228222">
				<ele>-10</ele>
				<time>2015-05-06T21:16:56Z</time>
				<extensions>
				</extensions>
			</trkpt>
			<trkpt lat="-27.734763" lon="153.228418">
				<ele>-11</ele>
				<time>2015-05-06T21:16:59Z</time>
				<extensions>
				</extensions>
			</trkpt>
			<trkpt lat="-27.734762" lon="153.228636">
				<ele>-11</ele>
				<time>2015-05-06T21:17:02Z</time>
				<extensions>
				</extensions>
			</trkpt>
			<trkpt lat="-27.734641" lon="153.228820">
				<ele>-10</ele>
				<time>2015-05-06T21:17:05Z</time>
				<extensions>
				</extensions>
			</trkpt>
			<trkpt lat="-27.734464" lon="153.228859">
				<ele>-9</ele>
				<time>2015-05-06T21:17:07Z</time>
				<extensions>
				</extensions>
			</trkpt>
			<trkpt lat="-27.734254" lon="153.228671">
				<ele>-8</ele>
				<time>2015-05-06T21:17:10Z</time>
				<extensions>
				</extensions>
			</trkpt>
			<trkpt lat="-27.734148" lon="153.228435">
				<ele>-6</ele>
				<time>2015-05-06T21:17:12Z</time>
				<extensions>
				</extensions>
			</trkpt>
			<trkpt lat="-27.734036" lon="153.228161">
				<ele>-5</ele>
				<time>2015-05-06T21:17:14Z</time>
				<extensions>
				</extensions>
			</trkpt>
			<trkpt lat="-27.733913" lon="153.227938">
				<ele>-6</ele>
				<time>2015-05-06T21:17:16Z</time>
				<extensions>
				</extensions>
			</trkpt>
			<trkpt lat="-27.733754" lon="153.227751">
				<ele>-7</ele>
				<time>2015-05-06T21:17:18Z</time>
				<extensions>
				</extensions>
			</trkpt>
			<trkpt lat="-27.733586" lon="153.227606">
				<ele>-7</ele>
				<time>2015-05-06T21:17:20Z</time>
				<extensions>
				</extensions>
			</trkpt>
			<trkpt lat="-27.733432" lon="153.227490">
				<ele>-8</ele>
				<time>2015-05-06T21:17:22Z</time>
				<extensions>
				</extensions>
			</trkpt>
			<trkpt lat="-27.733243" lon="153.227326">
				<ele>-8</ele>
				<time>2015-05-06T21:17:25Z</time>
				<extensions>
				</extensions>
			</trkpt>
			<trkpt lat="-27.733050" lon="153.227233">
				<ele>-9</ele>
				<time>2015-05-06T21:17:29Z</time>
				<extensions>
				</extensions>
			</trkpt>
			<trkpt lat="-27.732949" lon="153.227404">
				<ele>-4</ele>
				<time>2015-05-06T21:18:04Z</time>
				<extensions>
				</extensions>
			</trkpt>
			<trkpt lat="-27.732907" lon="153.227642">
				<ele>-2</ele>
				<time>2015-05-06T21:18:09Z</time>
				<extensions>
				</extensions>
			</trkpt>
			<trkpt lat="-27.732774" lon="153.227798">
				<ele>-1</ele>
				<time>2015-05-06T21:18:15Z</time>
				<extensions>
				</extensions>
			</trkpt>
			<trkpt lat="-27.732733" lon="153.228102">
				<ele>-5</ele>
				<time>2015-05-06T21:59:20Z</time>
				<extensions>
				</extensions>
			</trkpt>
			<trkpt lat="-27.732730" lon="153.227888">
				<ele>-5</ele>
				<time>2015-05-06T22:02:09Z</time>
				<extensions>
				</extensions>
			</trkpt>
			<trkpt lat="-27.732887" lon="153.228009">
				<ele>-5</ele>
				<time>2015-05-06T22:05:21Z</time>
				<extensions>
				</extensions>
			</trkpt>
			<trkpt lat="-27.732779" lon="153.228184">
				<ele>-5</ele>
				<time>2015-05-06T22:05:57Z</time>
				<extensions>
				</extensions>
			</trkpt>
			<trkpt lat="-27.732685" lon="153.228008">
				<ele>-6</ele>
				<time>2015-05-06T22:07:10Z</time>
				<extensions>
				</extensions>
			</trkpt>
			<trkpt lat="-27.732498" lon="153.228075">
				<ele>-6</ele>
				<time>2015-05-06T22:18:14Z</time>
				<extensions>
				</extensions>
			</trkpt>
			<trkpt lat="-27.732323" lon="153.228160">
				<ele>-5</ele>
				<time>2015-05-06T22:18:18Z</time>
				<extensions>
				</extensions>
			</trkpt>
			<trkpt lat="-27.732150" lon="153.228253">
				<ele>-6</ele>
				<time>2015-05-06T22:18:22Z</time>
				<extensions>
				</extensions>
			</trkpt>
			<trkpt lat="-27.732145" lon="153.228473">
				<ele>-5</ele>
				<time>2015-05-06T22:18:26Z</time>
				<extensions>
				</extensions>
			</trkpt>
			<trkpt lat="-27.732190" lon="153.228684">
				<ele>-6</ele>
				<time>2015-05-06T22:18:31Z</time>
				<extensions>
				</extensions>
			</trkpt>
			<trkpt lat="-27.732331" lon="153.228850">
				<ele>-6</ele>
				<time>2015-05-06T22:18:40Z</time>
				<extensions>
				</extensions>
			</trkpt>
			<trkpt lat="-27.732516" lon="153.228958">
				<ele>-6</ele>
				<time>2015-05-06T22:18:44Z</time>
				<extensions>
				</extensions>
			</trkpt>
			<trkpt lat="-27.732696" lon="153.229060">
				<ele>-6</ele>
				<time>2015-05-06T22:18:49Z</time>
				<extensions>
				</extensions>
			</trkpt>
			<trkpt lat="-27.732871" lon="153.229153">
				<ele>-6</ele>
				<time>2015-05-06T22:18:55Z</time>
				<extensions>
				</extensions>
			</trkpt>
			<trkpt lat="-27.733053" lon="153.229248">
				<ele>-6</ele>
				<time>2015-05-06T22:19:03Z</time>
				<extensions>
				</extensions>
			</trkpt>
			<trkpt lat="-27.733244" lon="153.229203">
				<ele>-5</ele>
				<time>2015-05-06T22:19:11Z</time>
				<extensions>
				</extensions>
			</trkpt>
			<trkpt lat="-27.733408" lon="153.229073">
				<ele>-4</ele>
				<time>2015-05-06T22:19:15Z</time>
				<extensions>
				</extensions>
			</trkpt>
			<trkpt lat="-27.733506" lon="153.228879">
				<ele>-4</ele>
				<time>2015-05-06T22:19:18Z</time>
				<extensions>
				</extensions>
			</trkpt>
			<trkpt lat="-27.733613" lon="153.228649">
				<ele>-4</ele>
				<time>2015-05-06T22:19:21Z</time>
				<extensions>
				</extensions>
			</trkpt>
			<trkpt lat="-27.733710" lon="153.228442">
				<ele>-5</ele>
				<time>2015-05-06T22:19:24Z</time>
				<extensions>
				</extensions>
			</trkpt>
			<trkpt lat="-27.733734" lon="153.228236">
				<ele>-6</ele>
				<time>2015-05-06T22:19:27Z</time>
				<extensions>
				</extensions>
			</trkpt>
			<trkpt lat="-27.733802" lon="153.228040">
				<ele>-8</ele>
				<time>2015-05-06T22:19:32Z</time>
				<extensions>
				</extensions>
			</trkpt>
			<trkpt lat="-27.733968" lon="153.228259">
				<ele>-7</ele>
				<time>2015-05-06T22:19:36Z</time>
				<extensions>
				</extensions>
			</trkpt>
			<trkpt lat="-27.734076" lon="153.228473">
				<ele>-8</ele>
				<time>2015-05-06T22:19:39Z</time>
				<extensions>
				</extensions>
			</trkpt>
			<trkpt lat="-27.734206" lon="153.228708">
				<ele>-8</ele>
				<time>2015-05-06T22:19:42Z</time>
				<extensions>
				</extensions>
			</trkpt>
			<trkpt lat="-27.734335" lon="153.228870">
				<ele>-8</ele>
				<time>2015-05-06T22:19:56Z</time>
				<extensions>
				</extensions>
			</trkpt>
			<trkpt lat="-27.734472" lon="153.229001">
				<ele>-8</ele>
				<time>2015-05-06T22:20:10Z</time>
				<extensions>
				</extensions>
			</trkpt>
			<trkpt lat="-27.734603" lon="153.229213">
				<ele>-7</ele>
				<time>2015-05-06T22:20:19Z</time>
				<extensions>
				</extensions>
			</trkpt>
			<trkpt lat="-27.734721" lon="153.229425">
				<ele>-7</ele>
				<time>2015-05-06T22:20:22Z</time>
				<extensions>
				</extensions>
			</trkpt>
			<trkpt lat="-27.734888" lon="153.229517">
				<ele>-7</ele>
				<time>2015-05-06T22:20:25Z</time>
				<extensions>
				</extensions>
			</trkpt>
			<trkpt lat="-27.735089" lon="153.229455">
				<ele>-6</ele>
				<time>2015-05-06T22:20:27Z</time>
				<extensions>
				</extensions>
			</trkpt>
			<trkpt lat="-27.735246" lon="153.229239">
				<ele>-6</ele>
				<time>2015-05-06T22:20:30Z</time>
				<extensions>
				</extensions>
			</trkpt>
			<trkpt lat="-27.735311" lon="153.228968">
				<ele>-6</ele>
				<time>2015-05-06T22:20:33Z</time>
				<extensions>
				</extensions>
			</trkpt>
			<trkpt lat="-27.735388" lon="153.228748">
				<ele>-8</ele>
				<time>2015-05-06T22:20:36Z</time>
				<extensions>
				</extensions>
			</trkpt>
			<trkpt lat="-27.735478" lon="153.228515">
				<ele>-9</ele>
				<time>2015-05-06T22:20:39Z</time>
				<extensions>
				</extensions>
			</trkpt>
			<trkpt lat="-27.735568" lon="153.228296">
				<ele>-8</ele>
				<time>2015-05-06T22:20:42Z</time>
				<extensions>
				</extensions>
			</trkpt>
			<trkpt lat="-27.735656" lon="153.228071">
				<ele>-7</ele>
				<time>2015-05-06T22:20:45Z</time>
				<extensions>
				</extensions>
			</trkpt>
			<trkpt lat="-27.735754" lon="153.227833">
				<ele>-7</ele>
				<time>2015-05-06T22:20:49Z</time>
				<extensions>
				</extensions>
			</trkpt>
			<trkpt lat="-27.735926" lon="153.227669">
				<ele>-7</ele>
				<time>2015-05-06T22:20:52Z</time>
				<extensions>
				</extensions>
			</trkpt>
			<trkpt lat="-27.736124" lon="153.227587">
				<ele>-7</ele>
				<time>2015-05-06T22:20:55Z</time>
				<extensions>
				</extensions>
			</trkpt>
			<trkpt lat="-27.736236" lon="153.227425">
				<ele>-7</ele>
				<time>2015-05-06T22:20:58Z</time>
				<extensions>
				</extensions>
			</trkpt>
			<trkpt lat="-27.736385" lon="153.227146">
				<ele>-7</ele>
				<time>2015-05-06T22:21:02Z</time>
				<extensions>
				</extensions>
			</trkpt>
			<trkpt lat="-27.736609" lon="153.226988">
				<ele>-6</ele>
				<time>2015-05-06T22:21:05Z</time>
				<extensions>
				</extensions>
			</trkpt>
			<trkpt lat="-27.736786" lon="153.226868">
				<ele>-6</ele>
				<time>2015-05-06T22:21:07Z</time>
				<extensions>
				</extensions>
			</trkpt>
			<trkpt lat="-27.736989" lon="153.226731">
				<ele>-6</ele>
				<time>2015-05-06T22:21:09Z</time>
				<extensions>
				</extensions>
			</trkpt>
			<trkpt lat="-27.737192" lon="153.226588">
				<ele>-5</ele>
				<time>2015-05-06T22:21:11Z</time>
				<extensions>
				</extensions>
			</trkpt>
			<trkpt lat="-27.737407" lon="153.226466">
				<ele>-6</ele>
				<time>2015-05-06T22:21:13Z</time>
				<extensions>
				</extensions>
			</trkpt>
			<trkpt lat="-27.737637" lon="153.226404">
				<ele>-6</ele>
				<time>2015-05-06T22:21:15Z</time>
				<extensions>
				</extensions>
			</trkpt>
			<trkpt lat="-27.737846" lon="153.226473">
				<ele>-6</ele>
				<time>2015-05-06T22:21:18Z</time>
				<extensions>
				</extensions>
			</trkpt>
			<trkpt lat="-27.738003" lon="153.226650">
				<ele>-7</ele>
				<time>2015-05-06T22:21:23Z</time>
				<extensions>
				</extensions>
			</trkpt>
			<trkpt lat="-27.738146" lon="153.226783">
				<ele>-5</ele>
				<time>2015-05-06T22:21:26Z</time>
				<extensions>
				</extensions>
			</trkpt>
			<trkpt lat="-27.738353" lon="153.226785">
				<ele>-4</ele>
				<time>2015-05-06T22:21:29Z</time>
				<extensions>
				</extensions>
			</trkpt>
			<trkpt lat="-27.738576" lon="153.226576">
				<ele>-4</ele>
				<time>2015-05-06T22:21:32Z</time>
				<extensions>
				</extensions>
			</trkpt>
			<trkpt lat="-27.738744" lon="153.226476">
				<ele>-2</ele>
				<time>2015-05-06T22:21:34Z</time>
				<extensions>
				</extensions>
			</trkpt>
			<trkpt lat="-27.738940" lon="153.226377">
				<ele>-2</ele>
				<time>2015-05-06T22:21:36Z</time>
				<extensions>
				</extensions>
			</trkpt>
			<trkpt lat="-27.739133" lon="153.226251">
				<ele>-1</ele>
				<time>2015-05-06T22:21:38Z</time>
				<extensions>
				</extensions>
			</trkpt>
			<trkpt lat="-27.739321" lon="153.226061">
				<ele>-0</ele>
				<time>2015-05-06T22:21:40Z</time>
				<extensions>
				</extensions>
			</trkpt>
			<trkpt lat="-27.739517" lon="153.225839">
				<ele>1</ele>
				<time>2015-05-06T22:21:42Z</time>
				<extensions>
				</extensions>
			</trkpt>
			<trkpt lat="-27.739736" lon="153.225595">
				<ele>2</ele>
				<time>2015-05-06T22:21:44Z</time>
				<extensions>
				</extensions>
			</trkpt>
			<trkpt lat="-27.739967" lon="153.225338">
				<ele>4</ele>
				<time>2015-05-06T22:21:46Z</time>
				<extensions>
				</extensions>
			</trkpt>
			<trkpt lat="-27.740216" lon="153.225062">
				<ele>6</ele>
				<time>2015-05-06T22:21:48Z</time>
				<extensions>
				</extensions>
			</trkpt>
			<trkpt lat="-27.740435" lon="153.224822">
				<ele>6</ele>
				<time>2015-05-06T22:21:50Z</time>
				<extensions>
				</extensions>
			</trkpt>
			<trkpt lat="-27.740663" lon="153.224567">
				<ele>4</ele>
				<time>2015-05-06T22:21:52Z</time>
				<extensions>
				</extensions>
			</trkpt>
			<trkpt lat="-27.740883" lon="153.224300">
				<ele>7</ele>
				<time>2015-05-06T22:21:54Z</time>
				<extensions>
				</extensions>
			</trkpt>
			<trkpt lat="-27.741068" lon="153.224053">
				<ele>6</ele>
				<time>2015-05-06T22:21:56Z</time>
				<extensions>
				</extensions>
			</trkpt>
			<trkpt lat="-27.741220" lon="153.223829">
				<ele>7</ele>
				<time>2015-05-06T22:21:58Z</time>
				<extensions>
				</extensions>
			</trkpt>
			<trkpt lat="-27.741350" lon="153.223635">
				<ele>6</ele>
				<time>2015-05-06T22:22:00Z</time>
				<extensions>
				</extensions>
			</trkpt>
			<trkpt lat="-27.741462" lon="153.223464">
				<ele>6</ele>
				<time>2015-05-06T22:22:02Z</time>
				<extensions>
				</extensions>
			</trkpt>
			<trkpt lat="-27.741595" lon="153.223292">
				<ele>5</ele>
				<time>2015-05-06T22:22:06Z</time>
				<extensions>
				</extensions>
			</trkpt>
			<trkpt lat="-27.741714" lon="153.223089">
				<ele>8</ele>
				<time>2015-05-06T22:22:09Z</time>
				<extensions>
				</extensions>
			</trkpt>
			<trkpt lat="-27.741841" lon="153.222900">
				<ele>11</ele>
				<time>2015-05-06T22:22:11Z</time>
				<extensions>
				</extensions>
			</trkpt>
			<trkpt lat="-27.741994" lon="153.222653">
				<ele>14</ele>
				<time>2015-05-06T22:22:13Z</time>
				<extensions>
				</extensions>
			</trkpt>
			<trkpt lat="-27.742179" lon="153.222377">
				<ele>18</ele>
				<time>2015-05-06T22:22:15Z</time>
				<extensions>
				</extensions>
			</trkpt>
			<trkpt lat="-27.742369" lon="153.222113">
				<ele>19</ele>
				<time>2015-05-06T22:22:17Z</time>
				<extensions>
				</extensions>
			</trkpt>
			<trkpt lat="-27.742569" lon="153.221848">
				<ele>18</ele>
				<time>2015-05-06T22:22:19Z</time>
				<extensions>
				</extensions>
			</trkpt>
			<trkpt lat="-27.742810" lon="153.221632">
				<ele>19</ele>
				<time>2015-05-06T22:22:21Z</time>
				<extensions>
				</extensions>
			</trkpt>
			<trkpt lat="-27.743086" lon="153.221445">
				<ele>19</ele>
				<time>2015-05-06T22:22:23Z</time>
				<extensions>
				</extensions>
			</trkpt>
			<trkpt lat="-27.743389" lon="153.221301">
				<ele>18</ele>
				<time>2015-05-06T22:22:25Z</time>
				<extensions>
				</extensions>
			</trkpt>
			<trkpt lat="-27.743704" lon="153.221209">
				<ele>16</ele>
				<time>2015-05-06T22:22:27Z</time>
				<extensions>
				</extensions>
			</trkpt>
			<trkpt lat="-27.744054" lon="153.221148">
				<ele>18</ele>
				<time>2015-05-06T22:22:29Z</time>
				<extensions>
				</extensions>
			</trkpt>
			<trkpt lat="-27.744248" lon="153.221120">
				<ele>17</ele>
				<time>2015-05-06T22:22:30Z</time>
				<extensions>
				</extensions>
			</trkpt>
			<trkpt lat="-27.744439" lon="153.221061">
				<ele>17</ele>
				<time>2015-05-06T22:22:31Z</time>
				<extensions>
				</extensions>
			</trkpt>
			<trkpt lat="-27.744630" lon="153.221037">
				<ele>17</ele>
				<time>2015-05-06T22:22:32Z</time>
				<extensions>
				</extensions>
			</trkpt>
			<trkpt lat="-27.744823" lon="153.221013">
				<ele>16</ele>
				<time>2015-05-06T22:22:33Z</time>
				<extensions>
				</extensions>
			</trkpt>
			<trkpt lat="-27.745003" lon="153.220968">
				<ele>14</ele>
				<time>2015-05-06T22:22:34Z</time>
				<extensions>
				</extensions>
			</trkpt>
			<trkpt lat="-27.745351" lon="153.220895">
				<ele>11</ele>
				<time>2015-05-06T22:22:36Z</time>
				<extensions>
				</extensions>
			</trkpt>
			<trkpt lat="-27.745695" lon="153.220817">
				<ele>9</ele>
				<time>2015-05-06T22:22:38Z</time>
				<extensions>
				</extensions>
			</trkpt>
			<trkpt lat="-27.746042" lon="153.220744">
				<ele>10</ele>
				<time>2015-05-06T22:22:40Z</time>
				<extensions>
				</extensions>
			</trkpt>
			<trkpt lat="-27.746402" lon="153.220707">
				<ele>8</ele>
				<time>2015-05-06T22:22:42Z</time>
				<extensions>
				</extensions>
			</trkpt>
			<trkpt lat="-27.746585" lon="153.220710">
				<ele>7</ele>
				<time>2015-05-06T22:22:43Z</time>
				<extensions>
				</extensions>
			</trkpt>
			<trkpt lat="-27.746937" lon="153.220712">
				<ele>6</ele>
				<time>2015-05-06T22:22:45Z</time>
				<extensions>
				</extensions>
			</trkpt>
			<trkpt lat="-27.747280" lon="153.220683">
				<ele>4</ele>
				<time>2015-05-06T22:22:47Z</time>
				<extensions>
				</extensions>
			</trkpt>
			<trkpt lat="-27.747628" lon="153.220629">
				<ele>5</ele>
				<time>2015-05-06T22:22:49Z</time>
				<extensions>
				</extensions>
			</trkpt>
			<trkpt lat="-27.747962" lon="153.220515">
				<ele>3</ele>
				<time>2015-05-06T22:22:51Z</time>
				<extensions>
				</extensions>
			</trkpt>
			<trkpt lat="-27.748270" lon="153.220355">
				<ele>4</ele>
				<time>2015-05-06T22:22:53Z</time>
				<extensions>
				</extensions>
			</trkpt>
			<trkpt lat="-27.748539" lon="153.220159">
				<ele>2</ele>
				<time>2015-05-06T22:22:55Z</time>
				<extensions>
				</extensions>
			</trkpt>
			<trkpt lat="-27.748776" lon="153.219937">
				<ele>1</ele>
				<time>2015-05-06T22:22:57Z</time>
				<extensions>
				</extensions>
			</trkpt>
			<trkpt lat="-27.748981" lon="153.219702">
				<ele>2</ele>
				<time>2015-05-06T22:22:59Z</time>
				<extensions>
				</extensions>
			</trkpt>
			<trkpt lat="-27.749200" lon="153.219439">
				<ele>4</ele>
				<time>2015-05-06T22:23:01Z</time>
				<extensions>
				</extensions>
			</trkpt>
			<trkpt lat="-27.749404" lon="153.219165">
				<ele>4</ele>
				<time>2015-05-06T22:23:03Z</time>
				<extensions>
				</extensions>
			</trkpt>
			<trkpt lat="-27.749596" lon="153.218937">
				<ele>2</ele>
				<time>2015-05-06T22:23:05Z</time>
				<extensions>
				</extensions>
			</trkpt>
			<trkpt lat="-27.749792" lon="153.218723">
				<ele>2</ele>
				<time>2015-05-06T22:23:07Z</time>
				<extensions>
				</extensions>
			</trkpt>
			<trkpt lat="-27.749984" lon="153.218556">
				<ele>1</ele>
				<time>2015-05-06T22:23:09Z</time>
				<extensions>
				</extensions>
			</trkpt>
			<trkpt lat="-27.750155" lon="153.218398">
				<ele>-0</ele>
				<time>2015-05-06T22:23:11Z</time>
				<extensions>
				</extensions>
			</trkpt>
			<trkpt lat="-27.750286" lon="153.218247">
				<ele>-1</ele>
				<time>2015-05-06T22:23:13Z</time>
				<extensions>
				</extensions>
			</trkpt>
			<trkpt lat="-27.750402" lon="153.218047">
				<ele>-1</ele>
				<time>2015-05-06T22:23:16Z</time>
				<extensions>
				</extensions>
			</trkpt>
			<trkpt lat="-27.750502" lon="153.217854">
				<ele>-2</ele>
				<time>2015-05-06T22:23:21Z</time>
				<extensions>
				</extensions>
			</trkpt>
			<trkpt lat="-27.750727" lon="153.217790">
				<ele>-1</ele>
				<time>2015-05-06T22:23:25Z</time>
				<extensions>
				</extensions>
			</trkpt>
			<trkpt lat="-27.750945" lon="153.217753">
				<ele>-0</ele>
				<time>2015-05-06T22:23:28Z</time>
				<extensions>
				</extensions>
			</trkpt>
			<trkpt lat="-27.751100" lon="153.217525">
				<ele>2</ele>
				<time>2015-05-06T22:23:31Z</time>
				<extensions>
				</extensions>
			</trkpt>
			<trkpt lat="-27.751169" lon="153.217303">
				<ele>3</ele>
				<time>2015-05-06T22:23:33Z</time>
				<extensions>
				</extensions>
			</trkpt>
			<trkpt lat="-27.751298" lon="153.217084">
				<ele>5</ele>
				<time>2015-05-06T22:23:35Z</time>
				<extensions>
				</extensions>
			</trkpt>
			<trkpt lat="-27.751483" lon="153.216830">
				<ele>8</ele>
				<time>2015-05-06T22:23:37Z</time>
				<extensions>
				</extensions>
			</trkpt>
			<trkpt lat="-27.751719" lon="153.216564">
				<ele>12</ele>
				<time>2015-05-06T22:23:39Z</time>
				<extensions>
				</extensions>
			</trkpt>
			<trkpt lat="-27.751956" lon="153.216304">
				<ele>12</ele>
				<time>2015-05-06T22:23:41Z</time>
				<extensions>
				</extensions>
			</trkpt>
			<trkpt lat="-27.752174" lon="153.216071">
				<ele>10</ele>
				<time>2015-05-06T22:23:43Z</time>
				<extensions>
				</extensions>
			</trkpt>
			<trkpt lat="-27.752396" lon="153.215822">
				<ele>13</ele>
				<time>2015-05-06T22:23:45Z</time>
				<extensions>
				</extensions>
			</trkpt>
			<trkpt lat="-27.752631" lon="153.215553">
				<ele>17</ele>
				<time>2015-05-06T22:23:47Z</time>
				<extensions>
				</extensions>
			</trkpt>
			<trkpt lat="-27.752874" lon="153.215275">
				<ele>19</ele>
				<time>2015-05-06T22:23:49Z</time>
				<extensions>
				</extensions>
			</trkpt>
			<trkpt lat="-27.753120" lon="153.215001">
				<ele>20</ele>
				<time>2015-05-06T22:23:51Z</time>
				<extensions>
				</extensions>
			</trkpt>
			<trkpt lat="-27.753259" lon="153.214859">
				<ele>21</ele>
				<time>2015-05-06T22:23:52Z</time>
				<extensions>
				</extensions>
			</trkpt>
			<trkpt lat="-27.753393" lon="153.214720">
				<ele>22</ele>
				<time>2015-05-06T22:23:53Z</time>
				<extensions>
				</extensions>
			</trkpt>
			<trkpt lat="-27.753541" lon="153.214578">
				<ele>25</ele>
				<time>2015-05-06T22:23:54Z</time>
				<extensions>
				</extensions>
			</trkpt>
			<trkpt lat="-27.753698" lon="153.214444">
				<ele>23</ele>
				<time>2015-05-06T22:23:55Z</time>
				<extensions>
				</extensions>
			</trkpt>
			<trkpt lat="-27.753855" lon="153.214322">
				<ele>24</ele>
				<time>2015-05-06T22:23:56Z</time>
				<extensions>
				</extensions>
			</trkpt>
			<trkpt lat="-27.754001" lon="153.214201">
				<ele>23</ele>
				<time>2015-05-06T22:23:57Z</time>
				<extensions>
				</extensions>
			</trkpt>
			<trkpt lat="-27.754154" lon="153.214093">
				<ele>23</ele>
				<time>2015-05-06T22:23:58Z</time>
				<extensions>
				</extensions>
			</trkpt>
			<trkpt lat="-27.754309" lon="153.213986">
				<ele>23</ele>
				<time>2015-05-06T22:23:59Z</time>
				<extensions>
				</extensions>
			</trkpt>
			<trkpt lat="-27.754606" lon="153.213804">
				<ele>21</ele>
				<time>2015-05-06T22:24:01Z</time>
				<extensions>
				</extensions>
			</trkpt>
			<trkpt lat="-27.754849" lon="153.213661">
				<ele>17</ele>
				<time>2015-05-06T22:24:03Z</time>
				<extensions>
				</extensions>
			</trkpt>
			<trkpt lat="-27.755051" lon="153.213550">
				<ele>15</ele>
				<time>2015-05-06T22:24:05Z</time>
				<extensions>
				</extensions>
			</trkpt>
			<trkpt lat="-27.755221" lon="153.213463">
				<ele>14</ele>
				<time>2015-05-06T22:24:07Z</time>
				<extensions>
				</extensions>
			</trkpt>
			<trkpt lat="-27.755424" lon="153.213351">
				<ele>12</ele>
				<time>2015-05-06T22:24:11Z</time>
				<extensions>
				</extensions>
			</trkpt>
			<trkpt lat="-27.755602" lon="153.213306">
				<ele>10</ele>
				<time>2015-05-06T22:24:24Z</time>
				<extensions>
				</extensions>
			</trkpt>
			<trkpt lat="-27.755819" lon="153.213207">
				<ele>12</ele>
				<time>2015-05-06T22:24:28Z</time>
				<extensions>
				</extensions>
			</trkpt>
			<trkpt lat="-27.756038" lon="153.213138">
				<ele>14</ele>
				<time>2015-05-06T22:24:30Z</time>
				<extensions>
				</extensions>
			</trkpt>
			<trkpt lat="-27.756293" lon="153.213058">
				<ele>15</ele>
				<time>2015-05-06T22:24:32Z</time>
				<extensions>
				</extensions>
			</trkpt>
			<trkpt lat="-27.756580" lon="153.212977">
				<ele>15</ele>
				<time>2015-05-06T22:24:34Z</time>
				<extensions>
				</extensions>
			</trkpt>
			<trkpt lat="-27.756893" lon="153.212911">
				<ele>14</ele>
				<time>2015-05-06T22:24:36Z</time>
				<extensions>
				</extensions>
			</trkpt>
			<trkpt lat="-27.757211" lon="153.212836">
				<ele>14</ele>
				<time>2015-05-06T22:24:38Z</time>
				<extensions>
				</extensions>
			</trkpt>
			<trkpt lat="-27.757531" lon="153.212791">
				<ele>12</ele>
				<time>2015-05-06T22:24:40Z</time>
				<extensions>
				</extensions>
			</trkpt>
			<trkpt lat="-27.757830" lon="153.212753">
				<ele>10</ele>
				<time>2015-05-06T22:24:42Z</time>
				<extensions>
				</extensions>
			</trkpt>
			<trkpt lat="-27.758091" lon="153.212731">
				<ele>9</ele>
				<time>2015-05-06T22:24:44Z</time>
				<extensions>
				</extensions>
			</trkpt>
			<trkpt lat="-27.758349" lon="153.212717">
				<ele>8</ele>
				<time>2015-05-06T22:24:46Z</time>
				<extensions>
				</extensions>
			</trkpt>
			<trkpt lat="-27.758577" lon="153.212719">
				<ele>9</ele>
				<time>2015-05-06T22:24:48Z</time>
				<extensions>
				</extensions>
			</trkpt>
			<trkpt lat="-27.758770" lon="153.212711">
				<ele>9</ele>
				<time>2015-05-06T22:24:50Z</time>
				<extensions>
				</extensions>
			</trkpt>
			<trkpt lat="-27.758950" lon="153.212684">
				<ele>9</ele>
				<time>2015-05-06T22:24:52Z</time>
				<extensions>
				</extensions>
			</trkpt>
			<trkpt lat="-27.759134" lon="153.212609">
				<ele>9</ele>
				<time>2015-05-06T22:24:55Z</time>
				<extensions>
				</extensions>
			</trkpt>
			<trkpt lat="-27.759306" lon="153.212544">
				<ele>9</ele>
				<time>2015-05-06T22:25:02Z</time>
				<extensions>
				</extensions>
			</trkpt>
			<trkpt lat="-27.759520" lon="153.212575">
				<ele>11</ele>
				<time>2015-05-06T22:25:06Z</time>
				<extensions>
				</extensions>
			</trkpt>
			<trkpt lat="-27.759720" lon="153.212612">
				<ele>12</ele>
				<time>2015-05-06T22:25:09Z</time>
				<extensions>
				</extensions>
			</trkpt>
			<trkpt lat="-27.759940" lon="153.212487">
				<ele>14</ele>
				<time>2015-05-06T22:25:12Z</time>
				<extensions>
				</extensions>
			</trkpt>
			<trkpt lat="-27.760138" lon="153.212380">
				<ele>16</ele>
				<time>2015-05-06T22:25:14Z</time>
				<extensions>
				</extensions>
			</trkpt>
			<trkpt lat="-27.760404" lon="153.212272">
				<ele>18</ele>
				<time>2015-05-06T22:25:16Z</time>
				<extensions>
				</extensions>
			</trkpt>
			<trkpt lat="-27.760677" lon="153.212145">
				<ele>18</ele>
				<time>2015-05-06T22:25:18Z</time>
				<extensions>
				</extensions>
			</trkpt>
			<trkpt lat="-27.760941" lon="153.211999">
				<ele>19</ele>
				<time>2015-05-06T22:25:20Z</time>
				<extensions>
				</extensions>
			</trkpt>
			<trkpt lat="-27.761203" lon="153.211839">
				<ele>20</ele>
				<time>2015-05-06T22:25:22Z</time>
				<extensions>
				</extensions>
			</trkpt>
			<trkpt lat="-27.761484" lon="153.211638">
				<ele>21</ele>
				<time>2015-05-06T22:25:24Z</time>
				<extensions>
				</extensions>
			</trkpt>
			<trkpt lat="-27.761751" lon="153.211441">
				<ele>20</ele>
				<time>2015-05-06T22:25:26Z</time>
				<extensions>
				</extensions>
			</trkpt>
			<trkpt lat="-27.762028" lon="153.211266">
				<ele>20</ele>
				<time>2015-05-06T22:25:28Z</time>
				<extensions>
				</extensions>
			</trkpt>
			<trkpt lat="-27.762306" lon="153.211096">
				<ele>24</ele>
				<time>2015-05-06T22:25:30Z</time>
				<extensions>
				</extensions>
			</trkpt>
			<trkpt lat="-27.762608" lon="153.210933">
				<ele>25</ele>
				<time>2015-05-06T22:25:32Z</time>
				<extensions>
				</extensions>
			</trkpt>
			<trkpt lat="-27.762935" lon="153.210762">
				<ele>28</ele>
				<time>2015-05-06T22:25:34Z</time>
				<extensions>
				</extensions>
			</trkpt>
			<trkpt lat="-27.763249" lon="153.210600">
				<ele>29</ele>
				<time>2015-05-06T22:25:36Z</time>
				<extensions>
				</extensions>
			</trkpt>
			<trkpt lat="-27.763547" lon="153.210429">
				<ele>30</ele>
				<time>2015-05-06T22:25:38Z</time>
				<extensions>
				</extensions>
			</trkpt>
			<trkpt lat="-27.763860" lon="153.210270">
				<ele>32</ele>
				<time>2015-05-06T22:25:40Z</time>
				<extensions>
				</extensions>
			</trkpt>
			<trkpt lat="-27.764184" lon="153.210113">
				<ele>35</ele>
				<time>2015-05-06T22:25:42Z</time>
				<extensions>
				</extensions>
			</trkpt>
			<trkpt lat="-27.764348" lon="153.210024">
				<ele>32</ele>
				<time>2015-05-06T22:25:43Z</time>
				<extensions>
				</extensions>
			</trkpt>
			<trkpt lat="-27.764665" lon="153.209868">
				<ele>29</ele>
				<time>2015-05-06T22:25:45Z</time>
				<extensions>
				</extensions>
			</trkpt>
			<trkpt lat="-27.765003" lon="153.209752">
				<ele>24</ele>
				<time>2015-05-06T22:25:47Z</time>
				<extensions>
				</extensions>
			</trkpt>
			<trkpt lat="-27.765346" lon="153.209678">
				<ele>20</ele>
				<time>2015-05-06T22:25:49Z</time>
				<extensions>
				</extensions>
			</trkpt>
			<trkpt lat="-27.765672" lon="153.209603">
				<ele>16</ele>
				<time>2015-05-06T22:25:51Z</time>
				<extensions>
				</extensions>
			</trkpt>
			<trkpt lat="-27.766023" lon="153.209544">
				<ele>18</ele>
				<time>2015-05-06T22:25:53Z</time>
				<extensions>
				</extensions>
			</trkpt>
			<trkpt lat="-27.766208" lon="153.209520">
				<ele>15</ele>
				<time>2015-05-06T22:25:54Z</time>
				<extensions>
				</extensions>
			</trkpt>
			<trkpt lat="-27.766409" lon="153.209488">
				<ele>13</ele>
				<time>2015-05-06T22:25:55Z</time>
				<extensions>
				</extensions>
			</trkpt>
			<trkpt lat="-27.766590" lon="153.209457">
				<ele>12</ele>
				<time>2015-05-06T22:25:56Z</time>
				<extensions>
				</extensions>
			</trkpt>
			<trkpt lat="-27.766795" lon="153.209430">
				<ele>13</ele>
				<time>2015-05-06T22:25:57Z</time>
				<extensions>
				</extensions>
			</trkpt>
			<trkpt lat="-27.767001" lon="153.209391">
				<ele>13</ele>
				<time>2015-05-06T22:25:58Z</time>
				<extensions>
				</extensions>
			</trkpt>
			<trkpt lat="-27.767210" lon="153.209363">
				<ele>11</ele>
				<time>2015-05-06T22:25:59Z</time>
				<extensions>
				</extensions>
			</trkpt>
			<trkpt lat="-27.767415" lon="153.209340">
				<ele>11</ele>
				<time>2015-05-06T22:26:00Z</time>
				<extensions>
				</extensions>
			</trkpt>
			<trkpt lat="-27.767629" lon="153.209320">
				<ele>11</ele>
				<time>2015-05-06T22:26:01Z</time>
				<extensions>
				</extensions>
			</trkpt>
			<trkpt lat="-27.767840" lon="153.209307">
				<ele>9</ele>
				<time>2015-05-06T22:26:02Z</time>
				<extensions>
				</extensions>
			</trkpt>
			<trkpt lat="-27.768031" lon="153.209296">
				<ele>9</ele>
				<time>2015-05-06T22:26:03Z</time>
				<extensions>
				</extensions>
			</trkpt>
			<trkpt lat="-27.768225" lon="153.209271">
				<ele>8</ele>
				<time>2015-05-06T22:26:04Z</time>
				<extensions>
				</extensions>
			</trkpt>
			<trkpt lat="-27.768418" lon="153.209244">
				<ele>7</ele>
				<time>2015-05-06T22:26:05Z</time>
				<extensions>
				</extensions>
			</trkpt>
			<trkpt lat="-27.768603" lon="153.209202">
				<ele>6</ele>
				<time>2015-05-06T22:26:06Z</time>
				<extensions>
				</extensions>
			</trkpt>
			<trkpt lat="-27.768803" lon="153.209159">
				<ele>6</ele>
				<time>2015-05-06T22:26:07Z</time>
				<extensions>
				</extensions>
			</trkpt>
			<trkpt lat="-27.768997" lon="153.209125">
				<ele>9</ele>
				<time>2015-05-06T22:26:08Z</time>
				<extensions>
				</extensions>
			</trkpt>
			<trkpt lat="-27.769186" lon="153.209088">
				<ele>10</ele>
				<time>2015-05-06T22:26:09Z</time>
				<extensions>
				</extensions>
			</trkpt>
			<trkpt lat="-27.769373" lon="153.209049">
				<ele>8</ele>
				<time>2015-05-06T22:26:10Z</time>
				<extensions>
				</extensions>
			</trkpt>
			<trkpt lat="-27.769557" lon="153.209011">
				<ele>6</ele>
				<time>2015-05-06T22:26:11Z</time>
				<extensions>
				</extensions>
			</trkpt>
			<trkpt lat="-27.769741" lon="153.208972">
				<ele>6</ele>
				<time>2015-05-06T22:26:12Z</time>
				<extensions>
				</extensions>
			</trkpt>
			<trkpt lat="-27.769919" lon="153.208908">
				<ele>7</ele>
				<time>2015-05-06T22:26:13Z</time>
				<extensions>
				</extensions>
			</trkpt>
			<trkpt lat="-27.770102" lon="153.208831">
				<ele>6</ele>
				<time>2015-05-06T22:26:14Z</time>
				<extensions>
				</extensions>
			</trkpt>
			<trkpt lat="-27.770281" lon="153.208736">
				<ele>8</ele>
				<time>2015-05-06T22:26:15Z</time>
				<extensions>
				</extensions>
			</trkpt>
			<trkpt lat="-27.770455" lon="153.208628">
				<ele>9</ele>
				<time>2015-05-06T22:26:16Z</time>
				<extensions>
				</extensions>
			</trkpt>
			<trkpt lat="-27.770628" lon="153.208510">
				<ele>11</ele>
				<time>2015-05-06T22:26:17Z</time>
				<extensions>
				</extensions>
			</trkpt>
			<trkpt lat="-27.770783" lon="153.208365">
				<ele>11</ele>
				<time>2015-05-06T22:26:18Z</time>
				<extensions>
				</extensions>
			</trkpt>
			<trkpt lat="-27.770932" lon="153.208219">
				<ele>11</ele>
				<time>2015-05-06T22:26:19Z</time>
				<extensions>
				</extensions>
			</trkpt>
			<trkpt lat="-27.771069" lon="153.208055">
				<ele>12</ele>
				<time>2015-05-06T22:26:20Z</time>
				<extensions>
				</extensions>
			</trkpt>
			<trkpt lat="-27.771200" lon="153.207880">
				<ele>14</ele>
				<time>2015-05-06T22:26:21Z</time>
				<extensions>
				</extensions>
			</trkpt>
			<trkpt lat="-27.771313" lon="153.207694">
				<ele>17</ele>
				<time>2015-05-06T22:26:22Z</time>
				<extensions>
				</extensions>
			</trkpt>
			<trkpt lat="-27.771420" lon="153.207512">
				<ele>19</ele>
				<time>2015-05-06T22:26:23Z</time>
				<extensions>
				</extensions>
			</trkpt>
			<trkpt lat="-27.771511" lon="153.207314">
				<ele>21</ele>
				<time>2015-05-06T22:26:24Z</time>
				<extensions>
				</extensions>
			</trkpt>
			<trkpt lat="-27.771597" lon="153.207127">
				<ele>21</ele>
				<time>2015-05-06T22:26:25Z</time>
				<extensions>
				</extensions>
			</trkpt>
			<trkpt lat="-27.771656" lon="153.206928">
				<ele>21</ele>
				<time>2015-05-06T22:26:26Z</time>
				<extensions>
				</extensions>
			</trkpt>
			<trkpt lat="-27.771719" lon="153.206713">
				<ele>20</ele>
				<time>2015-05-06T22:26:27Z</time>
				<extensions>
				</extensions>
			</trkpt>
			<trkpt lat="-27.771767" lon="153.206503">
				<ele>20</ele>
				<time>2015-05-06T22:26:28Z</time>
				<extensions>
				</extensions>
			</trkpt>
			<trkpt lat="-27.771795" lon="153.206284">
				<ele>19</ele>
				<time>2015-05-06T22:26:29Z</time>
				<extensions>
				</extensions>
			</trkpt>
			<trkpt lat="-27.771820" lon="153.206063">
				<ele>18</ele>
				<time>2015-05-06T22:26:30Z</time>
				<extensions>
				</extensions>
			</trkpt>
			<trkpt lat="-27.771821" lon="153.205838">
				<ele>17</ele>
				<time>2015-05-06T22:26:31Z</time>
				<extensions>
				</extensions>
			</trkpt>
			<trkpt lat="-27.771756" lon="153.205596">
				<ele>17</ele>
				<time>2015-05-06T22:26:32Z</time>
				<extensions>
				</extensions>
			</trkpt>
			<trkpt lat="-27.771726" lon="153.205356">
				<ele>14</ele>
				<time>2015-05-06T22:26:33Z</time>
				<extensions>
				</extensions>
			</trkpt>
			<trkpt lat="-27.771690" lon="153.205112">
				<ele>16</ele>
				<time>2015-05-06T22:26:34Z</time>
				<extensions>
				</extensions>
			</trkpt>
			<trkpt lat="-27.771666" lon="153.204870">
				<ele>15</ele>
				<time>2015-05-06T22:26:35Z</time>
				<extensions>
				</extensions>
			</trkpt>
			<trkpt lat="-27.771652" lon="153.204631">
				<ele>13</ele>
				<time>2015-05-06T22:26:36Z</time>
				<extensions>
				</extensions>
			</trkpt>
			<trkpt lat="-27.771654" lon="153.204392">
				<ele>12</ele>
				<time>2015-05-06T22:26:37Z</time>
				<extensions>
				</extensions>
			</trkpt>
			<trkpt lat="-27.771675" lon="153.204143">
				<ele>13</ele>
				<time>2015-05-06T22:26:38Z</time>
				<extensions>
				</extensions>
			</trkpt>
			<trkpt lat="-27.771714" lon="153.203889">
				<ele>13</ele>
				<time>2015-05-06T22:26:39Z</time>
				<extensions>
				</extensions>
			</trkpt>
			<trkpt lat="-27.771767" lon="153.203632">
				<ele>13</ele>
				<time>2015-05-06T22:26:40Z</time>
				<extensions>
				</extensions>
			</trkpt>
			<trkpt lat="-27.771836" lon="153.203395">
				<ele>14</ele>
				<time>2015-05-06T22:26:41Z</time>
				<extensions>
				</extensions>
			</trkpt>
			<trkpt lat="-27.771926" lon="153.203182">
				<ele>12</ele>
				<time>2015-05-06T22:26:42Z</time>
				<extensions>
				</extensions>
			</trkpt>
			<trkpt lat="-27.772028" lon="153.202978">
				<ele>11</ele>
				<time>2015-05-06T22:26:43Z</time>
				<extensions>
				</extensions>
			</trkpt>
			<trkpt lat="-27.772136" lon="153.202790">
				<ele>7</ele>
				<time>2015-05-06T22:26:44Z</time>
				<extensions>
				</extensions>
			</trkpt>
			<trkpt lat="-27.772261" lon="153.202619">
				<ele>10</ele>
				<time>2015-05-06T22:26:45Z</time>
				<extensions>
				</extensions>
			</trkpt>
			<trkpt lat="-27.772383" lon="153.202453">
				<ele>10</ele>
				<time>2015-05-06T22:26:46Z</time>
				<extensions>
				</extensions>
			</trkpt>
			<trkpt lat="-27.772503" lon="153.202290">
				<ele>11</ele>
				<time>2015-05-06T22:26:47Z</time>
				<extensions>
				</extensions>
			</trkpt>
			<trkpt lat="-27.772714" lon="153.201982">
				<ele>12</ele>
				<time>2015-05-06T22:26:49Z</time>
				<extensions>
				</extensions>
			</trkpt>
			<trkpt lat="-27.772940" lon="153.201672">
				<ele>16</ele>
				<time>2015-05-06T22:26:51Z</time>
				<extensions>
				</extensions>
			</trkpt>
			<trkpt lat="-27.773055" lon="153.201507">
				<ele>15</ele>
				<time>2015-05-06T22:26:52Z</time>
				<extensions>
				</extensions>
			</trkpt>
			<trkpt lat="-27.773276" lon="153.201210">
				<ele>16</ele>
				<time>2015-05-06T22:26:54Z</time>
				<extensions>
				</extensions>
			</trkpt>
			<trkpt lat="-27.773488" lon="153.200910">
				<ele>16</ele>
				<time>2015-05-06T22:26:56Z</time>
				<extensions>
				</extensions>
			</trkpt>
			<trkpt lat="-27.773662" lon="153.200577">
				<ele>17</ele>
				<time>2015-05-06T22:26:58Z</time>
				<extensions>
				</extensions>
			</trkpt>
			<trkpt lat="-27.773798" lon="153.200230">
				<ele>14</ele>
				<time>2015-05-06T22:27:00Z</time>
				<extensions>
				</extensions>
			</trkpt>
			<trkpt lat="-27.773885" lon="153.199871">
				<ele>15</ele>
				<time>2015-05-06T22:27:02Z</time>
				<extensions>
				</extensions>
			</trkpt>
			<trkpt lat="-27.773924" lon="153.199492">
				<ele>16</ele>
				<time>2015-05-06T22:27:04Z</time>
				<extensions>
				</extensions>
			</trkpt>
			<trkpt lat="-27.773944" lon="153.199090">
				<ele>17</ele>
				<time>2015-05-06T22:27:06Z</time>
				<extensions>
				</extensions>
			</trkpt>
			<trkpt lat="-27.773949" lon="153.198694">
				<ele>19</ele>
				<time>2015-05-06T22:27:08Z</time>
				<extensions>
				</extensions>
			</trkpt>
			<trkpt lat="-27.773922" lon="153.198289">
				<ele>19</ele>
				<time>2015-05-06T22:27:10Z</time>
				<extensions>
				</extensions>
			</trkpt>
			<trkpt lat="-27.773886" lon="153.198084">
				<ele>20</ele>
				<time>2015-05-06T22:27:11Z</time>
				<extensions>
				</extensions>
			</trkpt>
			<trkpt lat="-27.773830" lon="153.197655">
				<ele>20</ele>
				<time>2015-05-06T22:27:13Z</time>
				<extensions>
				</extensions>
			</trkpt>
			<trkpt lat="-27.773788" lon="153.197449">
				<ele>20</ele>
				<time>2015-05-06T22:27:14Z</time>
				<extensions>
				</extensions>
			</trkpt>
			<trkpt lat="-27.773759" lon="153.197233">
				<ele>19</ele>
				<time>2015-05-06T22:27:15Z</time>
				<extensions>
				</extensions>
			</trkpt>
			<trkpt lat="-27.773729" lon="153.197020">
				<ele>18</ele>
				<time>2015-05-06T22:27:16Z</time>
				<extensions>
				</extensions>
			</trkpt>
			<trkpt lat="-27.773697" lon="153.196781">
				<ele>17</ele>
				<time>2015-05-06T22:27:17Z</time>
				<extensions>
				</extensions>
			</trkpt>
			<trkpt lat="-27.773667" lon="153.196563">
				<ele>17</ele>
				<time>2015-05-06T22:27:18Z</time>
				<extensions>
				</extensions>
			</trkpt>
			<trkpt lat="-27.773636" lon="153.196357">
				<ele>17</ele>
				<time>2015-05-06T22:27:19Z</time>
				<extensions>
				</extensions>
			</trkpt>
			<trkpt lat="-27.773580" lon="153.195967">
				<ele>12</ele>
				<time>2015-05-06T22:27:21Z</time>
				<extensions>
				</extensions>
			</trkpt>
			<trkpt lat="-27.773524" lon="153.195579">
				<ele>8</ele>
				<time>2015-05-06T22:27:23Z</time>
				<extensions>
				</extensions>
			</trkpt>
			<trkpt lat="-27.773518" lon="153.195343">
				<ele>6</ele>
				<time>2015-05-06T22:27:25Z</time>
				<extensions>
				</extensions>
			</trkpt>
			<trkpt lat="-27.773470" lon="153.195043">
				<ele>2</ele>
				<time>2015-05-06T22:27:27Z</time>
				<extensions>
				</extensions>
			</trkpt>
			<trkpt lat="-27.773427" lon="153.194793">
				<ele>1</ele>
				<time>2015-05-06T22:27:29Z</time>
				<extensions>
				</extensions>
			</trkpt>
			<trkpt lat="-27.773509" lon="153.194571">
				<ele>-1</ele>
				<time>2015-05-06T22:27:31Z</time>
				<extensions>
				</extensions>
			</trkpt>
			<trkpt lat="-27.773732" lon="153.194408">
				<ele>1</ele>
				<time>2015-05-06T22:27:33Z</time>
				<extensions>
				</extensions>
			</trkpt>
			<trkpt lat="-27.774000" lon="153.194317">
				<ele>-0</ele>
				<time>2015-05-06T22:27:35Z</time>
				<extensions>
				</extensions>
			</trkpt>
			<trkpt lat="-27.774286" lon="153.194225">
				<ele>-4</ele>
				<time>2015-05-06T22:27:37Z</time>
				<extensions>
				</extensions>
			</trkpt>
			<trkpt lat="-27.774554" lon="153.194133">
				<ele>-7</ele>
				<time>2015-05-06T22:27:39Z</time>
				<extensions>
				</extensions>
			</trkpt>
			<trkpt lat="-27.774770" lon="153.193912">
				<ele>-8</ele>
				<time>2015-05-06T22:27:41Z</time>
				<extensions>
				</extensions>
			</trkpt>
			<trkpt lat="-27.774907" lon="153.193642">
				<ele>-5</ele>
				<time>2015-05-06T22:27:43Z</time>
				<extensions>
				</extensions>
			</trkpt>
			<trkpt lat="-27.775029" lon="153.193327">
				<ele>-2</ele>
				<time>2015-05-06T22:27:45Z</time>
				<extensions>
				</extensions>
			</trkpt>
			<trkpt lat="-27.775157" lon="153.193047">
				<ele>-3</ele>
				<time>2015-05-06T22:27:47Z</time>
				<extensions>
				</extensions>
			</trkpt>
			<trkpt lat="-27.775263" lon="153.192773">
				<ele>-3</ele>
				<time>2015-05-06T22:27:49Z</time>
				<extensions>
				</extensions>
			</trkpt>
			<trkpt lat="-27.775344" lon="153.192467">
				<ele>-2</ele>
				<time>2015-05-06T22:27:51Z</time>
				<extensions>
				</extensions>
			</trkpt>
			<trkpt lat="-27.775408" lon="153.192113">
				<ele>-2</ele>
				<time>2015-05-06T22:27:53Z</time>
				<extensions>
				</extensions>
			</trkpt>
			<trkpt lat="-27.775470" lon="153.191751">
				<ele>-3</ele>
				<time>2015-05-06T22:27:55Z</time>
				<extensions>
				</extensions>
			</trkpt>
			<trkpt lat="-27.775504" lon="153.191543">
				<ele>-2</ele>
				<time>2015-05-06T22:27:56Z</time>
				<extensions>
				</extensions>
			</trkpt>
			<trkpt lat="-27.775573" lon="153.191150">
				<ele>-2</ele>
				<time>2015-05-06T22:27:58Z</time>
				<extensions>
				</extensions>
			</trkpt>
			<trkpt lat="-27.775595" lon="153.190760">
				<ele>-3</ele>
				<time>2015-05-06T22:28:00Z</time>
				<extensions>
				</extensions>
			</trkpt>
			<trkpt lat="-27.775563" lon="153.190350">
				<ele>1</ele>
				<time>2015-05-06T22:28:02Z</time>
				<extensions>
				</extensions>
			</trkpt>
			<trkpt lat="-27.775535" lon="153.190142">
				<ele>1</ele>
				<time>2015-05-06T22:28:03Z</time>
				<extensions>
				</extensions>
			</trkpt>
			<trkpt lat="-27.775483" lon="153.189738">
				<ele>0</ele>
				<time>2015-05-06T22:28:05Z</time>
				<extensions>
				</extensions>
			</trkpt>
			<trkpt lat="-27.775436" lon="153.189345">
				<ele>2</ele>
				<time>2015-05-06T22:28:07Z</time>
				<extensions>
				</extensions>
			</trkpt>
			<trkpt lat="-27.775368" lon="153.188937">
				<ele>1</ele>
				<time>2015-05-06T22:28:09Z</time>
				<extensions>
				</extensions>
			</trkpt>
			<trkpt lat="-27.775327" lon="153.188734">
				<ele>1</ele>
				<time>2015-05-06T22:28:10Z</time>
				<extensions>
				</extensions>
			</trkpt>
			<trkpt lat="-27.775289" lon="153.188530">
				<ele>-0</ele>
				<time>2015-05-06T22:28:11Z</time>
				<extensions>
				</extensions>
			</trkpt>
			<trkpt lat="-27.775253" lon="153.188326">
				<ele>-1</ele>
				<time>2015-05-06T22:28:12Z</time>
				<extensions>
				</extensions>
			</trkpt>
			<trkpt lat="-27.775184" lon="153.187977">
				<ele>-2</ele>
				<time>2015-05-06T22:28:14Z</time>
				<extensions>
				</extensions>
			</trkpt>
			<trkpt lat="-27.775103" lon="153.187645">
				<ele>-3</ele>
				<time>2015-05-06T22:28:16Z</time>
				<extensions>
				</extensions>
			</trkpt>
			<trkpt lat="-27.774986" lon="153.187331">
				<ele>-2</ele>
				<time>2015-05-06T22:28:18Z</time>
				<extensions>
				</extensions>
			</trkpt>
			<trkpt lat="-27.774847" lon="153.187047">
				<ele>-4</ele>
				<time>2015-05-06T22:28:20Z</time>
				<extensions>
				</extensions>
			</trkpt>
			<trkpt lat="-27.774733" lon="153.186788">
				<ele>-4</ele>
				<time>2015-05-06T22:28:22Z</time>
				<extensions>
				</extensions>
			</trkpt>
			<trkpt lat="-27.774636" lon="153.186589">
				<ele>-5</ele>
				<time>2015-05-06T22:28:24Z</time>
				<extensions>
				</extensions>
			</trkpt>
			<trkpt lat="-27.774550" lon="153.186408">
				<ele>-5</ele>
				<time>2015-05-06T22:28:26Z</time>
				<extensions>
				</extensions>
			</trkpt>
			<trkpt lat="-27.774465" lon="153.186221">
				<ele>-7</ele>
				<time>2015-05-06T22:28:28Z</time>
				<extensions>
				</extensions>
			</trkpt>
			<trkpt lat="-27.774461" lon="153.185992">
				<ele>-9</ele>
				<time>2015-05-06T22:28:36Z</time>
				<extensions>
				</extensions>
			</trkpt>
			<trkpt lat="-27.774635" lon="153.185871">
				<ele>-5</ele>
				<time>2015-05-06T22:28:39Z</time>
				<extensions>
				</extensions>
			</trkpt>
			<trkpt lat="-27.774917" lon="153.185813">
				<ele>-1</ele>
				<time>2015-05-06T22:28:41Z</time>
				<extensions>
				</extensions>
			</trkpt>
			<trkpt lat="-27.775257" lon="153.185757">
				<ele>3</ele>
				<time>2015-05-06T22:28:43Z</time>
				<extensions>
				</extensions>
			</trkpt>
			<trkpt lat="-27.775608" lon="153.185695">
				<ele>3</ele>
				<time>2015-05-06T22:28:45Z</time>
				<extensions>
				</extensions>
			</trkpt>
			<trkpt lat="-27.775947" lon="153.185642">
				<ele>-1</ele>
				<time>2015-05-06T22:28:47Z</time>
				<extensions>
				</extensions>
			</trkpt>
			<trkpt lat="-27.776263" lon="153.185575">
				<ele>-1</ele>
				<time>2015-05-06T22:28:49Z</time>
				<extensions>
				</extensions>
			</trkpt>
			<trkpt lat="-27.776573" lon="153.185517">
				<ele>-2</ele>
				<time>2015-05-06T22:28:51Z</time>
				<extensions>
				</extensions>
			</trkpt>
			<trkpt lat="-27.776864" lon="153.185511">
				<ele>-2</ele>
				<time>2015-05-06T22:28:53Z</time>
				<extensions>
				</extensions>
			</trkpt>
			<trkpt lat="-27.777181" lon="153.185583">
				<ele>1</ele>
				<time>2015-05-06T22:28:55Z</time>
				<extensions>
				</extensions>
			</trkpt>
			<trkpt lat="-27.777498" lon="153.185755">
				<ele>5</ele>
				<time>2015-05-06T22:28:57Z</time>
				<extensions>
				</extensions>
			</trkpt>
			<trkpt lat="-27.777789" lon="153.186007">
				<ele>7</ele>
				<time>2015-05-06T22:28:59Z</time>
				<extensions>
				</extensions>
			</trkpt>
			<trkpt lat="-27.778042" lon="153.186257">
				<ele>7</ele>
				<time>2015-05-06T22:29:01Z</time>
				<extensions>
				</extensions>
			</trkpt>
			<trkpt lat="-27.778313" lon="153.186523">
				<ele>9</ele>
				<time>2015-05-06T22:29:03Z</time>
				<extensions>
				</extensions>
			</trkpt>
			<trkpt lat="-27.778580" lon="153.186767">
				<ele>12</ele>
				<time>2015-05-06T22:29:05Z</time>
				<extensions>
				</extensions>
			</trkpt>
			<trkpt lat="-27.778864" lon="153.186959">
				<ele>13</ele>
				<time>2015-05-06T22:29:07Z</time>
				<extensions>
				</extensions>
			</trkpt>
			<trkpt lat="-27.779183" lon="153.187084">
				<ele>15</ele>
				<time>2015-05-06T22:29:09Z</time>
				<extensions>
				</extensions>
			</trkpt>
			<trkpt lat="-27.779520" lon="153.187200">
				<ele>18</ele>
				<time>2015-05-06T22:29:11Z</time>
				<extensions>
				</extensions>
			</trkpt>
			<trkpt lat="-27.779709" lon="153.187243">
				<ele>18</ele>
				<time>2015-05-06T22:29:12Z</time>
				<extensions>
				</extensions>
			</trkpt>
			<trkpt lat="-27.779904" lon="153.187306">
				<ele>18</ele>
				<time>2015-05-06T22:29:13Z</time>
				<extensions>
				</extensions>
			</trkpt>
			<trkpt lat="-27.780098" lon="153.187359">
				<ele>17</ele>
				<time>2015-05-06T22:29:14Z</time>
				<extensions>
				</extensions>
			</trkpt>
			<trkpt lat="-27.780287" lon="153.187389">
				<ele>18</ele>
				<time>2015-05-06T22:29:15Z</time>
				<extensions>
				</extensions>
			</trkpt>
			<trkpt lat="-27.780471" lon="153.187421">
				<ele>18</ele>
				<time>2015-05-06T22:29:16Z</time>
				<extensions>
				</extensions>
			</trkpt>
			<trkpt lat="-27.780820" lon="153.187444">
				<ele>16</ele>
				<time>2015-05-06T22:29:18Z</time>
				<extensions>
				</extensions>
			</trkpt>
			<trkpt lat="-27.781144" lon="153.187470">
				<ele>15</ele>
				<time>2015-05-06T22:29:20Z</time>
				<extensions>
				</extensions>
			</trkpt>
			<trkpt lat="-27.781476" lon="153.187509">
				<ele>15</ele>
				<time>2015-05-06T22:29:22Z</time>
				<extensions>
				</extensions>
			</trkpt>
			<trkpt lat="-27.781771" lon="153.187500">
				<ele>15</ele>
				<time>2015-05-06T22:29:24Z</time>
				<extensions>
				</extensions>
			</trkpt>
			<trkpt lat="-27.782085" lon="153.187499">
				<ele>16</ele>
				<time>2015-05-06T22:29:26Z</time>
				<extensions>
				</extensions>
			</trkpt>
			<trkpt lat="-27.782406" lon="153.187445">
				<ele>14</ele>
				<time>2015-05-06T22:29:28Z</time>
				<extensions>
				</extensions>
			</trkpt>
			<trkpt lat="-27.782717" lon="153.187317">
				<ele>12</ele>
				<time>2015-05-06T22:29:30Z</time>
				<extensions>
				</extensions>
			</trkpt>
			<trkpt lat="-27.783029" lon="153.187196">
				<ele>10</ele>
				<time>2015-05-06T22:29:32Z</time>
				<extensions>
				</extensions>
			</trkpt>
			<trkpt lat="-27.783342" lon="153.187041">
				<ele>10</ele>
				<time>2015-05-06T22:29:34Z</time>
				<extensions>
				</extensions>
			</trkpt>
			<trkpt lat="-27.783643" lon="153.186881">
				<ele>9</ele>
				<time>2015-05-06T22:29:36Z</time>
				<extensions>
				</extensions>
			</trkpt>
			<trkpt lat="-27.783884" lon="153.186660">
				<ele>9</ele>
				<time>2015-05-06T22:29:38Z</time>
				<extensions>
				</extensions>
			</trkpt>
			<trkpt lat="-27.784094" lon="153.186363">
				<ele>9</ele>
				<time>2015-05-06T22:29:40Z</time>
				<extensions>
				</extensions>
			</trkpt>
			<trkpt lat="-27.784283" lon="153.186024">
				<ele>13</ele>
				<time>2015-05-06T22:29:42Z</time>
				<extensions>
				</extensions>
			</trkpt>
			<trkpt lat="-27.784497" lon="153.185699">
				<ele>12</ele>
				<time>2015-05-06T22:29:44Z</time>
				<extensions>
				</extensions>
			</trkpt>
			<trkpt lat="-27.784628" lon="153.185556">
				<ele>13</ele>
				<time>2015-05-06T22:29:45Z</time>
				<extensions>
				</extensions>
			</trkpt>
			<trkpt lat="-27.784764" lon="153.185410">
				<ele>13</ele>
				<time>2015-05-06T22:29:46Z</time>
				<extensions>
				</extensions>
			</trkpt>
			<trkpt lat="-27.784906" lon="153.185272">
				<ele>13</ele>
				<time>2015-05-06T22:29:47Z</time>
				<extensions>
				</extensions>
			</trkpt>
			<trkpt lat="-27.785194" lon="153.184991">
				<ele>10</ele>
				<time>2015-05-06T22:29:49Z</time>
				<extensions>
				</extensions>
			</trkpt>
			<trkpt lat="-27.785343" lon="153.184855">
				<ele>9</ele>
				<time>2015-05-06T22:29:50Z</time>
				<extensions>
				</extensions>
			</trkpt>
			<trkpt lat="-27.785499" lon="153.184708">
				<ele>9</ele>
				<time>2015-05-06T22:29:51Z</time>
				<extensions>
				</extensions>
			</trkpt>
			<trkpt lat="-27.785654" lon="153.184572">
				<ele>8</ele>
				<time>2015-05-06T22:29:52Z</time>
				<extensions>
				</extensions>
			</trkpt>
			<trkpt lat="-27.785808" lon="153.184432">
				<ele>7</ele>
				<time>2015-05-06T22:29:53Z</time>
				<extensions>
				</extensions>
			</trkpt>
			<trkpt lat="-27.785969" lon="153.184300">
				<ele>5</ele>
				<time>2015-05-06T22:29:54Z</time>
				<extensions>
				</extensions>
			</trkpt>
			<trkpt lat="-27.786120" lon="153.184180">
				<ele>6</ele>
				<time>2015-05-06T22:29:55Z</time>
				<extensions>
				</extensions>
			</trkpt>
			<trkpt lat="-27.786393" lon="153.183925">
				<ele>6</ele>
				<time>2015-05-06T22:29:57Z</time>
				<extensions>
				</extensions>
			</trkpt>
			<trkpt lat="-27.786668" lon="153.183664">
				<ele>8</ele>
				<time>2015-05-06T22:29:59Z</time>
				<extensions>
				</extensions>
			</trkpt>
			<trkpt lat="-27.786819" lon="153.183539">
				<ele>8</ele>
				<time>2015-05-06T22:30:00Z</time>
				<extensions>
				</extensions>
			</trkpt>
			<trkpt lat="-27.786961" lon="153.183408">
				<ele>8</ele>
				<time>2015-05-06T22:30:01Z</time>
				<extensions>
				</extensions>
			</trkpt>
			<trkpt lat="-27.787093" lon="153.183270">
				<ele>9</ele>
				<time>2015-05-06T22:30:02Z</time>
				<extensions>
				</extensions>
			</trkpt>
			<trkpt lat="-27.787230" lon="153.183114">
				<ele>10</ele>
				<time>2015-05-06T22:30:03Z</time>
				<extensions>
				</extensions>
			</trkpt>
			<trkpt lat="-27.787371" lon="153.182951">
				<ele>10</ele>
				<time>2015-05-06T22:30:04Z</time>
				<extensions>
				</extensions>
			</trkpt>
			<trkpt lat="-27.787506" lon="153.182798">
				<ele>10</ele>
				<time>2015-05-06T22:30:05Z</time>
				<extensions>
				</extensions>
			</trkpt>
			<trkpt lat="-27.787747" lon="153.182464">
				<ele>9</ele>
				<time>2015-05-06T22:30:07Z</time>
				<extensions>
				</extensions>
			</trkpt>
			<trkpt lat="-27.787874" lon="153.182297">
				<ele>9</ele>
				<time>2015-05-06T22:30:08Z</time>
				<extensions>
				</extensions>
			</trkpt>
			<trkpt lat="-27.788098" lon="153.181991">
				<ele>7</ele>
				<time>2015-05-06T22:30:10Z</time>
				<extensions>
				</extensions>
			</trkpt>
			<trkpt lat="-27.788214" lon="153.181831">
				<ele>6</ele>
				<time>2015-05-06T22:30:11Z</time>
				<extensions>
				</extensions>
			</trkpt>
			<trkpt lat="-27.788335" lon="153.181678">
				<ele>7</ele>
				<time>2015-05-06T22:30:12Z</time>
				<extensions>
				</extensions>
			</trkpt>
			<trkpt lat="-27.788468" lon="153.181534">
				<ele>7</ele>
				<time>2015-05-06T22:30:13Z</time>
				<extensions>
				</extensions>
			</trkpt>
			<trkpt lat="-27.788752" lon="153.181288">
				<ele>7</ele>
				<time>2015-05-06T22:30:15Z</time>
				<extensions>
				</extensions>
			</trkpt>
			<trkpt lat="-27.788913" lon="153.181190">
				<ele>8</ele>
				<time>2015-05-06T22:30:16Z</time>
				<extensions>
				</extensions>
			</trkpt>
			<trkpt lat="-27.789080" lon="153.181095">
				<ele>8</ele>
				<time>2015-05-06T22:30:17Z</time>
				<extensions>
				</extensions>
			</trkpt>
			<trkpt lat="-27.789248" lon="153.181010">
				<ele>9</ele>
				<time>2015-05-06T22:30:18Z</time>
				<extensions>
				</extensions>
			</trkpt>
			<trkpt lat="-27.789423" lon="153.180931">
				<ele>10</ele>
				<time>2015-05-06T22:30:19Z</time>
				<extensions>
				</extensions>
			</trkpt>
			<trkpt lat="-27.789599" lon="153.180853">
				<ele>9</ele>
				<time>2015-05-06T22:30:20Z</time>
				<extensions>
				</extensions>
			</trkpt>
			<trkpt lat="-27.789783" lon="153.180763">
				<ele>8</ele>
				<time>2015-05-06T22:30:21Z</time>
				<extensions>
				</extensions>
			</trkpt>
			<trkpt lat="-27.789969" lon="153.180689">
				<ele>9</ele>
				<time>2015-05-06T22:30:22Z</time>
				<extensions>
				</extensions>
			</trkpt>
			<trkpt lat="-27.790155" lon="153.180609">
				<ele>9</ele>
				<time>2015-05-06T22:30:23Z</time>
				<extensions>
				</extensions>
			</trkpt>
			<trkpt lat="-27.790342" lon="153.180527">
				<ele>10</ele>
				<time>2015-05-06T22:30:24Z</time>
				<extensions>
				</extensions>
			</trkpt>
			<trkpt lat="-27.790519" lon="153.180440">
				<ele>8</ele>
				<time>2015-05-06T22:30:25Z</time>
				<extensions>
				</extensions>
			</trkpt>
			<trkpt lat="-27.790853" lon="153.180280">
				<ele>7</ele>
				<time>2015-05-06T22:30:27Z</time>
				<extensions>
				</extensions>
			</trkpt>
			<trkpt lat="-27.791018" lon="153.180197">
				<ele>6</ele>
				<time>2015-05-06T22:30:28Z</time>
				<extensions>
				</extensions>
			</trkpt>
			<trkpt lat="-27.791181" lon="153.180105">
				<ele>7</ele>
				<time>2015-05-06T22:30:29Z</time>
				<extensions>
				</extensions>
			</trkpt>
			<trkpt lat="-27.791337" lon="153.179997">
				<ele>7</ele>
				<time>2015-05-06T22:30:30Z</time>
				<extensions>
				</extensions>
			</trkpt>
			<trkpt lat="-27.791637" lon="153.179752">
				<ele>6</ele>
				<time>2015-05-06T22:30:32Z</time>
				<extensions>
				</extensions>
			</trkpt>
			<trkpt lat="-27.791778" lon="153.179619">
				<ele>6</ele>
				<time>2015-05-06T22:30:33Z</time>
				<extensions>
				</extensions>
			</trkpt>
			<trkpt lat="-27.792032" lon="153.179342">
				<ele>9</ele>
				<time>2015-05-06T22:30:35Z</time>
				<extensions>
				</extensions>
			</trkpt>
			<trkpt lat="-27.792151" lon="153.179187">
				<ele>9</ele>
				<time>2015-05-06T22:30:36Z</time>
				<extensions>
				</extensions>
			</trkpt>
			<trkpt lat="-27.792264" lon="153.179023">
				<ele>10</ele>
				<time>2015-05-06T22:30:37Z</time>
				<extensions>
				</extensions>
			</trkpt>
			<trkpt lat="-27.792375" lon="153.178860">
				<ele>11</ele>
				<time>2015-05-06T22:30:38Z</time>
				<extensions>
				</extensions>
			</trkpt>
			<trkpt lat="-27.792489" lon="153.178697">
				<ele>12</ele>
				<time>2015-05-06T22:30:39Z</time>
				<extensions>
				</extensions>
			</trkpt>
			<trkpt lat="-27.792610" lon="153.178534">
				<ele>12</ele>
				<time>2015-05-06T22:30:40Z</time>
				<extensions>
				</extensions>
			</trkpt>
			<trkpt lat="-27.792755" lon="153.178368">
				<ele>14</ele>
				<time>2015-05-06T22:30:41Z</time>
				<extensions>
				</extensions>
			</trkpt>
			<trkpt lat="-27.792876" lon="153.178191">
				<ele>14</ele>
				<time>2015-05-06T22:30:42Z</time>
				<extensions>
				</extensions>
			</trkpt>
			<trkpt lat="-27.793013" lon="153.178047">
				<ele>11</ele>
				<time>2015-05-06T22:30:43Z</time>
				<extensions>
				</extensions>
			</trkpt>
			<trkpt lat="-27.793287" lon="153.177775">
				<ele>11</ele>
				<time>2015-05-06T22:30:45Z</time>
				<extensions>
				</extensions>
			</trkpt>
			<trkpt lat="-27.793453" lon="153.177684">
				<ele>9</ele>
				<time>2015-05-06T22:30:46Z</time>
				<extensions>
				</extensions>
			</trkpt>
			<trkpt lat="-27.793627" lon="153.177575">
				<ele>9</ele>
				<time>2015-05-06T22:30:47Z</time>
				<extensions>
				</extensions>
			</trkpt>
			<trkpt lat="-27.793796" lon="153.177470">
				<ele>8</ele>
				<time>2015-05-06T22:30:48Z</time>
				<extensions>
				</extensions>
			</trkpt>
			<trkpt lat="-27.793972" lon="153.177378">
				<ele>8</ele>
				<time>2015-05-06T22:30:49Z</time>
				<extensions>
				</extensions>
			</trkpt>
			<trkpt lat="-27.794150" lon="153.177291">
				<ele>5</ele>
				<time>2015-05-06T22:30:50Z</time>
				<extensions>
				</extensions>
			</trkpt>
			<trkpt lat="-27.794328" lon="153.177228">
				<ele>3</ele>
				<time>2015-05-06T22:30:51Z</time>
				<extensions>
				</extensions>
			</trkpt>
			<trkpt lat="-27.794502" lon="153.177162">
				<ele>2</ele>
				<time>2015-05-06T22:30:52Z</time>
				<extensions>
				</extensions>
			</trkpt>
			<trkpt lat="-27.794686" lon="153.177129">
				<ele>3</ele>
				<time>2015-05-06T22:30:53Z</time>
				<extensions>
				</extensions>
			</trkpt>
			<trkpt lat="-27.794877" lon="153.177115">
				<ele>3</ele>
				<time>2015-05-06T22:30:54Z</time>
				<extensions>
				</extensions>
			</trkpt>
			<trkpt lat="-27.795068" lon="153.177127">
				<ele>2</ele>
				<time>2015-05-06T22:30:55Z</time>
				<extensions>
				</extensions>
			</trkpt>
			<trkpt lat="-27.795268" lon="153.177135">
				<ele>2</ele>
				<time>2015-05-06T22:30:56Z</time>
				<extensions>
				</extensions>
			</trkpt>
			<trkpt lat="-27.795467" lon="153.177157">
				<ele>2</ele>
				<time>2015-05-06T22:30:57Z</time>
				<extensions>
				</extensions>
			</trkpt>
			<trkpt lat="-27.795658" lon="153.177184">
				<ele>2</ele>
				<time>2015-05-06T22:30:58Z</time>
				<extensions>
				</extensions>
			</trkpt>
			<trkpt lat="-27.795853" lon="153.177215">
				<ele>1</ele>
				<time>2015-05-06T22:30:59Z</time>
				<extensions>
				</extensions>
			</trkpt>
			<trkpt lat="-27.796231" lon="153.177245">
				<ele>1</ele>
				<time>2015-05-06T22:31:01Z</time>
				<extensions>
				</extensions>
			</trkpt>
			<trkpt lat="-27.796415" lon="153.177284">
				<ele>2</ele>
				<time>2015-05-06T22:31:02Z</time>
				<extensions>
				</extensions>
			</trkpt>
			<trkpt lat="-27.796614" lon="153.177332">
				<ele>3</ele>
				<time>2015-05-06T22:31:03Z</time>
				<extensions>
				</extensions>
			</trkpt>
			<trkpt lat="-27.796816" lon="153.177372">
				<ele>2</ele>
				<time>2015-05-06T22:31:04Z</time>
				<extensions>
				</extensions>
			</trkpt>
			<trkpt lat="-27.797008" lon="153.177406">
				<ele>1</ele>
				<time>2015-05-06T22:31:05Z</time>
				<extensions>
				</extensions>
			</trkpt>
			<trkpt lat="-27.797190" lon="153.177432">
				<ele>1</ele>
				<time>2015-05-06T22:31:06Z</time>
				<extensions>
				</extensions>
			</trkpt>
			<trkpt lat="-27.797384" lon="153.177437">
				<ele>1</ele>
				<time>2015-05-06T22:31:07Z</time>
				<extensions>
				</extensions>
			</trkpt>
			<trkpt lat="-27.797579" lon="153.177434">
				<ele>-1</ele>
				<time>2015-05-06T22:31:08Z</time>
				<extensions>
				</extensions>
			</trkpt>
			<trkpt lat="-27.797767" lon="153.177411">
				<ele>2</ele>
				<time>2015-05-06T22:31:09Z</time>
				<extensions>
				</extensions>
			</trkpt>
			<trkpt lat="-27.797952" lon="153.177373">
				<ele>2</ele>
				<time>2015-05-06T22:31:10Z</time>
				<extensions>
				</extensions>
			</trkpt>
			<trkpt lat="-27.798139" lon="153.177335">
				<ele>4</ele>
				<time>2015-05-06T22:31:11Z</time>
				<extensions>
				</extensions>
			</trkpt>
			<trkpt lat="-27.798490" lon="153.177223">
				<ele>5</ele>
				<time>2015-05-06T22:31:13Z</time>
				<extensions>
				</extensions>
			</trkpt>
			<trkpt lat="-27.798666" lon="153.177178">
				<ele>6</ele>
				<time>2015-05-06T22:31:14Z</time>
				<extensions>
				</extensions>
			</trkpt>
			<trkpt lat="-27.799010" lon="153.177078">
				<ele>7</ele>
				<time>2015-05-06T22:31:16Z</time>
				<extensions>
				</extensions>
			</trkpt>
			<trkpt lat="-27.799189" lon="153.177032">
				<ele>10</ele>
				<time>2015-05-06T22:31:17Z</time>
				<extensions>
				</extensions>
			</trkpt>
			<trkpt lat="-27.799367" lon="153.176989">
				<ele>12</ele>
				<time>2015-05-06T22:31:18Z</time>
				<extensions>
				</extensions>
			</trkpt>
			<trkpt lat="-27.799552" lon="153.176949">
				<ele>13</ele>
				<time>2015-05-06T22:31:19Z</time>
				<extensions>
				</extensions>
			</trkpt>
			<trkpt lat="-27.799738" lon="153.176909">
				<ele>14</ele>
				<time>2015-05-06T22:31:20Z</time>
				<extensions>
				</extensions>
			</trkpt>
			<trkpt lat="-27.799936" lon="153.176885">
				<ele>16</ele>
				<time>2015-05-06T22:31:21Z</time>
				<extensions>
				</extensions>
			</trkpt>
			<trkpt lat="-27.800134" lon="153.176863">
				<ele>16</ele>
				<time>2015-05-06T22:31:22Z</time>
				<extensions>
				</extensions>
			</trkpt>
			<trkpt lat="-27.800341" lon="153.176847">
				<ele>18</ele>
				<time>2015-05-06T22:31:23Z</time>
				<extensions>
				</extensions>
			</trkpt>
			<trkpt lat="-27.800543" lon="153.176836">
				<ele>19</ele>
				<time>2015-05-06T22:31:24Z</time>
				<extensions>
				</extensions>
			</trkpt>
			<trkpt lat="-27.800749" lon="153.176837">
				<ele>20</ele>
				<time>2015-05-06T22:31:25Z</time>
				<extensions>
				</extensions>
			</trkpt>
			<trkpt lat="-27.800945" lon="153.176845">
				<ele>20</ele>
				<time>2015-05-06T22:31:26Z</time>
				<extensions>
				</extensions>
			</trkpt>
			<trkpt lat="-27.801148" lon="153.176860">
				<ele>18</ele>
				<time>2015-05-06T22:31:27Z</time>
				<extensions>
				</extensions>
			</trkpt>
			<trkpt lat="-27.801338" lon="153.176855">
				<ele>20</ele>
				<time>2015-05-06T22:31:28Z</time>
				<extensions>
				</extensions>
			</trkpt>
			<trkpt lat="-27.801525" lon="153.176877">
				<ele>19</ele>
				<time>2015-05-06T22:31:29Z</time>
				<extensions>
				</extensions>
			</trkpt>
			<trkpt lat="-27.801737" lon="153.176897">
				<ele>19</ele>
				<time>2015-05-06T22:31:30Z</time>
				<extensions>
				</extensions>
			</trkpt>
			<trkpt lat="-27.801927" lon="153.176897">
				<ele>18</ele>
				<time>2015-05-06T22:31:31Z</time>
				<extensions>
				</extensions>
			</trkpt>
			<trkpt lat="-27.802121" lon="153.176920">
				<ele>18</ele>
				<time>2015-05-06T22:31:32Z</time>
				<extensions>
				</extensions>
			</trkpt>
			<trkpt lat="-27.802319" lon="153.176940">
				<ele>18</ele>
				<time>2015-05-06T22:31:33Z</time>
				<extensions>
				</extensions>
			</trkpt>
			<trkpt lat="-27.802516" lon="153.176967">
				<ele>20</ele>
				<time>2015-05-06T22:31:34Z</time>
				<extensions>
				</extensions>
			</trkpt>
			<trkpt lat="-27.802703" lon="153.176993">
				<ele>20</ele>
				<time>2015-05-06T22:31:35Z</time>
				<extensions>
				</extensions>
			</trkpt>
			<trkpt lat="-27.802899" lon="153.177011">
				<ele>23</ele>
				<time>2015-05-06T22:31:36Z</time>
				<extensions>
				</extensions>
			</trkpt>
			<trkpt lat="-27.803093" lon="153.177030">
				<ele>23</ele>
				<time>2015-05-06T22:31:37Z</time>
				<extensions>
				</extensions>
			</trkpt>
			<trkpt lat="-27.803274" lon="153.177053">
				<ele>25</ele>
				<time>2015-05-06T22:31:38Z</time>
				<extensions>
				</extensions>
			</trkpt>
			<trkpt lat="-27.803456" lon="153.177073">
				<ele>25</ele>
				<time>2015-05-06T22:31:39Z</time>
				<extensions>
				</extensions>
			</trkpt>
			<trkpt lat="-27.803637" lon="153.177084">
				<ele>25</ele>
				<time>2015-05-06T22:31:40Z</time>
				<extensions>
				</extensions>
			</trkpt>
			<trkpt lat="-27.803836" lon="153.177111">
				<ele>27</ele>
				<time>2015-05-06T22:31:41Z</time>
				<extensions>
				</extensions>
			</trkpt>
			<trkpt lat="-27.804032" lon="153.177135">
				<ele>28</ele>
				<time>2015-05-06T22:31:42Z</time>
				<extensions>
				</extensions>
			</trkpt>
			<trkpt lat="-27.804223" lon="153.177159">
				<ele>27</ele>
				<time>2015-05-06T22:31:43Z</time>
				<extensions>
				</extensions>
			</trkpt>
			<trkpt lat="-27.804412" lon="153.177179">
				<ele>28</ele>
				<time>2015-05-06T22:31:44Z</time>
				<extensions>
				</extensions>
			</trkpt>
			<trkpt lat="-27.804593" lon="153.177200">
				<ele>27</ele>
				<time>2015-05-06T22:31:45Z</time>
				<extensions>
				</extensions>
			</trkpt>
			<trkpt lat="-27.804778" lon="153.177211">
				<ele>25</ele>
				<time>2015-05-06T22:31:46Z</time>
				<extensions>
				</extensions>
			</trkpt>
			<trkpt lat="-27.804964" lon="153.177241">
				<ele>24</ele>
				<time>2015-05-06T22:31:47Z</time>
				<extensions>
				</extensions>
			</trkpt>
			<trkpt lat="-27.805150" lon="153.177261">
				<ele>22</ele>
				<time>2015-05-06T22:31:48Z</time>
				<extensions>
				</extensions>
			</trkpt>
			<trkpt lat="-27.805514" lon="153.177299">
				<ele>21</ele>
				<time>2015-05-06T22:31:50Z</time>
				<extensions>
				</extensions>
			</trkpt>
			<trkpt lat="-27.805841" lon="153.177291">
				<ele>19</ele>
				<time>2015-05-06T22:31:52Z</time>
				<extensions>
				</extensions>
			</trkpt>
			<trkpt lat="-27.806149" lon="153.177355">
				<ele>19</ele>
				<time>2015-05-06T22:31:54Z</time>
				<extensions>
				</extensions>
			</trkpt>
			<trkpt lat="-27.806464" lon="153.177512">
				<ele>19</ele>
				<time>2015-05-06T22:31:56Z</time>
				<extensions>
				</extensions>
			</trkpt>
			<trkpt lat="-27.806755" lon="153.177751">
				<ele>19</ele>
				<time>2015-05-06T22:31:58Z</time>
				<extensions>
				</extensions>
			</trkpt>
			<trkpt lat="-27.806883" lon="153.177922">
				<ele>19</ele>
				<time>2015-05-06T22:31:59Z</time>
				<extensions>
				</extensions>
			</trkpt>
			<trkpt lat="-27.806998" lon="153.178106">
				<ele>19</ele>
				<time>2015-05-06T22:32:00Z</time>
				<extensions>
				</extensions>
			</trkpt>
			<trkpt lat="-27.807115" lon="153.178288">
				<ele>18</ele>
				<time>2015-05-06T22:32:01Z</time>
				<extensions>
				</extensions>
			</trkpt>
			<trkpt lat="-27.807228" lon="153.178465">
				<ele>17</ele>
				<time>2015-05-06T22:32:02Z</time>
				<extensions>
				</extensions>
			</trkpt>
			<trkpt lat="-27.807345" lon="153.178654">
				<ele>15</ele>
				<time>2015-05-06T22:32:03Z</time>
				<extensions>
				</extensions>
			</trkpt>
			<trkpt lat="-27.807465" lon="153.178856">
				<ele>14</ele>
				<time>2015-05-06T22:32:04Z</time>
				<extensions>
				</extensions>
			</trkpt>
			<trkpt lat="-27.807566" lon="153.179029">
				<ele>12</ele>
				<time>2015-05-06T22:32:05Z</time>
				<extensions>
				</extensions>
			</trkpt>
			<trkpt lat="-27.807755" lon="153.179350">
				<ele>9</ele>
				<time>2015-05-06T22:32:07Z</time>
				<extensions>
				</extensions>
			</trkpt>
			<trkpt lat="-27.807950" lon="153.179669">
				<ele>7</ele>
				<time>2015-05-06T22:32:09Z</time>
				<extensions>
				</extensions>
			</trkpt>
			<trkpt lat="-27.808158" lon="153.180023">
				<ele>7</ele>
				<time>2015-05-06T22:32:11Z</time>
				<extensions>
				</extensions>
			</trkpt>
			<trkpt lat="-27.808343" lon="153.180326">
				<ele>4</ele>
				<time>2015-05-06T22:32:13Z</time>
				<extensions>
				</extensions>
			</trkpt>
			<trkpt lat="-27.808556" lon="153.180583">
				<ele>3</ele>
				<time>2015-05-06T22:32:15Z</time>
				<extensions>
				</extensions>
			</trkpt>
			<trkpt lat="-27.808834" lon="153.180758">
				<ele>2</ele>
				<time>2015-05-06T22:32:17Z</time>
				<extensions>
				</extensions>
			</trkpt>
			<trkpt lat="-27.809163" lon="153.180848">
				<ele>3</ele>
				<time>2015-05-06T22:32:19Z</time>
				<extensions>
				</extensions>
			</trkpt>
			<trkpt lat="-27.809510" lon="153.180873">
				<ele>5</ele>
				<time>2015-05-06T22:32:21Z</time>
				<extensions>
				</extensions>
			</trkpt>
			<trkpt lat="-27.809695" lon="153.180844">
				<ele>5</ele>
				<time>2015-05-06T22:32:22Z</time>
				<extensions>
				</extensions>
			</trkpt>
			<trkpt lat="-27.809871" lon="153.180796">
				<ele>4</ele>
				<time>2015-05-06T22:32:23Z</time>
				<extensions>
				</extensions>
			</trkpt>
			<trkpt lat="-27.810051" lon="153.180752">
				<ele>5</ele>
				<time>2015-05-06T22:32:24Z</time>
				<extensions>
				</extensions>
			</trkpt>
			<trkpt lat="-27.810228" lon="153.180703">
				<ele>6</ele>
				<time>2015-05-06T22:32:25Z</time>
				<extensions>
				</extensions>
			</trkpt>
			<trkpt lat="-27.810407" lon="153.180663">
				<ele>5</ele>
				<time>2015-05-06T22:32:26Z</time>
				<extensions>
				</extensions>
			</trkpt>
			<trkpt lat="-27.810590" lon="153.180637">
				<ele>7</ele>
				<time>2015-05-06T22:32:27Z</time>
				<extensions>
				</extensions>
			</trkpt>
			<trkpt lat="-27.810930" lon="153.180583">
				<ele>10</ele>
				<time>2015-05-06T22:32:29Z</time>
				<extensions>
				</extensions>
			</trkpt>
			<trkpt lat="-27.811280" lon="153.180541">
				<ele>12</ele>
				<time>2015-05-06T22:32:31Z</time>
				<extensions>
				</extensions>
			</trkpt>
			<trkpt lat="-27.811631" lon="153.180494">
				<ele>14</ele>
				<time>2015-05-06T22:32:33Z</time>
				<extensions>
				</extensions>
			</trkpt>
			<trkpt lat="-27.811971" lon="153.180455">
				<ele>14</ele>
				<time>2015-05-06T22:32:35Z</time>
				<extensions>
				</extensions>
			</trkpt>
			<trkpt lat="-27.812320" lon="153.180437">
				<ele>13</ele>
				<time>2015-05-06T22:32:37Z</time>
				<extensions>
				</extensions>
			</trkpt>
			<trkpt lat="-27.812671" lon="153.180435">
				<ele>12</ele>
				<time>2015-05-06T22:32:39Z</time>
				<extensions>
				</extensions>
			</trkpt>
			<trkpt lat="-27.813029" lon="153.180456">
				<ele>11</ele>
				<time>2015-05-06T22:32:41Z</time>
				<extensions>
				</extensions>
			</trkpt>
			<trkpt lat="-27.813368" lon="153.180496">
				<ele>9</ele>
				<time>2015-05-06T22:32:43Z</time>
				<extensions>
				</extensions>
			</trkpt>
			<trkpt lat="-27.813556" lon="153.180525">
				<ele>9</ele>
				<time>2015-05-06T22:32:44Z</time>
				<extensions>
				</extensions>
			</trkpt>
			<trkpt lat="-27.813736" lon="153.180568">
				<ele>9</ele>
				<time>2015-05-06T22:32:45Z</time>
				<extensions>
				</extensions>
			</trkpt>
			<trkpt lat="-27.814086" lon="153.180694">
				<ele>10</ele>
				<time>2015-05-06T22:32:47Z</time>
				<extensions>
				</extensions>
			</trkpt>
			<trkpt lat="-27.814273" lon="153.180782">
				<ele>10</ele>
				<time>2015-05-06T22:32:48Z</time>
				<extensions>
				</extensions>
			</trkpt>
			<trkpt lat="-27.814457" lon="153.180870">
				<ele>12</ele>
				<time>2015-05-06T22:32:49Z</time>
				<extensions>
				</extensions>
			</trkpt>
			<trkpt lat="-27.814663" lon="153.180995">
				<ele>12</ele>
				<time>2015-05-06T22:32:50Z</time>
				<extensions>
				</extensions>
			</trkpt>
			<trkpt lat="-27.814848" lon="153.181107">
				<ele>13</ele>
				<time>2015-05-06T22:32:51Z</time>
				<extensions>
				</extensions>
			</trkpt>
			<trkpt lat="-27.815032" lon="153.181214">
				<ele>11</ele>
				<time>2015-05-06T22:32:52Z</time>
				<extensions>
				</extensions>
			</trkpt>
			<trkpt lat="-27.815212" lon="153.181313">
				<ele>11</ele>
				<time>2015-05-06T22:32:53Z</time>
				<extensions>
				</extensions>
			</trkpt>
			<trkpt lat="-27.815389" lon="153.181433">
				<ele>10</ele>
				<time>2015-05-06T22:32:54Z</time>
				<extensions>
				</extensions>
			</trkpt>
			<trkpt lat="-27.815564" lon="153.181548">
				<ele>10</ele>
				<time>2015-05-06T22:32:55Z</time>
				<extensions>
				</extensions>
			</trkpt>
			<trkpt lat="-27.815853" lon="153.181768">
				<ele>9</ele>
				<time>2015-05-06T22:32:57Z</time>
				<extensions>
				</extensions>
			</trkpt>
			<trkpt lat="-27.816012" lon="153.181891">
				<ele>9</ele>
				<time>2015-05-06T22:32:58Z</time>
				<extensions>
				</extensions>
			</trkpt>
			<trkpt lat="-27.816167" lon="153.182033">
				<ele>11</ele>
				<time>2015-05-06T22:32:59Z</time>
				<extensions>
				</extensions>
			</trkpt>
			<trkpt lat="-27.816325" lon="153.182190">
				<ele>12</ele>
				<time>2015-05-06T22:33:00Z</time>
				<extensions>
				</extensions>
			</trkpt>
			<trkpt lat="-27.816476" lon="153.182337">
				<ele>12</ele>
				<time>2015-05-06T22:33:01Z</time>
				<extensions>
				</extensions>
			</trkpt>
			<trkpt lat="-27.816618" lon="153.182510">
				<ele>12</ele>
				<time>2015-05-06T22:33:02Z</time>
				<extensions>
				</extensions>
			</trkpt>
			<trkpt lat="-27.816744" lon="153.182665">
				<ele>12</ele>
				<time>2015-05-06T22:33:03Z</time>
				<extensions>
				</extensions>
			</trkpt>
			<trkpt lat="-27.816870" lon="153.182812">
				<ele>12</ele>
				<time>2015-05-06T22:33:04Z</time>
				<extensions>
				</extensions>
			</trkpt>
			<trkpt lat="-27.817104" lon="153.183070">
				<ele>10</ele>
				<time>2015-05-06T22:33:06Z</time>
				<extensions>
				</extensions>
			</trkpt>
			<trkpt lat="-27.817356" lon="153.183319">
				<ele>10</ele>
				<time>2015-05-06T22:33:08Z</time>
				<extensions>
				</extensions>
			</trkpt>
			<trkpt lat="-27.817667" lon="153.183516">
				<ele>8</ele>
				<time>2015-05-06T22:33:10Z</time>
				<extensions>
				</extensions>
			</trkpt>
			<trkpt lat="-27.817845" lon="153.183623">
				<ele>8</ele>
				<time>2015-05-06T22:33:11Z</time>
				<extensions>
				</extensions>
			</trkpt>
			<trkpt lat="-27.818036" lon="153.183674">
				<ele>8</ele>
				<time>2015-05-06T22:33:12Z</time>
				<extensions>
				</extensions>
			</trkpt>
			<trkpt lat="-27.818224" lon="153.183700">
				<ele>10</ele>
				<time>2015-05-06T22:33:13Z</time>
				<extensions>
				</extensions>
			</trkpt>
			<trkpt lat="-27.818408" lon="153.183733">
				<ele>11</ele>
				<time>2015-05-06T22:33:14Z</time>
				<extensions>
				</extensions>
			</trkpt>
			<trkpt lat="-27.818750" lon="153.183802">
				<ele>11</ele>
				<time>2015-05-06T22:33:16Z</time>
				<extensions>
				</extensions>
			</trkpt>
			<trkpt lat="-27.819088" lon="153.183838">
				<ele>14</ele>
				<time>2015-05-06T22:33:18Z</time>
				<extensions>
				</extensions>
			</trkpt>
			<trkpt lat="-27.819406" lon="153.183881">
				<ele>13</ele>
				<time>2015-05-06T22:33:20Z</time>
				<extensions>
				</extensions>
			</trkpt>
			<trkpt lat="-27.819734" lon="153.183880">
				<ele>11</ele>
				<time>2015-05-06T22:33:22Z</time>
				<extensions>
				</extensions>
			</trkpt>
			<trkpt lat="-27.820048" lon="153.183830">
				<ele>12</ele>
				<time>2015-05-06T22:33:24Z</time>
				<extensions>
				</extensions>
			</trkpt>
			<trkpt lat="-27.820357" lon="153.183721">
				<ele>12</ele>
				<time>2015-05-06T22:33:26Z</time>
				<extensions>
				</extensions>
			</trkpt>
			<trkpt lat="-27.820538" lon="153.183659">
				<ele>13</ele>
				<time>2015-05-06T22:33:27Z</time>
				<extensions>
				</extensions>
			</trkpt>
			<trkpt lat="-27.820901" lon="153.183583">
				<ele>12</ele>
				<time>2015-05-06T22:33:29Z</time>
				<extensions>
				</extensions>
			</trkpt>
			<trkpt lat="-27.821265" lon="153.183400">
				<ele>11</ele>
				<time>2015-05-06T22:33:31Z</time>
				<extensions>
				</extensions>
			</trkpt>
			<trkpt lat="-27.821469" lon="153.183297">
				<ele>11</ele>
				<time>2015-05-06T22:33:32Z</time>
				<extensions>
				</extensions>
			</trkpt>
			<trkpt lat="-27.821669" lon="153.183226">
				<ele>11</ele>
				<time>2015-05-06T22:33:33Z</time>
				<extensions>
				</extensions>
			</trkpt>
			<trkpt lat="-27.821877" lon="153.183127">
				<ele>11</ele>
				<time>2015-05-06T22:33:34Z</time>
				<extensions>
				</extensions>
			</trkpt>
			<trkpt lat="-27.822084" lon="153.183059">
				<ele>12</ele>
				<time>2015-05-06T22:33:35Z</time>
				<extensions>
				</extensions>
			</trkpt>
			<trkpt lat="-27.822275" lon="153.182977">
				<ele>12</ele>
				<time>2015-05-06T22:33:36Z</time>
				<extensions>
				</extensions>
			</trkpt>
			<trkpt lat="-27.822480" lon="153.182883">
				<ele>13</ele>
				<time>2015-05-06T22:33:37Z</time>
				<extensions>
				</extensions>
			</trkpt>
			<trkpt lat="-27.822666" lon="153.182800">
				<ele>14</ele>
				<time>2015-05-06T22:33:38Z</time>
				<extensions>
				</extensions>
			</trkpt>
			<trkpt lat="-27.822852" lon="153.182738">
				<ele>15</ele>
				<time>2015-05-06T22:33:39Z</time>
				<extensions>
				</extensions>
			</trkpt>
			<trkpt lat="-27.823032" lon="153.182681">
				<ele>13</ele>
				<time>2015-05-06T22:33:40Z</time>
				<extensions>
				</extensions>
			</trkpt>
			<trkpt lat="-27.823366" lon="153.182580">
				<ele>12</ele>
				<time>2015-05-06T22:33:42Z</time>
				<extensions>
				</extensions>
			</trkpt>
			<trkpt lat="-27.823691" lon="153.182521">
				<ele>12</ele>
				<time>2015-05-06T22:33:44Z</time>
				<extensions>
				</extensions>
			</trkpt>
			<trkpt lat="-27.824041" lon="153.182492">
				<ele>14</ele>
				<time>2015-05-06T22:33:46Z</time>
				<extensions>
				</extensions>
			</trkpt>
			<trkpt lat="-27.824365" lon="153.182390">
				<ele>12</ele>
				<time>2015-05-06T22:33:48Z</time>
				<extensions>
				</extensions>
			</trkpt>
			<trkpt lat="-27.824538" lon="153.182331">
				<ele>11</ele>
				<time>2015-05-06T22:33:49Z</time>
				<extensions>
				</extensions>
			</trkpt>
			<trkpt lat="-27.824709" lon="153.182257">
				<ele>11</ele>
				<time>2015-05-06T22:33:50Z</time>
				<extensions>
				</extensions>
			</trkpt>
			<trkpt lat="-27.825027" lon="153.182084">
				<ele>10</ele>
				<time>2015-05-06T22:33:52Z</time>
				<extensions>
				</extensions>
			</trkpt>
			<trkpt lat="-27.825298" lon="153.181898">
				<ele>9</ele>
				<time>2015-05-06T22:33:54Z</time>
				<extensions>
				</extensions>
			</trkpt>
			<trkpt lat="-27.825545" lon="153.181711">
				<ele>6</ele>
				<time>2015-05-06T22:33:56Z</time>
				<extensions>
				</extensions>
			</trkpt>
			<trkpt lat="-27.825783" lon="153.181445">
				<ele>9</ele>
				<time>2015-05-06T22:33:58Z</time>
				<extensions>
				</extensions>
			</trkpt>
			<trkpt lat="-27.825996" lon="153.181178">
				<ele>7</ele>
				<time>2015-05-06T22:34:00Z</time>
				<extensions>
				</extensions>
			</trkpt>
			<trkpt lat="-27.826227" lon="153.180942">
				<ele>8</ele>
				<time>2015-05-06T22:34:02Z</time>
				<extensions>
				</extensions>
			</trkpt>
			<trkpt lat="-27.826469" lon="153.180702">
				<ele>9</ele>
				<time>2015-05-06T22:34:04Z</time>
				<extensions>
				</extensions>
			</trkpt>
			<trkpt lat="-27.826745" lon="153.180499">
				<ele>11</ele>
				<time>2015-05-06T22:34:06Z</time>
				<extensions>
				</extensions>
			</trkpt>
			<trkpt lat="-27.827024" lon="153.180313">
				<ele>12</ele>
				<time>2015-05-06T22:34:08Z</time>
				<extensions>
				</extensions>
			</trkpt>
			<trkpt lat="-27.827328" lon="153.180134">
				<ele>16</ele>
				<time>2015-05-06T22:34:10Z</time>
				<extensions>
				</extensions>
			</trkpt>
			<trkpt lat="-27.827693" lon="153.179963">
				<ele>23</ele>
				<time>2015-05-06T22:34:12Z</time>
				<extensions>
				</extensions>
			</trkpt>
			<trkpt lat="-27.827875" lon="153.179878">
				<ele>27</ele>
				<time>2015-05-06T22:34:13Z</time>
				<extensions>
				</extensions>
			</trkpt>
			<trkpt lat="-27.828087" lon="153.179811">
				<ele>30</ele>
				<time>2015-05-06T22:34:14Z</time>
				<extensions>
				</extensions>
			</trkpt>
			<trkpt lat="-27.828317" lon="153.179768">
				<ele>34</ele>
				<time>2015-05-06T22:34:15Z</time>
				<extensions>
				</extensions>
			</trkpt>
			<trkpt lat="-27.828573" lon="153.179744">
				<ele>37</ele>
				<time>2015-05-06T22:34:16Z</time>
				<extensions>
				</extensions>
			</trkpt>
			<trkpt lat="-27.828815" lon="153.179770">
				<ele>38</ele>
				<time>2015-05-06T22:34:17Z</time>
				<extensions>
				</extensions>
			</trkpt>
			<trkpt lat="-27.829039" lon="153.179800">
				<ele>36</ele>
				<time>2015-05-06T22:34:18Z</time>
				<extensions>
				</extensions>
			</trkpt>
			<trkpt lat="-27.829247" lon="153.179841">
				<ele>35</ele>
				<time>2015-05-06T22:34:19Z</time>
				<extensions>
				</extensions>
			</trkpt>
			<trkpt lat="-27.829447" lon="153.179875">
				<ele>35</ele>
				<time>2015-05-06T22:34:20Z</time>
				<extensions>
				</extensions>
			</trkpt>
			<trkpt lat="-27.829796" lon="153.179966">
				<ele>36</ele>
				<time>2015-05-06T22:34:22Z</time>
				<extensions>
				</extensions>
			</trkpt>
			<trkpt lat="-27.829988" lon="153.180004">
				<ele>38</ele>
				<time>2015-05-06T22:34:23Z</time>
				<extensions>
				</extensions>
			</trkpt>
			<trkpt lat="-27.830186" lon="153.180038">
				<ele>40</ele>
				<time>2015-05-06T22:34:24Z</time>
				<extensions>
				</extensions>
			</trkpt>
			<trkpt lat="-27.830384" lon="153.180063">
				<ele>39</ele>
				<time>2015-05-06T22:34:25Z</time>
				<extensions>
				</extensions>
			</trkpt>
			<trkpt lat="-27.830583" lon="153.180098">
				<ele>40</ele>
				<time>2015-05-06T22:34:26Z</time>
				<extensions>
				</extensions>
			</trkpt>
			<trkpt lat="-27.830771" lon="153.180099">
				<ele>41</ele>
				<time>2015-05-06T22:34:27Z</time>
				<extensions>
				</extensions>
			</trkpt>
			<trkpt lat="-27.830959" lon="153.180097">
				<ele>41</ele>
				<time>2015-05-06T22:34:28Z</time>
				<extensions>
				</extensions>
			</trkpt>
			<trkpt lat="-27.831153" lon="153.180091">
				<ele>45</ele>
				<time>2015-05-06T22:34:29Z</time>
				<extensions>
				</extensions>
			</trkpt>
			<trkpt lat="-27.831348" lon="153.180083">
				<ele>46</ele>
				<time>2015-05-06T22:34:30Z</time>
				<extensions>
				</extensions>
			</trkpt>
			<trkpt lat="-27.831533" lon="153.180063">
				<ele>45</ele>
				<time>2015-05-06T22:34:31Z</time>
				<extensions>
				</extensions>
			</trkpt>
			<trkpt lat="-27.831724" lon="153.180046">
				<ele>47</ele>
				<time>2015-05-06T22:34:32Z</time>
				<extensions>
				</extensions>
			</trkpt>
			<trkpt lat="-27.831906" lon="153.180005">
				<ele>47</ele>
				<time>2015-05-06T22:34:33Z</time>
				<extensions>
				</extensions>
			</trkpt>
			<trkpt lat="-27.832087" lon="153.179971">
				<ele>47</ele>
				<time>2015-05-06T22:34:34Z</time>
				<extensions>
				</extensions>
			</trkpt>
			<trkpt lat="-27.832269" lon="153.179928">
				<ele>48</ele>
				<time>2015-05-06T22:34:35Z</time>
				<extensions>
				</extensions>
			</trkpt>
			<trkpt lat="-27.832455" lon="153.179892">
				<ele>49</ele>
				<time>2015-05-06T22:34:36Z</time>
				<extensions>
				</extensions>
			</trkpt>
			<trkpt lat="-27.832642" lon="153.179853">
				<ele>48</ele>
				<time>2015-05-06T22:34:37Z</time>
				<extensions>
				</extensions>
			</trkpt>
			<trkpt lat="-27.832826" lon="153.179811">
				<ele>47</ele>
				<time>2015-05-06T22:34:38Z</time>
				<extensions>
				</extensions>
			</trkpt>
			<trkpt lat="-27.833003" lon="153.179767">
				<ele>47</ele>
				<time>2015-05-06T22:34:39Z</time>
				<extensions>
				</extensions>
			</trkpt>
			<trkpt lat="-27.833180" lon="153.179722">
				<ele>45</ele>
				<time>2015-05-06T22:34:40Z</time>
				<extensions>
				</extensions>
			</trkpt>
			<trkpt lat="-27.833517" lon="153.179643">
				<ele>43</ele>
				<time>2015-05-06T22:34:42Z</time>
				<extensions>
				</extensions>
			</trkpt>
			<trkpt lat="-27.833701" lon="153.179595">
				<ele>41</ele>
				<time>2015-05-06T22:34:43Z</time>
				<extensions>
				</extensions>
			</trkpt>
			<trkpt lat="-27.834048" lon="153.179497">
				<ele>38</ele>
				<time>2015-05-06T22:34:45Z</time>
				<extensions>
				</extensions>
			</trkpt>
			<trkpt lat="-27.834226" lon="153.179446">
				<ele>36</ele>
				<time>2015-05-06T22:34:46Z</time>
				<extensions>
				</extensions>
			</trkpt>
			<trkpt lat="-27.834573" lon="153.179354">
				<ele>34</ele>
				<time>2015-05-06T22:34:48Z</time>
				<extensions>
				</extensions>
			</trkpt>
			<trkpt lat="-27.834757" lon="153.179299">
				<ele>33</ele>
				<time>2015-05-06T22:34:49Z</time>
				<extensions>
				</extensions>
			</trkpt>
			<trkpt lat="-27.834936" lon="153.179244">
				<ele>31</ele>
				<time>2015-05-06T22:34:50Z</time>
				<extensions>
				</extensions>
			</trkpt>
			<trkpt lat="-27.835122" lon="153.179199">
				<ele>31</ele>
				<time>2015-05-06T22:34:51Z</time>
				<extensions>
				</extensions>
			</trkpt>
			<trkpt lat="-27.835308" lon="153.179159">
				<ele>30</ele>
				<time>2015-05-06T22:34:52Z</time>
				<extensions>
				</extensions>
			</trkpt>
			<trkpt lat="-27.835510" lon="153.179125">
				<ele>27</ele>
				<time>2015-05-06T22:34:53Z</time>
				<extensions>
				</extensions>
			</trkpt>
			<trkpt lat="-27.835708" lon="153.179096">
				<ele>27</ele>
				<time>2015-05-06T22:34:54Z</time>
				<extensions>
				</extensions>
			</trkpt>
			<trkpt lat="-27.835894" lon="153.179068">
				<ele>27</ele>
				<time>2015-05-06T22:34:55Z</time>
				<extensions>
				</extensions>
			</trkpt>
			<trkpt lat="-27.836079" lon="153.179062">
				<ele>26</ele>
				<time>2015-05-06T22:34:56Z</time>
				<extensions>
				</extensions>
			</trkpt>
			<trkpt lat="-27.836264" lon="153.179062">
				<ele>26</ele>
				<time>2015-05-06T22:34:57Z</time>
				<extensions>
				</extensions>
			</trkpt>
			<trkpt lat="-27.836452" lon="153.179083">
				<ele>25</ele>
				<time>2015-05-06T22:34:58Z</time>
				<extensions>
				</extensions>
			</trkpt>
			<trkpt lat="-27.836641" lon="153.179110">
				<ele>24</ele>
				<time>2015-05-06T22:34:59Z</time>
				<extensions>
				</extensions>
			</trkpt>
			<trkpt lat="-27.836824" lon="153.179147">
				<ele>25</ele>
				<time>2015-05-06T22:35:00Z</time>
				<extensions>
				</extensions>
			</trkpt>
			<trkpt lat="-27.836997" lon="153.179217">
				<ele>23</ele>
				<time>2015-05-06T22:35:01Z</time>
				<extensions>
				</extensions>
			</trkpt>
			<trkpt lat="-27.837344" lon="153.179343">
				<ele>21</ele>
				<time>2015-05-06T22:35:03Z</time>
				<extensions>
				</extensions>
			</trkpt>
			<trkpt lat="-27.837521" lon="153.179400">
				<ele>22</ele>
				<time>2015-05-06T22:35:04Z</time>
				<extensions>
				</extensions>
			</trkpt>
			<trkpt lat="-27.837697" lon="153.179449">
				<ele>20</ele>
				<time>2015-05-06T22:35:05Z</time>
				<extensions>
				</extensions>
			</trkpt>
			<trkpt lat="-27.837880" lon="153.179511">
				<ele>19</ele>
				<time>2015-05-06T22:35:06Z</time>
				<extensions>
				</extensions>
			</trkpt>
			<trkpt lat="-27.838065" lon="153.179543">
				<ele>18</ele>
				<time>2015-05-06T22:35:07Z</time>
				<extensions>
				</extensions>
			</trkpt>
			<trkpt lat="-27.838253" lon="153.179573">
				<ele>17</ele>
				<time>2015-05-06T22:35:08Z</time>
				<extensions>
				</extensions>
			</trkpt>
			<trkpt lat="-27.838453" lon="153.179583">
				<ele>16</ele>
				<time>2015-05-06T22:35:09Z</time>
				<extensions>
				</extensions>
			</trkpt>
			<trkpt lat="-27.838652" lon="153.179586">
				<ele>16</ele>
				<time>2015-05-06T22:35:10Z</time>
				<extensions>
				</extensions>
			</trkpt>
			<trkpt lat="-27.838841" lon="153.179554">
				<ele>16</ele>
				<time>2015-05-06T22:35:11Z</time>
				<extensions>
				</extensions>
			</trkpt>
			<trkpt lat="-27.839026" lon="153.179518">
				<ele>16</ele>
				<time>2015-05-06T22:35:12Z</time>
				<extensions>
				</extensions>
			</trkpt>
			<trkpt lat="-27.839221" lon="153.179474">
				<ele>15</ele>
				<time>2015-05-06T22:35:13Z</time>
				<extensions>
				</extensions>
			</trkpt>
			<trkpt lat="-27.839412" lon="153.179423">
				<ele>16</ele>
				<time>2015-05-06T22:35:14Z</time>
				<extensions>
				</extensions>
			</trkpt>
			<trkpt lat="-27.839607" lon="153.179367">
				<ele>14</ele>
				<time>2015-05-06T22:35:15Z</time>
				<extensions>
				</extensions>
			</trkpt>
			<trkpt lat="-27.839808" lon="153.179304">
				<ele>14</ele>
				<time>2015-05-06T22:35:16Z</time>
				<extensions>
				</extensions>
			</trkpt>
			<trkpt lat="-27.840003" lon="153.179249">
				<ele>13</ele>
				<time>2015-05-06T22:35:17Z</time>
				<extensions>
				</extensions>
			</trkpt>
			<trkpt lat="-27.840196" lon="153.179195">
				<ele>13</ele>
				<time>2015-05-06T22:35:18Z</time>
				<extensions>
				</extensions>
			</trkpt>
			<trkpt lat="-27.840392" lon="153.179131">
				<ele>13</ele>
				<time>2015-05-06T22:35:19Z</time>
				<extensions>
				</extensions>
			</trkpt>
			<trkpt lat="-27.840595" lon="153.179078">
				<ele>13</ele>
				<time>2015-05-06T22:35:20Z</time>
				<extensions>
				</extensions>
			</trkpt>
			<trkpt lat="-27.840800" lon="153.179000">
				<ele>13</ele>
				<time>2015-05-06T22:35:21Z</time>
				<extensions>
				</extensions>
			</trkpt>
			<trkpt lat="-27.840996" lon="153.178929">
				<ele>13</ele>
				<time>2015-05-06T22:35:22Z</time>
				<extensions>
				</extensions>
			</trkpt>
			<trkpt lat="-27.841197" lon="153.178874">
				<ele>13</ele>
				<time>2015-05-06T22:35:23Z</time>
				<extensions>
				</extensions>
			</trkpt>
			<trkpt lat="-27.841390" lon="153.178813">
				<ele>12</ele>
				<time>2015-05-06T22:35:24Z</time>
				<extensions>
				</extensions>
			</trkpt>
			<trkpt lat="-27.841586" lon="153.178746">
				<ele>12</ele>
				<time>2015-05-06T22:35:25Z</time>
				<extensions>
				</extensions>
			</trkpt>
			<trkpt lat="-27.841780" lon="153.178686">
				<ele>12</ele>
				<time>2015-05-06T22:35:26Z</time>
				<extensions>
				</extensions>
			</trkpt>
			<trkpt lat="-27.841973" lon="153.178626">
				<ele>12</ele>
				<time>2015-05-06T22:35:27Z</time>
				<extensions>
				</extensions>
			</trkpt>
			<trkpt lat="-27.842161" lon="153.178547">
				<ele>11</ele>
				<time>2015-05-06T22:35:28Z</time>
				<extensions>
				</extensions>
			</trkpt>
			<trkpt lat="-27.842348" lon="153.178483">
				<ele>12</ele>
				<time>2015-05-06T22:35:29Z</time>
				<extensions>
				</extensions>
			</trkpt>
			<trkpt lat="-27.842532" lon="153.178413">
				<ele>12</ele>
				<time>2015-05-06T22:35:30Z</time>
				<extensions>
				</extensions>
			</trkpt>
			<trkpt lat="-27.842716" lon="153.178316">
				<ele>11</ele>
				<time>2015-05-06T22:35:31Z</time>
				<extensions>
				</extensions>
			</trkpt>
			<trkpt lat="-27.842887" lon="153.178200">
				<ele>11</ele>
				<time>2015-05-06T22:35:32Z</time>
				<extensions>
				</extensions>
			</trkpt>
			<trkpt lat="-27.843057" lon="153.178075">
				<ele>12</ele>
				<time>2015-05-06T22:35:33Z</time>
				<extensions>
				</extensions>
			</trkpt>
			<trkpt lat="-27.843207" lon="153.177944">
				<ele>13</ele>
				<time>2015-05-06T22:35:34Z</time>
				<extensions>
				</extensions>
			</trkpt>
			<trkpt lat="-27.843352" lon="153.177796">
				<ele>14</ele>
				<time>2015-05-06T22:35:35Z</time>
				<extensions>
				</extensions>
			</trkpt>
			<trkpt lat="-27.843498" lon="153.177653">
				<ele>14</ele>
				<time>2015-05-06T22:35:36Z</time>
				<extensions>
				</extensions>
			</trkpt>
			<trkpt lat="-27.843628" lon="153.177492">
				<ele>15</ele>
				<time>2015-05-06T22:35:37Z</time>
				<extensions>
				</extensions>
			</trkpt>
			<trkpt lat="-27.843736" lon="153.177316">
				<ele>15</ele>
				<time>2015-05-06T22:35:38Z</time>
				<extensions>
				</extensions>
			</trkpt>
			<trkpt lat="-27.843854" lon="153.177138">
				<ele>16</ele>
				<time>2015-05-06T22:35:39Z</time>
				<extensions>
				</extensions>
			</trkpt>
			<trkpt lat="-27.844063" lon="153.176807">
				<ele>16</ele>
				<time>2015-05-06T22:35:41Z</time>
				<extensions>
				</extensions>
			</trkpt>
			<trkpt lat="-27.844173" lon="153.176645">
				<ele>16</ele>
				<time>2015-05-06T22:35:42Z</time>
				<extensions>
				</extensions>
			</trkpt>
			<trkpt lat="-27.844298" lon="153.176491">
				<ele>17</ele>
				<time>2015-05-06T22:35:43Z</time>
				<extensions>
				</extensions>
			</trkpt>
			<trkpt lat="-27.844421" lon="153.176336">
				<ele>19</ele>
				<time>2015-05-06T22:35:44Z</time>
				<extensions>
				</extensions>
			</trkpt>
			<trkpt lat="-27.844548" lon="153.176189">
				<ele>22</ele>
				<time>2015-05-06T22:35:45Z</time>
				<extensions>
				</extensions>
			</trkpt>
			<trkpt lat="-27.844684" lon="153.176041">
				<ele>22</ele>
				<time>2015-05-06T22:35:46Z</time>
				<extensions>
				</extensions>
			</trkpt>
			<trkpt lat="-27.844828" lon="153.175903">
				<ele>24</ele>
				<time>2015-05-06T22:35:47Z</time>
				<extensions>
				</extensions>
			</trkpt>
			<trkpt lat="-27.844981" lon="153.175771">
				<ele>25</ele>
				<time>2015-05-06T22:35:48Z</time>
				<extensions>
				</extensions>
			</trkpt>
			<trkpt lat="-27.845139" lon="153.175650">
				<ele>25</ele>
				<time>2015-05-06T22:35:49Z</time>
				<extensions>
				</extensions>
			</trkpt>
			<trkpt lat="-27.845304" lon="153.175536">
				<ele>27</ele>
				<time>2015-05-06T22:35:50Z</time>
				<extensions>
				</extensions>
			</trkpt>
			<trkpt lat="-27.845470" lon="153.175426">
				<ele>28</ele>
				<time>2015-05-06T22:35:51Z</time>
				<extensions>
				</extensions>
			</trkpt>
			<trkpt lat="-27.845652" lon="153.175325">
				<ele>30</ele>
				<time>2015-05-06T22:35:52Z</time>
				<extensions>
				</extensions>
			</trkpt>
			<trkpt lat="-27.845831" lon="153.175242">
				<ele>31</ele>
				<time>2015-05-06T22:35:53Z</time>
				<extensions>
				</extensions>
			</trkpt>
			<trkpt lat="-27.846015" lon="153.175163">
				<ele>31</ele>
				<time>2015-05-06T22:35:54Z</time>
				<extensions>
				</extensions>
			</trkpt>
			<trkpt lat="-27.846203" lon="153.175083">
				<ele>31</ele>
				<time>2015-05-06T22:35:55Z</time>
				<extensions>
				</extensions>
			</trkpt>
			<trkpt lat="-27.846394" lon="153.175024">
				<ele>32</ele>
				<time>2015-05-06T22:35:56Z</time>
				<extensions>
				</extensions>
			</trkpt>
			<trkpt lat="-27.846587" lon="153.174950">
				<ele>32</ele>
				<time>2015-05-06T22:35:57Z</time>
				<extensions>
				</extensions>
			</trkpt>
			<trkpt lat="-27.846775" lon="153.174889">
				<ele>33</ele>
				<time>2015-05-06T22:35:58Z</time>
				<extensions>
				</extensions>
			</trkpt>
			<trkpt lat="-27.846952" lon="153.174825">
				<ele>34</ele>
				<time>2015-05-06T22:35:59Z</time>
				<extensions>
				</extensions>
			</trkpt>
			<trkpt lat="-27.847146" lon="153.174756">
				<ele>36</ele>
				<time>2015-05-06T22:36:00Z</time>
				<extensions>
				</extensions>
			</trkpt>
			<trkpt lat="-27.847333" lon="153.174699">
				<ele>36</ele>
				<time>2015-05-06T22:36:01Z</time>
				<extensions>
				</extensions>
			</trkpt>
			<trkpt lat="-27.847527" lon="153.174638">
				<ele>35</ele>
				<time>2015-05-06T22:36:02Z</time>
				<extensions>
				</extensions>
			</trkpt>
			<trkpt lat="-27.847724" lon="153.174599">
				<ele>37</ele>
				<time>2015-05-06T22:36:03Z</time>
				<extensions>
				</extensions>
			</trkpt>
			<trkpt lat="-27.847918" lon="153.174557">
				<ele>37</ele>
				<time>2015-05-06T22:36:04Z</time>
				<extensions>
				</extensions>
			</trkpt>
			<trkpt lat="-27.848102" lon="153.174495">
				<ele>35</ele>
				<time>2015-05-06T22:36:05Z</time>
				<extensions>
				</extensions>
			</trkpt>
			<trkpt lat="-27.848283" lon="153.174434">
				<ele>35</ele>
				<time>2015-05-06T22:36:06Z</time>
				<extensions>
				</extensions>
			</trkpt>
			<trkpt lat="-27.848464" lon="153.174370">
				<ele>34</ele>
				<time>2015-05-06T22:36:07Z</time>
				<extensions>
				</extensions>
			</trkpt>
			<trkpt lat="-27.848640" lon="153.174312">
				<ele>36</ele>
				<time>2015-05-06T22:36:08Z</time>
				<extensions>
				</extensions>
			</trkpt>
			<trkpt lat="-27.848824" lon="153.174270">
				<ele>37</ele>
				<time>2015-05-06T22:36:09Z</time>
				<extensions>
				</extensions>
			</trkpt>
			<trkpt lat="-27.849004" lon="153.174207">
				<ele>39</ele>
				<time>2015-05-06T22:36:10Z</time>
				<extensions>
				</extensions>
			</trkpt>
			<trkpt lat="-27.849187" lon="153.174146">
				<ele>38</ele>
				<time>2015-05-06T22:36:11Z</time>
				<extensions>
				</extensions>
			</trkpt>
			<trkpt lat="-27.849547" lon="153.174030">
				<ele>38</ele>
				<time>2015-05-06T22:36:13Z</time>
				<extensions>
				</extensions>
			</trkpt>
			<trkpt lat="-27.849743" lon="153.173961">
				<ele>38</ele>
				<time>2015-05-06T22:36:14Z</time>
				<extensions>
				</extensions>
			</trkpt>
			<trkpt lat="-27.849933" lon="153.173906">
				<ele>36</ele>
				<time>2015-05-06T22:36:15Z</time>
				<extensions>
				</extensions>
			</trkpt>
			<trkpt lat="-27.850128" lon="153.173856">
				<ele>35</ele>
				<time>2015-05-06T22:36:16Z</time>
				<extensions>
				</extensions>
			</trkpt>
			<trkpt lat="-27.850329" lon="153.173804">
				<ele>33</ele>
				<time>2015-05-06T22:36:17Z</time>
				<extensions>
				</extensions>
			</trkpt>
			<trkpt lat="-27.850534" lon="153.173748">
				<ele>31</ele>
				<time>2015-05-06T22:36:18Z</time>
				<extensions>
				</extensions>
			</trkpt>
			<trkpt lat="-27.850741" lon="153.173704">
				<ele>30</ele>
				<time>2015-05-06T22:36:19Z</time>
				<extensions>
				</extensions>
			</trkpt>
			<trkpt lat="-27.850936" lon="153.173643">
				<ele>27</ele>
				<time>2015-05-06T22:36:20Z</time>
				<extensions>
				</extensions>
			</trkpt>
			<trkpt lat="-27.851128" lon="153.173584">
				<ele>25</ele>
				<time>2015-05-06T22:36:21Z</time>
				<extensions>
				</extensions>
			</trkpt>
			<trkpt lat="-27.851338" lon="153.173499">
				<ele>23</ele>
				<time>2015-05-06T22:36:22Z</time>
				<extensions>
				</extensions>
			</trkpt>
			<trkpt lat="-27.851517" lon="153.173388">
				<ele>22</ele>
				<time>2015-05-06T22:36:23Z</time>
				<extensions>
				</extensions>
			</trkpt>
			<trkpt lat="-27.851694" lon="153.173261">
				<ele>23</ele>
				<time>2015-05-06T22:36:24Z</time>
				<extensions>
				</extensions>
			</trkpt>
			<trkpt lat="-27.851859" lon="153.173122">
				<ele>23</ele>
				<time>2015-05-06T22:36:25Z</time>
				<extensions>
				</extensions>
			</trkpt>
			<trkpt lat="-27.852030" lon="153.172987">
				<ele>25</ele>
				<time>2015-05-06T22:36:26Z</time>
				<extensions>
				</extensions>
			</trkpt>
			<trkpt lat="-27.852178" lon="153.172823">
				<ele>29</ele>
				<time>2015-05-06T22:36:27Z</time>
				<extensions>
				</extensions>
			</trkpt>
			<trkpt lat="-27.852351" lon="153.172683">
				<ele>29</ele>
				<time>2015-05-06T22:36:28Z</time>
				<extensions>
				</extensions>
			</trkpt>
			<trkpt lat="-27.852517" lon="153.172536">
				<ele>31</ele>
				<time>2015-05-06T22:36:29Z</time>
				<extensions>
				</extensions>
			</trkpt>
			<trkpt lat="-27.852682" lon="153.172386">
				<ele>32</ele>
				<time>2015-05-06T22:36:30Z</time>
				<extensions>
				</extensions>
			</trkpt>
			<trkpt lat="-27.852854" lon="153.172228">
				<ele>33</ele>
				<time>2015-05-06T22:36:31Z</time>
				<extensions>
				</extensions>
			</trkpt>
			<trkpt lat="-27.853031" lon="153.172068">
				<ele>36</ele>
				<time>2015-05-06T22:36:32Z</time>
				<extensions>
				</extensions>
			</trkpt>
			<trkpt lat="-27.853217" lon="153.171908">
				<ele>38</ele>
				<time>2015-05-06T22:36:33Z</time>
				<extensions>
				</extensions>
			</trkpt>
			<trkpt lat="-27.853388" lon="153.171733">
				<ele>40</ele>
				<time>2015-05-06T22:36:34Z</time>
				<extensions>
				</extensions>
			</trkpt>
			<trkpt lat="-27.853569" lon="153.171568">
				<ele>39</ele>
				<time>2015-05-06T22:36:35Z</time>
				<extensions>
				</extensions>
			</trkpt>
			<trkpt lat="-27.853734" lon="153.171406">
				<ele>38</ele>
				<time>2015-05-06T22:36:36Z</time>
				<extensions>
				</extensions>
			</trkpt>
			<trkpt lat="-27.853904" lon="153.171248">
				<ele>38</ele>
				<time>2015-05-06T22:36:37Z</time>
				<extensions>
				</extensions>
			</trkpt>
			<trkpt lat="-27.854065" lon="153.171088">
				<ele>39</ele>
				<time>2015-05-06T22:36:38Z</time>
				<extensions>
				</extensions>
			</trkpt>
			<trkpt lat="-27.854235" lon="153.170929">
				<ele>39</ele>
				<time>2015-05-06T22:36:39Z</time>
				<extensions>
				</extensions>
			</trkpt>
			<trkpt lat="-27.854410" lon="153.170779">
				<ele>40</ele>
				<time>2015-05-06T22:36:40Z</time>
				<extensions>
				</extensions>
			</trkpt>
			<trkpt lat="-27.854581" lon="153.170621">
				<ele>40</ele>
				<time>2015-05-06T22:36:41Z</time>
				<extensions>
				</extensions>
			</trkpt>
			<trkpt lat="-27.854766" lon="153.170461">
				<ele>41</ele>
				<time>2015-05-06T22:36:42Z</time>
				<extensions>
				</extensions>
			</trkpt>
			<trkpt lat="-27.854945" lon="153.170297">
				<ele>41</ele>
				<time>2015-05-06T22:36:43Z</time>
				<extensions>
				</extensions>
			</trkpt>
			<trkpt lat="-27.855125" lon="153.170139">
				<ele>40</ele>
				<time>2015-05-06T22:36:44Z</time>
				<extensions>
				</extensions>
			</trkpt>
			<trkpt lat="-27.855304" lon="153.169977">
				<ele>40</ele>
				<time>2015-05-06T22:36:45Z</time>
				<extensions>
				</extensions>
			</trkpt>
			<trkpt lat="-27.855475" lon="153.169811">
				<ele>39</ele>
				<time>2015-05-06T22:36:46Z</time>
				<extensions>
				</extensions>
			</trkpt>
			<trkpt lat="-27.855606" lon="153.169628">
				<ele>39</ele>
				<time>2015-05-06T22:36:47Z</time>
				<extensions>
				</extensions>
			</trkpt>
			<trkpt lat="-27.855756" lon="153.169440">
				<ele>39</ele>
				<time>2015-05-06T22:36:48Z</time>
				<extensions>
				</extensions>
			</trkpt>
			<trkpt lat="-27.855895" lon="153.169241">
				<ele>38</ele>
				<time>2015-05-06T22:36:49Z</time>
				<extensions>
				</extensions>
			</trkpt>
			<trkpt lat="-27.856030" lon="153.169038">
				<ele>39</ele>
				<time>2015-05-06T22:36:50Z</time>
				<extensions>
				</extensions>
			</trkpt>
			<trkpt lat="-27.856142" lon="153.168829">
				<ele>38</ele>
				<time>2015-05-06T22:36:51Z</time>
				<extensions>
				</extensions>
			</trkpt>
			<trkpt lat="-27.856259" lon="153.168623">
				<ele>37</ele>
				<time>2015-05-06T22:36:52Z</time>
				<extensions>
				</extensions>
			</trkpt>
			<trkpt lat="-27.856354" lon="153.168404">
				<ele>37</ele>
				<time>2015-05-06T22:36:53Z</time>
				<extensions>
				</extensions>
			</trkpt>
			<trkpt lat="-27.856395" lon="153.168183">
				<ele>36</ele>
				<time>2015-05-06T22:36:54Z</time>
				<extensions>
				</extensions>
			</trkpt>
			<trkpt lat="-27.856491" lon="153.167987">
				<ele>34</ele>
				<time>2015-05-06T22:36:55Z</time>
				<extensions>
				</extensions>
			</trkpt>
			<trkpt lat="-27.856583" lon="153.167779">
				<ele>32</ele>
				<time>2015-05-06T22:36:56Z</time>
				<extensions>
				</extensions>
			</trkpt>
			<trkpt lat="-27.856654" lon="153.167567">
				<ele>30</ele>
				<time>2015-05-06T22:36:57Z</time>
				<extensions>
				</extensions>
			</trkpt>
			<trkpt lat="-27.856739" lon="153.167381">
				<ele>28</ele>
				<time>2015-05-06T22:36:58Z</time>
				<extensions>
				</extensions>
			</trkpt>
			<trkpt lat="-27.856798" lon="153.167154">
				<ele>26</ele>
				<time>2015-05-06T22:36:59Z</time>
				<extensions>
				</extensions>
			</trkpt>
			<trkpt lat="-27.856886" lon="153.166941">
				<ele>25</ele>
				<time>2015-05-06T22:37:00Z</time>
				<extensions>
				</extensions>
			</trkpt>
			<trkpt lat="-27.856978" lon="153.166720">
				<ele>22</ele>
				<time>2015-05-06T22:37:01Z</time>
				<extensions>
				</extensions>
			</trkpt>
			<trkpt lat="-27.857060" lon="153.166504">
				<ele>22</ele>
				<time>2015-05-06T22:37:02Z</time>
				<extensions>
				</extensions>
			</trkpt>
			<trkpt lat="-27.857147" lon="153.166290">
				<ele>20</ele>
				<time>2015-05-06T22:37:03Z</time>
				<extensions>
				</extensions>
			</trkpt>
			<trkpt lat="-27.857237" lon="153.166074">
				<ele>21</ele>
				<time>2015-05-06T22:37:04Z</time>
				<extensions>
				</extensions>
			</trkpt>
			<trkpt lat="-27.857339" lon="153.165873">
				<ele>21</ele>
				<time>2015-05-06T22:37:05Z</time>
				<extensions>
				</extensions>
			</trkpt>
			<trkpt lat="-27.857436" lon="153.165665">
				<ele>20</ele>
				<time>2015-05-06T22:37:06Z</time>
				<extensions>
				</extensions>
			</trkpt>
			<trkpt lat="-27.857531" lon="153.165451">
				<ele>19</ele>
				<time>2015-05-06T22:37:07Z</time>
				<extensions>
				</extensions>
			</trkpt>
			<trkpt lat="-27.857644" lon="153.165245">
				<ele>20</ele>
				<time>2015-05-06T22:37:08Z</time>
				<extensions>
				</extensions>
			</trkpt>
			<trkpt lat="-27.857751" lon="153.165036">
				<ele>21</ele>
				<time>2015-05-06T22:37:09Z</time>
				<extensions>
				</extensions>
			</trkpt>
			<trkpt lat="-27.857865" lon="153.164850">
				<ele>22</ele>
				<time>2015-05-06T22:37:10Z</time>
				<extensions>
				</extensions>
			</trkpt>
			<trkpt lat="-27.857978" lon="153.164657">
				<ele>22</ele>
				<time>2015-05-06T22:37:11Z</time>
				<extensions>
				</extensions>
			</trkpt>
			<trkpt lat="-27.858110" lon="153.164473">
				<ele>24</ele>
				<time>2015-05-06T22:37:12Z</time>
				<extensions>
				</extensions>
			</trkpt>
			<trkpt lat="-27.858253" lon="153.164301">
				<ele>24</ele>
				<time>2015-05-06T22:37:13Z</time>
				<extensions>
				</extensions>
			</trkpt>
			<trkpt lat="-27.858396" lon="153.164129">
				<ele>26</ele>
				<time>2015-05-06T22:37:14Z</time>
				<extensions>
				</extensions>
			</trkpt>
			<trkpt lat="-27.858552" lon="153.163967">
				<ele>24</ele>
				<time>2015-05-06T22:37:15Z</time>
				<extensions>
				</extensions>
			</trkpt>
			<trkpt lat="-27.858708" lon="153.163798">
				<ele>25</ele>
				<time>2015-05-06T22:37:16Z</time>
				<extensions>
				</extensions>
			</trkpt>
			<trkpt lat="-27.858854" lon="153.163626">
				<ele>24</ele>
				<time>2015-05-06T22:37:17Z</time>
				<extensions>
				</extensions>
			</trkpt>
			<trkpt lat="-27.858996" lon="153.163450">
				<ele>25</ele>
				<time>2015-05-06T22:37:18Z</time>
				<extensions>
				</extensions>
			</trkpt>
			<trkpt lat="-27.859134" lon="153.163290">
				<ele>26</ele>
				<time>2015-05-06T22:37:19Z</time>
				<extensions>
				</extensions>
			</trkpt>
			<trkpt lat="-27.859270" lon="153.163116">
				<ele>28</ele>
				<time>2015-05-06T22:37:20Z</time>
				<extensions>
				</extensions>
			</trkpt>
			<trkpt lat="-27.859403" lon="153.162950">
				<ele>30</ele>
				<time>2015-05-06T22:37:21Z</time>
				<extensions>
				</extensions>
			</trkpt>
			<trkpt lat="-27.859551" lon="153.162779">
				<ele>32</ele>
				<time>2015-05-06T22:37:22Z</time>
				<extensions>
				</extensions>
			</trkpt>
			<trkpt lat="-27.859720" lon="153.162609">
				<ele>35</ele>
				<time>2015-05-06T22:37:23Z</time>
				<extensions>
				</extensions>
			</trkpt>
			<trkpt lat="-27.859872" lon="153.162418">
				<ele>35</ele>
				<time>2015-05-06T22:37:24Z</time>
				<extensions>
				</extensions>
			</trkpt>
			<trkpt lat="-27.860017" lon="153.162231">
				<ele>37</ele>
				<time>2015-05-06T22:37:25Z</time>
				<extensions>
				</extensions>
			</trkpt>
			<trkpt lat="-27.860168" lon="153.162054">
				<ele>37</ele>
				<time>2015-05-06T22:37:26Z</time>
				<extensions>
				</extensions>
			</trkpt>
			<trkpt lat="-27.860335" lon="153.161896">
				<ele>35</ele>
				<time>2015-05-06T22:37:27Z</time>
				<extensions>
				</extensions>
			</trkpt>
			<trkpt lat="-27.860498" lon="153.161738">
				<ele>33</ele>
				<time>2015-05-06T22:37:28Z</time>
				<extensions>
				</extensions>
			</trkpt>
			<trkpt lat="-27.860671" lon="153.161598">
				<ele>32</ele>
				<time>2015-05-06T22:37:29Z</time>
				<extensions>
				</extensions>
			</trkpt>
			<trkpt lat="-27.860846" lon="153.161465">
				<ele>30</ele>
				<time>2015-05-06T22:37:30Z</time>
				<extensions>
				</extensions>
			</trkpt>
			<trkpt lat="-27.861039" lon="153.161354">
				<ele>30</ele>
				<time>2015-05-06T22:37:31Z</time>
				<extensions>
				</extensions>
			</trkpt>
			<trkpt lat="-27.861232" lon="153.161237">
				<ele>29</ele>
				<time>2015-05-06T22:37:32Z</time>
				<extensions>
				</extensions>
			</trkpt>
			<trkpt lat="-27.861423" lon="153.161135">
				<ele>28</ele>
				<time>2015-05-06T22:37:33Z</time>
				<extensions>
				</extensions>
			</trkpt>
			<trkpt lat="-27.861621" lon="153.161038">
				<ele>25</ele>
				<time>2015-05-06T22:37:34Z</time>
				<extensions>
				</extensions>
			</trkpt>
			<trkpt lat="-27.861817" lon="153.160937">
				<ele>26</ele>
				<time>2015-05-06T22:37:35Z</time>
				<extensions>
				</extensions>
			</trkpt>
			<trkpt lat="-27.862022" lon="153.160837">
				<ele>23</ele>
				<time>2015-05-06T22:37:36Z</time>
				<extensions>
				</extensions>
			</trkpt>
			<trkpt lat="-27.862223" lon="153.160738">
				<ele>23</ele>
				<time>2015-05-06T22:37:37Z</time>
				<extensions>
				</extensions>
			</trkpt>
			<trkpt lat="-27.862437" lon="153.160642">
				<ele>23</ele>
				<time>2015-05-06T22:37:38Z</time>
				<extensions>
				</extensions>
			</trkpt>
			<trkpt lat="-27.862648" lon="153.160532">
				<ele>21</ele>
				<time>2015-05-06T22:37:39Z</time>
				<extensions>
				</extensions>
			</trkpt>
			<trkpt lat="-27.862852" lon="153.160426">
				<ele>20</ele>
				<time>2015-05-06T22:37:40Z</time>
				<extensions>
				</extensions>
			</trkpt>
			<trkpt lat="-27.863059" lon="153.160310">
				<ele>20</ele>
				<time>2015-05-06T22:37:41Z</time>
				<extensions>
				</extensions>
			</trkpt>
			<trkpt lat="-27.863268" lon="153.160193">
				<ele>18</ele>
				<time>2015-05-06T22:37:42Z</time>
				<extensions>
				</extensions>
			</trkpt>
			<trkpt lat="-27.863481" lon="153.160086">
				<ele>18</ele>
				<time>2015-05-06T22:37:43Z</time>
				<extensions>
				</extensions>
			</trkpt>
			<trkpt lat="-27.863686" lon="153.159959">
				<ele>19</ele>
				<time>2015-05-06T22:37:44Z</time>
				<extensions>
				</extensions>
			</trkpt>
			<trkpt lat="-27.863894" lon="153.159838">
				<ele>18</ele>
				<time>2015-05-06T22:37:45Z</time>
				<extensions>
				</extensions>
			</trkpt>
			<trkpt lat="-27.864104" lon="153.159713">
				<ele>19</ele>
				<time>2015-05-06T22:37:46Z</time>
				<extensions>
				</extensions>
			</trkpt>
			<trkpt lat="-27.864314" lon="153.159585">
				<ele>18</ele>
				<time>2015-05-06T22:37:47Z</time>
				<extensions>
				</extensions>
			</trkpt>
			<trkpt lat="-27.864522" lon="153.159473">
				<ele>19</ele>
				<time>2015-05-06T22:37:48Z</time>
				<extensions>
				</extensions>
			</trkpt>
			<trkpt lat="-27.864733" lon="153.159364">
				<ele>18</ele>
				<time>2015-05-06T22:37:49Z</time>
				<extensions>
				</extensions>
			</trkpt>
			<trkpt lat="-27.864946" lon="153.159244">
				<ele>19</ele>
				<time>2015-05-06T22:37:50Z</time>
				<extensions>
				</extensions>
			</trkpt>
			<trkpt lat="-27.865151" lon="153.159127">
				<ele>21</ele>
				<time>2015-05-06T22:37:51Z</time>
				<extensions>
				</extensions>
			</trkpt>
			<trkpt lat="-27.865346" lon="153.159017">
				<ele>19</ele>
				<time>2015-05-06T22:37:52Z</time>
				<extensions>
				</extensions>
			</trkpt>
			<trkpt lat="-27.865540" lon="153.158909">
				<ele>18</ele>
				<time>2015-05-06T22:37:53Z</time>
				<extensions>
				</extensions>
			</trkpt>
			<trkpt lat="-27.865741" lon="153.158806">
				<ele>18</ele>
				<time>2015-05-06T22:37:54Z</time>
				<extensions>
				</extensions>
			</trkpt>
			<trkpt lat="-27.865937" lon="153.158707">
				<ele>18</ele>
				<time>2015-05-06T22:37:55Z</time>
				<extensions>
				</extensions>
			</trkpt>
			<trkpt lat="-27.866134" lon="153.158603">
				<ele>19</ele>
				<time>2015-05-06T22:37:56Z</time>
				<extensions>
				</extensions>
			</trkpt>
			<trkpt lat="-27.866339" lon="153.158503">
				<ele>17</ele>
				<time>2015-05-06T22:37:57Z</time>
				<extensions>
				</extensions>
			</trkpt>
			<trkpt lat="-27.866538" lon="153.158394">
				<ele>19</ele>
				<time>2015-05-06T22:37:58Z</time>
				<extensions>
				</extensions>
			</trkpt>
			<trkpt lat="-27.866738" lon="153.158293">
				<ele>17</ele>
				<time>2015-05-06T22:37:59Z</time>
				<extensions>
				</extensions>
			</trkpt>
			<trkpt lat="-27.866941" lon="153.158191">
				<ele>16</ele>
				<time>2015-05-06T22:38:00Z</time>
				<extensions>
				</extensions>
			</trkpt>
			<trkpt lat="-27.867139" lon="153.158076">
				<ele>17</ele>
				<time>2015-05-06T22:38:01Z</time>
				<extensions>
				</extensions>
			</trkpt>
			<trkpt lat="-27.867335" lon="153.157974">
				<ele>17</ele>
				<time>2015-05-06T22:38:02Z</time>
				<extensions>
				</extensions>
			</trkpt>
			<trkpt lat="-27.867526" lon="153.157831">
				<ele>16</ele>
				<time>2015-05-06T22:38:03Z</time>
				<extensions>
				</extensions>
			</trkpt>
			<trkpt lat="-27.867709" lon="153.157705">
				<ele>16</ele>
				<time>2015-05-06T22:38:04Z</time>
				<extensions>
				</extensions>
			</trkpt>
			<trkpt lat="-27.867887" lon="153.157591">
				<ele>18</ele>
				<time>2015-05-06T22:38:05Z</time>
				<extensions>
				</extensions>
			</trkpt>
			<trkpt lat="-27.868061" lon="153.157447">
				<ele>18</ele>
				<time>2015-05-06T22:38:06Z</time>
				<extensions>
				</extensions>
			</trkpt>
			<trkpt lat="-27.868213" lon="153.157288">
				<ele>19</ele>
				<time>2015-05-06T22:38:07Z</time>
				<extensions>
				</extensions>
			</trkpt>
			<trkpt lat="-27.868374" lon="153.157121">
				<ele>19</ele>
				<time>2015-05-06T22:38:08Z</time>
				<extensions>
				</extensions>
			</trkpt>
			<trkpt lat="-27.868524" lon="153.156945">
				<ele>19</ele>
				<time>2015-05-06T22:38:09Z</time>
				<extensions>
				</extensions>
			</trkpt>
			<trkpt lat="-27.868669" lon="153.156760">
				<ele>19</ele>
				<time>2015-05-06T22:38:10Z</time>
				<extensions>
				</extensions>
			</trkpt>
			<trkpt lat="-27.868806" lon="153.156562">
				<ele>20</ele>
				<time>2015-05-06T22:38:11Z</time>
				<extensions>
				</extensions>
			</trkpt>
			<trkpt lat="-27.868947" lon="153.156360">
				<ele>20</ele>
				<time>2015-05-06T22:38:12Z</time>
				<extensions>
				</extensions>
			</trkpt>
			<trkpt lat="-27.869074" lon="153.156147">
				<ele>21</ele>
				<time>2015-05-06T22:38:13Z</time>
				<extensions>
				</extensions>
			</trkpt>
			<trkpt lat="-27.869189" lon="153.155934">
				<ele>22</ele>
				<time>2015-05-06T22:38:14Z</time>
				<extensions>
				</extensions>
			</trkpt>
			<trkpt lat="-27.869301" lon="153.155716">
				<ele>22</ele>
				<time>2015-05-06T22:38:15Z</time>
				<extensions>
				</extensions>
			</trkpt>
			<trkpt lat="-27.869412" lon="153.155494">
				<ele>24</ele>
				<time>2015-05-06T22:38:16Z</time>
				<extensions>
				</extensions>
			</trkpt>
			<trkpt lat="-27.869495" lon="153.155258">
				<ele>25</ele>
				<time>2015-05-06T22:38:17Z</time>
				<extensions>
				</extensions>
			</trkpt>
			<trkpt lat="-27.869580" lon="153.155033">
				<ele>24</ele>
				<time>2015-05-06T22:38:18Z</time>
				<extensions>
				</extensions>
			</trkpt>
			<trkpt lat="-27.869657" lon="153.154810">
				<ele>24</ele>
				<time>2015-05-06T22:38:19Z</time>
				<extensions>
				</extensions>
			</trkpt>
			<trkpt lat="-27.869722" lon="153.154580">
				<ele>27</ele>
				<time>2015-05-06T22:38:20Z</time>
				<extensions>
				</extensions>
			</trkpt>
			<trkpt lat="-27.869796" lon="153.154349">
				<ele>27</ele>
				<time>2015-05-06T22:38:21Z</time>
				<extensions>
				</extensions>
			</trkpt>
			<trkpt lat="-27.869873" lon="153.154124">
				<ele>30</ele>
				<time>2015-05-06T22:38:22Z</time>
				<extensions>
				</extensions>
			</trkpt>
			<trkpt lat="-27.869944" lon="153.153901">
				<ele>32</ele>
				<time>2015-05-06T22:38:23Z</time>
				<extensions>
				</extensions>
			</trkpt>
			<trkpt lat="-27.870009" lon="153.153678">
				<ele>33</ele>
				<time>2015-05-06T22:38:24Z</time>
				<extensions>
				</extensions>
			</trkpt>
			<trkpt lat="-27.870076" lon="153.153457">
				<ele>37</ele>
				<time>2015-05-06T22:38:25Z</time>
				<extensions>
				</extensions>
			</trkpt>
			<trkpt lat="-27.870144" lon="153.153222">
				<ele>37</ele>
				<time>2015-05-06T22:38:26Z</time>
				<extensions>
				</extensions>
			</trkpt>
			<trkpt lat="-27.870217" lon="153.152993">
				<ele>39</ele>
				<time>2015-05-06T22:38:27Z</time>
				<extensions>
				</extensions>
			</trkpt>
			<trkpt lat="-27.870276" lon="153.152771">
				<ele>39</ele>
				<time>2015-05-06T22:38:28Z</time>
				<extensions>
				</extensions>
			</trkpt>
			<trkpt lat="-27.870342" lon="153.152544">
				<ele>41</ele>
				<time>2015-05-06T22:38:29Z</time>
				<extensions>
				</extensions>
			</trkpt>
			<trkpt lat="-27.870412" lon="153.152320">
				<ele>43</ele>
				<time>2015-05-06T22:38:30Z</time>
				<extensions>
				</extensions>
			</trkpt>
			<trkpt lat="-27.870490" lon="153.152101">
				<ele>44</ele>
				<time>2015-05-06T22:38:31Z</time>
				<extensions>
				</extensions>
			</trkpt>
			<trkpt lat="-27.870568" lon="153.151879">
				<ele>45</ele>
				<time>2015-05-06T22:38:32Z</time>
				<extensions>
				</extensions>
			</trkpt>
			<trkpt lat="-27.870638" lon="153.151658">
				<ele>44</ele>
				<time>2015-05-06T22:38:33Z</time>
				<extensions>
				</extensions>
			</trkpt>
			<trkpt lat="-27.870724" lon="153.151430">
				<ele>45</ele>
				<time>2015-05-06T22:38:34Z</time>
				<extensions>
				</extensions>
			</trkpt>
			<trkpt lat="-27.870807" lon="153.151205">
				<ele>45</ele>
				<time>2015-05-06T22:38:35Z</time>
				<extensions>
				</extensions>
			</trkpt>
			<trkpt lat="-27.870887" lon="153.150950">
				<ele>45</ele>
				<time>2015-05-06T22:38:36Z</time>
				<extensions>
				</extensions>
			</trkpt>
			<trkpt lat="-27.870984" lon="153.150727">
				<ele>43</ele>
				<time>2015-05-06T22:38:37Z</time>
				<extensions>
				</extensions>
			</trkpt>
			<trkpt lat="-27.871048" lon="153.150462">
				<ele>43</ele>
				<time>2015-05-06T22:38:38Z</time>
				<extensions>
				</extensions>
			</trkpt>
			<trkpt lat="-27.871146" lon="153.150244">
				<ele>41</ele>
				<time>2015-05-06T22:38:39Z</time>
				<extensions>
				</extensions>
			</trkpt>
			<trkpt lat="-27.871231" lon="153.150010">
				<ele>40</ele>
				<time>2015-05-06T22:38:40Z</time>
				<extensions>
				</extensions>
			</trkpt>
			<trkpt lat="-27.871318" lon="153.149769">
				<ele>39</ele>
				<time>2015-05-06T22:38:41Z</time>
				<extensions>
				</extensions>
			</trkpt>
			<trkpt lat="-27.871405" lon="153.149532">
				<ele>38</ele>
				<time>2015-05-06T22:38:42Z</time>
				<extensions>
				</extensions>
			</trkpt>
			<trkpt lat="-27.871466" lon="153.149320">
				<ele>38</ele>
				<time>2015-05-06T22:38:43Z</time>
				<extensions>
				</extensions>
			</trkpt>
			<trkpt lat="-27.871543" lon="153.149085">
				<ele>36</ele>
				<time>2015-05-06T22:38:44Z</time>
				<extensions>
				</extensions>
			</trkpt>
			<trkpt lat="-27.871638" lon="153.148861">
				<ele>34</ele>
				<time>2015-05-06T22:38:45Z</time>
				<extensions>
				</extensions>
			</trkpt>
			<trkpt lat="-27.871718" lon="153.148633">
				<ele>33</ele>
				<time>2015-05-06T22:38:46Z</time>
				<extensions>
				</extensions>
			</trkpt>
			<trkpt lat="-27.871797" lon="153.148400">
				<ele>34</ele>
				<time>2015-05-06T22:38:47Z</time>
				<extensions>
				</extensions>
			</trkpt>
			<trkpt lat="-27.871875" lon="153.148172">
				<ele>32</ele>
				<time>2015-05-06T22:38:48Z</time>
				<extensions>
				</extensions>
			</trkpt>
			<trkpt lat="-27.871962" lon="153.147951">
				<ele>31</ele>
				<time>2015-05-06T22:38:49Z</time>
				<extensions>
				</extensions>
			</trkpt>
			<trkpt lat="-27.872019" lon="153.147723">
				<ele>30</ele>
				<time>2015-05-06T22:38:50Z</time>
				<extensions>
				</extensions>
			</trkpt>
			<trkpt lat="-27.872099" lon="153.147493">
				<ele>29</ele>
				<time>2015-05-06T22:38:51Z</time>
				<extensions>
				</extensions>
			</trkpt>
			<trkpt lat="-27.872180" lon="153.147271">
				<ele>28</ele>
				<time>2015-05-06T22:38:52Z</time>
				<extensions>
				</extensions>
			</trkpt>
			<trkpt lat="-27.872256" lon="153.147039">
				<ele>27</ele>
				<time>2015-05-06T22:38:53Z</time>
				<extensions>
				</extensions>
			</trkpt>
			<trkpt lat="-27.872342" lon="153.146806">
				<ele>26</ele>
				<time>2015-05-06T22:38:54Z</time>
				<extensions>
				</extensions>
			</trkpt>
			<trkpt lat="-27.872424" lon="153.146572">
				<ele>23</ele>
				<time>2015-05-06T22:38:55Z</time>
				<extensions>
				</extensions>
			</trkpt>
			<trkpt lat="-27.872509" lon="153.146337">
				<ele>22</ele>
				<time>2015-05-06T22:38:56Z</time>
				<extensions>
				</extensions>
			</trkpt>
			<trkpt lat="-27.872578" lon="153.146106">
				<ele>22</ele>
				<time>2015-05-06T22:38:57Z</time>
				<extensions>
				</extensions>
			</trkpt>
			<trkpt lat="-27.872661" lon="153.145878">
				<ele>20</ele>
				<time>2015-05-06T22:38:58Z</time>
				<extensions>
				</extensions>
			</trkpt>
			<trkpt lat="-27.872739" lon="153.145661">
				<ele>21</ele>
				<time>2015-05-06T22:38:59Z</time>
				<extensions>
				</extensions>
			</trkpt>
			<trkpt lat="-27.872794" lon="153.145438">
				<ele>21</ele>
				<time>2015-05-06T22:39:00Z</time>
				<extensions>
				</extensions>
			</trkpt>
			<trkpt lat="-27.872850" lon="153.145221">
				<ele>20</ele>
				<time>2015-05-06T22:39:01Z</time>
				<extensions>
				</extensions>
			</trkpt>
			<trkpt lat="-27.872886" lon="153.144962">
				<ele>21</ele>
				<time>2015-05-06T22:39:02Z</time>
				<extensions>
				</extensions>
			</trkpt>
			<trkpt lat="-27.872918" lon="153.144736">
				<ele>22</ele>
				<time>2015-05-06T22:39:03Z</time>
				<extensions>
				</extensions>
			</trkpt>
			<trkpt lat="-27.872950" lon="153.144489">
				<ele>24</ele>
				<time>2015-05-06T22:39:04Z</time>
				<extensions>
				</extensions>
			</trkpt>
			<trkpt lat="-27.872944" lon="153.144248">
				<ele>23</ele>
				<time>2015-05-06T22:39:05Z</time>
				<extensions>
				</extensions>
			</trkpt>
			<trkpt lat="-27.872927" lon="153.144009">
				<ele>21</ele>
				<time>2015-05-06T22:39:06Z</time>
				<extensions>
				</extensions>
			</trkpt>
			<trkpt lat="-27.872910" lon="153.143769">
				<ele>20</ele>
				<time>2015-05-06T22:39:07Z</time>
				<extensions>
				</extensions>
			</trkpt>
			<trkpt lat="-27.872887" lon="153.143523">
				<ele>23</ele>
				<time>2015-05-06T22:39:08Z</time>
				<extensions>
				</extensions>
			</trkpt>
			<trkpt lat="-27.872860" lon="153.143284">
				<ele>23</ele>
				<time>2015-05-06T22:39:09Z</time>
				<extensions>
				</extensions>
			</trkpt>
			<trkpt lat="-27.872830" lon="153.143037">
				<ele>23</ele>
				<time>2015-05-06T22:39:10Z</time>
				<extensions>
				</extensions>
			</trkpt>
			<trkpt lat="-27.872796" lon="153.142797">
				<ele>22</ele>
				<time>2015-05-06T22:39:11Z</time>
				<extensions>
				</extensions>
			</trkpt>
			<trkpt lat="-27.872764" lon="153.142551">
				<ele>23</ele>
				<time>2015-05-06T22:39:12Z</time>
				<extensions>
				</extensions>
			</trkpt>
			<trkpt lat="-27.872722" lon="153.142313">
				<ele>25</ele>
				<time>2015-05-06T22:39:13Z</time>
				<extensions>
				</extensions>
			</trkpt>
			<trkpt lat="-27.872680" lon="153.142074">
				<ele>25</ele>
				<time>2015-05-06T22:39:14Z</time>
				<extensions>
				</extensions>
			</trkpt>
			<trkpt lat="-27.872647" lon="153.141834">
				<ele>28</ele>
				<time>2015-05-06T22:39:15Z</time>
				<extensions>
				</extensions>
			</trkpt>
			<trkpt lat="-27.872606" lon="153.141598">
				<ele>28</ele>
				<time>2015-05-06T22:39:16Z</time>
				<extensions>
				</extensions>
			</trkpt>
			<trkpt lat="-27.872570" lon="153.141362">
				<ele>29</ele>
				<time>2015-05-06T22:39:17Z</time>
				<extensions>
				</extensions>
			</trkpt>
			<trkpt lat="-27.872540" lon="153.141140">
				<ele>28</ele>
				<time>2015-05-06T22:39:18Z</time>
				<extensions>
				</extensions>
			</trkpt>
			<trkpt lat="-27.872516" lon="153.140918">
				<ele>28</ele>
				<time>2015-05-06T22:39:19Z</time>
				<extensions>
				</extensions>
			</trkpt>
			<trkpt lat="-27.872491" lon="153.140696">
				<ele>28</ele>
				<time>2015-05-06T22:39:20Z</time>
				<extensions>
				</extensions>
			</trkpt>
			<trkpt lat="-27.872460" lon="153.140470">
				<ele>26</ele>
				<time>2015-05-06T22:39:21Z</time>
				<extensions>
				</extensions>
			</trkpt>
			<trkpt lat="-27.872426" lon="153.140245">
				<ele>25</ele>
				<time>2015-05-06T22:39:22Z</time>
				<extensions>
				</extensions>
			</trkpt>
			<trkpt lat="-27.872386" lon="153.140019">
				<ele>26</ele>
				<time>2015-05-06T22:39:23Z</time>
				<extensions>
				</extensions>
			</trkpt>
			<trkpt lat="-27.872357" lon="153.139816">
				<ele>26</ele>
				<time>2015-05-06T22:39:24Z</time>
				<extensions>
				</extensions>
			</trkpt>
			<trkpt lat="-27.872332" lon="153.139601">
				<ele>24</ele>
				<time>2015-05-06T22:39:25Z</time>
				<extensions>
				</extensions>
			</trkpt>
			<trkpt lat="-27.872282" lon="153.139200">
				<ele>22</ele>
				<time>2015-05-06T22:39:27Z</time>
				<extensions>
				</extensions>
			</trkpt>
			<trkpt lat="-27.872258" lon="153.138993">
				<ele>22</ele>
				<time>2015-05-06T22:39:28Z</time>
				<extensions>
				</extensions>
			</trkpt>
			<trkpt lat="-27.872234" lon="153.138788">
				<ele>23</ele>
				<time>2015-05-06T22:39:29Z</time>
				<extensions>
				</extensions>
			</trkpt>
			<trkpt lat="-27.872202" lon="153.138378">
				<ele>23</ele>
				<time>2015-05-06T22:39:31Z</time>
				<extensions>
				</extensions>
			</trkpt>
			<trkpt lat="-27.872221" lon="153.137980">
				<ele>24</ele>
				<time>2015-05-06T22:39:33Z</time>
				<extensions>
				</extensions>
			</trkpt>
			<trkpt lat="-27.872252" lon="153.137777">
				<ele>23</ele>
				<time>2015-05-06T22:39:34Z</time>
				<extensions>
				</extensions>
			</trkpt>
			<trkpt lat="-27.872369" lon="153.137406">
				<ele>24</ele>
				<time>2015-05-06T22:39:36Z</time>
				<extensions>
				</extensions>
			</trkpt>
			<trkpt lat="-27.872521" lon="153.137035">
				<ele>24</ele>
				<time>2015-05-06T22:39:38Z</time>
				<extensions>
				</extensions>
			</trkpt>
			<trkpt lat="-27.872633" lon="153.136872">
				<ele>25</ele>
				<time>2015-05-06T22:39:39Z</time>
				<extensions>
				</extensions>
			</trkpt>
			<trkpt lat="-27.872877" lon="153.136573">
				<ele>27</ele>
				<time>2015-05-06T22:39:41Z</time>
				<extensions>
				</extensions>
			</trkpt>
			<trkpt lat="-27.873032" lon="153.136436">
				<ele>27</ele>
				<time>2015-05-06T22:39:42Z</time>
				<extensions>
				</extensions>
			</trkpt>
			<trkpt lat="-27.873183" lon="153.136320">
				<ele>28</ele>
				<time>2015-05-06T22:39:43Z</time>
				<extensions>
				</extensions>
			</trkpt>
			<trkpt lat="-27.873333" lon="153.136202">
				<ele>28</ele>
				<time>2015-05-06T22:39:44Z</time>
				<extensions>
				</extensions>
			</trkpt>
			<trkpt lat="-27.873498" lon="153.136082">
				<ele>30</ele>
				<time>2015-05-06T22:39:45Z</time>
				<extensions>
				</extensions>
			</trkpt>
			<trkpt lat="-27.873661" lon="153.135970">
				<ele>30</ele>
				<time>2015-05-06T22:39:46Z</time>
				<extensions>
				</extensions>
			</trkpt>
			<trkpt lat="-27.873825" lon="153.135836">
				<ele>30</ele>
				<time>2015-05-06T22:39:47Z</time>
				<extensions>
				</extensions>
			</trkpt>
			<trkpt lat="-27.873997" lon="153.135727">
				<ele>31</ele>
				<time>2015-05-06T22:39:48Z</time>
				<extensions>
				</extensions>
			</trkpt>
			<trkpt lat="-27.874161" lon="153.135619">
				<ele>32</ele>
				<time>2015-05-06T22:39:49Z</time>
				<extensions>
				</extensions>
			</trkpt>
			<trkpt lat="-27.874324" lon="153.135498">
				<ele>33</ele>
				<time>2015-05-06T22:39:50Z</time>
				<extensions>
				</extensions>
			</trkpt>
			<trkpt lat="-27.874482" lon="153.135376">
				<ele>34</ele>
				<time>2015-05-06T22:39:51Z</time>
				<extensions>
				</extensions>
			</trkpt>
			<trkpt lat="-27.874636" lon="153.135247">
				<ele>34</ele>
				<time>2015-05-06T22:39:52Z</time>
				<extensions>
				</extensions>
			</trkpt>
			<trkpt lat="-27.874772" lon="153.135104">
				<ele>34</ele>
				<time>2015-05-06T22:39:53Z</time>
				<extensions>
				</extensions>
			</trkpt>
			<trkpt lat="-27.874903" lon="153.134947">
				<ele>36</ele>
				<time>2015-05-06T22:39:54Z</time>
				<extensions>
				</extensions>
			</trkpt>
			<trkpt lat="-27.875024" lon="153.134775">
				<ele>37</ele>
				<time>2015-05-06T22:39:55Z</time>
				<extensions>
				</extensions>
			</trkpt>
			<trkpt lat="-27.875135" lon="153.134597">
				<ele>38</ele>
				<time>2015-05-06T22:39:56Z</time>
				<extensions>
				</extensions>
			</trkpt>
			<trkpt lat="-27.875246" lon="153.134406">
				<ele>39</ele>
				<time>2015-05-06T22:39:57Z</time>
				<extensions>
				</extensions>
			</trkpt>
			<trkpt lat="-27.875332" lon="153.134215">
				<ele>39</ele>
				<time>2015-05-06T22:39:58Z</time>
				<extensions>
				</extensions>
			</trkpt>
			<trkpt lat="-27.875412" lon="153.134022">
				<ele>41</ele>
				<time>2015-05-06T22:39:59Z</time>
				<extensions>
				</extensions>
			</trkpt>
			<trkpt lat="-27.875561" lon="153.133654">
				<ele>42</ele>
				<time>2015-05-06T22:40:01Z</time>
				<extensions>
				</extensions>
			</trkpt>
			<trkpt lat="-27.875703" lon="153.133294">
				<ele>43</ele>
				<time>2015-05-06T22:40:03Z</time>
				<extensions>
				</extensions>
			</trkpt>
			<trkpt lat="-27.875787" lon="153.133106">
				<ele>44</ele>
				<time>2015-05-06T22:40:04Z</time>
				<extensions>
				</extensions>
			</trkpt>
			<trkpt lat="-27.875984" lon="153.132751">
				<ele>46</ele>
				<time>2015-05-06T22:40:06Z</time>
				<extensions>
				</extensions>
			</trkpt>
			<trkpt lat="-27.876095" lon="153.132575">
				<ele>47</ele>
				<time>2015-05-06T22:40:07Z</time>
				<extensions>
				</extensions>
			</trkpt>
			<trkpt lat="-27.876213" lon="153.132406">
				<ele>47</ele>
				<time>2015-05-06T22:40:08Z</time>
				<extensions>
				</extensions>
			</trkpt>
			<trkpt lat="-27.876352" lon="153.132252">
				<ele>48</ele>
				<time>2015-05-06T22:40:09Z</time>
				<extensions>
				</extensions>
			</trkpt>
			<trkpt lat="-27.876485" lon="153.132096">
				<ele>48</ele>
				<time>2015-05-06T22:40:10Z</time>
				<extensions>
				</extensions>
			</trkpt>
			<trkpt lat="-27.876623" lon="153.131945">
				<ele>49</ele>
				<time>2015-05-06T22:40:11Z</time>
				<extensions>
				</extensions>
			</trkpt>
			<trkpt lat="-27.876773" lon="153.131820">
				<ele>48</ele>
				<time>2015-05-06T22:40:12Z</time>
				<extensions>
				</extensions>
			</trkpt>
			<trkpt lat="-27.876930" lon="153.131696">
				<ele>49</ele>
				<time>2015-05-06T22:40:13Z</time>
				<extensions>
				</extensions>
			</trkpt>
			<trkpt lat="-27.877091" lon="153.131570">
				<ele>50</ele>
				<time>2015-05-06T22:40:14Z</time>
				<extensions>
				</extensions>
			</trkpt>
			<trkpt lat="-27.877266" lon="153.131456">
				<ele>50</ele>
				<time>2015-05-06T22:40:15Z</time>
				<extensions>
				</extensions>
			</trkpt>
			<trkpt lat="-27.877449" lon="153.131356">
				<ele>49</ele>
				<time>2015-05-06T22:40:16Z</time>
				<extensions>
				</extensions>
			</trkpt>
			<trkpt lat="-27.877632" lon="153.131266">
				<ele>49</ele>
				<time>2015-05-06T22:40:17Z</time>
				<extensions>
				</extensions>
			</trkpt>
			<trkpt lat="-27.877808" lon="153.131177">
				<ele>48</ele>
				<time>2015-05-06T22:40:18Z</time>
				<extensions>
				</extensions>
			</trkpt>
			<trkpt lat="-27.877985" lon="153.131099">
				<ele>47</ele>
				<time>2015-05-06T22:40:19Z</time>
				<extensions>
				</extensions>
			</trkpt>
			<trkpt lat="-27.878161" lon="153.131025">
				<ele>46</ele>
				<time>2015-05-06T22:40:20Z</time>
				<extensions>
				</extensions>
			</trkpt>
			<trkpt lat="-27.878334" lon="153.130953">
				<ele>46</ele>
				<time>2015-05-06T22:40:21Z</time>
				<extensions>
				</extensions>
			</trkpt>
			<trkpt lat="-27.878671" lon="153.130845">
				<ele>43</ele>
				<time>2015-05-06T22:40:23Z</time>
				<extensions>
				</extensions>
			</trkpt>
			<trkpt lat="-27.878987" lon="153.130772">
				<ele>41</ele>
				<time>2015-05-06T22:40:25Z</time>
				<extensions>
				</extensions>
			</trkpt>
			<trkpt lat="-27.879290" lon="153.130738">
				<ele>40</ele>
				<time>2015-05-06T22:40:27Z</time>
				<extensions>
				</extensions>
			</trkpt>
			<trkpt lat="-27.879566" lon="153.130712">
				<ele>40</ele>
				<time>2015-05-06T22:40:29Z</time>
				<extensions>
				</extensions>
			</trkpt>
			<trkpt lat="-27.879806" lon="153.130707">
				<ele>40</ele>
				<time>2015-05-06T22:40:31Z</time>
				<extensions>
				</extensions>
			</trkpt>
			<trkpt lat="-27.880000" lon="153.130641">
				<ele>40</ele>
				<time>2015-05-06T22:40:33Z</time>
				<extensions>
				</extensions>
			</trkpt>
			<trkpt lat="-27.880241" lon="153.130580">
				<ele>38</ele>
				<time>2015-05-06T22:40:36Z</time>
				<extensions>
				</extensions>
			</trkpt>
			<trkpt lat="-27.880474" lon="153.130568">
				<ele>39</ele>
				<time>2015-05-06T22:40:40Z</time>
				<extensions>
				</extensions>
			</trkpt>
			<trkpt lat="-27.880729" lon="153.130684">
				<ele>40</ele>
				<time>2015-05-06T22:40:43Z</time>
				<extensions>
				</extensions>
			</trkpt>
			<trkpt lat="-27.880922" lon="153.130842">
				<ele>41</ele>
				<time>2015-05-06T22:40:45Z</time>
				<extensions>
				</extensions>
			</trkpt>
			<trkpt lat="-27.881144" lon="153.131003">
				<ele>42</ele>
				<time>2015-05-06T22:40:47Z</time>
				<extensions>
				</extensions>
			</trkpt>
			<trkpt lat="-27.881415" lon="153.131143">
				<ele>41</ele>
				<time>2015-05-06T22:40:49Z</time>
				<extensions>
				</extensions>
			</trkpt>
			<trkpt lat="-27.881694" lon="153.131260">
				<ele>41</ele>
				<time>2015-05-06T22:40:51Z</time>
				<extensions>
				</extensions>
			</trkpt>
			<trkpt lat="-27.882003" lon="153.131347">
				<ele>41</ele>
				<time>2015-05-06T22:40:53Z</time>
				<extensions>
				</extensions>
			</trkpt>
			<trkpt lat="-27.882314" lon="153.131438">
				<ele>41</ele>
				<time>2015-05-06T22:40:55Z</time>
				<extensions>
				</extensions>
			</trkpt>
			<trkpt lat="-27.882641" lon="153.131531">
				<ele>40</ele>
				<time>2015-05-06T22:40:57Z</time>
				<extensions>
				</extensions>
			</trkpt>
			<trkpt lat="-27.882943" lon="153.131660">
				<ele>43</ele>
				<time>2015-05-06T22:40:59Z</time>
				<extensions>
				</extensions>
			</trkpt>
			<trkpt lat="-27.883254" lon="153.131816">
				<ele>43</ele>
				<time>2015-05-06T22:41:01Z</time>
				<extensions>
				</extensions>
			</trkpt>
			<trkpt lat="-27.883505" lon="153.132072">
				<ele>40</ele>
				<time>2015-05-06T22:41:03Z</time>
				<extensions>
				</extensions>
			</trkpt>
			<trkpt lat="-27.883716" lon="153.132351">
				<ele>40</ele>
				<time>2015-05-06T22:41:05Z</time>
				<extensions>
				</extensions>
			</trkpt>
			<trkpt lat="-27.883831" lon="153.132522">
				<ele>41</ele>
				<time>2015-05-06T22:41:06Z</time>
				<extensions>
				</extensions>
			</trkpt>
			<trkpt lat="-27.883926" lon="153.132697">
				<ele>43</ele>
				<time>2015-05-06T22:41:07Z</time>
				<extensions>
				</extensions>
			</trkpt>
			<trkpt lat="-27.884021" lon="153.132891">
				<ele>43</ele>
				<time>2015-05-06T22:41:08Z</time>
				<extensions>
				</extensions>
			</trkpt>
			<trkpt lat="-27.884117" lon="153.133073">
				<ele>45</ele>
				<time>2015-05-06T22:41:09Z</time>
				<extensions>
				</extensions>
			</trkpt>
			<trkpt lat="-27.884276" lon="153.133452">
				<ele>44</ele>
				<time>2015-05-06T22:41:11Z</time>
				<extensions>
				</extensions>
			</trkpt>
			<trkpt lat="-27.884362" lon="153.133650">
				<ele>44</ele>
				<time>2015-05-06T22:41:12Z</time>
				<extensions>
				</extensions>
			</trkpt>
			<trkpt lat="-27.884448" lon="153.133831">
				<ele>44</ele>
				<time>2015-05-06T22:41:13Z</time>
				<extensions>
				</extensions>
			</trkpt>
			<trkpt lat="-27.884533" lon="153.134033">
				<ele>43</ele>
				<time>2015-05-06T22:41:14Z</time>
				<extensions>
				</extensions>
			</trkpt>
			<trkpt lat="-27.884611" lon="153.134233">
				<ele>43</ele>
				<time>2015-05-06T22:41:15Z</time>
				<extensions>
				</extensions>
			</trkpt>
			<trkpt lat="-27.884700" lon="153.134420">
				<ele>44</ele>
				<time>2015-05-06T22:41:16Z</time>
				<extensions>
				</extensions>
			</trkpt>
			<trkpt lat="-27.884785" lon="153.134623">
				<ele>44</ele>
				<time>2015-05-06T22:41:17Z</time>
				<extensions>
				</extensions>
			</trkpt>
			<trkpt lat="-27.884860" lon="153.134814">
				<ele>44</ele>
				<time>2015-05-06T22:41:18Z</time>
				<extensions>
				</extensions>
			</trkpt>
			<trkpt lat="-27.884949" lon="153.135020">
				<ele>44</ele>
				<time>2015-05-06T22:41:19Z</time>
				<extensions>
				</extensions>
			</trkpt>
			<trkpt lat="-27.885038" lon="153.135211">
				<ele>45</ele>
				<time>2015-05-06T22:41:20Z</time>
				<extensions>
				</extensions>
			</trkpt>
			<trkpt lat="-27.885124" lon="153.135415">
				<ele>44</ele>
				<time>2015-05-06T22:41:21Z</time>
				<extensions>
				</extensions>
			</trkpt>
			<trkpt lat="-27.885218" lon="153.135613">
				<ele>44</ele>
				<time>2015-05-06T22:41:22Z</time>
				<extensions>
				</extensions>
			</trkpt>
			<trkpt lat="-27.885308" lon="153.135819">
				<ele>44</ele>
				<time>2015-05-06T22:41:23Z</time>
				<extensions>
				</extensions>
			</trkpt>
			<trkpt lat="-27.885393" lon="153.136018">
				<ele>44</ele>
				<time>2015-05-06T22:41:24Z</time>
				<extensions>
				</extensions>
			</trkpt>
			<trkpt lat="-27.885487" lon="153.136206">
				<ele>45</ele>
				<time>2015-05-06T22:41:25Z</time>
				<extensions>
				</extensions>
			</trkpt>
			<trkpt lat="-27.885582" lon="153.136394">
				<ele>45</ele>
				<time>2015-05-06T22:41:26Z</time>
				<extensions>
				</extensions>
			</trkpt>
			<trkpt lat="-27.885687" lon="153.136571">
				<ele>45</ele>
				<time>2015-05-06T22:41:27Z</time>
				<extensions>
				</extensions>
			</trkpt>
			<trkpt lat="-27.885797" lon="153.136745">
				<ele>45</ele>
				<time>2015-05-06T22:41:28Z</time>
				<extensions>
				</extensions>
			</trkpt>
			<trkpt lat="-27.885912" lon="153.136915">
				<ele>45</ele>
				<time>2015-05-06T22:41:29Z</time>
				<extensions>
				</extensions>
			</trkpt>
			<trkpt lat="-27.886035" lon="153.137083">
				<ele>46</ele>
				<time>2015-05-06T22:41:30Z</time>
				<extensions>
				</extensions>
			</trkpt>
			<trkpt lat="-27.886152" lon="153.137254">
				<ele>46</ele>
				<time>2015-05-06T22:41:31Z</time>
				<extensions>
				</extensions>
			</trkpt>
			<trkpt lat="-27.886272" lon="153.137424">
				<ele>46</ele>
				<time>2015-05-06T22:41:32Z</time>
				<extensions>
				</extensions>
			</trkpt>
			<trkpt lat="-27.886392" lon="153.137591">
				<ele>47</ele>
				<time>2015-05-06T22:41:33Z</time>
				<extensions>
				</extensions>
			</trkpt>
			<trkpt lat="-27.886513" lon="153.137759">
				<ele>47</ele>
				<time>2015-05-06T22:41:34Z</time>
				<extensions>
				</extensions>
			</trkpt>
			<trkpt lat="-27.886634" lon="153.137930">
				<ele>47</ele>
				<time>2015-05-06T22:41:35Z</time>
				<extensions>
				</extensions>
			</trkpt>
			<trkpt lat="-27.886746" lon="153.138097">
				<ele>48</ele>
				<time>2015-05-06T22:41:36Z</time>
				<extensions>
				</extensions>
			</trkpt>
			<trkpt lat="-27.886872" lon="153.138255">
				<ele>47</ele>
				<time>2015-05-06T22:41:37Z</time>
				<extensions>
				</extensions>
			</trkpt>
			<trkpt lat="-27.887011" lon="153.138398">
				<ele>49</ele>
				<time>2015-05-06T22:41:38Z</time>
				<extensions>
				</extensions>
			</trkpt>
			<trkpt lat="-27.887151" lon="153.138554">
				<ele>49</ele>
				<time>2015-05-06T22:41:39Z</time>
				<extensions>
				</extensions>
			</trkpt>
			<trkpt lat="-27.887297" lon="153.138693">
				<ele>49</ele>
				<time>2015-05-06T22:41:40Z</time>
				<extensions>
				</extensions>
			</trkpt>
			<trkpt lat="-27.887447" lon="153.138807">
				<ele>49</ele>
				<time>2015-05-06T22:41:41Z</time>
				<extensions>
				</extensions>
			</trkpt>
			<trkpt lat="-27.887613" lon="153.138921">
				<ele>49</ele>
				<time>2015-05-06T22:41:42Z</time>
				<extensions>
				</extensions>
			</trkpt>
			<trkpt lat="-27.887776" lon="153.139016">
				<ele>51</ele>
				<time>2015-05-06T22:41:43Z</time>
				<extensions>
				</extensions>
			</trkpt>
			<trkpt lat="-27.887947" lon="153.139112">
				<ele>52</ele>
				<time>2015-05-06T22:41:44Z</time>
				<extensions>
				</extensions>
			</trkpt>
			<trkpt lat="-27.888116" lon="153.139207">
				<ele>54</ele>
				<time>2015-05-06T22:41:45Z</time>
				<extensions>
				</extensions>
			</trkpt>
			<trkpt lat="-27.888297" lon="153.139283">
				<ele>56</ele>
				<time>2015-05-06T22:41:46Z</time>
				<extensions>
				</extensions>
			</trkpt>
			<trkpt lat="-27.888465" lon="153.139383">
				<ele>57</ele>
				<time>2015-05-06T22:41:47Z</time>
				<extensions>
				</extensions>
			</trkpt>
			<trkpt lat="-27.888769" lon="153.139590">
				<ele>59</ele>
				<time>2015-05-06T22:41:49Z</time>
				<extensions>
				</extensions>
			</trkpt>
			<trkpt lat="-27.888909" lon="153.139733">
				<ele>59</ele>
				<time>2015-05-06T22:41:50Z</time>
				<extensions>
				</extensions>
			</trkpt>
			<trkpt lat="-27.889124" lon="153.140030">
				<ele>64</ele>
				<time>2015-05-06T22:41:52Z</time>
				<extensions>
				</extensions>
			</trkpt>
			<trkpt lat="-27.889236" lon="153.140213">
				<ele>65</ele>
				<time>2015-05-06T22:41:53Z</time>
				<extensions>
				</extensions>
			</trkpt>
			<trkpt lat="-27.889341" lon="153.140401">
				<ele>65</ele>
				<time>2015-05-06T22:41:54Z</time>
				<extensions>
				</extensions>
			</trkpt>
			<trkpt lat="-27.889440" lon="153.140589">
				<ele>66</ele>
				<time>2015-05-06T22:41:55Z</time>
				<extensions>
				</extensions>
			</trkpt>
			<trkpt lat="-27.889532" lon="153.140787">
				<ele>65</ele>
				<time>2015-05-06T22:41:56Z</time>
				<extensions>
				</extensions>
			</trkpt>
			<trkpt lat="-27.889615" lon="153.140990">
				<ele>64</ele>
				<time>2015-05-06T22:41:57Z</time>
				<extensions>
				</extensions>
			</trkpt>
			<trkpt lat="-27.889684" lon="153.141189">
				<ele>65</ele>
				<time>2015-05-06T22:41:58Z</time>
				<extensions>
				</extensions>
			</trkpt>
			<trkpt lat="-27.889730" lon="153.141418">
				<ele>65</ele>
				<time>2015-05-06T22:41:59Z</time>
				<extensions>
				</extensions>
			</trkpt>
			<trkpt lat="-27.889774" lon="153.141633">
				<ele>66</ele>
				<time>2015-05-06T22:42:00Z</time>
				<extensions>
				</extensions>
			</trkpt>
			<trkpt lat="-27.889822" lon="153.141853">
				<ele>64</ele>
				<time>2015-05-06T22:42:01Z</time>
				<extensions>
				</extensions>
			</trkpt>
			<trkpt lat="-27.889852" lon="153.142081">
				<ele>64</ele>
				<time>2015-05-06T22:42:02Z</time>
				<extensions>
				</extensions>
			</trkpt>
			<trkpt lat="-27.889879" lon="153.142312">
				<ele>64</ele>
				<time>2015-05-06T22:42:03Z</time>
				<extensions>
				</extensions>
			</trkpt>
			<trkpt lat="-27.889920" lon="153.142563">
				<ele>63</ele>
				<time>2015-05-06T22:42:04Z</time>
				<extensions>
				</extensions>
			</trkpt>
			<trkpt lat="-27.889954" lon="153.142799">
				<ele>62</ele>
				<time>2015-05-06T22:42:05Z</time>
				<extensions>
				</extensions>
			</trkpt>
			<trkpt lat="-27.889987" lon="153.143018">
				<ele>62</ele>
				<time>2015-05-06T22:42:06Z</time>
				<extensions>
				</extensions>
			</trkpt>
			<trkpt lat="-27.890025" lon="153.143257">
				<ele>63</ele>
				<time>2015-05-06T22:42:07Z</time>
				<extensions>
				</extensions>
			</trkpt>
			<trkpt lat="-27.890068" lon="153.143477">
				<ele>63</ele>
				<time>2015-05-06T22:42:08Z</time>
				<extensions>
				</extensions>
			</trkpt>
			<trkpt lat="-27.890146" lon="153.143710">
				<ele>63</ele>
				<time>2015-05-06T22:42:09Z</time>
				<extensions>
				</extensions>
			</trkpt>
			<trkpt lat="-27.890201" lon="153.143927">
				<ele>64</ele>
				<time>2015-05-06T22:42:10Z</time>
				<extensions>
				</extensions>
			</trkpt>
			<trkpt lat="-27.890254" lon="153.144155">
				<ele>64</ele>
				<time>2015-05-06T22:42:11Z</time>
				<extensions>
				</extensions>
			</trkpt>
			<trkpt lat="-27.890331" lon="153.144380">
				<ele>64</ele>
				<time>2015-05-06T22:42:12Z</time>
				<extensions>
				</extensions>
			</trkpt>
			<trkpt lat="-27.890409" lon="153.144601">
				<ele>65</ele>
				<time>2015-05-06T22:42:13Z</time>
				<extensions>
				</extensions>
			</trkpt>
			<trkpt lat="-27.890484" lon="153.144810">
				<ele>65</ele>
				<time>2015-05-06T22:42:14Z</time>
				<extensions>
				</extensions>
			</trkpt>
			<trkpt lat="-27.890567" lon="153.145026">
				<ele>65</ele>
				<time>2015-05-06T22:42:15Z</time>
				<extensions>
				</extensions>
			</trkpt>
			<trkpt lat="-27.890665" lon="153.145225">
				<ele>65</ele>
				<time>2015-05-06T22:42:16Z</time>
				<extensions>
				</extensions>
			</trkpt>
			<trkpt lat="-27.890762" lon="153.145423">
				<ele>65</ele>
				<time>2015-05-06T22:42:17Z</time>
				<extensions>
				</extensions>
			</trkpt>
			<trkpt lat="-27.890884" lon="153.145593">
				<ele>67</ele>
				<time>2015-05-06T22:42:18Z</time>
				<extensions>
				</extensions>
			</trkpt>
			<trkpt lat="-27.891003" lon="153.145773">
				<ele>66</ele>
				<time>2015-05-06T22:42:19Z</time>
				<extensions>
				</extensions>
			</trkpt>
			<trkpt lat="-27.891123" lon="153.145949">
				<ele>67</ele>
				<time>2015-05-06T22:42:20Z</time>
				<extensions>
				</extensions>
			</trkpt>
			<trkpt lat="-27.891242" lon="153.146112">
				<ele>68</ele>
				<time>2015-05-06T22:42:21Z</time>
				<extensions>
				</extensions>
			</trkpt>
			<trkpt lat="-27.891359" lon="153.146268">
				<ele>68</ele>
				<time>2015-05-06T22:42:22Z</time>
				<extensions>
				</extensions>
			</trkpt>
			<trkpt lat="-27.891483" lon="153.146426">
				<ele>68</ele>
				<time>2015-05-06T22:42:23Z</time>
				<extensions>
				</extensions>
			</trkpt>
			<trkpt lat="-27.891619" lon="153.146591">
				<ele>68</ele>
				<time>2015-05-06T22:42:24Z</time>
				<extensions>
				</extensions>
			</trkpt>
			<trkpt lat="-27.891745" lon="153.146771">
				<ele>68</ele>
				<time>2015-05-06T22:42:25Z</time>
				<extensions>
				</extensions>
			</trkpt>
			<trkpt lat="-27.891873" lon="153.146948">
				<ele>67</ele>
				<time>2015-05-06T22:42:26Z</time>
				<extensions>
				</extensions>
			</trkpt>
			<trkpt lat="-27.892005" lon="153.147103">
				<ele>66</ele>
				<time>2015-05-06T22:42:27Z</time>
				<extensions>
				</extensions>
			</trkpt>
			<trkpt lat="-27.892129" lon="153.147297">
				<ele>67</ele>
				<time>2015-05-06T22:42:28Z</time>
				<extensions>
				</extensions>
			</trkpt>
			<trkpt lat="-27.892245" lon="153.147493">
				<ele>65</ele>
				<time>2015-05-06T22:42:29Z</time>
				<extensions>
				</extensions>
			</trkpt>
			<trkpt lat="-27.892357" lon="153.147707">
				<ele>64</ele>
				<time>2015-05-06T22:42:30Z</time>
				<extensions>
				</extensions>
			</trkpt>
			<trkpt lat="-27.892451" lon="153.147915">
				<ele>64</ele>
				<time>2015-05-06T22:42:31Z</time>
				<extensions>
				</extensions>
			</trkpt>
			<trkpt lat="-27.892523" lon="153.148122">
				<ele>63</ele>
				<time>2015-05-06T22:42:32Z</time>
				<extensions>
				</extensions>
			</trkpt>
			<trkpt lat="-27.892622" lon="153.148336">
				<ele>63</ele>
				<time>2015-05-06T22:42:33Z</time>
				<extensions>
				</extensions>
			</trkpt>
			<trkpt lat="-27.892699" lon="153.148561">
				<ele>63</ele>
				<time>2015-05-06T22:42:34Z</time>
				<extensions>
				</extensions>
			</trkpt>
			<trkpt lat="-27.892777" lon="153.148785">
				<ele>62</ele>
				<time>2015-05-06T22:42:35Z</time>
				<extensions>
				</extensions>
			</trkpt>
			<trkpt lat="-27.892833" lon="153.149018">
				<ele>63</ele>
				<time>2015-05-06T22:42:36Z</time>
				<extensions>
				</extensions>
			</trkpt>
			<trkpt lat="-27.892889" lon="153.149251">
				<ele>63</ele>
				<time>2015-05-06T22:42:37Z</time>
				<extensions>
				</extensions>
			</trkpt>
			<trkpt lat="-27.892939" lon="153.149486">
				<ele>62</ele>
				<time>2015-05-06T22:42:38Z</time>
				<extensions>
				</extensions>
			</trkpt>
			<trkpt lat="-27.892980" lon="153.149723">
				<ele>62</ele>
				<time>2015-05-06T22:42:39Z</time>
				<extensions>
				</extensions>
			</trkpt>
			<trkpt lat="-27.893016" lon="153.149955">
				<ele>62</ele>
				<time>2015-05-06T22:42:40Z</time>
				<extensions>
				</extensions>
			</trkpt>
			<trkpt lat="-27.893046" lon="153.150181">
				<ele>61</ele>
				<time>2015-05-06T22:42:41Z</time>
				<extensions>
				</extensions>
			</trkpt>
			<trkpt lat="-27.893077" lon="153.150412">
				<ele>58</ele>
				<time>2015-05-06T22:42:42Z</time>
				<extensions>
				</extensions>
			</trkpt>
			<trkpt lat="-27.893103" lon="153.150652">
				<ele>58</ele>
				<time>2015-05-06T22:42:43Z</time>
				<extensions>
				</extensions>
			</trkpt>
			<trkpt lat="-27.893143" lon="153.150871">
				<ele>56</ele>
				<time>2015-05-06T22:42:44Z</time>
				<extensions>
				</extensions>
			</trkpt>
			<trkpt lat="-27.893183" lon="153.151119">
				<ele>55</ele>
				<time>2015-05-06T22:42:45Z</time>
				<extensions>
				</extensions>
			</trkpt>
			<trkpt lat="-27.893217" lon="153.151352">
				<ele>55</ele>
				<time>2015-05-06T22:42:46Z</time>
				<extensions>
				</extensions>
			</trkpt>
			<trkpt lat="-27.893246" lon="153.151591">
				<ele>53</ele>
				<time>2015-05-06T22:42:47Z</time>
				<extensions>
				</extensions>
			</trkpt>
			<trkpt lat="-27.893281" lon="153.151818">
				<ele>53</ele>
				<time>2015-05-06T22:42:48Z</time>
				<extensions>
				</extensions>
			</trkpt>
			<trkpt lat="-27.893315" lon="153.152047">
				<ele>53</ele>
				<time>2015-05-06T22:42:49Z</time>
				<extensions>
				</extensions>
			</trkpt>
			<trkpt lat="-27.893368" lon="153.152267">
				<ele>53</ele>
				<time>2015-05-06T22:42:50Z</time>
				<extensions>
				</extensions>
			</trkpt>
			<trkpt lat="-27.893410" lon="153.152496">
				<ele>54</ele>
				<time>2015-05-06T22:42:51Z</time>
				<extensions>
				</extensions>
			</trkpt>
			<trkpt lat="-27.893481" lon="153.152897">
				<ele>55</ele>
				<time>2015-05-06T22:42:53Z</time>
				<extensions>
				</extensions>
			</trkpt>
			<trkpt lat="-27.893536" lon="153.153104">
				<ele>56</ele>
				<time>2015-05-06T22:42:54Z</time>
				<extensions>
				</extensions>
			</trkpt>
			<trkpt lat="-27.893588" lon="153.153305">
				<ele>58</ele>
				<time>2015-05-06T22:42:55Z</time>
				<extensions>
				</extensions>
			</trkpt>
			<trkpt lat="-27.893650" lon="153.153517">
				<ele>59</ele>
				<time>2015-05-06T22:42:56Z</time>
				<extensions>
				</extensions>
			</trkpt>
			<trkpt lat="-27.893724" lon="153.153746">
				<ele>60</ele>
				<time>2015-05-06T22:42:57Z</time>
				<extensions>
				</extensions>
			</trkpt>
			<trkpt lat="-27.893813" lon="153.153963">
				<ele>62</ele>
				<time>2015-05-06T22:42:58Z</time>
				<extensions>
				</extensions>
			</trkpt>
			<trkpt lat="-27.893908" lon="153.154169">
				<ele>62</ele>
				<time>2015-05-06T22:42:59Z</time>
				<extensions>
				</extensions>
			</trkpt>
			<trkpt lat="-27.894004" lon="153.154381">
				<ele>62</ele>
				<time>2015-05-06T22:43:00Z</time>
				<extensions>
				</extensions>
			</trkpt>
			<trkpt lat="-27.894105" lon="153.154576">
				<ele>62</ele>
				<time>2015-05-06T22:43:01Z</time>
				<extensions>
				</extensions>
			</trkpt>
			<trkpt lat="-27.894224" lon="153.154782">
				<ele>64</ele>
				<time>2015-05-06T22:43:02Z</time>
				<extensions>
				</extensions>
			</trkpt>
			<trkpt lat="-27.894339" lon="153.154971">
				<ele>63</ele>
				<time>2015-05-06T22:43:03Z</time>
				<extensions>
				</extensions>
			</trkpt>
			<trkpt lat="-27.894453" lon="153.155154">
				<ele>64</ele>
				<time>2015-05-06T22:43:04Z</time>
				<extensions>
				</extensions>
			</trkpt>
			<trkpt lat="-27.894575" lon="153.155342">
				<ele>63</ele>
				<time>2015-05-06T22:43:05Z</time>
				<extensions>
				</extensions>
			</trkpt>
			<trkpt lat="-27.894698" lon="153.155522">
				<ele>64</ele>
				<time>2015-05-06T22:43:06Z</time>
				<extensions>
				</extensions>
			</trkpt>
			<trkpt lat="-27.894815" lon="153.155694">
				<ele>63</ele>
				<time>2015-05-06T22:43:07Z</time>
				<extensions>
				</extensions>
			</trkpt>
			<trkpt lat="-27.894932" lon="153.155871">
				<ele>63</ele>
				<time>2015-05-06T22:43:08Z</time>
				<extensions>
				</extensions>
			</trkpt>
			<trkpt lat="-27.895052" lon="153.156066">
				<ele>63</ele>
				<time>2015-05-06T22:43:09Z</time>
				<extensions>
				</extensions>
			</trkpt>
			<trkpt lat="-27.895181" lon="153.156252">
				<ele>65</ele>
				<time>2015-05-06T22:43:10Z</time>
				<extensions>
				</extensions>
			</trkpt>
			<trkpt lat="-27.895288" lon="153.156424">
				<ele>64</ele>
				<time>2015-05-06T22:43:11Z</time>
				<extensions>
				</extensions>
			</trkpt>
			<trkpt lat="-27.895416" lon="153.156604">
				<ele>65</ele>
				<time>2015-05-06T22:43:12Z</time>
				<extensions>
				</extensions>
			</trkpt>
			<trkpt lat="-27.895537" lon="153.156767">
				<ele>66</ele>
				<time>2015-05-06T22:43:13Z</time>
				<extensions>
				</extensions>
			</trkpt>
			<trkpt lat="-27.895649" lon="153.156943">
				<ele>66</ele>
				<time>2015-05-06T22:43:14Z</time>
				<extensions>
				</extensions>
			</trkpt>
			<trkpt lat="-27.895765" lon="153.157134">
				<ele>67</ele>
				<time>2015-05-06T22:43:15Z</time>
				<extensions>
				</extensions>
			</trkpt>
			<trkpt lat="-27.895873" lon="153.157315">
				<ele>68</ele>
				<time>2015-05-06T22:43:16Z</time>
				<extensions>
				</extensions>
			</trkpt>
			<trkpt lat="-27.896053" lon="153.157642">
				<ele>70</ele>
				<time>2015-05-06T22:43:18Z</time>
				<extensions>
				</extensions>
			</trkpt>
			<trkpt lat="-27.896165" lon="153.157812">
				<ele>71</ele>
				<time>2015-05-06T22:43:19Z</time>
				<extensions>
				</extensions>
			</trkpt>
			<trkpt lat="-27.896283" lon="153.157985">
				<ele>71</ele>
				<time>2015-05-06T22:43:20Z</time>
				<extensions>
				</extensions>
			</trkpt>
			<trkpt lat="-27.896514" lon="153.158302">
				<ele>73</ele>
				<time>2015-05-06T22:43:22Z</time>
				<extensions>
				</extensions>
			</trkpt>
			<trkpt lat="-27.896777" lon="153.158586">
				<ele>76</ele>
				<time>2015-05-06T22:43:24Z</time>
				<extensions>
				</extensions>
			</trkpt>
			<trkpt lat="-27.896930" lon="153.158731">
				<ele>76</ele>
				<time>2015-05-06T22:43:25Z</time>
				<extensions>
				</extensions>
			</trkpt>
			<trkpt lat="-27.897084" lon="153.158866">
				<ele>77</ele>
				<time>2015-05-06T22:43:26Z</time>
				<extensions>
				</extensions>
			</trkpt>
			<trkpt lat="-27.897278" lon="153.159001">
				<ele>79</ele>
				<time>2015-05-06T22:43:27Z</time>
				<extensions>
				</extensions>
			</trkpt>
			<trkpt lat="-27.897461" lon="153.159115">
				<ele>79</ele>
				<time>2015-05-06T22:43:28Z</time>
				<extensions>
				</extensions>
			</trkpt>
			<trkpt lat="-27.897631" lon="153.159231">
				<ele>78</ele>
				<time>2015-05-06T22:43:29Z</time>
				<extensions>
				</extensions>
			</trkpt>
			<trkpt lat="-27.897812" lon="153.159341">
				<ele>78</ele>
				<time>2015-05-06T22:43:30Z</time>
				<extensions>
				</extensions>
			</trkpt>
			<trkpt lat="-27.897985" lon="153.159471">
				<ele>79</ele>
				<time>2015-05-06T22:43:31Z</time>
				<extensions>
				</extensions>
			</trkpt>
			<trkpt lat="-27.898168" lon="153.159559">
				<ele>78</ele>
				<time>2015-05-06T22:43:32Z</time>
				<extensions>
				</extensions>
			</trkpt>
			<trkpt lat="-27.898347" lon="153.159638">
				<ele>79</ele>
				<time>2015-05-06T22:43:33Z</time>
				<extensions>
				</extensions>
			</trkpt>
			<trkpt lat="-27.898531" lon="153.159720">
				<ele>79</ele>
				<time>2015-05-06T22:43:34Z</time>
				<extensions>
				</extensions>
			</trkpt>
			<trkpt lat="-27.898701" lon="153.159818">
				<ele>80</ele>
				<time>2015-05-06T22:43:35Z</time>
				<extensions>
				</extensions>
			</trkpt>
			<trkpt lat="-27.898867" lon="153.159915">
				<ele>80</ele>
				<time>2015-05-06T22:43:36Z</time>
				<extensions>
				</extensions>
			</trkpt>
			<trkpt lat="-27.899031" lon="153.160027">
				<ele>81</ele>
				<time>2015-05-06T22:43:37Z</time>
				<extensions>
				</extensions>
			</trkpt>
			<trkpt lat="-27.899185" lon="153.160138">
				<ele>82</ele>
				<time>2015-05-06T22:43:38Z</time>
				<extensions>
				</extensions>
			</trkpt>
			<trkpt lat="-27.899342" lon="153.160277">
				<ele>83</ele>
				<time>2015-05-06T22:43:39Z</time>
				<extensions>
				</extensions>
			</trkpt>
			<trkpt lat="-27.899491" lon="153.160408">
				<ele>84</ele>
				<time>2015-05-06T22:43:40Z</time>
				<extensions>
				</extensions>
			</trkpt>
			<trkpt lat="-27.899616" lon="153.160571">
				<ele>84</ele>
				<time>2015-05-06T22:43:41Z</time>
				<extensions>
				</extensions>
			</trkpt>
			<trkpt lat="-27.899735" lon="153.160747">
				<ele>86</ele>
				<time>2015-05-06T22:43:42Z</time>
				<extensions>
				</extensions>
			</trkpt>
			<trkpt lat="-27.899826" lon="153.160938">
				<ele>87</ele>
				<time>2015-05-06T22:43:43Z</time>
				<extensions>
				</extensions>
			</trkpt>
			<trkpt lat="-27.899909" lon="153.161131">
				<ele>87</ele>
				<time>2015-05-06T22:43:44Z</time>
				<extensions>
				</extensions>
			</trkpt>
			<trkpt lat="-27.899990" lon="153.161317">
				<ele>87</ele>
				<time>2015-05-06T22:43:45Z</time>
				<extensions>
				</extensions>
			</trkpt>
			<trkpt lat="-27.900056" lon="153.161526">
				<ele>88</ele>
				<time>2015-05-06T22:43:46Z</time>
				<extensions>
				</extensions>
			</trkpt>
			<trkpt lat="-27.900131" lon="153.161739">
				<ele>89</ele>
				<time>2015-05-06T22:43:47Z</time>
				<extensions>
				</extensions>
			</trkpt>
			<trkpt lat="-27.900195" lon="153.161941">
				<ele>90</ele>
				<time>2015-05-06T22:43:48Z</time>
				<extensions>
				</extensions>
			</trkpt>
			<trkpt lat="-27.900247" lon="153.162144">
				<ele>91</ele>
				<time>2015-05-06T22:43:49Z</time>
				<extensions>
				</extensions>
			</trkpt>
			<trkpt lat="-27.900330" lon="153.162356">
				<ele>92</ele>
				<time>2015-05-06T22:43:50Z</time>
				<extensions>
				</extensions>
			</trkpt>
			<trkpt lat="-27.900444" lon="153.162592">
				<ele>91</ele>
				<time>2015-05-06T22:43:51Z</time>
				<extensions>
				</extensions>
			</trkpt>
			<trkpt lat="-27.900544" lon="153.162774">
				<ele>91</ele>
				<time>2015-05-06T22:43:52Z</time>
				<extensions>
				</extensions>
			</trkpt>
			<trkpt lat="-27.900791" lon="153.163098">
				<ele>94</ele>
				<time>2015-05-06T22:43:54Z</time>
				<extensions>
				</extensions>
			</trkpt>
			<trkpt lat="-27.900933" lon="153.163233">
				<ele>94</ele>
				<time>2015-05-06T22:43:55Z</time>
				<extensions>
				</extensions>
			</trkpt>
			<trkpt lat="-27.901081" lon="153.163354">
				<ele>94</ele>
				<time>2015-05-06T22:43:56Z</time>
				<extensions>
				</extensions>
			</trkpt>
			<trkpt lat="-27.901234" lon="153.163468">
				<ele>95</ele>
				<time>2015-05-06T22:43:57Z</time>
				<extensions>
				</extensions>
			</trkpt>
			<trkpt lat="-27.901387" lon="153.163580">
				<ele>95</ele>
				<time>2015-05-06T22:43:58Z</time>
				<extensions>
				</extensions>
			</trkpt>
			<trkpt lat="-27.901678" lon="153.163804">
				<ele>98</ele>
				<time>2015-05-06T22:44:00Z</time>
				<extensions>
				</extensions>
			</trkpt>
			<trkpt lat="-27.901947" lon="153.164013">
				<ele>99</ele>
				<time>2015-05-06T22:44:02Z</time>
				<extensions>
				</extensions>
			</trkpt>
			<trkpt lat="-27.902205" lon="153.164214">
				<ele>99</ele>
				<time>2015-05-06T22:44:04Z</time>
				<extensions>
				</extensions>
			</trkpt>
			<trkpt lat="-27.902456" lon="153.164400">
				<ele>101</ele>
				<time>2015-05-06T22:44:06Z</time>
				<extensions>
				</extensions>
			</trkpt>
			<trkpt lat="-27.902703" lon="153.164582">
				<ele>102</ele>
				<time>2015-05-06T22:44:08Z</time>
				<extensions>
				</extensions>
			</trkpt>
			<trkpt lat="-27.902963" lon="153.164721">
				<ele>102</ele>
				<time>2015-05-06T22:44:10Z</time>
				<extensions>
				</extensions>
			</trkpt>
			<trkpt lat="-27.903200" lon="153.164791">
				<ele>103</ele>
				<time>2015-05-06T22:44:12Z</time>
				<extensions>
				</extensions>
			</trkpt>
			<trkpt lat="-27.903430" lon="153.164707">
				<ele>104</ele>
				<time>2015-05-06T22:44:14Z</time>
				<extensions>
				</extensions>
			</trkpt>
			<trkpt lat="-27.903663" lon="153.164611">
				<ele>105</ele>
				<time>2015-05-06T22:44:16Z</time>
				<extensions>
				</extensions>
			</trkpt>
			<trkpt lat="-27.903871" lon="153.164623">
				<ele>107</ele>
				<time>2015-05-06T22:44:18Z</time>
				<extensions>
				</extensions>
			</trkpt>
			<trkpt lat="-27.904014" lon="153.164807">
				<ele>108</ele>
				<time>2015-05-06T22:44:20Z</time>
				<extensions>
				</extensions>
			</trkpt>
			<trkpt lat="-27.904095" lon="153.165013">
				<ele>108</ele>
				<time>2015-05-06T22:44:22Z</time>
				<extensions>
				</extensions>
			</trkpt>
			<trkpt lat="-27.903974" lon="153.165255">
				<ele>112</ele>
				<time>2015-05-06T22:44:25Z</time>
				<extensions>
				</extensions>
			</trkpt>
			<trkpt lat="-27.903731" lon="153.165302">
				<ele>115</ele>
				<time>2015-05-06T22:44:27Z</time>
				<extensions>
				</extensions>
			</trkpt>
			<trkpt lat="-27.903386" lon="153.165276">
				<ele>119</ele>
				<time>2015-05-06T22:44:29Z</time>
				<extensions>
				</extensions>
			</trkpt>
			<trkpt lat="-27.903096" lon="153.165271">
				<ele>121</ele>
				<time>2015-05-06T22:44:31Z</time>
				<extensions>
				</extensions>
			</trkpt>
			<trkpt lat="-27.902809" lon="153.165251">
				<ele>123</ele>
				<time>2015-05-06T22:44:33Z</time>
				<extensions>
				</extensions>
			</trkpt>
			<trkpt lat="-27.902547" lon="153.165232">
				<ele>125</ele>
				<time>2015-05-06T22:44:35Z</time>
				<extensions>
				</extensions>
			</trkpt>
			<trkpt lat="-27.902282" lon="153.165221">
				<ele>126</ele>
				<time>2015-05-06T22:44:37Z</time>
				<extensions>
				</extensions>
			</trkpt>
			<trkpt lat="-27.902006" lon="153.165262">
				<ele>129</ele>
				<time>2015-05-06T22:44:39Z</time>
				<extensions>
				</extensions>
			</trkpt>
			<trkpt lat="-27.901708" lon="153.165338">
				<ele>129</ele>
				<time>2015-05-06T22:44:41Z</time>
				<extensions>
				</extensions>
			</trkpt>
			<trkpt lat="-27.901471" lon="153.165456">
				<ele>130</ele>
				<time>2015-05-06T22:44:43Z</time>
				<extensions>
				</extensions>
			</trkpt>
			<trkpt lat="-27.901301" lon="153.165644">
				<ele>132</ele>
				<time>2015-05-06T22:44:45Z</time>
				<extensions>
				</extensions>
			</trkpt>
			<trkpt lat="-27.901132" lon="153.165892">
				<ele>135</ele>
				<time>2015-05-06T22:44:47Z</time>
				<extensions>
				</extensions>
			</trkpt>
			<trkpt lat="-27.901036" lon="153.166226">
				<ele>136</ele>
				<time>2015-05-06T22:44:49Z</time>
				<extensions>
				</extensions>
			</trkpt>
			<trkpt lat="-27.901006" lon="153.166511">
				<ele>137</ele>
				<time>2015-05-06T22:44:51Z</time>
				<extensions>
				</extensions>
			</trkpt>
			<trkpt lat="-27.901054" lon="153.166830">
				<ele>139</ele>
				<time>2015-05-06T22:44:53Z</time>
				<extensions>
				</extensions>
			</trkpt>
			<trkpt lat="-27.901174" lon="153.167131">
				<ele>141</ele>
				<time>2015-05-06T22:44:55Z</time>
				<extensions>
				</extensions>
			</trkpt>
			<trkpt lat="-27.901340" lon="153.167435">
				<ele>146</ele>
				<time>2015-05-06T22:44:57Z</time>
				<extensions>
				</extensions>
			</trkpt>
			<trkpt lat="-27.901524" lon="153.167766">
				<ele>149</ele>
				<time>2015-05-06T22:44:59Z</time>
				<extensions>
				</extensions>
			</trkpt>
			<trkpt lat="-27.901695" lon="153.168076">
				<ele>152</ele>
				<time>2015-05-06T22:45:01Z</time>
				<extensions>
				</extensions>
			</trkpt>
			<trkpt lat="-27.901859" lon="153.168369">
				<ele>154</ele>
				<time>2015-05-06T22:45:03Z</time>
				<extensions>
				</extensions>
			</trkpt>
			<trkpt lat="-27.902033" lon="153.168679">
				<ele>158</ele>
				<time>2015-05-06T22:45:05Z</time>
				<extensions>
				</extensions>
			</trkpt>
			<trkpt lat="-27.902211" lon="153.168973">
				<ele>160</ele>
				<time>2015-05-06T22:45:07Z</time>
				<extensions>
				</extensions>
			</trkpt>
			<trkpt lat="-27.902395" lon="153.169259">
				<ele>162</ele>
				<time>2015-05-06T22:45:09Z</time>
				<extensions>
				</extensions>
			</trkpt>
			<trkpt lat="-27.902563" lon="153.169532">
				<ele>164</ele>
				<time>2015-05-06T22:45:11Z</time>
				<extensions>
				</extensions>
			</trkpt>
			<trkpt lat="-27.902665" lon="153.169857">
				<ele>166</ele>
				<time>2015-05-06T22:45:13Z</time>
				<extensions>
				</extensions>
			</trkpt>
			<trkpt lat="-27.902653" lon="153.170189">
				<ele>169</ele>
				<time>2015-05-06T22:45:15Z</time>
				<extensions>
				</extensions>
			</trkpt>
			<trkpt lat="-27.902543" lon="153.170530">
				<ele>173</ele>
				<time>2015-05-06T22:45:17Z</time>
				<extensions>
				</extensions>
			</trkpt>
			<trkpt lat="-27.902385" lon="153.170839">
				<ele>176</ele>
				<time>2015-05-06T22:45:19Z</time>
				<extensions>
				</extensions>
			</trkpt>
			<trkpt lat="-27.902319" lon="153.171136">
				<ele>177</ele>
				<time>2015-05-06T22:45:21Z</time>
				<extensions>
				</extensions>
			</trkpt>
			<trkpt lat="-27.902375" lon="153.171477">
				<ele>179</ele>
				<time>2015-05-06T22:45:23Z</time>
				<extensions>
				</extensions>
			</trkpt>
			<trkpt lat="-27.902450" lon="153.171773">
				<ele>182</ele>
				<time>2015-05-06T22:45:25Z</time>
				<extensions>
				</extensions>
			</trkpt>
			<trkpt lat="-27.902555" lon="153.172090">
				<ele>185</ele>
				<time>2015-05-06T22:45:27Z</time>
				<extensions>
				</extensions>
			</trkpt>
			<trkpt lat="-27.902642" lon="153.172410">
				<ele>186</ele>
				<time>2015-05-06T22:45:29Z</time>
				<extensions>
				</extensions>
			</trkpt>
			<trkpt lat="-27.902693" lon="153.172673">
				<ele>187</ele>
				<time>2015-05-06T22:45:31Z</time>
				<extensions>
				</extensions>
			</trkpt>
			<trkpt lat="-27.902735" lon="153.172922">
				<ele>187</ele>
				<time>2015-05-06T22:45:33Z</time>
				<extensions>
				</extensions>
			</trkpt>
			<trkpt lat="-27.902798" lon="153.173151">
				<ele>189</ele>
				<time>2015-05-06T22:45:35Z</time>
				<extensions>
				</extensions>
			</trkpt>
			<trkpt lat="-27.902939" lon="153.173325">
				<ele>190</ele>
				<time>2015-05-06T22:45:37Z</time>
				<extensions>
				</extensions>
			</trkpt>
			<trkpt lat="-27.903152" lon="153.173376">
				<ele>192</ele>
				<time>2015-05-06T22:45:39Z</time>
				<extensions>
				</extensions>
			</trkpt>
			<trkpt lat="-27.903375" lon="153.173416">
				<ele>193</ele>
				<time>2015-05-06T22:45:41Z</time>
				<extensions>
				</extensions>
			</trkpt>
			<trkpt lat="-27.903536" lon="153.173636">
				<ele>196</ele>
				<time>2015-05-06T22:45:44Z</time>
				<extensions>
				</extensions>
			</trkpt>
			<trkpt lat="-27.903504" lon="153.173928">
				<ele>199</ele>
				<time>2015-05-06T22:45:46Z</time>
				<extensions>
				</extensions>
			</trkpt>
			<trkpt lat="-27.903437" lon="153.174215">
				<ele>201</ele>
				<time>2015-05-06T22:45:48Z</time>
				<extensions>
				</extensions>
			</trkpt>
			<trkpt lat="-27.903332" lon="153.174474">
				<ele>202</ele>
				<time>2015-05-06T22:45:50Z</time>
				<extensions>
				</extensions>
			</trkpt>
			<trkpt lat="-27.903211" lon="153.174703">
				<ele>204</ele>
				<time>2015-05-06T22:45:52Z</time>
				<extensions>
				</extensions>
			</trkpt>
			<trkpt lat="-27.903138" lon="153.174962">
				<ele>206</ele>
				<time>2015-05-06T22:45:54Z</time>
				<extensions>
				</extensions>
			</trkpt>
			<trkpt lat="-27.903074" lon="153.175210">
				<ele>208</ele>
				<time>2015-05-06T22:45:56Z</time>
				<extensions>
				</extensions>
			</trkpt>
			<trkpt lat="-27.902946" lon="153.175443">
				<ele>210</ele>
				<time>2015-05-06T22:45:58Z</time>
				<extensions>
				</extensions>
			</trkpt>
			<trkpt lat="-27.902817" lon="153.175656">
				<ele>212</ele>
				<time>2015-05-06T22:46:00Z</time>
				<extensions>
				</extensions>
			</trkpt>
			<trkpt lat="-27.902725" lon="153.175904">
				<ele>215</ele>
				<time>2015-05-06T22:46:02Z</time>
				<extensions>
				</extensions>
			</trkpt>
			<trkpt lat="-27.902673" lon="153.176185">
				<ele>216</ele>
				<time>2015-05-06T22:46:04Z</time>
				<extensions>
				</extensions>
			</trkpt>
			<trkpt lat="-27.902629" lon="153.176430">
				<ele>218</ele>
				<time>2015-05-06T22:46:06Z</time>
				<extensions>
				</extensions>
			</trkpt>
			<trkpt lat="-27.902542" lon="153.176678">
				<ele>219</ele>
				<time>2015-05-06T22:46:08Z</time>
				<extensions>
				</extensions>
			</trkpt>
			<trkpt lat="-27.902392" lon="153.176929">
				<ele>220</ele>
				<time>2015-05-06T22:46:10Z</time>
				<extensions>
				</extensions>
			</trkpt>
			<trkpt lat="-27.902177" lon="153.177147">
				<ele>223</ele>
				<time>2015-05-06T22:46:12Z</time>
				<extensions>
				</extensions>
			</trkpt>
			<trkpt lat="-27.901975" lon="153.177329">
				<ele>227</ele>
				<time>2015-05-06T22:46:14Z</time>
				<extensions>
				</extensions>
			</trkpt>
			<trkpt lat="-27.901836" lon="153.177462">
				<ele>229</ele>
				<time>2015-05-06T22:46:15Z</time>
				<extensions>
				</extensions>
			</trkpt>
			<trkpt lat="-27.901603" lon="153.177655">
				<ele>232</ele>
				<time>2015-05-06T22:46:17Z</time>
				<extensions>
				</extensions>
			</trkpt>
			<trkpt lat="-27.901351" lon="153.177864">
				<ele>234</ele>
				<time>2015-05-06T22:46:19Z</time>
				<extensions>
				</extensions>
			</trkpt>
			<trkpt lat="-27.901118" lon="153.178033">
				<ele>235</ele>
				<time>2015-05-06T22:46:21Z</time>
				<extensions>
				</extensions>
			</trkpt>
			<trkpt lat="-27.900891" lon="153.178224">
				<ele>237</ele>
				<time>2015-05-06T22:46:23Z</time>
				<extensions>
				</extensions>
			</trkpt>
			<trkpt lat="-27.900690" lon="153.178381">
				<ele>238</ele>
				<time>2015-05-06T22:46:25Z</time>
				<extensions>
				</extensions>
			</trkpt>
			<trkpt lat="-27.900521" lon="153.178507">
				<ele>238</ele>
				<time>2015-05-06T22:46:27Z</time>
				<extensions>
				</extensions>
			</trkpt>
			<trkpt lat="-27.900402" lon="153.178761">
				<ele>238</ele>
				<time>2015-05-06T22:46:30Z</time>
				<extensions>
				</extensions>
			</trkpt>
			<trkpt lat="-27.900522" lon="153.179035">
				<ele>241</ele>
				<time>2015-05-06T22:46:33Z</time>
				<extensions>
				</extensions>
			</trkpt>
			<trkpt lat="-27.900802" lon="153.179143">
				<ele>244</ele>
				<time>2015-05-06T22:46:36Z</time>
				<extensions>
				</extensions>
			</trkpt>
			<trkpt lat="-27.901054" lon="153.179189">
				<ele>247</ele>
				<time>2015-05-06T22:46:38Z</time>
				<extensions>
				</extensions>
			</trkpt>
			<trkpt lat="-27.901284" lon="153.179239">
				<ele>249</ele>
				<time>2015-05-06T22:46:40Z</time>
				<extensions>
				</extensions>
			</trkpt>
			<trkpt lat="-27.901530" lon="153.179331">
				<ele>253</ele>
				<time>2015-05-06T22:46:42Z</time>
				<extensions>
				</extensions>
			</trkpt>
			<trkpt lat="-27.901818" lon="153.179368">
				<ele>256</ele>
				<time>2015-05-06T22:46:44Z</time>
				<extensions>
				</extensions>
			</trkpt>
			<trkpt lat="-27.902125" lon="153.179423">
				<ele>259</ele>
				<time>2015-05-06T22:46:46Z</time>
				<extensions>
				</extensions>
			</trkpt>
			<trkpt lat="-27.902415" lon="153.179482">
				<ele>260</ele>
				<time>2015-05-06T22:46:48Z</time>
				<extensions>
				</extensions>
			</trkpt>
			<trkpt lat="-27.902694" lon="153.179611">
				<ele>262</ele>
				<time>2015-05-06T22:46:50Z</time>
				<extensions>
				</extensions>
			</trkpt>
			<trkpt lat="-27.902960" lon="153.179769">
				<ele>264</ele>
				<time>2015-05-06T22:46:52Z</time>
				<extensions>
				</extensions>
			</trkpt>
			<trkpt lat="-27.903251" lon="153.179928">
				<ele>267</ele>
				<time>2015-05-06T22:46:54Z</time>
				<extensions>
				</extensions>
			</trkpt>
			<trkpt lat="-27.903527" lon="153.180034">
				<ele>270</ele>
				<time>2015-05-06T22:46:56Z</time>
				<extensions>
				</extensions>
			</trkpt>
			<trkpt lat="-27.903811" lon="153.180073">
				<ele>271</ele>
				<time>2015-05-06T22:46:58Z</time>
				<extensions>
				</extensions>
			</trkpt>
			<trkpt lat="-27.904059" lon="153.179981">
				<ele>272</ele>
				<time>2015-05-06T22:47:00Z</time>
				<extensions>
				</extensions>
			</trkpt>
			<trkpt lat="-27.904296" lon="153.179957">
				<ele>272</ele>
				<time>2015-05-06T22:47:02Z</time>
				<extensions>
				</extensions>
			</trkpt>
			<trkpt lat="-27.904512" lon="153.179899">
				<ele>274</ele>
				<time>2015-05-06T22:47:04Z</time>
				<extensions>
				</extensions>
			</trkpt>
			<trkpt lat="-27.904744" lon="153.179915">
				<ele>276</ele>
				<time>2015-05-06T22:47:06Z</time>
				<extensions>
				</extensions>
			</trkpt>
			<trkpt lat="-27.904954" lon="153.180033">
				<ele>278</ele>
				<time>2015-05-06T22:47:08Z</time>
				<extensions>
				</extensions>
			</trkpt>
			<trkpt lat="-27.905198" lon="153.180140">
				<ele>280</ele>
				<time>2015-05-06T22:47:10Z</time>
				<extensions>
				</extensions>
			</trkpt>
			<trkpt lat="-27.905452" lon="153.180184">
				<ele>282</ele>
				<time>2015-05-06T22:47:12Z</time>
				<extensions>
				</extensions>
			</trkpt>
			<trkpt lat="-27.905687" lon="153.180270">
				<ele>285</ele>
				<time>2015-05-06T22:47:14Z</time>
				<extensions>
				</extensions>
			</trkpt>
			<trkpt lat="-27.905842" lon="153.180458">
				<ele>289</ele>
				<time>2015-05-06T22:47:16Z</time>
				<extensions>
				</extensions>
			</trkpt>
			<trkpt lat="-27.905940" lon="153.180798">
				<ele>293</ele>
				<time>2015-05-06T22:47:18Z</time>
				<extensions>
				</extensions>
			</trkpt>
			<trkpt lat="-27.906037" lon="153.181105">
				<ele>294</ele>
				<time>2015-05-06T22:47:20Z</time>
				<extensions>
				</extensions>
			</trkpt>
			<trkpt lat="-27.906146" lon="153.181366">
				<ele>294</ele>
				<time>2015-05-06T22:47:22Z</time>
				<extensions>
				</extensions>
			</trkpt>
			<trkpt lat="-27.906282" lon="153.181594">
				<ele>296</ele>
				<time>2015-05-06T22:47:24Z</time>
				<extensions>
				</extensions>
			</trkpt>
			<trkpt lat="-27.906534" lon="153.181788">
				<ele>299</ele>
				<time>2015-05-06T22:47:26Z</time>
				<extensions>
				</extensions>
			</trkpt>
			<trkpt lat="-27.906816" lon="153.181958">
				<ele>301</ele>
				<time>2015-05-06T22:47:28Z</time>
				<extensions>
				</extensions>
			</trkpt>
			<trkpt lat="-27.907093" lon="153.182142">
				<ele>302</ele>
				<time>2015-05-06T22:47:30Z</time>
				<extensions>
				</extensions>
			</trkpt>
			<trkpt lat="-27.907349" lon="153.182352">
				<ele>305</ele>
				<time>2015-05-06T22:47:32Z</time>
				<extensions>
				</extensions>
			</trkpt>
			<trkpt lat="-27.907616" lon="153.182568">
				<ele>308</ele>
				<time>2015-05-06T22:47:34Z</time>
				<extensions>
				</extensions>
			</trkpt>
			<trkpt lat="-27.907873" lon="153.182777">
				<ele>309</ele>
				<time>2015-05-06T22:47:36Z</time>
				<extensions>
				</extensions>
			</trkpt>
			<trkpt lat="-27.908129" lon="153.182980">
				<ele>310</ele>
				<time>2015-05-06T22:47:38Z</time>
				<extensions>
				</extensions>
			</trkpt>
			<trkpt lat="-27.908386" lon="153.183170">
				<ele>312</ele>
				<time>2015-05-06T22:47:40Z</time>
				<extensions>
				</extensions>
			</trkpt>
			<trkpt lat="-27.908632" lon="153.183370">
				<ele>314</ele>
				<time>2015-05-06T22:47:42Z</time>
				<extensions>
				</extensions>
			</trkpt>
			<trkpt lat="-27.908875" lon="153.183555">
				<ele>315</ele>
				<time>2015-05-06T22:47:44Z</time>
				<extensions>
				</extensions>
			</trkpt>
			<trkpt lat="-27.909094" lon="153.183751">
				<ele>317</ele>
				<time>2015-05-06T22:47:46Z</time>
				<extensions>
				</extensions>
			</trkpt>
			<trkpt lat="-27.909281" lon="153.183935">
				<ele>316</ele>
				<time>2015-05-06T22:47:48Z</time>
				<extensions>
				</extensions>
			</trkpt>
			<trkpt lat="-27.909421" lon="153.184174">
				<ele>318</ele>
				<time>2015-05-06T22:47:50Z</time>
				<extensions>
				</extensions>
			</trkpt>
			<trkpt lat="-27.909444" lon="153.184447">
				<ele>320</ele>
				<time>2015-05-06T22:47:52Z</time>
				<extensions>
				</extensions>
			</trkpt>
			<trkpt lat="-27.909426" lon="153.184732">
				<ele>321</ele>
				<time>2015-05-06T22:47:54Z</time>
				<extensions>
				</extensions>
			</trkpt>
			<trkpt lat="-27.909370" lon="153.185002">
				<ele>321</ele>
				<time>2015-05-06T22:47:56Z</time>
				<extensions>
				</extensions>
			</trkpt>
			<trkpt lat="-27.909241" lon="153.185176">
				<ele>321</ele>
				<time>2015-05-06T22:47:58Z</time>
				<extensions>
				</extensions>
			</trkpt>
			<trkpt lat="-27.909121" lon="153.185411">
				<ele>322</ele>
				<time>2015-05-06T22:48:01Z</time>
				<extensions>
				</extensions>
			</trkpt>
			<trkpt lat="-27.909282" lon="153.185678">
				<ele>324</ele>
				<time>2015-05-06T22:48:04Z</time>
				<extensions>
				</extensions>
			</trkpt>
			<trkpt lat="-27.909476" lon="153.185705">
				<ele>325</ele>
				<time>2015-05-06T22:48:06Z</time>
				<extensions>
				</extensions>
			</trkpt>
			<trkpt lat="-27.909652" lon="153.185645">
				<ele>326</ele>
				<time>2015-05-06T22:48:08Z</time>
				<extensions>
				</extensions>
			</trkpt>
			<trkpt lat="-27.909757" lon="153.185431">
				<ele>329</ele>
				<time>2015-05-06T22:48:10Z</time>
				<extensions>
				</extensions>
			</trkpt>
			<trkpt lat="-27.909841" lon="153.185165">
				<ele>331</ele>
				<time>2015-05-06T22:48:12Z</time>
				<extensions>
				</extensions>
			</trkpt>
			<trkpt lat="-27.909939" lon="153.184947">
				<ele>331</ele>
				<time>2015-05-06T22:48:14Z</time>
				<extensions>
				</extensions>
			</trkpt>
			<trkpt lat="-27.909986" lon="153.184693">
				<ele>332</ele>
				<time>2015-05-06T22:48:16Z</time>
				<extensions>
				</extensions>
			</trkpt>
			<trkpt lat="-27.909977" lon="153.184417">
				<ele>332</ele>
				<time>2015-05-06T22:48:18Z</time>
				<extensions>
				</extensions>
			</trkpt>
			<trkpt lat="-27.909891" lon="153.184160">
				<ele>335</ele>
				<time>2015-05-06T22:48:20Z</time>
				<extensions>
				</extensions>
			</trkpt>
			<trkpt lat="-27.909803" lon="153.183852">
				<ele>337</ele>
				<time>2015-05-06T22:48:22Z</time>
				<extensions>
				</extensions>
			</trkpt>
			<trkpt lat="-27.909665" lon="153.183574">
				<ele>336</ele>
				<time>2015-05-06T22:48:24Z</time>
				<extensions>
				</extensions>
			</trkpt>
			<trkpt lat="-27.909560" lon="153.183305">
				<ele>335</ele>
				<time>2015-05-06T22:48:26Z</time>
				<extensions>
				</extensions>
			</trkpt>
			<trkpt lat="-27.909589" lon="153.183091">
				<ele>336</ele>
				<time>2015-05-06T22:48:28Z</time>
				<extensions>
				</extensions>
			</trkpt>
			<trkpt lat="-27.909625" lon="153.182856">
				<ele>336</ele>
				<time>2015-05-06T22:48:30Z</time>
				<extensions>
				</extensions>
			</trkpt>
			<trkpt lat="-27.909585" lon="153.182629">
				<ele>337</ele>
				<time>2015-05-06T22:48:32Z</time>
				<extensions>
				</extensions>
			</trkpt>
			<trkpt lat="-27.909439" lon="153.182342">
				<ele>338</ele>
				<time>2015-05-06T22:48:35Z</time>
				<extensions>
				</extensions>
			</trkpt>
			<trkpt lat="-27.909398" lon="153.182081">
				<ele>338</ele>
				<time>2015-05-06T22:48:38Z</time>
				<extensions>
				</extensions>
			</trkpt>
			<trkpt lat="-27.909584" lon="153.181878">
				<ele>341</ele>
				<time>2015-05-06T22:48:41Z</time>
				<extensions>
				</extensions>
			</trkpt>
			<trkpt lat="-27.909773" lon="153.181909">
				<ele>343</ele>
				<time>2015-05-06T22:48:43Z</time>
				<extensions>
				</extensions>
			</trkpt>
			<trkpt lat="-27.909924" lon="153.182084">
				<ele>346</ele>
				<time>2015-05-06T22:48:45Z</time>
				<extensions>
				</extensions>
			</trkpt>
			<trkpt lat="-27.909954" lon="153.182306">
				<ele>347</ele>
				<time>2015-05-06T22:48:47Z</time>
				<extensions>
				</extensions>
			</trkpt>
			<trkpt lat="-27.909947" lon="153.182555">
				<ele>349</ele>
				<time>2015-05-06T22:48:49Z</time>
				<extensions>
				</extensions>
			</trkpt>
			<trkpt lat="-27.909934" lon="153.182829">
				<ele>350</ele>
				<time>2015-05-06T22:48:51Z</time>
				<extensions>
				</extensions>
			</trkpt>
			<trkpt lat="-27.909911" lon="153.183069">
				<ele>350</ele>
				<time>2015-05-06T22:48:53Z</time>
				<extensions>
				</extensions>
			</trkpt>
			<trkpt lat="-27.909990" lon="153.183330">
				<ele>352</ele>
				<time>2015-05-06T22:48:55Z</time>
				<extensions>
				</extensions>
			</trkpt>
			<trkpt lat="-27.910135" lon="153.183542">
				<ele>354</ele>
				<time>2015-05-06T22:48:57Z</time>
				<extensions>
				</extensions>
			</trkpt>
			<trkpt lat="-27.910296" lon="153.183709">
				<ele>355</ele>
				<time>2015-05-06T22:48:59Z</time>
				<extensions>
				</extensions>
			</trkpt>
			<trkpt lat="-27.910482" lon="153.183873">
				<ele>357</ele>
				<time>2015-05-06T22:49:01Z</time>
				<extensions>
				</extensions>
			</trkpt>
			<trkpt lat="-27.910650" lon="153.184057">
				<ele>358</ele>
				<time>2015-05-06T22:49:03Z</time>
				<extensions>
				</extensions>
			</trkpt>
			<trkpt lat="-27.910756" lon="153.184298">
				<ele>360</ele>
				<time>2015-05-06T22:49:05Z</time>
				<extensions>
				</extensions>
			</trkpt>
			<trkpt lat="-27.910812" lon="153.184519">
				<ele>361</ele>
				<time>2015-05-06T22:49:07Z</time>
				<extensions>
				</extensions>
			</trkpt>
			<trkpt lat="-27.910828" lon="153.184744">
				<ele>361</ele>
				<time>2015-05-06T22:49:09Z</time>
				<extensions>
				</extensions>
			</trkpt>
			<trkpt lat="-27.910788" lon="153.185012">
				<ele>363</ele>
				<time>2015-05-06T22:49:11Z</time>
				<extensions>
				</extensions>
			</trkpt>
			<trkpt lat="-27.910769" lon="153.185222">
				<ele>364</ele>
				<time>2015-05-06T22:49:13Z</time>
				<extensions>
				</extensions>
			</trkpt>
			<trkpt lat="-27.910885" lon="153.185409">
				<ele>364</ele>
				<time>2015-05-06T22:49:15Z</time>
				<extensions>
				</extensions>
			</trkpt>
			<trkpt lat="-27.911098" lon="153.185620">
				<ele>366</ele>
				<time>2015-05-06T22:49:18Z</time>
				<extensions>
				</extensions>
			</trkpt>
			<trkpt lat="-27.911319" lon="153.185774">
				<ele>367</ele>
				<time>2015-05-06T22:49:21Z</time>
				<extensions>
				</extensions>
			</trkpt>
			<trkpt lat="-27.911499" lon="153.185856">
				<ele>369</ele>
				<time>2015-05-06T22:49:23Z</time>
				<extensions>
				</extensions>
			</trkpt>
			<trkpt lat="-27.911710" lon="153.185898">
				<ele>371</ele>
				<time>2015-05-06T22:49:25Z</time>
				<extensions>
				</extensions>
			</trkpt>
			<trkpt lat="-27.911972" lon="153.185893">
				<ele>371</ele>
				<time>2015-05-06T22:49:27Z</time>
				<extensions>
				</extensions>
			</trkpt>
			<trkpt lat="-27.912169" lon="153.186056">
				<ele>374</ele>
				<time>2015-05-06T22:49:30Z</time>
				<extensions>
				</extensions>
			</trkpt>
			<trkpt lat="-27.912330" lon="153.186215">
				<ele>376</ele>
				<time>2015-05-06T22:49:32Z</time>
				<extensions>
				</extensions>
			</trkpt>
			<trkpt lat="-27.912457" lon="153.186368">
				<ele>376</ele>
				<time>2015-05-06T22:49:34Z</time>
				<extensions>
				</extensions>
			</trkpt>
			<trkpt lat="-27.912537" lon="153.186550">
				<ele>377</ele>
				<time>2015-05-06T22:49:36Z</time>
				<extensions>
				</extensions>
			</trkpt>
			<trkpt lat="-27.912679" lon="153.186766">
				<ele>378</ele>
				<time>2015-05-06T22:49:39Z</time>
				<extensions>
				</extensions>
			</trkpt>
			<trkpt lat="-27.912932" lon="153.186859">
				<ele>380</ele>
				<time>2015-05-06T22:49:42Z</time>
				<extensions>
				</extensions>
			</trkpt>
			<trkpt lat="-27.913157" lon="153.186955">
				<ele>382</ele>
				<time>2015-05-06T22:49:44Z</time>
				<extensions>
				</extensions>
			</trkpt>
			<trkpt lat="-27.913379" lon="153.187045">
				<ele>384</ele>
				<time>2015-05-06T22:49:46Z</time>
				<extensions>
				</extensions>
			</trkpt>
			<trkpt lat="-27.913585" lon="153.187178">
				<ele>385</ele>
				<time>2015-05-06T22:49:48Z</time>
				<extensions>
				</extensions>
			</trkpt>
			<trkpt lat="-27.913731" lon="153.187352">
				<ele>386</ele>
				<time>2015-05-06T22:49:50Z</time>
				<extensions>
				</extensions>
			</trkpt>
			<trkpt lat="-27.913921" lon="153.187533">
				<ele>387</ele>
				<time>2015-05-06T22:49:52Z</time>
				<extensions>
				</extensions>
			</trkpt>
			<trkpt lat="-27.914098" lon="153.187606">
				<ele>388</ele>
				<time>2015-05-06T22:49:54Z</time>
				<extensions>
				</extensions>
			</trkpt>
			<trkpt lat="-27.914324" lon="153.187649">
				<ele>390</ele>
				<time>2015-05-06T22:49:56Z</time>
				<extensions>
				</extensions>
			</trkpt>
			<trkpt lat="-27.914493" lon="153.187755">
				<ele>391</ele>
				<time>2015-05-06T22:49:58Z</time>
				<extensions>
				</extensions>
			</trkpt>
			<trkpt lat="-27.914692" lon="153.187883">
				<ele>393</ele>
				<time>2015-05-06T22:50:00Z</time>
				<extensions>
				</extensions>
			</trkpt>
			<trkpt lat="-27.914885" lon="153.188039">
				<ele>394</ele>
				<time>2015-05-06T22:50:02Z</time>
				<extensions>
				</extensions>
			</trkpt>
			<trkpt lat="-27.915044" lon="153.188185">
				<ele>394</ele>
				<time>2015-05-06T22:50:04Z</time>
				<extensions>
				</extensions>
			</trkpt>
			<trkpt lat="-27.915226" lon="153.188377">
				<ele>395</ele>
				<time>2015-05-06T22:50:07Z</time>
				<extensions>
				</extensions>
			</trkpt>
			<trkpt lat="-27.915342" lon="153.188663">
				<ele>397</ele>
				<time>2015-05-06T22:50:10Z</time>
				<extensions>
				</extensions>
			</trkpt>
			<trkpt lat="-27.915421" lon="153.188881">
				<ele>397</ele>
				<time>2015-05-06T22:50:12Z</time>
				<extensions>
				</extensions>
			</trkpt>
			<trkpt lat="-27.915565" lon="153.189058">
				<ele>398</ele>
				<time>2015-05-06T22:50:14Z</time>
				<extensions>
				</extensions>
			</trkpt>
			<trkpt lat="-27.915800" lon="153.189088">
				<ele>402</ele>
				<time>2015-05-06T22:50:17Z</time>
				<extensions>
				</extensions>
			</trkpt>
			<trkpt lat="-27.916042" lon="153.189085">
				<ele>403</ele>
				<time>2015-05-06T22:50:19Z</time>
				<extensions>
				</extensions>
			</trkpt>
			<trkpt lat="-27.916260" lon="153.189158">
				<ele>405</ele>
				<time>2015-05-06T22:50:21Z</time>
				<extensions>
				</extensions>
			</trkpt>
			<trkpt lat="-27.916480" lon="153.189302">
				<ele>406</ele>
				<time>2015-05-06T22:50:23Z</time>
				<extensions>
				</extensions>
			</trkpt>
			<trkpt lat="-27.916699" lon="153.189399">
				<ele>407</ele>
				<time>2015-05-06T22:50:25Z</time>
				<extensions>
				</extensions>
			</trkpt>
			<trkpt lat="-27.916906" lon="153.189410">
				<ele>408</ele>
				<time>2015-05-06T22:50:27Z</time>
				<extensions>
				</extensions>
			</trkpt>
			<trkpt lat="-27.917065" lon="153.189275">
				<ele>409</ele>
				<time>2015-05-06T22:50:29Z</time>
				<extensions>
				</extensions>
			</trkpt>
			<trkpt lat="-27.917298" lon="153.189093">
				<ele>411</ele>
				<time>2015-05-06T22:50:32Z</time>
				<extensions>
				</extensions>
			</trkpt>
			<trkpt lat="-27.917556" lon="153.189086">
				<ele>414</ele>
				<time>2015-05-06T22:50:35Z</time>
				<extensions>
				</extensions>
			</trkpt>
			<trkpt lat="-27.917804" lon="153.189257">
				<ele>415</ele>
				<time>2015-05-06T22:50:37Z</time>
				<extensions>
				</extensions>
			</trkpt>
			<trkpt lat="-27.918002" lon="153.189420">
				<ele>418</ele>
				<time>2015-05-06T22:50:39Z</time>
				<extensions>
				</extensions>
			</trkpt>
			<trkpt lat="-27.918193" lon="153.189576">
				<ele>418</ele>
				<time>2015-05-06T22:50:41Z</time>
				<extensions>
				</extensions>
			</trkpt>
			<trkpt lat="-27.918404" lon="153.189691">
				<ele>418</ele>
				<time>2015-05-06T22:50:43Z</time>
				<extensions>
				</extensions>
			</trkpt>
			<trkpt lat="-27.918593" lon="153.189826">
				<ele>419</ele>
				<time>2015-05-06T22:50:45Z</time>
				<extensions>
				</extensions>
			</trkpt>
			<trkpt lat="-27.918759" lon="153.189979">
				<ele>421</ele>
				<time>2015-05-06T22:50:47Z</time>
				<extensions>
				</extensions>
			</trkpt>
			<trkpt lat="-27.918940" lon="153.190104">
				<ele>423</ele>
				<time>2015-05-06T22:50:49Z</time>
				<extensions>
				</extensions>
			</trkpt>
			<trkpt lat="-27.919122" lon="153.190237">
				<ele>424</ele>
				<time>2015-05-06T22:50:51Z</time>
				<extensions>
				</extensions>
			</trkpt>
			<trkpt lat="-27.919288" lon="153.190423">
				<ele>426</ele>
				<time>2015-05-06T22:50:53Z</time>
				<extensions>
				</extensions>
			</trkpt>
			<trkpt lat="-27.919375" lon="153.190649">
				<ele>427</ele>
				<time>2015-05-06T22:50:55Z</time>
				<extensions>
				</extensions>
			</trkpt>
			<trkpt lat="-27.919452" lon="153.190890">
				<ele>429</ele>
				<time>2015-05-06T22:50:57Z</time>
				<extensions>
				</extensions>
			</trkpt>
			<trkpt lat="-27.919599" lon="153.191071">
				<ele>430</ele>
				<time>2015-05-06T22:50:59Z</time>
				<extensions>
				</extensions>
			</trkpt>
			<trkpt lat="-27.919771" lon="153.191182">
				<ele>430</ele>
				<time>2015-05-06T22:51:01Z</time>
				<extensions>
				</extensions>
			</trkpt>
			<trkpt lat="-27.920041" lon="153.191277">
				<ele>431</ele>
				<time>2015-05-06T22:51:04Z</time>
				<extensions>
				</extensions>
			</trkpt>
			<trkpt lat="-27.920263" lon="153.191437">
				<ele>435</ele>
				<time>2015-05-06T22:51:07Z</time>
				<extensions>
				</extensions>
			</trkpt>
			<trkpt lat="-27.920383" lon="153.191641">
				<ele>435</ele>
				<time>2015-05-06T22:51:09Z</time>
				<extensions>
				</extensions>
			</trkpt>
			<trkpt lat="-27.920525" lon="153.191797">
				<ele>436</ele>
				<time>2015-05-06T22:51:11Z</time>
				<extensions>
				</extensions>
			</trkpt>
			<trkpt lat="-27.920724" lon="153.191881">
				<ele>438</ele>
				<time>2015-05-06T22:51:13Z</time>
				<extensions>
				</extensions>
			</trkpt>
			<trkpt lat="-27.920926" lon="153.191888">
				<ele>440</ele>
				<time>2015-05-06T22:51:15Z</time>
				<extensions>
				</extensions>
			</trkpt>
			<trkpt lat="-27.921133" lon="153.191887">
				<ele>440</ele>
				<time>2015-05-06T22:51:17Z</time>
				<extensions>
				</extensions>
			</trkpt>
			<trkpt lat="-27.921378" lon="153.191970">
				<ele>442</ele>
				<time>2015-05-06T22:51:19Z</time>
				<extensions>
				</extensions>
			</trkpt>
			<trkpt lat="-27.921540" lon="153.192131">
				<ele>443</ele>
				<time>2015-05-06T22:51:22Z</time>
				<extensions>
				</extensions>
			</trkpt>
			<trkpt lat="-27.921723" lon="153.192222">
				<ele>445</ele>
				<time>2015-05-06T22:51:24Z</time>
				<extensions>
				</extensions>
			</trkpt>
			<trkpt lat="-27.922050" lon="153.192264">
				<ele>447</ele>
				<time>2015-05-06T22:51:27Z</time>
				<extensions>
				</extensions>
			</trkpt>
			<trkpt lat="-27.922295" lon="153.192356">
				<ele>449</ele>
				<time>2015-05-06T22:51:30Z</time>
				<extensions>
				</extensions>
			</trkpt>
			<trkpt lat="-27.922526" lon="153.192493">
				<ele>451</ele>
				<time>2015-05-06T22:51:32Z</time>
				<extensions>
				</extensions>
			</trkpt>
			<trkpt lat="-27.922685" lon="153.192679">
				<ele>452</ele>
				<time>2015-05-06T22:51:34Z</time>
				<extensions>
				</extensions>
			</trkpt>
			<trkpt lat="-27.922812" lon="153.192829">
				<ele>452</ele>
				<time>2015-05-06T22:51:36Z</time>
				<extensions>
				</extensions>
			</trkpt>
			<trkpt lat="-27.922995" lon="153.192960">
				<ele>452</ele>
				<time>2015-05-06T22:51:38Z</time>
				<extensions>
				</extensions>
			</trkpt>
			<trkpt lat="-27.923267" lon="153.192967">
				<ele>454</ele>
				<time>2015-05-06T22:51:40Z</time>
				<extensions>
				</extensions>
			</trkpt>
			<trkpt lat="-27.923470" lon="153.192832">
				<ele>456</ele>
				<time>2015-05-06T22:51:43Z</time>
				<extensions>
				</extensions>
			</trkpt>
			<trkpt lat="-27.923704" lon="153.192759">
				<ele>459</ele>
				<time>2015-05-06T22:51:45Z</time>
				<extensions>
				</extensions>
			</trkpt>
			<trkpt lat="-27.924006" lon="153.192851">
				<ele>462</ele>
				<time>2015-05-06T22:51:48Z</time>
				<extensions>
				</extensions>
			</trkpt>
			<trkpt lat="-27.924236" lon="153.192930">
				<ele>462</ele>
				<time>2015-05-06T22:51:50Z</time>
				<extensions>
				</extensions>
			</trkpt>
			<trkpt lat="-27.924439" lon="153.192989">
				<ele>462</ele>
				<time>2015-05-06T22:51:52Z</time>
				<extensions>
				</extensions>
			</trkpt>
			<trkpt lat="-27.924651" lon="153.192967">
				<ele>464</ele>
				<time>2015-05-06T22:51:54Z</time>
				<extensions>
				</extensions>
			</trkpt>
			<trkpt lat="-27.924834" lon="153.192858">
				<ele>465</ele>
				<time>2015-05-06T22:51:56Z</time>
				<extensions>
				</extensions>
			</trkpt>
			<trkpt lat="-27.925112" lon="153.192706">
				<ele>466</ele>
				<time>2015-05-06T22:51:59Z</time>
				<extensions>
				</extensions>
			</trkpt>
			<trkpt lat="-27.925549" lon="153.192684">
				<ele>469</ele>
				<time>2015-05-06T22:52:05Z</time>
				<extensions>
				</extensions>
			</trkpt>
			<trkpt lat="-27.925705" lon="153.192468">
				<ele>470</ele>
				<time>2015-05-06T22:52:06Z</time>
				<extensions>
				</extensions>
			</trkpt>
			<trkpt lat="-27.925769" lon="153.192263">
				<ele>472</ele>
				<time>2015-05-06T22:52:08Z</time>
				<extensions>
				</extensions>
			</trkpt>
			<trkpt lat="-27.925836" lon="153.192066">
				<ele>474</ele>
				<time>2015-05-06T22:52:10Z</time>
				<extensions>
				</extensions>
			</trkpt>
			<trkpt lat="-27.926009" lon="153.191848">
				<ele>477</ele>
				<time>2015-05-06T22:52:13Z</time>
				<extensions>
				</extensions>
			</trkpt>
			<trkpt lat="-27.926211" lon="153.191723">
				<ele>479</ele>
				<time>2015-05-06T22:52:15Z</time>
				<extensions>
				</extensions>
			</trkpt>
			<trkpt lat="-27.926440" lon="153.191593">
				<ele>480</ele>
				<time>2015-05-06T22:52:17Z</time>
				<extensions>
				</extensions>
			</trkpt>
			<trkpt lat="-27.926700" lon="153.191444">
				<ele>482</ele>
				<time>2015-05-06T22:52:19Z</time>
				<extensions>
				</extensions>
			</trkpt>
			<trkpt lat="-27.926939" lon="153.191305">
				<ele>483</ele>
				<time>2015-05-06T22:52:21Z</time>
				<extensions>
				</extensions>
			</trkpt>
			<trkpt lat="-27.927189" lon="153.191160">
				<ele>484</ele>
				<time>2015-05-06T22:52:23Z</time>
				<extensions>
				</extensions>
			</trkpt>
			<trkpt lat="-27.927428" lon="153.190979">
				<ele>485</ele>
				<time>2015-05-06T22:52:25Z</time>
				<extensions>
				</extensions>
			</trkpt>
			<trkpt lat="-27.927570" lon="153.190724">
				<ele>485</ele>
				<time>2015-05-06T22:52:27Z</time>
				<extensions>
				</extensions>
			</trkpt>
			<trkpt lat="-27.927659" lon="153.190490">
				<ele>485</ele>
				<time>2015-05-06T22:52:29Z</time>
				<extensions>
				</extensions>
			</trkpt>
			<trkpt lat="-27.927749" lon="153.190304">
				<ele>486</ele>
				<time>2015-05-06T22:52:31Z</time>
				<extensions>
				</extensions>
			</trkpt>
			<trkpt lat="-27.927895" lon="153.190169">
				<ele>487</ele>
				<time>2015-05-06T22:52:33Z</time>
				<extensions>
				</extensions>
			</trkpt>
			<trkpt lat="-27.928073" lon="153.190050">
				<ele>489</ele>
				<time>2015-05-06T22:52:35Z</time>
				<extensions>
				</extensions>
			</trkpt>
			<trkpt lat="-27.928287" lon="153.189880">
				<ele>490</ele>
				<time>2015-05-06T22:52:37Z</time>
				<extensions>
				</extensions>
			</trkpt>
			<trkpt lat="-27.928441" lon="153.189686">
				<ele>491</ele>
				<time>2015-05-06T22:52:39Z</time>
				<extensions>
				</extensions>
			</trkpt>
			<trkpt lat="-27.928550" lon="153.189430">
				<ele>492</ele>
				<time>2015-05-06T22:52:41Z</time>
				<extensions>
				</extensions>
			</trkpt>
			<trkpt lat="-27.928622" lon="153.189162">
				<ele>494</ele>
				<time>2015-05-06T22:52:43Z</time>
				<extensions>
				</extensions>
			</trkpt>
			<trkpt lat="-27.928693" lon="153.188907">
				<ele>494</ele>
				<time>2015-05-06T22:52:45Z</time>
				<extensions>
				</extensions>
			</trkpt>
			<trkpt lat="-27.928787" lon="153.188661">
				<ele>495</ele>
				<time>2015-05-06T22:52:47Z</time>
				<extensions>
				</extensions>
			</trkpt>
			<trkpt lat="-27.928955" lon="153.188452">
				<ele>497</ele>
				<time>2015-05-06T22:52:49Z</time>
				<extensions>
				</extensions>
			</trkpt>
			<trkpt lat="-27.929114" lon="153.188259">
				<ele>498</ele>
				<time>2015-05-06T22:52:51Z</time>
				<extensions>
				</extensions>
			</trkpt>
			<trkpt lat="-27.929236" lon="153.187977">
				<ele>499</ele>
				<time>2015-05-06T22:52:53Z</time>
				<extensions>
				</extensions>
			</trkpt>
			<trkpt lat="-27.929245" lon="153.187689">
				<ele>500</ele>
				<time>2015-05-06T22:52:55Z</time>
				<extensions>
				</extensions>
			</trkpt>
			<trkpt lat="-27.929201" lon="153.187384">
				<ele>502</ele>
				<time>2015-05-06T22:52:57Z</time>
				<extensions>
				</extensions>
			</trkpt>
			<trkpt lat="-27.929147" lon="153.187118">
				<ele>503</ele>
				<time>2015-05-06T22:52:59Z</time>
				<extensions>
				</extensions>
			</trkpt>
			<trkpt lat="-27.929067" lon="153.186844">
				<ele>505</ele>
				<time>2015-05-06T22:53:01Z</time>
				<extensions>
				</extensions>
			</trkpt>
			<trkpt lat="-27.928959" lon="153.186616">
				<ele>506</ele>
				<time>2015-05-06T22:53:03Z</time>
				<extensions>
				</extensions>
			</trkpt>
			<trkpt lat="-27.928784" lon="153.186389">
				<ele>508</ele>
				<time>2015-05-06T22:53:05Z</time>
				<extensions>
				</extensions>
			</trkpt>
			<trkpt lat="-27.928571" lon="153.186176">
				<ele>510</ele>
				<time>2015-05-06T22:53:07Z</time>
				<extensions>
				</extensions>
			</trkpt>
			<trkpt lat="-27.928340" lon="153.185952">
				<ele>510</ele>
				<time>2015-05-06T22:53:09Z</time>
				<extensions>
				</extensions>
			</trkpt>
			<trkpt lat="-27.928131" lon="153.185757">
				<ele>510</ele>
				<time>2015-05-06T22:53:11Z</time>
				<extensions>
				</extensions>
			</trkpt>
			<trkpt lat="-27.927918" lon="153.185568">
				<ele>512</ele>
				<time>2015-05-06T22:53:13Z</time>
				<extensions>
				</extensions>
			</trkpt>
			<trkpt lat="-27.927770" lon="153.185377">
				<ele>511</ele>
				<time>2015-05-06T22:53:15Z</time>
				<extensions>
				</extensions>
			</trkpt>
			<trkpt lat="-27.927706" lon="153.185116">
				<ele>511</ele>
				<time>2015-05-06T22:53:18Z</time>
				<extensions>
				</extensions>
			</trkpt>
			<trkpt lat="-27.927746" lon="153.184855">
				<ele>512</ele>
				<time>2015-05-06T22:53:21Z</time>
				<extensions>
				</extensions>
			</trkpt>
			<trkpt lat="-27.927970" lon="153.184719">
				<ele>514</ele>
				<time>2015-05-06T22:53:24Z</time>
				<extensions>
				</extensions>
			</trkpt>
			<trkpt lat="-27.928176" lon="153.184624">
				<ele>514</ele>
				<time>2015-05-06T22:53:28Z</time>
				<extensions>
				</extensions>
			</trkpt>
			<trkpt lat="-27.928427" lon="153.184559">
				<ele>517</ele>
				<time>2015-05-06T22:53:31Z</time>
				<extensions>
				</extensions>
			</trkpt>
			<trkpt lat="-27.928673" lon="153.184504">
				<ele>519</ele>
				<time>2015-05-06T22:53:33Z</time>
				<extensions>
				</extensions>
			</trkpt>
			<trkpt lat="-27.928932" lon="153.184456">
				<ele>521</ele>
				<time>2015-05-06T22:53:35Z</time>
				<extensions>
				</extensions>
			</trkpt>
			<trkpt lat="-27.929157" lon="153.184400">
				<ele>520</ele>
				<time>2015-05-06T22:53:37Z</time>
				<extensions>
				</extensions>
			</trkpt>
			<trkpt lat="-27.929319" lon="153.184302">
				<ele>516</ele>
				<time>2015-05-06T22:53:39Z</time>
				<extensions>
				</extensions>
			</trkpt>
			<trkpt lat="-27.929495" lon="153.184225">
				<ele>515</ele>
				<time>2015-05-06T22:53:41Z</time>
				<extensions>
				</extensions>
			</trkpt>
			<trkpt lat="-27.929731" lon="153.184223">
				<ele>514</ele>
				<time>2015-05-06T22:53:44Z</time>
				<extensions>
				</extensions>
			</trkpt>
			<trkpt lat="-27.929930" lon="153.184162">
				<ele>514</ele>
				<time>2015-05-06T22:53:46Z</time>
				<extensions>
				</extensions>
			</trkpt>
			<trkpt lat="-27.930144" lon="153.184103">
				<ele>514</ele>
				<time>2015-05-06T22:53:48Z</time>
				<extensions>
				</extensions>
			</trkpt>
			<trkpt lat="-27.930361" lon="153.184004">
				<ele>516</ele>
				<time>2015-05-06T22:53:50Z</time>
				<extensions>
				</extensions>
			</trkpt>
			<trkpt lat="-27.930614" lon="153.183864">
				<ele>517</ele>
				<time>2015-05-06T22:53:52Z</time>
				<extensions>
				</extensions>
			</trkpt>
			<trkpt lat="-27.930869" lon="153.183708">
				<ele>518</ele>
				<time>2015-05-06T22:53:54Z</time>
				<extensions>
				</extensions>
			</trkpt>
			<trkpt lat="-27.931104" lon="153.183541">
				<ele>520</ele>
				<time>2015-05-06T22:53:56Z</time>
				<extensions>
				</extensions>
			</trkpt>
			<trkpt lat="-27.931341" lon="153.183365">
				<ele>521</ele>
				<time>2015-05-06T22:53:58Z</time>
				<extensions>
				</extensions>
			</trkpt>
			<trkpt lat="-27.931566" lon="153.183191">
				<ele>524</ele>
				<time>2015-05-06T22:54:00Z</time>
				<extensions>
				</extensions>
			</trkpt>
			<trkpt lat="-27.931795" lon="153.183002">
				<ele>527</ele>
				<time>2015-05-06T22:54:02Z</time>
				<extensions>
				</extensions>
			</trkpt>
			<trkpt lat="-27.932022" lon="153.182814">
				<ele>530</ele>
				<time>2015-05-06T22:54:04Z</time>
				<extensions>
				</extensions>
			</trkpt>
			<trkpt lat="-27.932221" lon="153.182621">
				<ele>532</ele>
				<time>2015-05-06T22:54:06Z</time>
				<extensions>
				</extensions>
			</trkpt>
			<trkpt lat="-27.932428" lon="153.182379">
				<ele>533</ele>
				<time>2015-05-06T22:54:08Z</time>
				<extensions>
				</extensions>
			</trkpt>
			<trkpt lat="-27.932598" lon="153.182103">
				<ele>534</ele>
				<time>2015-05-06T22:54:10Z</time>
				<extensions>
				</extensions>
			</trkpt>
			<trkpt lat="-27.932763" lon="153.181802">
				<ele>535</ele>
				<time>2015-05-06T22:54:12Z</time>
				<extensions>
				</extensions>
			</trkpt>
			<trkpt lat="-27.932916" lon="153.181501">
				<ele>534</ele>
				<time>2015-05-06T22:54:14Z</time>
				<extensions>
				</extensions>
			</trkpt>
			<trkpt lat="-27.933070" lon="153.181212">
				<ele>533</ele>
				<time>2015-05-06T22:54:16Z</time>
				<extensions>
				</extensions>
			</trkpt>
			<trkpt lat="-27.933228" lon="153.180925">
				<ele>533</ele>
				<time>2015-05-06T22:54:18Z</time>
				<extensions>
				</extensions>
			</trkpt>
			<trkpt lat="-27.933426" lon="153.180678">
				<ele>533</ele>
				<time>2015-05-06T22:54:20Z</time>
				<extensions>
				</extensions>
			</trkpt>
			<trkpt lat="-27.933643" lon="153.180454">
				<ele>534</ele>
				<time>2015-05-06T22:54:22Z</time>
				<extensions>
				</extensions>
			</trkpt>
			<trkpt lat="-27.933923" lon="153.180284">
				<ele>539</ele>
				<time>2015-05-06T22:54:24Z</time>
				<extensions>
				</extensions>
			</trkpt>
			<trkpt lat="-27.934239" lon="153.180183">
				<ele>539</ele>
				<time>2015-05-06T22:54:26Z</time>
				<extensions>
				</extensions>
			</trkpt>
			<trkpt lat="-27.934567" lon="153.180132">
				<ele>538</ele>
				<time>2015-05-06T22:54:28Z</time>
				<extensions>
				</extensions>
			</trkpt>
			<trkpt lat="-27.934908" lon="153.180131">
				<ele>538</ele>
				<time>2015-05-06T22:54:30Z</time>
				<extensions>
				</extensions>
			</trkpt>
			<trkpt lat="-27.935229" lon="153.180147">
				<ele>538</ele>
				<time>2015-05-06T22:54:32Z</time>
				<extensions>
				</extensions>
			</trkpt>
			<trkpt lat="-27.935556" lon="153.180127">
				<ele>537</ele>
				<time>2015-05-06T22:54:34Z</time>
				<extensions>
				</extensions>
			</trkpt>
			<trkpt lat="-27.935881" lon="153.180116">
				<ele>536</ele>
				<time>2015-05-06T22:54:36Z</time>
				<extensions>
				</extensions>
			</trkpt>
			<trkpt lat="-27.936227" lon="153.180090">
				<ele>534</ele>
				<time>2015-05-06T22:54:38Z</time>
				<extensions>
				</extensions>
			</trkpt>
			<trkpt lat="-27.936573" lon="153.180067">
				<ele>534</ele>
				<time>2015-05-06T22:54:40Z</time>
				<extensions>
				</extensions>
			</trkpt>
			<trkpt lat="-27.936923" lon="153.180050">
				<ele>532</ele>
				<time>2015-05-06T22:54:42Z</time>
				<extensions>
				</extensions>
			</trkpt>
			<trkpt lat="-27.937242" lon="153.180013">
				<ele>532</ele>
				<time>2015-05-06T22:54:44Z</time>
				<extensions>
				</extensions>
			</trkpt>
			<trkpt lat="-27.937549" lon="153.179979">
				<ele>531</ele>
				<time>2015-05-06T22:54:46Z</time>
				<extensions>
				</extensions>
			</trkpt>
			<trkpt lat="-27.937853" lon="153.179991">
				<ele>530</ele>
				<time>2015-05-06T22:54:48Z</time>
				<extensions>
				</extensions>
			</trkpt>
			<trkpt lat="-27.938131" lon="153.179970">
				<ele>531</ele>
				<time>2015-05-06T22:54:50Z</time>
				<extensions>
				</extensions>
			</trkpt>
			<trkpt lat="-27.938426" lon="153.179957">
				<ele>530</ele>
				<time>2015-05-06T22:54:52Z</time>
				<extensions>
				</extensions>
			</trkpt>
			<trkpt lat="-27.938694" lon="153.179974">
				<ele>530</ele>
				<time>2015-05-06T22:54:54Z</time>
				<extensions>
				</extensions>
			</trkpt>
			<trkpt lat="-27.938982" lon="153.179989">
				<ele>529</ele>
				<time>2015-05-06T22:54:56Z</time>
				<extensions>
				</extensions>
			</trkpt>
			<trkpt lat="-27.939264" lon="153.180005">
				<ele>529</ele>
				<time>2015-05-06T22:54:58Z</time>
				<extensions>
				</extensions>
			</trkpt>
			<trkpt lat="-27.939531" lon="153.180021">
				<ele>531</ele>
				<time>2015-05-06T22:55:00Z</time>
				<extensions>
				</extensions>
			</trkpt>
			<trkpt lat="-27.939802" lon="153.180045">
				<ele>531</ele>
				<time>2015-05-06T22:55:02Z</time>
				<extensions>
				</extensions>
			</trkpt>
			<trkpt lat="-27.940056" lon="153.180053">
				<ele>532</ele>
				<time>2015-05-06T22:55:04Z</time>
				<extensions>
				</extensions>
			</trkpt>
			<trkpt lat="-27.940297" lon="153.180084">
				<ele>532</ele>
				<time>2015-05-06T22:55:06Z</time>
				<extensions>
				</extensions>
			</trkpt>
			<trkpt lat="-27.940507" lon="153.180114">
				<ele>530</ele>
				<time>2015-05-06T22:55:08Z</time>
				<extensions>
				</extensions>
			</trkpt>
			<trkpt lat="-27.940736" lon="153.180174">
				<ele>528</ele>
				<time>2015-05-06T22:55:11Z</time>
				<extensions>
				</extensions>
			</trkpt>
			<trkpt lat="-27.940893" lon="153.180275">
				<ele>526</ele>
				<time>2015-05-06T22:55:15Z</time>
				<extensions>
				</extensions>
			</trkpt>
			<trkpt lat="-27.940815" lon="153.180086">
				<ele>528</ele>
				<time>2015-05-06T22:55:42Z</time>
				<extensions>
				</extensions>
			</trkpt>
			<trkpt lat="-27.940570" lon="153.180030">
				<ele>528</ele>
				<time>2015-05-06T22:55:45Z</time>
				<extensions>
				</extensions>
			</trkpt>
			<trkpt lat="-27.940384" lon="153.179964">
				<ele>526</ele>
				<time>2015-05-06T22:55:49Z</time>
				<extensions>
				</extensions>
			</trkpt>
			<trkpt lat="-27.940526" lon="153.180145">
				<ele>552</ele>
				<time>2015-05-06T23:10:10Z</time>
				<extensions>
				</extensions>
			</trkpt>
			<trkpt lat="-27.940726" lon="153.180182">
				<ele>553</ele>
				<time>2015-05-06T23:10:12Z</time>
				<extensions>
				</extensions>
			</trkpt>
			<trkpt lat="-27.940911" lon="153.180241">
				<ele>553</ele>
				<time>2015-05-06T23:10:14Z</time>
				<extensions>
				</extensions>
			</trkpt>
			<trkpt lat="-27.941117" lon="153.180312">
				<ele>553</ele>
				<time>2015-05-06T23:10:16Z</time>
				<extensions>
				</extensions>
			</trkpt>
			<trkpt lat="-27.941322" lon="153.180411">
				<ele>552</ele>
				<time>2015-05-06T23:10:18Z</time>
				<extensions>
				</extensions>
			</trkpt>
			<trkpt lat="-27.941534" lon="153.180511">
				<ele>552</ele>
				<time>2015-05-06T23:10:20Z</time>
				<extensions>
				</extensions>
			</trkpt>
			<trkpt lat="-27.941770" lon="153.180603">
				<ele>552</ele>
				<time>2015-05-06T23:10:22Z</time>
				<extensions>
				</extensions>
			</trkpt>
			<trkpt lat="-27.942000" lon="153.180695">
				<ele>552</ele>
				<time>2015-05-06T23:10:24Z</time>
				<extensions>
				</extensions>
			</trkpt>
			<trkpt lat="-27.942218" lon="153.180815">
				<ele>552</ele>
				<time>2015-05-06T23:10:26Z</time>
				<extensions>
				</extensions>
			</trkpt>
			<trkpt lat="-27.942457" lon="153.180924">
				<ele>553</ele>
				<time>2015-05-06T23:10:28Z</time>
				<extensions>
				</extensions>
			</trkpt>
			<trkpt lat="-27.942692" lon="153.181029">
				<ele>553</ele>
				<time>2015-05-06T23:10:30Z</time>
				<extensions>
				</extensions>
			</trkpt>
			<trkpt lat="-27.942909" lon="153.181135">
				<ele>552</ele>
				<time>2015-05-06T23:10:32Z</time>
				<extensions>
				</extensions>
			</trkpt>
			<trkpt lat="-27.943143" lon="153.181262">
				<ele>552</ele>
				<time>2015-05-06T23:10:34Z</time>
				<extensions>
				</extensions>
			</trkpt>
			<trkpt lat="-27.943409" lon="153.181359">
				<ele>550</ele>
				<time>2015-05-06T23:10:36Z</time>
				<extensions>
				</extensions>
			</trkpt>
			<trkpt lat="-27.943688" lon="153.181440">
				<ele>548</ele>
				<time>2015-05-06T23:10:38Z</time>
				<extensions>
				</extensions>
			</trkpt>
			<trkpt lat="-27.943992" lon="153.181426">
				<ele>547</ele>
				<time>2015-05-06T23:10:40Z</time>
				<extensions>
				</extensions>
			</trkpt>
			<trkpt lat="-27.944268" lon="153.181433">
				<ele>544</ele>
				<time>2015-05-06T23:10:42Z</time>
				<extensions>
				</extensions>
			</trkpt>
			<trkpt lat="-27.944532" lon="153.181423">
				<ele>543</ele>
				<time>2015-05-06T23:10:44Z</time>
				<extensions>
				</extensions>
			</trkpt>
			<trkpt lat="-27.944813" lon="153.181396">
				<ele>543</ele>
				<time>2015-05-06T23:10:46Z</time>
				<extensions>
				</extensions>
			</trkpt>
			<trkpt lat="-27.945095" lon="153.181369">
				<ele>543</ele>
				<time>2015-05-06T23:10:48Z</time>
				<extensions>
				</extensions>
			</trkpt>
			<trkpt lat="-27.945378" lon="153.181332">
				<ele>543</ele>
				<time>2015-05-06T23:10:50Z</time>
				<extensions>
				</extensions>
			</trkpt>
			<trkpt lat="-27.945651" lon="153.181305">
				<ele>546</ele>
				<time>2015-05-06T23:10:52Z</time>
				<extensions>
				</extensions>
			</trkpt>
			<trkpt lat="-27.945916" lon="153.181294">
				<ele>546</ele>
				<time>2015-05-06T23:10:54Z</time>
				<extensions>
				</extensions>
			</trkpt>
			<trkpt lat="-27.946169" lon="153.181298">
				<ele>546</ele>
				<time>2015-05-06T23:10:56Z</time>
				<extensions>
				</extensions>
			</trkpt>
			<trkpt lat="-27.946397" lon="153.181325">
				<ele>546</ele>
				<time>2015-05-06T23:10:58Z</time>
				<extensions>
				</extensions>
			</trkpt>
			<trkpt lat="-27.946608" lon="153.181340">
				<ele>546</ele>
				<time>2015-05-06T23:11:00Z</time>
				<extensions>
				</extensions>
			</trkpt>
			<trkpt lat="-27.946827" lon="153.181372">
				<ele>546</ele>
				<time>2015-05-06T23:11:02Z</time>
				<extensions>
				</extensions>
			</trkpt>
			<trkpt lat="-27.947020" lon="153.181392">
				<ele>547</ele>
				<time>2015-05-06T23:11:04Z</time>
				<extensions>
				</extensions>
			</trkpt>
			<trkpt lat="-27.947200" lon="153.181409">
				<ele>548</ele>
				<time>2015-05-06T23:11:06Z</time>
				<extensions>
				</extensions>
			</trkpt>
			<trkpt lat="-27.947462" lon="153.181445">
				<ele>551</ele>
				<time>2015-05-06T23:11:09Z</time>
				<extensions>
				</extensions>
			</trkpt>
			<trkpt lat="-27.947706" lon="153.181493">
				<ele>553</ele>
				<time>2015-05-06T23:11:12Z</time>
				<extensions>
				</extensions>
			</trkpt>
			<trkpt lat="-27.947948" lon="153.181509">
				<ele>554</ele>
				<time>2015-05-06T23:11:15Z</time>
				<extensions>
				</extensions>
			</trkpt>
			<trkpt lat="-27.948188" lon="153.181548">
				<ele>554</ele>
				<time>2015-05-06T23:11:18Z</time>
				<extensions>
				</extensions>
			</trkpt>
			<trkpt lat="-27.948408" lon="153.181600">
				<ele>554</ele>
				<time>2015-05-06T23:11:21Z</time>
				<extensions>
				</extensions>
			</trkpt>
			<trkpt lat="-27.948633" lon="153.181654">
				<ele>554</ele>
				<time>2015-05-06T23:11:24Z</time>
				<extensions>
				</extensions>
			</trkpt>
			<trkpt lat="-27.948894" lon="153.181701">
				<ele>554</ele>
				<time>2015-05-06T23:11:27Z</time>
				<extensions>
				</extensions>
			</trkpt>
			<trkpt lat="-27.949123" lon="153.181732">
				<ele>556</ele>
				<time>2015-05-06T23:11:29Z</time>
				<extensions>
				</extensions>
			</trkpt>
			<trkpt lat="-27.949381" lon="153.181747">
				<ele>558</ele>
				<time>2015-05-06T23:11:31Z</time>
				<extensions>
				</extensions>
			</trkpt>
			<trkpt lat="-27.949616" lon="153.181716">
				<ele>559</ele>
				<time>2015-05-06T23:11:33Z</time>
				<extensions>
				</extensions>
			</trkpt>
			<trkpt lat="-27.949855" lon="153.181645">
				<ele>558</ele>
				<time>2015-05-06T23:11:35Z</time>
				<extensions>
				</extensions>
			</trkpt>
			<trkpt lat="-27.950104" lon="153.181559">
				<ele>556</ele>
				<time>2015-05-06T23:11:37Z</time>
				<extensions>
				</extensions>
			</trkpt>
			<trkpt lat="-27.950342" lon="153.181471">
				<ele>555</ele>
				<time>2015-05-06T23:11:39Z</time>
				<extensions>
				</extensions>
			</trkpt>
			<trkpt lat="-27.950563" lon="153.181365">
				<ele>554</ele>
				<time>2015-05-06T23:11:41Z</time>
				<extensions>
				</extensions>
			</trkpt>
			<trkpt lat="-27.950778" lon="153.181293">
				<ele>551</ele>
				<time>2015-05-06T23:11:43Z</time>
				<extensions>
				</extensions>
			</trkpt>
			<trkpt lat="-27.951024" lon="153.181251">
				<ele>547</ele>
				<time>2015-05-06T23:11:46Z</time>
				<extensions>
				</extensions>
			</trkpt>
			<trkpt lat="-27.951228" lon="153.181255">
				<ele>545</ele>
				<time>2015-05-06T23:11:50Z</time>
				<extensions>
				</extensions>
			</trkpt>
			<trkpt lat="-27.951418" lon="153.181245">
				<ele>544</ele>
				<time>2015-05-06T23:12:00Z</time>
				<extensions>
				</extensions>
			</trkpt>
			<trkpt lat="-27.951598" lon="153.181213">
				<ele>545</ele>
				<time>2015-05-06T23:12:04Z</time>
				<extensions>
				</extensions>
			</trkpt>
			<trkpt lat="-27.951853" lon="153.181187">
				<ele>546</ele>
				<time>2015-05-06T23:12:07Z</time>
				<extensions>
				</extensions>
			</trkpt>
			<trkpt lat="-27.952114" lon="153.181174">
				<ele>546</ele>
				<time>2015-05-06T23:12:10Z</time>
				<extensions>
				</extensions>
			</trkpt>
			<trkpt lat="-27.952316" lon="153.181162">
				<ele>547</ele>
				<time>2015-05-06T23:12:12Z</time>
				<extensions>
				</extensions>
			</trkpt>
			<trkpt lat="-27.952540" lon="153.181151">
				<ele>549</ele>
				<time>2015-05-06T23:12:14Z</time>
				<extensions>
				</extensions>
			</trkpt>
			<trkpt lat="-27.952776" lon="153.181142">
				<ele>551</ele>
				<time>2015-05-06T23:12:16Z</time>
				<extensions>
				</extensions>
			</trkpt>
			<trkpt lat="-27.953006" lon="153.181143">
				<ele>552</ele>
				<time>2015-05-06T23:12:18Z</time>
				<extensions>
				</extensions>
			</trkpt>
			<trkpt lat="-27.953250" lon="153.181157">
				<ele>551</ele>
				<time>2015-05-06T23:12:20Z</time>
				<extensions>
				</extensions>
			</trkpt>
			<trkpt lat="-27.953509" lon="153.181248">
				<ele>552</ele>
				<time>2015-05-06T23:12:22Z</time>
				<extensions>
				</extensions>
			</trkpt>
			<trkpt lat="-27.953730" lon="153.181409">
				<ele>552</ele>
				<time>2015-05-06T23:12:24Z</time>
				<extensions>
				</extensions>
			</trkpt>
			<trkpt lat="-27.953982" lon="153.181600">
				<ele>549</ele>
				<time>2015-05-06T23:12:26Z</time>
				<extensions>
				</extensions>
			</trkpt>
			<trkpt lat="-27.954241" lon="153.181790">
				<ele>546</ele>
				<time>2015-05-06T23:12:28Z</time>
				<extensions>
				</extensions>
			</trkpt>
			<trkpt lat="-27.954496" lon="153.181982">
				<ele>544</ele>
				<time>2015-05-06T23:12:30Z</time>
				<extensions>
				</extensions>
			</trkpt>
			<trkpt lat="-27.954757" lon="153.182169">
				<ele>541</ele>
				<time>2015-05-06T23:12:32Z</time>
				<extensions>
				</extensions>
			</trkpt>
			<trkpt lat="-27.955011" lon="153.182346">
				<ele>539</ele>
				<time>2015-05-06T23:12:34Z</time>
				<extensions>
				</extensions>
			</trkpt>
			<trkpt lat="-27.955257" lon="153.182518">
				<ele>538</ele>
				<time>2015-05-06T23:12:36Z</time>
				<extensions>
				</extensions>
			</trkpt>
			<trkpt lat="-27.955495" lon="153.182681">
				<ele>537</ele>
				<time>2015-05-06T23:12:38Z</time>
				<extensions>
				</extensions>
			</trkpt>
			<trkpt lat="-27.955742" lon="153.182821">
				<ele>536</ele>
				<time>2015-05-06T23:12:40Z</time>
				<extensions>
				</extensions>
			</trkpt>
			<trkpt lat="-27.955997" lon="153.182955">
				<ele>537</ele>
				<time>2015-05-06T23:12:42Z</time>
				<extensions>
				</extensions>
			</trkpt>
			<trkpt lat="-27.956270" lon="153.183078">
				<ele>538</ele>
				<time>2015-05-06T23:12:44Z</time>
				<extensions>
				</extensions>
			</trkpt>
			<trkpt lat="-27.956532" lon="153.183180">
				<ele>537</ele>
				<time>2015-05-06T23:12:46Z</time>
				<extensions>
				</extensions>
			</trkpt>
			<trkpt lat="-27.956780" lon="153.183256">
				<ele>535</ele>
				<time>2015-05-06T23:12:48Z</time>
				<extensions>
				</extensions>
			</trkpt>
			<trkpt lat="-27.957039" lon="153.183316">
				<ele>534</ele>
				<time>2015-05-06T23:12:50Z</time>
				<extensions>
				</extensions>
			</trkpt>
			<trkpt lat="-27.957287" lon="153.183371">
				<ele>533</ele>
				<time>2015-05-06T23:12:52Z</time>
				<extensions>
				</extensions>
			</trkpt>
			<trkpt lat="-27.957512" lon="153.183480">
				<ele>533</ele>
				<time>2015-05-06T23:12:54Z</time>
				<extensions>
				</extensions>
			</trkpt>
			<trkpt lat="-27.957687" lon="153.183684">
				<ele>532</ele>
				<time>2015-05-06T23:12:56Z</time>
				<extensions>
				</extensions>
			</trkpt>
			<trkpt lat="-27.957766" lon="153.183950">
				<ele>531</ele>
				<time>2015-05-06T23:12:58Z</time>
				<extensions>
				</extensions>
			</trkpt>
			<trkpt lat="-27.957830" lon="153.184243">
				<ele>531</ele>
				<time>2015-05-06T23:13:00Z</time>
				<extensions>
				</extensions>
			</trkpt>
			<trkpt lat="-27.957886" lon="153.184538">
				<ele>532</ele>
				<time>2015-05-06T23:13:02Z</time>
				<extensions>
				</extensions>
			</trkpt>
			<trkpt lat="-27.957950" lon="153.184860">
				<ele>531</ele>
				<time>2015-05-06T23:13:04Z</time>
				<extensions>
				</extensions>
			</trkpt>
			<trkpt lat="-27.957989" lon="153.185134">
				<ele>530</ele>
				<time>2015-05-06T23:13:06Z</time>
				<extensions>
				</extensions>
			</trkpt>
			<trkpt lat="-27.958013" lon="153.185352">
				<ele>529</ele>
				<time>2015-05-06T23:13:08Z</time>
				<extensions>
				</extensions>
			</trkpt>
			<trkpt lat="-27.958020" lon="153.185572">
				<ele>528</ele>
				<time>2015-05-06T23:13:11Z</time>
				<extensions>
				</extensions>
			</trkpt>
			<trkpt lat="-27.957959" lon="153.185786">
				<ele>529</ele>
				<time>2015-05-06T23:13:15Z</time>
				<extensions>
				</extensions>
			</trkpt>
			<trkpt lat="-27.958160" lon="153.185885">
				<ele>531</ele>
				<time>2015-05-06T23:13:20Z</time>
				<extensions>
				</extensions>
			</trkpt>
			<trkpt lat="-27.958405" lon="153.185961">
				<ele>534</ele>
				<time>2015-05-06T23:13:23Z</time>
				<extensions>
				</extensions>
			</trkpt>
			<trkpt lat="-27.958583" lon="153.186033">
				<ele>537</ele>
				<time>2015-05-06T23:13:25Z</time>
				<extensions>
				</extensions>
			</trkpt>
			<trkpt lat="-27.958892" lon="153.186143">
				<ele>538</ele>
				<time>2015-05-06T23:13:27Z</time>
				<extensions>
				</extensions>
			</trkpt>
			<trkpt lat="-27.959170" lon="153.186220">
				<ele>542</ele>
				<time>2015-05-06T23:13:29Z</time>
				<extensions>
				</extensions>
			</trkpt>
			<trkpt lat="-27.959438" lon="153.186292">
				<ele>542</ele>
				<time>2015-05-06T23:13:31Z</time>
				<extensions>
				</extensions>
			</trkpt>
			<trkpt lat="-27.959726" lon="153.186337">
				<ele>542</ele>
				<time>2015-05-06T23:13:33Z</time>
				<extensions>
				</extensions>
			</trkpt>
			<trkpt lat="-27.960034" lon="153.186371">
				<ele>542</ele>
				<time>2015-05-06T23:13:35Z</time>
				<extensions>
				</extensions>
			</trkpt>
			<trkpt lat="-27.960327" lon="153.186423">
				<ele>542</ele>
				<time>2015-05-06T23:13:37Z</time>
				<extensions>
				</extensions>
			</trkpt>
			<trkpt lat="-27.960610" lon="153.186534">
				<ele>543</ele>
				<time>2015-05-06T23:13:39Z</time>
				<extensions>
				</extensions>
			</trkpt>
			<trkpt lat="-27.960875" lon="153.186699">
				<ele>544</ele>
				<time>2015-05-06T23:13:41Z</time>
				<extensions>
				</extensions>
			</trkpt>
			<trkpt lat="-27.961121" lon="153.186876">
				<ele>544</ele>
				<time>2015-05-06T23:13:43Z</time>
				<extensions>
				</extensions>
			</trkpt>
			<trkpt lat="-27.961356" lon="153.187062">
				<ele>544</ele>
				<time>2015-05-06T23:13:45Z</time>
				<extensions>
				</extensions>
			</trkpt>
			<trkpt lat="-27.961613" lon="153.187262">
				<ele>541</ele>
				<time>2015-05-06T23:13:47Z</time>
				<extensions>
				</extensions>
			</trkpt>
			<trkpt lat="-27.961840" lon="153.187438">
				<ele>541</ele>
				<time>2015-05-06T23:13:49Z</time>
				<extensions>
				</extensions>
			</trkpt>
			<trkpt lat="-27.962059" lon="153.187597">
				<ele>542</ele>
				<time>2015-05-06T23:13:51Z</time>
				<extensions>
				</extensions>
			</trkpt>
			<trkpt lat="-27.962298" lon="153.187708">
				<ele>541</ele>
				<time>2015-05-06T23:13:53Z</time>
				<extensions>
				</extensions>
			</trkpt>
			<trkpt lat="-27.962571" lon="153.187777">
				<ele>543</ele>
				<time>2015-05-06T23:13:55Z</time>
				<extensions>
				</extensions>
			</trkpt>
			<trkpt lat="-27.962839" lon="153.187841">
				<ele>541</ele>
				<time>2015-05-06T23:13:57Z</time>
				<extensions>
				</extensions>
			</trkpt>
			<trkpt lat="-27.963104" lon="153.187901">
				<ele>540</ele>
				<time>2015-05-06T23:13:59Z</time>
				<extensions>
				</extensions>
			</trkpt>
			<trkpt lat="-27.963348" lon="153.187956">
				<ele>538</ele>
				<time>2015-05-06T23:14:01Z</time>
				<extensions>
				</extensions>
			</trkpt>
			<trkpt lat="-27.963561" lon="153.188007">
				<ele>538</ele>
				<time>2015-05-06T23:14:03Z</time>
				<extensions>
				</extensions>
			</trkpt>
			<trkpt lat="-27.963768" lon="153.188072">
				<ele>537</ele>
				<time>2015-05-06T23:14:06Z</time>
				<extensions>
				</extensions>
			</trkpt>
			<trkpt lat="-27.963944" lon="153.188125">
				<ele>537</ele>
				<time>2015-05-06T23:14:09Z</time>
				<extensions>
				</extensions>
			</trkpt>
			<trkpt lat="-27.964133" lon="153.188015">
				<ele>539</ele>
				<time>2015-05-06T23:14:13Z</time>
				<extensions>
				</extensions>
			</trkpt>
			<trkpt lat="-27.964286" lon="153.187840">
				<ele>543</ele>
				<time>2015-05-06T23:14:15Z</time>
				<extensions>
				</extensions>
			</trkpt>
			<trkpt lat="-27.964465" lon="153.187666">
				<ele>546</ele>
				<time>2015-05-06T23:14:17Z</time>
				<extensions>
				</extensions>
			</trkpt>
			<trkpt lat="-27.964605" lon="153.187457">
				<ele>548</ele>
				<time>2015-05-06T23:14:19Z</time>
				<extensions>
				</extensions>
			</trkpt>
			<trkpt lat="-27.964753" lon="153.187238">
				<ele>548</ele>
				<time>2015-05-06T23:14:21Z</time>
				<extensions>
				</extensions>
			</trkpt>
			<trkpt lat="-27.964928" lon="153.187003">
				<ele>547</ele>
				<time>2015-05-06T23:14:23Z</time>
				<extensions>
				</extensions>
			</trkpt>
			<trkpt lat="-27.965133" lon="153.186813">
				<ele>546</ele>
				<time>2015-05-06T23:14:25Z</time>
				<extensions>
				</extensions>
			</trkpt>
			<trkpt lat="-27.965378" lon="153.186682">
				<ele>544</ele>
				<time>2015-05-06T23:14:27Z</time>
				<extensions>
				</extensions>
			</trkpt>
			<trkpt lat="-27.965649" lon="153.186575">
				<ele>545</ele>
				<time>2015-05-06T23:14:29Z</time>
				<extensions>
				</extensions>
			</trkpt>
			<trkpt lat="-27.965913" lon="153.186477">
				<ele>543</ele>
				<time>2015-05-06T23:14:31Z</time>
				<extensions>
				</extensions>
			</trkpt>
			<trkpt lat="-27.966193" lon="153.186373">
				<ele>540</ele>
				<time>2015-05-06T23:14:33Z</time>
				<extensions>
				</extensions>
			</trkpt>
			<trkpt lat="-27.966484" lon="153.186265">
				<ele>540</ele>
				<time>2015-05-06T23:14:35Z</time>
				<extensions>
				</extensions>
			</trkpt>
			<trkpt lat="-27.966758" lon="153.186176">
				<ele>537</ele>
				<time>2015-05-06T23:14:37Z</time>
				<extensions>
				</extensions>
			</trkpt>
			<trkpt lat="-27.967041" lon="153.186088">
				<ele>535</ele>
				<time>2015-05-06T23:14:39Z</time>
				<extensions>
				</extensions>
			</trkpt>
			<trkpt lat="-27.967286" lon="153.186011">
				<ele>534</ele>
				<time>2015-05-06T23:14:41Z</time>
				<extensions>
				</extensions>
			</trkpt>
			<trkpt lat="-27.967531" lon="153.185936">
				<ele>533</ele>
				<time>2015-05-06T23:14:43Z</time>
				<extensions>
				</extensions>
			</trkpt>
			<trkpt lat="-27.967755" lon="153.185864">
				<ele>532</ele>
				<time>2015-05-06T23:14:45Z</time>
				<extensions>
				</extensions>
			</trkpt>
			<trkpt lat="-27.967969" lon="153.185829">
				<ele>532</ele>
				<time>2015-05-06T23:14:47Z</time>
				<extensions>
				</extensions>
			</trkpt>
			<trkpt lat="-27.968207" lon="153.185844">
				<ele>531</ele>
				<time>2015-05-06T23:14:49Z</time>
				<extensions>
				</extensions>
			</trkpt>
			<trkpt lat="-27.968450" lon="153.185985">
				<ele>529</ele>
				<time>2015-05-06T23:14:51Z</time>
				<extensions>
				</extensions>
			</trkpt>
			<trkpt lat="-27.968672" lon="153.186114">
				<ele>528</ele>
				<time>2015-05-06T23:14:53Z</time>
				<extensions>
				</extensions>
			</trkpt>
			<trkpt lat="-27.968919" lon="153.186267">
				<ele>530</ele>
				<time>2015-05-06T23:14:55Z</time>
				<extensions>
				</extensions>
			</trkpt>
			<trkpt lat="-27.969100" lon="153.186383">
				<ele>529</ele>
				<time>2015-05-06T23:14:57Z</time>
				<extensions>
				</extensions>
			</trkpt>
			<trkpt lat="-27.969322" lon="153.186503">
				<ele>529</ele>
				<time>2015-05-06T23:14:59Z</time>
				<extensions>
				</extensions>
			</trkpt>
			<trkpt lat="-27.969564" lon="153.186606">
				<ele>528</ele>
				<time>2015-05-06T23:15:01Z</time>
				<extensions>
				</extensions>
			</trkpt>
			<trkpt lat="-27.969825" lon="153.186642">
				<ele>529</ele>
				<time>2015-05-06T23:15:03Z</time>
				<extensions>
				</extensions>
			</trkpt>
			<trkpt lat="-27.970083" lon="153.186636">
				<ele>531</ele>
				<time>2015-05-06T23:15:05Z</time>
				<extensions>
				</extensions>
			</trkpt>
			<trkpt lat="-27.970346" lon="153.186604">
				<ele>532</ele>
				<time>2015-05-06T23:15:07Z</time>
				<extensions>
				</extensions>
			</trkpt>
			<trkpt lat="-27.970556" lon="153.186572">
				<ele>532</ele>
				<time>2015-05-06T23:15:09Z</time>
				<extensions>
				</extensions>
			</trkpt>
			<trkpt lat="-27.970809" lon="153.186549">
				<ele>532</ele>
				<time>2015-05-06T23:15:11Z</time>
				<extensions>
				</extensions>
			</trkpt>
			<trkpt lat="-27.971045" lon="153.186569">
				<ele>531</ele>
				<time>2015-05-06T23:15:13Z</time>
				<extensions>
				</extensions>
			</trkpt>
			<trkpt lat="-27.971253" lon="153.186668">
				<ele>531</ele>
				<time>2015-05-06T23:15:15Z</time>
				<extensions>
				</extensions>
			</trkpt>
			<trkpt lat="-27.971433" lon="153.186878">
				<ele>533</ele>
				<time>2015-05-06T23:15:17Z</time>
				<extensions>
				</extensions>
			</trkpt>
			<trkpt lat="-27.971572" lon="153.187145">
				<ele>534</ele>
				<time>2015-05-06T23:15:19Z</time>
				<extensions>
				</extensions>
			</trkpt>
			<trkpt lat="-27.971681" lon="153.187381">
				<ele>533</ele>
				<time>2015-05-06T23:15:21Z</time>
				<extensions>
				</extensions>
			</trkpt>
			<trkpt lat="-27.971790" lon="153.187577">
				<ele>533</ele>
				<time>2015-05-06T23:15:23Z</time>
				<extensions>
				</extensions>
			</trkpt>
			<trkpt lat="-27.971934" lon="153.187743">
				<ele>533</ele>
				<time>2015-05-06T23:15:25Z</time>
				<extensions>
				</extensions>
			</trkpt>
			<trkpt lat="-27.972111" lon="153.187897">
				<ele>532</ele>
				<time>2015-05-06T23:15:27Z</time>
				<extensions>
				</extensions>
			</trkpt>
			<trkpt lat="-27.972319" lon="153.188052">
				<ele>531</ele>
				<time>2015-05-06T23:15:29Z</time>
				<extensions>
				</extensions>
			</trkpt>
			<trkpt lat="-27.972515" lon="153.188156">
				<ele>531</ele>
				<time>2015-05-06T23:15:31Z</time>
				<extensions>
				</extensions>
			</trkpt>
			<trkpt lat="-27.972819" lon="153.188252">
				<ele>531</ele>
				<time>2015-05-06T23:15:33Z</time>
				<extensions>
				</extensions>
			</trkpt>
			<trkpt lat="-27.973104" lon="153.188258">
				<ele>531</ele>
				<time>2015-05-06T23:15:35Z</time>
				<extensions>
				</extensions>
			</trkpt>
			<trkpt lat="-27.973367" lon="153.188282">
				<ele>534</ele>
				<time>2015-05-06T23:15:37Z</time>
				<extensions>
				</extensions>
			</trkpt>
			<trkpt lat="-27.973617" lon="153.188397">
				<ele>537</ele>
				<time>2015-05-06T23:15:39Z</time>
				<extensions>
				</extensions>
			</trkpt>
			<trkpt lat="-27.973863" lon="153.188550">
				<ele>538</ele>
				<time>2015-05-06T23:15:41Z</time>
				<extensions>
				</extensions>
			</trkpt>
			<trkpt lat="-27.974117" lon="153.188688">
				<ele>536</ele>
				<time>2015-05-06T23:15:43Z</time>
				<extensions>
				</extensions>
			</trkpt>
			<trkpt lat="-27.974350" lon="153.188813">
				<ele>535</ele>
				<time>2015-05-06T23:15:45Z</time>
				<extensions>
				</extensions>
			</trkpt>
			<trkpt lat="-27.974608" lon="153.188933">
				<ele>536</ele>
				<time>2015-05-06T23:15:47Z</time>
				<extensions>
				</extensions>
			</trkpt>
			<trkpt lat="-27.974865" lon="153.189014">
				<ele>536</ele>
				<time>2015-05-06T23:15:49Z</time>
				<extensions>
				</extensions>
			</trkpt>
			<trkpt lat="-27.975158" lon="153.189029">
				<ele>538</ele>
				<time>2015-05-06T23:15:51Z</time>
				<extensions>
				</extensions>
			</trkpt>
			<trkpt lat="-27.975440" lon="153.189000">
				<ele>543</ele>
				<time>2015-05-06T23:15:53Z</time>
				<extensions>
				</extensions>
			</trkpt>
			<trkpt lat="-27.975724" lon="153.188977">
				<ele>543</ele>
				<time>2015-05-06T23:15:55Z</time>
				<extensions>
				</extensions>
			</trkpt>
			<trkpt lat="-27.975987" lon="153.188950">
				<ele>545</ele>
				<time>2015-05-06T23:15:57Z</time>
				<extensions>
				</extensions>
			</trkpt>
			<trkpt lat="-27.976274" lon="153.188917">
				<ele>545</ele>
				<time>2015-05-06T23:15:59Z</time>
				<extensions>
				</extensions>
			</trkpt>
			<trkpt lat="-27.976564" lon="153.188887">
				<ele>547</ele>
				<time>2015-05-06T23:16:01Z</time>
				<extensions>
				</extensions>
			</trkpt>
			<trkpt lat="-27.976858" lon="153.188848">
				<ele>546</ele>
				<time>2015-05-06T23:16:03Z</time>
				<extensions>
				</extensions>
			</trkpt>
			<trkpt lat="-27.977171" lon="153.188827">
				<ele>547</ele>
				<time>2015-05-06T23:16:05Z</time>
				<extensions>
				</extensions>
			</trkpt>
			<trkpt lat="-27.977455" lon="153.188809">
				<ele>544</ele>
				<time>2015-05-06T23:16:07Z</time>
				<extensions>
				</extensions>
			</trkpt>
			<trkpt lat="-27.977719" lon="153.188789">
				<ele>543</ele>
				<time>2015-05-06T23:16:09Z</time>
				<extensions>
				</extensions>
			</trkpt>
			<trkpt lat="-27.977993" lon="153.188767">
				<ele>543</ele>
				<time>2015-05-06T23:16:11Z</time>
				<extensions>
				</extensions>
			</trkpt>
			<trkpt lat="-27.978173" lon="153.188746">
				<ele>543</ele>
				<time>2015-05-06T23:16:12Z</time>
				<extensions>
				</extensions>
			</trkpt>
			<trkpt lat="-27.978465" lon="153.188722">
				<ele>543</ele>
				<time>2015-05-06T23:16:14Z</time>
				<extensions>
				</extensions>
			</trkpt>
			<trkpt lat="-27.978766" lon="153.188682">
				<ele>543</ele>
				<time>2015-05-06T23:16:16Z</time>
				<extensions>
				</extensions>
			</trkpt>
			<trkpt lat="-27.979085" lon="153.188656">
				<ele>543</ele>
				<time>2015-05-06T23:16:18Z</time>
				<extensions>
				</extensions>
			</trkpt>
			<trkpt lat="-27.979418" lon="153.188628">
				<ele>545</ele>
				<time>2015-05-06T23:16:20Z</time>
				<extensions>
				</extensions>
			</trkpt>
			<trkpt lat="-27.979753" lon="153.188601">
				<ele>546</ele>
				<time>2015-05-06T23:16:22Z</time>
				<extensions>
				</extensions>
			</trkpt>
			<trkpt lat="-27.980083" lon="153.188557">
				<ele>546</ele>
				<time>2015-05-06T23:16:24Z</time>
				<extensions>
				</extensions>
			</trkpt>
			<trkpt lat="-27.980403" lon="153.188485">
				<ele>545</ele>
				<time>2015-05-06T23:16:26Z</time>
				<extensions>
				</extensions>
			</trkpt>
			<trkpt lat="-27.980722" lon="153.188374">
				<ele>546</ele>
				<time>2015-05-06T23:16:28Z</time>
				<extensions>
				</extensions>
			</trkpt>
			<trkpt lat="-27.981036" lon="153.188256">
				<ele>545</ele>
				<time>2015-05-06T23:16:30Z</time>
				<extensions>
				</extensions>
			</trkpt>
			<trkpt lat="-27.981340" lon="153.188146">
				<ele>543</ele>
				<time>2015-05-06T23:16:32Z</time>
				<extensions>
				</extensions>
			</trkpt>
			<trkpt lat="-27.981656" lon="153.188048">
				<ele>542</ele>
				<time>2015-05-06T23:16:34Z</time>
				<extensions>
				</extensions>
			</trkpt>
			<trkpt lat="-27.981949" lon="153.187961">
				<ele>542</ele>
				<time>2015-05-06T23:16:36Z</time>
				<extensions>
				</extensions>
			</trkpt>
			<trkpt lat="-27.982268" lon="153.187891">
				<ele>541</ele>
				<time>2015-05-06T23:16:38Z</time>
				<extensions>
				</extensions>
			</trkpt>
			<trkpt lat="-27.982567" lon="153.187827">
				<ele>542</ele>
				<time>2015-05-06T23:16:40Z</time>
				<extensions>
				</extensions>
			</trkpt>
			<trkpt lat="-27.982886" lon="153.187757">
				<ele>544</ele>
				<time>2015-05-06T23:16:42Z</time>
				<extensions>
				</extensions>
			</trkpt>
			<trkpt lat="-27.983206" lon="153.187679">
				<ele>543</ele>
				<time>2015-05-06T23:16:44Z</time>
				<extensions>
				</extensions>
			</trkpt>
			<trkpt lat="-27.983518" lon="153.187603">
				<ele>543</ele>
				<time>2015-05-06T23:16:46Z</time>
				<extensions>
				</extensions>
			</trkpt>
			<trkpt lat="-27.983822" lon="153.187522">
				<ele>543</ele>
				<time>2015-05-06T23:16:48Z</time>
				<extensions>
				</extensions>
			</trkpt>
			<trkpt lat="-27.984130" lon="153.187416">
				<ele>544</ele>
				<time>2015-05-06T23:16:50Z</time>
				<extensions>
				</extensions>
			</trkpt>
			<trkpt lat="-27.984440" lon="153.187269">
				<ele>543</ele>
				<time>2015-05-06T23:16:52Z</time>
				<extensions>
				</extensions>
			</trkpt>
			<trkpt lat="-27.984743" lon="153.187141">
				<ele>544</ele>
				<time>2015-05-06T23:16:54Z</time>
				<extensions>
				</extensions>
			</trkpt>
			<trkpt lat="-27.985044" lon="153.186997">
				<ele>543</ele>
				<time>2015-05-06T23:16:56Z</time>
				<extensions>
				</extensions>
			</trkpt>
			<trkpt lat="-27.985348" lon="153.186861">
				<ele>543</ele>
				<time>2015-05-06T23:16:58Z</time>
				<extensions>
				</extensions>
			</trkpt>
			<trkpt lat="-27.985647" lon="153.186749">
				<ele>541</ele>
				<time>2015-05-06T23:17:00Z</time>
				<extensions>
				</extensions>
			</trkpt>
			<trkpt lat="-27.985964" lon="153.186664">
				<ele>542</ele>
				<time>2015-05-06T23:17:02Z</time>
				<extensions>
				</extensions>
			</trkpt>
			<trkpt lat="-27.986240" lon="153.186605">
				<ele>542</ele>
				<time>2015-05-06T23:17:04Z</time>
				<extensions>
				</extensions>
			</trkpt>
			<trkpt lat="-27.986528" lon="153.186554">
				<ele>542</ele>
				<time>2015-05-06T23:17:06Z</time>
				<extensions>
				</extensions>
			</trkpt>
			<trkpt lat="-27.986833" lon="153.186501">
				<ele>540</ele>
				<time>2015-05-06T23:17:08Z</time>
				<extensions>
				</extensions>
			</trkpt>
			<trkpt lat="-27.987116" lon="153.186439">
				<ele>538</ele>
				<time>2015-05-06T23:17:10Z</time>
				<extensions>
				</extensions>
			</trkpt>
			<trkpt lat="-27.987391" lon="153.186379">
				<ele>536</ele>
				<time>2015-05-06T23:17:12Z</time>
				<extensions>
				</extensions>
			</trkpt>
			<trkpt lat="-27.987664" lon="153.186318">
				<ele>534</ele>
				<time>2015-05-06T23:17:14Z</time>
				<extensions>
				</extensions>
			</trkpt>
			<trkpt lat="-27.987955" lon="153.186238">
				<ele>533</ele>
				<time>2015-05-06T23:17:16Z</time>
				<extensions>
				</extensions>
			</trkpt>
			<trkpt lat="-27.988251" lon="153.186127">
				<ele>533</ele>
				<time>2015-05-06T23:17:18Z</time>
				<extensions>
				</extensions>
			</trkpt>
			<trkpt lat="-27.988529" lon="153.186000">
				<ele>533</ele>
				<time>2015-05-06T23:17:20Z</time>
				<extensions>
				</extensions>
			</trkpt>
			<trkpt lat="-27.988805" lon="153.185846">
				<ele>533</ele>
				<time>2015-05-06T23:17:22Z</time>
				<extensions>
				</extensions>
			</trkpt>
			<trkpt lat="-27.989073" lon="153.185666">
				<ele>533</ele>
				<time>2015-05-06T23:17:24Z</time>
				<extensions>
				</extensions>
			</trkpt>
			<trkpt lat="-27.989326" lon="153.185463">
				<ele>533</ele>
				<time>2015-05-06T23:17:26Z</time>
				<extensions>
				</extensions>
			</trkpt>
			<trkpt lat="-27.989562" lon="153.185268">
				<ele>531</ele>
				<time>2015-05-06T23:17:28Z</time>
				<extensions>
				</extensions>
			</trkpt>
			<trkpt lat="-27.989766" lon="153.185104">
				<ele>529</ele>
				<time>2015-05-06T23:17:30Z</time>
				<extensions>
				</extensions>
			</trkpt>
			<trkpt lat="-27.989940" lon="153.184954">
				<ele>527</ele>
				<time>2015-05-06T23:17:32Z</time>
				<extensions>
				</extensions>
			</trkpt>
			<trkpt lat="-27.990092" lon="153.184830">
				<ele>524</ele>
				<time>2015-05-06T23:17:34Z</time>
				<extensions>
				</extensions>
			</trkpt>
			<trkpt lat="-27.990295" lon="153.184675">
				<ele>522</ele>
				<time>2015-05-06T23:17:37Z</time>
				<extensions>
				</extensions>
			</trkpt>
			<trkpt lat="-27.990461" lon="153.184546">
				<ele>519</ele>
				<time>2015-05-06T23:17:40Z</time>
				<extensions>
				</extensions>
			</trkpt>
			<trkpt lat="-27.990647" lon="153.184426">
				<ele>517</ele>
				<time>2015-05-06T23:17:44Z</time>
				<extensions>
				</extensions>
			</trkpt>
			<trkpt lat="-27.990809" lon="153.184329">
				<ele>515</ele>
				<time>2015-05-06T23:17:49Z</time>
				<extensions>
				</extensions>
			</trkpt>
			<trkpt lat="-27.990983" lon="153.184261">
				<ele>515</ele>
				<time>2015-05-06T23:18:47Z</time>
				<extensions>
				</extensions>
			</trkpt>
			<trkpt lat="-27.991182" lon="153.184180">
				<ele>514</ele>
				<time>2015-05-06T23:18:52Z</time>
				<extensions>
				</extensions>
			</trkpt>
			<trkpt lat="-27.991347" lon="153.184081">
				<ele>514</ele>
				<time>2015-05-06T23:18:55Z</time>
				<extensions>
				</extensions>
			</trkpt>
			<trkpt lat="-27.991528" lon="153.183930">
				<ele>513</ele>
				<time>2015-05-06T23:18:58Z</time>
				<extensions>
				</extensions>
			</trkpt>
			<trkpt lat="-27.991704" lon="153.183722">
				<ele>511</ele>
				<time>2015-05-06T23:19:01Z</time>
				<extensions>
				</extensions>
			</trkpt>
			<trkpt lat="-27.991851" lon="153.183579">
				<ele>509</ele>
				<time>2015-05-06T23:19:03Z</time>
				<extensions>
				</extensions>
			</trkpt>
			<trkpt lat="-27.992001" lon="153.183462">
				<ele>506</ele>
				<time>2015-05-06T23:19:05Z</time>
				<extensions>
				</extensions>
			</trkpt>
			<trkpt lat="-27.992156" lon="153.183332">
				<ele>504</ele>
				<time>2015-05-06T23:19:07Z</time>
				<extensions>
				</extensions>
			</trkpt>
			<trkpt lat="-27.992316" lon="153.183189">
				<ele>502</ele>
				<time>2015-05-06T23:19:09Z</time>
				<extensions>
				</extensions>
			</trkpt>
			<trkpt lat="-27.992462" lon="153.183054">
				<ele>500</ele>
				<time>2015-05-06T23:19:11Z</time>
				<extensions>
				</extensions>
			</trkpt>
			<trkpt lat="-27.992608" lon="153.182893">
				<ele>496</ele>
				<time>2015-05-06T23:19:14Z</time>
				<extensions>
				</extensions>
			</trkpt>
			<trkpt lat="-27.992800" lon="153.182720">
				<ele>492</ele>
				<time>2015-05-06T23:19:18Z</time>
				<extensions>
				</extensions>
			</trkpt>
			<trkpt lat="-27.992952" lon="153.182568">
				<ele>488</ele>
				<time>2015-05-06T23:19:22Z</time>
				<extensions>
				</extensions>
			</trkpt>
			<trkpt lat="-27.993105" lon="153.182417">
				<ele>485</ele>
				<time>2015-05-06T23:19:26Z</time>
				<extensions>
				</extensions>
			</trkpt>
			<trkpt lat="-27.993265" lon="153.182241">
				<ele>484</ele>
				<time>2015-05-06T23:19:29Z</time>
				<extensions>
				</extensions>
			</trkpt>
			<trkpt lat="-27.993406" lon="153.182042">
				<ele>481</ele>
				<time>2015-05-06T23:19:32Z</time>
				<extensions>
				</extensions>
			</trkpt>
			<trkpt lat="-27.993572" lon="153.181845">
				<ele>480</ele>
				<time>2015-05-06T23:19:35Z</time>
				<extensions>
				</extensions>
			</trkpt>
			<trkpt lat="-27.993741" lon="153.181639">
				<ele>478</ele>
				<time>2015-05-06T23:19:38Z</time>
				<extensions>
				</extensions>
			</trkpt>
			<trkpt lat="-27.993896" lon="153.181471">
				<ele>476</ele>
				<time>2015-05-06T23:19:41Z</time>
				<extensions>
				</extensions>
			</trkpt>
			<trkpt lat="-27.994029" lon="153.181278">
				<ele>472</ele>
				<time>2015-05-06T23:19:44Z</time>
				<extensions>
				</extensions>
			</trkpt>
			<trkpt lat="-27.994106" lon="153.181070">
				<ele>469</ele>
				<time>2015-05-06T23:19:47Z</time>
				<extensions>
				</extensions>
			</trkpt>
			<trkpt lat="-27.994221" lon="153.180859">
				<ele>466</ele>
				<time>2015-05-06T23:19:50Z</time>
				<extensions>
				</extensions>
			</trkpt>
			<trkpt lat="-27.994429" lon="153.180693">
				<ele>464</ele>
				<time>2015-05-06T23:19:53Z</time>
				<extensions>
				</extensions>
			</trkpt>
			<trkpt lat="-27.994653" lon="153.180652">
				<ele>459</ele>
				<time>2015-05-06T23:19:56Z</time>
				<extensions>
				</extensions>
			</trkpt>
			<trkpt lat="-27.994886" lon="153.180638">
				<ele>457</ele>
				<time>2015-05-06T23:19:59Z</time>
				<extensions>
				</extensions>
			</trkpt>
			<trkpt lat="-27.995079" lon="153.180638">
				<ele>454</ele>
				<time>2015-05-06T23:20:01Z</time>
				<extensions>
				</extensions>
			</trkpt>
			<trkpt lat="-27.995331" lon="153.180670">
				<ele>449</ele>
				<time>2015-05-06T23:20:04Z</time>
				<extensions>
				</extensions>
			</trkpt>
			<trkpt lat="-27.995516" lon="153.180685">
				<ele>447</ele>
				<time>2015-05-06T23:20:06Z</time>
				<extensions>
				</extensions>
			</trkpt>
			<trkpt lat="-27.995728" lon="153.180682">
				<ele>444</ele>
				<time>2015-05-06T23:20:08Z</time>
				<extensions>
				</extensions>
			</trkpt>
			<trkpt lat="-27.995954" lon="153.180646">
				<ele>441</ele>
				<time>2015-05-06T23:20:10Z</time>
				<extensions>
				</extensions>
			</trkpt>
			<trkpt lat="-27.996197" lon="153.180588">
				<ele>438</ele>
				<time>2015-05-06T23:20:12Z</time>
				<extensions>
				</extensions>
			</trkpt>
			<trkpt lat="-27.996424" lon="153.180503">
				<ele>435</ele>
				<time>2015-05-06T23:20:14Z</time>
				<extensions>
				</extensions>
			</trkpt>
			<trkpt lat="-27.996721" lon="153.180367">
				<ele>434</ele>
				<time>2015-05-06T23:20:16Z</time>
				<extensions>
				</extensions>
			</trkpt>
			<trkpt lat="-27.996960" lon="153.180241">
				<ele>434</ele>
				<time>2015-05-06T23:20:18Z</time>
				<extensions>
				</extensions>
			</trkpt>
			<trkpt lat="-27.997202" lon="153.180134">
				<ele>431</ele>
				<time>2015-05-06T23:20:20Z</time>
				<extensions>
				</extensions>
			</trkpt>
			<trkpt lat="-27.997457" lon="153.180060">
				<ele>429</ele>
				<time>2015-05-06T23:20:22Z</time>
				<extensions>
				</extensions>
			</trkpt>
			<trkpt lat="-27.997707" lon="153.180061">
				<ele>429</ele>
				<time>2015-05-06T23:20:24Z</time>
				<extensions>
				</extensions>
			</trkpt>
			<trkpt lat="-27.997960" lon="153.180141">
				<ele>429</ele>
				<time>2015-05-06T23:20:26Z</time>
				<extensions>
				</extensions>
			</trkpt>
			<trkpt lat="-27.998197" lon="153.180252">
				<ele>431</ele>
				<time>2015-05-06T23:20:28Z</time>
				<extensions>
				</extensions>
			</trkpt>
			<trkpt lat="-27.998449" lon="153.180379">
				<ele>433</ele>
				<time>2015-05-06T23:20:30Z</time>
				<extensions>
				</extensions>
			</trkpt>
			<trkpt lat="-27.998697" lon="153.180530">
				<ele>433</ele>
				<time>2015-05-06T23:20:32Z</time>
				<extensions>
				</extensions>
			</trkpt>
			<trkpt lat="-27.998937" lon="153.180664">
				<ele>433</ele>
				<time>2015-05-06T23:20:34Z</time>
				<extensions>
				</extensions>
			</trkpt>
			<trkpt lat="-27.999186" lon="153.180801">
				<ele>433</ele>
				<time>2015-05-06T23:20:36Z</time>
				<extensions>
				</extensions>
			</trkpt>
			<trkpt lat="-27.999421" lon="153.180944">
				<ele>431</ele>
				<time>2015-05-06T23:20:38Z</time>
				<extensions>
				</extensions>
			</trkpt>
			<trkpt lat="-27.999623" lon="153.181081">
				<ele>430</ele>
				<time>2015-05-06T23:20:40Z</time>
				<extensions>
				</extensions>
			</trkpt>
			<trkpt lat="-27.999834" lon="153.181188">
				<ele>430</ele>
				<time>2015-05-06T23:20:42Z</time>
				<extensions>
				</extensions>
			</trkpt>
			<trkpt lat="-28.000074" lon="153.181244">
				<ele>432</ele>
				<time>2015-05-06T23:20:44Z</time>
				<extensions>
				</extensions>
			</trkpt>
			<trkpt lat="-28.000323" lon="153.181257">
				<ele>433</ele>
				<time>2015-05-06T23:20:46Z</time>
				<extensions>
				</extensions>
			</trkpt>
			<trkpt lat="-28.000578" lon="153.181221">
				<ele>433</ele>
				<time>2015-05-06T23:20:48Z</time>
				<extensions>
				</extensions>
			</trkpt>
			<trkpt lat="-28.000822" lon="153.181132">
				<ele>433</ele>
				<time>2015-05-06T23:20:50Z</time>
				<extensions>
				</extensions>
			</trkpt>
			<trkpt lat="-28.001064" lon="153.181010">
				<ele>431</ele>
				<time>2015-05-06T23:20:52Z</time>
				<extensions>
				</extensions>
			</trkpt>
			<trkpt lat="-28.001291" lon="153.180820">
				<ele>430</ele>
				<time>2015-05-06T23:20:54Z</time>
				<extensions>
				</extensions>
			</trkpt>
			<trkpt lat="-28.001511" lon="153.180633">
				<ele>427</ele>
				<time>2015-05-06T23:20:56Z</time>
				<extensions>
				</extensions>
			</trkpt>
			<trkpt lat="-28.001734" lon="153.180413">
				<ele>424</ele>
				<time>2015-05-06T23:20:58Z</time>
				<extensions>
				</extensions>
			</trkpt>
			<trkpt lat="-28.001953" lon="153.180196">
				<ele>423</ele>
				<time>2015-05-06T23:21:00Z</time>
				<extensions>
				</extensions>
			</trkpt>
			<trkpt lat="-28.002154" lon="153.180000">
				<ele>420</ele>
				<time>2015-05-06T23:21:02Z</time>
				<extensions>
				</extensions>
			</trkpt>
			<trkpt lat="-28.002363" lon="153.179857">
				<ele>416</ele>
				<time>2015-05-06T23:21:04Z</time>
				<extensions>
				</extensions>
			</trkpt>
			<trkpt lat="-28.002589" lon="153.179773">
				<ele>415</ele>
				<time>2015-05-06T23:21:06Z</time>
				<extensions>
				</extensions>
			</trkpt>
			<trkpt lat="-28.002843" lon="153.179738">
				<ele>416</ele>
				<time>2015-05-06T23:21:08Z</time>
				<extensions>
				</extensions>
			</trkpt>
			<trkpt lat="-28.003101" lon="153.179710">
				<ele>414</ele>
				<time>2015-05-06T23:21:10Z</time>
				<extensions>
				</extensions>
			</trkpt>
			<trkpt lat="-28.003317" lon="153.179664">
				<ele>412</ele>
				<time>2015-05-06T23:21:12Z</time>
				<extensions>
				</extensions>
			</trkpt>
			<trkpt lat="-28.003545" lon="153.179583">
				<ele>410</ele>
				<time>2015-05-06T23:21:14Z</time>
				<extensions>
				</extensions>
			</trkpt>
			<trkpt lat="-28.003792" lon="153.179477">
				<ele>406</ele>
				<time>2015-05-06T23:21:16Z</time>
				<extensions>
				</extensions>
			</trkpt>
			<trkpt lat="-28.004066" lon="153.179359">
				<ele>403</ele>
				<time>2015-05-06T23:21:18Z</time>
				<extensions>
				</extensions>
			</trkpt>
			<trkpt lat="-28.004315" lon="153.179217">
				<ele>399</ele>
				<time>2015-05-06T23:21:20Z</time>
				<extensions>
				</extensions>
			</trkpt>
			<trkpt lat="-28.004579" lon="153.179051">
				<ele>396</ele>
				<time>2015-05-06T23:21:22Z</time>
				<extensions>
				</extensions>
			</trkpt>
			<trkpt lat="-28.004868" lon="153.178873">
				<ele>393</ele>
				<time>2015-05-06T23:21:24Z</time>
				<extensions>
				</extensions>
			</trkpt>
			<trkpt lat="-28.005166" lon="153.178687">
				<ele>387</ele>
				<time>2015-05-06T23:21:26Z</time>
				<extensions>
				</extensions>
			</trkpt>
			<trkpt lat="-28.005453" lon="153.178504">
				<ele>382</ele>
				<time>2015-05-06T23:21:28Z</time>
				<extensions>
				</extensions>
			</trkpt>
			<trkpt lat="-28.005744" lon="153.178332">
				<ele>377</ele>
				<time>2015-05-06T23:21:30Z</time>
				<extensions>
				</extensions>
			</trkpt>
			<trkpt lat="-28.006014" lon="153.178177">
				<ele>371</ele>
				<time>2015-05-06T23:21:32Z</time>
				<extensions>
				</extensions>
			</trkpt>
			<trkpt lat="-28.006291" lon="153.178048">
				<ele>367</ele>
				<time>2015-05-06T23:21:34Z</time>
				<extensions>
				</extensions>
			</trkpt>
			<trkpt lat="-28.006554" lon="153.177939">
				<ele>364</ele>
				<time>2015-05-06T23:21:36Z</time>
				<extensions>
				</extensions>
			</trkpt>
			<trkpt lat="-28.006799" lon="153.177851">
				<ele>361</ele>
				<time>2015-05-06T23:21:38Z</time>
				<extensions>
				</extensions>
			</trkpt>
			<trkpt lat="-28.006992" lon="153.177809">
				<ele>357</ele>
				<time>2015-05-06T23:21:40Z</time>
				<extensions>
				</extensions>
			</trkpt>
			<trkpt lat="-28.007248" lon="153.177769">
				<ele>354</ele>
				<time>2015-05-06T23:21:43Z</time>
				<extensions>
				</extensions>
			</trkpt>
			<trkpt lat="-28.007485" lon="153.177685">
				<ele>351</ele>
				<time>2015-05-06T23:21:46Z</time>
				<extensions>
				</extensions>
			</trkpt>
			<trkpt lat="-28.007650" lon="153.177513">
				<ele>349</ele>
				<time>2015-05-06T23:21:49Z</time>
				<extensions>
				</extensions>
			</trkpt>
			<trkpt lat="-28.007707" lon="153.177302">
				<ele>349</ele>
				<time>2015-05-06T23:21:51Z</time>
				<extensions>
				</extensions>
			</trkpt>
			<trkpt lat="-28.007499" lon="153.177145">
				<ele>348</ele>
				<time>2015-05-06T23:21:54Z</time>
				<extensions>
				</extensions>
			</trkpt>
			<trkpt lat="-28.007317" lon="153.177135">
				<ele>348</ele>
				<time>2015-05-06T23:21:56Z</time>
				<extensions>
				</extensions>
			</trkpt>
			<trkpt lat="-28.007084" lon="153.177127">
				<ele>347</ele>
				<time>2015-05-06T23:21:58Z</time>
				<extensions>
				</extensions>
			</trkpt>
			<trkpt lat="-28.006875" lon="153.177121">
				<ele>344</ele>
				<time>2015-05-06T23:22:00Z</time>
				<extensions>
				</extensions>
			</trkpt>
			<trkpt lat="-28.006662" lon="153.177098">
				<ele>341</ele>
				<time>2015-05-06T23:22:02Z</time>
				<extensions>
				</extensions>
			</trkpt>
			<trkpt lat="-28.006423" lon="153.177026">
				<ele>338</ele>
				<time>2015-05-06T23:22:04Z</time>
				<extensions>
				</extensions>
			</trkpt>
			<trkpt lat="-28.006223" lon="153.176934">
				<ele>332</ele>
				<time>2015-05-06T23:22:06Z</time>
				<extensions>
				</extensions>
			</trkpt>
			<trkpt lat="-28.006044" lon="153.176864">
				<ele>330</ele>
				<time>2015-05-06T23:22:08Z</time>
				<extensions>
				</extensions>
			</trkpt>
			<trkpt lat="-28.005862" lon="153.176799">
				<ele>325</ele>
				<time>2015-05-06T23:22:11Z</time>
				<extensions>
				</extensions>
			</trkpt>
			<trkpt lat="-28.006019" lon="153.176642">
				<ele>320</ele>
				<time>2015-05-06T23:22:17Z</time>
				<extensions>
				</extensions>
			</trkpt>
			<trkpt lat="-28.006279" lon="153.176594">
				<ele>319</ele>
				<time>2015-05-06T23:22:20Z</time>
				<extensions>
				</extensions>
			</trkpt>
			<trkpt lat="-28.006481" lon="153.176588">
				<ele>319</ele>
				<time>2015-05-06T23:22:22Z</time>
				<extensions>
				</extensions>
			</trkpt>
			<trkpt lat="-28.006667" lon="153.176596">
				<ele>319</ele>
				<time>2015-05-06T23:22:24Z</time>
				<extensions>
				</extensions>
			</trkpt>
			<trkpt lat="-28.006848" lon="153.176594">
				<ele>317</ele>
				<time>2015-05-06T23:22:26Z</time>
				<extensions>
				</extensions>
			</trkpt>
			<trkpt lat="-28.007030" lon="153.176551">
				<ele>316</ele>
				<time>2015-05-06T23:22:28Z</time>
				<extensions>
				</extensions>
			</trkpt>
			<trkpt lat="-28.007178" lon="153.176412">
				<ele>314</ele>
				<time>2015-05-06T23:22:30Z</time>
				<extensions>
				</extensions>
			</trkpt>
			<trkpt lat="-28.007266" lon="153.176178">
				<ele>313</ele>
				<time>2015-05-06T23:22:32Z</time>
				<extensions>
				</extensions>
			</trkpt>
			<trkpt lat="-28.007316" lon="153.175924">
				<ele>312</ele>
				<time>2015-05-06T23:22:34Z</time>
				<extensions>
				</extensions>
			</trkpt>
			<trkpt lat="-28.007361" lon="153.175665">
				<ele>310</ele>
				<time>2015-05-06T23:22:36Z</time>
				<extensions>
				</extensions>
			</trkpt>
			<trkpt lat="-28.007425" lon="153.175456">
				<ele>306</ele>
				<time>2015-05-06T23:22:39Z</time>
				<extensions>
				</extensions>
			</trkpt>
			<trkpt lat="-28.007646" lon="153.175596">
				<ele>305</ele>
				<time>2015-05-06T23:22:43Z</time>
				<extensions>
				</extensions>
			</trkpt>
			<trkpt lat="-28.007754" lon="153.175765">
				<ele>305</ele>
				<time>2015-05-06T23:22:45Z</time>
				<extensions>
				</extensions>
			</trkpt>
			<trkpt lat="-28.007884" lon="153.175964">
				<ele>303</ele>
				<time>2015-05-06T23:22:47Z</time>
				<extensions>
				</extensions>
			</trkpt>
			<trkpt lat="-28.008042" lon="153.176104">
				<ele>301</ele>
				<time>2015-05-06T23:22:49Z</time>
				<extensions>
				</extensions>
			</trkpt>
			<trkpt lat="-28.008255" lon="153.176190">
				<ele>299</ele>
				<time>2015-05-06T23:22:51Z</time>
				<extensions>
				</extensions>
			</trkpt>
			<trkpt lat="-28.008456" lon="153.176248">
				<ele>298</ele>
				<time>2015-05-06T23:22:53Z</time>
				<extensions>
				</extensions>
			</trkpt>
			<trkpt lat="-28.008674" lon="153.176311">
				<ele>295</ele>
				<time>2015-05-06T23:22:55Z</time>
				<extensions>
				</extensions>
			</trkpt>
			<trkpt lat="-28.008887" lon="153.176374">
				<ele>294</ele>
				<time>2015-05-06T23:22:57Z</time>
				<extensions>
				</extensions>
			</trkpt>
			<trkpt lat="-28.009082" lon="153.176433">
				<ele>289</ele>
				<time>2015-05-06T23:22:59Z</time>
				<extensions>
				</extensions>
			</trkpt>
			<trkpt lat="-28.009261" lon="153.176469">
				<ele>286</ele>
				<time>2015-05-06T23:23:01Z</time>
				<extensions>
				</extensions>
			</trkpt>
			<trkpt lat="-28.009546" lon="153.176458">
				<ele>282</ele>
				<time>2015-05-06T23:23:04Z</time>
				<extensions>
				</extensions>
			</trkpt>
			<trkpt lat="-28.009758" lon="153.176329">
				<ele>280</ele>
				<time>2015-05-06T23:23:06Z</time>
				<extensions>
				</extensions>
			</trkpt>
			<trkpt lat="-28.009909" lon="153.176200">
				<ele>277</ele>
				<time>2015-05-06T23:23:08Z</time>
				<extensions>
				</extensions>
			</trkpt>
			<trkpt lat="-28.010089" lon="153.176070">
				<ele>275</ele>
				<time>2015-05-06T23:23:10Z</time>
				<extensions>
				</extensions>
			</trkpt>
			<trkpt lat="-28.010315" lon="153.176010">
				<ele>275</ele>
				<time>2015-05-06T23:23:12Z</time>
				<extensions>
				</extensions>
			</trkpt>
			<trkpt lat="-28.010538" lon="153.176057">
				<ele>275</ele>
				<time>2015-05-06T23:23:14Z</time>
				<extensions>
				</extensions>
			</trkpt>
			<trkpt lat="-28.010755" lon="153.176140">
				<ele>275</ele>
				<time>2015-05-06T23:23:16Z</time>
				<extensions>
				</extensions>
			</trkpt>
			<trkpt lat="-28.010991" lon="153.176193">
				<ele>272</ele>
				<time>2015-05-06T23:23:18Z</time>
				<extensions>
				</extensions>
			</trkpt>
			<trkpt lat="-28.011212" lon="153.176190">
				<ele>270</ele>
				<time>2015-05-06T23:23:20Z</time>
				<extensions>
				</extensions>
			</trkpt>
			<trkpt lat="-28.011440" lon="153.176137">
				<ele>268</ele>
				<time>2015-05-06T23:23:22Z</time>
				<extensions>
				</extensions>
			</trkpt>
			<trkpt lat="-28.011635" lon="153.176107">
				<ele>263</ele>
				<time>2015-05-06T23:23:24Z</time>
				<extensions>
				</extensions>
			</trkpt>
			<trkpt lat="-28.011852" lon="153.176088">
				<ele>259</ele>
				<time>2015-05-06T23:23:27Z</time>
				<extensions>
				</extensions>
			</trkpt>
			<trkpt lat="-28.012007" lon="153.175896">
				<ele>255</ele>
				<time>2015-05-06T23:23:31Z</time>
				<extensions>
				</extensions>
			</trkpt>
			<trkpt lat="-28.011872" lon="153.175675">
				<ele>253</ele>
				<time>2015-05-06T23:23:35Z</time>
				<extensions>
				</extensions>
			</trkpt>
			<trkpt lat="-28.011645" lon="153.175618">
				<ele>250</ele>
				<time>2015-05-06T23:23:39Z</time>
				<extensions>
				</extensions>
			</trkpt>
			<trkpt lat="-28.011405" lon="153.175539">
				<ele>246</ele>
				<time>2015-05-06T23:23:42Z</time>
				<extensions>
				</extensions>
			</trkpt>
			<trkpt lat="-28.011385" lon="153.175314">
				<ele>243</ele>
				<time>2015-05-06T23:23:46Z</time>
				<extensions>
				</extensions>
			</trkpt>
			<trkpt lat="-28.011571" lon="153.175286">
				<ele>242</ele>
				<time>2015-05-06T23:23:48Z</time>
				<extensions>
				</extensions>
			</trkpt>
			<trkpt lat="-28.011766" lon="153.175267">
				<ele>240</ele>
				<time>2015-05-06T23:23:50Z</time>
				<extensions>
				</extensions>
			</trkpt>
			<trkpt lat="-28.011985" lon="153.175206">
				<ele>239</ele>
				<time>2015-05-06T23:23:52Z</time>
				<extensions>
				</extensions>
			</trkpt>
			<trkpt lat="-28.012160" lon="153.175139">
				<ele>237</ele>
				<time>2015-05-06T23:23:54Z</time>
				<extensions>
				</extensions>
			</trkpt>
			<trkpt lat="-28.012363" lon="153.175114">
				<ele>234</ele>
				<time>2015-05-06T23:23:56Z</time>
				<extensions>
				</extensions>
			</trkpt>
			<trkpt lat="-28.012574" lon="153.175150">
				<ele>233</ele>
				<time>2015-05-06T23:23:58Z</time>
				<extensions>
				</extensions>
			</trkpt>
			<trkpt lat="-28.012763" lon="153.175222">
				<ele>230</ele>
				<time>2015-05-06T23:24:00Z</time>
				<extensions>
				</extensions>
			</trkpt>
			<trkpt lat="-28.012958" lon="153.175310">
				<ele>228</ele>
				<time>2015-05-06T23:24:02Z</time>
				<extensions>
				</extensions>
			</trkpt>
			<trkpt lat="-28.013145" lon="153.175396">
				<ele>226</ele>
				<time>2015-05-06T23:24:04Z</time>
				<extensions>
				</extensions>
			</trkpt>
			<trkpt lat="-28.013349" lon="153.175442">
				<ele>225</ele>
				<time>2015-05-06T23:24:06Z</time>
				<extensions>
				</extensions>
			</trkpt>
			<trkpt lat="-28.013534" lon="153.175481">
				<ele>222</ele>
				<time>2015-05-06T23:24:08Z</time>
				<extensions>
				</extensions>
			</trkpt>
			<trkpt lat="-28.013723" lon="153.175511">
				<ele>221</ele>
				<time>2015-05-06T23:24:10Z</time>
				<extensions>
				</extensions>
			</trkpt>
			<trkpt lat="-28.013979" lon="153.175477">
				<ele>219</ele>
				<time>2015-05-06T23:24:13Z</time>
				<extensions>
				</extensions>
			</trkpt>
			<trkpt lat="-28.014185" lon="153.175452">
				<ele>218</ele>
				<time>2015-05-06T23:24:15Z</time>
				<extensions>
				</extensions>
			</trkpt>
			<trkpt lat="-28.014401" lon="153.175393">
				<ele>216</ele>
				<time>2015-05-06T23:24:17Z</time>
				<extensions>
				</extensions>
			</trkpt>
			<trkpt lat="-28.014617" lon="153.175317">
				<ele>215</ele>
				<time>2015-05-06T23:24:19Z</time>
				<extensions>
				</extensions>
			</trkpt>
			<trkpt lat="-28.014822" lon="153.175253">
				<ele>213</ele>
				<time>2015-05-06T23:24:21Z</time>
				<extensions>
				</extensions>
			</trkpt>
			<trkpt lat="-28.015018" lon="153.175207">
				<ele>212</ele>
				<time>2015-05-06T23:24:23Z</time>
				<extensions>
				</extensions>
			</trkpt>
			<trkpt lat="-28.015200" lon="153.175164">
				<ele>211</ele>
				<time>2015-05-06T23:24:25Z</time>
				<extensions>
				</extensions>
			</trkpt>
			<trkpt lat="-28.015383" lon="153.175125">
				<ele>211</ele>
				<time>2015-05-06T23:24:27Z</time>
				<extensions>
				</extensions>
			</trkpt>
			<trkpt lat="-28.015622" lon="153.175079">
				<ele>209</ele>
				<time>2015-05-06T23:24:30Z</time>
				<extensions>
				</extensions>
			</trkpt>
			<trkpt lat="-28.015828" lon="153.175048">
				<ele>208</ele>
				<time>2015-05-06T23:24:33Z</time>
				<extensions>
				</extensions>
			</trkpt>
			<trkpt lat="-28.016026" lon="153.175030">
				<ele>206</ele>
				<time>2015-05-06T23:24:36Z</time>
				<extensions>
				</extensions>
			</trkpt>
			<trkpt lat="-28.016251" lon="153.175007">
				<ele>203</ele>
				<time>2015-05-06T23:24:40Z</time>
				<extensions>
				</extensions>
			</trkpt>
			<trkpt lat="-28.016447" lon="153.174994">
				<ele>201</ele>
				<time>2015-05-06T23:24:44Z</time>
				<extensions>
				</extensions>
			</trkpt>
			<trkpt lat="-28.016668" lon="153.174976">
				<ele>199</ele>
				<time>2015-05-06T23:24:49Z</time>
				<extensions>
				</extensions>
			</trkpt>
			<trkpt lat="-28.016881" lon="153.174981">
				<ele>197</ele>
				<time>2015-05-06T23:24:54Z</time>
				<extensions>
				</extensions>
			</trkpt>
			<trkpt lat="-28.017124" lon="153.174964">
				<ele>195</ele>
				<time>2015-05-06T23:24:58Z</time>
				<extensions>
				</extensions>
			</trkpt>
			<trkpt lat="-28.017309" lon="153.174945">
				<ele>194</ele>
				<time>2015-05-06T23:25:01Z</time>
				<extensions>
				</extensions>
			</trkpt>
			<trkpt lat="-28.017506" lon="153.174926">
				<ele>192</ele>
				<time>2015-05-06T23:25:05Z</time>
				<extensions>
				</extensions>
			</trkpt>
			<trkpt lat="-28.017689" lon="153.174969">
				<ele>191</ele>
				<time>2015-05-06T23:25:08Z</time>
				<extensions>
				</extensions>
			</trkpt>
			<trkpt lat="-28.017916" lon="153.175029">
				<ele>189</ele>
				<time>2015-05-06T23:25:11Z</time>
				<extensions>
				</extensions>
			</trkpt>
			<trkpt lat="-28.018143" lon="153.174947">
				<ele>188</ele>
				<time>2015-05-06T23:25:14Z</time>
				<extensions>
				</extensions>
			</trkpt>
			<trkpt lat="-28.018286" lon="153.174820">
				<ele>186</ele>
				<time>2015-05-06T23:25:16Z</time>
				<extensions>
				</extensions>
			</trkpt>
			<trkpt lat="-28.018447" lon="153.174649">
				<ele>185</ele>
				<time>2015-05-06T23:25:18Z</time>
				<extensions>
				</extensions>
			</trkpt>
			<trkpt lat="-28.018588" lon="153.174452">
				<ele>184</ele>
				<time>2015-05-06T23:25:20Z</time>
				<extensions>
				</extensions>
			</trkpt>
			<trkpt lat="-28.018727" lon="153.174224">
				<ele>181</ele>
				<time>2015-05-06T23:25:22Z</time>
				<extensions>
				</extensions>
			</trkpt>
			<trkpt lat="-28.018858" lon="153.173961">
				<ele>178</ele>
				<time>2015-05-06T23:25:24Z</time>
				<extensions>
				</extensions>
			</trkpt>
			<trkpt lat="-28.019041" lon="153.173703">
				<ele>177</ele>
				<time>2015-05-06T23:25:26Z</time>
				<extensions>
				</extensions>
			</trkpt>
			<trkpt lat="-28.019279" lon="153.173459">
				<ele>173</ele>
				<time>2015-05-06T23:25:28Z</time>
				<extensions>
				</extensions>
			</trkpt>
			<trkpt lat="-28.019539" lon="153.173242">
				<ele>170</ele>
				<time>2015-05-06T23:25:30Z</time>
				<extensions>
				</extensions>
			</trkpt>
			<trkpt lat="-28.019812" lon="153.173035">
				<ele>167</ele>
				<time>2015-05-06T23:25:32Z</time>
				<extensions>
				</extensions>
			</trkpt>
			<trkpt lat="-28.020099" lon="153.172858">
				<ele>164</ele>
				<time>2015-05-06T23:25:34Z</time>
				<extensions>
				</extensions>
			</trkpt>
			<trkpt lat="-28.020294" lon="153.172637">
				<ele>162</ele>
				<time>2015-05-06T23:25:36Z</time>
				<extensions>
				</extensions>
			</trkpt>
			<trkpt lat="-28.020457" lon="153.172413">
				<ele>161</ele>
				<time>2015-05-06T23:25:38Z</time>
				<extensions>
				</extensions>
			</trkpt>
			<trkpt lat="-28.020596" lon="153.172197">
				<ele>160</ele>
				<time>2015-05-06T23:25:40Z</time>
				<extensions>
				</extensions>
			</trkpt>
			<trkpt lat="-28.020703" lon="153.171998">
				<ele>160</ele>
				<time>2015-05-06T23:25:42Z</time>
				<extensions>
				</extensions>
			</trkpt>
			<trkpt lat="-28.020771" lon="153.171791">
				<ele>158</ele>
				<time>2015-05-06T23:25:44Z</time>
				<extensions>
				</extensions>
			</trkpt>
			<trkpt lat="-28.020806" lon="153.171589">
				<ele>158</ele>
				<time>2015-05-06T23:25:46Z</time>
				<extensions>
				</extensions>
			</trkpt>
			<trkpt lat="-28.020734" lon="153.171316">
				<ele>155</ele>
				<time>2015-05-06T23:25:49Z</time>
				<extensions>
				</extensions>
			</trkpt>
			<trkpt lat="-28.020644" lon="153.171099">
				<ele>152</ele>
				<time>2015-05-06T23:25:52Z</time>
				<extensions>
				</extensions>
			</trkpt>
			<trkpt lat="-28.020613" lon="153.170894">
				<ele>150</ele>
				<time>2015-05-06T23:25:57Z</time>
				<extensions>
				</extensions>
			</trkpt>
			<trkpt lat="-28.020508" lon="153.170659">
				<ele>152</ele>
				<time>2015-05-06T23:26:23Z</time>
				<extensions>
				</extensions>
			</trkpt>
			<trkpt lat="-28.020314" lon="153.170508">
				<ele>153</ele>
				<time>2015-05-06T23:26:25Z</time>
				<extensions>
				</extensions>
			</trkpt>
			<trkpt lat="-28.020123" lon="153.170345">
				<ele>151</ele>
				<time>2015-05-06T23:26:27Z</time>
				<extensions>
				</extensions>
			</trkpt>
			<trkpt lat="-28.019927" lon="153.170165">
				<ele>148</ele>
				<time>2015-05-06T23:26:29Z</time>
				<extensions>
				</extensions>
			</trkpt>
			<trkpt lat="-28.019758" lon="153.169975">
				<ele>146</ele>
				<time>2015-05-06T23:26:31Z</time>
				<extensions>
				</extensions>
			</trkpt>
			<trkpt lat="-28.019600" lon="153.169743">
				<ele>143</ele>
				<time>2015-05-06T23:26:33Z</time>
				<extensions>
				</extensions>
			</trkpt>
			<trkpt lat="-28.019464" lon="153.169482">
				<ele>141</ele>
				<time>2015-05-06T23:26:35Z</time>
				<extensions>
				</extensions>
			</trkpt>
			<trkpt lat="-28.019351" lon="153.169210">
				<ele>138</ele>
				<time>2015-05-06T23:26:37Z</time>
				<extensions>
				</extensions>
			</trkpt>
			<trkpt lat="-28.019267" lon="153.168954">
				<ele>135</ele>
				<time>2015-05-06T23:26:39Z</time>
				<extensions>
				</extensions>
			</trkpt>
			<trkpt lat="-28.019197" lon="153.168681">
				<ele>132</ele>
				<time>2015-05-06T23:26:41Z</time>
				<extensions>
				</extensions>
			</trkpt>
			<trkpt lat="-28.019131" lon="153.168424">
				<ele>129</ele>
				<time>2015-05-06T23:26:43Z</time>
				<extensions>
				</extensions>
			</trkpt>
			<trkpt lat="-28.019046" lon="153.168180">
				<ele>126</ele>
				<time>2015-05-06T23:26:45Z</time>
				<extensions>
				</extensions>
			</trkpt>
			<trkpt lat="-28.018928" lon="153.167952">
				<ele>123</ele>
				<time>2015-05-06T23:26:47Z</time>
				<extensions>
				</extensions>
			</trkpt>
			<trkpt lat="-28.018808" lon="153.167738">
				<ele>121</ele>
				<time>2015-05-06T23:26:49Z</time>
				<extensions>
				</extensions>
			</trkpt>
			<trkpt lat="-28.018686" lon="153.167520">
				<ele>119</ele>
				<time>2015-05-06T23:26:51Z</time>
				<extensions>
				</extensions>
			</trkpt>
			<trkpt lat="-28.018557" lon="153.167304">
				<ele>117</ele>
				<time>2015-05-06T23:26:53Z</time>
				<extensions>
				</extensions>
			</trkpt>
			<trkpt lat="-28.018428" lon="153.167082">
				<ele>115</ele>
				<time>2015-05-06T23:26:55Z</time>
				<extensions>
				</extensions>
			</trkpt>
			<trkpt lat="-28.018301" lon="153.166858">
				<ele>113</ele>
				<time>2015-05-06T23:26:57Z</time>
				<extensions>
				</extensions>
			</trkpt>
			<trkpt lat="-28.018164" lon="153.166627">
				<ele>110</ele>
				<time>2015-05-06T23:26:59Z</time>
				<extensions>
				</extensions>
			</trkpt>
			<trkpt lat="-28.018033" lon="153.166396">
				<ele>108</ele>
				<time>2015-05-06T23:27:01Z</time>
				<extensions>
				</extensions>
			</trkpt>
			<trkpt lat="-28.017899" lon="153.166165">
				<ele>106</ele>
				<time>2015-05-06T23:27:03Z</time>
				<extensions>
				</extensions>
			</trkpt>
			<trkpt lat="-28.017765" lon="153.165936">
				<ele>105</ele>
				<time>2015-05-06T23:27:05Z</time>
				<extensions>
				</extensions>
			</trkpt>
			<trkpt lat="-28.017650" lon="153.165731">
				<ele>101</ele>
				<time>2015-05-06T23:27:07Z</time>
				<extensions>
				</extensions>
			</trkpt>
			<trkpt lat="-28.017554" lon="153.165555">
				<ele>99</ele>
				<time>2015-05-06T23:27:09Z</time>
				<extensions>
				</extensions>
			</trkpt>
			<trkpt lat="-28.017464" lon="153.165374">
				<ele>97</ele>
				<time>2015-05-06T23:27:11Z</time>
				<extensions>
				</extensions>
			</trkpt>
			<trkpt lat="-28.017361" lon="153.165138">
				<ele>95</ele>
				<time>2015-05-06T23:27:14Z</time>
				<extensions>
				</extensions>
			</trkpt>
			<trkpt lat="-28.017272" lon="153.164937">
				<ele>92</ele>
				<time>2015-05-06T23:27:18Z</time>
				<extensions>
				</extensions>
			</trkpt>
			<trkpt lat="-28.017089" lon="153.164948">
				<ele>92</ele>
				<time>2015-05-06T23:27:26Z</time>
				<extensions>
				</extensions>
			</trkpt>
			<trkpt lat="-28.016907" lon="153.164953">
				<ele>91</ele>
				<time>2015-05-06T23:27:32Z</time>
				<extensions>
				</extensions>
			</trkpt>
			<trkpt lat="-28.017085" lon="153.165017">
				<ele>91</ele>
				<time>2015-05-06T23:27:48Z</time>
				<extensions>
				</extensions>
			</trkpt>
			<trkpt lat="-28.017231" lon="153.164896">
				<ele>97</ele>
				<time>2015-05-07T00:03:31Z</time>
				<extensions>
				</extensions>
			</trkpt>
			<trkpt lat="-28.017223" lon="153.164665">
				<ele>100</ele>
				<time>2015-05-07T00:03:34Z</time>
				<extensions>
				</extensions>
			</trkpt>
			<trkpt lat="-28.017188" lon="153.164427">
				<ele>97</ele>
				<time>2015-05-07T00:03:37Z</time>
				<extensions>
				</extensions>
			</trkpt>
			<trkpt lat="-28.017149" lon="153.164155">
				<ele>98</ele>
				<time>2015-05-07T00:03:40Z</time>
				<extensions>
				</extensions>
			</trkpt>
			<trkpt lat="-28.017116" lon="153.163852">
				<ele>98</ele>
				<time>2015-05-07T00:03:43Z</time>
				<extensions>
				</extensions>
			</trkpt>
			<trkpt lat="-28.017083" lon="153.163643">
				<ele>97</ele>
				<time>2015-05-07T00:03:45Z</time>
				<extensions>
				</extensions>
			</trkpt>
			<trkpt lat="-28.017057" lon="153.163435">
				<ele>96</ele>
				<time>2015-05-07T00:03:47Z</time>
				<extensions>
				</extensions>
			</trkpt>
			<trkpt lat="-28.017011" lon="153.163152">
				<ele>96</ele>
				<time>2015-05-07T00:03:50Z</time>
				<extensions>
				</extensions>
			</trkpt>
			<trkpt lat="-28.016989" lon="153.162925">
				<ele>95</ele>
				<time>2015-05-07T00:03:53Z</time>
				<extensions>
				</extensions>
			</trkpt>
			<trkpt lat="-28.016933" lon="153.162667">
				<ele>94</ele>
				<time>2015-05-07T00:03:57Z</time>
				<extensions>
				</extensions>
			</trkpt>
			<trkpt lat="-28.016801" lon="153.162446">
				<ele>95</ele>
				<time>2015-05-07T00:04:00Z</time>
				<extensions>
				</extensions>
			</trkpt>
			<trkpt lat="-28.016731" lon="153.162181">
				<ele>95</ele>
				<time>2015-05-07T00:04:03Z</time>
				<extensions>
				</extensions>
			</trkpt>
			<trkpt lat="-28.016702" lon="153.161980">
				<ele>96</ele>
				<time>2015-05-07T00:04:05Z</time>
				<extensions>
				</extensions>
			</trkpt>
			<trkpt lat="-28.016695" lon="153.161759">
				<ele>96</ele>
				<time>2015-05-07T00:04:07Z</time>
				<extensions>
				</extensions>
			</trkpt>
			<trkpt lat="-28.016704" lon="153.161487">
				<ele>95</ele>
				<time>2015-05-07T00:04:10Z</time>
				<extensions>
				</extensions>
			</trkpt>
			<trkpt lat="-28.016738" lon="153.161259">
				<ele>96</ele>
				<time>2015-05-07T00:04:12Z</time>
				<extensions>
				</extensions>
			</trkpt>
			<trkpt lat="-28.016833" lon="153.161010">
				<ele>97</ele>
				<time>2015-05-07T00:04:14Z</time>
				<extensions>
				</extensions>
			</trkpt>
			<trkpt lat="-28.016981" lon="153.160784">
				<ele>97</ele>
				<time>2015-05-07T00:04:16Z</time>
				<extensions>
				</extensions>
			</trkpt>
			<trkpt lat="-28.017130" lon="153.160571">
				<ele>96</ele>
				<time>2015-05-07T00:04:18Z</time>
				<extensions>
				</extensions>
			</trkpt>
			<trkpt lat="-28.017240" lon="153.160344">
				<ele>96</ele>
				<time>2015-05-07T00:04:20Z</time>
				<extensions>
				</extensions>
			</trkpt>
			<trkpt lat="-28.017276" lon="153.160104">
				<ele>97</ele>
				<time>2015-05-07T00:04:22Z</time>
				<extensions>
				</extensions>
			</trkpt>
			<trkpt lat="-28.017218" lon="153.159855">
				<ele>97</ele>
				<time>2015-05-07T00:04:24Z</time>
				<extensions>
				</extensions>
			</trkpt>
			<trkpt lat="-28.017091" lon="153.159658">
				<ele>97</ele>
				<time>2015-05-07T00:04:26Z</time>
				<extensions>
				</extensions>
			</trkpt>
			<trkpt lat="-28.016899" lon="153.159529">
				<ele>98</ele>
				<time>2015-05-07T00:04:28Z</time>
				<extensions>
				</extensions>
			</trkpt>
			<trkpt lat="-28.016724" lon="153.159462">
				<ele>100</ele>
				<time>2015-05-07T00:04:30Z</time>
				<extensions>
				</extensions>
			</trkpt>
			<trkpt lat="-28.016516" lon="153.159385">
				<ele>102</ele>
				<time>2015-05-07T00:04:32Z</time>
				<extensions>
				</extensions>
			</trkpt>
			<trkpt lat="-28.016296" lon="153.159300">
				<ele>105</ele>
				<time>2015-05-07T00:04:34Z</time>
				<extensions>
				</extensions>
			</trkpt>
			<trkpt lat="-28.016060" lon="153.159224">
				<ele>108</ele>
				<time>2015-05-07T00:04:36Z</time>
				<extensions>
				</extensions>
			</trkpt>
			<trkpt lat="-28.015833" lon="153.159152">
				<ele>111</ele>
				<time>2015-05-07T00:04:38Z</time>
				<extensions>
				</extensions>
			</trkpt>
			<trkpt lat="-28.015608" lon="153.159047">
				<ele>112</ele>
				<time>2015-05-07T00:04:40Z</time>
				<extensions>
				</extensions>
			</trkpt>
			<trkpt lat="-28.015386" lon="153.158913">
				<ele>113</ele>
				<time>2015-05-07T00:04:42Z</time>
				<extensions>
				</extensions>
			</trkpt>
			<trkpt lat="-28.015138" lon="153.158759">
				<ele>114</ele>
				<time>2015-05-07T00:04:44Z</time>
				<extensions>
				</extensions>
			</trkpt>
			<trkpt lat="-28.014891" lon="153.158600">
				<ele>111</ele>
				<time>2015-05-07T00:04:46Z</time>
				<extensions>
				</extensions>
			</trkpt>
			<trkpt lat="-28.014652" lon="153.158431">
				<ele>111</ele>
				<time>2015-05-07T00:04:48Z</time>
				<extensions>
				</extensions>
			</trkpt>
			<trkpt lat="-28.014405" lon="153.158250">
				<ele>109</ele>
				<time>2015-05-07T00:04:50Z</time>
				<extensions>
				</extensions>
			</trkpt>
			<trkpt lat="-28.014151" lon="153.158095">
				<ele>107</ele>
				<time>2015-05-07T00:04:52Z</time>
				<extensions>
				</extensions>
			</trkpt>
			<trkpt lat="-28.013858" lon="153.157980">
				<ele>104</ele>
				<time>2015-05-07T00:04:54Z</time>
				<extensions>
				</extensions>
			</trkpt>
			<trkpt lat="-28.013547" lon="153.157918">
				<ele>102</ele>
				<time>2015-05-07T00:04:56Z</time>
				<extensions>
				</extensions>
			</trkpt>
			<trkpt lat="-28.013243" lon="153.157903">
				<ele>101</ele>
				<time>2015-05-07T00:04:58Z</time>
				<extensions>
				</extensions>
			</trkpt>
			<trkpt lat="-28.012946" lon="153.157895">
				<ele>100</ele>
				<time>2015-05-07T00:05:00Z</time>
				<extensions>
				</extensions>
			</trkpt>
			<trkpt lat="-28.012694" lon="153.157804">
				<ele>103</ele>
				<time>2015-05-07T00:05:02Z</time>
				<extensions>
				</extensions>
			</trkpt>
			<trkpt lat="-28.012437" lon="153.157645">
				<ele>106</ele>
				<time>2015-05-07T00:05:04Z</time>
				<extensions>
				</extensions>
			</trkpt>
			<trkpt lat="-28.012169" lon="153.157446">
				<ele>106</ele>
				<time>2015-05-07T00:05:06Z</time>
				<extensions>
				</extensions>
			</trkpt>
			<trkpt lat="-28.011898" lon="153.157231">
				<ele>107</ele>
				<time>2015-05-07T00:05:08Z</time>
				<extensions>
				</extensions>
			</trkpt>
			<trkpt lat="-28.011625" lon="153.156992">
				<ele>106</ele>
				<time>2015-05-07T00:05:10Z</time>
				<extensions>
				</extensions>
			</trkpt>
			<trkpt lat="-28.011354" lon="153.156731">
				<ele>105</ele>
				<time>2015-05-07T00:05:12Z</time>
				<extensions>
				</extensions>
			</trkpt>
			<trkpt lat="-28.011213" lon="153.156596">
				<ele>105</ele>
				<time>2015-05-07T00:05:13Z</time>
				<extensions>
				</extensions>
			</trkpt>
			<trkpt lat="-28.011072" lon="153.156462">
				<ele>103</ele>
				<time>2015-05-07T00:05:14Z</time>
				<extensions>
				</extensions>
			</trkpt>
			<trkpt lat="-28.010932" lon="153.156322">
				<ele>103</ele>
				<time>2015-05-07T00:05:15Z</time>
				<extensions>
				</extensions>
			</trkpt>
			<trkpt lat="-28.010674" lon="153.156059">
				<ele>101</ele>
				<time>2015-05-07T00:05:17Z</time>
				<extensions>
				</extensions>
			</trkpt>
			<trkpt lat="-28.010396" lon="153.155809">
				<ele>102</ele>
				<time>2015-05-07T00:05:19Z</time>
				<extensions>
				</extensions>
			</trkpt>
			<trkpt lat="-28.010248" lon="153.155688">
				<ele>102</ele>
				<time>2015-05-07T00:05:20Z</time>
				<extensions>
				</extensions>
			</trkpt>
			<trkpt lat="-28.009941" lon="153.155482">
				<ele>102</ele>
				<time>2015-05-07T00:05:22Z</time>
				<extensions>
				</extensions>
			</trkpt>
			<trkpt lat="-28.009763" lon="153.155389">
				<ele>102</ele>
				<time>2015-05-07T00:05:23Z</time>
				<extensions>
				</extensions>
			</trkpt>
			<trkpt lat="-28.009591" lon="153.155313">
				<ele>101</ele>
				<time>2015-05-07T00:05:24Z</time>
				<extensions>
				</extensions>
			</trkpt>
			<trkpt lat="-28.009411" lon="153.155247">
				<ele>101</ele>
				<time>2015-05-07T00:05:25Z</time>
				<extensions>
				</extensions>
			</trkpt>
			<trkpt lat="-28.009232" lon="153.155189">
				<ele>100</ele>
				<time>2015-05-07T00:05:26Z</time>
				<extensions>
				</extensions>
			</trkpt>
			<trkpt lat="-28.009054" lon="153.155142">
				<ele>101</ele>
				<time>2015-05-07T00:05:27Z</time>
				<extensions>
				</extensions>
			</trkpt>
			<trkpt lat="-28.008865" lon="153.155108">
				<ele>103</ele>
				<time>2015-05-07T00:05:28Z</time>
				<extensions>
				</extensions>
			</trkpt>
			<trkpt lat="-28.008679" lon="153.155082">
				<ele>102</ele>
				<time>2015-05-07T00:05:29Z</time>
				<extensions>
				</extensions>
			</trkpt>
			<trkpt lat="-28.008499" lon="153.155061">
				<ele>102</ele>
				<time>2015-05-07T00:05:30Z</time>
				<extensions>
				</extensions>
			</trkpt>
			<trkpt lat="-28.008309" lon="153.155042">
				<ele>102</ele>
				<time>2015-05-07T00:05:31Z</time>
				<extensions>
				</extensions>
			</trkpt>
			<trkpt lat="-28.008121" lon="153.155022">
				<ele>102</ele>
				<time>2015-05-07T00:05:32Z</time>
				<extensions>
				</extensions>
			</trkpt>
			<trkpt lat="-28.007757" lon="153.154981">
				<ele>102</ele>
				<time>2015-05-07T00:05:34Z</time>
				<extensions>
				</extensions>
			</trkpt>
			<trkpt lat="-28.007572" lon="153.154959">
				<ele>102</ele>
				<time>2015-05-07T00:05:35Z</time>
				<extensions>
				</extensions>
			</trkpt>
			<trkpt lat="-28.007385" lon="153.154939">
				<ele>102</ele>
				<time>2015-05-07T00:05:36Z</time>
				<extensions>
				</extensions>
			</trkpt>
			<trkpt lat="-28.007191" lon="153.154919">
				<ele>102</ele>
				<time>2015-05-07T00:05:37Z</time>
				<extensions>
				</extensions>
			</trkpt>
			<trkpt lat="-28.006983" lon="153.154896">
				<ele>103</ele>
				<time>2015-05-07T00:05:38Z</time>
				<extensions>
				</extensions>
			</trkpt>
			<trkpt lat="-28.006777" lon="153.154878">
				<ele>105</ele>
				<time>2015-05-07T00:05:39Z</time>
				<extensions>
				</extensions>
			</trkpt>
			<trkpt lat="-28.006566" lon="153.154861">
				<ele>105</ele>
				<time>2015-05-07T00:05:40Z</time>
				<extensions>
				</extensions>
			</trkpt>
			<trkpt lat="-28.006361" lon="153.154851">
				<ele>105</ele>
				<time>2015-05-07T00:05:41Z</time>
				<extensions>
				</extensions>
			</trkpt>
			<trkpt lat="-28.006148" lon="153.154849">
				<ele>105</ele>
				<time>2015-05-07T00:05:42Z</time>
				<extensions>
				</extensions>
			</trkpt>
			<trkpt lat="-28.005947" lon="153.154862">
				<ele>104</ele>
				<time>2015-05-07T00:05:43Z</time>
				<extensions>
				</extensions>
			</trkpt>
			<trkpt lat="-28.005746" lon="153.154884">
				<ele>104</ele>
				<time>2015-05-07T00:05:44Z</time>
				<extensions>
				</extensions>
			</trkpt>
			<trkpt lat="-28.005539" lon="153.154915">
				<ele>104</ele>
				<time>2015-05-07T00:05:45Z</time>
				<extensions>
				</extensions>
			</trkpt>
			<trkpt lat="-28.005341" lon="153.154950">
				<ele>103</ele>
				<time>2015-05-07T00:05:46Z</time>
				<extensions>
				</extensions>
			</trkpt>
			<trkpt lat="-28.005129" lon="153.154994">
				<ele>104</ele>
				<time>2015-05-07T00:05:47Z</time>
				<extensions>
				</extensions>
			</trkpt>
			<trkpt lat="-28.004929" lon="153.155035">
				<ele>104</ele>
				<time>2015-05-07T00:05:48Z</time>
				<extensions>
				</extensions>
			</trkpt>
			<trkpt lat="-28.004722" lon="153.155086">
				<ele>104</ele>
				<time>2015-05-07T00:05:49Z</time>
				<extensions>
				</extensions>
			</trkpt>
			<trkpt lat="-28.004508" lon="153.155135">
				<ele>104</ele>
				<time>2015-05-07T00:05:50Z</time>
				<extensions>
				</extensions>
			</trkpt>
			<trkpt lat="-28.004303" lon="153.155181">
				<ele>104</ele>
				<time>2015-05-07T00:05:51Z</time>
				<extensions>
				</extensions>
			</trkpt>
			<trkpt lat="-28.004093" lon="153.155231">
				<ele>105</ele>
				<time>2015-05-07T00:05:52Z</time>
				<extensions>
				</extensions>
			</trkpt>
			<trkpt lat="-28.003884" lon="153.155279">
				<ele>107</ele>
				<time>2015-05-07T00:05:53Z</time>
				<extensions>
				</extensions>
			</trkpt>
			<trkpt lat="-28.003663" lon="153.155326">
				<ele>109</ele>
				<time>2015-05-07T00:05:54Z</time>
				<extensions>
				</extensions>
			</trkpt>
			<trkpt lat="-28.003447" lon="153.155377">
				<ele>110</ele>
				<time>2015-05-07T00:05:55Z</time>
				<extensions>
				</extensions>
			</trkpt>
			<trkpt lat="-28.003235" lon="153.155422">
				<ele>110</ele>
				<time>2015-05-07T00:05:56Z</time>
				<extensions>
				</extensions>
			</trkpt>
			<trkpt lat="-28.003029" lon="153.155466">
				<ele>110</ele>
				<time>2015-05-07T00:05:57Z</time>
				<extensions>
				</extensions>
			</trkpt>
			<trkpt lat="-28.002821" lon="153.155513">
				<ele>111</ele>
				<time>2015-05-07T00:05:58Z</time>
				<extensions>
				</extensions>
			</trkpt>
			<trkpt lat="-28.002619" lon="153.155557">
				<ele>110</ele>
				<time>2015-05-07T00:05:59Z</time>
				<extensions>
				</extensions>
			</trkpt>
			<trkpt lat="-28.002414" lon="153.155605">
				<ele>109</ele>
				<time>2015-05-07T00:06:00Z</time>
				<extensions>
				</extensions>
			</trkpt>
			<trkpt lat="-28.002207" lon="153.155652">
				<ele>109</ele>
				<time>2015-05-07T00:06:01Z</time>
				<extensions>
				</extensions>
			</trkpt>
			<trkpt lat="-28.002002" lon="153.155706">
				<ele>110</ele>
				<time>2015-05-07T00:06:02Z</time>
				<extensions>
				</extensions>
			</trkpt>
			<trkpt lat="-28.001795" lon="153.155764">
				<ele>109</ele>
				<time>2015-05-07T00:06:03Z</time>
				<extensions>
				</extensions>
			</trkpt>
			<trkpt lat="-28.001603" lon="153.155824">
				<ele>108</ele>
				<time>2015-05-07T00:06:04Z</time>
				<extensions>
				</extensions>
			</trkpt>
			<trkpt lat="-28.001417" lon="153.155895">
				<ele>106</ele>
				<time>2015-05-07T00:06:05Z</time>
				<extensions>
				</extensions>
			</trkpt>
			<trkpt lat="-28.001220" lon="153.155982">
				<ele>107</ele>
				<time>2015-05-07T00:06:06Z</time>
				<extensions>
				</extensions>
			</trkpt>
			<trkpt lat="-28.001034" lon="153.156079">
				<ele>108</ele>
				<time>2015-05-07T00:06:07Z</time>
				<extensions>
				</extensions>
			</trkpt>
			<trkpt lat="-28.000846" lon="153.156196">
				<ele>107</ele>
				<time>2015-05-07T00:06:08Z</time>
				<extensions>
				</extensions>
			</trkpt>
			<trkpt lat="-28.000661" lon="153.156318">
				<ele>107</ele>
				<time>2015-05-07T00:06:09Z</time>
				<extensions>
				</extensions>
			</trkpt>
			<trkpt lat="-28.000486" lon="153.156461">
				<ele>107</ele>
				<time>2015-05-07T00:06:10Z</time>
				<extensions>
				</extensions>
			</trkpt>
			<trkpt lat="-28.000299" lon="153.156607">
				<ele>107</ele>
				<time>2015-05-07T00:06:11Z</time>
				<extensions>
				</extensions>
			</trkpt>
			<trkpt lat="-28.000112" lon="153.156746">
				<ele>107</ele>
				<time>2015-05-07T00:06:12Z</time>
				<extensions>
				</extensions>
			</trkpt>
			<trkpt lat="-27.999927" lon="153.156891">
				<ele>106</ele>
				<time>2015-05-07T00:06:13Z</time>
				<extensions>
				</extensions>
			</trkpt>
			<trkpt lat="-27.999739" lon="153.157026">
				<ele>103</ele>
				<time>2015-05-07T00:06:14Z</time>
				<extensions>
				</extensions>
			</trkpt>
			<trkpt lat="-27.999560" lon="153.157160">
				<ele>103</ele>
				<time>2015-05-07T00:06:15Z</time>
				<extensions>
				</extensions>
			</trkpt>
			<trkpt lat="-27.999376" lon="153.157302">
				<ele>101</ele>
				<time>2015-05-07T00:06:16Z</time>
				<extensions>
				</extensions>
			</trkpt>
			<trkpt lat="-27.999193" lon="153.157430">
				<ele>101</ele>
				<time>2015-05-07T00:06:17Z</time>
				<extensions>
				</extensions>
			</trkpt>
			<trkpt lat="-27.999012" lon="153.157556">
				<ele>100</ele>
				<time>2015-05-07T00:06:18Z</time>
				<extensions>
				</extensions>
			</trkpt>
			<trkpt lat="-27.998818" lon="153.157691">
				<ele>100</ele>
				<time>2015-05-07T00:06:19Z</time>
				<extensions>
				</extensions>
			</trkpt>
			<trkpt lat="-27.998640" lon="153.157815">
				<ele>100</ele>
				<time>2015-05-07T00:06:20Z</time>
				<extensions>
				</extensions>
			</trkpt>
			<trkpt lat="-27.998448" lon="153.157949">
				<ele>100</ele>
				<time>2015-05-07T00:06:21Z</time>
				<extensions>
				</extensions>
			</trkpt>
			<trkpt lat="-27.998254" lon="153.158084">
				<ele>99</ele>
				<time>2015-05-07T00:06:22Z</time>
				<extensions>
				</extensions>
			</trkpt>
			<trkpt lat="-27.998069" lon="153.158213">
				<ele>99</ele>
				<time>2015-05-07T00:06:23Z</time>
				<extensions>
				</extensions>
			</trkpt>
			<trkpt lat="-27.997846" lon="153.158371">
				<ele>97</ele>
				<time>2015-05-07T00:06:24Z</time>
				<extensions>
				</extensions>
			</trkpt>
			<trkpt lat="-27.997659" lon="153.158507">
				<ele>97</ele>
				<time>2015-05-07T00:06:25Z</time>
				<extensions>
				</extensions>
			</trkpt>
			<trkpt lat="-27.997487" lon="153.158649">
				<ele>98</ele>
				<time>2015-05-07T00:06:26Z</time>
				<extensions>
				</extensions>
			</trkpt>
			<trkpt lat="-27.997319" lon="153.158822">
				<ele>99</ele>
				<time>2015-05-07T00:06:27Z</time>
				<extensions>
				</extensions>
			</trkpt>
			<trkpt lat="-27.997164" lon="153.158994">
				<ele>100</ele>
				<time>2015-05-07T00:06:28Z</time>
				<extensions>
				</extensions>
			</trkpt>
			<trkpt lat="-27.997007" lon="153.159171">
				<ele>99</ele>
				<time>2015-05-07T00:06:29Z</time>
				<extensions>
				</extensions>
			</trkpt>
			<trkpt lat="-27.996855" lon="153.159361">
				<ele>100</ele>
				<time>2015-05-07T00:06:30Z</time>
				<extensions>
				</extensions>
			</trkpt>
			<trkpt lat="-27.996706" lon="153.159565">
				<ele>101</ele>
				<time>2015-05-07T00:06:31Z</time>
				<extensions>
				</extensions>
			</trkpt>
			<trkpt lat="-27.996580" lon="153.159760">
				<ele>101</ele>
				<time>2015-05-07T00:06:32Z</time>
				<extensions>
				</extensions>
			</trkpt>
			<trkpt lat="-27.996449" lon="153.159960">
				<ele>101</ele>
				<time>2015-05-07T00:06:33Z</time>
				<extensions>
				</extensions>
			</trkpt>
			<trkpt lat="-27.996323" lon="153.160166">
				<ele>100</ele>
				<time>2015-05-07T00:06:34Z</time>
				<extensions>
				</extensions>
			</trkpt>
			<trkpt lat="-27.996202" lon="153.160366">
				<ele>101</ele>
				<time>2015-05-07T00:06:35Z</time>
				<extensions>
				</extensions>
			</trkpt>
			<trkpt lat="-27.996081" lon="153.160563">
				<ele>101</ele>
				<time>2015-05-07T00:06:36Z</time>
				<extensions>
				</extensions>
			</trkpt>
			<trkpt lat="-27.995964" lon="153.160765">
				<ele>100</ele>
				<time>2015-05-07T00:06:37Z</time>
				<extensions>
				</extensions>
			</trkpt>
			<trkpt lat="-27.995849" lon="153.160945">
				<ele>101</ele>
				<time>2015-05-07T00:06:38Z</time>
				<extensions>
				</extensions>
			</trkpt>
			<trkpt lat="-27.995736" lon="153.161135">
				<ele>99</ele>
				<time>2015-05-07T00:06:39Z</time>
				<extensions>
				</extensions>
			</trkpt>
			<trkpt lat="-27.995616" lon="153.161320">
				<ele>99</ele>
				<time>2015-05-07T00:06:40Z</time>
				<extensions>
				</extensions>
			</trkpt>
			<trkpt lat="-27.995482" lon="153.161498">
				<ele>100</ele>
				<time>2015-05-07T00:06:41Z</time>
				<extensions>
				</extensions>
			</trkpt>
			<trkpt lat="-27.995339" lon="153.161664">
				<ele>101</ele>
				<time>2015-05-07T00:06:42Z</time>
				<extensions>
				</extensions>
			</trkpt>
			<trkpt lat="-27.995189" lon="153.161822">
				<ele>102</ele>
				<time>2015-05-07T00:06:43Z</time>
				<extensions>
				</extensions>
			</trkpt>
			<trkpt lat="-27.995027" lon="153.161985">
				<ele>102</ele>
				<time>2015-05-07T00:06:44Z</time>
				<extensions>
				</extensions>
			</trkpt>
			<trkpt lat="-27.994839" lon="153.162097">
				<ele>102</ele>
				<time>2015-05-07T00:06:45Z</time>
				<extensions>
				</extensions>
			</trkpt>
			<trkpt lat="-27.994642" lon="153.162191">
				<ele>102</ele>
				<time>2015-05-07T00:06:46Z</time>
				<extensions>
				</extensions>
			</trkpt>
			<trkpt lat="-27.994435" lon="153.162273">
				<ele>103</ele>
				<time>2015-05-07T00:06:47Z</time>
				<extensions>
				</extensions>
			</trkpt>
			<trkpt lat="-27.994216" lon="153.162311">
				<ele>103</ele>
				<time>2015-05-07T00:06:48Z</time>
				<extensions>
				</extensions>
			</trkpt>
			<trkpt lat="-27.993988" lon="153.162351">
				<ele>107</ele>
				<time>2015-05-07T00:06:49Z</time>
				<extensions>
				</extensions>
			</trkpt>
			<trkpt lat="-27.993757" lon="153.162398">
				<ele>106</ele>
				<time>2015-05-07T00:06:50Z</time>
				<extensions>
				</extensions>
			</trkpt>
			<trkpt lat="-27.993527" lon="153.162439">
				<ele>107</ele>
				<time>2015-05-07T00:06:51Z</time>
				<extensions>
				</extensions>
			</trkpt>
			<trkpt lat="-27.993293" lon="153.162482">
				<ele>107</ele>
				<time>2015-05-07T00:06:52Z</time>
				<extensions>
				</extensions>
			</trkpt>
			<trkpt lat="-27.993052" lon="153.162533">
				<ele>107</ele>
				<time>2015-05-07T00:06:53Z</time>
				<extensions>
				</extensions>
			</trkpt>
			<trkpt lat="-27.992818" lon="153.162575">
				<ele>106</ele>
				<time>2015-05-07T00:06:54Z</time>
				<extensions>
				</extensions>
			</trkpt>
			<trkpt lat="-27.992592" lon="153.162615">
				<ele>106</ele>
				<time>2015-05-07T00:06:55Z</time>
				<extensions>
				</extensions>
			</trkpt>
			<trkpt lat="-27.992360" lon="153.162658">
				<ele>106</ele>
				<time>2015-05-07T00:06:56Z</time>
				<extensions>
				</extensions>
			</trkpt>
			<trkpt lat="-27.992129" lon="153.162691">
				<ele>107</ele>
				<time>2015-05-07T00:06:57Z</time>
				<extensions>
				</extensions>
			</trkpt>
			<trkpt lat="-27.991903" lon="153.162726">
				<ele>108</ele>
				<time>2015-05-07T00:06:58Z</time>
				<extensions>
				</extensions>
			</trkpt>
			<trkpt lat="-27.991661" lon="153.162788">
				<ele>108</ele>
				<time>2015-05-07T00:06:59Z</time>
				<extensions>
				</extensions>
			</trkpt>
			<trkpt lat="-27.991432" lon="153.162811">
				<ele>107</ele>
				<time>2015-05-07T00:07:00Z</time>
				<extensions>
				</extensions>
			</trkpt>
			<trkpt lat="-27.991201" lon="153.162849">
				<ele>107</ele>
				<time>2015-05-07T00:07:01Z</time>
				<extensions>
				</extensions>
			</trkpt>
			<trkpt lat="-27.990984" lon="153.162887">
				<ele>107</ele>
				<time>2015-05-07T00:07:02Z</time>
				<extensions>
				</extensions>
			</trkpt>
			<trkpt lat="-27.990750" lon="153.162937">
				<ele>106</ele>
				<time>2015-05-07T00:07:03Z</time>
				<extensions>
				</extensions>
			</trkpt>
			<trkpt lat="-27.990512" lon="153.162983">
				<ele>107</ele>
				<time>2015-05-07T00:07:04Z</time>
				<extensions>
				</extensions>
			</trkpt>
			<trkpt lat="-27.990279" lon="153.163017">
				<ele>107</ele>
				<time>2015-05-07T00:07:05Z</time>
				<extensions>
				</extensions>
			</trkpt>
			<trkpt lat="-27.990046" lon="153.163062">
				<ele>107</ele>
				<time>2015-05-07T00:07:06Z</time>
				<extensions>
				</extensions>
			</trkpt>
			<trkpt lat="-27.989815" lon="153.163101">
				<ele>108</ele>
				<time>2015-05-07T00:07:07Z</time>
				<extensions>
				</extensions>
			</trkpt>
			<trkpt lat="-27.989581" lon="153.163142">
				<ele>108</ele>
				<time>2015-05-07T00:07:08Z</time>
				<extensions>
				</extensions>
			</trkpt>
			<trkpt lat="-27.989339" lon="153.163194">
				<ele>107</ele>
				<time>2015-05-07T00:07:09Z</time>
				<extensions>
				</extensions>
			</trkpt>
			<trkpt lat="-27.989097" lon="153.163244">
				<ele>111</ele>
				<time>2015-05-07T00:07:10Z</time>
				<extensions>
				</extensions>
			</trkpt>
			<trkpt lat="-27.988864" lon="153.163292">
				<ele>109</ele>
				<time>2015-05-07T00:07:11Z</time>
				<extensions>
				</extensions>
			</trkpt>
			<trkpt lat="-27.988628" lon="153.163345">
				<ele>107</ele>
				<time>2015-05-07T00:07:12Z</time>
				<extensions>
				</extensions>
			</trkpt>
			<trkpt lat="-27.988389" lon="153.163394">
				<ele>107</ele>
				<time>2015-05-07T00:07:13Z</time>
				<extensions>
				</extensions>
			</trkpt>
			<trkpt lat="-27.988154" lon="153.163446">
				<ele>106</ele>
				<time>2015-05-07T00:07:14Z</time>
				<extensions>
				</extensions>
			</trkpt>
			<trkpt lat="-27.987930" lon="153.163486">
				<ele>107</ele>
				<time>2015-05-07T00:07:15Z</time>
				<extensions>
				</extensions>
			</trkpt>
			<trkpt lat="-27.987679" lon="153.163541">
				<ele>106</ele>
				<time>2015-05-07T00:07:16Z</time>
				<extensions>
				</extensions>
			</trkpt>
			<trkpt lat="-27.987447" lon="153.163589">
				<ele>103</ele>
				<time>2015-05-07T00:07:17Z</time>
				<extensions>
				</extensions>
			</trkpt>
			<trkpt lat="-27.987201" lon="153.163630">
				<ele>103</ele>
				<time>2015-05-07T00:07:18Z</time>
				<extensions>
				</extensions>
			</trkpt>
			<trkpt lat="-27.986957" lon="153.163681">
				<ele>104</ele>
				<time>2015-05-07T00:07:19Z</time>
				<extensions>
				</extensions>
			</trkpt>
			<trkpt lat="-27.986717" lon="153.163732">
				<ele>105</ele>
				<time>2015-05-07T00:07:20Z</time>
				<extensions>
				</extensions>
			</trkpt>
			<trkpt lat="-27.986471" lon="153.163778">
				<ele>106</ele>
				<time>2015-05-07T00:07:21Z</time>
				<extensions>
				</extensions>
			</trkpt>
			<trkpt lat="-27.986235" lon="153.163821">
				<ele>105</ele>
				<time>2015-05-07T00:07:22Z</time>
				<extensions>
				</extensions>
			</trkpt>
			<trkpt lat="-27.985987" lon="153.163875">
				<ele>105</ele>
				<time>2015-05-07T00:07:23Z</time>
				<extensions>
				</extensions>
			</trkpt>
			<trkpt lat="-27.985740" lon="153.163923">
				<ele>104</ele>
				<time>2015-05-07T00:07:24Z</time>
				<extensions>
				</extensions>
			</trkpt>
			<trkpt lat="-27.985509" lon="153.163972">
				<ele>105</ele>
				<time>2015-05-07T00:07:25Z</time>
				<extensions>
				</extensions>
			</trkpt>
			<trkpt lat="-27.985286" lon="153.164015">
				<ele>105</ele>
				<time>2015-05-07T00:07:26Z</time>
				<extensions>
				</extensions>
			</trkpt>
			<trkpt lat="-27.985067" lon="153.164053">
				<ele>104</ele>
				<time>2015-05-07T00:07:27Z</time>
				<extensions>
				</extensions>
			</trkpt>
			<trkpt lat="-27.984841" lon="153.164101">
				<ele>103</ele>
				<time>2015-05-07T00:07:28Z</time>
				<extensions>
				</extensions>
			</trkpt>
			<trkpt lat="-27.984608" lon="153.164152">
				<ele>105</ele>
				<time>2015-05-07T00:07:29Z</time>
				<extensions>
				</extensions>
			</trkpt>
			<trkpt lat="-27.984381" lon="153.164192">
				<ele>105</ele>
				<time>2015-05-07T00:07:30Z</time>
				<extensions>
				</extensions>
			</trkpt>
			<trkpt lat="-27.984161" lon="153.164237">
				<ele>105</ele>
				<time>2015-05-07T00:07:31Z</time>
				<extensions>
				</extensions>
			</trkpt>
			<trkpt lat="-27.983941" lon="153.164285">
				<ele>107</ele>
				<time>2015-05-07T00:07:32Z</time>
				<extensions>
				</extensions>
			</trkpt>
			<trkpt lat="-27.983703" lon="153.164332">
				<ele>106</ele>
				<time>2015-05-07T00:07:33Z</time>
				<extensions>
				</extensions>
			</trkpt>
			<trkpt lat="-27.983475" lon="153.164380">
				<ele>107</ele>
				<time>2015-05-07T00:07:34Z</time>
				<extensions>
				</extensions>
			</trkpt>
			<trkpt lat="-27.983247" lon="153.164427">
				<ele>107</ele>
				<time>2015-05-07T00:07:35Z</time>
				<extensions>
				</extensions>
			</trkpt>
			<trkpt lat="-27.983017" lon="153.164468">
				<ele>108</ele>
				<time>2015-05-07T00:07:36Z</time>
				<extensions>
				</extensions>
			</trkpt>
			<trkpt lat="-27.982787" lon="153.164517">
				<ele>108</ele>
				<time>2015-05-07T00:07:37Z</time>
				<extensions>
				</extensions>
			</trkpt>
			<trkpt lat="-27.982564" lon="153.164540">
				<ele>109</ele>
				<time>2015-05-07T00:07:38Z</time>
				<extensions>
				</extensions>
			</trkpt>
			<trkpt lat="-27.982344" lon="153.164561">
				<ele>108</ele>
				<time>2015-05-07T00:07:39Z</time>
				<extensions>
				</extensions>
			</trkpt>
			<trkpt lat="-27.982127" lon="153.164600">
				<ele>107</ele>
				<time>2015-05-07T00:07:40Z</time>
				<extensions>
				</extensions>
			</trkpt>
			<trkpt lat="-27.981902" lon="153.164639">
				<ele>106</ele>
				<time>2015-05-07T00:07:41Z</time>
				<extensions>
				</extensions>
			</trkpt>
			<trkpt lat="-27.981672" lon="153.164683">
				<ele>105</ele>
				<time>2015-05-07T00:07:42Z</time>
				<extensions>
				</extensions>
			</trkpt>
			<trkpt lat="-27.981444" lon="153.164725">
				<ele>105</ele>
				<time>2015-05-07T00:07:43Z</time>
				<extensions>
				</extensions>
			</trkpt>
			<trkpt lat="-27.981217" lon="153.164750">
				<ele>104</ele>
				<time>2015-05-07T00:07:44Z</time>
				<extensions>
				</extensions>
			</trkpt>
			<trkpt lat="-27.980982" lon="153.164788">
				<ele>105</ele>
				<time>2015-05-07T00:07:45Z</time>
				<extensions>
				</extensions>
			</trkpt>
			<trkpt lat="-27.980741" lon="153.164818">
				<ele>106</ele>
				<time>2015-05-07T00:07:46Z</time>
				<extensions>
				</extensions>
			</trkpt>
			<trkpt lat="-27.980494" lon="153.164845">
				<ele>106</ele>
				<time>2015-05-07T00:07:47Z</time>
				<extensions>
				</extensions>
			</trkpt>
			<trkpt lat="-27.980242" lon="153.164878">
				<ele>108</ele>
				<time>2015-05-07T00:07:48Z</time>
				<extensions>
				</extensions>
			</trkpt>
			<trkpt lat="-27.979994" lon="153.164900">
				<ele>110</ele>
				<time>2015-05-07T00:07:49Z</time>
				<extensions>
				</extensions>
			</trkpt>
			<trkpt lat="-27.979744" lon="153.164926">
				<ele>111</ele>
				<time>2015-05-07T00:07:50Z</time>
				<extensions>
				</extensions>
			</trkpt>
			<trkpt lat="-27.979503" lon="153.164937">
				<ele>111</ele>
				<time>2015-05-07T00:07:51Z</time>
				<extensions>
				</extensions>
			</trkpt>
			<trkpt lat="-27.979265" lon="153.164945">
				<ele>109</ele>
				<time>2015-05-07T00:07:52Z</time>
				<extensions>
				</extensions>
			</trkpt>
			<trkpt lat="-27.979029" lon="153.164951">
				<ele>110</ele>
				<time>2015-05-07T00:07:53Z</time>
				<extensions>
				</extensions>
			</trkpt>
			<trkpt lat="-27.978795" lon="153.164948">
				<ele>109</ele>
				<time>2015-05-07T00:07:54Z</time>
				<extensions>
				</extensions>
			</trkpt>
			<trkpt lat="-27.978560" lon="153.164954">
				<ele>108</ele>
				<time>2015-05-07T00:07:55Z</time>
				<extensions>
				</extensions>
			</trkpt>
			<trkpt lat="-27.978330" lon="153.164949">
				<ele>110</ele>
				<time>2015-05-07T00:07:56Z</time>
				<extensions>
				</extensions>
			</trkpt>
			<trkpt lat="-27.978098" lon="153.164926">
				<ele>108</ele>
				<time>2015-05-07T00:07:57Z</time>
				<extensions>
				</extensions>
			</trkpt>
			<trkpt lat="-27.977865" lon="153.164914">
				<ele>107</ele>
				<time>2015-05-07T00:07:58Z</time>
				<extensions>
				</extensions>
			</trkpt>
			<trkpt lat="-27.977643" lon="153.164892">
				<ele>108</ele>
				<time>2015-05-07T00:07:59Z</time>
				<extensions>
				</extensions>
			</trkpt>
			<trkpt lat="-27.977411" lon="153.164872">
				<ele>109</ele>
				<time>2015-05-07T00:08:00Z</time>
				<extensions>
				</extensions>
			</trkpt>
			<trkpt lat="-27.977177" lon="153.164841">
				<ele>109</ele>
				<time>2015-05-07T00:08:01Z</time>
				<extensions>
				</extensions>
			</trkpt>
			<trkpt lat="-27.976943" lon="153.164815">
				<ele>108</ele>
				<time>2015-05-07T00:08:02Z</time>
				<extensions>
				</extensions>
			</trkpt>
			<trkpt lat="-27.976713" lon="153.164786">
				<ele>107</ele>
				<time>2015-05-07T00:08:03Z</time>
				<extensions>
				</extensions>
			</trkpt>
			<trkpt lat="-27.976486" lon="153.164738">
				<ele>104</ele>
				<time>2015-05-07T00:08:04Z</time>
				<extensions>
				</extensions>
			</trkpt>
			<trkpt lat="-27.976264" lon="153.164708">
				<ele>103</ele>
				<time>2015-05-07T00:08:05Z</time>
				<extensions>
				</extensions>
			</trkpt>
			<trkpt lat="-27.976030" lon="153.164679">
				<ele>105</ele>
				<time>2015-05-07T00:08:06Z</time>
				<extensions>
				</extensions>
			</trkpt>
			<trkpt lat="-27.975789" lon="153.164644">
				<ele>103</ele>
				<time>2015-05-07T00:08:07Z</time>
				<extensions>
				</extensions>
			</trkpt>
			<trkpt lat="-27.975557" lon="153.164600">
				<ele>103</ele>
				<time>2015-05-07T00:08:08Z</time>
				<extensions>
				</extensions>
			</trkpt>
			<trkpt lat="-27.975323" lon="153.164549">
				<ele>106</ele>
				<time>2015-05-07T00:08:09Z</time>
				<extensions>
				</extensions>
			</trkpt>
			<trkpt lat="-27.975099" lon="153.164506">
				<ele>104</ele>
				<time>2015-05-07T00:08:10Z</time>
				<extensions>
				</extensions>
			</trkpt>
			<trkpt lat="-27.974869" lon="153.164448">
				<ele>104</ele>
				<time>2015-05-07T00:08:11Z</time>
				<extensions>
				</extensions>
			</trkpt>
			<trkpt lat="-27.974638" lon="153.164382">
				<ele>104</ele>
				<time>2015-05-07T00:08:12Z</time>
				<extensions>
				</extensions>
			</trkpt>
			<trkpt lat="-27.974415" lon="153.164313">
				<ele>106</ele>
				<time>2015-05-07T00:08:13Z</time>
				<extensions>
				</extensions>
			</trkpt>
			<trkpt lat="-27.974199" lon="153.164246">
				<ele>106</ele>
				<time>2015-05-07T00:08:14Z</time>
				<extensions>
				</extensions>
			</trkpt>
			<trkpt lat="-27.973992" lon="153.164160">
				<ele>104</ele>
				<time>2015-05-07T00:08:15Z</time>
				<extensions>
				</extensions>
			</trkpt>
			<trkpt lat="-27.973779" lon="153.164078">
				<ele>105</ele>
				<time>2015-05-07T00:08:16Z</time>
				<extensions>
				</extensions>
			</trkpt>
			<trkpt lat="-27.973598" lon="153.163995">
				<ele>104</ele>
				<time>2015-05-07T00:08:17Z</time>
				<extensions>
				</extensions>
			</trkpt>
			<trkpt lat="-27.973422" lon="153.163911">
				<ele>102</ele>
				<time>2015-05-07T00:08:18Z</time>
				<extensions>
				</extensions>
			</trkpt>
			<trkpt lat="-27.973074" lon="153.163770">
				<ele>99</ele>
				<time>2015-05-07T00:08:20Z</time>
				<extensions>
				</extensions>
			</trkpt>
			<trkpt lat="-27.972892" lon="153.163689">
				<ele>98</ele>
				<time>2015-05-07T00:08:21Z</time>
				<extensions>
				</extensions>
			</trkpt>
			<trkpt lat="-27.972584" lon="153.163555">
				<ele>94</ele>
				<time>2015-05-07T00:08:23Z</time>
				<extensions>
				</extensions>
			</trkpt>
			<trkpt lat="-27.972388" lon="153.163482">
				<ele>91</ele>
				<time>2015-05-07T00:08:25Z</time>
				<extensions>
				</extensions>
			</trkpt>
			<trkpt lat="-27.972197" lon="153.163376">
				<ele>89</ele>
				<time>2015-05-07T00:08:28Z</time>
				<extensions>
				</extensions>
			</trkpt>
			<trkpt lat="-27.972138" lon="153.163135">
				<ele>87</ele>
				<time>2015-05-07T00:08:31Z</time>
				<extensions>
				</extensions>
			</trkpt>
			<trkpt lat="-27.972171" lon="153.162908">
				<ele>88</ele>
				<time>2015-05-07T00:08:33Z</time>
				<extensions>
				</extensions>
			</trkpt>
			<trkpt lat="-27.972228" lon="153.162561">
				<ele>90</ele>
				<time>2015-05-07T00:08:35Z</time>
				<extensions>
				</extensions>
			</trkpt>
			<trkpt lat="-27.972290" lon="153.162215">
				<ele>91</ele>
				<time>2015-05-07T00:08:37Z</time>
				<extensions>
				</extensions>
			</trkpt>
			<trkpt lat="-27.972345" lon="153.161973">
				<ele>92</ele>
				<time>2015-05-07T00:08:38Z</time>
				<extensions>
				</extensions>
			</trkpt>
			<trkpt lat="-27.972403" lon="153.161582">
				<ele>93</ele>
				<time>2015-05-07T00:08:40Z</time>
				<extensions>
				</extensions>
			</trkpt>
			<trkpt lat="-27.972438" lon="153.161380">
				<ele>94</ele>
				<time>2015-05-07T00:08:41Z</time>
				<extensions>
				</extensions>
			</trkpt>
			<trkpt lat="-27.972489" lon="153.160998">
				<ele>94</ele>
				<time>2015-05-07T00:08:43Z</time>
				<extensions>
				</extensions>
			</trkpt>
			<trkpt lat="-27.972520" lon="153.160793">
				<ele>94</ele>
				<time>2015-05-07T00:08:44Z</time>
				<extensions>
				</extensions>
			</trkpt>
			<trkpt lat="-27.972549" lon="153.160588">
				<ele>94</ele>
				<time>2015-05-07T00:08:45Z</time>
				<extensions>
				</extensions>
			</trkpt>
			<trkpt lat="-27.972573" lon="153.160377">
				<ele>95</ele>
				<time>2015-05-07T00:08:46Z</time>
				<extensions>
				</extensions>
			</trkpt>
			<trkpt lat="-27.972608" lon="153.160130">
				<ele>95</ele>
				<time>2015-05-07T00:08:47Z</time>
				<extensions>
				</extensions>
			</trkpt>
			<trkpt lat="-27.972640" lon="153.159907">
				<ele>94</ele>
				<time>2015-05-07T00:08:48Z</time>
				<extensions>
				</extensions>
			</trkpt>
			<trkpt lat="-27.972670" lon="153.159680">
				<ele>93</ele>
				<time>2015-05-07T00:08:49Z</time>
				<extensions>
				</extensions>
			</trkpt>
			<trkpt lat="-27.972665" lon="153.159454">
				<ele>92</ele>
				<time>2015-05-07T00:08:50Z</time>
				<extensions>
				</extensions>
			</trkpt>
			<trkpt lat="-27.972658" lon="153.159251">
				<ele>91</ele>
				<time>2015-05-07T00:08:51Z</time>
				<extensions>
				</extensions>
			</trkpt>
			<trkpt lat="-27.972675" lon="153.159031">
				<ele>90</ele>
				<time>2015-05-07T00:08:52Z</time>
				<extensions>
				</extensions>
			</trkpt>
			<trkpt lat="-27.972691" lon="153.158816">
				<ele>88</ele>
				<time>2015-05-07T00:08:53Z</time>
				<extensions>
				</extensions>
			</trkpt>
			<trkpt lat="-27.972701" lon="153.158612">
				<ele>85</ele>
				<time>2015-05-07T00:08:54Z</time>
				<extensions>
				</extensions>
			</trkpt>
			<trkpt lat="-27.972712" lon="153.158403">
				<ele>85</ele>
				<time>2015-05-07T00:08:55Z</time>
				<extensions>
				</extensions>
			</trkpt>
			<trkpt lat="-27.972743" lon="153.158004">
				<ele>83</ele>
				<time>2015-05-07T00:08:57Z</time>
				<extensions>
				</extensions>
			</trkpt>
			<trkpt lat="-27.972763" lon="153.157614">
				<ele>82</ele>
				<time>2015-05-07T00:08:59Z</time>
				<extensions>
				</extensions>
			</trkpt>
			<trkpt lat="-27.972789" lon="153.157403">
				<ele>80</ele>
				<time>2015-05-07T00:09:00Z</time>
				<extensions>
				</extensions>
			</trkpt>
			<trkpt lat="-27.972805" lon="153.157201">
				<ele>80</ele>
				<time>2015-05-07T00:09:01Z</time>
				<extensions>
				</extensions>
			</trkpt>
			<trkpt lat="-27.972815" lon="153.156834">
				<ele>76</ele>
				<time>2015-05-07T00:09:03Z</time>
				<extensions>
				</extensions>
			</trkpt>
			<trkpt lat="-27.972829" lon="153.156448">
				<ele>77</ele>
				<time>2015-05-07T00:09:05Z</time>
				<extensions>
				</extensions>
			</trkpt>
			<trkpt lat="-27.972873" lon="153.156061">
				<ele>76</ele>
				<time>2015-05-07T00:09:07Z</time>
				<extensions>
				</extensions>
			</trkpt>
			<trkpt lat="-27.972902" lon="153.155858">
				<ele>77</ele>
				<time>2015-05-07T00:09:08Z</time>
				<extensions>
				</extensions>
			</trkpt>
			<trkpt lat="-27.972924" lon="153.155656">
				<ele>78</ele>
				<time>2015-05-07T00:09:09Z</time>
				<extensions>
				</extensions>
			</trkpt>
			<trkpt lat="-27.972949" lon="153.155442">
				<ele>80</ele>
				<time>2015-05-07T00:09:10Z</time>
				<extensions>
				</extensions>
			</trkpt>
			<trkpt lat="-27.972981" lon="153.155220">
				<ele>81</ele>
				<time>2015-05-07T00:09:11Z</time>
				<extensions>
				</extensions>
			</trkpt>
			<trkpt lat="-27.973021" lon="153.155010">
				<ele>81</ele>
				<time>2015-05-07T00:09:12Z</time>
				<extensions>
				</extensions>
			</trkpt>
			<trkpt lat="-27.973064" lon="153.154798">
				<ele>82</ele>
				<time>2015-05-07T00:09:13Z</time>
				<extensions>
				</extensions>
			</trkpt>
			<trkpt lat="-27.973125" lon="153.154601">
				<ele>83</ele>
				<time>2015-05-07T00:09:14Z</time>
				<extensions>
				</extensions>
			</trkpt>
			<trkpt lat="-27.973191" lon="153.154406">
				<ele>84</ele>
				<time>2015-05-07T00:09:15Z</time>
				<extensions>
				</extensions>
			</trkpt>
			<trkpt lat="-27.973256" lon="153.154213">
				<ele>83</ele>
				<time>2015-05-07T00:09:16Z</time>
				<extensions>
				</extensions>
			</trkpt>
			<trkpt lat="-27.973397" lon="153.153835">
				<ele>81</ele>
				<time>2015-05-07T00:09:18Z</time>
				<extensions>
				</extensions>
			</trkpt>
			<trkpt lat="-27.973469" lon="153.153643">
				<ele>81</ele>
				<time>2015-05-07T00:09:19Z</time>
				<extensions>
				</extensions>
			</trkpt>
			<trkpt lat="-27.973582" lon="153.153309">
				<ele>81</ele>
				<time>2015-05-07T00:09:21Z</time>
				<extensions>
				</extensions>
			</trkpt>
			<trkpt lat="-27.973691" lon="153.152985">
				<ele>78</ele>
				<time>2015-05-07T00:09:23Z</time>
				<extensions>
				</extensions>
			</trkpt>
			<trkpt lat="-27.973755" lon="153.152655">
				<ele>79</ele>
				<time>2015-05-07T00:09:25Z</time>
				<extensions>
				</extensions>
			</trkpt>
			<trkpt lat="-27.973701" lon="153.152344">
				<ele>79</ele>
				<time>2015-05-07T00:09:27Z</time>
				<extensions>
				</extensions>
			</trkpt>
			<trkpt lat="-27.973555" lon="153.152037">
				<ele>80</ele>
				<time>2015-05-07T00:09:29Z</time>
				<extensions>
				</extensions>
			</trkpt>
			<trkpt lat="-27.973422" lon="153.151746">
				<ele>78</ele>
				<time>2015-05-07T00:09:31Z</time>
				<extensions>
				</extensions>
			</trkpt>
			<trkpt lat="-27.973285" lon="153.151484">
				<ele>76</ele>
				<time>2015-05-07T00:09:33Z</time>
				<extensions>
				</extensions>
			</trkpt>
			<trkpt lat="-27.973171" lon="153.151201">
				<ele>77</ele>
				<time>2015-05-07T00:09:35Z</time>
				<extensions>
				</extensions>
			</trkpt>
			<trkpt lat="-27.972992" lon="153.150927">
				<ele>77</ele>
				<time>2015-05-07T00:09:37Z</time>
				<extensions>
				</extensions>
			</trkpt>
			<trkpt lat="-27.972776" lon="153.150730">
				<ele>79</ele>
				<time>2015-05-07T00:09:39Z</time>
				<extensions>
				</extensions>
			</trkpt>
			<trkpt lat="-27.972470" lon="153.150601">
				<ele>80</ele>
				<time>2015-05-07T00:09:41Z</time>
				<extensions>
				</extensions>
			</trkpt>
			<trkpt lat="-27.972132" lon="153.150515">
				<ele>81</ele>
				<time>2015-05-07T00:09:43Z</time>
				<extensions>
				</extensions>
			</trkpt>
			<trkpt lat="-27.971790" lon="153.150411">
				<ele>81</ele>
				<time>2015-05-07T00:09:45Z</time>
				<extensions>
				</extensions>
			</trkpt>
			<trkpt lat="-27.971410" lon="153.150335">
				<ele>83</ele>
				<time>2015-05-07T00:09:47Z</time>
				<extensions>
				</extensions>
			</trkpt>
			<trkpt lat="-27.971217" lon="153.150298">
				<ele>84</ele>
				<time>2015-05-07T00:09:48Z</time>
				<extensions>
				</extensions>
			</trkpt>
			<trkpt lat="-27.971035" lon="153.150261">
				<ele>84</ele>
				<time>2015-05-07T00:09:49Z</time>
				<extensions>
				</extensions>
			</trkpt>
			<trkpt lat="-27.970843" lon="153.150237">
				<ele>83</ele>
				<time>2015-05-07T00:09:50Z</time>
				<extensions>
				</extensions>
			</trkpt>
			<trkpt lat="-27.970662" lon="153.150208">
				<ele>82</ele>
				<time>2015-05-07T00:09:51Z</time>
				<extensions>
				</extensions>
			</trkpt>
			<trkpt lat="-27.970482" lon="153.150173">
				<ele>83</ele>
				<time>2015-05-07T00:09:52Z</time>
				<extensions>
				</extensions>
			</trkpt>
			<trkpt lat="-27.970130" lon="153.150115">
				<ele>82</ele>
				<time>2015-05-07T00:09:54Z</time>
				<extensions>
				</extensions>
			</trkpt>
			<trkpt lat="-27.969782" lon="153.150053">
				<ele>81</ele>
				<time>2015-05-07T00:09:56Z</time>
				<extensions>
				</extensions>
			</trkpt>
			<trkpt lat="-27.969436" lon="153.149989">
				<ele>81</ele>
				<time>2015-05-07T00:09:58Z</time>
				<extensions>
				</extensions>
			</trkpt>
			<trkpt lat="-27.969103" lon="153.149927">
				<ele>80</ele>
				<time>2015-05-07T00:10:00Z</time>
				<extensions>
				</extensions>
			</trkpt>
			<trkpt lat="-27.968922" lon="153.149892">
				<ele>79</ele>
				<time>2015-05-07T00:10:01Z</time>
				<extensions>
				</extensions>
			</trkpt>
			<trkpt lat="-27.968590" lon="153.149824">
				<ele>80</ele>
				<time>2015-05-07T00:10:03Z</time>
				<extensions>
				</extensions>
			</trkpt>
			<trkpt lat="-27.968329" lon="153.149720">
				<ele>79</ele>
				<time>2015-05-07T00:10:05Z</time>
				<extensions>
				</extensions>
			</trkpt>
			<trkpt lat="-27.968119" lon="153.149536">
				<ele>78</ele>
				<time>2015-05-07T00:10:07Z</time>
				<extensions>
				</extensions>
			</trkpt>
			<trkpt lat="-27.967969" lon="153.149239">
				<ele>77</ele>
				<time>2015-05-07T00:10:09Z</time>
				<extensions>
				</extensions>
			</trkpt>
			<trkpt lat="-27.967926" lon="153.148901">
				<ele>77</ele>
				<time>2015-05-07T00:10:11Z</time>
				<extensions>
				</extensions>
			</trkpt>
			<trkpt lat="-27.967909" lon="153.148533">
				<ele>78</ele>
				<time>2015-05-07T00:10:13Z</time>
				<extensions>
				</extensions>
			</trkpt>
			<trkpt lat="-27.967902" lon="153.148159">
				<ele>77</ele>
				<time>2015-05-07T00:10:15Z</time>
				<extensions>
				</extensions>
			</trkpt>
			<trkpt lat="-27.967880" lon="153.147800">
				<ele>76</ele>
				<time>2015-05-07T00:10:17Z</time>
				<extensions>
				</extensions>
			</trkpt>
			<trkpt lat="-27.967819" lon="153.147460">
				<ele>74</ele>
				<time>2015-05-07T00:10:19Z</time>
				<extensions>
				</extensions>
			</trkpt>
			<trkpt lat="-27.967691" lon="153.147137">
				<ele>75</ele>
				<time>2015-05-07T00:10:21Z</time>
				<extensions>
				</extensions>
			</trkpt>
			<trkpt lat="-27.967544" lon="153.146836">
				<ele>75</ele>
				<time>2015-05-07T00:10:23Z</time>
				<extensions>
				</extensions>
			</trkpt>
			<trkpt lat="-27.967434" lon="153.146542">
				<ele>75</ele>
				<time>2015-05-07T00:10:25Z</time>
				<extensions>
				</extensions>
			</trkpt>
			<trkpt lat="-27.967388" lon="153.146205">
				<ele>77</ele>
				<time>2015-05-07T00:10:27Z</time>
				<extensions>
				</extensions>
			</trkpt>
			<trkpt lat="-27.967399" lon="153.145845">
				<ele>79</ele>
				<time>2015-05-07T00:10:29Z</time>
				<extensions>
				</extensions>
			</trkpt>
			<trkpt lat="-27.967404" lon="153.145468">
				<ele>78</ele>
				<time>2015-05-07T00:10:31Z</time>
				<extensions>
				</extensions>
			</trkpt>
			<trkpt lat="-27.967426" lon="153.145106">
				<ele>77</ele>
				<time>2015-05-07T00:10:33Z</time>
				<extensions>
				</extensions>
			</trkpt>
			<trkpt lat="-27.967428" lon="153.144770">
				<ele>76</ele>
				<time>2015-05-07T00:10:35Z</time>
				<extensions>
				</extensions>
			</trkpt>
			<trkpt lat="-27.967382" lon="153.144432">
				<ele>76</ele>
				<time>2015-05-07T00:10:37Z</time>
				<extensions>
				</extensions>
			</trkpt>
			<trkpt lat="-27.967243" lon="153.144129">
				<ele>79</ele>
				<time>2015-05-07T00:10:39Z</time>
				<extensions>
				</extensions>
			</trkpt>
			<trkpt lat="-27.967066" lon="153.143915">
				<ele>81</ele>
				<time>2015-05-07T00:10:41Z</time>
				<extensions>
				</extensions>
			</trkpt>
			<trkpt lat="-27.966920" lon="153.143718">
				<ele>83</ele>
				<time>2015-05-07T00:10:43Z</time>
				<extensions>
				</extensions>
			</trkpt>
			<trkpt lat="-27.966832" lon="153.143462">
				<ele>84</ele>
				<time>2015-05-07T00:10:45Z</time>
				<extensions>
				</extensions>
			</trkpt>
			<trkpt lat="-27.966819" lon="153.143198">
				<ele>86</ele>
				<time>2015-05-07T00:10:47Z</time>
				<extensions>
				</extensions>
			</trkpt>
			<trkpt lat="-27.966830" lon="153.142877">
				<ele>85</ele>
				<time>2015-05-07T00:10:49Z</time>
				<extensions>
				</extensions>
			</trkpt>
			<trkpt lat="-27.966832" lon="153.142553">
				<ele>83</ele>
				<time>2015-05-07T00:10:51Z</time>
				<extensions>
				</extensions>
			</trkpt>
			<trkpt lat="-27.966834" lon="153.142214">
				<ele>81</ele>
				<time>2015-05-07T00:10:53Z</time>
				<extensions>
				</extensions>
			</trkpt>
			<trkpt lat="-27.966833" lon="153.141916">
				<ele>80</ele>
				<time>2015-05-07T00:10:55Z</time>
				<extensions>
				</extensions>
			</trkpt>
			<trkpt lat="-27.966829" lon="153.141621">
				<ele>79</ele>
				<time>2015-05-07T00:10:57Z</time>
				<extensions>
				</extensions>
			</trkpt>
			<trkpt lat="-27.966830" lon="153.141348">
				<ele>78</ele>
				<time>2015-05-07T00:10:59Z</time>
				<extensions>
				</extensions>
			</trkpt>
			<trkpt lat="-27.966830" lon="153.141110">
				<ele>78</ele>
				<time>2015-05-07T00:11:01Z</time>
				<extensions>
				</extensions>
			</trkpt>
			<trkpt lat="-27.966835" lon="153.140853">
				<ele>79</ele>
				<time>2015-05-07T00:11:04Z</time>
				<extensions>
				</extensions>
			</trkpt>
			<trkpt lat="-27.966866" lon="153.140598">
				<ele>82</ele>
				<time>2015-05-07T00:11:07Z</time>
				<extensions>
				</extensions>
			</trkpt>
			<trkpt lat="-27.966918" lon="153.140354">
				<ele>84</ele>
				<time>2015-05-07T00:11:10Z</time>
				<extensions>
				</extensions>
			</trkpt>
			<trkpt lat="-27.966988" lon="153.140126">
				<ele>86</ele>
				<time>2015-05-07T00:11:13Z</time>
				<extensions>
				</extensions>
			</trkpt>
			<trkpt lat="-27.967071" lon="153.139869">
				<ele>89</ele>
				<time>2015-05-07T00:11:16Z</time>
				<extensions>
				</extensions>
			</trkpt>
			<trkpt lat="-27.967165" lon="153.139606">
				<ele>91</ele>
				<time>2015-05-07T00:11:19Z</time>
				<extensions>
				</extensions>
			</trkpt>
			<trkpt lat="-27.967262" lon="153.139341">
				<ele>95</ele>
				<time>2015-05-07T00:11:22Z</time>
				<extensions>
				</extensions>
			</trkpt>
			<trkpt lat="-27.967378" lon="153.139065">
				<ele>98</ele>
				<time>2015-05-07T00:11:25Z</time>
				<extensions>
				</extensions>
			</trkpt>
			<trkpt lat="-27.967470" lon="153.138810">
				<ele>100</ele>
				<time>2015-05-07T00:11:28Z</time>
				<extensions>
				</extensions>
			</trkpt>
			<trkpt lat="-27.967560" lon="153.138560">
				<ele>103</ele>
				<time>2015-05-07T00:11:31Z</time>
				<extensions>
				</extensions>
			</trkpt>
			<trkpt lat="-27.967624" lon="153.138333">
				<ele>104</ele>
				<time>2015-05-07T00:11:34Z</time>
				<extensions>
				</extensions>
			</trkpt>
			<trkpt lat="-27.967604" lon="153.138085">
				<ele>105</ele>
				<time>2015-05-07T00:11:37Z</time>
				<extensions>
				</extensions>
			</trkpt>
			<trkpt lat="-27.967533" lon="153.137888">
				<ele>107</ele>
				<time>2015-05-07T00:11:39Z</time>
				<extensions>
				</extensions>
			</trkpt>
			<trkpt lat="-27.967445" lon="153.137709">
				<ele>108</ele>
				<time>2015-05-07T00:11:41Z</time>
				<extensions>
				</extensions>
			</trkpt>
			<trkpt lat="-27.967328" lon="153.137477">
				<ele>108</ele>
				<time>2015-05-07T00:11:44Z</time>
				<extensions>
				</extensions>
			</trkpt>
			<trkpt lat="-27.967193" lon="153.137242">
				<ele>110</ele>
				<time>2015-05-07T00:11:47Z</time>
				<extensions>
				</extensions>
			</trkpt>
			<trkpt lat="-27.967029" lon="153.137035">
				<ele>112</ele>
				<time>2015-05-07T00:11:50Z</time>
				<extensions>
				</extensions>
			</trkpt>
			<trkpt lat="-27.966904" lon="153.136887">
				<ele>114</ele>
				<time>2015-05-07T00:11:52Z</time>
				<extensions>
				</extensions>
			</trkpt>
			<trkpt lat="-27.966758" lon="153.136748">
				<ele>114</ele>
				<time>2015-05-07T00:11:54Z</time>
				<extensions>
				</extensions>
			</trkpt>
			<trkpt lat="-27.966595" lon="153.136600">
				<ele>113</ele>
				<time>2015-05-07T00:11:56Z</time>
				<extensions>
				</extensions>
			</trkpt>
			<trkpt lat="-27.966434" lon="153.136452">
				<ele>112</ele>
				<time>2015-05-07T00:11:58Z</time>
				<extensions>
				</extensions>
			</trkpt>
			<trkpt lat="-27.966282" lon="153.136305">
				<ele>110</ele>
				<time>2015-05-07T00:12:00Z</time>
				<extensions>
				</extensions>
			</trkpt>
			<trkpt lat="-27.966143" lon="153.136159">
				<ele>108</ele>
				<time>2015-05-07T00:12:02Z</time>
				<extensions>
				</extensions>
			</trkpt>
			<trkpt lat="-27.965986" lon="153.135940">
				<ele>106</ele>
				<time>2015-05-07T00:12:05Z</time>
				<extensions>
				</extensions>
			</trkpt>
			<trkpt lat="-27.965841" lon="153.135701">
				<ele>104</ele>
				<time>2015-05-07T00:12:08Z</time>
				<extensions>
				</extensions>
			</trkpt>
			<trkpt lat="-27.965704" lon="153.135461">
				<ele>103</ele>
				<time>2015-05-07T00:12:11Z</time>
				<extensions>
				</extensions>
			</trkpt>
			<trkpt lat="-27.965585" lon="153.135214">
				<ele>102</ele>
				<time>2015-05-07T00:12:14Z</time>
				<extensions>
				</extensions>
			</trkpt>
			<trkpt lat="-27.965517" lon="153.134953">
				<ele>100</ele>
				<time>2015-05-07T00:12:17Z</time>
				<extensions>
				</extensions>
			</trkpt>
			<trkpt lat="-27.965481" lon="153.134678">
				<ele>98</ele>
				<time>2015-05-07T00:12:20Z</time>
				<extensions>
				</extensions>
			</trkpt>
			<trkpt lat="-27.965468" lon="153.134471">
				<ele>96</ele>
				<time>2015-05-07T00:12:22Z</time>
				<extensions>
				</extensions>
			</trkpt>
			<trkpt lat="-27.965438" lon="153.134270">
				<ele>95</ele>
				<time>2015-05-07T00:12:24Z</time>
				<extensions>
				</extensions>
			</trkpt>
			<trkpt lat="-27.965365" lon="153.133992">
				<ele>93</ele>
				<time>2015-05-07T00:12:27Z</time>
				<extensions>
				</extensions>
			</trkpt>
			<trkpt lat="-27.965248" lon="153.133706">
				<ele>91</ele>
				<time>2015-05-07T00:12:30Z</time>
				<extensions>
				</extensions>
			</trkpt>
			<trkpt lat="-27.965124" lon="153.133439">
				<ele>88</ele>
				<time>2015-05-07T00:12:33Z</time>
				<extensions>
				</extensions>
			</trkpt>
			<trkpt lat="-27.964986" lon="153.133183">
				<ele>85</ele>
				<time>2015-05-07T00:12:36Z</time>
				<extensions>
				</extensions>
			</trkpt>
			<trkpt lat="-27.964845" lon="153.132934">
				<ele>83</ele>
				<time>2015-05-07T00:12:39Z</time>
				<extensions>
				</extensions>
			</trkpt>
			<trkpt lat="-27.964735" lon="153.132727">
				<ele>84</ele>
				<time>2015-05-07T00:12:41Z</time>
				<extensions>
				</extensions>
			</trkpt>
			<trkpt lat="-27.964613" lon="153.132510">
				<ele>83</ele>
				<time>2015-05-07T00:12:43Z</time>
				<extensions>
				</extensions>
			</trkpt>
			<trkpt lat="-27.964502" lon="153.132297">
				<ele>82</ele>
				<time>2015-05-07T00:12:45Z</time>
				<extensions>
				</extensions>
			</trkpt>
			<trkpt lat="-27.964385" lon="153.132087">
				<ele>80</ele>
				<time>2015-05-07T00:12:47Z</time>
				<extensions>
				</extensions>
			</trkpt>
			<trkpt lat="-27.964270" lon="153.131872">
				<ele>79</ele>
				<time>2015-05-07T00:12:49Z</time>
				<extensions>
				</extensions>
			</trkpt>
			<trkpt lat="-27.964132" lon="153.131624">
				<ele>81</ele>
				<time>2015-05-07T00:12:51Z</time>
				<extensions>
				</extensions>
			</trkpt>
			<trkpt lat="-27.963999" lon="153.131358">
				<ele>80</ele>
				<time>2015-05-07T00:12:53Z</time>
				<extensions>
				</extensions>
			</trkpt>
			<trkpt lat="-27.963874" lon="153.131113">
				<ele>78</ele>
				<time>2015-05-07T00:12:55Z</time>
				<extensions>
				</extensions>
			</trkpt>
			<trkpt lat="-27.963745" lon="153.130873">
				<ele>76</ele>
				<time>2015-05-07T00:12:57Z</time>
				<extensions>
				</extensions>
			</trkpt>
			<trkpt lat="-27.963625" lon="153.130639">
				<ele>75</ele>
				<time>2015-05-07T00:12:59Z</time>
				<extensions>
				</extensions>
			</trkpt>
			<trkpt lat="-27.963493" lon="153.130395">
				<ele>75</ele>
				<time>2015-05-07T00:13:01Z</time>
				<extensions>
				</extensions>
			</trkpt>
			<trkpt lat="-27.963378" lon="153.130174">
				<ele>74</ele>
				<time>2015-05-07T00:13:03Z</time>
				<extensions>
				</extensions>
			</trkpt>
			<trkpt lat="-27.963277" lon="153.129960">
				<ele>73</ele>
				<time>2015-05-07T00:13:05Z</time>
				<extensions>
				</extensions>
			</trkpt>
			<trkpt lat="-27.963160" lon="153.129756">
				<ele>73</ele>
				<time>2015-05-07T00:13:07Z</time>
				<extensions>
				</extensions>
			</trkpt>
			<trkpt lat="-27.963044" lon="153.129545">
				<ele>73</ele>
				<time>2015-05-07T00:13:09Z</time>
				<extensions>
				</extensions>
			</trkpt>
			<trkpt lat="-27.962936" lon="153.129339">
				<ele>72</ele>
				<time>2015-05-07T00:13:11Z</time>
				<extensions>
				</extensions>
			</trkpt>
			<trkpt lat="-27.962834" lon="153.129148">
				<ele>71</ele>
				<time>2015-05-07T00:13:13Z</time>
				<extensions>
				</extensions>
			</trkpt>
			<trkpt lat="-27.962734" lon="153.128973">
				<ele>71</ele>
				<time>2015-05-07T00:13:15Z</time>
				<extensions>
				</extensions>
			</trkpt>
			<trkpt lat="-27.962641" lon="153.128790">
				<ele>70</ele>
				<time>2015-05-07T00:13:17Z</time>
				<extensions>
				</extensions>
			</trkpt>
			<trkpt lat="-27.962509" lon="153.128542">
				<ele>69</ele>
				<time>2015-05-07T00:13:20Z</time>
				<extensions>
				</extensions>
			</trkpt>
			<trkpt lat="-27.962406" lon="153.128339">
				<ele>68</ele>
				<time>2015-05-07T00:13:23Z</time>
				<extensions>
				</extensions>
			</trkpt>
			<trkpt lat="-27.962367" lon="153.128038">
				<ele>67</ele>
				<time>2015-05-07T00:13:28Z</time>
				<extensions>
				</extensions>
			</trkpt>
			<trkpt lat="-27.962568" lon="153.127910">
				<ele>66</ele>
				<time>2015-05-07T00:13:32Z</time>
				<extensions>
				</extensions>
			</trkpt>
			<trkpt lat="-27.962774" lon="153.127779">
				<ele>68</ele>
				<time>2015-05-07T00:13:36Z</time>
				<extensions>
				</extensions>
			</trkpt>
			<trkpt lat="-27.962949" lon="153.127628">
				<ele>69</ele>
				<time>2015-05-07T00:13:39Z</time>
				<extensions>
				</extensions>
			</trkpt>
			<trkpt lat="-27.963079" lon="153.127434">
				<ele>70</ele>
				<time>2015-05-07T00:13:41Z</time>
				<extensions>
				</extensions>
			</trkpt>
			<trkpt lat="-27.963183" lon="153.127242">
				<ele>71</ele>
				<time>2015-05-07T00:13:43Z</time>
				<extensions>
				</extensions>
			</trkpt>
			<trkpt lat="-27.963296" lon="153.127028">
				<ele>72</ele>
				<time>2015-05-07T00:13:45Z</time>
				<extensions>
				</extensions>
			</trkpt>
			<trkpt lat="-27.963414" lon="153.126789">
				<ele>73</ele>
				<time>2015-05-07T00:13:47Z</time>
				<extensions>
				</extensions>
			</trkpt>
			<trkpt lat="-27.963532" lon="153.126537">
				<ele>73</ele>
				<time>2015-05-07T00:13:49Z</time>
				<extensions>
				</extensions>
			</trkpt>
			<trkpt lat="-27.963650" lon="153.126301">
				<ele>73</ele>
				<time>2015-05-07T00:13:51Z</time>
				<extensions>
				</extensions>
			</trkpt>
			<trkpt lat="-27.963766" lon="153.126063">
				<ele>73</ele>
				<time>2015-05-07T00:13:53Z</time>
				<extensions>
				</extensions>
			</trkpt>
			<trkpt lat="-27.963880" lon="153.125822">
				<ele>73</ele>
				<time>2015-05-07T00:13:55Z</time>
				<extensions>
				</extensions>
			</trkpt>
			<trkpt lat="-27.964012" lon="153.125547">
				<ele>74</ele>
				<time>2015-05-07T00:13:57Z</time>
				<extensions>
				</extensions>
			</trkpt>
			<trkpt lat="-27.964147" lon="153.125280">
				<ele>76</ele>
				<time>2015-05-07T00:13:59Z</time>
				<extensions>
				</extensions>
			</trkpt>
			<trkpt lat="-27.964290" lon="153.125002">
				<ele>77</ele>
				<time>2015-05-07T00:14:01Z</time>
				<extensions>
				</extensions>
			</trkpt>
			<trkpt lat="-27.964422" lon="153.124722">
				<ele>79</ele>
				<time>2015-05-07T00:14:03Z</time>
				<extensions>
				</extensions>
			</trkpt>
			<trkpt lat="-27.964561" lon="153.124446">
				<ele>79</ele>
				<time>2015-05-07T00:14:05Z</time>
				<extensions>
				</extensions>
			</trkpt>
			<trkpt lat="-27.964702" lon="153.124163">
				<ele>81</ele>
				<time>2015-05-07T00:14:07Z</time>
				<extensions>
				</extensions>
			</trkpt>
			<trkpt lat="-27.964839" lon="153.123859">
				<ele>83</ele>
				<time>2015-05-07T00:14:09Z</time>
				<extensions>
				</extensions>
			</trkpt>
			<trkpt lat="-27.964983" lon="153.123561">
				<ele>84</ele>
				<time>2015-05-07T00:14:11Z</time>
				<extensions>
				</extensions>
			</trkpt>
			<trkpt lat="-27.965116" lon="153.123300">
				<ele>82</ele>
				<time>2015-05-07T00:14:13Z</time>
				<extensions>
				</extensions>
			</trkpt>
			<trkpt lat="-27.965242" lon="153.123051">
				<ele>79</ele>
				<time>2015-05-07T00:14:15Z</time>
				<extensions>
				</extensions>
			</trkpt>
			<trkpt lat="-27.965363" lon="153.122815">
				<ele>78</ele>
				<time>2015-05-07T00:14:17Z</time>
				<extensions>
				</extensions>
			</trkpt>
			<trkpt lat="-27.965521" lon="153.122576">
				<ele>77</ele>
				<time>2015-05-07T00:14:19Z</time>
				<extensions>
				</extensions>
			</trkpt>
			<trkpt lat="-27.965803" lon="153.122332">
				<ele>77</ele>
				<time>2015-05-07T00:14:22Z</time>
				<extensions>
				</extensions>
			</trkpt>
			<trkpt lat="-27.966040" lon="153.122226">
				<ele>77</ele>
				<time>2015-05-07T00:14:24Z</time>
				<extensions>
				</extensions>
			</trkpt>
			<trkpt lat="-27.966291" lon="153.122169">
				<ele>79</ele>
				<time>2015-05-07T00:14:26Z</time>
				<extensions>
				</extensions>
			</trkpt>
			<trkpt lat="-27.966616" lon="153.122197">
				<ele>80</ele>
				<time>2015-05-07T00:14:28Z</time>
				<extensions>
				</extensions>
			</trkpt>
			<trkpt lat="-27.966906" lon="153.122269">
				<ele>80</ele>
				<time>2015-05-07T00:14:30Z</time>
				<extensions>
				</extensions>
			</trkpt>
			<trkpt lat="-27.967160" lon="153.122340">
				<ele>78</ele>
				<time>2015-05-07T00:14:32Z</time>
				<extensions>
				</extensions>
			</trkpt>
			<trkpt lat="-27.967415" lon="153.122395">
				<ele>77</ele>
				<time>2015-05-07T00:14:34Z</time>
				<extensions>
				</extensions>
			</trkpt>
			<trkpt lat="-27.967659" lon="153.122435">
				<ele>75</ele>
				<time>2015-05-07T00:14:36Z</time>
				<extensions>
				</extensions>
			</trkpt>
			<trkpt lat="-27.967895" lon="153.122421">
				<ele>75</ele>
				<time>2015-05-07T00:14:38Z</time>
				<extensions>
				</extensions>
			</trkpt>
			<trkpt lat="-27.968135" lon="153.122370">
				<ele>74</ele>
				<time>2015-05-07T00:14:40Z</time>
				<extensions>
				</extensions>
			</trkpt>
			<trkpt lat="-27.968384" lon="153.122220">
				<ele>74</ele>
				<time>2015-05-07T00:14:42Z</time>
				<extensions>
				</extensions>
			</trkpt>
			<trkpt lat="-27.968636" lon="153.122007">
				<ele>73</ele>
				<time>2015-05-07T00:14:44Z</time>
				<extensions>
				</extensions>
			</trkpt>
			<trkpt lat="-27.968840" lon="153.121751">
				<ele>72</ele>
				<time>2015-05-07T00:14:46Z</time>
				<extensions>
				</extensions>
			</trkpt>
			<trkpt lat="-27.969018" lon="153.121433">
				<ele>71</ele>
				<time>2015-05-07T00:14:48Z</time>
				<extensions>
				</extensions>
			</trkpt>
			<trkpt lat="-27.969197" lon="153.121122">
				<ele>71</ele>
				<time>2015-05-07T00:14:50Z</time>
				<extensions>
				</extensions>
			</trkpt>
			<trkpt lat="-27.969383" lon="153.120790">
				<ele>71</ele>
				<time>2015-05-07T00:14:52Z</time>
				<extensions>
				</extensions>
			</trkpt>
			<trkpt lat="-27.969574" lon="153.120463">
				<ele>71</ele>
				<time>2015-05-07T00:14:54Z</time>
				<extensions>
				</extensions>
			</trkpt>
			<trkpt lat="-27.969771" lon="153.120122">
				<ele>71</ele>
				<time>2015-05-07T00:14:56Z</time>
				<extensions>
				</extensions>
			</trkpt>
			<trkpt lat="-27.969952" lon="153.119787">
				<ele>70</ele>
				<time>2015-05-07T00:14:58Z</time>
				<extensions>
				</extensions>
			</trkpt>
			<trkpt lat="-27.970135" lon="153.119463">
				<ele>72</ele>
				<time>2015-05-07T00:15:00Z</time>
				<extensions>
				</extensions>
			</trkpt>
			<trkpt lat="-27.970307" lon="153.119142">
				<ele>74</ele>
				<time>2015-05-07T00:15:02Z</time>
				<extensions>
				</extensions>
			</trkpt>
			<trkpt lat="-27.970472" lon="153.118822">
				<ele>76</ele>
				<time>2015-05-07T00:15:04Z</time>
				<extensions>
				</extensions>
			</trkpt>
			<trkpt lat="-27.970640" lon="153.118518">
				<ele>79</ele>
				<time>2015-05-07T00:15:06Z</time>
				<extensions>
				</extensions>
			</trkpt>
			<trkpt lat="-27.970820" lon="153.118200">
				<ele>79</ele>
				<time>2015-05-07T00:15:08Z</time>
				<extensions>
				</extensions>
			</trkpt>
			<trkpt lat="-27.970992" lon="153.117904">
				<ele>79</ele>
				<time>2015-05-07T00:15:10Z</time>
				<extensions>
				</extensions>
			</trkpt>
			<trkpt lat="-27.971182" lon="153.117667">
				<ele>78</ele>
				<time>2015-05-07T00:15:12Z</time>
				<extensions>
				</extensions>
			</trkpt>
			<trkpt lat="-27.971373" lon="153.117511">
				<ele>76</ele>
				<time>2015-05-07T00:15:14Z</time>
				<extensions>
				</extensions>
			</trkpt>
			<trkpt lat="-27.971539" lon="153.117423">
				<ele>75</ele>
				<time>2015-05-07T00:15:16Z</time>
				<extensions>
				</extensions>
			</trkpt>
			<trkpt lat="-27.971704" lon="153.117307">
				<ele>72</ele>
				<time>2015-05-07T00:15:20Z</time>
				<extensions>
				</extensions>
			</trkpt>
			<trkpt lat="-27.971782" lon="153.117064">
				<ele>71</ele>
				<time>2015-05-07T00:15:23Z</time>
				<extensions>
				</extensions>
			</trkpt>
			<trkpt lat="-27.971770" lon="153.116821">
				<ele>71</ele>
				<time>2015-05-07T00:15:25Z</time>
				<extensions>
				</extensions>
			</trkpt>
			<trkpt lat="-27.971739" lon="153.116536">
				<ele>71</ele>
				<time>2015-05-07T00:15:27Z</time>
				<extensions>
				</extensions>
			</trkpt>
			<trkpt lat="-27.971720" lon="153.116233">
				<ele>71</ele>
				<time>2015-05-07T00:15:29Z</time>
				<extensions>
				</extensions>
			</trkpt>
			<trkpt lat="-27.971708" lon="153.115907">
				<ele>69</ele>
				<time>2015-05-07T00:15:31Z</time>
				<extensions>
				</extensions>
			</trkpt>
			<trkpt lat="-27.971675" lon="153.115594">
				<ele>68</ele>
				<time>2015-05-07T00:15:33Z</time>
				<extensions>
				</extensions>
			</trkpt>
			<trkpt lat="-27.971633" lon="153.115294">
				<ele>68</ele>
				<time>2015-05-07T00:15:35Z</time>
				<extensions>
				</extensions>
			</trkpt>
			<trkpt lat="-27.971606" lon="153.114998">
				<ele>67</ele>
				<time>2015-05-07T00:15:37Z</time>
				<extensions>
				</extensions>
			</trkpt>
			<trkpt lat="-27.971609" lon="153.114671">
				<ele>66</ele>
				<time>2015-05-07T00:15:39Z</time>
				<extensions>
				</extensions>
			</trkpt>
			<trkpt lat="-27.971625" lon="153.114359">
				<ele>67</ele>
				<time>2015-05-07T00:15:41Z</time>
				<extensions>
				</extensions>
			</trkpt>
			<trkpt lat="-27.971647" lon="153.114070">
				<ele>67</ele>
				<time>2015-05-07T00:15:43Z</time>
				<extensions>
				</extensions>
			</trkpt>
			<trkpt lat="-27.971657" lon="153.113736">
				<ele>68</ele>
				<time>2015-05-07T00:15:45Z</time>
				<extensions>
				</extensions>
			</trkpt>
			<trkpt lat="-27.971671" lon="153.113389">
				<ele>69</ele>
				<time>2015-05-07T00:15:47Z</time>
				<extensions>
				</extensions>
			</trkpt>
			<trkpt lat="-27.971686" lon="153.113045">
				<ele>68</ele>
				<time>2015-05-07T00:15:49Z</time>
				<extensions>
				</extensions>
			</trkpt>
			<trkpt lat="-27.971690" lon="153.112746">
				<ele>68</ele>
				<time>2015-05-07T00:15:51Z</time>
				<extensions>
				</extensions>
			</trkpt>
			<trkpt lat="-27.971717" lon="153.112446">
				<ele>66</ele>
				<time>2015-05-07T00:15:53Z</time>
				<extensions>
				</extensions>
			</trkpt>
			<trkpt lat="-27.971736" lon="153.112134">
				<ele>66</ele>
				<time>2015-05-07T00:15:55Z</time>
				<extensions>
				</extensions>
			</trkpt>
			<trkpt lat="-27.971778" lon="153.111762">
				<ele>68</ele>
				<time>2015-05-07T00:15:57Z</time>
				<extensions>
				</extensions>
			</trkpt>
			<trkpt lat="-27.971760" lon="153.111385">
				<ele>70</ele>
				<time>2015-05-07T00:15:59Z</time>
				<extensions>
				</extensions>
			</trkpt>
			<trkpt lat="-27.971699" lon="153.111191">
				<ele>70</ele>
				<time>2015-05-07T00:16:00Z</time>
				<extensions>
				</extensions>
			</trkpt>
			<trkpt lat="-27.971632" lon="153.110861">
				<ele>74</ele>
				<time>2015-05-07T00:16:02Z</time>
				<extensions>
				</extensions>
			</trkpt>
			<trkpt lat="-27.971555" lon="153.110540">
				<ele>77</ele>
				<time>2015-05-07T00:16:04Z</time>
				<extensions>
				</extensions>
			</trkpt>
			<trkpt lat="-27.971463" lon="153.110230">
				<ele>80</ele>
				<time>2015-05-07T00:16:06Z</time>
				<extensions>
				</extensions>
			</trkpt>
			<trkpt lat="-27.971365" lon="153.109939">
				<ele>81</ele>
				<time>2015-05-07T00:16:08Z</time>
				<extensions>
				</extensions>
			</trkpt>
			<trkpt lat="-27.971245" lon="153.109653">
				<ele>82</ele>
				<time>2015-05-07T00:16:10Z</time>
				<extensions>
				</extensions>
			</trkpt>
			<trkpt lat="-27.971088" lon="153.109406">
				<ele>83</ele>
				<time>2015-05-07T00:16:12Z</time>
				<extensions>
				</extensions>
			</trkpt>
			<trkpt lat="-27.970924" lon="153.109156">
				<ele>83</ele>
				<time>2015-05-07T00:16:14Z</time>
				<extensions>
				</extensions>
			</trkpt>
			<trkpt lat="-27.970764" lon="153.108903">
				<ele>82</ele>
				<time>2015-05-07T00:16:16Z</time>
				<extensions>
				</extensions>
			</trkpt>
			<trkpt lat="-27.970640" lon="153.108631">
				<ele>82</ele>
				<time>2015-05-07T00:16:18Z</time>
				<extensions>
				</extensions>
			</trkpt>
			<trkpt lat="-27.970531" lon="153.108359">
				<ele>83</ele>
				<time>2015-05-07T00:16:20Z</time>
				<extensions>
				</extensions>
			</trkpt>
			<trkpt lat="-27.970416" lon="153.108079">
				<ele>87</ele>
				<time>2015-05-07T00:16:22Z</time>
				<extensions>
				</extensions>
			</trkpt>
			<trkpt lat="-27.970310" lon="153.107784">
				<ele>90</ele>
				<time>2015-05-07T00:16:24Z</time>
				<extensions>
				</extensions>
			</trkpt>
			<trkpt lat="-27.970198" lon="153.107549">
				<ele>92</ele>
				<time>2015-05-07T00:16:26Z</time>
				<extensions>
				</extensions>
			</trkpt>
			<trkpt lat="-27.970079" lon="153.107374">
				<ele>92</ele>
				<time>2015-05-07T00:16:28Z</time>
				<extensions>
				</extensions>
			</trkpt>
			<trkpt lat="-27.969897" lon="153.107139">
				<ele>95</ele>
				<time>2015-05-07T00:16:30Z</time>
				<extensions>
				</extensions>
			</trkpt>
			<trkpt lat="-27.969683" lon="153.106889">
				<ele>97</ele>
				<time>2015-05-07T00:16:32Z</time>
				<extensions>
				</extensions>
			</trkpt>
			<trkpt lat="-27.969492" lon="153.106655">
				<ele>95</ele>
				<time>2015-05-07T00:16:34Z</time>
				<extensions>
				</extensions>
			</trkpt>
			<trkpt lat="-27.969308" lon="153.106424">
				<ele>94</ele>
				<time>2015-05-07T00:16:36Z</time>
				<extensions>
				</extensions>
			</trkpt>
			<trkpt lat="-27.969132" lon="153.106212">
				<ele>93</ele>
				<time>2015-05-07T00:16:38Z</time>
				<extensions>
				</extensions>
			</trkpt>
			<trkpt lat="-27.968940" lon="153.105980">
				<ele>93</ele>
				<time>2015-05-07T00:16:40Z</time>
				<extensions>
				</extensions>
			</trkpt>
			<trkpt lat="-27.968725" lon="153.105727">
				<ele>94</ele>
				<time>2015-05-07T00:16:42Z</time>
				<extensions>
				</extensions>
			</trkpt>
			<trkpt lat="-27.968526" lon="153.105487">
				<ele>96</ele>
				<time>2015-05-07T00:16:44Z</time>
				<extensions>
				</extensions>
			</trkpt>
			<trkpt lat="-27.968322" lon="153.105257">
				<ele>99</ele>
				<time>2015-05-07T00:16:46Z</time>
				<extensions>
				</extensions>
			</trkpt>
			<trkpt lat="-27.968107" lon="153.105016">
				<ele>99</ele>
				<time>2015-05-07T00:16:48Z</time>
				<extensions>
				</extensions>
			</trkpt>
			<trkpt lat="-27.967872" lon="153.104748">
				<ele>99</ele>
				<time>2015-05-07T00:16:50Z</time>
				<extensions>
				</extensions>
			</trkpt>
			<trkpt lat="-27.967639" lon="153.104483">
				<ele>98</ele>
				<time>2015-05-07T00:16:52Z</time>
				<extensions>
				</extensions>
			</trkpt>
			<trkpt lat="-27.967417" lon="153.104228">
				<ele>98</ele>
				<time>2015-05-07T00:16:54Z</time>
				<extensions>
				</extensions>
			</trkpt>
			<trkpt lat="-27.967197" lon="153.103984">
				<ele>98</ele>
				<time>2015-05-07T00:16:56Z</time>
				<extensions>
				</extensions>
			</trkpt>
			<trkpt lat="-27.966996" lon="153.103735">
				<ele>100</ele>
				<time>2015-05-07T00:16:58Z</time>
				<extensions>
				</extensions>
			</trkpt>
			<trkpt lat="-27.966797" lon="153.103488">
				<ele>104</ele>
				<time>2015-05-07T00:17:00Z</time>
				<extensions>
				</extensions>
			</trkpt>
			<trkpt lat="-27.966623" lon="153.103227">
				<ele>104</ele>
				<time>2015-05-07T00:17:02Z</time>
				<extensions>
				</extensions>
			</trkpt>
			<trkpt lat="-27.966494" lon="153.102919">
				<ele>102</ele>
				<time>2015-05-07T00:17:04Z</time>
				<extensions>
				</extensions>
			</trkpt>
			<trkpt lat="-27.966379" lon="153.102601">
				<ele>101</ele>
				<time>2015-05-07T00:17:06Z</time>
				<extensions>
				</extensions>
			</trkpt>
			<trkpt lat="-27.966275" lon="153.102298">
				<ele>99</ele>
				<time>2015-05-07T00:17:08Z</time>
				<extensions>
				</extensions>
			</trkpt>
			<trkpt lat="-27.966176" lon="153.101997">
				<ele>97</ele>
				<time>2015-05-07T00:17:10Z</time>
				<extensions>
				</extensions>
			</trkpt>
			<trkpt lat="-27.966123" lon="153.101736">
				<ele>96</ele>
				<time>2015-05-07T00:17:12Z</time>
				<extensions>
				</extensions>
			</trkpt>
			<trkpt lat="-27.966097" lon="153.101446">
				<ele>95</ele>
				<time>2015-05-07T00:17:14Z</time>
				<extensions>
				</extensions>
			</trkpt>
			<trkpt lat="-27.966066" lon="153.101129">
				<ele>95</ele>
				<time>2015-05-07T00:17:16Z</time>
				<extensions>
				</extensions>
			</trkpt>
			<trkpt lat="-27.966026" lon="153.100826">
				<ele>94</ele>
				<time>2015-05-07T00:17:18Z</time>
				<extensions>
				</extensions>
			</trkpt>
			<trkpt lat="-27.966001" lon="153.100528">
				<ele>94</ele>
				<time>2015-05-07T00:17:20Z</time>
				<extensions>
				</extensions>
			</trkpt>
			<trkpt lat="-27.965977" lon="153.100212">
				<ele>92</ele>
				<time>2015-05-07T00:17:22Z</time>
				<extensions>
				</extensions>
			</trkpt>
			<trkpt lat="-27.965960" lon="153.099954">
				<ele>91</ele>
				<time>2015-05-07T00:17:24Z</time>
				<extensions>
				</extensions>
			</trkpt>
			<trkpt lat="-27.965919" lon="153.099676">
				<ele>91</ele>
				<time>2015-05-07T00:17:26Z</time>
				<extensions>
				</extensions>
			</trkpt>
			<trkpt lat="-27.965849" lon="153.099399">
				<ele>90</ele>
				<time>2015-05-07T00:17:28Z</time>
				<extensions>
				</extensions>
			</trkpt>
			<trkpt lat="-27.965723" lon="153.099117">
				<ele>90</ele>
				<time>2015-05-07T00:17:30Z</time>
				<extensions>
				</extensions>
			</trkpt>
			<trkpt lat="-27.965552" lon="153.098882">
				<ele>90</ele>
				<time>2015-05-07T00:17:32Z</time>
				<extensions>
				</extensions>
			</trkpt>
			<trkpt lat="-27.965346" lon="153.098629">
				<ele>91</ele>
				<time>2015-05-07T00:17:34Z</time>
				<extensions>
				</extensions>
			</trkpt>
			<trkpt lat="-27.965157" lon="153.098375">
				<ele>90</ele>
				<time>2015-05-07T00:17:36Z</time>
				<extensions>
				</extensions>
			</trkpt>
			<trkpt lat="-27.964939" lon="153.098143">
				<ele>88</ele>
				<time>2015-05-07T00:17:38Z</time>
				<extensions>
				</extensions>
			</trkpt>
			<trkpt lat="-27.964739" lon="153.097892">
				<ele>87</ele>
				<time>2015-05-07T00:17:40Z</time>
				<extensions>
				</extensions>
			</trkpt>
			<trkpt lat="-27.964559" lon="153.097672">
				<ele>86</ele>
				<time>2015-05-07T00:17:42Z</time>
				<extensions>
				</extensions>
			</trkpt>
			<trkpt lat="-27.964382" lon="153.097460">
				<ele>86</ele>
				<time>2015-05-07T00:17:44Z</time>
				<extensions>
				</extensions>
			</trkpt>
			<trkpt lat="-27.964205" lon="153.097241">
				<ele>86</ele>
				<time>2015-05-07T00:17:46Z</time>
				<extensions>
				</extensions>
			</trkpt>
			<trkpt lat="-27.964032" lon="153.097028">
				<ele>84</ele>
				<time>2015-05-07T00:17:48Z</time>
				<extensions>
				</extensions>
			</trkpt>
			<trkpt lat="-27.963847" lon="153.096801">
				<ele>83</ele>
				<time>2015-05-07T00:17:50Z</time>
				<extensions>
				</extensions>
			</trkpt>
			<trkpt lat="-27.963667" lon="153.096569">
				<ele>83</ele>
				<time>2015-05-07T00:17:52Z</time>
				<extensions>
				</extensions>
			</trkpt>
			<trkpt lat="-27.963483" lon="153.096347">
				<ele>80</ele>
				<time>2015-05-07T00:17:54Z</time>
				<extensions>
				</extensions>
			</trkpt>
			<trkpt lat="-27.963313" lon="153.096135">
				<ele>79</ele>
				<time>2015-05-07T00:17:56Z</time>
				<extensions>
				</extensions>
			</trkpt>
			<trkpt lat="-27.963127" lon="153.095904">
				<ele>79</ele>
				<time>2015-05-07T00:17:58Z</time>
				<extensions>
				</extensions>
			</trkpt>
			<trkpt lat="-27.962946" lon="153.095681">
				<ele>77</ele>
				<time>2015-05-07T00:18:00Z</time>
				<extensions>
				</extensions>
			</trkpt>
			<trkpt lat="-27.962778" lon="153.095468">
				<ele>75</ele>
				<time>2015-05-07T00:18:02Z</time>
				<extensions>
				</extensions>
			</trkpt>
			<trkpt lat="-27.962626" lon="153.095278">
				<ele>74</ele>
				<time>2015-05-07T00:18:04Z</time>
				<extensions>
				</extensions>
			</trkpt>
			<trkpt lat="-27.962470" lon="153.095147">
				<ele>71</ele>
				<time>2015-05-07T00:18:06Z</time>
				<extensions>
				</extensions>
			</trkpt>
			<trkpt lat="-27.962282" lon="153.095048">
				<ele>68</ele>
				<time>2015-05-07T00:18:09Z</time>
				<extensions>
				</extensions>
			</trkpt>
			<trkpt lat="-27.962102" lon="153.094938">
				<ele>66</ele>
				<time>2015-05-07T00:18:15Z</time>
				<extensions>
				</extensions>
			</trkpt>
			<trkpt lat="-27.962063" lon="153.094680">
				<ele>70</ele>
				<time>2015-05-07T00:18:18Z</time>
				<extensions>
				</extensions>
			</trkpt>
			<trkpt lat="-27.962065" lon="153.094448">
				<ele>72</ele>
				<time>2015-05-07T00:18:20Z</time>
				<extensions>
				</extensions>
			</trkpt>
			<trkpt lat="-27.962068" lon="153.094220">
				<ele>72</ele>
				<time>2015-05-07T00:18:22Z</time>
				<extensions>
				</extensions>
			</trkpt>
			<trkpt lat="-27.962166" lon="153.093947">
				<ele>71</ele>
				<time>2015-05-07T00:18:25Z</time>
				<extensions>
				</extensions>
			</trkpt>
			<trkpt lat="-27.962352" lon="153.093758">
				<ele>71</ele>
				<time>2015-05-07T00:18:27Z</time>
				<extensions>
				</extensions>
			</trkpt>
			<trkpt lat="-27.962554" lon="153.093587">
				<ele>70</ele>
				<time>2015-05-07T00:18:29Z</time>
				<extensions>
				</extensions>
			</trkpt>
			<trkpt lat="-27.962764" lon="153.093395">
				<ele>66</ele>
				<time>2015-05-07T00:18:31Z</time>
				<extensions>
				</extensions>
			</trkpt>
			<trkpt lat="-27.962975" lon="153.093195">
				<ele>64</ele>
				<time>2015-05-07T00:18:33Z</time>
				<extensions>
				</extensions>
			</trkpt>
			<trkpt lat="-27.963164" lon="153.092976">
				<ele>64</ele>
				<time>2015-05-07T00:18:35Z</time>
				<extensions>
				</extensions>
			</trkpt>
			<trkpt lat="-27.963363" lon="153.092742">
				<ele>65</ele>
				<time>2015-05-07T00:18:37Z</time>
				<extensions>
				</extensions>
			</trkpt>
			<trkpt lat="-27.963546" lon="153.092500">
				<ele>66</ele>
				<time>2015-05-07T00:18:39Z</time>
				<extensions>
				</extensions>
			</trkpt>
			<trkpt lat="-27.963730" lon="153.092255">
				<ele>65</ele>
				<time>2015-05-07T00:18:41Z</time>
				<extensions>
				</extensions>
			</trkpt>
			<trkpt lat="-27.963921" lon="153.091997">
				<ele>65</ele>
				<time>2015-05-07T00:18:43Z</time>
				<extensions>
				</extensions>
			</trkpt>
			<trkpt lat="-27.964093" lon="153.091760">
				<ele>64</ele>
				<time>2015-05-07T00:18:45Z</time>
				<extensions>
				</extensions>
			</trkpt>
			<trkpt lat="-27.964243" lon="153.091506">
				<ele>64</ele>
				<time>2015-05-07T00:18:47Z</time>
				<extensions>
				</extensions>
			</trkpt>
			<trkpt lat="-27.964330" lon="153.091205">
				<ele>68</ele>
				<time>2015-05-07T00:18:49Z</time>
				<extensions>
				</extensions>
			</trkpt>
			<trkpt lat="-27.964399" lon="153.090902">
				<ele>69</ele>
				<time>2015-05-07T00:18:51Z</time>
				<extensions>
				</extensions>
			</trkpt>
			<trkpt lat="-27.964479" lon="153.090609">
				<ele>72</ele>
				<time>2015-05-07T00:18:53Z</time>
				<extensions>
				</extensions>
			</trkpt>
			<trkpt lat="-27.964556" lon="153.090351">
				<ele>74</ele>
				<time>2015-05-07T00:18:55Z</time>
				<extensions>
				</extensions>
			</trkpt>
			<trkpt lat="-27.964639" lon="153.090162">
				<ele>76</ele>
				<time>2015-05-07T00:18:57Z</time>
				<extensions>
				</extensions>
			</trkpt>
			<trkpt lat="-27.964791" lon="153.089900">
				<ele>76</ele>
				<time>2015-05-07T00:18:59Z</time>
				<extensions>
				</extensions>
			</trkpt>
			<trkpt lat="-27.964971" lon="153.089638">
				<ele>75</ele>
				<time>2015-05-07T00:19:01Z</time>
				<extensions>
				</extensions>
			</trkpt>
			<trkpt lat="-27.965142" lon="153.089379">
				<ele>73</ele>
				<time>2015-05-07T00:19:03Z</time>
				<extensions>
				</extensions>
			</trkpt>
			<trkpt lat="-27.965284" lon="153.089195">
				<ele>70</ele>
				<time>2015-05-07T00:19:04Z</time>
				<extensions>
				</extensions>
			</trkpt>
			<trkpt lat="-27.965506" lon="153.088880">
				<ele>72</ele>
				<time>2015-05-07T00:19:06Z</time>
				<extensions>
				</extensions>
			</trkpt>
			<trkpt lat="-27.965708" lon="153.088578">
				<ele>72</ele>
				<time>2015-05-07T00:19:08Z</time>
				<extensions>
				</extensions>
			</trkpt>
			<trkpt lat="-27.965880" lon="153.088278">
				<ele>72</ele>
				<time>2015-05-07T00:19:10Z</time>
				<extensions>
				</extensions>
			</trkpt>
			<trkpt lat="-27.966034" lon="153.087951">
				<ele>72</ele>
				<time>2015-05-07T00:19:12Z</time>
				<extensions>
				</extensions>
			</trkpt>
			<trkpt lat="-27.966177" lon="153.087593">
				<ele>73</ele>
				<time>2015-05-07T00:19:14Z</time>
				<extensions>
				</extensions>
			</trkpt>
			<trkpt lat="-27.966316" lon="153.087217">
				<ele>74</ele>
				<time>2015-05-07T00:19:16Z</time>
				<extensions>
				</extensions>
			</trkpt>
			<trkpt lat="-27.966392" lon="153.087032">
				<ele>75</ele>
				<time>2015-05-07T00:19:17Z</time>
				<extensions>
				</extensions>
			</trkpt>
			<trkpt lat="-27.966526" lon="153.086694">
				<ele>76</ele>
				<time>2015-05-07T00:19:19Z</time>
				<extensions>
				</extensions>
			</trkpt>
			<trkpt lat="-27.966662" lon="153.086350">
				<ele>76</ele>
				<time>2015-05-07T00:19:21Z</time>
				<extensions>
				</extensions>
			</trkpt>
			<trkpt lat="-27.966802" lon="153.086034">
				<ele>78</ele>
				<time>2015-05-07T00:19:23Z</time>
				<extensions>
				</extensions>
			</trkpt>
			<trkpt lat="-27.966950" lon="153.085710">
				<ele>79</ele>
				<time>2015-05-07T00:19:25Z</time>
				<extensions>
				</extensions>
			</trkpt>
			<trkpt lat="-27.967085" lon="153.085420">
				<ele>79</ele>
				<time>2015-05-07T00:19:27Z</time>
				<extensions>
				</extensions>
			</trkpt>
			<trkpt lat="-27.967187" lon="153.085144">
				<ele>80</ele>
				<time>2015-05-07T00:19:29Z</time>
				<extensions>
				</extensions>
			</trkpt>
			<trkpt lat="-27.967307" lon="153.084882">
				<ele>78</ele>
				<time>2015-05-07T00:19:31Z</time>
				<extensions>
				</extensions>
			</trkpt>
			<trkpt lat="-27.967417" lon="153.084679">
				<ele>79</ele>
				<time>2015-05-07T00:19:33Z</time>
				<extensions>
				</extensions>
			</trkpt>
			<trkpt lat="-27.967562" lon="153.084497">
				<ele>79</ele>
				<time>2015-05-07T00:19:35Z</time>
				<extensions>
				</extensions>
			</trkpt>
			<trkpt lat="-27.967783" lon="153.084408">
				<ele>79</ele>
				<time>2015-05-07T00:19:37Z</time>
				<extensions>
				</extensions>
			</trkpt>
			<trkpt lat="-27.968018" lon="153.084327">
				<ele>77</ele>
				<time>2015-05-07T00:19:39Z</time>
				<extensions>
				</extensions>
			</trkpt>
			<trkpt lat="-27.968245" lon="153.084264">
				<ele>73</ele>
				<time>2015-05-07T00:19:41Z</time>
				<extensions>
				</extensions>
			</trkpt>
			<trkpt lat="-27.968473" lon="153.084168">
				<ele>71</ele>
				<time>2015-05-07T00:19:43Z</time>
				<extensions>
				</extensions>
			</trkpt>
			<trkpt lat="-27.968720" lon="153.083991">
				<ele>68</ele>
				<time>2015-05-07T00:19:45Z</time>
				<extensions>
				</extensions>
			</trkpt>
			<trkpt lat="-27.968855" lon="153.083725">
				<ele>68</ele>
				<time>2015-05-07T00:19:47Z</time>
				<extensions>
				</extensions>
			</trkpt>
			<trkpt lat="-27.969022" lon="153.083435">
				<ele>68</ele>
				<time>2015-05-07T00:19:49Z</time>
				<extensions>
				</extensions>
			</trkpt>
			<trkpt lat="-27.969234" lon="153.083151">
				<ele>70</ele>
				<time>2015-05-07T00:19:51Z</time>
				<extensions>
				</extensions>
			</trkpt>
			<trkpt lat="-27.969433" lon="153.082907">
				<ele>69</ele>
				<time>2015-05-07T00:19:53Z</time>
				<extensions>
				</extensions>
			</trkpt>
			<trkpt lat="-27.969644" lon="153.082652">
				<ele>70</ele>
				<time>2015-05-07T00:19:55Z</time>
				<extensions>
				</extensions>
			</trkpt>
			<trkpt lat="-27.969900" lon="153.082401">
				<ele>71</ele>
				<time>2015-05-07T00:19:57Z</time>
				<extensions>
				</extensions>
			</trkpt>
			<trkpt lat="-27.970111" lon="153.082152">
				<ele>75</ele>
				<time>2015-05-07T00:19:59Z</time>
				<extensions>
				</extensions>
			</trkpt>
			<trkpt lat="-27.970239" lon="153.082005">
				<ele>76</ele>
				<time>2015-05-07T00:20:00Z</time>
				<extensions>
				</extensions>
			</trkpt>
			<trkpt lat="-27.970484" lon="153.081720">
				<ele>81</ele>
				<time>2015-05-07T00:20:02Z</time>
				<extensions>
				</extensions>
			</trkpt>
			<trkpt lat="-27.970721" lon="153.081457">
				<ele>82</ele>
				<time>2015-05-07T00:20:04Z</time>
				<extensions>
				</extensions>
			</trkpt>
			<trkpt lat="-27.970939" lon="153.081198">
				<ele>84</ele>
				<time>2015-05-07T00:20:06Z</time>
				<extensions>
				</extensions>
			</trkpt>
			<trkpt lat="-27.971168" lon="153.080933">
				<ele>88</ele>
				<time>2015-05-07T00:20:08Z</time>
				<extensions>
				</extensions>
			</trkpt>
			<trkpt lat="-27.971368" lon="153.080712">
				<ele>88</ele>
				<time>2015-05-07T00:20:10Z</time>
				<extensions>
				</extensions>
			</trkpt>
			<trkpt lat="-27.971590" lon="153.080497">
				<ele>88</ele>
				<time>2015-05-07T00:20:12Z</time>
				<extensions>
				</extensions>
			</trkpt>
			<trkpt lat="-27.971849" lon="153.080329">
				<ele>88</ele>
				<time>2015-05-07T00:20:14Z</time>
				<extensions>
				</extensions>
			</trkpt>
			<trkpt lat="-27.972098" lon="153.080232">
				<ele>88</ele>
				<time>2015-05-07T00:20:16Z</time>
				<extensions>
				</extensions>
			</trkpt>
			<trkpt lat="-27.972375" lon="153.080150">
				<ele>88</ele>
				<time>2015-05-07T00:20:18Z</time>
				<extensions>
				</extensions>
			</trkpt>
			<trkpt lat="-27.972653" lon="153.080073">
				<ele>83</ele>
				<time>2015-05-07T00:20:20Z</time>
				<extensions>
				</extensions>
			</trkpt>
			<trkpt lat="-27.972955" lon="153.079987">
				<ele>80</ele>
				<time>2015-05-07T00:20:22Z</time>
				<extensions>
				</extensions>
			</trkpt>
			<trkpt lat="-27.973267" lon="153.079867">
				<ele>78</ele>
				<time>2015-05-07T00:20:24Z</time>
				<extensions>
				</extensions>
			</trkpt>
			<trkpt lat="-27.973567" lon="153.079719">
				<ele>72</ele>
				<time>2015-05-07T00:20:26Z</time>
				<extensions>
				</extensions>
			</trkpt>
			<trkpt lat="-27.973853" lon="153.079514">
				<ele>71</ele>
				<time>2015-05-07T00:20:28Z</time>
				<extensions>
				</extensions>
			</trkpt>
			<trkpt lat="-27.974149" lon="153.079292">
				<ele>71</ele>
				<time>2015-05-07T00:20:30Z</time>
				<extensions>
				</extensions>
			</trkpt>
			<trkpt lat="-27.974446" lon="153.079078">
				<ele>72</ele>
				<time>2015-05-07T00:20:32Z</time>
				<extensions>
				</extensions>
			</trkpt>
			<trkpt lat="-27.974594" lon="153.078960">
				<ele>71</ele>
				<time>2015-05-07T00:20:33Z</time>
				<extensions>
				</extensions>
			</trkpt>
			<trkpt lat="-27.974760" lon="153.078821">
				<ele>74</ele>
				<time>2015-05-07T00:20:34Z</time>
				<extensions>
				</extensions>
			</trkpt>
			<trkpt lat="-27.974917" lon="153.078673">
				<ele>75</ele>
				<time>2015-05-07T00:20:35Z</time>
				<extensions>
				</extensions>
			</trkpt>
			<trkpt lat="-27.975073" lon="153.078539">
				<ele>77</ele>
				<time>2015-05-07T00:20:36Z</time>
				<extensions>
				</extensions>
			</trkpt>
			<trkpt lat="-27.975363" lon="153.078304">
				<ele>80</ele>
				<time>2015-05-07T00:20:38Z</time>
				<extensions>
				</extensions>
			</trkpt>
			<trkpt lat="-27.975646" lon="153.078102">
				<ele>82</ele>
				<time>2015-05-07T00:20:40Z</time>
				<extensions>
				</extensions>
			</trkpt>
			<trkpt lat="-27.975860" lon="153.077891">
				<ele>83</ele>
				<time>2015-05-07T00:20:42Z</time>
				<extensions>
				</extensions>
			</trkpt>
			<trkpt lat="-27.976011" lon="153.077696">
				<ele>82</ele>
				<time>2015-05-07T00:20:44Z</time>
				<extensions>
				</extensions>
			</trkpt>
			<trkpt lat="-27.976154" lon="153.077484">
				<ele>81</ele>
				<time>2015-05-07T00:20:46Z</time>
				<extensions>
				</extensions>
			</trkpt>
			<trkpt lat="-27.976299" lon="153.077272">
				<ele>80</ele>
				<time>2015-05-07T00:20:48Z</time>
				<extensions>
				</extensions>
			</trkpt>
			<trkpt lat="-27.976435" lon="153.077069">
				<ele>78</ele>
				<time>2015-05-07T00:20:50Z</time>
				<extensions>
				</extensions>
			</trkpt>
			<trkpt lat="-27.976544" lon="153.076832">
				<ele>75</ele>
				<time>2015-05-07T00:20:52Z</time>
				<extensions>
				</extensions>
			</trkpt>
			<trkpt lat="-27.976581" lon="153.076592">
				<ele>74</ele>
				<time>2015-05-07T00:20:54Z</time>
				<extensions>
				</extensions>
			</trkpt>
			<trkpt lat="-27.976565" lon="153.076300">
				<ele>75</ele>
				<time>2015-05-07T00:20:56Z</time>
				<extensions>
				</extensions>
			</trkpt>
			<trkpt lat="-27.976511" lon="153.075952">
				<ele>77</ele>
				<time>2015-05-07T00:20:58Z</time>
				<extensions>
				</extensions>
			</trkpt>
			<trkpt lat="-27.976459" lon="153.075588">
				<ele>77</ele>
				<time>2015-05-07T00:21:00Z</time>
				<extensions>
				</extensions>
			</trkpt>
			<trkpt lat="-27.976398" lon="153.075221">
				<ele>76</ele>
				<time>2015-05-07T00:21:02Z</time>
				<extensions>
				</extensions>
			</trkpt>
			<trkpt lat="-27.976344" lon="153.074842">
				<ele>78</ele>
				<time>2015-05-07T00:21:04Z</time>
				<extensions>
				</extensions>
			</trkpt>
			<trkpt lat="-27.976313" lon="153.074641">
				<ele>77</ele>
				<time>2015-05-07T00:21:05Z</time>
				<extensions>
				</extensions>
			</trkpt>
			<trkpt lat="-27.976283" lon="153.074427">
				<ele>77</ele>
				<time>2015-05-07T00:21:06Z</time>
				<extensions>
				</extensions>
			</trkpt>
			<trkpt lat="-27.976250" lon="153.074216">
				<ele>75</ele>
				<time>2015-05-07T00:21:07Z</time>
				<extensions>
				</extensions>
			</trkpt>
			<trkpt lat="-27.976225" lon="153.074008">
				<ele>73</ele>
				<time>2015-05-07T00:21:08Z</time>
				<extensions>
				</extensions>
			</trkpt>
			<trkpt lat="-27.976201" lon="153.073791">
				<ele>71</ele>
				<time>2015-05-07T00:21:09Z</time>
				<extensions>
				</extensions>
			</trkpt>
			<trkpt lat="-27.976170" lon="153.073581">
				<ele>71</ele>
				<time>2015-05-07T00:21:10Z</time>
				<extensions>
				</extensions>
			</trkpt>
			<trkpt lat="-27.976140" lon="153.073357">
				<ele>69</ele>
				<time>2015-05-07T00:21:11Z</time>
				<extensions>
				</extensions>
			</trkpt>
			<trkpt lat="-27.976108" lon="153.073139">
				<ele>68</ele>
				<time>2015-05-07T00:21:12Z</time>
				<extensions>
				</extensions>
			</trkpt>
			<trkpt lat="-27.976078" lon="153.072927">
				<ele>69</ele>
				<time>2015-05-07T00:21:13Z</time>
				<extensions>
				</extensions>
			</trkpt>
			<trkpt lat="-27.976048" lon="153.072713">
				<ele>68</ele>
				<time>2015-05-07T00:21:14Z</time>
				<extensions>
				</extensions>
			</trkpt>
			<trkpt lat="-27.976016" lon="153.072494">
				<ele>70</ele>
				<time>2015-05-07T00:21:15Z</time>
				<extensions>
				</extensions>
			</trkpt>
			<trkpt lat="-27.975987" lon="153.072280">
				<ele>69</ele>
				<time>2015-05-07T00:21:16Z</time>
				<extensions>
				</extensions>
			</trkpt>
			<trkpt lat="-27.975961" lon="153.072075">
				<ele>69</ele>
				<time>2015-05-07T00:21:17Z</time>
				<extensions>
				</extensions>
			</trkpt>
			<trkpt lat="-27.975931" lon="153.071862">
				<ele>68</ele>
				<time>2015-05-07T00:21:18Z</time>
				<extensions>
				</extensions>
			</trkpt>
			<trkpt lat="-27.975896" lon="153.071645">
				<ele>68</ele>
				<time>2015-05-07T00:21:19Z</time>
				<extensions>
				</extensions>
			</trkpt>
			<trkpt lat="-27.975866" lon="153.071439">
				<ele>67</ele>
				<time>2015-05-07T00:21:20Z</time>
				<extensions>
				</extensions>
			</trkpt>
			<trkpt lat="-27.975836" lon="153.071218">
				<ele>67</ele>
				<time>2015-05-07T00:21:21Z</time>
				<extensions>
				</extensions>
			</trkpt>
			<trkpt lat="-27.975806" lon="153.070997">
				<ele>69</ele>
				<time>2015-05-07T00:21:22Z</time>
				<extensions>
				</extensions>
			</trkpt>
			<trkpt lat="-27.975778" lon="153.070773">
				<ele>68</ele>
				<time>2015-05-07T00:21:23Z</time>
				<extensions>
				</extensions>
			</trkpt>
			<trkpt lat="-27.975744" lon="153.070559">
				<ele>68</ele>
				<time>2015-05-07T00:21:24Z</time>
				<extensions>
				</extensions>
			</trkpt>
			<trkpt lat="-27.975709" lon="153.070340">
				<ele>69</ele>
				<time>2015-05-07T00:21:25Z</time>
				<extensions>
				</extensions>
			</trkpt>
			<trkpt lat="-27.975683" lon="153.070135">
				<ele>69</ele>
				<time>2015-05-07T00:21:26Z</time>
				<extensions>
				</extensions>
			</trkpt>
			<trkpt lat="-27.975659" lon="153.069915">
				<ele>69</ele>
				<time>2015-05-07T00:21:27Z</time>
				<extensions>
				</extensions>
			</trkpt>
			<trkpt lat="-27.975620" lon="153.069695">
				<ele>70</ele>
				<time>2015-05-07T00:21:28Z</time>
				<extensions>
				</extensions>
			</trkpt>
			<trkpt lat="-27.975594" lon="153.069466">
				<ele>71</ele>
				<time>2015-05-07T00:21:29Z</time>
				<extensions>
				</extensions>
			</trkpt>
			<trkpt lat="-27.975564" lon="153.069231">
				<ele>72</ele>
				<time>2015-05-07T00:21:30Z</time>
				<extensions>
				</extensions>
			</trkpt>
			<trkpt lat="-27.975531" lon="153.069005">
				<ele>71</ele>
				<time>2015-05-07T00:21:31Z</time>
				<extensions>
				</extensions>
			</trkpt>
			<trkpt lat="-27.975501" lon="153.068764">
				<ele>72</ele>
				<time>2015-05-07T00:21:32Z</time>
				<extensions>
				</extensions>
			</trkpt>
			<trkpt lat="-27.975463" lon="153.068543">
				<ele>71</ele>
				<time>2015-05-07T00:21:33Z</time>
				<extensions>
				</extensions>
			</trkpt>
			<trkpt lat="-27.975438" lon="153.068322">
				<ele>73</ele>
				<time>2015-05-07T00:21:34Z</time>
				<extensions>
				</extensions>
			</trkpt>
			<trkpt lat="-27.975412" lon="153.068083">
				<ele>72</ele>
				<time>2015-05-07T00:21:35Z</time>
				<extensions>
				</extensions>
			</trkpt>
			<trkpt lat="-27.975381" lon="153.067869">
				<ele>71</ele>
				<time>2015-05-07T00:21:36Z</time>
				<extensions>
				</extensions>
			</trkpt>
			<trkpt lat="-27.975355" lon="153.067659">
				<ele>69</ele>
				<time>2015-05-07T00:21:37Z</time>
				<extensions>
				</extensions>
			</trkpt>
			<trkpt lat="-27.975305" lon="153.067286">
				<ele>68</ele>
				<time>2015-05-07T00:21:39Z</time>
				<extensions>
				</extensions>
			</trkpt>
			<trkpt lat="-27.975257" lon="153.066926">
				<ele>66</ele>
				<time>2015-05-07T00:21:41Z</time>
				<extensions>
				</extensions>
			</trkpt>
			<trkpt lat="-27.975214" lon="153.066613">
				<ele>64</ele>
				<time>2015-05-07T00:21:43Z</time>
				<extensions>
				</extensions>
			</trkpt>
			<trkpt lat="-27.975132" lon="153.066323">
				<ele>63</ele>
				<time>2015-05-07T00:21:45Z</time>
				<extensions>
				</extensions>
			</trkpt>
			<trkpt lat="-27.975029" lon="153.066099">
				<ele>61</ele>
				<time>2015-05-07T00:21:47Z</time>
				<extensions>
				</extensions>
			</trkpt>
			<trkpt lat="-27.974939" lon="153.065903">
				<ele>59</ele>
				<time>2015-05-07T00:21:49Z</time>
				<extensions>
				</extensions>
			</trkpt>
			<trkpt lat="-27.974915" lon="153.065661">
				<ele>58</ele>
				<time>2015-05-07T00:21:53Z</time>
				<extensions>
				</extensions>
			</trkpt>
			<trkpt lat="-27.974967" lon="153.065439">
				<ele>54</ele>
				<time>2015-05-07T00:21:57Z</time>
				<extensions>
				</extensions>
			</trkpt>
			<trkpt lat="-27.975073" lon="153.065268">
				<ele>52</ele>
				<time>2015-05-07T00:22:00Z</time>
				<extensions>
				</extensions>
			</trkpt>
			<trkpt lat="-27.975230" lon="153.065114">
				<ele>52</ele>
				<time>2015-05-07T00:22:03Z</time>
				<extensions>
				</extensions>
			</trkpt>
			<trkpt lat="-27.975386" lon="153.064911">
				<ele>56</ele>
				<time>2015-05-07T00:22:06Z</time>
				<extensions>
				</extensions>
			</trkpt>
			<trkpt lat="-27.975413" lon="153.064678">
				<ele>59</ele>
				<time>2015-05-07T00:22:08Z</time>
				<extensions>
				</extensions>
			</trkpt>
			<trkpt lat="-27.975259" lon="153.064458">
				<ele>61</ele>
				<time>2015-05-07T00:22:10Z</time>
				<extensions>
				</extensions>
			</trkpt>
			<trkpt lat="-27.975071" lon="153.064278">
				<ele>65</ele>
				<time>2015-05-07T00:22:12Z</time>
				<extensions>
				</extensions>
			</trkpt>
			<trkpt lat="-27.974911" lon="153.064038">
				<ele>68</ele>
				<time>2015-05-07T00:22:14Z</time>
				<extensions>
				</extensions>
			</trkpt>
			<trkpt lat="-27.974804" lon="153.063757">
				<ele>70</ele>
				<time>2015-05-07T00:22:16Z</time>
				<extensions>
				</extensions>
			</trkpt>
			<trkpt lat="-27.974703" lon="153.063437">
				<ele>72</ele>
				<time>2015-05-07T00:22:18Z</time>
				<extensions>
				</extensions>
			</trkpt>
			<trkpt lat="-27.974616" lon="153.063112">
				<ele>75</ele>
				<time>2015-05-07T00:22:20Z</time>
				<extensions>
				</extensions>
			</trkpt>
			<trkpt lat="-27.974520" lon="153.062799">
				<ele>78</ele>
				<time>2015-05-07T00:22:22Z</time>
				<extensions>
				</extensions>
			</trkpt>
			<trkpt lat="-27.974447" lon="153.062454">
				<ele>80</ele>
				<time>2015-05-07T00:22:24Z</time>
				<extensions>
				</extensions>
			</trkpt>
			<trkpt lat="-27.974366" lon="153.062088">
				<ele>83</ele>
				<time>2015-05-07T00:22:26Z</time>
				<extensions>
				</extensions>
			</trkpt>
			<trkpt lat="-27.974326" lon="153.061724">
				<ele>83</ele>
				<time>2015-05-07T00:22:28Z</time>
				<extensions>
				</extensions>
			</trkpt>
			<trkpt lat="-27.974310" lon="153.061341">
				<ele>82</ele>
				<time>2015-05-07T00:22:30Z</time>
				<extensions>
				</extensions>
			</trkpt>
			<trkpt lat="-27.974322" lon="153.061008">
				<ele>80</ele>
				<time>2015-05-07T00:22:32Z</time>
				<extensions>
				</extensions>
			</trkpt>
			<trkpt lat="-27.974335" lon="153.060724">
				<ele>77</ele>
				<time>2015-05-07T00:22:34Z</time>
				<extensions>
				</extensions>
			</trkpt>
			<trkpt lat="-27.974348" lon="153.060498">
				<ele>76</ele>
				<time>2015-05-07T00:22:36Z</time>
				<extensions>
				</extensions>
			</trkpt>
			<trkpt lat="-27.974357" lon="153.060251">
				<ele>74</ele>
				<time>2015-05-07T00:22:39Z</time>
				<extensions>
				</extensions>
			</trkpt>
			<trkpt lat="-27.974362" lon="153.060032">
				<ele>74</ele>
				<time>2015-05-07T00:22:46Z</time>
				<extensions>
				</extensions>
			</trkpt>
			<trkpt lat="-27.974512" lon="153.059838">
				<ele>78</ele>
				<time>2015-05-07T00:22:48Z</time>
				<extensions>
				</extensions>
			</trkpt>
			<trkpt lat="-27.974822" lon="153.059619">
				<ele>85</ele>
				<time>2015-05-07T00:22:50Z</time>
				<extensions>
				</extensions>
			</trkpt>
			<trkpt lat="-27.974996" lon="153.059511">
				<ele>87</ele>
				<time>2015-05-07T00:22:51Z</time>
				<extensions>
				</extensions>
			</trkpt>
			<trkpt lat="-27.975170" lon="153.059422">
				<ele>87</ele>
				<time>2015-05-07T00:22:52Z</time>
				<extensions>
				</extensions>
			</trkpt>
			<trkpt lat="-27.975354" lon="153.059339">
				<ele>86</ele>
				<time>2015-05-07T00:22:53Z</time>
				<extensions>
				</extensions>
			</trkpt>
			<trkpt lat="-27.975681" lon="153.059203">
				<ele>81</ele>
				<time>2015-05-07T00:22:55Z</time>
				<extensions>
				</extensions>
			</trkpt>
			<trkpt lat="-27.975870" lon="153.059118">
				<ele>80</ele>
				<time>2015-05-07T00:22:56Z</time>
				<extensions>
				</extensions>
			</trkpt>
			<trkpt lat="-27.976050" lon="153.059051">
				<ele>78</ele>
				<time>2015-05-07T00:22:57Z</time>
				<extensions>
				</extensions>
			</trkpt>
			<trkpt lat="-27.976225" lon="153.058987">
				<ele>77</ele>
				<time>2015-05-07T00:22:58Z</time>
				<extensions>
				</extensions>
			</trkpt>
			<trkpt lat="-27.976427" lon="153.058885">
				<ele>76</ele>
				<time>2015-05-07T00:22:59Z</time>
				<extensions>
				</extensions>
			</trkpt>
			<trkpt lat="-27.976776" lon="153.058753">
				<ele>73</ele>
				<time>2015-05-07T00:23:01Z</time>
				<extensions>
				</extensions>
			</trkpt>
			<trkpt lat="-27.976955" lon="153.058686">
				<ele>73</ele>
				<time>2015-05-07T00:23:02Z</time>
				<extensions>
				</extensions>
			</trkpt>
			<trkpt lat="-27.977159" lon="153.058605">
				<ele>72</ele>
				<time>2015-05-07T00:23:03Z</time>
				<extensions>
				</extensions>
			</trkpt>
			<trkpt lat="-27.977355" lon="153.058536">
				<ele>74</ele>
				<time>2015-05-07T00:23:04Z</time>
				<extensions>
				</extensions>
			</trkpt>
			<trkpt lat="-27.977552" lon="153.058434">
				<ele>73</ele>
				<time>2015-05-07T00:23:05Z</time>
				<extensions>
				</extensions>
			</trkpt>
			<trkpt lat="-27.977740" lon="153.058348">
				<ele>73</ele>
				<time>2015-05-07T00:23:06Z</time>
				<extensions>
				</extensions>
			</trkpt>
			<trkpt lat="-27.977933" lon="153.058276">
				<ele>73</ele>
				<time>2015-05-07T00:23:07Z</time>
				<extensions>
				</extensions>
			</trkpt>
			<trkpt lat="-27.978122" lon="153.058199">
				<ele>75</ele>
				<time>2015-05-07T00:23:08Z</time>
				<extensions>
				</extensions>
			</trkpt>
			<trkpt lat="-27.978332" lon="153.058134">
				<ele>75</ele>
				<time>2015-05-07T00:23:09Z</time>
				<extensions>
				</extensions>
			</trkpt>
			<trkpt lat="-27.978510" lon="153.058058">
				<ele>73</ele>
				<time>2015-05-07T00:23:10Z</time>
				<extensions>
				</extensions>
			</trkpt>
			<trkpt lat="-27.978698" lon="153.057984">
				<ele>74</ele>
				<time>2015-05-07T00:23:11Z</time>
				<extensions>
				</extensions>
			</trkpt>
			<trkpt lat="-27.978891" lon="153.057915">
				<ele>74</ele>
				<time>2015-05-07T00:23:12Z</time>
				<extensions>
				</extensions>
			</trkpt>
			<trkpt lat="-27.979091" lon="153.057836">
				<ele>74</ele>
				<time>2015-05-07T00:23:13Z</time>
				<extensions>
				</extensions>
			</trkpt>
			<trkpt lat="-27.979284" lon="153.057759">
				<ele>75</ele>
				<time>2015-05-07T00:23:14Z</time>
				<extensions>
				</extensions>
			</trkpt>
			<trkpt lat="-27.979463" lon="153.057679">
				<ele>74</ele>
				<time>2015-05-07T00:23:15Z</time>
				<extensions>
				</extensions>
			</trkpt>
			<trkpt lat="-27.979657" lon="153.057601">
				<ele>74</ele>
				<time>2015-05-07T00:23:16Z</time>
				<extensions>
				</extensions>
			</trkpt>
			<trkpt lat="-27.979853" lon="153.057519">
				<ele>75</ele>
				<time>2015-05-07T00:23:17Z</time>
				<extensions>
				</extensions>
			</trkpt>
			<trkpt lat="-27.980059" lon="153.057435">
				<ele>75</ele>
				<time>2015-05-07T00:23:18Z</time>
				<extensions>
				</extensions>
			</trkpt>
			<trkpt lat="-27.980257" lon="153.057355">
				<ele>75</ele>
				<time>2015-05-07T00:23:19Z</time>
				<extensions>
				</extensions>
			</trkpt>
			<trkpt lat="-27.980463" lon="153.057267">
				<ele>75</ele>
				<time>2015-05-07T00:23:20Z</time>
				<extensions>
				</extensions>
			</trkpt>
			<trkpt lat="-27.980664" lon="153.057183">
				<ele>75</ele>
				<time>2015-05-07T00:23:21Z</time>
				<extensions>
				</extensions>
			</trkpt>
			<trkpt lat="-27.980872" lon="153.057097">
				<ele>75</ele>
				<time>2015-05-07T00:23:22Z</time>
				<extensions>
				</extensions>
			</trkpt>
			<trkpt lat="-27.981081" lon="153.057012">
				<ele>76</ele>
				<time>2015-05-07T00:23:23Z</time>
				<extensions>
				</extensions>
			</trkpt>
			<trkpt lat="-27.981278" lon="153.056942">
				<ele>74</ele>
				<time>2015-05-07T00:23:24Z</time>
				<extensions>
				</extensions>
			</trkpt>
			<trkpt lat="-27.981471" lon="153.056862">
				<ele>76</ele>
				<time>2015-05-07T00:23:25Z</time>
				<extensions>
				</extensions>
			</trkpt>
			<trkpt lat="-27.981673" lon="153.056777">
				<ele>75</ele>
				<time>2015-05-07T00:23:26Z</time>
				<extensions>
				</extensions>
			</trkpt>
			<trkpt lat="-27.981872" lon="153.056695">
				<ele>76</ele>
				<time>2015-05-07T00:23:27Z</time>
				<extensions>
				</extensions>
			</trkpt>
			<trkpt lat="-27.982079" lon="153.056603">
				<ele>77</ele>
				<time>2015-05-07T00:23:28Z</time>
				<extensions>
				</extensions>
			</trkpt>
			<trkpt lat="-27.982271" lon="153.056523">
				<ele>75</ele>
				<time>2015-05-07T00:23:29Z</time>
				<extensions>
				</extensions>
			</trkpt>
			<trkpt lat="-27.982483" lon="153.056443">
				<ele>76</ele>
				<time>2015-05-07T00:23:30Z</time>
				<extensions>
				</extensions>
			</trkpt>
			<trkpt lat="-27.982685" lon="153.056342">
				<ele>77</ele>
				<time>2015-05-07T00:23:31Z</time>
				<extensions>
				</extensions>
			</trkpt>
			<trkpt lat="-27.982888" lon="153.056257">
				<ele>79</ele>
				<time>2015-05-07T00:23:32Z</time>
				<extensions>
				</extensions>
			</trkpt>
			<trkpt lat="-27.983096" lon="153.056170">
				<ele>79</ele>
				<time>2015-05-07T00:23:33Z</time>
				<extensions>
				</extensions>
			</trkpt>
			<trkpt lat="-27.983300" lon="153.056086">
				<ele>78</ele>
				<time>2015-05-07T00:23:34Z</time>
				<extensions>
				</extensions>
			</trkpt>
			<trkpt lat="-27.983512" lon="153.056003">
				<ele>79</ele>
				<time>2015-05-07T00:23:35Z</time>
				<extensions>
				</extensions>
			</trkpt>
			<trkpt lat="-27.983732" lon="153.055919">
				<ele>78</ele>
				<time>2015-05-07T00:23:36Z</time>
				<extensions>
				</extensions>
			</trkpt>
			<trkpt lat="-27.983944" lon="153.055836">
				<ele>77</ele>
				<time>2015-05-07T00:23:37Z</time>
				<extensions>
				</extensions>
			</trkpt>
			<trkpt lat="-27.984154" lon="153.055753">
				<ele>77</ele>
				<time>2015-05-07T00:23:38Z</time>
				<extensions>
				</extensions>
			</trkpt>
			<trkpt lat="-27.984356" lon="153.055668">
				<ele>75</ele>
				<time>2015-05-07T00:23:39Z</time>
				<extensions>
				</extensions>
			</trkpt>
			<trkpt lat="-27.984562" lon="153.055589">
				<ele>75</ele>
				<time>2015-05-07T00:23:40Z</time>
				<extensions>
				</extensions>
			</trkpt>
			<trkpt lat="-27.984764" lon="153.055507">
				<ele>75</ele>
				<time>2015-05-07T00:23:41Z</time>
				<extensions>
				</extensions>
			</trkpt>
			<trkpt lat="-27.984960" lon="153.055421">
				<ele>74</ele>
				<time>2015-05-07T00:23:42Z</time>
				<extensions>
				</extensions>
			</trkpt>
			<trkpt lat="-27.985146" lon="153.055343">
				<ele>73</ele>
				<time>2015-05-07T00:23:43Z</time>
				<extensions>
				</extensions>
			</trkpt>
			<trkpt lat="-27.985324" lon="153.055257">
				<ele>72</ele>
				<time>2015-05-07T00:23:44Z</time>
				<extensions>
				</extensions>
			</trkpt>
			<trkpt lat="-27.985513" lon="153.055173">
				<ele>73</ele>
				<time>2015-05-07T00:23:45Z</time>
				<extensions>
				</extensions>
			</trkpt>
			<trkpt lat="-27.985717" lon="153.055101">
				<ele>73</ele>
				<time>2015-05-07T00:23:46Z</time>
				<extensions>
				</extensions>
			</trkpt>
			<trkpt lat="-27.985915" lon="153.055033">
				<ele>73</ele>
				<time>2015-05-07T00:23:47Z</time>
				<extensions>
				</extensions>
			</trkpt>
			<trkpt lat="-27.986108" lon="153.054944">
				<ele>74</ele>
				<time>2015-05-07T00:23:48Z</time>
				<extensions>
				</extensions>
			</trkpt>
			<trkpt lat="-27.986303" lon="153.054858">
				<ele>73</ele>
				<time>2015-05-07T00:23:49Z</time>
				<extensions>
				</extensions>
			</trkpt>
			<trkpt lat="-27.986522" lon="153.054738">
				<ele>74</ele>
				<time>2015-05-07T00:23:50Z</time>
				<extensions>
				</extensions>
			</trkpt>
			<trkpt lat="-27.986715" lon="153.054642">
				<ele>75</ele>
				<time>2015-05-07T00:23:51Z</time>
				<extensions>
				</extensions>
			</trkpt>
			<trkpt lat="-27.986889" lon="153.054531">
				<ele>75</ele>
				<time>2015-05-07T00:23:52Z</time>
				<extensions>
				</extensions>
			</trkpt>
			<trkpt lat="-27.987066" lon="153.054409">
				<ele>76</ele>
				<time>2015-05-07T00:23:53Z</time>
				<extensions>
				</extensions>
			</trkpt>
			<trkpt lat="-27.987253" lon="153.054296">
				<ele>77</ele>
				<time>2015-05-07T00:23:54Z</time>
				<extensions>
				</extensions>
			</trkpt>
			<trkpt lat="-27.987448" lon="153.054157">
				<ele>78</ele>
				<time>2015-05-07T00:23:55Z</time>
				<extensions>
				</extensions>
			</trkpt>
			<trkpt lat="-27.987605" lon="153.054039">
				<ele>77</ele>
				<time>2015-05-07T00:23:56Z</time>
				<extensions>
				</extensions>
			</trkpt>
			<trkpt lat="-27.987765" lon="153.053905">
				<ele>78</ele>
				<time>2015-05-07T00:23:57Z</time>
				<extensions>
				</extensions>
			</trkpt>
			<trkpt lat="-27.987921" lon="153.053721">
				<ele>79</ele>
				<time>2015-05-07T00:23:58Z</time>
				<extensions>
				</extensions>
			</trkpt>
			<trkpt lat="-27.988063" lon="153.053541">
				<ele>81</ele>
				<time>2015-05-07T00:23:59Z</time>
				<extensions>
				</extensions>
			</trkpt>
			<trkpt lat="-27.988189" lon="153.053365">
				<ele>80</ele>
				<time>2015-05-07T00:24:00Z</time>
				<extensions>
				</extensions>
			</trkpt>
			<trkpt lat="-27.988332" lon="153.053192">
				<ele>81</ele>
				<time>2015-05-07T00:24:01Z</time>
				<extensions>
				</extensions>
			</trkpt>
			<trkpt lat="-27.988487" lon="153.053003">
				<ele>84</ele>
				<time>2015-05-07T00:24:02Z</time>
				<extensions>
				</extensions>
			</trkpt>
			<trkpt lat="-27.988603" lon="153.052802">
				<ele>84</ele>
				<time>2015-05-07T00:24:03Z</time>
				<extensions>
				</extensions>
			</trkpt>
			<trkpt lat="-27.988742" lon="153.052604">
				<ele>83</ele>
				<time>2015-05-07T00:24:04Z</time>
				<extensions>
				</extensions>
			</trkpt>
			<trkpt lat="-27.988863" lon="153.052412">
				<ele>82</ele>
				<time>2015-05-07T00:24:05Z</time>
				<extensions>
				</extensions>
			</trkpt>
			<trkpt lat="-27.988992" lon="153.052211">
				<ele>83</ele>
				<time>2015-05-07T00:24:06Z</time>
				<extensions>
				</extensions>
			</trkpt>
			<trkpt lat="-27.989113" lon="153.052004">
				<ele>82</ele>
				<time>2015-05-07T00:24:07Z</time>
				<extensions>
				</extensions>
			</trkpt>
			<trkpt lat="-27.989192" lon="153.051784">
				<ele>83</ele>
				<time>2015-05-07T00:24:08Z</time>
				<extensions>
				</extensions>
			</trkpt>
			<trkpt lat="-27.989274" lon="153.051567">
				<ele>84</ele>
				<time>2015-05-07T00:24:09Z</time>
				<extensions>
				</extensions>
			</trkpt>
			<trkpt lat="-27.989373" lon="153.051343">
				<ele>84</ele>
				<time>2015-05-07T00:24:10Z</time>
				<extensions>
				</extensions>
			</trkpt>
			<trkpt lat="-27.989458" lon="153.051115">
				<ele>84</ele>
				<time>2015-05-07T00:24:11Z</time>
				<extensions>
				</extensions>
			</trkpt>
			<trkpt lat="-27.989539" lon="153.050868">
				<ele>83</ele>
				<time>2015-05-07T00:24:12Z</time>
				<extensions>
				</extensions>
			</trkpt>
			<trkpt lat="-27.989606" lon="153.050610">
				<ele>85</ele>
				<time>2015-05-07T00:24:13Z</time>
				<extensions>
				</extensions>
			</trkpt>
			<trkpt lat="-27.989641" lon="153.050382">
				<ele>86</ele>
				<time>2015-05-07T00:24:14Z</time>
				<extensions>
				</extensions>
			</trkpt>
			<trkpt lat="-27.989667" lon="153.050151">
				<ele>85</ele>
				<time>2015-05-07T00:24:15Z</time>
				<extensions>
				</extensions>
			</trkpt>
			<trkpt lat="-27.989720" lon="153.049911">
				<ele>84</ele>
				<time>2015-05-07T00:24:16Z</time>
				<extensions>
				</extensions>
			</trkpt>
			<trkpt lat="-27.989781" lon="153.049670">
				<ele>84</ele>
				<time>2015-05-07T00:24:17Z</time>
				<extensions>
				</extensions>
			</trkpt>
			<trkpt lat="-27.989839" lon="153.049427">
				<ele>84</ele>
				<time>2015-05-07T00:24:18Z</time>
				<extensions>
				</extensions>
			</trkpt>
			<trkpt lat="-27.989901" lon="153.049176">
				<ele>83</ele>
				<time>2015-05-07T00:24:19Z</time>
				<extensions>
				</extensions>
			</trkpt>
			<trkpt lat="-27.989944" lon="153.048935">
				<ele>82</ele>
				<time>2015-05-07T00:24:20Z</time>
				<extensions>
				</extensions>
			</trkpt>
			<trkpt lat="-27.989987" lon="153.048698">
				<ele>82</ele>
				<time>2015-05-07T00:24:21Z</time>
				<extensions>
				</extensions>
			</trkpt>
			<trkpt lat="-27.990030" lon="153.048458">
				<ele>82</ele>
				<time>2015-05-07T00:24:22Z</time>
				<extensions>
				</extensions>
			</trkpt>
			<trkpt lat="-27.990070" lon="153.048241">
				<ele>83</ele>
				<time>2015-05-07T00:24:23Z</time>
				<extensions>
				</extensions>
			</trkpt>
			<trkpt lat="-27.990123" lon="153.047841">
				<ele>82</ele>
				<time>2015-05-07T00:24:25Z</time>
				<extensions>
				</extensions>
			</trkpt>
			<trkpt lat="-27.990168" lon="153.047615">
				<ele>82</ele>
				<time>2015-05-07T00:24:26Z</time>
				<extensions>
				</extensions>
			</trkpt>
			<trkpt lat="-27.990209" lon="153.047390">
				<ele>82</ele>
				<time>2015-05-07T00:24:27Z</time>
				<extensions>
				</extensions>
			</trkpt>
			<trkpt lat="-27.990249" lon="153.047142">
				<ele>82</ele>
				<time>2015-05-07T00:24:28Z</time>
				<extensions>
				</extensions>
			</trkpt>
			<trkpt lat="-27.990315" lon="153.046889">
				<ele>85</ele>
				<time>2015-05-07T00:24:29Z</time>
				<extensions>
				</extensions>
			</trkpt>
			<trkpt lat="-27.990358" lon="153.046637">
				<ele>87</ele>
				<time>2015-05-07T00:24:30Z</time>
				<extensions>
				</extensions>
			</trkpt>
			<trkpt lat="-27.990416" lon="153.046355">
				<ele>87</ele>
				<time>2015-05-07T00:24:31Z</time>
				<extensions>
				</extensions>
			</trkpt>
			<trkpt lat="-27.990460" lon="153.046112">
				<ele>85</ele>
				<time>2015-05-07T00:24:32Z</time>
				<extensions>
				</extensions>
			</trkpt>
			<trkpt lat="-27.990505" lon="153.045856">
				<ele>85</ele>
				<time>2015-05-07T00:24:33Z</time>
				<extensions>
				</extensions>
			</trkpt>
			<trkpt lat="-27.990546" lon="153.045628">
				<ele>86</ele>
				<time>2015-05-07T00:24:34Z</time>
				<extensions>
				</extensions>
			</trkpt>
			<trkpt lat="-27.990621" lon="153.045201">
				<ele>84</ele>
				<time>2015-05-07T00:24:36Z</time>
				<extensions>
				</extensions>
			</trkpt>
			<trkpt lat="-27.990659" lon="153.044974">
				<ele>84</ele>
				<time>2015-05-07T00:24:37Z</time>
				<extensions>
				</extensions>
			</trkpt>
			<trkpt lat="-27.990694" lon="153.044755">
				<ele>86</ele>
				<time>2015-05-07T00:24:38Z</time>
				<extensions>
				</extensions>
			</trkpt>
			<trkpt lat="-27.990710" lon="153.044354">
				<ele>88</ele>
				<time>2015-05-07T00:24:40Z</time>
				<extensions>
				</extensions>
			</trkpt>
			<trkpt lat="-27.990709" lon="153.044054">
				<ele>91</ele>
				<time>2015-05-07T00:24:41Z</time>
				<extensions>
				</extensions>
			</trkpt>
			<trkpt lat="-27.990712" lon="153.043776">
				<ele>94</ele>
				<time>2015-05-07T00:24:42Z</time>
				<extensions>
				</extensions>
			</trkpt>
			<trkpt lat="-27.990699" lon="153.043508">
				<ele>94</ele>
				<time>2015-05-07T00:24:43Z</time>
				<extensions>
				</extensions>
			</trkpt>
			<trkpt lat="-27.990686" lon="153.043241">
				<ele>95</ele>
				<time>2015-05-07T00:24:44Z</time>
				<extensions>
				</extensions>
			</trkpt>
			<trkpt lat="-27.990670" lon="153.042965">
				<ele>94</ele>
				<time>2015-05-07T00:24:45Z</time>
				<extensions>
				</extensions>
			</trkpt>
			<trkpt lat="-27.990623" lon="153.042742">
				<ele>92</ele>
				<time>2015-05-07T00:24:46Z</time>
				<extensions>
				</extensions>
			</trkpt>
			<trkpt lat="-27.990597" lon="153.042499">
				<ele>94</ele>
				<time>2015-05-07T00:24:47Z</time>
				<extensions>
				</extensions>
			</trkpt>
			<trkpt lat="-27.990554" lon="153.042270">
				<ele>92</ele>
				<time>2015-05-07T00:24:48Z</time>
				<extensions>
				</extensions>
			</trkpt>
			<trkpt lat="-27.990520" lon="153.042033">
				<ele>90</ele>
				<time>2015-05-07T00:24:49Z</time>
				<extensions>
				</extensions>
			</trkpt>
			<trkpt lat="-27.990488" lon="153.041781">
				<ele>91</ele>
				<time>2015-05-07T00:24:50Z</time>
				<extensions>
				</extensions>
			</trkpt>
			<trkpt lat="-27.990469" lon="153.041504">
				<ele>93</ele>
				<time>2015-05-07T00:24:51Z</time>
				<extensions>
				</extensions>
			</trkpt>
			<trkpt lat="-27.990456" lon="153.041272">
				<ele>94</ele>
				<time>2015-05-07T00:24:52Z</time>
				<extensions>
				</extensions>
			</trkpt>
			<trkpt lat="-27.990436" lon="153.041026">
				<ele>94</ele>
				<time>2015-05-07T00:24:53Z</time>
				<extensions>
				</extensions>
			</trkpt>
			<trkpt lat="-27.990412" lon="153.040804">
				<ele>95</ele>
				<time>2015-05-07T00:24:54Z</time>
				<extensions>
				</extensions>
			</trkpt>
			<trkpt lat="-27.990395" lon="153.040561">
				<ele>95</ele>
				<time>2015-05-07T00:24:55Z</time>
				<extensions>
				</extensions>
			</trkpt>
			<trkpt lat="-27.990379" lon="153.040327">
				<ele>94</ele>
				<time>2015-05-07T00:24:56Z</time>
				<extensions>
				</extensions>
			</trkpt>
			<trkpt lat="-27.990364" lon="153.040093">
				<ele>96</ele>
				<time>2015-05-07T00:24:57Z</time>
				<extensions>
				</extensions>
			</trkpt>
			<trkpt lat="-27.990379" lon="153.039867">
				<ele>96</ele>
				<time>2015-05-07T00:24:58Z</time>
				<extensions>
				</extensions>
			</trkpt>
			<trkpt lat="-27.990381" lon="153.039638">
				<ele>98</ele>
				<time>2015-05-07T00:24:59Z</time>
				<extensions>
				</extensions>
			</trkpt>
			<trkpt lat="-27.990397" lon="153.039410">
				<ele>101</ele>
				<time>2015-05-07T00:25:00Z</time>
				<extensions>
				</extensions>
			</trkpt>
			<trkpt lat="-27.990424" lon="153.039173">
				<ele>100</ele>
				<time>2015-05-07T00:25:01Z</time>
				<extensions>
				</extensions>
			</trkpt>
			<trkpt lat="-27.990442" lon="153.038950">
				<ele>99</ele>
				<time>2015-05-07T00:25:02Z</time>
				<extensions>
				</extensions>
			</trkpt>
			<trkpt lat="-27.990465" lon="153.038726">
				<ele>99</ele>
				<time>2015-05-07T00:25:03Z</time>
				<extensions>
				</extensions>
			</trkpt>
			<trkpt lat="-27.990530" lon="153.038484">
				<ele>104</ele>
				<time>2015-05-07T00:25:04Z</time>
				<extensions>
				</extensions>
			</trkpt>
			<trkpt lat="-27.990613" lon="153.038255">
				<ele>104</ele>
				<time>2015-05-07T00:25:05Z</time>
				<extensions>
				</extensions>
			</trkpt>
			<trkpt lat="-27.990716" lon="153.038003">
				<ele>105</ele>
				<time>2015-05-07T00:25:06Z</time>
				<extensions>
				</extensions>
			</trkpt>
			<trkpt lat="-27.990797" lon="153.037787">
				<ele>104</ele>
				<time>2015-05-07T00:25:07Z</time>
				<extensions>
				</extensions>
			</trkpt>
			<trkpt lat="-27.990869" lon="153.037565">
				<ele>105</ele>
				<time>2015-05-07T00:25:08Z</time>
				<extensions>
				</extensions>
			</trkpt>
			<trkpt lat="-27.990945" lon="153.037337">
				<ele>104</ele>
				<time>2015-05-07T00:25:09Z</time>
				<extensions>
				</extensions>
			</trkpt>
			<trkpt lat="-27.991018" lon="153.037119">
				<ele>102</ele>
				<time>2015-05-07T00:25:10Z</time>
				<extensions>
				</extensions>
			</trkpt>
			<trkpt lat="-27.991092" lon="153.036895">
				<ele>104</ele>
				<time>2015-05-07T00:25:11Z</time>
				<extensions>
				</extensions>
			</trkpt>
			<trkpt lat="-27.991179" lon="153.036670">
				<ele>105</ele>
				<time>2015-05-07T00:25:12Z</time>
				<extensions>
				</extensions>
			</trkpt>
			<trkpt lat="-27.991252" lon="153.036430">
				<ele>106</ele>
				<time>2015-05-07T00:25:13Z</time>
				<extensions>
				</extensions>
			</trkpt>
			<trkpt lat="-27.991310" lon="153.036192">
				<ele>106</ele>
				<time>2015-05-07T00:25:14Z</time>
				<extensions>
				</extensions>
			</trkpt>
			<trkpt lat="-27.991384" lon="153.035953">
				<ele>108</ele>
				<time>2015-05-07T00:25:15Z</time>
				<extensions>
				</extensions>
			</trkpt>
			<trkpt lat="-27.991463" lon="153.035705">
				<ele>108</ele>
				<time>2015-05-07T00:25:16Z</time>
				<extensions>
				</extensions>
			</trkpt>
			<trkpt lat="-27.991526" lon="153.035463">
				<ele>110</ele>
				<time>2015-05-07T00:25:17Z</time>
				<extensions>
				</extensions>
			</trkpt>
			<trkpt lat="-27.991591" lon="153.035213">
				<ele>110</ele>
				<time>2015-05-07T00:25:18Z</time>
				<extensions>
				</extensions>
			</trkpt>
			<trkpt lat="-27.991640" lon="153.034977">
				<ele>110</ele>
				<time>2015-05-07T00:25:19Z</time>
				<extensions>
				</extensions>
			</trkpt>
			<trkpt lat="-27.991672" lon="153.034764">
				<ele>111</ele>
				<time>2015-05-07T00:25:20Z</time>
				<extensions>
				</extensions>
			</trkpt>
			<trkpt lat="-27.991738" lon="153.034512">
				<ele>111</ele>
				<time>2015-05-07T00:25:21Z</time>
				<extensions>
				</extensions>
			</trkpt>
			<trkpt lat="-27.991814" lon="153.034274">
				<ele>112</ele>
				<time>2015-05-07T00:25:22Z</time>
				<extensions>
				</extensions>
			</trkpt>
			<trkpt lat="-27.991875" lon="153.034024">
				<ele>112</ele>
				<time>2015-05-07T00:25:23Z</time>
				<extensions>
				</extensions>
			</trkpt>
			<trkpt lat="-27.991930" lon="153.033796">
				<ele>113</ele>
				<time>2015-05-07T00:25:24Z</time>
				<extensions>
				</extensions>
			</trkpt>
			<trkpt lat="-27.991988" lon="153.033551">
				<ele>113</ele>
				<time>2015-05-07T00:25:25Z</time>
				<extensions>
				</extensions>
			</trkpt>
			<trkpt lat="-27.992044" lon="153.033318">
				<ele>114</ele>
				<time>2015-05-07T00:25:26Z</time>
				<extensions>
				</extensions>
			</trkpt>
			<trkpt lat="-27.992140" lon="153.032900">
				<ele>116</ele>
				<time>2015-05-07T00:25:28Z</time>
				<extensions>
				</extensions>
			</trkpt>
			<trkpt lat="-27.992181" lon="153.032670">
				<ele>117</ele>
				<time>2015-05-07T00:25:29Z</time>
				<extensions>
				</extensions>
			</trkpt>
			<trkpt lat="-27.992218" lon="153.032433">
				<ele>118</ele>
				<time>2015-05-07T00:25:30Z</time>
				<extensions>
				</extensions>
			</trkpt>
			<trkpt lat="-27.992248" lon="153.032196">
				<ele>118</ele>
				<time>2015-05-07T00:25:31Z</time>
				<extensions>
				</extensions>
			</trkpt>
			<trkpt lat="-27.992275" lon="153.031967">
				<ele>120</ele>
				<time>2015-05-07T00:25:32Z</time>
				<extensions>
				</extensions>
			</trkpt>
			<trkpt lat="-27.992298" lon="153.031714">
				<ele>121</ele>
				<time>2015-05-07T00:25:33Z</time>
				<extensions>
				</extensions>
			</trkpt>
			<trkpt lat="-27.992307" lon="153.031465">
				<ele>122</ele>
				<time>2015-05-07T00:25:34Z</time>
				<extensions>
				</extensions>
			</trkpt>
			<trkpt lat="-27.992304" lon="153.031191">
				<ele>123</ele>
				<time>2015-05-07T00:25:35Z</time>
				<extensions>
				</extensions>
			</trkpt>
			<trkpt lat="-27.992291" lon="153.030923">
				<ele>127</ele>
				<time>2015-05-07T00:25:36Z</time>
				<extensions>
				</extensions>
			</trkpt>
			<trkpt lat="-27.992273" lon="153.030610">
				<ele>128</ele>
				<time>2015-05-07T00:25:37Z</time>
				<extensions>
				</extensions>
			</trkpt>
			<trkpt lat="-27.992257" lon="153.030360">
				<ele>129</ele>
				<time>2015-05-07T00:25:38Z</time>
				<extensions>
				</extensions>
			</trkpt>
			<trkpt lat="-27.992241" lon="153.030111">
				<ele>129</ele>
				<time>2015-05-07T00:25:39Z</time>
				<extensions>
				</extensions>
			</trkpt>
			<trkpt lat="-27.992227" lon="153.029863">
				<ele>129</ele>
				<time>2015-05-07T00:25:40Z</time>
				<extensions>
				</extensions>
			</trkpt>
			<trkpt lat="-27.992213" lon="153.029599">
				<ele>132</ele>
				<time>2015-05-07T00:25:41Z</time>
				<extensions>
				</extensions>
			</trkpt>
			<trkpt lat="-27.992200" lon="153.029361">
				<ele>134</ele>
				<time>2015-05-07T00:25:42Z</time>
				<extensions>
				</extensions>
			</trkpt>
			<trkpt lat="-27.992184" lon="153.029098">
				<ele>134</ele>
				<time>2015-05-07T00:25:43Z</time>
				<extensions>
				</extensions>
			</trkpt>
			<trkpt lat="-27.992168" lon="153.028843">
				<ele>135</ele>
				<time>2015-05-07T00:25:44Z</time>
				<extensions>
				</extensions>
			</trkpt>
			<trkpt lat="-27.992147" lon="153.028588">
				<ele>138</ele>
				<time>2015-05-07T00:25:45Z</time>
				<extensions>
				</extensions>
			</trkpt>
			<trkpt lat="-27.992116" lon="153.028353">
				<ele>138</ele>
				<time>2015-05-07T00:25:46Z</time>
				<extensions>
				</extensions>
			</trkpt>
			<trkpt lat="-27.992075" lon="153.028103">
				<ele>140</ele>
				<time>2015-05-07T00:25:47Z</time>
				<extensions>
				</extensions>
			</trkpt>
			<trkpt lat="-27.992029" lon="153.027855">
				<ele>140</ele>
				<time>2015-05-07T00:25:48Z</time>
				<extensions>
				</extensions>
			</trkpt>
			<trkpt lat="-27.991980" lon="153.027605">
				<ele>141</ele>
				<time>2015-05-07T00:25:49Z</time>
				<extensions>
				</extensions>
			</trkpt>
			<trkpt lat="-27.991931" lon="153.027374">
				<ele>143</ele>
				<time>2015-05-07T00:25:50Z</time>
				<extensions>
				</extensions>
			</trkpt>
			<trkpt lat="-27.991880" lon="153.027136">
				<ele>143</ele>
				<time>2015-05-07T00:25:51Z</time>
				<extensions>
				</extensions>
			</trkpt>
			<trkpt lat="-27.991836" lon="153.026919">
				<ele>144</ele>
				<time>2015-05-07T00:25:52Z</time>
				<extensions>
				</extensions>
			</trkpt>
			<trkpt lat="-27.991796" lon="153.026694">
				<ele>144</ele>
				<time>2015-05-07T00:25:53Z</time>
				<extensions>
				</extensions>
			</trkpt>
			<trkpt lat="-27.991745" lon="153.026481">
				<ele>144</ele>
				<time>2015-05-07T00:25:54Z</time>
				<extensions>
				</extensions>
			</trkpt>
			<trkpt lat="-27.991711" lon="153.026270">
				<ele>143</ele>
				<time>2015-05-07T00:25:55Z</time>
				<extensions>
				</extensions>
			</trkpt>
			<trkpt lat="-27.991688" lon="153.026041">
				<ele>143</ele>
				<time>2015-05-07T00:25:56Z</time>
				<extensions>
				</extensions>
			</trkpt>
			<trkpt lat="-27.991672" lon="153.025826">
				<ele>142</ele>
				<time>2015-05-07T00:25:57Z</time>
				<extensions>
				</extensions>
			</trkpt>
			<trkpt lat="-27.991660" lon="153.025593">
				<ele>140</ele>
				<time>2015-05-07T00:25:58Z</time>
				<extensions>
				</extensions>
			</trkpt>
			<trkpt lat="-27.991654" lon="153.025362">
				<ele>140</ele>
				<time>2015-05-07T00:25:59Z</time>
				<extensions>
				</extensions>
			</trkpt>
			<trkpt lat="-27.991682" lon="153.025127">
				<ele>139</ele>
				<time>2015-05-07T00:26:00Z</time>
				<extensions>
				</extensions>
			</trkpt>
			<trkpt lat="-27.991701" lon="153.024892">
				<ele>137</ele>
				<time>2015-05-07T00:26:01Z</time>
				<extensions>
				</extensions>
			</trkpt>
			<trkpt lat="-27.991719" lon="153.024667">
				<ele>134</ele>
				<time>2015-05-07T00:26:02Z</time>
				<extensions>
				</extensions>
			</trkpt>
			<trkpt lat="-27.991740" lon="153.024442">
				<ele>133</ele>
				<time>2015-05-07T00:26:03Z</time>
				<extensions>
				</extensions>
			</trkpt>
			<trkpt lat="-27.991786" lon="153.024205">
				<ele>132</ele>
				<time>2015-05-07T00:26:04Z</time>
				<extensions>
				</extensions>
			</trkpt>
			<trkpt lat="-27.991796" lon="153.023977">
				<ele>131</ele>
				<time>2015-05-07T00:26:05Z</time>
				<extensions>
				</extensions>
			</trkpt>
			<trkpt lat="-27.991847" lon="153.023707">
				<ele>128</ele>
				<time>2015-05-07T00:26:06Z</time>
				<extensions>
				</extensions>
			</trkpt>
			<trkpt lat="-27.991893" lon="153.023486">
				<ele>127</ele>
				<time>2015-05-07T00:26:07Z</time>
				<extensions>
				</extensions>
			</trkpt>
			<trkpt lat="-27.991925" lon="153.023260">
				<ele>125</ele>
				<time>2015-05-07T00:26:08Z</time>
				<extensions>
				</extensions>
			</trkpt>
			<trkpt lat="-27.991950" lon="153.023028">
				<ele>124</ele>
				<time>2015-05-07T00:26:09Z</time>
				<extensions>
				</extensions>
			</trkpt>
			<trkpt lat="-27.991969" lon="153.022806">
				<ele>121</ele>
				<time>2015-05-07T00:26:10Z</time>
				<extensions>
				</extensions>
			</trkpt>
			<trkpt lat="-27.991978" lon="153.022582">
				<ele>118</ele>
				<time>2015-05-07T00:26:11Z</time>
				<extensions>
				</extensions>
			</trkpt>
			<trkpt lat="-27.992022" lon="153.022354">
				<ele>118</ele>
				<time>2015-05-07T00:26:12Z</time>
				<extensions>
				</extensions>
			</trkpt>
			<trkpt lat="-27.992044" lon="153.022138">
				<ele>116</ele>
				<time>2015-05-07T00:26:13Z</time>
				<extensions>
				</extensions>
			</trkpt>
			<trkpt lat="-27.992063" lon="153.021924">
				<ele>114</ele>
				<time>2015-05-07T00:26:14Z</time>
				<extensions>
				</extensions>
			</trkpt>
			<trkpt lat="-27.992098" lon="153.021552">
				<ele>110</ele>
				<time>2015-05-07T00:26:16Z</time>
				<extensions>
				</extensions>
			</trkpt>
			<trkpt lat="-27.992177" lon="153.021130">
				<ele>107</ele>
				<time>2015-05-07T00:26:18Z</time>
				<extensions>
				</extensions>
			</trkpt>
			<trkpt lat="-27.992266" lon="153.020935">
				<ele>106</ele>
				<time>2015-05-07T00:26:19Z</time>
				<extensions>
				</extensions>
			</trkpt>
			<trkpt lat="-27.992364" lon="153.020734">
				<ele>105</ele>
				<time>2015-05-07T00:26:20Z</time>
				<extensions>
				</extensions>
			</trkpt>
			<trkpt lat="-27.992454" lon="153.020551">
				<ele>104</ele>
				<time>2015-05-07T00:26:21Z</time>
				<extensions>
				</extensions>
			</trkpt>
			<trkpt lat="-27.992656" lon="153.020205">
				<ele>102</ele>
				<time>2015-05-07T00:26:23Z</time>
				<extensions>
				</extensions>
			</trkpt>
			<trkpt lat="-27.992787" lon="153.020017">
				<ele>101</ele>
				<time>2015-05-07T00:26:24Z</time>
				<extensions>
				</extensions>
			</trkpt>
			<trkpt lat="-27.992895" lon="153.019850">
				<ele>100</ele>
				<time>2015-05-07T00:26:25Z</time>
				<extensions>
				</extensions>
			</trkpt>
			<trkpt lat="-27.993002" lon="153.019685">
				<ele>98</ele>
				<time>2015-05-07T00:26:26Z</time>
				<extensions>
				</extensions>
			</trkpt>
			<trkpt lat="-27.993202" lon="153.019378">
				<ele>98</ele>
				<time>2015-05-07T00:26:28Z</time>
				<extensions>
				</extensions>
			</trkpt>
			<trkpt lat="-27.993395" lon="153.019064">
				<ele>99</ele>
				<time>2015-05-07T00:26:30Z</time>
				<extensions>
				</extensions>
			</trkpt>
			<trkpt lat="-27.993567" lon="153.018731">
				<ele>97</ele>
				<time>2015-05-07T00:26:32Z</time>
				<extensions>
				</extensions>
			</trkpt>
			<trkpt lat="-27.993707" lon="153.018368">
				<ele>98</ele>
				<time>2015-05-07T00:26:34Z</time>
				<extensions>
				</extensions>
			</trkpt>
			<trkpt lat="-27.993800" lon="153.017986">
				<ele>97</ele>
				<time>2015-05-07T00:26:36Z</time>
				<extensions>
				</extensions>
			</trkpt>
			<trkpt lat="-27.993834" lon="153.017774">
				<ele>97</ele>
				<time>2015-05-07T00:26:37Z</time>
				<extensions>
				</extensions>
			</trkpt>
			<trkpt lat="-27.993860" lon="153.017569">
				<ele>98</ele>
				<time>2015-05-07T00:26:38Z</time>
				<extensions>
				</extensions>
			</trkpt>
			<trkpt lat="-27.993916" lon="153.017330">
				<ele>98</ele>
				<time>2015-05-07T00:26:39Z</time>
				<extensions>
				</extensions>
			</trkpt>
			<trkpt lat="-27.993936" lon="153.017123">
				<ele>98</ele>
				<time>2015-05-07T00:26:40Z</time>
				<extensions>
				</extensions>
			</trkpt>
			<trkpt lat="-27.993954" lon="153.016912">
				<ele>100</ele>
				<time>2015-05-07T00:26:41Z</time>
				<extensions>
				</extensions>
			</trkpt>
			<trkpt lat="-27.993970" lon="153.016709">
				<ele>100</ele>
				<time>2015-05-07T00:26:42Z</time>
				<extensions>
				</extensions>
			</trkpt>
			<trkpt lat="-27.993988" lon="153.016497">
				<ele>103</ele>
				<time>2015-05-07T00:26:43Z</time>
				<extensions>
				</extensions>
			</trkpt>
			<trkpt lat="-27.994020" lon="153.016092">
				<ele>103</ele>
				<time>2015-05-07T00:26:45Z</time>
				<extensions>
				</extensions>
			</trkpt>
			<trkpt lat="-27.994038" lon="153.015849">
				<ele>103</ele>
				<time>2015-05-07T00:26:46Z</time>
				<extensions>
				</extensions>
			</trkpt>
			<trkpt lat="-27.994062" lon="153.015449">
				<ele>103</ele>
				<time>2015-05-07T00:26:48Z</time>
				<extensions>
				</extensions>
			</trkpt>
			<trkpt lat="-27.994072" lon="153.015243">
				<ele>103</ele>
				<time>2015-05-07T00:26:49Z</time>
				<extensions>
				</extensions>
			</trkpt>
			<trkpt lat="-27.994087" lon="153.015039">
				<ele>102</ele>
				<time>2015-05-07T00:26:50Z</time>
				<extensions>
				</extensions>
			</trkpt>
			<trkpt lat="-27.994103" lon="153.014829">
				<ele>102</ele>
				<time>2015-05-07T00:26:51Z</time>
				<extensions>
				</extensions>
			</trkpt>
			<trkpt lat="-27.994140" lon="153.014606">
				<ele>102</ele>
				<time>2015-05-07T00:26:52Z</time>
				<extensions>
				</extensions>
			</trkpt>
			<trkpt lat="-27.994175" lon="153.014215">
				<ele>100</ele>
				<time>2015-05-07T00:26:54Z</time>
				<extensions>
				</extensions>
			</trkpt>
			<trkpt lat="-27.994197" lon="153.013816">
				<ele>101</ele>
				<time>2015-05-07T00:26:56Z</time>
				<extensions>
				</extensions>
			</trkpt>
			<trkpt lat="-27.994249" lon="153.013445">
				<ele>97</ele>
				<time>2015-05-07T00:26:58Z</time>
				<extensions>
				</extensions>
			</trkpt>
			<trkpt lat="-27.994266" lon="153.013048">
				<ele>97</ele>
				<time>2015-05-07T00:27:00Z</time>
				<extensions>
				</extensions>
			</trkpt>
			<trkpt lat="-27.994260" lon="153.012655">
				<ele>92</ele>
				<time>2015-05-07T00:27:02Z</time>
				<extensions>
				</extensions>
			</trkpt>
			<trkpt lat="-27.994242" lon="153.012444">
				<ele>91</ele>
				<time>2015-05-07T00:27:03Z</time>
				<extensions>
				</extensions>
			</trkpt>
			<trkpt lat="-27.994217" lon="153.012238">
				<ele>89</ele>
				<time>2015-05-07T00:27:04Z</time>
				<extensions>
				</extensions>
			</trkpt>
			<trkpt lat="-27.994119" lon="153.011851">
				<ele>89</ele>
				<time>2015-05-07T00:27:06Z</time>
				<extensions>
				</extensions>
			</trkpt>
			<trkpt lat="-27.993987" lon="153.011488">
				<ele>86</ele>
				<time>2015-05-07T00:27:08Z</time>
				<extensions>
				</extensions>
			</trkpt>
			<trkpt lat="-27.993817" lon="153.011139">
				<ele>80</ele>
				<time>2015-05-07T00:27:10Z</time>
				<extensions>
				</extensions>
			</trkpt>
			<trkpt lat="-27.993640" lon="153.010811">
				<ele>78</ele>
				<time>2015-05-07T00:27:12Z</time>
				<extensions>
				</extensions>
			</trkpt>
			<trkpt lat="-27.993475" lon="153.010507">
				<ele>75</ele>
				<time>2015-05-07T00:27:14Z</time>
				<extensions>
				</extensions>
			</trkpt>
			<trkpt lat="-27.993321" lon="153.010236">
				<ele>74</ele>
				<time>2015-05-07T00:27:16Z</time>
				<extensions>
				</extensions>
			</trkpt>
			<trkpt lat="-27.993170" lon="153.009964">
				<ele>74</ele>
				<time>2015-05-07T00:27:18Z</time>
				<extensions>
				</extensions>
			</trkpt>
			<trkpt lat="-27.993019" lon="153.009683">
				<ele>75</ele>
				<time>2015-05-07T00:27:20Z</time>
				<extensions>
				</extensions>
			</trkpt>
			<trkpt lat="-27.992870" lon="153.009383">
				<ele>73</ele>
				<time>2015-05-07T00:27:22Z</time>
				<extensions>
				</extensions>
			</trkpt>
			<trkpt lat="-27.992753" lon="153.009105">
				<ele>72</ele>
				<time>2015-05-07T00:27:24Z</time>
				<extensions>
				</extensions>
			</trkpt>
			<trkpt lat="-27.992655" lon="153.008791">
				<ele>71</ele>
				<time>2015-05-07T00:27:26Z</time>
				<extensions>
				</extensions>
			</trkpt>
			<trkpt lat="-27.992587" lon="153.008453">
				<ele>73</ele>
				<time>2015-05-07T00:27:28Z</time>
				<extensions>
				</extensions>
			</trkpt>
			<trkpt lat="-27.992530" lon="153.008104">
				<ele>72</ele>
				<time>2015-05-07T00:27:30Z</time>
				<extensions>
				</extensions>
			</trkpt>
			<trkpt lat="-27.992480" lon="153.007774">
				<ele>71</ele>
				<time>2015-05-07T00:27:32Z</time>
				<extensions>
				</extensions>
			</trkpt>
			<trkpt lat="-27.992433" lon="153.007441">
				<ele>72</ele>
				<time>2015-05-07T00:27:34Z</time>
				<extensions>
				</extensions>
			</trkpt>
			<trkpt lat="-27.992381" lon="153.007115">
				<ele>71</ele>
				<time>2015-05-07T00:27:36Z</time>
				<extensions>
				</extensions>
			</trkpt>
			<trkpt lat="-27.992336" lon="153.006796">
				<ele>71</ele>
				<time>2015-05-07T00:27:38Z</time>
				<extensions>
				</extensions>
			</trkpt>
			<trkpt lat="-27.992288" lon="153.006478">
				<ele>71</ele>
				<time>2015-05-07T00:27:40Z</time>
				<extensions>
				</extensions>
			</trkpt>
			<trkpt lat="-27.992242" lon="153.006153">
				<ele>72</ele>
				<time>2015-05-07T00:27:42Z</time>
				<extensions>
				</extensions>
			</trkpt>
			<trkpt lat="-27.992181" lon="153.005821">
				<ele>71</ele>
				<time>2015-05-07T00:27:44Z</time>
				<extensions>
				</extensions>
			</trkpt>
			<trkpt lat="-27.992130" lon="153.005501">
				<ele>72</ele>
				<time>2015-05-07T00:27:46Z</time>
				<extensions>
				</extensions>
			</trkpt>
			<trkpt lat="-27.992084" lon="153.005162">
				<ele>72</ele>
				<time>2015-05-07T00:27:48Z</time>
				<extensions>
				</extensions>
			</trkpt>
			<trkpt lat="-27.992037" lon="153.004810">
				<ele>73</ele>
				<time>2015-05-07T00:27:50Z</time>
				<extensions>
				</extensions>
			</trkpt>
			<trkpt lat="-27.991979" lon="153.004497">
				<ele>71</ele>
				<time>2015-05-07T00:27:52Z</time>
				<extensions>
				</extensions>
			</trkpt>
			<trkpt lat="-27.991937" lon="153.004167">
				<ele>71</ele>
				<time>2015-05-07T00:27:54Z</time>
				<extensions>
				</extensions>
			</trkpt>
			<trkpt lat="-27.991886" lon="153.003889">
				<ele>70</ele>
				<time>2015-05-07T00:27:56Z</time>
				<extensions>
				</extensions>
			</trkpt>
			<trkpt lat="-27.991855" lon="153.003672">
				<ele>69</ele>
				<time>2015-05-07T00:27:57Z</time>
				<extensions>
				</extensions>
			</trkpt>
			<trkpt lat="-27.991803" lon="153.003347">
				<ele>71</ele>
				<time>2015-05-07T00:27:59Z</time>
				<extensions>
				</extensions>
			</trkpt>
			<trkpt lat="-27.991748" lon="153.003029">
				<ele>70</ele>
				<time>2015-05-07T00:28:01Z</time>
				<extensions>
				</extensions>
			</trkpt>
			<trkpt lat="-27.991686" lon="153.002703">
				<ele>69</ele>
				<time>2015-05-07T00:28:03Z</time>
				<extensions>
				</extensions>
			</trkpt>
			<trkpt lat="-27.991639" lon="153.002407">
				<ele>68</ele>
				<time>2015-05-07T00:28:05Z</time>
				<extensions>
				</extensions>
			</trkpt>
			<trkpt lat="-27.991593" lon="153.002146">
				<ele>65</ele>
				<time>2015-05-07T00:28:07Z</time>
				<extensions>
				</extensions>
			</trkpt>
			<trkpt lat="-27.991553" lon="153.001901">
				<ele>65</ele>
				<time>2015-05-07T00:28:09Z</time>
				<extensions>
				</extensions>
			</trkpt>
			<trkpt lat="-27.991515" lon="153.001673">
				<ele>65</ele>
				<time>2015-05-07T00:28:11Z</time>
				<extensions>
				</extensions>
			</trkpt>
			<trkpt lat="-27.991389" lon="153.001517">
				<ele>65</ele>
				<time>2015-05-07T00:28:12Z</time>
				<extensions>
				</extensions>
			</trkpt>
			<trkpt lat="-27.991350" lon="153.001214">
				<ele>64</ele>
				<time>2015-05-07T00:28:14Z</time>
				<extensions>
				</extensions>
			</trkpt>
			<trkpt lat="-27.991313" lon="153.000924">
				<ele>63</ele>
				<time>2015-05-07T00:28:16Z</time>
				<extensions>
				</extensions>
			</trkpt>
			<trkpt lat="-27.991268" lon="153.000609">
				<ele>63</ele>
				<time>2015-05-07T00:28:18Z</time>
				<extensions>
				</extensions>
			</trkpt>
			<trkpt lat="-27.991220" lon="153.000286">
				<ele>62</ele>
				<time>2015-05-07T00:28:20Z</time>
				<extensions>
				</extensions>
			</trkpt>
			<trkpt lat="-27.991173" lon="152.999970">
				<ele>61</ele>
				<time>2015-05-07T00:28:22Z</time>
				<extensions>
				</extensions>
			</trkpt>
			<trkpt lat="-27.991129" lon="152.999680">
				<ele>60</ele>
				<time>2015-05-07T00:28:24Z</time>
				<extensions>
				</extensions>
			</trkpt>
			<trkpt lat="-27.991082" lon="152.999361">
				<ele>59</ele>
				<time>2015-05-07T00:28:26Z</time>
				<extensions>
				</extensions>
			</trkpt>
			<trkpt lat="-27.991035" lon="152.999049">
				<ele>58</ele>
				<time>2015-05-07T00:28:28Z</time>
				<extensions>
				</extensions>
			</trkpt>
			<trkpt lat="-27.990988" lon="152.998733">
				<ele>58</ele>
				<time>2015-05-07T00:28:30Z</time>
				<extensions>
				</extensions>
			</trkpt>
			<trkpt lat="-27.990942" lon="152.998419">
				<ele>56</ele>
				<time>2015-05-07T00:28:32Z</time>
				<extensions>
				</extensions>
			</trkpt>
			<trkpt lat="-27.990895" lon="152.998106">
				<ele>56</ele>
				<time>2015-05-07T00:28:34Z</time>
				<extensions>
				</extensions>
			</trkpt>
			<trkpt lat="-27.990853" lon="152.997826">
				<ele>55</ele>
				<time>2015-05-07T00:28:36Z</time>
				<extensions>
				</extensions>
			</trkpt>
			<trkpt lat="-27.990803" lon="152.997490">
				<ele>54</ele>
				<time>2015-05-07T00:28:38Z</time>
				<extensions>
				</extensions>
			</trkpt>
			<trkpt lat="-27.990758" lon="152.997190">
				<ele>53</ele>
				<time>2015-05-07T00:28:40Z</time>
				<extensions>
				</extensions>
			</trkpt>
			<trkpt lat="-27.990720" lon="152.996939">
				<ele>51</ele>
				<time>2015-05-07T00:28:42Z</time>
				<extensions>
				</extensions>
			</trkpt>
			<trkpt lat="-27.990680" lon="152.996676">
				<ele>48</ele>
				<time>2015-05-07T00:28:44Z</time>
				<extensions>
				</extensions>
			</trkpt>
			<trkpt lat="-27.990643" lon="152.996433">
				<ele>46</ele>
				<time>2015-05-07T00:28:47Z</time>
				<extensions>
				</extensions>
			</trkpt>
			<trkpt lat="-27.990739" lon="152.996197">
				<ele>44</ele>
				<time>2015-05-07T00:28:52Z</time>
				<extensions>
				</extensions>
			</trkpt>
			<trkpt lat="-27.990955" lon="152.996194">
				<ele>46</ele>
				<time>2015-05-07T00:28:54Z</time>
				<extensions>
				</extensions>
			</trkpt>
			<trkpt lat="-27.991175" lon="152.996220">
				<ele>46</ele>
				<time>2015-05-07T00:28:56Z</time>
				<extensions>
				</extensions>
			</trkpt>
			<trkpt lat="-27.991380" lon="152.996255">
				<ele>45</ele>
				<time>2015-05-07T00:28:58Z</time>
				<extensions>
				</extensions>
			</trkpt>
			<trkpt lat="-27.991597" lon="152.996282">
				<ele>46</ele>
				<time>2015-05-07T00:29:00Z</time>
				<extensions>
				</extensions>
			</trkpt>
			<trkpt lat="-27.991840" lon="152.996316">
				<ele>47</ele>
				<time>2015-05-07T00:29:02Z</time>
				<extensions>
				</extensions>
			</trkpt>
			<trkpt lat="-27.992112" lon="152.996355">
				<ele>49</ele>
				<time>2015-05-07T00:29:04Z</time>
				<extensions>
				</extensions>
			</trkpt>
			<trkpt lat="-27.992386" lon="152.996391">
				<ele>49</ele>
				<time>2015-05-07T00:29:06Z</time>
				<extensions>
				</extensions>
			</trkpt>
			<trkpt lat="-27.992656" lon="152.996419">
				<ele>49</ele>
				<time>2015-05-07T00:29:08Z</time>
				<extensions>
				</extensions>
			</trkpt>
			<trkpt lat="-27.992928" lon="152.996459">
				<ele>50</ele>
				<time>2015-05-07T00:29:10Z</time>
				<extensions>
				</extensions>
			</trkpt>
			<trkpt lat="-27.993196" lon="152.996489">
				<ele>50</ele>
				<time>2015-05-07T00:29:12Z</time>
				<extensions>
				</extensions>
			</trkpt>
			<trkpt lat="-27.993469" lon="152.996508">
				<ele>50</ele>
				<time>2015-05-07T00:29:14Z</time>
				<extensions>
				</extensions>
			</trkpt>
			<trkpt lat="-27.993743" lon="152.996540">
				<ele>51</ele>
				<time>2015-05-07T00:29:16Z</time>
				<extensions>
				</extensions>
			</trkpt>
			<trkpt lat="-27.994018" lon="152.996588">
				<ele>50</ele>
				<time>2015-05-07T00:29:18Z</time>
				<extensions>
				</extensions>
			</trkpt>
			<trkpt lat="-27.994276" lon="152.996660">
				<ele>50</ele>
				<time>2015-05-07T00:29:20Z</time>
				<extensions>
				</extensions>
			</trkpt>
			<trkpt lat="-27.994529" lon="152.996769">
				<ele>51</ele>
				<time>2015-05-07T00:29:22Z</time>
				<extensions>
				</extensions>
			</trkpt>
			<trkpt lat="-27.994784" lon="152.996907">
				<ele>51</ele>
				<time>2015-05-07T00:29:24Z</time>
				<extensions>
				</extensions>
			</trkpt>
			<trkpt lat="-27.995041" lon="152.997064">
				<ele>51</ele>
				<time>2015-05-07T00:29:26Z</time>
				<extensions>
				</extensions>
			</trkpt>
			<trkpt lat="-27.995291" lon="152.997210">
				<ele>52</ele>
				<time>2015-05-07T00:29:28Z</time>
				<extensions>
				</extensions>
			</trkpt>
			<trkpt lat="-27.995525" lon="152.997360">
				<ele>52</ele>
				<time>2015-05-07T00:29:30Z</time>
				<extensions>
				</extensions>
			</trkpt>
			<trkpt lat="-27.995765" lon="152.997508">
				<ele>52</ele>
				<time>2015-05-07T00:29:32Z</time>
				<extensions>
				</extensions>
			</trkpt>
			<trkpt lat="-27.995999" lon="152.997662">
				<ele>52</ele>
				<time>2015-05-07T00:29:34Z</time>
				<extensions>
				</extensions>
			</trkpt>
			<trkpt lat="-27.996239" lon="152.997798">
				<ele>51</ele>
				<time>2015-05-07T00:29:36Z</time>
				<extensions>
				</extensions>
			</trkpt>
			<trkpt lat="-27.996469" lon="152.997943">
				<ele>52</ele>
				<time>2015-05-07T00:29:38Z</time>
				<extensions>
				</extensions>
			</trkpt>
			<trkpt lat="-27.996714" lon="152.998097">
				<ele>52</ele>
				<time>2015-05-07T00:29:40Z</time>
				<extensions>
				</extensions>
			</trkpt>
			<trkpt lat="-27.996919" lon="152.998293">
				<ele>52</ele>
				<time>2015-05-07T00:29:42Z</time>
				<extensions>
				</extensions>
			</trkpt>
			<trkpt lat="-27.997084" lon="152.998522">
				<ele>54</ele>
				<time>2015-05-07T00:29:44Z</time>
				<extensions>
				</extensions>
			</trkpt>
			<trkpt lat="-27.997228" lon="152.998777">
				<ele>56</ele>
				<time>2015-05-07T00:29:46Z</time>
				<extensions>
				</extensions>
			</trkpt>
			<trkpt lat="-27.997376" lon="152.999046">
				<ele>57</ele>
				<time>2015-05-07T00:29:48Z</time>
				<extensions>
				</extensions>
			</trkpt>
			<trkpt lat="-27.997529" lon="152.999312">
				<ele>58</ele>
				<time>2015-05-07T00:29:50Z</time>
				<extensions>
				</extensions>
			</trkpt>
			<trkpt lat="-27.997685" lon="152.999598">
				<ele>58</ele>
				<time>2015-05-07T00:29:52Z</time>
				<extensions>
				</extensions>
			</trkpt>
			<trkpt lat="-27.997837" lon="152.999865">
				<ele>59</ele>
				<time>2015-05-07T00:29:54Z</time>
				<extensions>
				</extensions>
			</trkpt>
			<trkpt lat="-27.997988" lon="153.000122">
				<ele>59</ele>
				<time>2015-05-07T00:29:56Z</time>
				<extensions>
				</extensions>
			</trkpt>
			<trkpt lat="-27.998144" lon="153.000384">
				<ele>60</ele>
				<time>2015-05-07T00:29:58Z</time>
				<extensions>
				</extensions>
			</trkpt>
			<trkpt lat="-27.998317" lon="153.000633">
				<ele>61</ele>
				<time>2015-05-07T00:30:00Z</time>
				<extensions>
				</extensions>
			</trkpt>
			<trkpt lat="-27.998489" lon="153.000860">
				<ele>60</ele>
				<time>2015-05-07T00:30:02Z</time>
				<extensions>
				</extensions>
			</trkpt>
			<trkpt lat="-27.998653" lon="153.001093">
				<ele>60</ele>
				<time>2015-05-07T00:30:04Z</time>
				<extensions>
				</extensions>
			</trkpt>
			<trkpt lat="-27.998840" lon="153.001335">
				<ele>62</ele>
				<time>2015-05-07T00:30:06Z</time>
				<extensions>
				</extensions>
			</trkpt>
			<trkpt lat="-27.999040" lon="153.001593">
				<ele>62</ele>
				<time>2015-05-07T00:30:08Z</time>
				<extensions>
				</extensions>
			</trkpt>
			<trkpt lat="-27.999261" lon="153.001886">
				<ele>66</ele>
				<time>2015-05-07T00:30:10Z</time>
				<extensions>
				</extensions>
			</trkpt>
			<trkpt lat="-27.999379" lon="153.002040">
				<ele>68</ele>
				<time>2015-05-07T00:30:11Z</time>
				<extensions>
				</extensions>
			</trkpt>
			<trkpt lat="-27.999498" lon="153.002195">
				<ele>68</ele>
				<time>2015-05-07T00:30:12Z</time>
				<extensions>
				</extensions>
			</trkpt>
			<trkpt lat="-27.999725" lon="153.002494">
				<ele>70</ele>
				<time>2015-05-07T00:30:14Z</time>
				<extensions>
				</extensions>
			</trkpt>
			<trkpt lat="-27.999844" lon="153.002649">
				<ele>70</ele>
				<time>2015-05-07T00:30:15Z</time>
				<extensions>
				</extensions>
			</trkpt>
			<trkpt lat="-28.000073" lon="153.002944">
				<ele>71</ele>
				<time>2015-05-07T00:30:17Z</time>
				<extensions>
				</extensions>
			</trkpt>
			<trkpt lat="-28.000294" lon="153.003245">
				<ele>71</ele>
				<time>2015-05-07T00:30:19Z</time>
				<extensions>
				</extensions>
			</trkpt>
			<trkpt lat="-28.000536" lon="153.003549">
				<ele>73</ele>
				<time>2015-05-07T00:30:21Z</time>
				<extensions>
				</extensions>
			</trkpt>
			<trkpt lat="-28.000655" lon="153.003705">
				<ele>75</ele>
				<time>2015-05-07T00:30:22Z</time>
				<extensions>
				</extensions>
			</trkpt>
			<trkpt lat="-28.000782" lon="153.003872">
				<ele>74</ele>
				<time>2015-05-07T00:30:23Z</time>
				<extensions>
				</extensions>
			</trkpt>
			<trkpt lat="-28.000907" lon="153.004035">
				<ele>74</ele>
				<time>2015-05-07T00:30:24Z</time>
				<extensions>
				</extensions>
			</trkpt>
			<trkpt lat="-28.001036" lon="153.004206">
				<ele>76</ele>
				<time>2015-05-07T00:30:25Z</time>
				<extensions>
				</extensions>
			</trkpt>
			<trkpt lat="-28.001168" lon="153.004375">
				<ele>73</ele>
				<time>2015-05-07T00:30:26Z</time>
				<extensions>
				</extensions>
			</trkpt>
			<trkpt lat="-28.001297" lon="153.004540">
				<ele>74</ele>
				<time>2015-05-07T00:30:27Z</time>
				<extensions>
				</extensions>
			</trkpt>
			<trkpt lat="-28.001428" lon="153.004705">
				<ele>73</ele>
				<time>2015-05-07T00:30:28Z</time>
				<extensions>
				</extensions>
			</trkpt>
			<trkpt lat="-28.001560" lon="153.004864">
				<ele>73</ele>
				<time>2015-05-07T00:30:29Z</time>
				<extensions>
				</extensions>
			</trkpt>
			<trkpt lat="-28.001696" lon="153.005020">
				<ele>72</ele>
				<time>2015-05-07T00:30:30Z</time>
				<extensions>
				</extensions>
			</trkpt>
			<trkpt lat="-28.001825" lon="153.005167">
				<ele>71</ele>
				<time>2015-05-07T00:30:31Z</time>
				<extensions>
				</extensions>
			</trkpt>
			<trkpt lat="-28.001956" lon="153.005316">
				<ele>73</ele>
				<time>2015-05-07T00:30:32Z</time>
				<extensions>
				</extensions>
			</trkpt>
			<trkpt lat="-28.002091" lon="153.005464">
				<ele>74</ele>
				<time>2015-05-07T00:30:33Z</time>
				<extensions>
				</extensions>
			</trkpt>
			<trkpt lat="-28.002224" lon="153.005611">
				<ele>75</ele>
				<time>2015-05-07T00:30:34Z</time>
				<extensions>
				</extensions>
			</trkpt>
			<trkpt lat="-28.002357" lon="153.005758">
				<ele>74</ele>
				<time>2015-05-07T00:30:35Z</time>
				<extensions>
				</extensions>
			</trkpt>
			<trkpt lat="-28.002489" lon="153.005906">
				<ele>74</ele>
				<time>2015-05-07T00:30:36Z</time>
				<extensions>
				</extensions>
			</trkpt>
			<trkpt lat="-28.002621" lon="153.006051">
				<ele>75</ele>
				<time>2015-05-07T00:30:37Z</time>
				<extensions>
				</extensions>
			</trkpt>
			<trkpt lat="-28.002766" lon="153.006205">
				<ele>75</ele>
				<time>2015-05-07T00:30:38Z</time>
				<extensions>
				</extensions>
			</trkpt>
			<trkpt lat="-28.002904" lon="153.006357">
				<ele>76</ele>
				<time>2015-05-07T00:30:39Z</time>
				<extensions>
				</extensions>
			</trkpt>
			<trkpt lat="-28.003042" lon="153.006509">
				<ele>77</ele>
				<time>2015-05-07T00:30:40Z</time>
				<extensions>
				</extensions>
			</trkpt>
			<trkpt lat="-28.003175" lon="153.006661">
				<ele>78</ele>
				<time>2015-05-07T00:30:41Z</time>
				<extensions>
				</extensions>
			</trkpt>
			<trkpt lat="-28.003442" lon="153.006951">
				<ele>77</ele>
				<time>2015-05-07T00:30:43Z</time>
				<extensions>
				</extensions>
			</trkpt>
			<trkpt lat="-28.003583" lon="153.007107">
				<ele>78</ele>
				<time>2015-05-07T00:30:44Z</time>
				<extensions>
				</extensions>
			</trkpt>
			<trkpt lat="-28.003724" lon="153.007240">
				<ele>78</ele>
				<time>2015-05-07T00:30:45Z</time>
				<extensions>
				</extensions>
			</trkpt>
			<trkpt lat="-28.003875" lon="153.007394">
				<ele>79</ele>
				<time>2015-05-07T00:30:46Z</time>
				<extensions>
				</extensions>
			</trkpt>
			<trkpt lat="-28.004012" lon="153.007544">
				<ele>78</ele>
				<time>2015-05-07T00:30:47Z</time>
				<extensions>
				</extensions>
			</trkpt>
			<trkpt lat="-28.004149" lon="153.007695">
				<ele>79</ele>
				<time>2015-05-07T00:30:48Z</time>
				<extensions>
				</extensions>
			</trkpt>
			<trkpt lat="-28.004293" lon="153.007839">
				<ele>79</ele>
				<time>2015-05-07T00:30:49Z</time>
				<extensions>
				</extensions>
			</trkpt>
			<trkpt lat="-28.004434" lon="153.007980">
				<ele>82</ele>
				<time>2015-05-07T00:30:50Z</time>
				<extensions>
				</extensions>
			</trkpt>
			<trkpt lat="-28.004583" lon="153.008124">
				<ele>83</ele>
				<time>2015-05-07T00:30:51Z</time>
				<extensions>
				</extensions>
			</trkpt>
			<trkpt lat="-28.004728" lon="153.008261">
				<ele>82</ele>
				<time>2015-05-07T00:30:52Z</time>
				<extensions>
				</extensions>
			</trkpt>
			<trkpt lat="-28.004877" lon="153.008405">
				<ele>83</ele>
				<time>2015-05-07T00:30:53Z</time>
				<extensions>
				</extensions>
			</trkpt>
			<trkpt lat="-28.005024" lon="153.008552">
				<ele>83</ele>
				<time>2015-05-07T00:30:54Z</time>
				<extensions>
				</extensions>
			</trkpt>
			<trkpt lat="-28.005178" lon="153.008696">
				<ele>84</ele>
				<time>2015-05-07T00:30:55Z</time>
				<extensions>
				</extensions>
			</trkpt>
			<trkpt lat="-28.005333" lon="153.008847">
				<ele>83</ele>
				<time>2015-05-07T00:30:56Z</time>
				<extensions>
				</extensions>
			</trkpt>
			<trkpt lat="-28.005491" lon="153.008992">
				<ele>83</ele>
				<time>2015-05-07T00:30:57Z</time>
				<extensions>
				</extensions>
			</trkpt>
			<trkpt lat="-28.005643" lon="153.009132">
				<ele>84</ele>
				<time>2015-05-07T00:30:58Z</time>
				<extensions>
				</extensions>
			</trkpt>
			<trkpt lat="-28.005807" lon="153.009276">
				<ele>83</ele>
				<time>2015-05-07T00:30:59Z</time>
				<extensions>
				</extensions>
			</trkpt>
			<trkpt lat="-28.005955" lon="153.009419">
				<ele>84</ele>
				<time>2015-05-07T00:31:00Z</time>
				<extensions>
				</extensions>
			</trkpt>
			<trkpt lat="-28.006099" lon="153.009559">
				<ele>85</ele>
				<time>2015-05-07T00:31:01Z</time>
				<extensions>
				</extensions>
			</trkpt>
			<trkpt lat="-28.006367" lon="153.009818">
				<ele>85</ele>
				<time>2015-05-07T00:31:03Z</time>
				<extensions>
				</extensions>
			</trkpt>
			<trkpt lat="-28.006581" lon="153.010082">
				<ele>82</ele>
				<time>2015-05-07T00:31:05Z</time>
				<extensions>
				</extensions>
			</trkpt>
			<trkpt lat="-28.006756" lon="153.010339">
				<ele>81</ele>
				<time>2015-05-07T00:31:07Z</time>
				<extensions>
				</extensions>
			</trkpt>
			<trkpt lat="-28.006937" lon="153.010593">
				<ele>80</ele>
				<time>2015-05-07T00:31:09Z</time>
				<extensions>
				</extensions>
			</trkpt>
			<trkpt lat="-28.007188" lon="153.010824">
				<ele>80</ele>
				<time>2015-05-07T00:31:11Z</time>
				<extensions>
				</extensions>
			</trkpt>
			<trkpt lat="-28.007493" lon="153.010991">
				<ele>81</ele>
				<time>2015-05-07T00:31:13Z</time>
				<extensions>
				</extensions>
			</trkpt>
			<trkpt lat="-28.007791" lon="153.011128">
				<ele>80</ele>
				<time>2015-05-07T00:31:15Z</time>
				<extensions>
				</extensions>
			</trkpt>
			<trkpt lat="-28.008062" lon="153.011270">
				<ele>79</ele>
				<time>2015-05-07T00:31:17Z</time>
				<extensions>
				</extensions>
			</trkpt>
			<trkpt lat="-28.008319" lon="153.011496">
				<ele>80</ele>
				<time>2015-05-07T00:31:19Z</time>
				<extensions>
				</extensions>
			</trkpt>
			<trkpt lat="-28.008561" lon="153.011757">
				<ele>81</ele>
				<time>2015-05-07T00:31:21Z</time>
				<extensions>
				</extensions>
			</trkpt>
			<trkpt lat="-28.008792" lon="153.012042">
				<ele>79</ele>
				<time>2015-05-07T00:31:23Z</time>
				<extensions>
				</extensions>
			</trkpt>
			<trkpt lat="-28.008965" lon="153.012377">
				<ele>81</ele>
				<time>2015-05-07T00:31:25Z</time>
				<extensions>
				</extensions>
			</trkpt>
			<trkpt lat="-28.009052" lon="153.012761">
				<ele>84</ele>
				<time>2015-05-07T00:31:27Z</time>
				<extensions>
				</extensions>
			</trkpt>
			<trkpt lat="-28.009078" lon="153.012965">
				<ele>86</ele>
				<time>2015-05-07T00:31:28Z</time>
				<extensions>
				</extensions>
			</trkpt>
			<trkpt lat="-28.009095" lon="153.013183">
				<ele>86</ele>
				<time>2015-05-07T00:31:29Z</time>
				<extensions>
				</extensions>
			</trkpt>
			<trkpt lat="-28.009108" lon="153.013406">
				<ele>88</ele>
				<time>2015-05-07T00:31:30Z</time>
				<extensions>
				</extensions>
			</trkpt>
			<trkpt lat="-28.009122" lon="153.013620">
				<ele>87</ele>
				<time>2015-05-07T00:31:31Z</time>
				<extensions>
				</extensions>
			</trkpt>
			<trkpt lat="-28.009136" lon="153.013830">
				<ele>88</ele>
				<time>2015-05-07T00:31:32Z</time>
				<extensions>
				</extensions>
			</trkpt>
			<trkpt lat="-28.009155" lon="153.014035">
				<ele>87</ele>
				<time>2015-05-07T00:31:33Z</time>
				<extensions>
				</extensions>
			</trkpt>
			<trkpt lat="-28.009203" lon="153.014424">
				<ele>88</ele>
				<time>2015-05-07T00:31:35Z</time>
				<extensions>
				</extensions>
			</trkpt>
			<trkpt lat="-28.009288" lon="153.014800">
				<ele>88</ele>
				<time>2015-05-07T00:31:37Z</time>
				<extensions>
				</extensions>
			</trkpt>
			<trkpt lat="-28.009406" lon="153.015163">
				<ele>90</ele>
				<time>2015-05-07T00:31:39Z</time>
				<extensions>
				</extensions>
			</trkpt>
			<trkpt lat="-28.009556" lon="153.015515">
				<ele>91</ele>
				<time>2015-05-07T00:31:41Z</time>
				<extensions>
				</extensions>
			</trkpt>
			<trkpt lat="-28.009716" lon="153.015873">
				<ele>91</ele>
				<time>2015-05-07T00:31:43Z</time>
				<extensions>
				</extensions>
			</trkpt>
			<trkpt lat="-28.009864" lon="153.016233">
				<ele>91</ele>
				<time>2015-05-07T00:31:45Z</time>
				<extensions>
				</extensions>
			</trkpt>
			<trkpt lat="-28.010020" lon="153.016593">
				<ele>91</ele>
				<time>2015-05-07T00:31:47Z</time>
				<extensions>
				</extensions>
			</trkpt>
			<trkpt lat="-28.010102" lon="153.016788">
				<ele>91</ele>
				<time>2015-05-07T00:31:48Z</time>
				<extensions>
				</extensions>
			</trkpt>
			<trkpt lat="-28.010191" lon="153.016970">
				<ele>92</ele>
				<time>2015-05-07T00:31:49Z</time>
				<extensions>
				</extensions>
			</trkpt>
			<trkpt lat="-28.010279" lon="153.017163">
				<ele>91</ele>
				<time>2015-05-07T00:31:50Z</time>
				<extensions>
				</extensions>
			</trkpt>
			<trkpt lat="-28.010351" lon="153.017351">
				<ele>92</ele>
				<time>2015-05-07T00:31:51Z</time>
				<extensions>
				</extensions>
			</trkpt>
			<trkpt lat="-28.010432" lon="153.017543">
				<ele>93</ele>
				<time>2015-05-07T00:31:52Z</time>
				<extensions>
				</extensions>
			</trkpt>
			<trkpt lat="-28.010522" lon="153.017760">
				<ele>95</ele>
				<time>2015-05-07T00:31:53Z</time>
				<extensions>
				</extensions>
			</trkpt>
			<trkpt lat="-28.010613" lon="153.017979">
				<ele>97</ele>
				<time>2015-05-07T00:31:54Z</time>
				<extensions>
				</extensions>
			</trkpt>
			<trkpt lat="-28.010694" lon="153.018180">
				<ele>97</ele>
				<time>2015-05-07T00:31:55Z</time>
				<extensions>
				</extensions>
			</trkpt>
			<trkpt lat="-28.010776" lon="153.018391">
				<ele>97</ele>
				<time>2015-05-07T00:31:56Z</time>
				<extensions>
				</extensions>
			</trkpt>
			<trkpt lat="-28.010934" lon="153.018744">
				<ele>96</ele>
				<time>2015-05-07T00:31:58Z</time>
				<extensions>
				</extensions>
			</trkpt>
			<trkpt lat="-28.011066" lon="153.019056">
				<ele>96</ele>
				<time>2015-05-07T00:32:00Z</time>
				<extensions>
				</extensions>
			</trkpt>
			<trkpt lat="-28.011190" lon="153.019351">
				<ele>96</ele>
				<time>2015-05-07T00:32:02Z</time>
				<extensions>
				</extensions>
			</trkpt>
			<trkpt lat="-28.011292" lon="153.019644">
				<ele>96</ele>
				<time>2015-05-07T00:32:04Z</time>
				<extensions>
				</extensions>
			</trkpt>
			<trkpt lat="-28.011354" lon="153.019958">
				<ele>99</ele>
				<time>2015-05-07T00:32:06Z</time>
				<extensions>
				</extensions>
			</trkpt>
			<trkpt lat="-28.011402" lon="153.020257">
				<ele>98</ele>
				<time>2015-05-07T00:32:08Z</time>
				<extensions>
				</extensions>
			</trkpt>
			<trkpt lat="-28.011476" lon="153.020545">
				<ele>100</ele>
				<time>2015-05-07T00:32:10Z</time>
				<extensions>
				</extensions>
			</trkpt>
			<trkpt lat="-28.011601" lon="153.020805">
				<ele>100</ele>
				<time>2015-05-07T00:32:12Z</time>
				<extensions>
				</extensions>
			</trkpt>
			<trkpt lat="-28.011789" lon="153.021015">
				<ele>102</ele>
				<time>2015-05-07T00:32:14Z</time>
				<extensions>
				</extensions>
			</trkpt>
			<trkpt lat="-28.012046" lon="153.021174">
				<ele>105</ele>
				<time>2015-05-07T00:32:16Z</time>
				<extensions>
				</extensions>
			</trkpt>
			<trkpt lat="-28.012346" lon="153.021274">
				<ele>108</ele>
				<time>2015-05-07T00:32:18Z</time>
				<extensions>
				</extensions>
			</trkpt>
			<trkpt lat="-28.012655" lon="153.021364">
				<ele>111</ele>
				<time>2015-05-07T00:32:20Z</time>
				<extensions>
				</extensions>
			</trkpt>
			<trkpt lat="-28.012956" lon="153.021483">
				<ele>113</ele>
				<time>2015-05-07T00:32:22Z</time>
				<extensions>
				</extensions>
			</trkpt>
			<trkpt lat="-28.013249" lon="153.021637">
				<ele>114</ele>
				<time>2015-05-07T00:32:24Z</time>
				<extensions>
				</extensions>
			</trkpt>
			<trkpt lat="-28.013542" lon="153.021822">
				<ele>116</ele>
				<time>2015-05-07T00:32:26Z</time>
				<extensions>
				</extensions>
			</trkpt>
			<trkpt lat="-28.013820" lon="153.021996">
				<ele>116</ele>
				<time>2015-05-07T00:32:28Z</time>
				<extensions>
				</extensions>
			</trkpt>
			<trkpt lat="-28.014104" lon="153.022171">
				<ele>118</ele>
				<time>2015-05-07T00:32:30Z</time>
				<extensions>
				</extensions>
			</trkpt>
			<trkpt lat="-28.014372" lon="153.022339">
				<ele>119</ele>
				<time>2015-05-07T00:32:32Z</time>
				<extensions>
				</extensions>
			</trkpt>
			<trkpt lat="-28.014653" lon="153.022505">
				<ele>120</ele>
				<time>2015-05-07T00:32:34Z</time>
				<extensions>
				</extensions>
			</trkpt>
			<trkpt lat="-28.014915" lon="153.022687">
				<ele>120</ele>
				<time>2015-05-07T00:32:36Z</time>
				<extensions>
				</extensions>
			</trkpt>
			<trkpt lat="-28.015171" lon="153.022847">
				<ele>123</ele>
				<time>2015-05-07T00:32:38Z</time>
				<extensions>
				</extensions>
			</trkpt>
			<trkpt lat="-28.015449" lon="153.023018">
				<ele>124</ele>
				<time>2015-05-07T00:32:40Z</time>
				<extensions>
				</extensions>
			</trkpt>
			<trkpt lat="-28.015738" lon="153.023182">
				<ele>127</ele>
				<time>2015-05-07T00:32:42Z</time>
				<extensions>
				</extensions>
			</trkpt>
			<trkpt lat="-28.016011" lon="153.023346">
				<ele>128</ele>
				<time>2015-05-07T00:32:44Z</time>
				<extensions>
				</extensions>
			</trkpt>
			<trkpt lat="-28.016283" lon="153.023510">
				<ele>128</ele>
				<time>2015-05-07T00:32:46Z</time>
				<extensions>
				</extensions>
			</trkpt>
			<trkpt lat="-28.016548" lon="153.023674">
				<ele>128</ele>
				<time>2015-05-07T00:32:48Z</time>
				<extensions>
				</extensions>
			</trkpt>
			<trkpt lat="-28.016814" lon="153.023789">
				<ele>129</ele>
				<time>2015-05-07T00:32:50Z</time>
				<extensions>
				</extensions>
			</trkpt>
			<trkpt lat="-28.017125" lon="153.023860">
				<ele>128</ele>
				<time>2015-05-07T00:32:52Z</time>
				<extensions>
				</extensions>
			</trkpt>
			<trkpt lat="-28.017451" lon="153.023903">
				<ele>128</ele>
				<time>2015-05-07T00:32:54Z</time>
				<extensions>
				</extensions>
			</trkpt>
			<trkpt lat="-28.017789" lon="153.023952">
				<ele>128</ele>
				<time>2015-05-07T00:32:56Z</time>
				<extensions>
				</extensions>
			</trkpt>
			<trkpt lat="-28.018114" lon="153.024037">
				<ele>128</ele>
				<time>2015-05-07T00:32:58Z</time>
				<extensions>
				</extensions>
			</trkpt>
			<trkpt lat="-28.018291" lon="153.024101">
				<ele>129</ele>
				<time>2015-05-07T00:32:59Z</time>
				<extensions>
				</extensions>
			</trkpt>
			<trkpt lat="-28.018621" lon="153.024248">
				<ele>128</ele>
				<time>2015-05-07T00:33:01Z</time>
				<extensions>
				</extensions>
			</trkpt>
			<trkpt lat="-28.018790" lon="153.024322">
				<ele>127</ele>
				<time>2015-05-07T00:33:02Z</time>
				<extensions>
				</extensions>
			</trkpt>
			<trkpt lat="-28.019125" lon="153.024479">
				<ele>126</ele>
				<time>2015-05-07T00:33:04Z</time>
				<extensions>
				</extensions>
			</trkpt>
			<trkpt lat="-28.019299" lon="153.024570">
				<ele>125</ele>
				<time>2015-05-07T00:33:05Z</time>
				<extensions>
				</extensions>
			</trkpt>
			<trkpt lat="-28.019480" lon="153.024659">
				<ele>126</ele>
				<time>2015-05-07T00:33:06Z</time>
				<extensions>
				</extensions>
			</trkpt>
			<trkpt lat="-28.019665" lon="153.024747">
				<ele>127</ele>
				<time>2015-05-07T00:33:07Z</time>
				<extensions>
				</extensions>
			</trkpt>
			<trkpt lat="-28.019867" lon="153.024832">
				<ele>125</ele>
				<time>2015-05-07T00:33:08Z</time>
				<extensions>
				</extensions>
			</trkpt>
			<trkpt lat="-28.020053" lon="153.024920">
				<ele>125</ele>
				<time>2015-05-07T00:33:09Z</time>
				<extensions>
				</extensions>
			</trkpt>
			<trkpt lat="-28.020240" lon="153.025008">
				<ele>124</ele>
				<time>2015-05-07T00:33:10Z</time>
				<extensions>
				</extensions>
			</trkpt>
			<trkpt lat="-28.020406" lon="153.025105">
				<ele>125</ele>
				<time>2015-05-07T00:33:11Z</time>
				<extensions>
				</extensions>
			</trkpt>
			<trkpt lat="-28.020598" lon="153.025186">
				<ele>123</ele>
				<time>2015-05-07T00:33:12Z</time>
				<extensions>
				</extensions>
			</trkpt>
			<trkpt lat="-28.020786" lon="153.025273">
				<ele>122</ele>
				<time>2015-05-07T00:33:13Z</time>
				<extensions>
				</extensions>
			</trkpt>
			<trkpt lat="-28.020959" lon="153.025355">
				<ele>120</ele>
				<time>2015-05-07T00:33:14Z</time>
				<extensions>
				</extensions>
			</trkpt>
			<trkpt lat="-28.021130" lon="153.025438">
				<ele>119</ele>
				<time>2015-05-07T00:33:15Z</time>
				<extensions>
				</extensions>
			</trkpt>
			<trkpt lat="-28.021299" lon="153.025518">
				<ele>120</ele>
				<time>2015-05-07T00:33:16Z</time>
				<extensions>
				</extensions>
			</trkpt>
			<trkpt lat="-28.021476" lon="153.025616">
				<ele>120</ele>
				<time>2015-05-07T00:33:17Z</time>
				<extensions>
				</extensions>
			</trkpt>
			<trkpt lat="-28.021658" lon="153.025692">
				<ele>120</ele>
				<time>2015-05-07T00:33:18Z</time>
				<extensions>
				</extensions>
			</trkpt>
			<trkpt lat="-28.021833" lon="153.025783">
				<ele>120</ele>
				<time>2015-05-07T00:33:19Z</time>
				<extensions>
				</extensions>
			</trkpt>
			<trkpt lat="-28.022014" lon="153.025865">
				<ele>119</ele>
				<time>2015-05-07T00:33:20Z</time>
				<extensions>
				</extensions>
			</trkpt>
			<trkpt lat="-28.022191" lon="153.025950">
				<ele>120</ele>
				<time>2015-05-07T00:33:21Z</time>
				<extensions>
				</extensions>
			</trkpt>
			<trkpt lat="-28.022540" lon="153.026123">
				<ele>121</ele>
				<time>2015-05-07T00:33:23Z</time>
				<extensions>
				</extensions>
			</trkpt>
			<trkpt lat="-28.022712" lon="153.026204">
				<ele>121</ele>
				<time>2015-05-07T00:33:24Z</time>
				<extensions>
				</extensions>
			</trkpt>
			<trkpt lat="-28.022898" lon="153.026310">
				<ele>123</ele>
				<time>2015-05-07T00:33:25Z</time>
				<extensions>
				</extensions>
			</trkpt>
			<trkpt lat="-28.023102" lon="153.026349">
				<ele>123</ele>
				<time>2015-05-07T00:33:26Z</time>
				<extensions>
				</extensions>
			</trkpt>
			<trkpt lat="-28.023281" lon="153.026437">
				<ele>124</ele>
				<time>2015-05-07T00:33:27Z</time>
				<extensions>
				</extensions>
			</trkpt>
			<trkpt lat="-28.023465" lon="153.026522">
				<ele>124</ele>
				<time>2015-05-07T00:33:28Z</time>
				<extensions>
				</extensions>
			</trkpt>
			<trkpt lat="-28.023640" lon="153.026597">
				<ele>126</ele>
				<time>2015-05-07T00:33:29Z</time>
				<extensions>
				</extensions>
			</trkpt>
			<trkpt lat="-28.023820" lon="153.026677">
				<ele>127</ele>
				<time>2015-05-07T00:33:30Z</time>
				<extensions>
				</extensions>
			</trkpt>
			<trkpt lat="-28.023996" lon="153.026749">
				<ele>127</ele>
				<time>2015-05-07T00:33:31Z</time>
				<extensions>
				</extensions>
			</trkpt>
			<trkpt lat="-28.024319" lon="153.026900">
				<ele>128</ele>
				<time>2015-05-07T00:33:33Z</time>
				<extensions>
				</extensions>
			</trkpt>
			<trkpt lat="-28.024635" lon="153.027052">
				<ele>129</ele>
				<time>2015-05-07T00:33:35Z</time>
				<extensions>
				</extensions>
			</trkpt>
			<trkpt lat="-28.024954" lon="153.027215">
				<ele>128</ele>
				<time>2015-05-07T00:33:37Z</time>
				<extensions>
				</extensions>
			</trkpt>
			<trkpt lat="-28.025273" lon="153.027363">
				<ele>131</ele>
				<time>2015-05-07T00:33:39Z</time>
				<extensions>
				</extensions>
			</trkpt>
			<trkpt lat="-28.025447" lon="153.027435">
				<ele>130</ele>
				<time>2015-05-07T00:33:40Z</time>
				<extensions>
				</extensions>
			</trkpt>
			<trkpt lat="-28.025626" lon="153.027477">
				<ele>130</ele>
				<time>2015-05-07T00:33:41Z</time>
				<extensions>
				</extensions>
			</trkpt>
			<trkpt lat="-28.025987" lon="153.027460">
				<ele>131</ele>
				<time>2015-05-07T00:33:43Z</time>
				<extensions>
				</extensions>
			</trkpt>
			<trkpt lat="-28.026167" lon="153.027427">
				<ele>131</ele>
				<time>2015-05-07T00:33:44Z</time>
				<extensions>
				</extensions>
			</trkpt>
			<trkpt lat="-28.026354" lon="153.027393">
				<ele>132</ele>
				<time>2015-05-07T00:33:45Z</time>
				<extensions>
				</extensions>
			</trkpt>
			<trkpt lat="-28.026536" lon="153.027356">
				<ele>132</ele>
				<time>2015-05-07T00:33:46Z</time>
				<extensions>
				</extensions>
			</trkpt>
			<trkpt lat="-28.026727" lon="153.027301">
				<ele>133</ele>
				<time>2015-05-07T00:33:47Z</time>
				<extensions>
				</extensions>
			</trkpt>
			<trkpt lat="-28.026904" lon="153.027263">
				<ele>133</ele>
				<time>2015-05-07T00:33:48Z</time>
				<extensions>
				</extensions>
			</trkpt>
			<trkpt lat="-28.027260" lon="153.027189">
				<ele>134</ele>
				<time>2015-05-07T00:33:50Z</time>
				<extensions>
				</extensions>
			</trkpt>
			<trkpt lat="-28.027441" lon="153.027162">
				<ele>135</ele>
				<time>2015-05-07T00:33:51Z</time>
				<extensions>
				</extensions>
			</trkpt>
			<trkpt lat="-28.027782" lon="153.027091">
				<ele>137</ele>
				<time>2015-05-07T00:33:53Z</time>
				<extensions>
				</extensions>
			</trkpt>
			<trkpt lat="-28.027966" lon="153.027059">
				<ele>137</ele>
				<time>2015-05-07T00:33:54Z</time>
				<extensions>
				</extensions>
			</trkpt>
			<trkpt lat="-28.028167" lon="153.027018">
				<ele>139</ele>
				<time>2015-05-07T00:33:55Z</time>
				<extensions>
				</extensions>
			</trkpt>
			<trkpt lat="-28.028349" lon="153.026983">
				<ele>138</ele>
				<time>2015-05-07T00:33:56Z</time>
				<extensions>
				</extensions>
			</trkpt>
			<trkpt lat="-28.028546" lon="153.026937">
				<ele>139</ele>
				<time>2015-05-07T00:33:57Z</time>
				<extensions>
				</extensions>
			</trkpt>
			<trkpt lat="-28.028732" lon="153.026890">
				<ele>139</ele>
				<time>2015-05-07T00:33:58Z</time>
				<extensions>
				</extensions>
			</trkpt>
			<trkpt lat="-28.028930" lon="153.026853">
				<ele>139</ele>
				<time>2015-05-07T00:33:59Z</time>
				<extensions>
				</extensions>
			</trkpt>
			<trkpt lat="-28.029127" lon="153.026819">
				<ele>138</ele>
				<time>2015-05-07T00:34:00Z</time>
				<extensions>
				</extensions>
			</trkpt>
			<trkpt lat="-28.029321" lon="153.026782">
				<ele>138</ele>
				<time>2015-05-07T00:34:01Z</time>
				<extensions>
				</extensions>
			</trkpt>
			<trkpt lat="-28.029516" lon="153.026747">
				<ele>140</ele>
				<time>2015-05-07T00:34:02Z</time>
				<extensions>
				</extensions>
			</trkpt>
			<trkpt lat="-28.029716" lon="153.026697">
				<ele>140</ele>
				<time>2015-05-07T00:34:03Z</time>
				<extensions>
				</extensions>
			</trkpt>
			<trkpt lat="-28.029915" lon="153.026655">
				<ele>141</ele>
				<time>2015-05-07T00:34:04Z</time>
				<extensions>
				</extensions>
			</trkpt>
			<trkpt lat="-28.030111" lon="153.026609">
				<ele>141</ele>
				<time>2015-05-07T00:34:05Z</time>
				<extensions>
				</extensions>
			</trkpt>
			<trkpt lat="-28.030303" lon="153.026573">
				<ele>140</ele>
				<time>2015-05-07T00:34:06Z</time>
				<extensions>
				</extensions>
			</trkpt>
			<trkpt lat="-28.030493" lon="153.026540">
				<ele>140</ele>
				<time>2015-05-07T00:34:07Z</time>
				<extensions>
				</extensions>
			</trkpt>
			<trkpt lat="-28.030682" lon="153.026504">
				<ele>140</ele>
				<time>2015-05-07T00:34:08Z</time>
				<extensions>
				</extensions>
			</trkpt>
			<trkpt lat="-28.030869" lon="153.026470">
				<ele>140</ele>
				<time>2015-05-07T00:34:09Z</time>
				<extensions>
				</extensions>
			</trkpt>
			<trkpt lat="-28.031047" lon="153.026428">
				<ele>141</ele>
				<time>2015-05-07T00:34:10Z</time>
				<extensions>
				</extensions>
			</trkpt>
			<trkpt lat="-28.031226" lon="153.026381">
				<ele>142</ele>
				<time>2015-05-07T00:34:11Z</time>
				<extensions>
				</extensions>
			</trkpt>
			<trkpt lat="-28.031407" lon="153.026345">
				<ele>142</ele>
				<time>2015-05-07T00:34:12Z</time>
				<extensions>
				</extensions>
			</trkpt>
			<trkpt lat="-28.031763" lon="153.026269">
				<ele>143</ele>
				<time>2015-05-07T00:34:14Z</time>
				<extensions>
				</extensions>
			</trkpt>
			<trkpt lat="-28.031950" lon="153.026229">
				<ele>143</ele>
				<time>2015-05-07T00:34:15Z</time>
				<extensions>
				</extensions>
			</trkpt>
			<trkpt lat="-28.032320" lon="153.026143">
				<ele>142</ele>
				<time>2015-05-07T00:34:17Z</time>
				<extensions>
				</extensions>
			</trkpt>
			<trkpt lat="-28.032516" lon="153.026107">
				<ele>141</ele>
				<time>2015-05-07T00:34:18Z</time>
				<extensions>
				</extensions>
			</trkpt>
			<trkpt lat="-28.032708" lon="153.026073">
				<ele>141</ele>
				<time>2015-05-07T00:34:19Z</time>
				<extensions>
				</extensions>
			</trkpt>
			<trkpt lat="-28.032898" lon="153.026036">
				<ele>140</ele>
				<time>2015-05-07T00:34:20Z</time>
				<extensions>
				</extensions>
			</trkpt>
			<trkpt lat="-28.033089" lon="153.025996">
				<ele>139</ele>
				<time>2015-05-07T00:34:21Z</time>
				<extensions>
				</extensions>
			</trkpt>
			<trkpt lat="-28.033268" lon="153.025961">
				<ele>139</ele>
				<time>2015-05-07T00:34:22Z</time>
				<extensions>
				</extensions>
			</trkpt>
			<trkpt lat="-28.033449" lon="153.025920">
				<ele>139</ele>
				<time>2015-05-07T00:34:23Z</time>
				<extensions>
				</extensions>
			</trkpt>
			<trkpt lat="-28.033634" lon="153.025891">
				<ele>138</ele>
				<time>2015-05-07T00:34:24Z</time>
				<extensions>
				</extensions>
			</trkpt>
			<trkpt lat="-28.033822" lon="153.025853">
				<ele>139</ele>
				<time>2015-05-07T00:34:25Z</time>
				<extensions>
				</extensions>
			</trkpt>
			<trkpt lat="-28.034005" lon="153.025812">
				<ele>139</ele>
				<time>2015-05-07T00:34:26Z</time>
				<extensions>
				</extensions>
			</trkpt>
			<trkpt lat="-28.034189" lon="153.025775">
				<ele>138</ele>
				<time>2015-05-07T00:34:27Z</time>
				<extensions>
				</extensions>
			</trkpt>
			<trkpt lat="-28.034372" lon="153.025741">
				<ele>138</ele>
				<time>2015-05-07T00:34:28Z</time>
				<extensions>
				</extensions>
			</trkpt>
			<trkpt lat="-28.034561" lon="153.025693">
				<ele>138</ele>
				<time>2015-05-07T00:34:29Z</time>
				<extensions>
				</extensions>
			</trkpt>
			<trkpt lat="-28.034751" lon="153.025653">
				<ele>139</ele>
				<time>2015-05-07T00:34:30Z</time>
				<extensions>
				</extensions>
			</trkpt>
			<trkpt lat="-28.034934" lon="153.025618">
				<ele>139</ele>
				<time>2015-05-07T00:34:31Z</time>
				<extensions>
				</extensions>
			</trkpt>
			<trkpt lat="-28.035279" lon="153.025549">
				<ele>137</ele>
				<time>2015-05-07T00:34:33Z</time>
				<extensions>
				</extensions>
			</trkpt>
			<trkpt lat="-28.035606" lon="153.025484">
				<ele>138</ele>
				<time>2015-05-07T00:34:35Z</time>
				<extensions>
				</extensions>
			</trkpt>
			<trkpt lat="-28.035922" lon="153.025430">
				<ele>137</ele>
				<time>2015-05-07T00:34:37Z</time>
				<extensions>
				</extensions>
			</trkpt>
			<trkpt lat="-28.036238" lon="153.025400">
				<ele>136</ele>
				<time>2015-05-07T00:34:39Z</time>
				<extensions>
				</extensions>
			</trkpt>
			<trkpt lat="-28.036567" lon="153.025412">
				<ele>138</ele>
				<time>2015-05-07T00:34:41Z</time>
				<extensions>
				</extensions>
			</trkpt>
			<trkpt lat="-28.036914" lon="153.025417">
				<ele>136</ele>
				<time>2015-05-07T00:34:43Z</time>
				<extensions>
				</extensions>
			</trkpt>
			<trkpt lat="-28.037270" lon="153.025376">
				<ele>134</ele>
				<time>2015-05-07T00:34:45Z</time>
				<extensions>
				</extensions>
			</trkpt>
			<trkpt lat="-28.037463" lon="153.025343">
				<ele>134</ele>
				<time>2015-05-07T00:34:46Z</time>
				<extensions>
				</extensions>
			</trkpt>
			<trkpt lat="-28.037646" lon="153.025304">
				<ele>134</ele>
				<time>2015-05-07T00:34:47Z</time>
				<extensions>
				</extensions>
			</trkpt>
			<trkpt lat="-28.037837" lon="153.025259">
				<ele>134</ele>
				<time>2015-05-07T00:34:48Z</time>
				<extensions>
				</extensions>
			</trkpt>
			<trkpt lat="-28.038033" lon="153.025216">
				<ele>133</ele>
				<time>2015-05-07T00:34:49Z</time>
				<extensions>
				</extensions>
			</trkpt>
			<trkpt lat="-28.038227" lon="153.025175">
				<ele>134</ele>
				<time>2015-05-07T00:34:50Z</time>
				<extensions>
				</extensions>
			</trkpt>
			<trkpt lat="-28.038416" lon="153.025136">
				<ele>132</ele>
				<time>2015-05-07T00:34:51Z</time>
				<extensions>
				</extensions>
			</trkpt>
			<trkpt lat="-28.038608" lon="153.025100">
				<ele>133</ele>
				<time>2015-05-07T00:34:52Z</time>
				<extensions>
				</extensions>
			</trkpt>
			<trkpt lat="-28.038799" lon="153.025058">
				<ele>132</ele>
				<time>2015-05-07T00:34:53Z</time>
				<extensions>
				</extensions>
			</trkpt>
			<trkpt lat="-28.038991" lon="153.025017">
				<ele>132</ele>
				<time>2015-05-07T00:34:54Z</time>
				<extensions>
				</extensions>
			</trkpt>
			<trkpt lat="-28.039195" lon="153.024976">
				<ele>132</ele>
				<time>2015-05-07T00:34:55Z</time>
				<extensions>
				</extensions>
			</trkpt>
			<trkpt lat="-28.039373" lon="153.024929">
				<ele>131</ele>
				<time>2015-05-07T00:34:56Z</time>
				<extensions>
				</extensions>
			</trkpt>
			<trkpt lat="-28.039576" lon="153.024889">
				<ele>133</ele>
				<time>2015-05-07T00:34:57Z</time>
				<extensions>
				</extensions>
			</trkpt>
			<trkpt lat="-28.039778" lon="153.024854">
				<ele>132</ele>
				<time>2015-05-07T00:34:58Z</time>
				<extensions>
				</extensions>
			</trkpt>
			<trkpt lat="-28.039970" lon="153.024814">
				<ele>133</ele>
				<time>2015-05-07T00:34:59Z</time>
				<extensions>
				</extensions>
			</trkpt>
			<trkpt lat="-28.040155" lon="153.024777">
				<ele>133</ele>
				<time>2015-05-07T00:35:00Z</time>
				<extensions>
				</extensions>
			</trkpt>
			<trkpt lat="-28.040508" lon="153.024694">
				<ele>135</ele>
				<time>2015-05-07T00:35:02Z</time>
				<extensions>
				</extensions>
			</trkpt>
			<trkpt lat="-28.040683" lon="153.024642">
				<ele>135</ele>
				<time>2015-05-07T00:35:03Z</time>
				<extensions>
				</extensions>
			</trkpt>
			<trkpt lat="-28.040880" lon="153.024599">
				<ele>137</ele>
				<time>2015-05-07T00:35:04Z</time>
				<extensions>
				</extensions>
			</trkpt>
			<trkpt lat="-28.041089" lon="153.024561">
				<ele>136</ele>
				<time>2015-05-07T00:35:05Z</time>
				<extensions>
				</extensions>
			</trkpt>
			<trkpt lat="-28.041287" lon="153.024514">
				<ele>135</ele>
				<time>2015-05-07T00:35:06Z</time>
				<extensions>
				</extensions>
			</trkpt>
			<trkpt lat="-28.041480" lon="153.024474">
				<ele>135</ele>
				<time>2015-05-07T00:35:07Z</time>
				<extensions>
				</extensions>
			</trkpt>
			<trkpt lat="-28.041846" lon="153.024396">
				<ele>134</ele>
				<time>2015-05-07T00:35:09Z</time>
				<extensions>
				</extensions>
			</trkpt>
			<trkpt lat="-28.042028" lon="153.024359">
				<ele>134</ele>
				<time>2015-05-07T00:35:10Z</time>
				<extensions>
				</extensions>
			</trkpt>
			<trkpt lat="-28.042213" lon="153.024325">
				<ele>134</ele>
				<time>2015-05-07T00:35:11Z</time>
				<extensions>
				</extensions>
			</trkpt>
			<trkpt lat="-28.042565" lon="153.024257">
				<ele>135</ele>
				<time>2015-05-07T00:35:13Z</time>
				<extensions>
				</extensions>
			</trkpt>
			<trkpt lat="-28.042745" lon="153.024207">
				<ele>134</ele>
				<time>2015-05-07T00:35:14Z</time>
				<extensions>
				</extensions>
			</trkpt>
			<trkpt lat="-28.042935" lon="153.024163">
				<ele>135</ele>
				<time>2015-05-07T00:35:15Z</time>
				<extensions>
				</extensions>
			</trkpt>
			<trkpt lat="-28.043117" lon="153.024123">
				<ele>135</ele>
				<time>2015-05-07T00:35:16Z</time>
				<extensions>
				</extensions>
			</trkpt>
			<trkpt lat="-28.043305" lon="153.024085">
				<ele>135</ele>
				<time>2015-05-07T00:35:17Z</time>
				<extensions>
				</extensions>
			</trkpt>
			<trkpt lat="-28.043516" lon="153.024045">
				<ele>135</ele>
				<time>2015-05-07T00:35:18Z</time>
				<extensions>
				</extensions>
			</trkpt>
			<trkpt lat="-28.043695" lon="153.024012">
				<ele>135</ele>
				<time>2015-05-07T00:35:19Z</time>
				<extensions>
				</extensions>
			</trkpt>
			<trkpt lat="-28.043886" lon="153.023976">
				<ele>137</ele>
				<time>2015-05-07T00:35:20Z</time>
				<extensions>
				</extensions>
			</trkpt>
			<trkpt lat="-28.044081" lon="153.023941">
				<ele>138</ele>
				<time>2015-05-07T00:35:21Z</time>
				<extensions>
				</extensions>
			</trkpt>
			<trkpt lat="-28.044296" lon="153.023901">
				<ele>139</ele>
				<time>2015-05-07T00:35:22Z</time>
				<extensions>
				</extensions>
			</trkpt>
			<trkpt lat="-28.044514" lon="153.023859">
				<ele>143</ele>
				<time>2015-05-07T00:35:23Z</time>
				<extensions>
				</extensions>
			</trkpt>
			<trkpt lat="-28.044729" lon="153.023818">
				<ele>143</ele>
				<time>2015-05-07T00:35:24Z</time>
				<extensions>
				</extensions>
			</trkpt>
			<trkpt lat="-28.044932" lon="153.023779">
				<ele>141</ele>
				<time>2015-05-07T00:35:25Z</time>
				<extensions>
				</extensions>
			</trkpt>
			<trkpt lat="-28.045116" lon="153.023744">
				<ele>140</ele>
				<time>2015-05-07T00:35:26Z</time>
				<extensions>
				</extensions>
			</trkpt>
			<trkpt lat="-28.045299" lon="153.023708">
				<ele>139</ele>
				<time>2015-05-07T00:35:27Z</time>
				<extensions>
				</extensions>
			</trkpt>
			<trkpt lat="-28.045493" lon="153.023671">
				<ele>140</ele>
				<time>2015-05-07T00:35:28Z</time>
				<extensions>
				</extensions>
			</trkpt>
			<trkpt lat="-28.045690" lon="153.023633">
				<ele>140</ele>
				<time>2015-05-07T00:35:29Z</time>
				<extensions>
				</extensions>
			</trkpt>
			<trkpt lat="-28.045877" lon="153.023597">
				<ele>142</ele>
				<time>2015-05-07T00:35:30Z</time>
				<extensions>
				</extensions>
			</trkpt>
			<trkpt lat="-28.046070" lon="153.023559">
				<ele>143</ele>
				<time>2015-05-07T00:35:31Z</time>
				<extensions>
				</extensions>
			</trkpt>
			<trkpt lat="-28.046256" lon="153.023523">
				<ele>143</ele>
				<time>2015-05-07T00:35:32Z</time>
				<extensions>
				</extensions>
			</trkpt>
			<trkpt lat="-28.046440" lon="153.023487">
				<ele>143</ele>
				<time>2015-05-07T00:35:33Z</time>
				<extensions>
				</extensions>
			</trkpt>
			<trkpt lat="-28.046623" lon="153.023449">
				<ele>143</ele>
				<time>2015-05-07T00:35:34Z</time>
				<extensions>
				</extensions>
			</trkpt>
			<trkpt lat="-28.046808" lon="153.023411">
				<ele>141</ele>
				<time>2015-05-07T00:35:35Z</time>
				<extensions>
				</extensions>
			</trkpt>
			<trkpt lat="-28.046994" lon="153.023373">
				<ele>140</ele>
				<time>2015-05-07T00:35:36Z</time>
				<extensions>
				</extensions>
			</trkpt>
			<trkpt lat="-28.047209" lon="153.023329">
				<ele>142</ele>
				<time>2015-05-07T00:35:37Z</time>
				<extensions>
				</extensions>
			</trkpt>
			<trkpt lat="-28.047403" lon="153.023290">
				<ele>142</ele>
				<time>2015-05-07T00:35:38Z</time>
				<extensions>
				</extensions>
			</trkpt>
			<trkpt lat="-28.047607" lon="153.023248">
				<ele>141</ele>
				<time>2015-05-07T00:35:39Z</time>
				<extensions>
				</extensions>
			</trkpt>
			<trkpt lat="-28.047810" lon="153.023207">
				<ele>139</ele>
				<time>2015-05-07T00:35:40Z</time>
				<extensions>
				</extensions>
			</trkpt>
			<trkpt lat="-28.048010" lon="153.023166">
				<ele>140</ele>
				<time>2015-05-07T00:35:41Z</time>
				<extensions>
				</extensions>
			</trkpt>
			<trkpt lat="-28.048216" lon="153.023125">
				<ele>140</ele>
				<time>2015-05-07T00:35:42Z</time>
				<extensions>
				</extensions>
			</trkpt>
			<trkpt lat="-28.048435" lon="153.023081">
				<ele>140</ele>
				<time>2015-05-07T00:35:43Z</time>
				<extensions>
				</extensions>
			</trkpt>
			<trkpt lat="-28.048635" lon="153.023043">
				<ele>139</ele>
				<time>2015-05-07T00:35:44Z</time>
				<extensions>
				</extensions>
			</trkpt>
			<trkpt lat="-28.048850" lon="153.023008">
				<ele>142</ele>
				<time>2015-05-07T00:35:45Z</time>
				<extensions>
				</extensions>
			</trkpt>
			<trkpt lat="-28.049053" lon="153.022982">
				<ele>143</ele>
				<time>2015-05-07T00:35:46Z</time>
				<extensions>
				</extensions>
			</trkpt>
			<trkpt lat="-28.049242" lon="153.022967">
				<ele>143</ele>
				<time>2015-05-07T00:35:47Z</time>
				<extensions>
				</extensions>
			</trkpt>
			<trkpt lat="-28.049432" lon="153.022974">
				<ele>146</ele>
				<time>2015-05-07T00:35:48Z</time>
				<extensions>
				</extensions>
			</trkpt>
			<trkpt lat="-28.049616" lon="153.022999">
				<ele>148</ele>
				<time>2015-05-07T00:35:49Z</time>
				<extensions>
				</extensions>
			</trkpt>
			<trkpt lat="-28.049801" lon="153.023036">
				<ele>147</ele>
				<time>2015-05-07T00:35:50Z</time>
				<extensions>
				</extensions>
			</trkpt>
			<trkpt lat="-28.050162" lon="153.023157">
				<ele>148</ele>
				<time>2015-05-07T00:35:52Z</time>
				<extensions>
				</extensions>
			</trkpt>
			<trkpt lat="-28.050334" lon="153.023227">
				<ele>147</ele>
				<time>2015-05-07T00:35:53Z</time>
				<extensions>
				</extensions>
			</trkpt>
			<trkpt lat="-28.050512" lon="153.023305">
				<ele>146</ele>
				<time>2015-05-07T00:35:54Z</time>
				<extensions>
				</extensions>
			</trkpt>
			<trkpt lat="-28.050691" lon="153.023389">
				<ele>145</ele>
				<time>2015-05-07T00:35:55Z</time>
				<extensions>
				</extensions>
			</trkpt>
			<trkpt lat="-28.050886" lon="153.023487">
				<ele>144</ele>
				<time>2015-05-07T00:35:56Z</time>
				<extensions>
				</extensions>
			</trkpt>
			<trkpt lat="-28.051235" lon="153.023668">
				<ele>142</ele>
				<time>2015-05-07T00:35:58Z</time>
				<extensions>
				</extensions>
			</trkpt>
			<trkpt lat="-28.051415" lon="153.023761">
				<ele>142</ele>
				<time>2015-05-07T00:35:59Z</time>
				<extensions>
				</extensions>
			</trkpt>
			<trkpt lat="-28.051605" lon="153.023859">
				<ele>141</ele>
				<time>2015-05-07T00:36:00Z</time>
				<extensions>
				</extensions>
			</trkpt>
			<trkpt lat="-28.051794" lon="153.023961">
				<ele>140</ele>
				<time>2015-05-07T00:36:01Z</time>
				<extensions>
				</extensions>
			</trkpt>
			<trkpt lat="-28.051983" lon="153.024067">
				<ele>139</ele>
				<time>2015-05-07T00:36:02Z</time>
				<extensions>
				</extensions>
			</trkpt>
			<trkpt lat="-28.052166" lon="153.024173">
				<ele>136</ele>
				<time>2015-05-07T00:36:03Z</time>
				<extensions>
				</extensions>
			</trkpt>
			<trkpt lat="-28.052344" lon="153.024278">
				<ele>136</ele>
				<time>2015-05-07T00:36:04Z</time>
				<extensions>
				</extensions>
			</trkpt>
			<trkpt lat="-28.052528" lon="153.024361">
				<ele>133</ele>
				<time>2015-05-07T00:36:05Z</time>
				<extensions>
				</extensions>
			</trkpt>
			<trkpt lat="-28.052699" lon="153.024459">
				<ele>132</ele>
				<time>2015-05-07T00:36:06Z</time>
				<extensions>
				</extensions>
			</trkpt>
			<trkpt lat="-28.052998" lon="153.024665">
				<ele>133</ele>
				<time>2015-05-07T00:36:08Z</time>
				<extensions>
				</extensions>
			</trkpt>
			<trkpt lat="-28.053277" lon="153.024891">
				<ele>134</ele>
				<time>2015-05-07T00:36:10Z</time>
				<extensions>
				</extensions>
			</trkpt>
			<trkpt lat="-28.053422" lon="153.025019">
				<ele>135</ele>
				<time>2015-05-07T00:36:11Z</time>
				<extensions>
				</extensions>
			</trkpt>
			<trkpt lat="-28.053562" lon="153.025157">
				<ele>135</ele>
				<time>2015-05-07T00:36:12Z</time>
				<extensions>
				</extensions>
			</trkpt>
			<trkpt lat="-28.053700" lon="153.025299">
				<ele>135</ele>
				<time>2015-05-07T00:36:13Z</time>
				<extensions>
				</extensions>
			</trkpt>
			<trkpt lat="-28.053845" lon="153.025454">
				<ele>135</ele>
				<time>2015-05-07T00:36:14Z</time>
				<extensions>
				</extensions>
			</trkpt>
			<trkpt lat="-28.053981" lon="153.025599">
				<ele>135</ele>
				<time>2015-05-07T00:36:15Z</time>
				<extensions>
				</extensions>
			</trkpt>
			<trkpt lat="-28.054126" lon="153.025753">
				<ele>135</ele>
				<time>2015-05-07T00:36:16Z</time>
				<extensions>
				</extensions>
			</trkpt>
			<trkpt lat="-28.054275" lon="153.025912">
				<ele>134</ele>
				<time>2015-05-07T00:36:17Z</time>
				<extensions>
				</extensions>
			</trkpt>
			<trkpt lat="-28.054422" lon="153.026070">
				<ele>132</ele>
				<time>2015-05-07T00:36:18Z</time>
				<extensions>
				</extensions>
			</trkpt>
			<trkpt lat="-28.054560" lon="153.026218">
				<ele>133</ele>
				<time>2015-05-07T00:36:19Z</time>
				<extensions>
				</extensions>
			</trkpt>
			<trkpt lat="-28.054703" lon="153.026371">
				<ele>131</ele>
				<time>2015-05-07T00:36:20Z</time>
				<extensions>
				</extensions>
			</trkpt>
			<trkpt lat="-28.054841" lon="153.026523">
				<ele>131</ele>
				<time>2015-05-07T00:36:21Z</time>
				<extensions>
				</extensions>
			</trkpt>
			<trkpt lat="-28.054976" lon="153.026676">
				<ele>131</ele>
				<time>2015-05-07T00:36:22Z</time>
				<extensions>
				</extensions>
			</trkpt>
			<trkpt lat="-28.055114" lon="153.026825">
				<ele>130</ele>
				<time>2015-05-07T00:36:23Z</time>
				<extensions>
				</extensions>
			</trkpt>
			<trkpt lat="-28.055258" lon="153.026972">
				<ele>129</ele>
				<time>2015-05-07T00:36:24Z</time>
				<extensions>
				</extensions>
			</trkpt>
			<trkpt lat="-28.055394" lon="153.027128">
				<ele>129</ele>
				<time>2015-05-07T00:36:25Z</time>
				<extensions>
				</extensions>
			</trkpt>
			<trkpt lat="-28.055525" lon="153.027272">
				<ele>129</ele>
				<time>2015-05-07T00:36:26Z</time>
				<extensions>
				</extensions>
			</trkpt>
			<trkpt lat="-28.055657" lon="153.027414">
				<ele>130</ele>
				<time>2015-05-07T00:36:27Z</time>
				<extensions>
				</extensions>
			</trkpt>
			<trkpt lat="-28.055914" lon="153.027656">
				<ele>126</ele>
				<time>2015-05-07T00:36:29Z</time>
				<extensions>
				</extensions>
			</trkpt>
			<trkpt lat="-28.056213" lon="153.027826">
				<ele>126</ele>
				<time>2015-05-07T00:36:31Z</time>
				<extensions>
				</extensions>
			</trkpt>
			<trkpt lat="-28.056543" lon="153.027919">
				<ele>129</ele>
				<time>2015-05-07T00:36:33Z</time>
				<extensions>
				</extensions>
			</trkpt>
			<trkpt lat="-28.056900" lon="153.027935">
				<ele>130</ele>
				<time>2015-05-07T00:36:35Z</time>
				<extensions>
				</extensions>
			</trkpt>
			<trkpt lat="-28.057088" lon="153.027890">
				<ele>130</ele>
				<time>2015-05-07T00:36:36Z</time>
				<extensions>
				</extensions>
			</trkpt>
			<trkpt lat="-28.057275" lon="153.027855">
				<ele>132</ele>
				<time>2015-05-07T00:36:37Z</time>
				<extensions>
				</extensions>
			</trkpt>
			<trkpt lat="-28.057461" lon="153.027825">
				<ele>135</ele>
				<time>2015-05-07T00:36:38Z</time>
				<extensions>
				</extensions>
			</trkpt>
			<trkpt lat="-28.057646" lon="153.027798">
				<ele>134</ele>
				<time>2015-05-07T00:36:39Z</time>
				<extensions>
				</extensions>
			</trkpt>
			<trkpt lat="-28.057847" lon="153.027764">
				<ele>133</ele>
				<time>2015-05-07T00:36:40Z</time>
				<extensions>
				</extensions>
			</trkpt>
			<trkpt lat="-28.058037" lon="153.027717">
				<ele>133</ele>
				<time>2015-05-07T00:36:41Z</time>
				<extensions>
				</extensions>
			</trkpt>
			<trkpt lat="-28.058222" lon="153.027685">
				<ele>133</ele>
				<time>2015-05-07T00:36:42Z</time>
				<extensions>
				</extensions>
			</trkpt>
			<trkpt lat="-28.058413" lon="153.027656">
				<ele>133</ele>
				<time>2015-05-07T00:36:43Z</time>
				<extensions>
				</extensions>
			</trkpt>
			<trkpt lat="-28.058606" lon="153.027615">
				<ele>133</ele>
				<time>2015-05-07T00:36:44Z</time>
				<extensions>
				</extensions>
			</trkpt>
			<trkpt lat="-28.058814" lon="153.027576">
				<ele>132</ele>
				<time>2015-05-07T00:36:45Z</time>
				<extensions>
				</extensions>
			</trkpt>
			<trkpt lat="-28.059008" lon="153.027536">
				<ele>133</ele>
				<time>2015-05-07T00:36:46Z</time>
				<extensions>
				</extensions>
			</trkpt>
			<trkpt lat="-28.059371" lon="153.027474">
				<ele>135</ele>
				<time>2015-05-07T00:36:48Z</time>
				<extensions>
				</extensions>
			</trkpt>
			<trkpt lat="-28.059553" lon="153.027442">
				<ele>134</ele>
				<time>2015-05-07T00:36:49Z</time>
				<extensions>
				</extensions>
			</trkpt>
			<trkpt lat="-28.059905" lon="153.027381">
				<ele>134</ele>
				<time>2015-05-07T00:36:51Z</time>
				<extensions>
				</extensions>
			</trkpt>
			<trkpt lat="-28.060265" lon="153.027320">
				<ele>134</ele>
				<time>2015-05-07T00:36:53Z</time>
				<extensions>
				</extensions>
			</trkpt>
			<trkpt lat="-28.060617" lon="153.027259">
				<ele>135</ele>
				<time>2015-05-07T00:36:55Z</time>
				<extensions>
				</extensions>
			</trkpt>
			<trkpt lat="-28.060818" lon="153.027228">
				<ele>135</ele>
				<time>2015-05-07T00:36:56Z</time>
				<extensions>
				</extensions>
			</trkpt>
			<trkpt lat="-28.061006" lon="153.027201">
				<ele>134</ele>
				<time>2015-05-07T00:36:57Z</time>
				<extensions>
				</extensions>
			</trkpt>
			<trkpt lat="-28.061206" lon="153.027175">
				<ele>134</ele>
				<time>2015-05-07T00:36:58Z</time>
				<extensions>
				</extensions>
			</trkpt>
			<trkpt lat="-28.061399" lon="153.027160">
				<ele>134</ele>
				<time>2015-05-07T00:36:59Z</time>
				<extensions>
				</extensions>
			</trkpt>
			<trkpt lat="-28.061600" lon="153.027180">
				<ele>136</ele>
				<time>2015-05-07T00:37:00Z</time>
				<extensions>
				</extensions>
			</trkpt>
			<trkpt lat="-28.061806" lon="153.027193">
				<ele>136</ele>
				<time>2015-05-07T00:37:01Z</time>
				<extensions>
				</extensions>
			</trkpt>
			<trkpt lat="-28.062009" lon="153.027211">
				<ele>135</ele>
				<time>2015-05-07T00:37:02Z</time>
				<extensions>
				</extensions>
			</trkpt>
			<trkpt lat="-28.062231" lon="153.027238">
				<ele>134</ele>
				<time>2015-05-07T00:37:03Z</time>
				<extensions>
				</extensions>
			</trkpt>
			<trkpt lat="-28.062432" lon="153.027266">
				<ele>136</ele>
				<time>2015-05-07T00:37:04Z</time>
				<extensions>
				</extensions>
			</trkpt>
			<trkpt lat="-28.062623" lon="153.027288">
				<ele>136</ele>
				<time>2015-05-07T00:37:05Z</time>
				<extensions>
				</extensions>
			</trkpt>
			<trkpt lat="-28.062804" lon="153.027307">
				<ele>135</ele>
				<time>2015-05-07T00:37:06Z</time>
				<extensions>
				</extensions>
			</trkpt>
			<trkpt lat="-28.062995" lon="153.027331">
				<ele>136</ele>
				<time>2015-05-07T00:37:07Z</time>
				<extensions>
				</extensions>
			</trkpt>
			<trkpt lat="-28.063180" lon="153.027351">
				<ele>136</ele>
				<time>2015-05-07T00:37:08Z</time>
				<extensions>
				</extensions>
			</trkpt>
			<trkpt lat="-28.063379" lon="153.027378">
				<ele>135</ele>
				<time>2015-05-07T00:37:09Z</time>
				<extensions>
				</extensions>
			</trkpt>
			<trkpt lat="-28.063581" lon="153.027406">
				<ele>134</ele>
				<time>2015-05-07T00:37:10Z</time>
				<extensions>
				</extensions>
			</trkpt>
			<trkpt lat="-28.063775" lon="153.027431">
				<ele>135</ele>
				<time>2015-05-07T00:37:11Z</time>
				<extensions>
				</extensions>
			</trkpt>
			<trkpt lat="-28.063979" lon="153.027457">
				<ele>134</ele>
				<time>2015-05-07T00:37:12Z</time>
				<extensions>
				</extensions>
			</trkpt>
			<trkpt lat="-28.064180" lon="153.027473">
				<ele>135</ele>
				<time>2015-05-07T00:37:13Z</time>
				<extensions>
				</extensions>
			</trkpt>
			<trkpt lat="-28.064381" lon="153.027499">
				<ele>136</ele>
				<time>2015-05-07T00:37:14Z</time>
				<extensions>
				</extensions>
			</trkpt>
			<trkpt lat="-28.064577" lon="153.027519">
				<ele>134</ele>
				<time>2015-05-07T00:37:15Z</time>
				<extensions>
				</extensions>
			</trkpt>
			<trkpt lat="-28.064775" lon="153.027548">
				<ele>135</ele>
				<time>2015-05-07T00:37:16Z</time>
				<extensions>
				</extensions>
			</trkpt>
			<trkpt lat="-28.064975" lon="153.027572">
				<ele>135</ele>
				<time>2015-05-07T00:37:17Z</time>
				<extensions>
				</extensions>
			</trkpt>
			<trkpt lat="-28.065170" lon="153.027606">
				<ele>135</ele>
				<time>2015-05-07T00:37:18Z</time>
				<extensions>
				</extensions>
			</trkpt>
			<trkpt lat="-28.065355" lon="153.027620">
				<ele>134</ele>
				<time>2015-05-07T00:37:19Z</time>
				<extensions>
				</extensions>
			</trkpt>
			<trkpt lat="-28.065545" lon="153.027646">
				<ele>133</ele>
				<time>2015-05-07T00:37:20Z</time>
				<extensions>
				</extensions>
			</trkpt>
			<trkpt lat="-28.065735" lon="153.027655">
				<ele>133</ele>
				<time>2015-05-07T00:37:21Z</time>
				<extensions>
				</extensions>
			</trkpt>
			<trkpt lat="-28.065925" lon="153.027678">
				<ele>132</ele>
				<time>2015-05-07T00:37:22Z</time>
				<extensions>
				</extensions>
			</trkpt>
			<trkpt lat="-28.066116" lon="153.027696">
				<ele>130</ele>
				<time>2015-05-07T00:37:23Z</time>
				<extensions>
				</extensions>
			</trkpt>
			<trkpt lat="-28.066301" lon="153.027708">
				<ele>132</ele>
				<time>2015-05-07T00:37:24Z</time>
				<extensions>
				</extensions>
			</trkpt>
			<trkpt lat="-28.066497" lon="153.027715">
				<ele>130</ele>
				<time>2015-05-07T00:37:25Z</time>
				<extensions>
				</extensions>
			</trkpt>
			<trkpt lat="-28.066683" lon="153.027718">
				<ele>128</ele>
				<time>2015-05-07T00:37:26Z</time>
				<extensions>
				</extensions>
			</trkpt>
			<trkpt lat="-28.066871" lon="153.027718">
				<ele>128</ele>
				<time>2015-05-07T00:37:27Z</time>
				<extensions>
				</extensions>
			</trkpt>
			<trkpt lat="-28.067058" lon="153.027715">
				<ele>127</ele>
				<time>2015-05-07T00:37:28Z</time>
				<extensions>
				</extensions>
			</trkpt>
			<trkpt lat="-28.067247" lon="153.027715">
				<ele>127</ele>
				<time>2015-05-07T00:37:29Z</time>
				<extensions>
				</extensions>
			</trkpt>
			<trkpt lat="-28.067455" lon="153.027714">
				<ele>127</ele>
				<time>2015-05-07T00:37:30Z</time>
				<extensions>
				</extensions>
			</trkpt>
			<trkpt lat="-28.067661" lon="153.027708">
				<ele>128</ele>
				<time>2015-05-07T00:37:31Z</time>
				<extensions>
				</extensions>
			</trkpt>
			<trkpt lat="-28.067869" lon="153.027703">
				<ele>129</ele>
				<time>2015-05-07T00:37:32Z</time>
				<extensions>
				</extensions>
			</trkpt>
			<trkpt lat="-28.068087" lon="153.027682">
				<ele>131</ele>
				<time>2015-05-07T00:37:33Z</time>
				<extensions>
				</extensions>
			</trkpt>
			<trkpt lat="-28.068302" lon="153.027661">
				<ele>131</ele>
				<time>2015-05-07T00:37:34Z</time>
				<extensions>
				</extensions>
			</trkpt>
			<trkpt lat="-28.068509" lon="153.027630">
				<ele>128</ele>
				<time>2015-05-07T00:37:35Z</time>
				<extensions>
				</extensions>
			</trkpt>
			<trkpt lat="-28.068716" lon="153.027622">
				<ele>127</ele>
				<time>2015-05-07T00:37:36Z</time>
				<extensions>
				</extensions>
			</trkpt>
			<trkpt lat="-28.068908" lon="153.027611">
				<ele>128</ele>
				<time>2015-05-07T00:37:37Z</time>
				<extensions>
				</extensions>
			</trkpt>
			<trkpt lat="-28.069099" lon="153.027583">
				<ele>127</ele>
				<time>2015-05-07T00:37:38Z</time>
				<extensions>
				</extensions>
			</trkpt>
			<trkpt lat="-28.069282" lon="153.027578">
				<ele>128</ele>
				<time>2015-05-07T00:37:39Z</time>
				<extensions>
				</extensions>
			</trkpt>
			<trkpt lat="-28.069611" lon="153.027568">
				<ele>125</ele>
				<time>2015-05-07T00:37:41Z</time>
				<extensions>
				</extensions>
			</trkpt>
			<trkpt lat="-28.069926" lon="153.027557">
				<ele>123</ele>
				<time>2015-05-07T00:37:43Z</time>
				<extensions>
				</extensions>
			</trkpt>
			<trkpt lat="-28.070257" lon="153.027547">
				<ele>125</ele>
				<time>2015-05-07T00:37:45Z</time>
				<extensions>
				</extensions>
			</trkpt>
			<trkpt lat="-28.070613" lon="153.027539">
				<ele>128</ele>
				<time>2015-05-07T00:37:47Z</time>
				<extensions>
				</extensions>
			</trkpt>
			<trkpt lat="-28.070805" lon="153.027536">
				<ele>129</ele>
				<time>2015-05-07T00:37:48Z</time>
				<extensions>
				</extensions>
			</trkpt>
			<trkpt lat="-28.071001" lon="153.027539">
				<ele>129</ele>
				<time>2015-05-07T00:37:49Z</time>
				<extensions>
				</extensions>
			</trkpt>
			<trkpt lat="-28.071190" lon="153.027532">
				<ele>130</ele>
				<time>2015-05-07T00:37:50Z</time>
				<extensions>
				</extensions>
			</trkpt>
			<trkpt lat="-28.071374" lon="153.027526">
				<ele>130</ele>
				<time>2015-05-07T00:37:51Z</time>
				<extensions>
				</extensions>
			</trkpt>
			<trkpt lat="-28.071566" lon="153.027513">
				<ele>129</ele>
				<time>2015-05-07T00:37:52Z</time>
				<extensions>
				</extensions>
			</trkpt>
			<trkpt lat="-28.071753" lon="153.027509">
				<ele>130</ele>
				<time>2015-05-07T00:37:53Z</time>
				<extensions>
				</extensions>
			</trkpt>
			<trkpt lat="-28.071943" lon="153.027499">
				<ele>131</ele>
				<time>2015-05-07T00:37:54Z</time>
				<extensions>
				</extensions>
			</trkpt>
			<trkpt lat="-28.072141" lon="153.027482">
				<ele>131</ele>
				<time>2015-05-07T00:37:55Z</time>
				<extensions>
				</extensions>
			</trkpt>
			<trkpt lat="-28.072332" lon="153.027479">
				<ele>130</ele>
				<time>2015-05-07T00:37:56Z</time>
				<extensions>
				</extensions>
			</trkpt>
			<trkpt lat="-28.072518" lon="153.027475">
				<ele>130</ele>
				<time>2015-05-07T00:37:57Z</time>
				<extensions>
				</extensions>
			</trkpt>
			<trkpt lat="-28.072866" lon="153.027455">
				<ele>130</ele>
				<time>2015-05-07T00:37:59Z</time>
				<extensions>
				</extensions>
			</trkpt>
			<trkpt lat="-28.073223" lon="153.027429">
				<ele>129</ele>
				<time>2015-05-07T00:38:01Z</time>
				<extensions>
				</extensions>
			</trkpt>
			<trkpt lat="-28.073551" lon="153.027380">
				<ele>129</ele>
				<time>2015-05-07T00:38:03Z</time>
				<extensions>
				</extensions>
			</trkpt>
			<trkpt lat="-28.073889" lon="153.027314">
				<ele>126</ele>
				<time>2015-05-07T00:38:05Z</time>
				<extensions>
				</extensions>
			</trkpt>
			<trkpt lat="-28.074241" lon="153.027211">
				<ele>125</ele>
				<time>2015-05-07T00:38:07Z</time>
				<extensions>
				</extensions>
			</trkpt>
			<trkpt lat="-28.074427" lon="153.027137">
				<ele>124</ele>
				<time>2015-05-07T00:38:08Z</time>
				<extensions>
				</extensions>
			</trkpt>
			<trkpt lat="-28.074609" lon="153.027065">
				<ele>124</ele>
				<time>2015-05-07T00:38:09Z</time>
				<extensions>
				</extensions>
			</trkpt>
			<trkpt lat="-28.074781" lon="153.026968">
				<ele>124</ele>
				<time>2015-05-07T00:38:10Z</time>
				<extensions>
				</extensions>
			</trkpt>
			<trkpt lat="-28.074953" lon="153.026888">
				<ele>122</ele>
				<time>2015-05-07T00:38:11Z</time>
				<extensions>
				</extensions>
			</trkpt>
			<trkpt lat="-28.075124" lon="153.026795">
				<ele>120</ele>
				<time>2015-05-07T00:38:12Z</time>
				<extensions>
				</extensions>
			</trkpt>
			<trkpt lat="-28.075296" lon="153.026695">
				<ele>119</ele>
				<time>2015-05-07T00:38:13Z</time>
				<extensions>
				</extensions>
			</trkpt>
			<trkpt lat="-28.075461" lon="153.026592">
				<ele>119</ele>
				<time>2015-05-07T00:38:14Z</time>
				<extensions>
				</extensions>
			</trkpt>
			<trkpt lat="-28.075622" lon="153.026487">
				<ele>119</ele>
				<time>2015-05-07T00:38:15Z</time>
				<extensions>
				</extensions>
			</trkpt>
			<trkpt lat="-28.075775" lon="153.026376">
				<ele>120</ele>
				<time>2015-05-07T00:38:16Z</time>
				<extensions>
				</extensions>
			</trkpt>
			<trkpt lat="-28.076075" lon="153.026131">
				<ele>121</ele>
				<time>2015-05-07T00:38:18Z</time>
				<extensions>
				</extensions>
			</trkpt>
			<trkpt lat="-28.076223" lon="153.026008">
				<ele>121</ele>
				<time>2015-05-07T00:38:19Z</time>
				<extensions>
				</extensions>
			</trkpt>
			<trkpt lat="-28.076372" lon="153.025879">
				<ele>122</ele>
				<time>2015-05-07T00:38:20Z</time>
				<extensions>
				</extensions>
			</trkpt>
			<trkpt lat="-28.076509" lon="153.025745">
				<ele>122</ele>
				<time>2015-05-07T00:38:21Z</time>
				<extensions>
				</extensions>
			</trkpt>
			<trkpt lat="-28.076654" lon="153.025607">
				<ele>123</ele>
				<time>2015-05-07T00:38:22Z</time>
				<extensions>
				</extensions>
			</trkpt>
			<trkpt lat="-28.076797" lon="153.025472">
				<ele>125</ele>
				<time>2015-05-07T00:38:23Z</time>
				<extensions>
				</extensions>
			</trkpt>
			<trkpt lat="-28.076958" lon="153.025317">
				<ele>126</ele>
				<time>2015-05-07T00:38:24Z</time>
				<extensions>
				</extensions>
			</trkpt>
			<trkpt lat="-28.077098" lon="153.025180">
				<ele>126</ele>
				<time>2015-05-07T00:38:25Z</time>
				<extensions>
				</extensions>
			</trkpt>
			<trkpt lat="-28.077249" lon="153.025042">
				<ele>127</ele>
				<time>2015-05-07T00:38:26Z</time>
				<extensions>
				</extensions>
			</trkpt>
			<trkpt lat="-28.077396" lon="153.024898">
				<ele>125</ele>
				<time>2015-05-07T00:38:27Z</time>
				<extensions>
				</extensions>
			</trkpt>
			<trkpt lat="-28.077529" lon="153.024761">
				<ele>124</ele>
				<time>2015-05-07T00:38:28Z</time>
				<extensions>
				</extensions>
			</trkpt>
			<trkpt lat="-28.077673" lon="153.024619">
				<ele>122</ele>
				<time>2015-05-07T00:38:29Z</time>
				<extensions>
				</extensions>
			</trkpt>
			<trkpt lat="-28.077819" lon="153.024470">
				<ele>122</ele>
				<time>2015-05-07T00:38:30Z</time>
				<extensions>
				</extensions>
			</trkpt>
			<trkpt lat="-28.077963" lon="153.024320">
				<ele>121</ele>
				<time>2015-05-07T00:38:31Z</time>
				<extensions>
				</extensions>
			</trkpt>
			<trkpt lat="-28.078105" lon="153.024180">
				<ele>120</ele>
				<time>2015-05-07T00:38:32Z</time>
				<extensions>
				</extensions>
			</trkpt>
			<trkpt lat="-28.078255" lon="153.024029">
				<ele>119</ele>
				<time>2015-05-07T00:38:33Z</time>
				<extensions>
				</extensions>
			</trkpt>
			<trkpt lat="-28.078395" lon="153.023891">
				<ele>121</ele>
				<time>2015-05-07T00:38:34Z</time>
				<extensions>
				</extensions>
			</trkpt>
			<trkpt lat="-28.078538" lon="153.023742">
				<ele>120</ele>
				<time>2015-05-07T00:38:35Z</time>
				<extensions>
				</extensions>
			</trkpt>
			<trkpt lat="-28.078683" lon="153.023612">
				<ele>120</ele>
				<time>2015-05-07T00:38:36Z</time>
				<extensions>
				</extensions>
			</trkpt>
			<trkpt lat="-28.078830" lon="153.023464">
				<ele>119</ele>
				<time>2015-05-07T00:38:37Z</time>
				<extensions>
				</extensions>
			</trkpt>
			<trkpt lat="-28.079093" lon="153.023184">
				<ele>119</ele>
				<time>2015-05-07T00:38:39Z</time>
				<extensions>
				</extensions>
			</trkpt>
			<trkpt lat="-28.079231" lon="153.023045">
				<ele>119</ele>
				<time>2015-05-07T00:38:40Z</time>
				<extensions>
				</extensions>
			</trkpt>
			<trkpt lat="-28.079368" lon="153.022905">
				<ele>119</ele>
				<time>2015-05-07T00:38:41Z</time>
				<extensions>
				</extensions>
			</trkpt>
			<trkpt lat="-28.079507" lon="153.022768">
				<ele>118</ele>
				<time>2015-05-07T00:38:42Z</time>
				<extensions>
				</extensions>
			</trkpt>
			<trkpt lat="-28.079652" lon="153.022618">
				<ele>117</ele>
				<time>2015-05-07T00:38:43Z</time>
				<extensions>
				</extensions>
			</trkpt>
			<trkpt lat="-28.079960" lon="153.022391">
				<ele>116</ele>
				<time>2015-05-07T00:38:45Z</time>
				<extensions>
				</extensions>
			</trkpt>
			<trkpt lat="-28.080114" lon="153.022272">
				<ele>116</ele>
				<time>2015-05-07T00:38:46Z</time>
				<extensions>
				</extensions>
			</trkpt>
			<trkpt lat="-28.080265" lon="153.022159">
				<ele>114</ele>
				<time>2015-05-07T00:38:47Z</time>
				<extensions>
				</extensions>
			</trkpt>
			<trkpt lat="-28.080424" lon="153.022046">
				<ele>114</ele>
				<time>2015-05-07T00:38:48Z</time>
				<extensions>
				</extensions>
			</trkpt>
			<trkpt lat="-28.080578" lon="153.021931">
				<ele>114</ele>
				<time>2015-05-07T00:38:49Z</time>
				<extensions>
				</extensions>
			</trkpt>
			<trkpt lat="-28.080737" lon="153.021810">
				<ele>111</ele>
				<time>2015-05-07T00:38:50Z</time>
				<extensions>
				</extensions>
			</trkpt>
			<trkpt lat="-28.080892" lon="153.021697">
				<ele>109</ele>
				<time>2015-05-07T00:38:51Z</time>
				<extensions>
				</extensions>
			</trkpt>
			<trkpt lat="-28.081049" lon="153.021576">
				<ele>108</ele>
				<time>2015-05-07T00:38:52Z</time>
				<extensions>
				</extensions>
			</trkpt>
			<trkpt lat="-28.081345" lon="153.021350">
				<ele>108</ele>
				<time>2015-05-07T00:38:54Z</time>
				<extensions>
				</extensions>
			</trkpt>
			<trkpt lat="-28.081645" lon="153.021125">
				<ele>106</ele>
				<time>2015-05-07T00:38:56Z</time>
				<extensions>
				</extensions>
			</trkpt>
			<trkpt lat="-28.081940" lon="153.020925">
				<ele>108</ele>
				<time>2015-05-07T00:38:58Z</time>
				<extensions>
				</extensions>
			</trkpt>
			<trkpt lat="-28.082100" lon="153.020819">
				<ele>107</ele>
				<time>2015-05-07T00:38:59Z</time>
				<extensions>
				</extensions>
			</trkpt>
			<trkpt lat="-28.082420" lon="153.020685">
				<ele>107</ele>
				<time>2015-05-07T00:39:01Z</time>
				<extensions>
				</extensions>
			</trkpt>
			<trkpt lat="-28.082732" lon="153.020668">
				<ele>106</ele>
				<time>2015-05-07T00:39:03Z</time>
				<extensions>
				</extensions>
			</trkpt>
			<trkpt lat="-28.083051" lon="153.020708">
				<ele>105</ele>
				<time>2015-05-07T00:39:05Z</time>
				<extensions>
				</extensions>
			</trkpt>
			<trkpt lat="-28.083408" lon="153.020776">
				<ele>106</ele>
				<time>2015-05-07T00:39:07Z</time>
				<extensions>
				</extensions>
			</trkpt>
			<trkpt lat="-28.083758" lon="153.020842">
				<ele>107</ele>
				<time>2015-05-07T00:39:09Z</time>
				<extensions>
				</extensions>
			</trkpt>
			<trkpt lat="-28.084104" lon="153.020909">
				<ele>106</ele>
				<time>2015-05-07T00:39:11Z</time>
				<extensions>
				</extensions>
			</trkpt>
			<trkpt lat="-28.084288" lon="153.020939">
				<ele>107</ele>
				<time>2015-05-07T00:39:12Z</time>
				<extensions>
				</extensions>
			</trkpt>
			<trkpt lat="-28.084470" lon="153.020970">
				<ele>107</ele>
				<time>2015-05-07T00:39:13Z</time>
				<extensions>
				</extensions>
			</trkpt>
			<trkpt lat="-28.084821" lon="153.021023">
				<ele>107</ele>
				<time>2015-05-07T00:39:15Z</time>
				<extensions>
				</extensions>
			</trkpt>
			<trkpt lat="-28.085167" lon="153.021084">
				<ele>107</ele>
				<time>2015-05-07T00:39:17Z</time>
				<extensions>
				</extensions>
			</trkpt>
			<trkpt lat="-28.085354" lon="153.021120">
				<ele>109</ele>
				<time>2015-05-07T00:39:18Z</time>
				<extensions>
				</extensions>
			</trkpt>
			<trkpt lat="-28.085537" lon="153.021150">
				<ele>109</ele>
				<time>2015-05-07T00:39:19Z</time>
				<extensions>
				</extensions>
			</trkpt>
			<trkpt lat="-28.085717" lon="153.021184">
				<ele>108</ele>
				<time>2015-05-07T00:39:20Z</time>
				<extensions>
				</extensions>
			</trkpt>
			<trkpt lat="-28.085899" lon="153.021220">
				<ele>109</ele>
				<time>2015-05-07T00:39:21Z</time>
				<extensions>
				</extensions>
			</trkpt>
			<trkpt lat="-28.086084" lon="153.021264">
				<ele>109</ele>
				<time>2015-05-07T00:39:22Z</time>
				<extensions>
				</extensions>
			</trkpt>
			<trkpt lat="-28.086268" lon="153.021317">
				<ele>110</ele>
				<time>2015-05-07T00:39:23Z</time>
				<extensions>
				</extensions>
			</trkpt>
			<trkpt lat="-28.086451" lon="153.021373">
				<ele>110</ele>
				<time>2015-05-07T00:39:24Z</time>
				<extensions>
				</extensions>
			</trkpt>
			<trkpt lat="-28.086633" lon="153.021429">
				<ele>110</ele>
				<time>2015-05-07T00:39:25Z</time>
				<extensions>
				</extensions>
			</trkpt>
			<trkpt lat="-28.086815" lon="153.021487">
				<ele>109</ele>
				<time>2015-05-07T00:39:26Z</time>
				<extensions>
				</extensions>
			</trkpt>
			<trkpt lat="-28.087000" lon="153.021544">
				<ele>109</ele>
				<time>2015-05-07T00:39:27Z</time>
				<extensions>
				</extensions>
			</trkpt>
			<trkpt lat="-28.087186" lon="153.021601">
				<ele>108</ele>
				<time>2015-05-07T00:39:28Z</time>
				<extensions>
				</extensions>
			</trkpt>
			<trkpt lat="-28.087368" lon="153.021655">
				<ele>107</ele>
				<time>2015-05-07T00:39:29Z</time>
				<extensions>
				</extensions>
			</trkpt>
			<trkpt lat="-28.087555" lon="153.021709">
				<ele>108</ele>
				<time>2015-05-07T00:39:30Z</time>
				<extensions>
				</extensions>
			</trkpt>
			<trkpt lat="-28.087745" lon="153.021765">
				<ele>107</ele>
				<time>2015-05-07T00:39:31Z</time>
				<extensions>
				</extensions>
			</trkpt>
			<trkpt lat="-28.087940" lon="153.021817">
				<ele>108</ele>
				<time>2015-05-07T00:39:32Z</time>
				<extensions>
				</extensions>
			</trkpt>
			<trkpt lat="-28.088134" lon="153.021871">
				<ele>109</ele>
				<time>2015-05-07T00:39:33Z</time>
				<extensions>
				</extensions>
			</trkpt>
			<trkpt lat="-28.088324" lon="153.021923">
				<ele>108</ele>
				<time>2015-05-07T00:39:34Z</time>
				<extensions>
				</extensions>
			</trkpt>
			<trkpt lat="-28.088516" lon="153.021970">
				<ele>110</ele>
				<time>2015-05-07T00:39:35Z</time>
				<extensions>
				</extensions>
			</trkpt>
			<trkpt lat="-28.088706" lon="153.022019">
				<ele>111</ele>
				<time>2015-05-07T00:39:36Z</time>
				<extensions>
				</extensions>
			</trkpt>
			<trkpt lat="-28.088894" lon="153.022067">
				<ele>110</ele>
				<time>2015-05-07T00:39:37Z</time>
				<extensions>
				</extensions>
			</trkpt>
			<trkpt lat="-28.089076" lon="153.022117">
				<ele>111</ele>
				<time>2015-05-07T00:39:38Z</time>
				<extensions>
				</extensions>
			</trkpt>
			<trkpt lat="-28.089258" lon="153.022161">
				<ele>110</ele>
				<time>2015-05-07T00:39:39Z</time>
				<extensions>
				</extensions>
			</trkpt>
			<trkpt lat="-28.089442" lon="153.022215">
				<ele>111</ele>
				<time>2015-05-07T00:39:40Z</time>
				<extensions>
				</extensions>
			</trkpt>
			<trkpt lat="-28.089628" lon="153.022261">
				<ele>112</ele>
				<time>2015-05-07T00:39:41Z</time>
				<extensions>
				</extensions>
			</trkpt>
			<trkpt lat="-28.089810" lon="153.022309">
				<ele>111</ele>
				<time>2015-05-07T00:39:42Z</time>
				<extensions>
				</extensions>
			</trkpt>
			<trkpt lat="-28.089994" lon="153.022362">
				<ele>111</ele>
				<time>2015-05-07T00:39:43Z</time>
				<extensions>
				</extensions>
			</trkpt>
			<trkpt lat="-28.090176" lon="153.022409">
				<ele>111</ele>
				<time>2015-05-07T00:39:44Z</time>
				<extensions>
				</extensions>
			</trkpt>
			<trkpt lat="-28.090358" lon="153.022456">
				<ele>110</ele>
				<time>2015-05-07T00:39:45Z</time>
				<extensions>
				</extensions>
			</trkpt>
			<trkpt lat="-28.090540" lon="153.022502">
				<ele>112</ele>
				<time>2015-05-07T00:39:46Z</time>
				<extensions>
				</extensions>
			</trkpt>
			<trkpt lat="-28.090722" lon="153.022547">
				<ele>110</ele>
				<time>2015-05-07T00:39:47Z</time>
				<extensions>
				</extensions>
			</trkpt>
			<trkpt lat="-28.090902" lon="153.022591">
				<ele>111</ele>
				<time>2015-05-07T00:39:48Z</time>
				<extensions>
				</extensions>
			</trkpt>
			<trkpt lat="-28.091080" lon="153.022638">
				<ele>112</ele>
				<time>2015-05-07T00:39:49Z</time>
				<extensions>
				</extensions>
			</trkpt>
			<trkpt lat="-28.091261" lon="153.022682">
				<ele>113</ele>
				<time>2015-05-07T00:39:50Z</time>
				<extensions>
				</extensions>
			</trkpt>
			<trkpt lat="-28.091442" lon="153.022727">
				<ele>113</ele>
				<time>2015-05-07T00:39:51Z</time>
				<extensions>
				</extensions>
			</trkpt>
			<trkpt lat="-28.091626" lon="153.022772">
				<ele>113</ele>
				<time>2015-05-07T00:39:52Z</time>
				<extensions>
				</extensions>
			</trkpt>
			<trkpt lat="-28.091807" lon="153.022815">
				<ele>112</ele>
				<time>2015-05-07T00:39:53Z</time>
				<extensions>
				</extensions>
			</trkpt>
			<trkpt lat="-28.091986" lon="153.022859">
				<ele>113</ele>
				<time>2015-05-07T00:39:54Z</time>
				<extensions>
				</extensions>
			</trkpt>
			<trkpt lat="-28.092169" lon="153.022906">
				<ele>112</ele>
				<time>2015-05-07T00:39:55Z</time>
				<extensions>
				</extensions>
			</trkpt>
			<trkpt lat="-28.092353" lon="153.022954">
				<ele>112</ele>
				<time>2015-05-07T00:39:56Z</time>
				<extensions>
				</extensions>
			</trkpt>
			<trkpt lat="-28.092539" lon="153.023002">
				<ele>113</ele>
				<time>2015-05-07T00:39:57Z</time>
				<extensions>
				</extensions>
			</trkpt>
			<trkpt lat="-28.092723" lon="153.023045">
				<ele>113</ele>
				<time>2015-05-07T00:39:58Z</time>
				<extensions>
				</extensions>
			</trkpt>
			<trkpt lat="-28.092912" lon="153.023099">
				<ele>113</ele>
				<time>2015-05-07T00:39:59Z</time>
				<extensions>
				</extensions>
			</trkpt>
			<trkpt lat="-28.093107" lon="153.023157">
				<ele>113</ele>
				<time>2015-05-07T00:40:00Z</time>
				<extensions>
				</extensions>
			</trkpt>
			<trkpt lat="-28.093298" lon="153.023222">
				<ele>115</ele>
				<time>2015-05-07T00:40:01Z</time>
				<extensions>
				</extensions>
			</trkpt>
			<trkpt lat="-28.093484" lon="153.023312">
				<ele>116</ele>
				<time>2015-05-07T00:40:02Z</time>
				<extensions>
				</extensions>
			</trkpt>
			<trkpt lat="-28.093665" lon="153.023406">
				<ele>115</ele>
				<time>2015-05-07T00:40:03Z</time>
				<extensions>
				</extensions>
			</trkpt>
			<trkpt lat="-28.093840" lon="153.023500">
				<ele>114</ele>
				<time>2015-05-07T00:40:04Z</time>
				<extensions>
				</extensions>
			</trkpt>
			<trkpt lat="-28.094155" lon="153.023673">
				<ele>112</ele>
				<time>2015-05-07T00:40:06Z</time>
				<extensions>
				</extensions>
			</trkpt>
			<trkpt lat="-28.094472" lon="153.023840">
				<ele>111</ele>
				<time>2015-05-07T00:40:08Z</time>
				<extensions>
				</extensions>
			</trkpt>
			<trkpt lat="-28.094640" lon="153.023927">
				<ele>112</ele>
				<time>2015-05-07T00:40:09Z</time>
				<extensions>
				</extensions>
			</trkpt>
			<trkpt lat="-28.094823" lon="153.024015">
				<ele>112</ele>
				<time>2015-05-07T00:40:10Z</time>
				<extensions>
				</extensions>
			</trkpt>
			<trkpt lat="-28.094992" lon="153.024107">
				<ele>111</ele>
				<time>2015-05-07T00:40:11Z</time>
				<extensions>
				</extensions>
			</trkpt>
			<trkpt lat="-28.095162" lon="153.024194">
				<ele>111</ele>
				<time>2015-05-07T00:40:12Z</time>
				<extensions>
				</extensions>
			</trkpt>
			<trkpt lat="-28.095490" lon="153.024375">
				<ele>112</ele>
				<time>2015-05-07T00:40:14Z</time>
				<extensions>
				</extensions>
			</trkpt>
			<trkpt lat="-28.095653" lon="153.024466">
				<ele>112</ele>
				<time>2015-05-07T00:40:15Z</time>
				<extensions>
				</extensions>
			</trkpt>
			<trkpt lat="-28.095825" lon="153.024558">
				<ele>112</ele>
				<time>2015-05-07T00:40:16Z</time>
				<extensions>
				</extensions>
			</trkpt>
			<trkpt lat="-28.096001" lon="153.024652">
				<ele>115</ele>
				<time>2015-05-07T00:40:17Z</time>
				<extensions>
				</extensions>
			</trkpt>
			<trkpt lat="-28.096171" lon="153.024742">
				<ele>113</ele>
				<time>2015-05-07T00:40:18Z</time>
				<extensions>
				</extensions>
			</trkpt>
			<trkpt lat="-28.096349" lon="153.024842">
				<ele>114</ele>
				<time>2015-05-07T00:40:19Z</time>
				<extensions>
				</extensions>
			</trkpt>
			<trkpt lat="-28.096519" lon="153.024933">
				<ele>113</ele>
				<time>2015-05-07T00:40:20Z</time>
				<extensions>
				</extensions>
			</trkpt>
			<trkpt lat="-28.096684" lon="153.025019">
				<ele>113</ele>
				<time>2015-05-07T00:40:21Z</time>
				<extensions>
				</extensions>
			</trkpt>
			<trkpt lat="-28.097016" lon="153.025198">
				<ele>112</ele>
				<time>2015-05-07T00:40:23Z</time>
				<extensions>
				</extensions>
			</trkpt>
			<trkpt lat="-28.097338" lon="153.025362">
				<ele>113</ele>
				<time>2015-05-07T00:40:25Z</time>
				<extensions>
				</extensions>
			</trkpt>
			<trkpt lat="-28.097646" lon="153.025529">
				<ele>112</ele>
				<time>2015-05-07T00:40:27Z</time>
				<extensions>
				</extensions>
			</trkpt>
			<trkpt lat="-28.097948" lon="153.025694">
				<ele>110</ele>
				<time>2015-05-07T00:40:29Z</time>
				<extensions>
				</extensions>
			</trkpt>
			<trkpt lat="-28.098232" lon="153.025849">
				<ele>110</ele>
				<time>2015-05-07T00:40:31Z</time>
				<extensions>
				</extensions>
			</trkpt>
			<trkpt lat="-28.098518" lon="153.026009">
				<ele>111</ele>
				<time>2015-05-07T00:40:33Z</time>
				<extensions>
				</extensions>
			</trkpt>
			<trkpt lat="-28.098794" lon="153.026163">
				<ele>113</ele>
				<time>2015-05-07T00:40:35Z</time>
				<extensions>
				</extensions>
			</trkpt>
			<trkpt lat="-28.099075" lon="153.026279">
				<ele>114</ele>
				<time>2015-05-07T00:40:37Z</time>
				<extensions>
				</extensions>
			</trkpt>
			<trkpt lat="-28.099373" lon="153.026359">
				<ele>114</ele>
				<time>2015-05-07T00:40:39Z</time>
				<extensions>
				</extensions>
			</trkpt>
			<trkpt lat="-28.099673" lon="153.026428">
				<ele>113</ele>
				<time>2015-05-07T00:40:41Z</time>
				<extensions>
				</extensions>
			</trkpt>
			<trkpt lat="-28.099953" lon="153.026493">
				<ele>113</ele>
				<time>2015-05-07T00:40:43Z</time>
				<extensions>
				</extensions>
			</trkpt>
			<trkpt lat="-28.100232" lon="153.026565">
				<ele>111</ele>
				<time>2015-05-07T00:40:45Z</time>
				<extensions>
				</extensions>
			</trkpt>
			<trkpt lat="-28.100474" lon="153.026649">
				<ele>112</ele>
				<time>2015-05-07T00:40:47Z</time>
				<extensions>
				</extensions>
			</trkpt>
			<trkpt lat="-28.100708" lon="153.026737">
				<ele>112</ele>
				<time>2015-05-07T00:40:49Z</time>
				<extensions>
				</extensions>
			</trkpt>
			<trkpt lat="-28.100950" lon="153.026854">
				<ele>113</ele>
				<time>2015-05-07T00:40:51Z</time>
				<extensions>
				</extensions>
			</trkpt>
			<trkpt lat="-28.101213" lon="153.026970">
				<ele>113</ele>
				<time>2015-05-07T00:40:53Z</time>
				<extensions>
				</extensions>
			</trkpt>
			<trkpt lat="-28.101484" lon="153.027085">
				<ele>112</ele>
				<time>2015-05-07T00:40:55Z</time>
				<extensions>
				</extensions>
			</trkpt>
			<trkpt lat="-28.101732" lon="153.027198">
				<ele>112</ele>
				<time>2015-05-07T00:40:57Z</time>
				<extensions>
				</extensions>
			</trkpt>
			<trkpt lat="-28.101985" lon="153.027310">
				<ele>112</ele>
				<time>2015-05-07T00:40:59Z</time>
				<extensions>
				</extensions>
			</trkpt>
			<trkpt lat="-28.102258" lon="153.027440">
				<ele>112</ele>
				<time>2015-05-07T00:41:01Z</time>
				<extensions>
				</extensions>
			</trkpt>
			<trkpt lat="-28.102539" lon="153.027563">
				<ele>113</ele>
				<time>2015-05-07T00:41:03Z</time>
				<extensions>
				</extensions>
			</trkpt>
			<trkpt lat="-28.102825" lon="153.027697">
				<ele>112</ele>
				<time>2015-05-07T00:41:05Z</time>
				<extensions>
				</extensions>
			</trkpt>
			<trkpt lat="-28.103100" lon="153.027826">
				<ele>112</ele>
				<time>2015-05-07T00:41:07Z</time>
				<extensions>
				</extensions>
			</trkpt>
			<trkpt lat="-28.103385" lon="153.027954">
				<ele>113</ele>
				<time>2015-05-07T00:41:09Z</time>
				<extensions>
				</extensions>
			</trkpt>
			<trkpt lat="-28.103686" lon="153.028083">
				<ele>114</ele>
				<time>2015-05-07T00:41:11Z</time>
				<extensions>
				</extensions>
			</trkpt>
			<trkpt lat="-28.103989" lon="153.028213">
				<ele>115</ele>
				<time>2015-05-07T00:41:13Z</time>
				<extensions>
				</extensions>
			</trkpt>
			<trkpt lat="-28.104299" lon="153.028351">
				<ele>116</ele>
				<time>2015-05-07T00:41:15Z</time>
				<extensions>
				</extensions>
			</trkpt>
			<trkpt lat="-28.104603" lon="153.028477">
				<ele>116</ele>
				<time>2015-05-07T00:41:17Z</time>
				<extensions>
				</extensions>
			</trkpt>
			<trkpt lat="-28.104911" lon="153.028614">
				<ele>118</ele>
				<time>2015-05-07T00:41:19Z</time>
				<extensions>
				</extensions>
			</trkpt>
			<trkpt lat="-28.105222" lon="153.028760">
				<ele>118</ele>
				<time>2015-05-07T00:41:21Z</time>
				<extensions>
				</extensions>
			</trkpt>
			<trkpt lat="-28.105525" lon="153.028906">
				<ele>117</ele>
				<time>2015-05-07T00:41:23Z</time>
				<extensions>
				</extensions>
			</trkpt>
			<trkpt lat="-28.105826" lon="153.029039">
				<ele>118</ele>
				<time>2015-05-07T00:41:25Z</time>
				<extensions>
				</extensions>
			</trkpt>
			<trkpt lat="-28.106145" lon="153.029179">
				<ele>119</ele>
				<time>2015-05-07T00:41:27Z</time>
				<extensions>
				</extensions>
			</trkpt>
			<trkpt lat="-28.106463" lon="153.029319">
				<ele>119</ele>
				<time>2015-05-07T00:41:29Z</time>
				<extensions>
				</extensions>
			</trkpt>
			<trkpt lat="-28.106768" lon="153.029448">
				<ele>121</ele>
				<time>2015-05-07T00:41:31Z</time>
				<extensions>
				</extensions>
			</trkpt>
			<trkpt lat="-28.107071" lon="153.029589">
				<ele>121</ele>
				<time>2015-05-07T00:41:33Z</time>
				<extensions>
				</extensions>
			</trkpt>
			<trkpt lat="-28.107379" lon="153.029754">
				<ele>122</ele>
				<time>2015-05-07T00:41:35Z</time>
				<extensions>
				</extensions>
			</trkpt>
			<trkpt lat="-28.107649" lon="153.029938">
				<ele>122</ele>
				<time>2015-05-07T00:41:37Z</time>
				<extensions>
				</extensions>
			</trkpt>
			<trkpt lat="-28.107908" lon="153.030127">
				<ele>120</ele>
				<time>2015-05-07T00:41:39Z</time>
				<extensions>
				</extensions>
			</trkpt>
			<trkpt lat="-28.108176" lon="153.030300">
				<ele>119</ele>
				<time>2015-05-07T00:41:41Z</time>
				<extensions>
				</extensions>
			</trkpt>
			<trkpt lat="-28.108417" lon="153.030470">
				<ele>118</ele>
				<time>2015-05-07T00:41:43Z</time>
				<extensions>
				</extensions>
			</trkpt>
			<trkpt lat="-28.108654" lon="153.030632">
				<ele>117</ele>
				<time>2015-05-07T00:41:45Z</time>
				<extensions>
				</extensions>
			</trkpt>
			<trkpt lat="-28.108897" lon="153.030787">
				<ele>116</ele>
				<time>2015-05-07T00:41:47Z</time>
				<extensions>
				</extensions>
			</trkpt>
			<trkpt lat="-28.109123" lon="153.030970">
				<ele>117</ele>
				<time>2015-05-07T00:41:49Z</time>
				<extensions>
				</extensions>
			</trkpt>
			<trkpt lat="-28.109340" lon="153.031205">
				<ele>117</ele>
				<time>2015-05-07T00:41:51Z</time>
				<extensions>
				</extensions>
			</trkpt>
			<trkpt lat="-28.109511" lon="153.031499">
				<ele>120</ele>
				<time>2015-05-07T00:41:53Z</time>
				<extensions>
				</extensions>
			</trkpt>
			<trkpt lat="-28.109592" lon="153.031683">
				<ele>120</ele>
				<time>2015-05-07T00:41:54Z</time>
				<extensions>
				</extensions>
			</trkpt>
			<trkpt lat="-28.109707" lon="153.032047">
				<ele>119</ele>
				<time>2015-05-07T00:41:56Z</time>
				<extensions>
				</extensions>
			</trkpt>
			<trkpt lat="-28.109823" lon="153.032423">
				<ele>119</ele>
				<time>2015-05-07T00:41:58Z</time>
				<extensions>
				</extensions>
			</trkpt>
			<trkpt lat="-28.109889" lon="153.032630">
				<ele>120</ele>
				<time>2015-05-07T00:41:59Z</time>
				<extensions>
				</extensions>
			</trkpt>
			<trkpt lat="-28.109954" lon="153.032843">
				<ele>121</ele>
				<time>2015-05-07T00:42:00Z</time>
				<extensions>
				</extensions>
			</trkpt>
			<trkpt lat="-28.110014" lon="153.033066">
				<ele>122</ele>
				<time>2015-05-07T00:42:01Z</time>
				<extensions>
				</extensions>
			</trkpt>
			<trkpt lat="-28.110092" lon="153.033301">
				<ele>122</ele>
				<time>2015-05-07T00:42:02Z</time>
				<extensions>
				</extensions>
			</trkpt>
			<trkpt lat="-28.110158" lon="153.033535">
				<ele>124</ele>
				<time>2015-05-07T00:42:03Z</time>
				<extensions>
				</extensions>
			</trkpt>
			<trkpt lat="-28.110230" lon="153.033764">
				<ele>124</ele>
				<time>2015-05-07T00:42:04Z</time>
				<extensions>
				</extensions>
			</trkpt>
			<trkpt lat="-28.110295" lon="153.033993">
				<ele>124</ele>
				<time>2015-05-07T00:42:05Z</time>
				<extensions>
				</extensions>
			</trkpt>
			<trkpt lat="-28.110363" lon="153.034211">
				<ele>123</ele>
				<time>2015-05-07T00:42:06Z</time>
				<extensions>
				</extensions>
			</trkpt>
			<trkpt lat="-28.110430" lon="153.034412">
				<ele>121</ele>
				<time>2015-05-07T00:42:07Z</time>
				<extensions>
				</extensions>
			</trkpt>
			<trkpt lat="-28.110488" lon="153.034610">
				<ele>121</ele>
				<time>2015-05-07T00:42:08Z</time>
				<extensions>
				</extensions>
			</trkpt>
			<trkpt lat="-28.110618" lon="153.034980">
				<ele>118</ele>
				<time>2015-05-07T00:42:10Z</time>
				<extensions>
				</extensions>
			</trkpt>
			<trkpt lat="-28.110727" lon="153.035308">
				<ele>116</ele>
				<time>2015-05-07T00:42:12Z</time>
				<extensions>
				</extensions>
			</trkpt>
			<trkpt lat="-28.110799" lon="153.035627">
				<ele>116</ele>
				<time>2015-05-07T00:42:14Z</time>
				<extensions>
				</extensions>
			</trkpt>
			<trkpt lat="-28.110841" lon="153.035984">
				<ele>117</ele>
				<time>2015-05-07T00:42:16Z</time>
				<extensions>
				</extensions>
			</trkpt>
			<trkpt lat="-28.110846" lon="153.036359">
				<ele>118</ele>
				<time>2015-05-07T00:42:18Z</time>
				<extensions>
				</extensions>
			</trkpt>
			<trkpt lat="-28.110825" lon="153.036732">
				<ele>119</ele>
				<time>2015-05-07T00:42:20Z</time>
				<extensions>
				</extensions>
			</trkpt>
			<trkpt lat="-28.110812" lon="153.037126">
				<ele>119</ele>
				<time>2015-05-07T00:42:22Z</time>
				<extensions>
				</extensions>
			</trkpt>
			<trkpt lat="-28.110813" lon="153.037501">
				<ele>119</ele>
				<time>2015-05-07T00:42:24Z</time>
				<extensions>
				</extensions>
			</trkpt>
			<trkpt lat="-28.110831" lon="153.037898">
				<ele>119</ele>
				<time>2015-05-07T00:42:26Z</time>
				<extensions>
				</extensions>
			</trkpt>
			<trkpt lat="-28.110858" lon="153.038105">
				<ele>121</ele>
				<time>2015-05-07T00:42:27Z</time>
				<extensions>
				</extensions>
			</trkpt>
			<trkpt lat="-28.110905" lon="153.038310">
				<ele>121</ele>
				<time>2015-05-07T00:42:28Z</time>
				<extensions>
				</extensions>
			</trkpt>
			<trkpt lat="-28.110995" lon="153.038689">
				<ele>119</ele>
				<time>2015-05-07T00:42:30Z</time>
				<extensions>
				</extensions>
			</trkpt>
			<trkpt lat="-28.111087" lon="153.039047">
				<ele>118</ele>
				<time>2015-05-07T00:42:32Z</time>
				<extensions>
				</extensions>
			</trkpt>
			<trkpt lat="-28.111186" lon="153.039392">
				<ele>118</ele>
				<time>2015-05-07T00:42:34Z</time>
				<extensions>
				</extensions>
			</trkpt>
			<trkpt lat="-28.111345" lon="153.039696">
				<ele>118</ele>
				<time>2015-05-07T00:42:36Z</time>
				<extensions>
				</extensions>
			</trkpt>
			<trkpt lat="-28.111573" lon="153.039955">
				<ele>119</ele>
				<time>2015-05-07T00:42:38Z</time>
				<extensions>
				</extensions>
			</trkpt>
			<trkpt lat="-28.111838" lon="153.040169">
				<ele>118</ele>
				<time>2015-05-07T00:42:40Z</time>
				<extensions>
				</extensions>
			</trkpt>
			<trkpt lat="-28.112145" lon="153.040306">
				<ele>120</ele>
				<time>2015-05-07T00:42:42Z</time>
				<extensions>
				</extensions>
			</trkpt>
			<trkpt lat="-28.112455" lon="153.040347">
				<ele>120</ele>
				<time>2015-05-07T00:42:44Z</time>
				<extensions>
				</extensions>
			</trkpt>
			<trkpt lat="-28.112692" lon="153.040344">
				<ele>117</ele>
				<time>2015-05-07T00:42:46Z</time>
				<extensions>
				</extensions>
			</trkpt>
			<trkpt lat="-28.112881" lon="153.040305">
				<ele>115</ele>
				<time>2015-05-07T00:42:48Z</time>
				<extensions>
				</extensions>
			</trkpt>
			<trkpt lat="-28.113126" lon="153.040272">
				<ele>115</ele>
				<time>2015-05-07T00:42:51Z</time>
				<extensions>
				</extensions>
			</trkpt>
			<trkpt lat="-28.113387" lon="153.040254">
				<ele>116</ele>
				<time>2015-05-07T00:42:54Z</time>
				<extensions>
				</extensions>
			</trkpt>
			<trkpt lat="-28.113581" lon="153.040237">
				<ele>116</ele>
				<time>2015-05-07T00:42:56Z</time>
				<extensions>
				</extensions>
			</trkpt>
			<trkpt lat="-28.113810" lon="153.040205">
				<ele>118</ele>
				<time>2015-05-07T00:42:58Z</time>
				<extensions>
				</extensions>
			</trkpt>
			<trkpt lat="-28.114045" lon="153.040157">
				<ele>118</ele>
				<time>2015-05-07T00:43:00Z</time>
				<extensions>
				</extensions>
			</trkpt>
			<trkpt lat="-28.114278" lon="153.040099">
				<ele>118</ele>
				<time>2015-05-07T00:43:02Z</time>
				<extensions>
				</extensions>
			</trkpt>
			<trkpt lat="-28.114488" lon="153.040081">
				<ele>117</ele>
				<time>2015-05-07T00:43:04Z</time>
				<extensions>
				</extensions>
			</trkpt>
			<trkpt lat="-28.114684" lon="153.040060">
				<ele>117</ele>
				<time>2015-05-07T00:43:06Z</time>
				<extensions>
				</extensions>
			</trkpt>
			<trkpt lat="-28.114888" lon="153.040043">
				<ele>118</ele>
				<time>2015-05-07T00:43:08Z</time>
				<extensions>
				</extensions>
			</trkpt>
			<trkpt lat="-28.115131" lon="153.040013">
				<ele>118</ele>
				<time>2015-05-07T00:43:10Z</time>
				<extensions>
				</extensions>
			</trkpt>
			<trkpt lat="-28.115340" lon="153.039991">
				<ele>118</ele>
				<time>2015-05-07T00:43:12Z</time>
				<extensions>
				</extensions>
			</trkpt>
			<trkpt lat="-28.115548" lon="153.039970">
				<ele>118</ele>
				<time>2015-05-07T00:43:14Z</time>
				<extensions>
				</extensions>
			</trkpt>
			<trkpt lat="-28.115774" lon="153.039935">
				<ele>118</ele>
				<time>2015-05-07T00:43:16Z</time>
				<extensions>
				</extensions>
			</trkpt>
			<trkpt lat="-28.115986" lon="153.039911">
				<ele>118</ele>
				<time>2015-05-07T00:43:18Z</time>
				<extensions>
				</extensions>
			</trkpt>
			<trkpt lat="-28.116205" lon="153.039899">
				<ele>118</ele>
				<time>2015-05-07T00:43:20Z</time>
				<extensions>
				</extensions>
			</trkpt>
			<trkpt lat="-28.116398" lon="153.039881">
				<ele>118</ele>
				<time>2015-05-07T00:43:22Z</time>
				<extensions>
				</extensions>
			</trkpt>
			<trkpt lat="-28.116614" lon="153.039873">
				<ele>118</ele>
				<time>2015-05-07T00:43:24Z</time>
				<extensions>
				</extensions>
			</trkpt>
			<trkpt lat="-28.116826" lon="153.039845">
				<ele>119</ele>
				<time>2015-05-07T00:43:26Z</time>
				<extensions>
				</extensions>
			</trkpt>
			<trkpt lat="-28.117037" lon="153.039830">
				<ele>118</ele>
				<time>2015-05-07T00:43:28Z</time>
				<extensions>
				</extensions>
			</trkpt>
			<trkpt lat="-28.117249" lon="153.039809">
				<ele>118</ele>
				<time>2015-05-07T00:43:30Z</time>
				<extensions>
				</extensions>
			</trkpt>
			<trkpt lat="-28.117470" lon="153.039791">
				<ele>119</ele>
				<time>2015-05-07T00:43:32Z</time>
				<extensions>
				</extensions>
			</trkpt>
			<trkpt lat="-28.117698" lon="153.039782">
				<ele>119</ele>
				<time>2015-05-07T00:43:34Z</time>
				<extensions>
				</extensions>
			</trkpt>
			<trkpt lat="-28.117925" lon="153.039804">
				<ele>118</ele>
				<time>2015-05-07T00:43:36Z</time>
				<extensions>
				</extensions>
			</trkpt>
			<trkpt lat="-28.118130" lon="153.039775">
				<ele>118</ele>
				<time>2015-05-07T00:43:38Z</time>
				<extensions>
				</extensions>
			</trkpt>
			<trkpt lat="-28.118351" lon="153.039767">
				<ele>118</ele>
				<time>2015-05-07T00:43:40Z</time>
				<extensions>
				</extensions>
			</trkpt>
			<trkpt lat="-28.118548" lon="153.039769">
				<ele>118</ele>
				<time>2015-05-07T00:43:42Z</time>
				<extensions>
				</extensions>
			</trkpt>
			<trkpt lat="-28.118741" lon="153.039761">
				<ele>118</ele>
				<time>2015-05-07T00:43:44Z</time>
				<extensions>
				</extensions>
			</trkpt>
			<trkpt lat="-28.118930" lon="153.039749">
				<ele>117</ele>
				<time>2015-05-07T00:43:46Z</time>
				<extensions>
				</extensions>
			</trkpt>
			<trkpt lat="-28.119204" lon="153.039753">
				<ele>118</ele>
				<time>2015-05-07T00:43:49Z</time>
				<extensions>
				</extensions>
			</trkpt>
			<trkpt lat="-28.119403" lon="153.039759">
				<ele>120</ele>
				<time>2015-05-07T00:43:51Z</time>
				<extensions>
				</extensions>
			</trkpt>
			<trkpt lat="-28.119608" lon="153.039760">
				<ele>120</ele>
				<time>2015-05-07T00:43:53Z</time>
				<extensions>
				</extensions>
			</trkpt>
			<trkpt lat="-28.119808" lon="153.039756">
				<ele>120</ele>
				<time>2015-05-07T00:43:55Z</time>
				<extensions>
				</extensions>
			</trkpt>
			<trkpt lat="-28.120012" lon="153.039756">
				<ele>119</ele>
				<time>2015-05-07T00:43:57Z</time>
				<extensions>
				</extensions>
			</trkpt>
			<trkpt lat="-28.120230" lon="153.039758">
				<ele>120</ele>
				<time>2015-05-07T00:43:59Z</time>
				<extensions>
				</extensions>
			</trkpt>
			<trkpt lat="-28.120431" lon="153.039763">
				<ele>121</ele>
				<time>2015-05-07T00:44:01Z</time>
				<extensions>
				</extensions>
			</trkpt>
			<trkpt lat="-28.120649" lon="153.039753">
				<ele>120</ele>
				<time>2015-05-07T00:44:03Z</time>
				<extensions>
				</extensions>
			</trkpt>
			<trkpt lat="-28.120863" lon="153.039754">
				<ele>120</ele>
				<time>2015-05-07T00:44:05Z</time>
				<extensions>
				</extensions>
			</trkpt>
			<trkpt lat="-28.121076" lon="153.039755">
				<ele>122</ele>
				<time>2015-05-07T00:44:07Z</time>
				<extensions>
				</extensions>
			</trkpt>
			<trkpt lat="-28.121288" lon="153.039767">
				<ele>121</ele>
				<time>2015-05-07T00:44:09Z</time>
				<extensions>
				</extensions>
			</trkpt>
			<trkpt lat="-28.121496" lon="153.039779">
				<ele>122</ele>
				<time>2015-05-07T00:44:11Z</time>
				<extensions>
				</extensions>
			</trkpt>
			<trkpt lat="-28.121739" lon="153.039784">
				<ele>123</ele>
				<time>2015-05-07T00:44:13Z</time>
				<extensions>
				</extensions>
			</trkpt>
			<trkpt lat="-28.122032" lon="153.039860">
				<ele>125</ele>
				<time>2015-05-07T00:44:15Z</time>
				<extensions>
				</extensions>
			</trkpt>
			<trkpt lat="-28.122360" lon="153.039983">
				<ele>127</ele>
				<time>2015-05-07T00:44:17Z</time>
				<extensions>
				</extensions>
			</trkpt>
			<trkpt lat="-28.122534" lon="153.040051">
				<ele>128</ele>
				<time>2015-05-07T00:44:18Z</time>
				<extensions>
				</extensions>
			</trkpt>
			<trkpt lat="-28.122715" lon="153.040118">
				<ele>129</ele>
				<time>2015-05-07T00:44:19Z</time>
				<extensions>
				</extensions>
			</trkpt>
			<trkpt lat="-28.122889" lon="153.040188">
				<ele>129</ele>
				<time>2015-05-07T00:44:20Z</time>
				<extensions>
				</extensions>
			</trkpt>
			<trkpt lat="-28.123221" lon="153.040321">
				<ele>129</ele>
				<time>2015-05-07T00:44:22Z</time>
				<extensions>
				</extensions>
			</trkpt>
			<trkpt lat="-28.123405" lon="153.040371">
				<ele>130</ele>
				<time>2015-05-07T00:44:23Z</time>
				<extensions>
				</extensions>
			</trkpt>
			<trkpt lat="-28.123713" lon="153.040511">
				<ele>133</ele>
				<time>2015-05-07T00:44:25Z</time>
				<extensions>
				</extensions>
			</trkpt>
			<trkpt lat="-28.124018" lon="153.040646">
				<ele>134</ele>
				<time>2015-05-07T00:44:27Z</time>
				<extensions>
				</extensions>
			</trkpt>
			<trkpt lat="-28.124346" lon="153.040783">
				<ele>132</ele>
				<time>2015-05-07T00:44:29Z</time>
				<extensions>
				</extensions>
			</trkpt>
			<trkpt lat="-28.124675" lon="153.040912">
				<ele>128</ele>
				<time>2015-05-07T00:44:31Z</time>
				<extensions>
				</extensions>
			</trkpt>
			<trkpt lat="-28.125007" lon="153.041054">
				<ele>127</ele>
				<time>2015-05-07T00:44:33Z</time>
				<extensions>
				</extensions>
			</trkpt>
			<trkpt lat="-28.125179" lon="153.041123">
				<ele>128</ele>
				<time>2015-05-07T00:44:34Z</time>
				<extensions>
				</extensions>
			</trkpt>
			<trkpt lat="-28.125514" lon="153.041258">
				<ele>128</ele>
				<time>2015-05-07T00:44:36Z</time>
				<extensions>
				</extensions>
			</trkpt>
			<trkpt lat="-28.125844" lon="153.041390">
				<ele>132</ele>
				<time>2015-05-07T00:44:38Z</time>
				<extensions>
				</extensions>
			</trkpt>
			<trkpt lat="-28.126024" lon="153.041468">
				<ele>133</ele>
				<time>2015-05-07T00:44:39Z</time>
				<extensions>
				</extensions>
			</trkpt>
			<trkpt lat="-28.126193" lon="153.041546">
				<ele>133</ele>
				<time>2015-05-07T00:44:40Z</time>
				<extensions>
				</extensions>
			</trkpt>
			<trkpt lat="-28.126376" lon="153.041615">
				<ele>134</ele>
				<time>2015-05-07T00:44:41Z</time>
				<extensions>
				</extensions>
			</trkpt>
			<trkpt lat="-28.126709" lon="153.041756">
				<ele>133</ele>
				<time>2015-05-07T00:44:43Z</time>
				<extensions>
				</extensions>
			</trkpt>
			<trkpt lat="-28.127026" lon="153.041869">
				<ele>131</ele>
				<time>2015-05-07T00:44:45Z</time>
				<extensions>
				</extensions>
			</trkpt>
			<trkpt lat="-28.127350" lon="153.041988">
				<ele>131</ele>
				<time>2015-05-07T00:44:47Z</time>
				<extensions>
				</extensions>
			</trkpt>
			<trkpt lat="-28.127530" lon="153.042051">
				<ele>132</ele>
				<time>2015-05-07T00:44:48Z</time>
				<extensions>
				</extensions>
			</trkpt>
			<trkpt lat="-28.127852" lon="153.042171">
				<ele>134</ele>
				<time>2015-05-07T00:44:50Z</time>
				<extensions>
				</extensions>
			</trkpt>
			<trkpt lat="-28.128167" lon="153.042305">
				<ele>134</ele>
				<time>2015-05-07T00:44:52Z</time>
				<extensions>
				</extensions>
			</trkpt>
			<trkpt lat="-28.128483" lon="153.042454">
				<ele>133</ele>
				<time>2015-05-07T00:44:54Z</time>
				<extensions>
				</extensions>
			</trkpt>
			<trkpt lat="-28.128802" lon="153.042604">
				<ele>132</ele>
				<time>2015-05-07T00:44:56Z</time>
				<extensions>
				</extensions>
			</trkpt>
			<trkpt lat="-28.128983" lon="153.042668">
				<ele>134</ele>
				<time>2015-05-07T00:44:57Z</time>
				<extensions>
				</extensions>
			</trkpt>
			<trkpt lat="-28.129286" lon="153.042810">
				<ele>133</ele>
				<time>2015-05-07T00:44:59Z</time>
				<extensions>
				</extensions>
			</trkpt>
			<trkpt lat="-28.129597" lon="153.042941">
				<ele>133</ele>
				<time>2015-05-07T00:45:01Z</time>
				<extensions>
				</extensions>
			</trkpt>
			<trkpt lat="-28.129894" lon="153.043058">
				<ele>132</ele>
				<time>2015-05-07T00:45:03Z</time>
				<extensions>
				</extensions>
			</trkpt>
			<trkpt lat="-28.130201" lon="153.043177">
				<ele>134</ele>
				<time>2015-05-07T00:45:05Z</time>
				<extensions>
				</extensions>
			</trkpt>
			<trkpt lat="-28.130524" lon="153.043290">
				<ele>135</ele>
				<time>2015-05-07T00:45:07Z</time>
				<extensions>
				</extensions>
			</trkpt>
			<trkpt lat="-28.130848" lon="153.043363">
				<ele>134</ele>
				<time>2015-05-07T00:45:09Z</time>
				<extensions>
				</extensions>
			</trkpt>
			<trkpt lat="-28.131194" lon="153.043378">
				<ele>134</ele>
				<time>2015-05-07T00:45:11Z</time>
				<extensions>
				</extensions>
			</trkpt>
			<trkpt lat="-28.131375" lon="153.043366">
				<ele>134</ele>
				<time>2015-05-07T00:45:12Z</time>
				<extensions>
				</extensions>
			</trkpt>
			<trkpt lat="-28.131562" lon="153.043309">
				<ele>134</ele>
				<time>2015-05-07T00:45:13Z</time>
				<extensions>
				</extensions>
			</trkpt>
			<trkpt lat="-28.131906" lon="153.043284">
				<ele>133</ele>
				<time>2015-05-07T00:45:15Z</time>
				<extensions>
				</extensions>
			</trkpt>
			<trkpt lat="-28.132244" lon="153.043252">
				<ele>134</ele>
				<time>2015-05-07T00:45:17Z</time>
				<extensions>
				</extensions>
			</trkpt>
			<trkpt lat="-28.132586" lon="153.043213">
				<ele>135</ele>
				<time>2015-05-07T00:45:19Z</time>
				<extensions>
				</extensions>
			</trkpt>
			<trkpt lat="-28.132768" lon="153.043200">
				<ele>135</ele>
				<time>2015-05-07T00:45:20Z</time>
				<extensions>
				</extensions>
			</trkpt>
			<trkpt lat="-28.133119" lon="153.043177">
				<ele>136</ele>
				<time>2015-05-07T00:45:22Z</time>
				<extensions>
				</extensions>
			</trkpt>
			<trkpt lat="-28.133301" lon="153.043167">
				<ele>136</ele>
				<time>2015-05-07T00:45:23Z</time>
				<extensions>
				</extensions>
			</trkpt>
			<trkpt lat="-28.133483" lon="153.043160">
				<ele>137</ele>
				<time>2015-05-07T00:45:24Z</time>
				<extensions>
				</extensions>
			</trkpt>
			<trkpt lat="-28.133663" lon="153.043146">
				<ele>137</ele>
				<time>2015-05-07T00:45:25Z</time>
				<extensions>
				</extensions>
			</trkpt>
			<trkpt lat="-28.133843" lon="153.043126">
				<ele>139</ele>
				<time>2015-05-07T00:45:26Z</time>
				<extensions>
				</extensions>
			</trkpt>
			<trkpt lat="-28.134030" lon="153.043113">
				<ele>139</ele>
				<time>2015-05-07T00:45:27Z</time>
				<extensions>
				</extensions>
			</trkpt>
			<trkpt lat="-28.134215" lon="153.043089">
				<ele>140</ele>
				<time>2015-05-07T00:45:28Z</time>
				<extensions>
				</extensions>
			</trkpt>
			<trkpt lat="-28.134406" lon="153.043070">
				<ele>140</ele>
				<time>2015-05-07T00:45:29Z</time>
				<extensions>
				</extensions>
			</trkpt>
			<trkpt lat="-28.134779" lon="153.043027">
				<ele>143</ele>
				<time>2015-05-07T00:45:31Z</time>
				<extensions>
				</extensions>
			</trkpt>
			<trkpt lat="-28.134987" lon="153.042986">
				<ele>142</ele>
				<time>2015-05-07T00:45:32Z</time>
				<extensions>
				</extensions>
			</trkpt>
			<trkpt lat="-28.135193" lon="153.042903">
				<ele>142</ele>
				<time>2015-05-07T00:45:33Z</time>
				<extensions>
				</extensions>
			</trkpt>
			<trkpt lat="-28.135387" lon="153.042863">
				<ele>143</ele>
				<time>2015-05-07T00:45:34Z</time>
				<extensions>
				</extensions>
			</trkpt>
			<trkpt lat="-28.135579" lon="153.042843">
				<ele>143</ele>
				<time>2015-05-07T00:45:35Z</time>
				<extensions>
				</extensions>
			</trkpt>
			<trkpt lat="-28.135765" lon="153.042830">
				<ele>143</ele>
				<time>2015-05-07T00:45:36Z</time>
				<extensions>
				</extensions>
			</trkpt>
			<trkpt lat="-28.135953" lon="153.042812">
				<ele>143</ele>
				<time>2015-05-07T00:45:37Z</time>
				<extensions>
				</extensions>
			</trkpt>
			<trkpt lat="-28.136146" lon="153.042784">
				<ele>144</ele>
				<time>2015-05-07T00:45:38Z</time>
				<extensions>
				</extensions>
			</trkpt>
			<trkpt lat="-28.136346" lon="153.042764">
				<ele>144</ele>
				<time>2015-05-07T00:45:39Z</time>
				<extensions>
				</extensions>
			</trkpt>
			<trkpt lat="-28.136531" lon="153.042740">
				<ele>146</ele>
				<time>2015-05-07T00:45:40Z</time>
				<extensions>
				</extensions>
			</trkpt>
			<trkpt lat="-28.136725" lon="153.042707">
				<ele>147</ele>
				<time>2015-05-07T00:45:41Z</time>
				<extensions>
				</extensions>
			</trkpt>
			<trkpt lat="-28.136925" lon="153.042676">
				<ele>148</ele>
				<time>2015-05-07T00:45:42Z</time>
				<extensions>
				</extensions>
			</trkpt>
			<trkpt lat="-28.137116" lon="153.042645">
				<ele>149</ele>
				<time>2015-05-07T00:45:43Z</time>
				<extensions>
				</extensions>
			</trkpt>
			<trkpt lat="-28.137304" lon="153.042616">
				<ele>151</ele>
				<time>2015-05-07T00:45:44Z</time>
				<extensions>
				</extensions>
			</trkpt>
			<trkpt lat="-28.137497" lon="153.042604">
				<ele>152</ele>
				<time>2015-05-07T00:45:45Z</time>
				<extensions>
				</extensions>
			</trkpt>
			<trkpt lat="-28.137686" lon="153.042579">
				<ele>153</ele>
				<time>2015-05-07T00:45:46Z</time>
				<extensions>
				</extensions>
			</trkpt>
			<trkpt lat="-28.137873" lon="153.042542">
				<ele>154</ele>
				<time>2015-05-07T00:45:47Z</time>
				<extensions>
				</extensions>
			</trkpt>
			<trkpt lat="-28.138063" lon="153.042517">
				<ele>154</ele>
				<time>2015-05-07T00:45:48Z</time>
				<extensions>
				</extensions>
			</trkpt>
			<trkpt lat="-28.138424" lon="153.042477">
				<ele>152</ele>
				<time>2015-05-07T00:45:50Z</time>
				<extensions>
				</extensions>
			</trkpt>
			<trkpt lat="-28.138615" lon="153.042456">
				<ele>153</ele>
				<time>2015-05-07T00:45:51Z</time>
				<extensions>
				</extensions>
			</trkpt>
			<trkpt lat="-28.138810" lon="153.042426">
				<ele>153</ele>
				<time>2015-05-07T00:45:52Z</time>
				<extensions>
				</extensions>
			</trkpt>
			<trkpt lat="-28.139002" lon="153.042391">
				<ele>152</ele>
				<time>2015-05-07T00:45:53Z</time>
				<extensions>
				</extensions>
			</trkpt>
			<trkpt lat="-28.139214" lon="153.042353">
				<ele>152</ele>
				<time>2015-05-07T00:45:54Z</time>
				<extensions>
				</extensions>
			</trkpt>
			<trkpt lat="-28.139419" lon="153.042317">
				<ele>151</ele>
				<time>2015-05-07T00:45:55Z</time>
				<extensions>
				</extensions>
			</trkpt>
			<trkpt lat="-28.139631" lon="153.042288">
				<ele>151</ele>
				<time>2015-05-07T00:45:56Z</time>
				<extensions>
				</extensions>
			</trkpt>
			<trkpt lat="-28.139836" lon="153.042263">
				<ele>153</ele>
				<time>2015-05-07T00:45:57Z</time>
				<extensions>
				</extensions>
			</trkpt>
			<trkpt lat="-28.140040" lon="153.042240">
				<ele>155</ele>
				<time>2015-05-07T00:45:58Z</time>
				<extensions>
				</extensions>
			</trkpt>
			<trkpt lat="-28.140235" lon="153.042208">
				<ele>156</ele>
				<time>2015-05-07T00:45:59Z</time>
				<extensions>
				</extensions>
			</trkpt>
			<trkpt lat="-28.140421" lon="153.042184">
				<ele>156</ele>
				<time>2015-05-07T00:46:00Z</time>
				<extensions>
				</extensions>
			</trkpt>
			<trkpt lat="-28.140782" lon="153.042139">
				<ele>156</ele>
				<time>2015-05-07T00:46:02Z</time>
				<extensions>
				</extensions>
			</trkpt>
			<trkpt lat="-28.140973" lon="153.042121">
				<ele>156</ele>
				<time>2015-05-07T00:46:03Z</time>
				<extensions>
				</extensions>
			</trkpt>
			<trkpt lat="-28.141159" lon="153.042098">
				<ele>155</ele>
				<time>2015-05-07T00:46:04Z</time>
				<extensions>
				</extensions>
			</trkpt>
			<trkpt lat="-28.141359" lon="153.042072">
				<ele>156</ele>
				<time>2015-05-07T00:46:05Z</time>
				<extensions>
				</extensions>
			</trkpt>
			<trkpt lat="-28.141552" lon="153.042030">
				<ele>156</ele>
				<time>2015-05-07T00:46:06Z</time>
				<extensions>
				</extensions>
			</trkpt>
			<trkpt lat="-28.141759" lon="153.042007">
				<ele>158</ele>
				<time>2015-05-07T00:46:07Z</time>
				<extensions>
				</extensions>
			</trkpt>
			<trkpt lat="-28.141945" lon="153.041975">
				<ele>158</ele>
				<time>2015-05-07T00:46:08Z</time>
				<extensions>
				</extensions>
			</trkpt>
			<trkpt lat="-28.142129" lon="153.041952">
				<ele>159</ele>
				<time>2015-05-07T00:46:09Z</time>
				<extensions>
				</extensions>
			</trkpt>
			<trkpt lat="-28.142506" lon="153.041925">
				<ele>158</ele>
				<time>2015-05-07T00:46:11Z</time>
				<extensions>
				</extensions>
			</trkpt>
			<trkpt lat="-28.142708" lon="153.041900">
				<ele>157</ele>
				<time>2015-05-07T00:46:12Z</time>
				<extensions>
				</extensions>
			</trkpt>
			<trkpt lat="-28.142911" lon="153.041874">
				<ele>157</ele>
				<time>2015-05-07T00:46:13Z</time>
				<extensions>
				</extensions>
			</trkpt>
			<trkpt lat="-28.143111" lon="153.041832">
				<ele>157</ele>
				<time>2015-05-07T00:46:14Z</time>
				<extensions>
				</extensions>
			</trkpt>
			<trkpt lat="-28.143304" lon="153.041796">
				<ele>155</ele>
				<time>2015-05-07T00:46:15Z</time>
				<extensions>
				</extensions>
			</trkpt>
			<trkpt lat="-28.143499" lon="153.041765">
				<ele>154</ele>
				<time>2015-05-07T00:46:16Z</time>
				<extensions>
				</extensions>
			</trkpt>
			<trkpt lat="-28.143684" lon="153.041738">
				<ele>152</ele>
				<time>2015-05-07T00:46:17Z</time>
				<extensions>
				</extensions>
			</trkpt>
			<trkpt lat="-28.144042" lon="153.041700">
				<ele>150</ele>
				<time>2015-05-07T00:46:19Z</time>
				<extensions>
				</extensions>
			</trkpt>
			<trkpt lat="-28.144410" lon="153.041623">
				<ele>148</ele>
				<time>2015-05-07T00:46:21Z</time>
				<extensions>
				</extensions>
			</trkpt>
			<trkpt lat="-28.144761" lon="153.041567">
				<ele>149</ele>
				<time>2015-05-07T00:46:23Z</time>
				<extensions>
				</extensions>
			</trkpt>
			<trkpt lat="-28.145128" lon="153.041483">
				<ele>148</ele>
				<time>2015-05-07T00:46:25Z</time>
				<extensions>
				</extensions>
			</trkpt>
			<trkpt lat="-28.145322" lon="153.041459">
				<ele>148</ele>
				<time>2015-05-07T00:46:26Z</time>
				<extensions>
				</extensions>
			</trkpt>
			<trkpt lat="-28.145518" lon="153.041421">
				<ele>147</ele>
				<time>2015-05-07T00:46:27Z</time>
				<extensions>
				</extensions>
			</trkpt>
			<trkpt lat="-28.145869" lon="153.041348">
				<ele>146</ele>
				<time>2015-05-07T00:46:29Z</time>
				<extensions>
				</extensions>
			</trkpt>
			<trkpt lat="-28.146204" lon="153.041268">
				<ele>144</ele>
				<time>2015-05-07T00:46:31Z</time>
				<extensions>
				</extensions>
			</trkpt>
			<trkpt lat="-28.146540" lon="153.041212">
				<ele>142</ele>
				<time>2015-05-07T00:46:33Z</time>
				<extensions>
				</extensions>
			</trkpt>
			<trkpt lat="-28.146873" lon="153.041139">
				<ele>140</ele>
				<time>2015-05-07T00:46:35Z</time>
				<extensions>
				</extensions>
			</trkpt>
			<trkpt lat="-28.147184" lon="153.041083">
				<ele>139</ele>
				<time>2015-05-07T00:46:37Z</time>
				<extensions>
				</extensions>
			</trkpt>
			<trkpt lat="-28.147474" lon="153.041023">
				<ele>137</ele>
				<time>2015-05-07T00:46:39Z</time>
				<extensions>
				</extensions>
			</trkpt>
			<trkpt lat="-28.147750" lon="153.040972">
				<ele>136</ele>
				<time>2015-05-07T00:46:41Z</time>
				<extensions>
				</extensions>
			</trkpt>
			<trkpt lat="-28.148002" lon="153.040955">
				<ele>135</ele>
				<time>2015-05-07T00:46:43Z</time>
				<extensions>
				</extensions>
			</trkpt>
			<trkpt lat="-28.148217" lon="153.040946">
				<ele>135</ele>
				<time>2015-05-07T00:46:45Z</time>
				<extensions>
				</extensions>
			</trkpt>
			<trkpt lat="-28.148449" lon="153.040947">
				<ele>136</ele>
				<time>2015-05-07T00:46:47Z</time>
				<extensions>
				</extensions>
			</trkpt>
			<trkpt lat="-28.148677" lon="153.040943">
				<ele>137</ele>
				<time>2015-05-07T00:46:49Z</time>
				<extensions>
				</extensions>
			</trkpt>
			<trkpt lat="-28.148915" lon="153.040947">
				<ele>138</ele>
				<time>2015-05-07T00:46:51Z</time>
				<extensions>
				</extensions>
			</trkpt>
			<trkpt lat="-28.149162" lon="153.040948">
				<ele>137</ele>
				<time>2015-05-07T00:46:53Z</time>
				<extensions>
				</extensions>
			</trkpt>
			<trkpt lat="-28.149395" lon="153.040954">
				<ele>137</ele>
				<time>2015-05-07T00:46:55Z</time>
				<extensions>
				</extensions>
			</trkpt>
			<trkpt lat="-28.149627" lon="153.040954">
				<ele>137</ele>
				<time>2015-05-07T00:46:57Z</time>
				<extensions>
				</extensions>
			</trkpt>
			<trkpt lat="-28.149869" lon="153.040946">
				<ele>138</ele>
				<time>2015-05-07T00:46:59Z</time>
				<extensions>
				</extensions>
			</trkpt>
			<trkpt lat="-28.150133" lon="153.040953">
				<ele>139</ele>
				<time>2015-05-07T00:47:01Z</time>
				<extensions>
				</extensions>
			</trkpt>
			<trkpt lat="-28.150454" lon="153.040954">
				<ele>142</ele>
				<time>2015-05-07T00:47:03Z</time>
				<extensions>
				</extensions>
			</trkpt>
			<trkpt lat="-28.150636" lon="153.040977">
				<ele>142</ele>
				<time>2015-05-07T00:47:04Z</time>
				<extensions>
				</extensions>
			</trkpt>
			<trkpt lat="-28.150817" lon="153.040970">
				<ele>144</ele>
				<time>2015-05-07T00:47:05Z</time>
				<extensions>
				</extensions>
			</trkpt>
			<trkpt lat="-28.151189" lon="153.040966">
				<ele>146</ele>
				<time>2015-05-07T00:47:07Z</time>
				<extensions>
				</extensions>
			</trkpt>
			<trkpt lat="-28.151380" lon="153.040982">
				<ele>146</ele>
				<time>2015-05-07T00:47:08Z</time>
				<extensions>
				</extensions>
			</trkpt>
			<trkpt lat="-28.151574" lon="153.040988">
				<ele>146</ele>
				<time>2015-05-07T00:47:09Z</time>
				<extensions>
				</extensions>
			</trkpt>
			<trkpt lat="-28.151764" lon="153.041025">
				<ele>146</ele>
				<time>2015-05-07T00:47:10Z</time>
				<extensions>
				</extensions>
			</trkpt>
			<trkpt lat="-28.151958" lon="153.041095">
				<ele>146</ele>
				<time>2015-05-07T00:47:11Z</time>
				<extensions>
				</extensions>
			</trkpt>
			<trkpt lat="-28.152160" lon="153.041182">
				<ele>147</ele>
				<time>2015-05-07T00:47:12Z</time>
				<extensions>
				</extensions>
			</trkpt>
			<trkpt lat="-28.152349" lon="153.041266">
				<ele>148</ele>
				<time>2015-05-07T00:47:13Z</time>
				<extensions>
				</extensions>
			</trkpt>
			<trkpt lat="-28.152544" lon="153.041354">
				<ele>149</ele>
				<time>2015-05-07T00:47:14Z</time>
				<extensions>
				</extensions>
			</trkpt>
			<trkpt lat="-28.152752" lon="153.041455">
				<ele>149</ele>
				<time>2015-05-07T00:47:15Z</time>
				<extensions>
				</extensions>
			</trkpt>
			<trkpt lat="-28.152970" lon="153.041542">
				<ele>149</ele>
				<time>2015-05-07T00:47:16Z</time>
				<extensions>
				</extensions>
			</trkpt>
			<trkpt lat="-28.153177" lon="153.041636">
				<ele>149</ele>
				<time>2015-05-07T00:47:17Z</time>
				<extensions>
				</extensions>
			</trkpt>
			<trkpt lat="-28.153377" lon="153.041727">
				<ele>148</ele>
				<time>2015-05-07T00:47:18Z</time>
				<extensions>
				</extensions>
			</trkpt>
			<trkpt lat="-28.153568" lon="153.041813">
				<ele>148</ele>
				<time>2015-05-07T00:47:19Z</time>
				<extensions>
				</extensions>
			</trkpt>
			<trkpt lat="-28.153768" lon="153.041901">
				<ele>149</ele>
				<time>2015-05-07T00:47:20Z</time>
				<extensions>
				</extensions>
			</trkpt>
			<trkpt lat="-28.153963" lon="153.041992">
				<ele>150</ele>
				<time>2015-05-07T00:47:21Z</time>
				<extensions>
				</extensions>
			</trkpt>
			<trkpt lat="-28.154165" lon="153.042082">
				<ele>149</ele>
				<time>2015-05-07T00:47:22Z</time>
				<extensions>
				</extensions>
			</trkpt>
			<trkpt lat="-28.154359" lon="153.042168">
				<ele>149</ele>
				<time>2015-05-07T00:47:23Z</time>
				<extensions>
				</extensions>
			</trkpt>
			<trkpt lat="-28.154546" lon="153.042254">
				<ele>148</ele>
				<time>2015-05-07T00:47:24Z</time>
				<extensions>
				</extensions>
			</trkpt>
			<trkpt lat="-28.154767" lon="153.042344">
				<ele>148</ele>
				<time>2015-05-07T00:47:25Z</time>
				<extensions>
				</extensions>
			</trkpt>
			<trkpt lat="-28.154949" lon="153.042432">
				<ele>149</ele>
				<time>2015-05-07T00:47:26Z</time>
				<extensions>
				</extensions>
			</trkpt>
			<trkpt lat="-28.155123" lon="153.042516">
				<ele>148</ele>
				<time>2015-05-07T00:47:27Z</time>
				<extensions>
				</extensions>
			</trkpt>
			<trkpt lat="-28.155309" lon="153.042601">
				<ele>148</ele>
				<time>2015-05-07T00:47:28Z</time>
				<extensions>
				</extensions>
			</trkpt>
			<trkpt lat="-28.155616" lon="153.042737">
				<ele>148</ele>
				<time>2015-05-07T00:47:30Z</time>
				<extensions>
				</extensions>
			</trkpt>
			<trkpt lat="-28.155932" lon="153.042875">
				<ele>147</ele>
				<time>2015-05-07T00:47:32Z</time>
				<extensions>
				</extensions>
			</trkpt>
			<trkpt lat="-28.156252" lon="153.042966">
				<ele>146</ele>
				<time>2015-05-07T00:47:34Z</time>
				<extensions>
				</extensions>
			</trkpt>
			<trkpt lat="-28.156585" lon="153.043010">
				<ele>147</ele>
				<time>2015-05-07T00:47:36Z</time>
				<extensions>
				</extensions>
			</trkpt>
			<trkpt lat="-28.156915" lon="153.042991">
				<ele>146</ele>
				<time>2015-05-07T00:47:38Z</time>
				<extensions>
				</extensions>
			</trkpt>
			<trkpt lat="-28.157234" lon="153.042913">
				<ele>145</ele>
				<time>2015-05-07T00:47:40Z</time>
				<extensions>
				</extensions>
			</trkpt>
			<trkpt lat="-28.157521" lon="153.042849">
				<ele>144</ele>
				<time>2015-05-07T00:47:42Z</time>
				<extensions>
				</extensions>
			</trkpt>
			<trkpt lat="-28.157790" lon="153.042733">
				<ele>142</ele>
				<time>2015-05-07T00:47:44Z</time>
				<extensions>
				</extensions>
			</trkpt>
			<trkpt lat="-28.157993" lon="153.042698">
				<ele>141</ele>
				<time>2015-05-07T00:47:46Z</time>
				<extensions>
				</extensions>
			</trkpt>
			<trkpt lat="-28.158172" lon="153.042654">
				<ele>139</ele>
				<time>2015-05-07T00:47:48Z</time>
				<extensions>
				</extensions>
			</trkpt>
			<trkpt lat="-28.158425" lon="153.042549">
				<ele>140</ele>
				<time>2015-05-07T00:47:51Z</time>
				<extensions>
				</extensions>
			</trkpt>
			<trkpt lat="-28.158608" lon="153.042520">
				<ele>142</ele>
				<time>2015-05-07T00:47:53Z</time>
				<extensions>
				</extensions>
			</trkpt>
			<trkpt lat="-28.158844" lon="153.042464">
				<ele>142</ele>
				<time>2015-05-07T00:47:55Z</time>
				<extensions>
				</extensions>
			</trkpt>
			<trkpt lat="-28.159098" lon="153.042400">
				<ele>145</ele>
				<time>2015-05-07T00:47:57Z</time>
				<extensions>
				</extensions>
			</trkpt>
			<trkpt lat="-28.159348" lon="153.042351">
				<ele>146</ele>
				<time>2015-05-07T00:47:59Z</time>
				<extensions>
				</extensions>
			</trkpt>
			<trkpt lat="-28.159618" lon="153.042314">
				<ele>148</ele>
				<time>2015-05-07T00:48:01Z</time>
				<extensions>
				</extensions>
			</trkpt>
			<trkpt lat="-28.159856" lon="153.042311">
				<ele>147</ele>
				<time>2015-05-07T00:48:03Z</time>
				<extensions>
				</extensions>
			</trkpt>
			<trkpt lat="-28.160069" lon="153.042326">
				<ele>146</ele>
				<time>2015-05-07T00:48:05Z</time>
				<extensions>
				</extensions>
			</trkpt>
			<trkpt lat="-28.160304" lon="153.042383">
				<ele>147</ele>
				<time>2015-05-07T00:48:07Z</time>
				<extensions>
				</extensions>
			</trkpt>
			<trkpt lat="-28.160572" lon="153.042491">
				<ele>149</ele>
				<time>2015-05-07T00:48:09Z</time>
				<extensions>
				</extensions>
			</trkpt>
			<trkpt lat="-28.160830" lon="153.042636">
				<ele>150</ele>
				<time>2015-05-07T00:48:11Z</time>
				<extensions>
				</extensions>
			</trkpt>
			<trkpt lat="-28.161068" lon="153.042830">
				<ele>150</ele>
				<time>2015-05-07T00:48:13Z</time>
				<extensions>
				</extensions>
			</trkpt>
			<trkpt lat="-28.161269" lon="153.043058">
				<ele>150</ele>
				<time>2015-05-07T00:48:15Z</time>
				<extensions>
				</extensions>
			</trkpt>
			<trkpt lat="-28.161448" lon="153.043316">
				<ele>149</ele>
				<time>2015-05-07T00:48:17Z</time>
				<extensions>
				</extensions>
			</trkpt>
			<trkpt lat="-28.161615" lon="153.043593">
				<ele>151</ele>
				<time>2015-05-07T00:48:19Z</time>
				<extensions>
				</extensions>
			</trkpt>
			<trkpt lat="-28.161787" lon="153.043851">
				<ele>152</ele>
				<time>2015-05-07T00:48:21Z</time>
				<extensions>
				</extensions>
			</trkpt>
			<trkpt lat="-28.161969" lon="153.044101">
				<ele>156</ele>
				<time>2015-05-07T00:48:23Z</time>
				<extensions>
				</extensions>
			</trkpt>
			<trkpt lat="-28.162162" lon="153.044357">
				<ele>160</ele>
				<time>2015-05-07T00:48:25Z</time>
				<extensions>
				</extensions>
			</trkpt>
			<trkpt lat="-28.162371" lon="153.044606">
				<ele>165</ele>
				<time>2015-05-07T00:48:27Z</time>
				<extensions>
				</extensions>
			</trkpt>
			<trkpt lat="-28.162601" lon="153.044849">
				<ele>168</ele>
				<time>2015-05-07T00:48:29Z</time>
				<extensions>
				</extensions>
			</trkpt>
			<trkpt lat="-28.162834" lon="153.045100">
				<ele>170</ele>
				<time>2015-05-07T00:48:31Z</time>
				<extensions>
				</extensions>
			</trkpt>
			<trkpt lat="-28.163069" lon="153.045332">
				<ele>169</ele>
				<time>2015-05-07T00:48:33Z</time>
				<extensions>
				</extensions>
			</trkpt>
			<trkpt lat="-28.163304" lon="153.045571">
				<ele>167</ele>
				<time>2015-05-07T00:48:35Z</time>
				<extensions>
				</extensions>
			</trkpt>
			<trkpt lat="-28.163542" lon="153.045789">
				<ele>165</ele>
				<time>2015-05-07T00:48:37Z</time>
				<extensions>
				</extensions>
			</trkpt>
			<trkpt lat="-28.163785" lon="153.045983">
				<ele>163</ele>
				<time>2015-05-07T00:48:39Z</time>
				<extensions>
				</extensions>
			</trkpt>
			<trkpt lat="-28.164045" lon="153.046124">
				<ele>160</ele>
				<time>2015-05-07T00:48:41Z</time>
				<extensions>
				</extensions>
			</trkpt>
			<trkpt lat="-28.164343" lon="153.046224">
				<ele>159</ele>
				<time>2015-05-07T00:48:43Z</time>
				<extensions>
				</extensions>
			</trkpt>
			<trkpt lat="-28.164637" lon="153.046253">
				<ele>157</ele>
				<time>2015-05-07T00:48:45Z</time>
				<extensions>
				</extensions>
			</trkpt>
			<trkpt lat="-28.164926" lon="153.046213">
				<ele>156</ele>
				<time>2015-05-07T00:48:47Z</time>
				<extensions>
				</extensions>
			</trkpt>
			<trkpt lat="-28.165211" lon="153.046104">
				<ele>158</ele>
				<time>2015-05-07T00:48:49Z</time>
				<extensions>
				</extensions>
			</trkpt>
			<trkpt lat="-28.165480" lon="153.045924">
				<ele>158</ele>
				<time>2015-05-07T00:48:51Z</time>
				<extensions>
				</extensions>
			</trkpt>
			<trkpt lat="-28.165714" lon="153.045695">
				<ele>157</ele>
				<time>2015-05-07T00:48:53Z</time>
				<extensions>
				</extensions>
			</trkpt>
			<trkpt lat="-28.165918" lon="153.045408">
				<ele>157</ele>
				<time>2015-05-07T00:48:55Z</time>
				<extensions>
				</extensions>
			</trkpt>
			<trkpt lat="-28.166133" lon="153.045113">
				<ele>157</ele>
				<time>2015-05-07T00:48:57Z</time>
				<extensions>
				</extensions>
			</trkpt>
			<trkpt lat="-28.166353" lon="153.044816">
				<ele>157</ele>
				<time>2015-05-07T00:48:59Z</time>
				<extensions>
				</extensions>
			</trkpt>
			<trkpt lat="-28.166477" lon="153.044639">
				<ele>161</ele>
				<time>2015-05-07T00:49:00Z</time>
				<extensions>
				</extensions>
			</trkpt>
			<trkpt lat="-28.166593" lon="153.044474">
				<ele>162</ele>
				<time>2015-05-07T00:49:01Z</time>
				<extensions>
				</extensions>
			</trkpt>
			<trkpt lat="-28.166813" lon="153.044188">
				<ele>162</ele>
				<time>2015-05-07T00:49:03Z</time>
				<extensions>
				</extensions>
			</trkpt>
			<trkpt lat="-28.167013" lon="153.043898">
				<ele>163</ele>
				<time>2015-05-07T00:49:05Z</time>
				<extensions>
				</extensions>
			</trkpt>
			<trkpt lat="-28.167238" lon="153.043612">
				<ele>163</ele>
				<time>2015-05-07T00:49:07Z</time>
				<extensions>
				</extensions>
			</trkpt>
			<trkpt lat="-28.167468" lon="153.043334">
				<ele>162</ele>
				<time>2015-05-07T00:49:09Z</time>
				<extensions>
				</extensions>
			</trkpt>
			<trkpt lat="-28.167727" lon="153.043059">
				<ele>164</ele>
				<time>2015-05-07T00:49:11Z</time>
				<extensions>
				</extensions>
			</trkpt>
			<trkpt lat="-28.167856" lon="153.042912">
				<ele>164</ele>
				<time>2015-05-07T00:49:12Z</time>
				<extensions>
				</extensions>
			</trkpt>
			<trkpt lat="-28.168110" lon="153.042645">
				<ele>163</ele>
				<time>2015-05-07T00:49:14Z</time>
				<extensions>
				</extensions>
			</trkpt>
			<trkpt lat="-28.168356" lon="153.042403">
				<ele>162</ele>
				<time>2015-05-07T00:49:16Z</time>
				<extensions>
				</extensions>
			</trkpt>
			<trkpt lat="-28.168621" lon="153.042156">
				<ele>162</ele>
				<time>2015-05-07T00:49:18Z</time>
				<extensions>
				</extensions>
			</trkpt>
			<trkpt lat="-28.168912" lon="153.041927">
				<ele>163</ele>
				<time>2015-05-07T00:49:20Z</time>
				<extensions>
				</extensions>
			</trkpt>
			<trkpt lat="-28.169231" lon="153.041760">
				<ele>161</ele>
				<time>2015-05-07T00:49:22Z</time>
				<extensions>
				</extensions>
			</trkpt>
			<trkpt lat="-28.169402" lon="153.041688">
				<ele>163</ele>
				<time>2015-05-07T00:49:23Z</time>
				<extensions>
				</extensions>
			</trkpt>
			<trkpt lat="-28.169734" lon="153.041662">
				<ele>161</ele>
				<time>2015-05-07T00:49:25Z</time>
				<extensions>
				</extensions>
			</trkpt>
			<trkpt lat="-28.169919" lon="153.041622">
				<ele>161</ele>
				<time>2015-05-07T00:49:26Z</time>
				<extensions>
				</extensions>
			</trkpt>
			<trkpt lat="-28.170256" lon="153.041677">
				<ele>162</ele>
				<time>2015-05-07T00:49:28Z</time>
				<extensions>
				</extensions>
			</trkpt>
			<trkpt lat="-28.170597" lon="153.041741">
				<ele>161</ele>
				<time>2015-05-07T00:49:30Z</time>
				<extensions>
				</extensions>
			</trkpt>
			<trkpt lat="-28.170945" lon="153.041817">
				<ele>160</ele>
				<time>2015-05-07T00:49:32Z</time>
				<extensions>
				</extensions>
			</trkpt>
			<trkpt lat="-28.171123" lon="153.041854">
				<ele>160</ele>
				<time>2015-05-07T00:49:33Z</time>
				<extensions>
				</extensions>
			</trkpt>
			<trkpt lat="-28.171475" lon="153.041907">
				<ele>159</ele>
				<time>2015-05-07T00:49:35Z</time>
				<extensions>
				</extensions>
			</trkpt>
			<trkpt lat="-28.171823" lon="153.041948">
				<ele>158</ele>
				<time>2015-05-07T00:49:37Z</time>
				<extensions>
				</extensions>
			</trkpt>
			<trkpt lat="-28.172174" lon="153.041973">
				<ele>159</ele>
				<time>2015-05-07T00:49:39Z</time>
				<extensions>
				</extensions>
			</trkpt>
			<trkpt lat="-28.172364" lon="153.041994">
				<ele>160</ele>
				<time>2015-05-07T00:49:40Z</time>
				<extensions>
				</extensions>
			</trkpt>
			<trkpt lat="-28.172551" lon="153.042015">
				<ele>159</ele>
				<time>2015-05-07T00:49:41Z</time>
				<extensions>
				</extensions>
			</trkpt>
			<trkpt lat="-28.172743" lon="153.042035">
				<ele>160</ele>
				<time>2015-05-07T00:49:42Z</time>
				<extensions>
				</extensions>
			</trkpt>
			<trkpt lat="-28.172927" lon="153.042050">
				<ele>161</ele>
				<time>2015-05-07T00:49:43Z</time>
				<extensions>
				</extensions>
			</trkpt>
			<trkpt lat="-28.173270" lon="153.042053">
				<ele>158</ele>
				<time>2015-05-07T00:49:45Z</time>
				<extensions>
				</extensions>
			</trkpt>
			<trkpt lat="-28.173606" lon="153.042031">
				<ele>157</ele>
				<time>2015-05-07T00:49:47Z</time>
				<extensions>
				</extensions>
			</trkpt>
			<trkpt lat="-28.173945" lon="153.041960">
				<ele>159</ele>
				<time>2015-05-07T00:49:49Z</time>
				<extensions>
				</extensions>
			</trkpt>
			<trkpt lat="-28.174125" lon="153.041902">
				<ele>162</ele>
				<time>2015-05-07T00:49:50Z</time>
				<extensions>
				</extensions>
			</trkpt>
			<trkpt lat="-28.174451" lon="153.041769">
				<ele>162</ele>
				<time>2015-05-07T00:49:52Z</time>
				<extensions>
				</extensions>
			</trkpt>
			<trkpt lat="-28.174746" lon="153.041642">
				<ele>163</ele>
				<time>2015-05-07T00:49:54Z</time>
				<extensions>
				</extensions>
			</trkpt>
			<trkpt lat="-28.175040" lon="153.041517">
				<ele>164</ele>
				<time>2015-05-07T00:49:56Z</time>
				<extensions>
				</extensions>
			</trkpt>
			<trkpt lat="-28.175372" lon="153.041344">
				<ele>167</ele>
				<time>2015-05-07T00:49:58Z</time>
				<extensions>
				</extensions>
			</trkpt>
			<trkpt lat="-28.175695" lon="153.041210">
				<ele>170</ele>
				<time>2015-05-07T00:50:00Z</time>
				<extensions>
				</extensions>
			</trkpt>
			<trkpt lat="-28.176031" lon="153.041067">
				<ele>171</ele>
				<time>2015-05-07T00:50:02Z</time>
				<extensions>
				</extensions>
			</trkpt>
			<trkpt lat="-28.176334" lon="153.040932">
				<ele>175</ele>
				<time>2015-05-07T00:50:04Z</time>
				<extensions>
				</extensions>
			</trkpt>
			<trkpt lat="-28.176652" lon="153.040816">
				<ele>179</ele>
				<time>2015-05-07T00:50:06Z</time>
				<extensions>
				</extensions>
			</trkpt>
			<trkpt lat="-28.176828" lon="153.040749">
				<ele>181</ele>
				<time>2015-05-07T00:50:07Z</time>
				<extensions>
				</extensions>
			</trkpt>
			<trkpt lat="-28.177168" lon="153.040680">
				<ele>181</ele>
				<time>2015-05-07T00:50:09Z</time>
				<extensions>
				</extensions>
			</trkpt>
			<trkpt lat="-28.177524" lon="153.040666">
				<ele>181</ele>
				<time>2015-05-07T00:50:11Z</time>
				<extensions>
				</extensions>
			</trkpt>
			<trkpt lat="-28.177870" lon="153.040722">
				<ele>176</ele>
				<time>2015-05-07T00:50:13Z</time>
				<extensions>
				</extensions>
			</trkpt>
			<trkpt lat="-28.178055" lon="153.040743">
				<ele>174</ele>
				<time>2015-05-07T00:50:14Z</time>
				<extensions>
				</extensions>
			</trkpt>
			<trkpt lat="-28.178408" lon="153.040793">
				<ele>172</ele>
				<time>2015-05-07T00:50:16Z</time>
				<extensions>
				</extensions>
			</trkpt>
			<trkpt lat="-28.178741" lon="153.040823">
				<ele>166</ele>
				<time>2015-05-07T00:50:18Z</time>
				<extensions>
				</extensions>
			</trkpt>
			<trkpt lat="-28.179086" lon="153.040859">
				<ele>164</ele>
				<time>2015-05-07T00:50:20Z</time>
				<extensions>
				</extensions>
			</trkpt>
			<trkpt lat="-28.179399" lon="153.040887">
				<ele>161</ele>
				<time>2015-05-07T00:50:22Z</time>
				<extensions>
				</extensions>
			</trkpt>
			<trkpt lat="-28.179726" lon="153.040927">
				<ele>161</ele>
				<time>2015-05-07T00:50:24Z</time>
				<extensions>
				</extensions>
			</trkpt>
			<trkpt lat="-28.180061" lon="153.040967">
				<ele>160</ele>
				<time>2015-05-07T00:50:26Z</time>
				<extensions>
				</extensions>
			</trkpt>
			<trkpt lat="-28.180393" lon="153.040986">
				<ele>161</ele>
				<time>2015-05-07T00:50:28Z</time>
				<extensions>
				</extensions>
			</trkpt>
			<trkpt lat="-28.180735" lon="153.040984">
				<ele>161</ele>
				<time>2015-05-07T00:50:30Z</time>
				<extensions>
				</extensions>
			</trkpt>
			<trkpt lat="-28.181057" lon="153.040940">
				<ele>161</ele>
				<time>2015-05-07T00:50:32Z</time>
				<extensions>
				</extensions>
			</trkpt>
			<trkpt lat="-28.181365" lon="153.040854">
				<ele>162</ele>
				<time>2015-05-07T00:50:34Z</time>
				<extensions>
				</extensions>
			</trkpt>
			<trkpt lat="-28.181658" lon="153.040728">
				<ele>160</ele>
				<time>2015-05-07T00:50:36Z</time>
				<extensions>
				</extensions>
			</trkpt>
			<trkpt lat="-28.181922" lon="153.040628">
				<ele>161</ele>
				<time>2015-05-07T00:50:38Z</time>
				<extensions>
				</extensions>
			</trkpt>
			<trkpt lat="-28.182157" lon="153.040536">
				<ele>159</ele>
				<time>2015-05-07T00:50:40Z</time>
				<extensions>
				</extensions>
			</trkpt>
			<trkpt lat="-28.182379" lon="153.040460">
				<ele>158</ele>
				<time>2015-05-07T00:50:42Z</time>
				<extensions>
				</extensions>
			</trkpt>
			<trkpt lat="-28.182589" lon="153.040403">
				<ele>157</ele>
				<time>2015-05-07T00:50:44Z</time>
				<extensions>
				</extensions>
			</trkpt>
			<trkpt lat="-28.182813" lon="153.040370">
				<ele>155</ele>
				<time>2015-05-07T00:50:46Z</time>
				<extensions>
				</extensions>
			</trkpt>
			<trkpt lat="-28.183060" lon="153.040374">
				<ele>156</ele>
				<time>2015-05-07T00:50:48Z</time>
				<extensions>
				</extensions>
			</trkpt>
			<trkpt lat="-28.183285" lon="153.040394">
				<ele>156</ele>
				<time>2015-05-07T00:50:50Z</time>
				<extensions>
				</extensions>
			</trkpt>
			<trkpt lat="-28.183494" lon="153.040419">
				<ele>154</ele>
				<time>2015-05-07T00:50:52Z</time>
				<extensions>
				</extensions>
			</trkpt>
			<trkpt lat="-28.183679" lon="153.040452">
				<ele>154</ele>
				<time>2015-05-07T00:50:54Z</time>
				<extensions>
				</extensions>
			</trkpt>
			<trkpt lat="-28.183877" lon="153.040491">
				<ele>152</ele>
				<time>2015-05-07T00:50:57Z</time>
				<extensions>
				</extensions>
			</trkpt>
			<trkpt lat="-28.184083" lon="153.040592">
				<ele>153</ele>
				<time>2015-05-07T00:51:02Z</time>
				<extensions>
				</extensions>
			</trkpt>
			<trkpt lat="-28.184010" lon="153.040786">
				<ele>152</ele>
				<time>2015-05-07T00:51:09Z</time>
				<extensions>
				</extensions>
			</trkpt>
			<trkpt lat="-28.183830" lon="153.040840">
				<ele>153</ele>
				<time>2015-05-07T00:51:17Z</time>
				<extensions>
				</extensions>
			</trkpt>
			<trkpt lat="-28.184011" lon="153.040755">
				<ele>168</ele>
				<time>2015-05-07T01:16:57Z</time>
				<extensions>
				</extensions>
			</trkpt>
			<trkpt lat="-28.184195" lon="153.040545">
				<ele>168</ele>
				<time>2015-05-07T01:17:02Z</time>
				<extensions>
				</extensions>
			</trkpt>
			<trkpt lat="-28.184411" lon="153.040541">
				<ele>168</ele>
				<time>2015-05-07T01:17:05Z</time>
				<extensions>
				</extensions>
			</trkpt>
			<trkpt lat="-28.184668" lon="153.040543">
				<ele>170</ele>
				<time>2015-05-07T01:17:07Z</time>
				<extensions>
				</extensions>
			</trkpt>
			<trkpt lat="-28.184918" lon="153.040518">
				<ele>171</ele>
				<time>2015-05-07T01:17:09Z</time>
				<extensions>
				</extensions>
			</trkpt>
			<trkpt lat="-28.185195" lon="153.040465">
				<ele>170</ele>
				<time>2015-05-07T01:17:11Z</time>
				<extensions>
				</extensions>
			</trkpt>
			<trkpt lat="-28.185489" lon="153.040433">
				<ele>172</ele>
				<time>2015-05-07T01:17:13Z</time>
				<extensions>
				</extensions>
			</trkpt>
			<trkpt lat="-28.185737" lon="153.040412">
				<ele>171</ele>
				<time>2015-05-07T01:17:15Z</time>
				<extensions>
				</extensions>
			</trkpt>
			<trkpt lat="-28.185967" lon="153.040393">
				<ele>172</ele>
				<time>2015-05-07T01:17:17Z</time>
				<extensions>
				</extensions>
			</trkpt>
			<trkpt lat="-28.186224" lon="153.040378">
				<ele>173</ele>
				<time>2015-05-07T01:17:19Z</time>
				<extensions>
				</extensions>
			</trkpt>
			<trkpt lat="-28.186491" lon="153.040387">
				<ele>175</ele>
				<time>2015-05-07T01:17:21Z</time>
				<extensions>
				</extensions>
			</trkpt>
			<trkpt lat="-28.186759" lon="153.040415">
				<ele>175</ele>
				<time>2015-05-07T01:17:23Z</time>
				<extensions>
				</extensions>
			</trkpt>
			<trkpt lat="-28.187018" lon="153.040452">
				<ele>174</ele>
				<time>2015-05-07T01:17:25Z</time>
				<extensions>
				</extensions>
			</trkpt>
			<trkpt lat="-28.187282" lon="153.040474">
				<ele>174</ele>
				<time>2015-05-07T01:17:27Z</time>
				<extensions>
				</extensions>
			</trkpt>
			<trkpt lat="-28.187531" lon="153.040493">
				<ele>175</ele>
				<time>2015-05-07T01:17:29Z</time>
				<extensions>
				</extensions>
			</trkpt>
			<trkpt lat="-28.187797" lon="153.040519">
				<ele>175</ele>
				<time>2015-05-07T01:17:31Z</time>
				<extensions>
				</extensions>
			</trkpt>
			<trkpt lat="-28.188064" lon="153.040550">
				<ele>176</ele>
				<time>2015-05-07T01:17:33Z</time>
				<extensions>
				</extensions>
			</trkpt>
			<trkpt lat="-28.188335" lon="153.040576">
				<ele>174</ele>
				<time>2015-05-07T01:17:35Z</time>
				<extensions>
				</extensions>
			</trkpt>
			<trkpt lat="-28.188604" lon="153.040599">
				<ele>175</ele>
				<time>2015-05-07T01:17:37Z</time>
				<extensions>
				</extensions>
			</trkpt>
			<trkpt lat="-28.188865" lon="153.040621">
				<ele>174</ele>
				<time>2015-05-07T01:17:39Z</time>
				<extensions>
				</extensions>
			</trkpt>
			<trkpt lat="-28.189125" lon="153.040648">
				<ele>176</ele>
				<time>2015-05-07T01:17:41Z</time>
				<extensions>
				</extensions>
			</trkpt>
			<trkpt lat="-28.189396" lon="153.040697">
				<ele>176</ele>
				<time>2015-05-07T01:17:43Z</time>
				<extensions>
				</extensions>
			</trkpt>
			<trkpt lat="-28.189671" lon="153.040753">
				<ele>177</ele>
				<time>2015-05-07T01:17:45Z</time>
				<extensions>
				</extensions>
			</trkpt>
			<trkpt lat="-28.189937" lon="153.040809">
				<ele>176</ele>
				<time>2015-05-07T01:17:47Z</time>
				<extensions>
				</extensions>
			</trkpt>
			<trkpt lat="-28.190201" lon="153.040869">
				<ele>177</ele>
				<time>2015-05-07T01:17:49Z</time>
				<extensions>
				</extensions>
			</trkpt>
			<trkpt lat="-28.190452" lon="153.040915">
				<ele>178</ele>
				<time>2015-05-07T01:17:51Z</time>
				<extensions>
				</extensions>
			</trkpt>
			<trkpt lat="-28.190713" lon="153.040969">
				<ele>177</ele>
				<time>2015-05-07T01:17:53Z</time>
				<extensions>
				</extensions>
			</trkpt>
			<trkpt lat="-28.190981" lon="153.041034">
				<ele>177</ele>
				<time>2015-05-07T01:17:55Z</time>
				<extensions>
				</extensions>
			</trkpt>
			<trkpt lat="-28.191263" lon="153.041098">
				<ele>178</ele>
				<time>2015-05-07T01:17:57Z</time>
				<extensions>
				</extensions>
			</trkpt>
			<trkpt lat="-28.191574" lon="153.041169">
				<ele>179</ele>
				<time>2015-05-07T01:17:59Z</time>
				<extensions>
				</extensions>
			</trkpt>
			<trkpt lat="-28.191870" lon="153.041244">
				<ele>179</ele>
				<time>2015-05-07T01:18:01Z</time>
				<extensions>
				</extensions>
			</trkpt>
			<trkpt lat="-28.192157" lon="153.041334">
				<ele>178</ele>
				<time>2015-05-07T01:18:03Z</time>
				<extensions>
				</extensions>
			</trkpt>
			<trkpt lat="-28.192402" lon="153.041444">
				<ele>177</ele>
				<time>2015-05-07T01:18:05Z</time>
				<extensions>
				</extensions>
			</trkpt>
			<trkpt lat="-28.192627" lon="153.041576">
				<ele>176</ele>
				<time>2015-05-07T01:18:07Z</time>
				<extensions>
				</extensions>
			</trkpt>
			<trkpt lat="-28.192824" lon="153.041707">
				<ele>176</ele>
				<time>2015-05-07T01:18:09Z</time>
				<extensions>
				</extensions>
			</trkpt>
			<trkpt lat="-28.193023" lon="153.041870">
				<ele>175</ele>
				<time>2015-05-07T01:18:11Z</time>
				<extensions>
				</extensions>
			</trkpt>
			<trkpt lat="-28.193197" lon="153.042039">
				<ele>171</ele>
				<time>2015-05-07T01:18:13Z</time>
				<extensions>
				</extensions>
			</trkpt>
			<trkpt lat="-28.193378" lon="153.042200">
				<ele>172</ele>
				<time>2015-05-07T01:18:15Z</time>
				<extensions>
				</extensions>
			</trkpt>
			<trkpt lat="-28.193577" lon="153.042355">
				<ele>173</ele>
				<time>2015-05-07T01:18:17Z</time>
				<extensions>
				</extensions>
			</trkpt>
			<trkpt lat="-28.193753" lon="153.042509">
				<ele>174</ele>
				<time>2015-05-07T01:18:19Z</time>
				<extensions>
				</extensions>
			</trkpt>
			<trkpt lat="-28.193941" lon="153.042650">
				<ele>175</ele>
				<time>2015-05-07T01:18:21Z</time>
				<extensions>
				</extensions>
			</trkpt>
			<trkpt lat="-28.194156" lon="153.042816">
				<ele>176</ele>
				<time>2015-05-07T01:18:23Z</time>
				<extensions>
				</extensions>
			</trkpt>
			<trkpt lat="-28.194421" lon="153.042960">
				<ele>179</ele>
				<time>2015-05-07T01:18:25Z</time>
				<extensions>
				</extensions>
			</trkpt>
			<trkpt lat="-28.194701" lon="153.043057">
				<ele>181</ele>
				<time>2015-05-07T01:18:27Z</time>
				<extensions>
				</extensions>
			</trkpt>
			<trkpt lat="-28.194993" lon="153.043105">
				<ele>183</ele>
				<time>2015-05-07T01:18:29Z</time>
				<extensions>
				</extensions>
			</trkpt>
			<trkpt lat="-28.195295" lon="153.043097">
				<ele>180</ele>
				<time>2015-05-07T01:18:31Z</time>
				<extensions>
				</extensions>
			</trkpt>
			<trkpt lat="-28.195593" lon="153.043029">
				<ele>180</ele>
				<time>2015-05-07T01:18:33Z</time>
				<extensions>
				</extensions>
			</trkpt>
			<trkpt lat="-28.195874" lon="153.042898">
				<ele>180</ele>
				<time>2015-05-07T01:18:35Z</time>
				<extensions>
				</extensions>
			</trkpt>
			<trkpt lat="-28.196151" lon="153.042708">
				<ele>183</ele>
				<time>2015-05-07T01:18:37Z</time>
				<extensions>
				</extensions>
			</trkpt>
			<trkpt lat="-28.196461" lon="153.042498">
				<ele>184</ele>
				<time>2015-05-07T01:18:39Z</time>
				<extensions>
				</extensions>
			</trkpt>
			<trkpt lat="-28.196632" lon="153.042382">
				<ele>185</ele>
				<time>2015-05-07T01:18:40Z</time>
				<extensions>
				</extensions>
			</trkpt>
			<trkpt lat="-28.196776" lon="153.042225">
				<ele>187</ele>
				<time>2015-05-07T01:18:41Z</time>
				<extensions>
				</extensions>
			</trkpt>
			<trkpt lat="-28.196951" lon="153.042087">
				<ele>188</ele>
				<time>2015-05-07T01:18:42Z</time>
				<extensions>
				</extensions>
			</trkpt>
			<trkpt lat="-28.197128" lon="153.041969">
				<ele>190</ele>
				<time>2015-05-07T01:18:43Z</time>
				<extensions>
				</extensions>
			</trkpt>
			<trkpt lat="-28.197301" lon="153.041859">
				<ele>190</ele>
				<time>2015-05-07T01:18:44Z</time>
				<extensions>
				</extensions>
			</trkpt>
			<trkpt lat="-28.197471" lon="153.041760">
				<ele>189</ele>
				<time>2015-05-07T01:18:45Z</time>
				<extensions>
				</extensions>
			</trkpt>
			<trkpt lat="-28.197645" lon="153.041663">
				<ele>190</ele>
				<time>2015-05-07T01:18:46Z</time>
				<extensions>
				</extensions>
			</trkpt>
			<trkpt lat="-28.197823" lon="153.041562">
				<ele>189</ele>
				<time>2015-05-07T01:18:47Z</time>
				<extensions>
				</extensions>
			</trkpt>
			<trkpt lat="-28.197999" lon="153.041469">
				<ele>190</ele>
				<time>2015-05-07T01:18:48Z</time>
				<extensions>
				</extensions>
			</trkpt>
			<trkpt lat="-28.198173" lon="153.041377">
				<ele>189</ele>
				<time>2015-05-07T01:18:49Z</time>
				<extensions>
				</extensions>
			</trkpt>
			<trkpt lat="-28.198348" lon="153.041287">
				<ele>190</ele>
				<time>2015-05-07T01:18:50Z</time>
				<extensions>
				</extensions>
			</trkpt>
			<trkpt lat="-28.198524" lon="153.041168">
				<ele>190</ele>
				<time>2015-05-07T01:18:51Z</time>
				<extensions>
				</extensions>
			</trkpt>
			<trkpt lat="-28.198868" lon="153.041021">
				<ele>189</ele>
				<time>2015-05-07T01:18:53Z</time>
				<extensions>
				</extensions>
			</trkpt>
			<trkpt lat="-28.199042" lon="153.040934">
				<ele>189</ele>
				<time>2015-05-07T01:18:54Z</time>
				<extensions>
				</extensions>
			</trkpt>
			<trkpt lat="-28.199212" lon="153.040836">
				<ele>189</ele>
				<time>2015-05-07T01:18:55Z</time>
				<extensions>
				</extensions>
			</trkpt>
			<trkpt lat="-28.199387" lon="153.040738">
				<ele>191</ele>
				<time>2015-05-07T01:18:56Z</time>
				<extensions>
				</extensions>
			</trkpt>
			<trkpt lat="-28.199568" lon="153.040635">
				<ele>193</ele>
				<time>2015-05-07T01:18:57Z</time>
				<extensions>
				</extensions>
			</trkpt>
			<trkpt lat="-28.199747" lon="153.040576">
				<ele>192</ele>
				<time>2015-05-07T01:18:58Z</time>
				<extensions>
				</extensions>
			</trkpt>
			<trkpt lat="-28.199934" lon="153.040487">
				<ele>192</ele>
				<time>2015-05-07T01:18:59Z</time>
				<extensions>
				</extensions>
			</trkpt>
			<trkpt lat="-28.200124" lon="153.040407">
				<ele>191</ele>
				<time>2015-05-07T01:19:00Z</time>
				<extensions>
				</extensions>
			</trkpt>
			<trkpt lat="-28.200317" lon="153.040336">
				<ele>191</ele>
				<time>2015-05-07T01:19:01Z</time>
				<extensions>
				</extensions>
			</trkpt>
			<trkpt lat="-28.200506" lon="153.040270">
				<ele>191</ele>
				<time>2015-05-07T01:19:02Z</time>
				<extensions>
				</extensions>
			</trkpt>
			<trkpt lat="-28.200702" lon="153.040179">
				<ele>190</ele>
				<time>2015-05-07T01:19:03Z</time>
				<extensions>
				</extensions>
			</trkpt>
			<trkpt lat="-28.200896" lon="153.040121">
				<ele>190</ele>
				<time>2015-05-07T01:19:04Z</time>
				<extensions>
				</extensions>
			</trkpt>
			<trkpt lat="-28.201079" lon="153.040059">
				<ele>190</ele>
				<time>2015-05-07T01:19:05Z</time>
				<extensions>
				</extensions>
			</trkpt>
			<trkpt lat="-28.201253" lon="153.039991">
				<ele>190</ele>
				<time>2015-05-07T01:19:06Z</time>
				<extensions>
				</extensions>
			</trkpt>
			<trkpt lat="-28.201583" lon="153.039894">
				<ele>187</ele>
				<time>2015-05-07T01:19:08Z</time>
				<extensions>
				</extensions>
			</trkpt>
			<trkpt lat="-28.201895" lon="153.039853">
				<ele>186</ele>
				<time>2015-05-07T01:19:10Z</time>
				<extensions>
				</extensions>
			</trkpt>
			<trkpt lat="-28.202222" lon="153.039869">
				<ele>187</ele>
				<time>2015-05-07T01:19:12Z</time>
				<extensions>
				</extensions>
			</trkpt>
			<trkpt lat="-28.202571" lon="153.039923">
				<ele>187</ele>
				<time>2015-05-07T01:19:14Z</time>
				<extensions>
				</extensions>
			</trkpt>
			<trkpt lat="-28.202909" lon="153.039973">
				<ele>186</ele>
				<time>2015-05-07T01:19:16Z</time>
				<extensions>
				</extensions>
			</trkpt>
			<trkpt lat="-28.203235" lon="153.040035">
				<ele>184</ele>
				<time>2015-05-07T01:19:18Z</time>
				<extensions>
				</extensions>
			</trkpt>
			<trkpt lat="-28.203523" lon="153.040076">
				<ele>184</ele>
				<time>2015-05-07T01:19:20Z</time>
				<extensions>
				</extensions>
			</trkpt>
			<trkpt lat="-28.203822" lon="153.040126">
				<ele>183</ele>
				<time>2015-05-07T01:19:22Z</time>
				<extensions>
				</extensions>
			</trkpt>
			<trkpt lat="-28.204108" lon="153.040157">
				<ele>182</ele>
				<time>2015-05-07T01:19:24Z</time>
				<extensions>
				</extensions>
			</trkpt>
			<trkpt lat="-28.204356" lon="153.040169">
				<ele>180</ele>
				<time>2015-05-07T01:19:26Z</time>
				<extensions>
				</extensions>
			</trkpt>
			<trkpt lat="-28.204606" lon="153.040181">
				<ele>178</ele>
				<time>2015-05-07T01:19:28Z</time>
				<extensions>
				</extensions>
			</trkpt>
			<trkpt lat="-28.204840" lon="153.040162">
				<ele>178</ele>
				<time>2015-05-07T01:19:30Z</time>
				<extensions>
				</extensions>
			</trkpt>
			<trkpt lat="-28.205042" lon="153.040171">
				<ele>175</ele>
				<time>2015-05-07T01:19:32Z</time>
				<extensions>
				</extensions>
			</trkpt>
			<trkpt lat="-28.205270" lon="153.040257">
				<ele>175</ele>
				<time>2015-05-07T01:19:35Z</time>
				<extensions>
				</extensions>
			</trkpt>
			<trkpt lat="-28.205453" lon="153.040460">
				<ele>174</ele>
				<time>2015-05-07T01:19:38Z</time>
				<extensions>
				</extensions>
			</trkpt>
			<trkpt lat="-28.205608" lon="153.040616">
				<ele>176</ele>
				<time>2015-05-07T01:19:40Z</time>
				<extensions>
				</extensions>
			</trkpt>
			<trkpt lat="-28.205795" lon="153.040788">
				<ele>177</ele>
				<time>2015-05-07T01:19:42Z</time>
				<extensions>
				</extensions>
			</trkpt>
			<trkpt lat="-28.205984" lon="153.040930">
				<ele>175</ele>
				<time>2015-05-07T01:19:44Z</time>
				<extensions>
				</extensions>
			</trkpt>
			<trkpt lat="-28.206229" lon="153.041011">
				<ele>177</ele>
				<time>2015-05-07T01:19:46Z</time>
				<extensions>
				</extensions>
			</trkpt>
			<trkpt lat="-28.206492" lon="153.041041">
				<ele>179</ele>
				<time>2015-05-07T01:19:48Z</time>
				<extensions>
				</extensions>
			</trkpt>
			<trkpt lat="-28.206757" lon="153.041085">
				<ele>179</ele>
				<time>2015-05-07T01:19:50Z</time>
				<extensions>
				</extensions>
			</trkpt>
			<trkpt lat="-28.207001" lon="153.041136">
				<ele>179</ele>
				<time>2015-05-07T01:19:52Z</time>
				<extensions>
				</extensions>
			</trkpt>
			<trkpt lat="-28.207274" lon="153.041220">
				<ele>180</ele>
				<time>2015-05-07T01:19:54Z</time>
				<extensions>
				</extensions>
			</trkpt>
			<trkpt lat="-28.207559" lon="153.041318">
				<ele>179</ele>
				<time>2015-05-07T01:19:56Z</time>
				<extensions>
				</extensions>
			</trkpt>
			<trkpt lat="-28.207880" lon="153.041405">
				<ele>180</ele>
				<time>2015-05-07T01:19:58Z</time>
				<extensions>
				</extensions>
			</trkpt>
			<trkpt lat="-28.208200" lon="153.041505">
				<ele>182</ele>
				<time>2015-05-07T01:20:00Z</time>
				<extensions>
				</extensions>
			</trkpt>
			<trkpt lat="-28.208532" lon="153.041609">
				<ele>185</ele>
				<time>2015-05-07T01:20:02Z</time>
				<extensions>
				</extensions>
			</trkpt>
			<trkpt lat="-28.208859" lon="153.041708">
				<ele>185</ele>
				<time>2015-05-07T01:20:04Z</time>
				<extensions>
				</extensions>
			</trkpt>
			<trkpt lat="-28.209188" lon="153.041818">
				<ele>186</ele>
				<time>2015-05-07T01:20:06Z</time>
				<extensions>
				</extensions>
			</trkpt>
			<trkpt lat="-28.209535" lon="153.041924">
				<ele>183</ele>
				<time>2015-05-07T01:20:08Z</time>
				<extensions>
				</extensions>
			</trkpt>
			<trkpt lat="-28.209858" lon="153.042015">
				<ele>183</ele>
				<time>2015-05-07T01:20:10Z</time>
				<extensions>
				</extensions>
			</trkpt>
			<trkpt lat="-28.210196" lon="153.042123">
				<ele>186</ele>
				<time>2015-05-07T01:20:12Z</time>
				<extensions>
				</extensions>
			</trkpt>
			<trkpt lat="-28.210523" lon="153.042227">
				<ele>184</ele>
				<time>2015-05-07T01:20:14Z</time>
				<extensions>
				</extensions>
			</trkpt>
			<trkpt lat="-28.210855" lon="153.042329">
				<ele>184</ele>
				<time>2015-05-07T01:20:16Z</time>
				<extensions>
				</extensions>
			</trkpt>
			<trkpt lat="-28.211182" lon="153.042423">
				<ele>185</ele>
				<time>2015-05-07T01:20:18Z</time>
				<extensions>
				</extensions>
			</trkpt>
			<trkpt lat="-28.211488" lon="153.042519">
				<ele>187</ele>
				<time>2015-05-07T01:20:20Z</time>
				<extensions>
				</extensions>
			</trkpt>
			<trkpt lat="-28.211771" lon="153.042608">
				<ele>185</ele>
				<time>2015-05-07T01:20:22Z</time>
				<extensions>
				</extensions>
			</trkpt>
			<trkpt lat="-28.212013" lon="153.042660">
				<ele>184</ele>
				<time>2015-05-07T01:20:24Z</time>
				<extensions>
				</extensions>
			</trkpt>
			<trkpt lat="-28.212311" lon="153.042756">
				<ele>185</ele>
				<time>2015-05-07T01:20:26Z</time>
				<extensions>
				</extensions>
			</trkpt>
			<trkpt lat="-28.212618" lon="153.042863">
				<ele>184</ele>
				<time>2015-05-07T01:20:28Z</time>
				<extensions>
				</extensions>
			</trkpt>
			<trkpt lat="-28.212793" lon="153.042913">
				<ele>185</ele>
				<time>2015-05-07T01:20:29Z</time>
				<extensions>
				</extensions>
			</trkpt>
			<trkpt lat="-28.213129" lon="153.043012">
				<ele>187</ele>
				<time>2015-05-07T01:20:31Z</time>
				<extensions>
				</extensions>
			</trkpt>
			<trkpt lat="-28.213307" lon="153.043069">
				<ele>187</ele>
				<time>2015-05-07T01:20:32Z</time>
				<extensions>
				</extensions>
			</trkpt>
			<trkpt lat="-28.213635" lon="153.043211">
				<ele>188</ele>
				<time>2015-05-07T01:20:34Z</time>
				<extensions>
				</extensions>
			</trkpt>
			<trkpt lat="-28.213796" lon="153.043307">
				<ele>188</ele>
				<time>2015-05-07T01:20:35Z</time>
				<extensions>
				</extensions>
			</trkpt>
			<trkpt lat="-28.213971" lon="153.043416">
				<ele>187</ele>
				<time>2015-05-07T01:20:36Z</time>
				<extensions>
				</extensions>
			</trkpt>
			<trkpt lat="-28.214137" lon="153.043516">
				<ele>188</ele>
				<time>2015-05-07T01:20:37Z</time>
				<extensions>
				</extensions>
			</trkpt>
			<trkpt lat="-28.214298" lon="153.043621">
				<ele>188</ele>
				<time>2015-05-07T01:20:38Z</time>
				<extensions>
				</extensions>
			</trkpt>
			<trkpt lat="-28.214464" lon="153.043726">
				<ele>188</ele>
				<time>2015-05-07T01:20:39Z</time>
				<extensions>
				</extensions>
			</trkpt>
			<trkpt lat="-28.214792" lon="153.043937">
				<ele>190</ele>
				<time>2015-05-07T01:20:41Z</time>
				<extensions>
				</extensions>
			</trkpt>
			<trkpt lat="-28.214959" lon="153.044041">
				<ele>189</ele>
				<time>2015-05-07T01:20:42Z</time>
				<extensions>
				</extensions>
			</trkpt>
			<trkpt lat="-28.215116" lon="153.044147">
				<ele>190</ele>
				<time>2015-05-07T01:20:43Z</time>
				<extensions>
				</extensions>
			</trkpt>
			<trkpt lat="-28.215274" lon="153.044248">
				<ele>189</ele>
				<time>2015-05-07T01:20:44Z</time>
				<extensions>
				</extensions>
			</trkpt>
			<trkpt lat="-28.215426" lon="153.044360">
				<ele>189</ele>
				<time>2015-05-07T01:20:45Z</time>
				<extensions>
				</extensions>
			</trkpt>
			<trkpt lat="-28.215724" lon="153.044583">
				<ele>188</ele>
				<time>2015-05-07T01:20:47Z</time>
				<extensions>
				</extensions>
			</trkpt>
			<trkpt lat="-28.216014" lon="153.044808">
				<ele>190</ele>
				<time>2015-05-07T01:20:49Z</time>
				<extensions>
				</extensions>
			</trkpt>
			<trkpt lat="-28.216308" lon="153.045026">
				<ele>190</ele>
				<time>2015-05-07T01:20:51Z</time>
				<extensions>
				</extensions>
			</trkpt>
			<trkpt lat="-28.216616" lon="153.045231">
				<ele>191</ele>
				<time>2015-05-07T01:20:53Z</time>
				<extensions>
				</extensions>
			</trkpt>
			<trkpt lat="-28.216771" lon="153.045348">
				<ele>191</ele>
				<time>2015-05-07T01:20:54Z</time>
				<extensions>
				</extensions>
			</trkpt>
			<trkpt lat="-28.217035" lon="153.045557">
				<ele>194</ele>
				<time>2015-05-07T01:20:56Z</time>
				<extensions>
				</extensions>
			</trkpt>
			<trkpt lat="-28.217179" lon="153.045687">
				<ele>194</ele>
				<time>2015-05-07T01:20:57Z</time>
				<extensions>
				</extensions>
			</trkpt>
			<trkpt lat="-28.217336" lon="153.045811">
				<ele>195</ele>
				<time>2015-05-07T01:20:58Z</time>
				<extensions>
				</extensions>
			</trkpt>
			<trkpt lat="-28.217613" lon="153.046011">
				<ele>194</ele>
				<time>2015-05-07T01:21:00Z</time>
				<extensions>
				</extensions>
			</trkpt>
			<trkpt lat="-28.217870" lon="153.046227">
				<ele>193</ele>
				<time>2015-05-07T01:21:02Z</time>
				<extensions>
				</extensions>
			</trkpt>
			<trkpt lat="-28.218140" lon="153.046457">
				<ele>194</ele>
				<time>2015-05-07T01:21:04Z</time>
				<extensions>
				</extensions>
			</trkpt>
			<trkpt lat="-28.218414" lon="153.046670">
				<ele>194</ele>
				<time>2015-05-07T01:21:06Z</time>
				<extensions>
				</extensions>
			</trkpt>
			<trkpt lat="-28.218691" lon="153.046883">
				<ele>193</ele>
				<time>2015-05-07T01:21:08Z</time>
				<extensions>
				</extensions>
			</trkpt>
			<trkpt lat="-28.218985" lon="153.047072">
				<ele>195</ele>
				<time>2015-05-07T01:21:10Z</time>
				<extensions>
				</extensions>
			</trkpt>
			<trkpt lat="-28.219291" lon="153.047254">
				<ele>195</ele>
				<time>2015-05-07T01:21:12Z</time>
				<extensions>
				</extensions>
			</trkpt>
			<trkpt lat="-28.219599" lon="153.047426">
				<ele>194</ele>
				<time>2015-05-07T01:21:14Z</time>
				<extensions>
				</extensions>
			</trkpt>
			<trkpt lat="-28.219910" lon="153.047562">
				<ele>193</ele>
				<time>2015-05-07T01:21:16Z</time>
				<extensions>
				</extensions>
			</trkpt>
			<trkpt lat="-28.220231" lon="153.047690">
				<ele>194</ele>
				<time>2015-05-07T01:21:18Z</time>
				<extensions>
				</extensions>
			</trkpt>
			<trkpt lat="-28.220407" lon="153.047754">
				<ele>195</ele>
				<time>2015-05-07T01:21:19Z</time>
				<extensions>
				</extensions>
			</trkpt>
			<trkpt lat="-28.220581" lon="153.047819">
				<ele>197</ele>
				<time>2015-05-07T01:21:20Z</time>
				<extensions>
				</extensions>
			</trkpt>
			<trkpt lat="-28.220766" lon="153.047871">
				<ele>198</ele>
				<time>2015-05-07T01:21:21Z</time>
				<extensions>
				</extensions>
			</trkpt>
			<trkpt lat="-28.220954" lon="153.047923">
				<ele>197</ele>
				<time>2015-05-07T01:21:22Z</time>
				<extensions>
				</extensions>
			</trkpt>
			<trkpt lat="-28.221141" lon="153.047969">
				<ele>196</ele>
				<time>2015-05-07T01:21:23Z</time>
				<extensions>
				</extensions>
			</trkpt>
			<trkpt lat="-28.221320" lon="153.048016">
				<ele>196</ele>
				<time>2015-05-07T01:21:24Z</time>
				<extensions>
				</extensions>
			</trkpt>
			<trkpt lat="-28.221663" lon="153.048105">
				<ele>194</ele>
				<time>2015-05-07T01:21:26Z</time>
				<extensions>
				</extensions>
			</trkpt>
			<trkpt lat="-28.221965" lon="153.048184">
				<ele>191</ele>
				<time>2015-05-07T01:21:28Z</time>
				<extensions>
				</extensions>
			</trkpt>
			<trkpt lat="-28.222253" lon="153.048274">
				<ele>190</ele>
				<time>2015-05-07T01:21:30Z</time>
				<extensions>
				</extensions>
			</trkpt>
			<trkpt lat="-28.222571" lon="153.048367">
				<ele>189</ele>
				<time>2015-05-07T01:21:32Z</time>
				<extensions>
				</extensions>
			</trkpt>
			<trkpt lat="-28.222865" lon="153.048467">
				<ele>189</ele>
				<time>2015-05-07T01:21:34Z</time>
				<extensions>
				</extensions>
			</trkpt>
			<trkpt lat="-28.223154" lon="153.048562">
				<ele>193</ele>
				<time>2015-05-07T01:21:36Z</time>
				<extensions>
				</extensions>
			</trkpt>
			<trkpt lat="-28.223452" lon="153.048653">
				<ele>194</ele>
				<time>2015-05-07T01:21:38Z</time>
				<extensions>
				</extensions>
			</trkpt>
			<trkpt lat="-28.223721" lon="153.048763">
				<ele>194</ele>
				<time>2015-05-07T01:21:40Z</time>
				<extensions>
				</extensions>
			</trkpt>
			<trkpt lat="-28.223960" lon="153.048898">
				<ele>192</ele>
				<time>2015-05-07T01:21:42Z</time>
				<extensions>
				</extensions>
			</trkpt>
			<trkpt lat="-28.224146" lon="153.049092">
				<ele>192</ele>
				<time>2015-05-07T01:21:44Z</time>
				<extensions>
				</extensions>
			</trkpt>
			<trkpt lat="-28.224299" lon="153.049278">
				<ele>193</ele>
				<time>2015-05-07T01:21:46Z</time>
				<extensions>
				</extensions>
			</trkpt>
			<trkpt lat="-28.224438" lon="153.049471">
				<ele>193</ele>
				<time>2015-05-07T01:21:48Z</time>
				<extensions>
				</extensions>
			</trkpt>
			<trkpt lat="-28.224572" lon="153.049623">
				<ele>191</ele>
				<time>2015-05-07T01:21:50Z</time>
				<extensions>
				</extensions>
			</trkpt>
			<trkpt lat="-28.224738" lon="153.049835">
				<ele>190</ele>
				<time>2015-05-07T01:21:53Z</time>
				<extensions>
				</extensions>
			</trkpt>
			<trkpt lat="-28.224883" lon="153.049994">
				<ele>190</ele>
				<time>2015-05-07T01:21:56Z</time>
				<extensions>
				</extensions>
			</trkpt>
			<trkpt lat="-28.225020" lon="153.050142">
				<ele>189</ele>
				<time>2015-05-07T01:21:58Z</time>
				<extensions>
				</extensions>
			</trkpt>
			<trkpt lat="-28.225188" lon="153.050276">
				<ele>189</ele>
				<time>2015-05-07T01:22:00Z</time>
				<extensions>
				</extensions>
			</trkpt>
			<trkpt lat="-28.225365" lon="153.050400">
				<ele>189</ele>
				<time>2015-05-07T01:22:02Z</time>
				<extensions>
				</extensions>
			</trkpt>
			<trkpt lat="-28.225560" lon="153.050549">
				<ele>191</ele>
				<time>2015-05-07T01:22:04Z</time>
				<extensions>
				</extensions>
			</trkpt>
			<trkpt lat="-28.225792" lon="153.050695">
				<ele>194</ele>
				<time>2015-05-07T01:22:06Z</time>
				<extensions>
				</extensions>
			</trkpt>
			<trkpt lat="-28.226076" lon="153.050820">
				<ele>197</ele>
				<time>2015-05-07T01:22:08Z</time>
				<extensions>
				</extensions>
			</trkpt>
			<trkpt lat="-28.226366" lon="153.050948">
				<ele>201</ele>
				<time>2015-05-07T01:22:10Z</time>
				<extensions>
				</extensions>
			</trkpt>
			<trkpt lat="-28.226681" lon="153.051082">
				<ele>201</ele>
				<time>2015-05-07T01:22:12Z</time>
				<extensions>
				</extensions>
			</trkpt>
			<trkpt lat="-28.227009" lon="153.051203">
				<ele>201</ele>
				<time>2015-05-07T01:22:14Z</time>
				<extensions>
				</extensions>
			</trkpt>
			<trkpt lat="-28.227329" lon="153.051301">
				<ele>202</ele>
				<time>2015-05-07T01:22:16Z</time>
				<extensions>
				</extensions>
			</trkpt>
			<trkpt lat="-28.227658" lon="153.051334">
				<ele>203</ele>
				<time>2015-05-07T01:22:18Z</time>
				<extensions>
				</extensions>
			</trkpt>
			<trkpt lat="-28.228000" lon="153.051356">
				<ele>204</ele>
				<time>2015-05-07T01:22:20Z</time>
				<extensions>
				</extensions>
			</trkpt>
			<trkpt lat="-28.228354" lon="153.051374">
				<ele>203</ele>
				<time>2015-05-07T01:22:22Z</time>
				<extensions>
				</extensions>
			</trkpt>
			<trkpt lat="-28.228541" lon="153.051375">
				<ele>202</ele>
				<time>2015-05-07T01:22:23Z</time>
				<extensions>
				</extensions>
			</trkpt>
			<trkpt lat="-28.228732" lon="153.051372">
				<ele>203</ele>
				<time>2015-05-07T01:22:24Z</time>
				<extensions>
				</extensions>
			</trkpt>
			<trkpt lat="-28.228914" lon="153.051377">
				<ele>202</ele>
				<time>2015-05-07T01:22:25Z</time>
				<extensions>
				</extensions>
			</trkpt>
			<trkpt lat="-28.229108" lon="153.051373">
				<ele>203</ele>
				<time>2015-05-07T01:22:26Z</time>
				<extensions>
				</extensions>
			</trkpt>
			<trkpt lat="-28.229297" lon="153.051379">
				<ele>202</ele>
				<time>2015-05-07T01:22:27Z</time>
				<extensions>
				</extensions>
			</trkpt>
			<trkpt lat="-28.229661" lon="153.051393">
				<ele>202</ele>
				<time>2015-05-07T01:22:29Z</time>
				<extensions>
				</extensions>
			</trkpt>
			<trkpt lat="-28.229844" lon="153.051406">
				<ele>201</ele>
				<time>2015-05-07T01:22:30Z</time>
				<extensions>
				</extensions>
			</trkpt>
			<trkpt lat="-28.230202" lon="153.051441">
				<ele>199</ele>
				<time>2015-05-07T01:22:32Z</time>
				<extensions>
				</extensions>
			</trkpt>
			<trkpt lat="-28.230547" lon="153.051526">
				<ele>201</ele>
				<time>2015-05-07T01:22:34Z</time>
				<extensions>
				</extensions>
			</trkpt>
			<trkpt lat="-28.230724" lon="153.051604">
				<ele>201</ele>
				<time>2015-05-07T01:22:35Z</time>
				<extensions>
				</extensions>
			</trkpt>
			<trkpt lat="-28.230992" lon="153.051782">
				<ele>200</ele>
				<time>2015-05-07T01:22:37Z</time>
				<extensions>
				</extensions>
			</trkpt>
			<trkpt lat="-28.231267" lon="153.052023">
				<ele>199</ele>
				<time>2015-05-07T01:22:39Z</time>
				<extensions>
				</extensions>
			</trkpt>
			<trkpt lat="-28.231407" lon="153.052183">
				<ele>200</ele>
				<time>2015-05-07T01:22:40Z</time>
				<extensions>
				</extensions>
			</trkpt>
			<trkpt lat="-28.231538" lon="153.052326">
				<ele>200</ele>
				<time>2015-05-07T01:22:41Z</time>
				<extensions>
				</extensions>
			</trkpt>
			<trkpt lat="-28.231692" lon="153.052491">
				<ele>202</ele>
				<time>2015-05-07T01:22:42Z</time>
				<extensions>
				</extensions>
			</trkpt>
			<trkpt lat="-28.231819" lon="153.052646">
				<ele>202</ele>
				<time>2015-05-07T01:22:43Z</time>
				<extensions>
				</extensions>
			</trkpt>
			<trkpt lat="-28.231947" lon="153.052810">
				<ele>203</ele>
				<time>2015-05-07T01:22:44Z</time>
				<extensions>
				</extensions>
			</trkpt>
			<trkpt lat="-28.232078" lon="153.052970">
				<ele>203</ele>
				<time>2015-05-07T01:22:45Z</time>
				<extensions>
				</extensions>
			</trkpt>
			<trkpt lat="-28.232204" lon="153.053139">
				<ele>203</ele>
				<time>2015-05-07T01:22:46Z</time>
				<extensions>
				</extensions>
			</trkpt>
			<trkpt lat="-28.232332" lon="153.053292">
				<ele>203</ele>
				<time>2015-05-07T01:22:47Z</time>
				<extensions>
				</extensions>
			</trkpt>
			<trkpt lat="-28.232472" lon="153.053441">
				<ele>203</ele>
				<time>2015-05-07T01:22:48Z</time>
				<extensions>
				</extensions>
			</trkpt>
			<trkpt lat="-28.232712" lon="153.053718">
				<ele>204</ele>
				<time>2015-05-07T01:22:50Z</time>
				<extensions>
				</extensions>
			</trkpt>
			<trkpt lat="-28.232941" lon="153.053929">
				<ele>204</ele>
				<time>2015-05-07T01:22:52Z</time>
				<extensions>
				</extensions>
			</trkpt>
			<trkpt lat="-28.233229" lon="153.054129">
				<ele>206</ele>
				<time>2015-05-07T01:22:54Z</time>
				<extensions>
				</extensions>
			</trkpt>
			<trkpt lat="-28.233543" lon="153.054253">
				<ele>205</ele>
				<time>2015-05-07T01:22:56Z</time>
				<extensions>
				</extensions>
			</trkpt>
			<trkpt lat="-28.233893" lon="153.054325">
				<ele>206</ele>
				<time>2015-05-07T01:22:58Z</time>
				<extensions>
				</extensions>
			</trkpt>
			<trkpt lat="-28.234218" lon="153.054374">
				<ele>207</ele>
				<time>2015-05-07T01:23:00Z</time>
				<extensions>
				</extensions>
			</trkpt>
			<trkpt lat="-28.234521" lon="153.054406">
				<ele>208</ele>
				<time>2015-05-07T01:23:02Z</time>
				<extensions>
				</extensions>
			</trkpt>
			<trkpt lat="-28.234827" lon="153.054433">
				<ele>207</ele>
				<time>2015-05-07T01:23:04Z</time>
				<extensions>
				</extensions>
			</trkpt>
			<trkpt lat="-28.235094" lon="153.054456">
				<ele>207</ele>
				<time>2015-05-07T01:23:06Z</time>
				<extensions>
				</extensions>
			</trkpt>
			<trkpt lat="-28.235375" lon="153.054492">
				<ele>207</ele>
				<time>2015-05-07T01:23:08Z</time>
				<extensions>
				</extensions>
			</trkpt>
			<trkpt lat="-28.235641" lon="153.054529">
				<ele>208</ele>
				<time>2015-05-07T01:23:10Z</time>
				<extensions>
				</extensions>
			</trkpt>
			<trkpt lat="-28.235941" lon="153.054553">
				<ele>209</ele>
				<time>2015-05-07T01:23:12Z</time>
				<extensions>
				</extensions>
			</trkpt>
			<trkpt lat="-28.236248" lon="153.054598">
				<ele>211</ele>
				<time>2015-05-07T01:23:14Z</time>
				<extensions>
				</extensions>
			</trkpt>
			<trkpt lat="-28.236552" lon="153.054669">
				<ele>212</ele>
				<time>2015-05-07T01:23:16Z</time>
				<extensions>
				</extensions>
			</trkpt>
			<trkpt lat="-28.236840" lon="153.054799">
				<ele>213</ele>
				<time>2015-05-07T01:23:18Z</time>
				<extensions>
				</extensions>
			</trkpt>
			<trkpt lat="-28.237140" lon="153.054984">
				<ele>215</ele>
				<time>2015-05-07T01:23:20Z</time>
				<extensions>
				</extensions>
			</trkpt>
			<trkpt lat="-28.237436" lon="153.055171">
				<ele>215</ele>
				<time>2015-05-07T01:23:22Z</time>
				<extensions>
				</extensions>
			</trkpt>
			<trkpt lat="-28.237699" lon="153.055341">
				<ele>214</ele>
				<time>2015-05-07T01:23:24Z</time>
				<extensions>
				</extensions>
			</trkpt>
			<trkpt lat="-28.237981" lon="153.055529">
				<ele>215</ele>
				<time>2015-05-07T01:23:26Z</time>
				<extensions>
				</extensions>
			</trkpt>
			<trkpt lat="-28.238268" lon="153.055720">
				<ele>215</ele>
				<time>2015-05-07T01:23:28Z</time>
				<extensions>
				</extensions>
			</trkpt>
			<trkpt lat="-28.238563" lon="153.055909">
				<ele>216</ele>
				<time>2015-05-07T01:23:30Z</time>
				<extensions>
				</extensions>
			</trkpt>
			<trkpt lat="-28.238845" lon="153.056075">
				<ele>217</ele>
				<time>2015-05-07T01:23:32Z</time>
				<extensions>
				</extensions>
			</trkpt>
			<trkpt lat="-28.239137" lon="153.056295">
				<ele>216</ele>
				<time>2015-05-07T01:23:34Z</time>
				<extensions>
				</extensions>
			</trkpt>
			<trkpt lat="-28.239399" lon="153.056543">
				<ele>216</ele>
				<time>2015-05-07T01:23:36Z</time>
				<extensions>
				</extensions>
			</trkpt>
			<trkpt lat="-28.239660" lon="153.056782">
				<ele>216</ele>
				<time>2015-05-07T01:23:38Z</time>
				<extensions>
				</extensions>
			</trkpt>
			<trkpt lat="-28.239909" lon="153.057018">
				<ele>217</ele>
				<time>2015-05-07T01:23:40Z</time>
				<extensions>
				</extensions>
			</trkpt>
			<trkpt lat="-28.240146" lon="153.057250">
				<ele>219</ele>
				<time>2015-05-07T01:23:42Z</time>
				<extensions>
				</extensions>
			</trkpt>
			<trkpt lat="-28.240395" lon="153.057508">
				<ele>219</ele>
				<time>2015-05-07T01:23:44Z</time>
				<extensions>
				</extensions>
			</trkpt>
			<trkpt lat="-28.240578" lon="153.057815">
				<ele>219</ele>
				<time>2015-05-07T01:23:46Z</time>
				<extensions>
				</extensions>
			</trkpt>
			<trkpt lat="-28.240738" lon="153.058154">
				<ele>222</ele>
				<time>2015-05-07T01:23:48Z</time>
				<extensions>
				</extensions>
			</trkpt>
			<trkpt lat="-28.240796" lon="153.058351">
				<ele>219</ele>
				<time>2015-05-07T01:23:49Z</time>
				<extensions>
				</extensions>
			</trkpt>
			<trkpt lat="-28.240870" lon="153.058712">
				<ele>218</ele>
				<time>2015-05-07T01:23:51Z</time>
				<extensions>
				</extensions>
			</trkpt>
			<trkpt lat="-28.240917" lon="153.059114">
				<ele>216</ele>
				<time>2015-05-07T01:23:53Z</time>
				<extensions>
				</extensions>
			</trkpt>
			<trkpt lat="-28.240936" lon="153.059321">
				<ele>215</ele>
				<time>2015-05-07T01:23:54Z</time>
				<extensions>
				</extensions>
			</trkpt>
			<trkpt lat="-28.240959" lon="153.059524">
				<ele>214</ele>
				<time>2015-05-07T01:23:55Z</time>
				<extensions>
				</extensions>
			</trkpt>
			<trkpt lat="-28.240989" lon="153.059901">
				<ele>214</ele>
				<time>2015-05-07T01:23:57Z</time>
				<extensions>
				</extensions>
			</trkpt>
			<trkpt lat="-28.241024" lon="153.060299">
				<ele>212</ele>
				<time>2015-05-07T01:23:59Z</time>
				<extensions>
				</extensions>
			</trkpt>
			<trkpt lat="-28.241053" lon="153.060687">
				<ele>213</ele>
				<time>2015-05-07T01:24:01Z</time>
				<extensions>
				</extensions>
			</trkpt>
			<trkpt lat="-28.241082" lon="153.061065">
				<ele>212</ele>
				<time>2015-05-07T01:24:03Z</time>
				<extensions>
				</extensions>
			</trkpt>
			<trkpt lat="-28.241135" lon="153.061420">
				<ele>211</ele>
				<time>2015-05-07T01:24:05Z</time>
				<extensions>
				</extensions>
			</trkpt>
			<trkpt lat="-28.241227" lon="153.061760">
				<ele>212</ele>
				<time>2015-05-07T01:24:07Z</time>
				<extensions>
				</extensions>
			</trkpt>
			<trkpt lat="-28.241360" lon="153.062083">
				<ele>212</ele>
				<time>2015-05-07T01:24:09Z</time>
				<extensions>
				</extensions>
			</trkpt>
			<trkpt lat="-28.241544" lon="153.062372">
				<ele>213</ele>
				<time>2015-05-07T01:24:11Z</time>
				<extensions>
				</extensions>
			</trkpt>
			<trkpt lat="-28.241771" lon="153.062609">
				<ele>214</ele>
				<time>2015-05-07T01:24:13Z</time>
				<extensions>
				</extensions>
			</trkpt>
			<trkpt lat="-28.242008" lon="153.062797">
				<ele>215</ele>
				<time>2015-05-07T01:24:15Z</time>
				<extensions>
				</extensions>
			</trkpt>
			<trkpt lat="-28.242305" lon="153.062931">
				<ele>215</ele>
				<time>2015-05-07T01:24:17Z</time>
				<extensions>
				</extensions>
			</trkpt>
			<trkpt lat="-28.242616" lon="153.063024">
				<ele>215</ele>
				<time>2015-05-07T01:24:19Z</time>
				<extensions>
				</extensions>
			</trkpt>
			<trkpt lat="-28.242943" lon="153.063033">
				<ele>216</ele>
				<time>2015-05-07T01:24:21Z</time>
				<extensions>
				</extensions>
			</trkpt>
			<trkpt lat="-28.243266" lon="153.063025">
				<ele>218</ele>
				<time>2015-05-07T01:24:23Z</time>
				<extensions>
				</extensions>
			</trkpt>
			<trkpt lat="-28.243595" lon="153.062969">
				<ele>220</ele>
				<time>2015-05-07T01:24:25Z</time>
				<extensions>
				</extensions>
			</trkpt>
			<trkpt lat="-28.243913" lon="153.062929">
				<ele>220</ele>
				<time>2015-05-07T01:24:27Z</time>
				<extensions>
				</extensions>
			</trkpt>
			<trkpt lat="-28.244212" lon="153.062892">
				<ele>222</ele>
				<time>2015-05-07T01:24:29Z</time>
				<extensions>
				</extensions>
			</trkpt>
			<trkpt lat="-28.244506" lon="153.062857">
				<ele>222</ele>
				<time>2015-05-07T01:24:31Z</time>
				<extensions>
				</extensions>
			</trkpt>
			<trkpt lat="-28.244807" lon="153.062825">
				<ele>224</ele>
				<time>2015-05-07T01:24:33Z</time>
				<extensions>
				</extensions>
			</trkpt>
			<trkpt lat="-28.245108" lon="153.062793">
				<ele>225</ele>
				<time>2015-05-07T01:24:35Z</time>
				<extensions>
				</extensions>
			</trkpt>
			<trkpt lat="-28.245408" lon="153.062769">
				<ele>224</ele>
				<time>2015-05-07T01:24:37Z</time>
				<extensions>
				</extensions>
			</trkpt>
			<trkpt lat="-28.245700" lon="153.062764">
				<ele>222</ele>
				<time>2015-05-07T01:24:39Z</time>
				<extensions>
				</extensions>
			</trkpt>
			<trkpt lat="-28.245965" lon="153.062831">
				<ele>221</ele>
				<time>2015-05-07T01:24:41Z</time>
				<extensions>
				</extensions>
			</trkpt>
			<trkpt lat="-28.246222" lon="153.062960">
				<ele>220</ele>
				<time>2015-05-07T01:24:43Z</time>
				<extensions>
				</extensions>
			</trkpt>
			<trkpt lat="-28.246477" lon="153.063150">
				<ele>220</ele>
				<time>2015-05-07T01:24:45Z</time>
				<extensions>
				</extensions>
			</trkpt>
			<trkpt lat="-28.246663" lon="153.063404">
				<ele>219</ele>
				<time>2015-05-07T01:24:47Z</time>
				<extensions>
				</extensions>
			</trkpt>
			<trkpt lat="-28.246785" lon="153.063711">
				<ele>218</ele>
				<time>2015-05-07T01:24:49Z</time>
				<extensions>
				</extensions>
			</trkpt>
			<trkpt lat="-28.246851" lon="153.064075">
				<ele>218</ele>
				<time>2015-05-07T01:24:51Z</time>
				<extensions>
				</extensions>
			</trkpt>
			<trkpt lat="-28.246836" lon="153.064442">
				<ele>219</ele>
				<time>2015-05-07T01:24:53Z</time>
				<extensions>
				</extensions>
			</trkpt>
			<trkpt lat="-28.246726" lon="153.064819">
				<ele>217</ele>
				<time>2015-05-07T01:24:55Z</time>
				<extensions>
				</extensions>
			</trkpt>
			<trkpt lat="-28.246640" lon="153.065001">
				<ele>218</ele>
				<time>2015-05-07T01:24:56Z</time>
				<extensions>
				</extensions>
			</trkpt>
			<trkpt lat="-28.246453" lon="153.065333">
				<ele>216</ele>
				<time>2015-05-07T01:24:58Z</time>
				<extensions>
				</extensions>
			</trkpt>
			<trkpt lat="-28.246267" lon="153.065665">
				<ele>219</ele>
				<time>2015-05-07T01:25:00Z</time>
				<extensions>
				</extensions>
			</trkpt>
			<trkpt lat="-28.246100" lon="153.065974">
				<ele>217</ele>
				<time>2015-05-07T01:25:02Z</time>
				<extensions>
				</extensions>
			</trkpt>
			<trkpt lat="-28.245936" lon="153.066293">
				<ele>216</ele>
				<time>2015-05-07T01:25:04Z</time>
				<extensions>
				</extensions>
			</trkpt>
			<trkpt lat="-28.245769" lon="153.066600">
				<ele>216</ele>
				<time>2015-05-07T01:25:06Z</time>
				<extensions>
				</extensions>
			</trkpt>
			<trkpt lat="-28.245599" lon="153.066894">
				<ele>218</ele>
				<time>2015-05-07T01:25:08Z</time>
				<extensions>
				</extensions>
			</trkpt>
			<trkpt lat="-28.245441" lon="153.067167">
				<ele>216</ele>
				<time>2015-05-07T01:25:10Z</time>
				<extensions>
				</extensions>
			</trkpt>
			<trkpt lat="-28.245295" lon="153.067417">
				<ele>216</ele>
				<time>2015-05-07T01:25:12Z</time>
				<extensions>
				</extensions>
			</trkpt>
			<trkpt lat="-28.245157" lon="153.067642">
				<ele>215</ele>
				<time>2015-05-07T01:25:14Z</time>
				<extensions>
				</extensions>
			</trkpt>
			<trkpt lat="-28.245020" lon="153.067869">
				<ele>216</ele>
				<time>2015-05-07T01:25:16Z</time>
				<extensions>
				</extensions>
			</trkpt>
			<trkpt lat="-28.244872" lon="153.068122">
				<ele>218</ele>
				<time>2015-05-07T01:25:18Z</time>
				<extensions>
				</extensions>
			</trkpt>
			<trkpt lat="-28.244714" lon="153.068405">
				<ele>219</ele>
				<time>2015-05-07T01:25:20Z</time>
				<extensions>
				</extensions>
			</trkpt>
			<trkpt lat="-28.244560" lon="153.068689">
				<ele>219</ele>
				<time>2015-05-07T01:25:22Z</time>
				<extensions>
				</extensions>
			</trkpt>
			<trkpt lat="-28.244435" lon="153.068976">
				<ele>219</ele>
				<time>2015-05-07T01:25:24Z</time>
				<extensions>
				</extensions>
			</trkpt>
			<trkpt lat="-28.244358" lon="153.069287">
				<ele>218</ele>
				<time>2015-05-07T01:25:26Z</time>
				<extensions>
				</extensions>
			</trkpt>
			<trkpt lat="-28.244377" lon="153.069644">
				<ele>218</ele>
				<time>2015-05-07T01:25:28Z</time>
				<extensions>
				</extensions>
			</trkpt>
			<trkpt lat="-28.244478" lon="153.069994">
				<ele>219</ele>
				<time>2015-05-07T01:25:30Z</time>
				<extensions>
				</extensions>
			</trkpt>
			<trkpt lat="-28.244616" lon="153.070359">
				<ele>222</ele>
				<time>2015-05-07T01:25:32Z</time>
				<extensions>
				</extensions>
			</trkpt>
			<trkpt lat="-28.244769" lon="153.070724">
				<ele>223</ele>
				<time>2015-05-07T01:25:34Z</time>
				<extensions>
				</extensions>
			</trkpt>
			<trkpt lat="-28.244912" lon="153.071069">
				<ele>222</ele>
				<time>2015-05-07T01:25:36Z</time>
				<extensions>
				</extensions>
			</trkpt>
			<trkpt lat="-28.245061" lon="153.071407">
				<ele>223</ele>
				<time>2015-05-07T01:25:38Z</time>
				<extensions>
				</extensions>
			</trkpt>
			<trkpt lat="-28.245198" lon="153.071731">
				<ele>223</ele>
				<time>2015-05-07T01:25:40Z</time>
				<extensions>
				</extensions>
			</trkpt>
			<trkpt lat="-28.245338" lon="153.072056">
				<ele>223</ele>
				<time>2015-05-07T01:25:42Z</time>
				<extensions>
				</extensions>
			</trkpt>
			<trkpt lat="-28.245461" lon="153.072350">
				<ele>223</ele>
				<time>2015-05-07T01:25:44Z</time>
				<extensions>
				</extensions>
			</trkpt>
			<trkpt lat="-28.245573" lon="153.072589">
				<ele>220</ele>
				<time>2015-05-07T01:25:46Z</time>
				<extensions>
				</extensions>
			</trkpt>
			<trkpt lat="-28.245667" lon="153.072787">
				<ele>218</ele>
				<time>2015-05-07T01:25:48Z</time>
				<extensions>
				</extensions>
			</trkpt>
			<trkpt lat="-28.245765" lon="153.073015">
				<ele>217</ele>
				<time>2015-05-07T01:25:51Z</time>
				<extensions>
				</extensions>
			</trkpt>
			<trkpt lat="-28.245846" lon="153.073205">
				<ele>215</ele>
				<time>2015-05-07T01:25:55Z</time>
				<extensions>
				</extensions>
			</trkpt>
			<trkpt lat="-28.245918" lon="153.073435">
				<ele>216</ele>
				<time>2015-05-07T01:26:00Z</time>
				<extensions>
				</extensions>
			</trkpt>
			<trkpt lat="-28.245974" lon="153.073640">
				<ele>217</ele>
				<time>2015-05-07T01:26:03Z</time>
				<extensions>
				</extensions>
			</trkpt>
			<trkpt lat="-28.246037" lon="153.073882">
				<ele>218</ele>
				<time>2015-05-07T01:26:06Z</time>
				<extensions>
				</extensions>
			</trkpt>
			<trkpt lat="-28.246102" lon="153.074138">
				<ele>217</ele>
				<time>2015-05-07T01:26:09Z</time>
				<extensions>
				</extensions>
			</trkpt>
			<trkpt lat="-28.246153" lon="153.074348">
				<ele>216</ele>
				<time>2015-05-07T01:26:12Z</time>
				<extensions>
				</extensions>
			</trkpt>
			<trkpt lat="-28.246202" lon="153.074567">
				<ele>217</ele>
				<time>2015-05-07T01:26:15Z</time>
				<extensions>
				</extensions>
			</trkpt>
			<trkpt lat="-28.246262" lon="153.074770">
				<ele>217</ele>
				<time>2015-05-07T01:26:18Z</time>
				<extensions>
				</extensions>
			</trkpt>
			<trkpt lat="-28.246322" lon="153.075012">
				<ele>217</ele>
				<time>2015-05-07T01:26:22Z</time>
				<extensions>
				</extensions>
			</trkpt>
			<trkpt lat="-28.246385" lon="153.075244">
				<ele>217</ele>
				<time>2015-05-07T01:26:25Z</time>
				<extensions>
				</extensions>
			</trkpt>
			<trkpt lat="-28.246446" lon="153.075472">
				<ele>218</ele>
				<time>2015-05-07T01:26:28Z</time>
				<extensions>
				</extensions>
			</trkpt>
			<trkpt lat="-28.246505" lon="153.075724">
				<ele>219</ele>
				<time>2015-05-07T01:26:31Z</time>
				<extensions>
				</extensions>
			</trkpt>
			<trkpt lat="-28.246540" lon="153.075927">
				<ele>220</ele>
				<time>2015-05-07T01:26:33Z</time>
				<extensions>
				</extensions>
			</trkpt>
			<trkpt lat="-28.246601" lon="153.076145">
				<ele>221</ele>
				<time>2015-05-07T01:26:35Z</time>
				<extensions>
				</extensions>
			</trkpt>
			<trkpt lat="-28.246648" lon="153.076360">
				<ele>220</ele>
				<time>2015-05-07T01:26:37Z</time>
				<extensions>
				</extensions>
			</trkpt>
			<trkpt lat="-28.246704" lon="153.076580">
				<ele>221</ele>
				<time>2015-05-07T01:26:39Z</time>
				<extensions>
				</extensions>
			</trkpt>
			<trkpt lat="-28.246757" lon="153.076812">
				<ele>221</ele>
				<time>2015-05-07T01:26:41Z</time>
				<extensions>
				</extensions>
			</trkpt>
			<trkpt lat="-28.246821" lon="153.077061">
				<ele>222</ele>
				<time>2015-05-07T01:26:43Z</time>
				<extensions>
				</extensions>
			</trkpt>
			<trkpt lat="-28.246869" lon="153.077272">
				<ele>221</ele>
				<time>2015-05-07T01:26:45Z</time>
				<extensions>
				</extensions>
			</trkpt>
			<trkpt lat="-28.246918" lon="153.077478">
				<ele>222</ele>
				<time>2015-05-07T01:26:47Z</time>
				<extensions>
				</extensions>
			</trkpt>
			<trkpt lat="-28.246972" lon="153.077709">
				<ele>222</ele>
				<time>2015-05-07T01:26:49Z</time>
				<extensions>
				</extensions>
			</trkpt>
			<trkpt lat="-28.247027" lon="153.077932">
				<ele>223</ele>
				<time>2015-05-07T01:26:51Z</time>
				<extensions>
				</extensions>
			</trkpt>
			<trkpt lat="-28.247077" lon="153.078131">
				<ele>223</ele>
				<time>2015-05-07T01:26:53Z</time>
				<extensions>
				</extensions>
			</trkpt>
			<trkpt lat="-28.247126" lon="153.078347">
				<ele>224</ele>
				<time>2015-05-07T01:26:55Z</time>
				<extensions>
				</extensions>
			</trkpt>
			<trkpt lat="-28.247178" lon="153.078641">
				<ele>224</ele>
				<time>2015-05-07T01:26:58Z</time>
				<extensions>
				</extensions>
			</trkpt>
			<trkpt lat="-28.247221" lon="153.078842">
				<ele>224</ele>
				<time>2015-05-07T01:27:00Z</time>
				<extensions>
				</extensions>
			</trkpt>
			<trkpt lat="-28.247310" lon="153.079123">
				<ele>225</ele>
				<time>2015-05-07T01:27:03Z</time>
				<extensions>
				</extensions>
			</trkpt>
			<trkpt lat="-28.247354" lon="153.079336">
				<ele>226</ele>
				<time>2015-05-07T01:27:05Z</time>
				<extensions>
				</extensions>
			</trkpt>
			<trkpt lat="-28.247404" lon="153.079539">
				<ele>227</ele>
				<time>2015-05-07T01:27:07Z</time>
				<extensions>
				</extensions>
			</trkpt>
			<trkpt lat="-28.247461" lon="153.079736">
				<ele>227</ele>
				<time>2015-05-07T01:27:09Z</time>
				<extensions>
				</extensions>
			</trkpt>
			<trkpt lat="-28.247511" lon="153.080001">
				<ele>227</ele>
				<time>2015-05-07T01:27:12Z</time>
				<extensions>
				</extensions>
			</trkpt>
			<trkpt lat="-28.247574" lon="153.080267">
				<ele>227</ele>
				<time>2015-05-07T01:27:15Z</time>
				<extensions>
				</extensions>
			</trkpt>
			<trkpt lat="-28.247620" lon="153.080473">
				<ele>225</ele>
				<time>2015-05-07T01:27:18Z</time>
				<extensions>
				</extensions>
			</trkpt>
			<trkpt lat="-28.247688" lon="153.080690">
				<ele>226</ele>
				<time>2015-05-07T01:27:29Z</time>
				<extensions>
				</extensions>
			</trkpt>
			<trkpt lat="-28.247749" lon="153.080896">
				<ele>226</ele>
				<time>2015-05-07T01:27:33Z</time>
				<extensions>
				</extensions>
			</trkpt>
			<trkpt lat="-28.247798" lon="153.081120">
				<ele>227</ele>
				<time>2015-05-07T01:27:39Z</time>
				<extensions>
				</extensions>
			</trkpt>
			<trkpt lat="-28.247863" lon="153.081324">
				<ele>229</ele>
				<time>2015-05-07T01:28:25Z</time>
				<extensions>
				</extensions>
			</trkpt>
			<trkpt lat="-28.247910" lon="153.081525">
				<ele>229</ele>
				<time>2015-05-07T01:28:31Z</time>
				<extensions>
				</extensions>
			</trkpt>
			<trkpt lat="-28.247965" lon="153.081731">
				<ele>228</ele>
				<time>2015-05-07T01:28:47Z</time>
				<extensions>
				</extensions>
			</trkpt>
			<trkpt lat="-28.247992" lon="153.081934">
				<ele>228</ele>
				<time>2015-05-07T01:29:05Z</time>
				<extensions>
				</extensions>
			</trkpt>
			<trkpt lat="-28.248049" lon="153.082134">
				<ele>229</ele>
				<time>2015-05-07T01:29:17Z</time>
				<extensions>
				</extensions>
			</trkpt>
			<trkpt lat="-28.248099" lon="153.082330">
				<ele>230</ele>
				<time>2015-05-07T01:29:33Z</time>
				<extensions>
				</extensions>
			</trkpt>
			<trkpt lat="-28.248152" lon="153.082545">
				<ele>230</ele>
				<time>2015-05-07T01:29:42Z</time>
				<extensions>
				</extensions>
			</trkpt>
			<trkpt lat="-28.248211" lon="153.082761">
				<ele>230</ele>
				<time>2015-05-07T01:29:49Z</time>
				<extensions>
				</extensions>
			</trkpt>
			<trkpt lat="-28.248273" lon="153.082987">
				<ele>231</ele>
				<time>2015-05-07T01:29:54Z</time>
				<extensions>
				</extensions>
			</trkpt>
			<trkpt lat="-28.248344" lon="153.083205">
				<ele>231</ele>
				<time>2015-05-07T01:29:59Z</time>
				<extensions>
				</extensions>
			</trkpt>
			<trkpt lat="-28.248404" lon="153.083413">
				<ele>231</ele>
				<time>2015-05-07T01:30:04Z</time>
				<extensions>
				</extensions>
			</trkpt>
			<trkpt lat="-28.248478" lon="153.083635">
				<ele>231</ele>
				<time>2015-05-07T01:30:09Z</time>
				<extensions>
				</extensions>
			</trkpt>
			<trkpt lat="-28.248554" lon="153.083825">
				<ele>231</ele>
				<time>2015-05-07T01:30:13Z</time>
				<extensions>
				</extensions>
			</trkpt>
			<trkpt lat="-28.248650" lon="153.084049">
				<ele>232</ele>
				<time>2015-05-07T01:30:18Z</time>
				<extensions>
				</extensions>
			</trkpt>
			<trkpt lat="-28.248736" lon="153.084253">
				<ele>232</ele>
				<time>2015-05-07T01:30:22Z</time>
				<extensions>
				</extensions>
			</trkpt>
			<trkpt lat="-28.248826" lon="153.084474">
				<ele>233</ele>
				<time>2015-05-07T01:30:26Z</time>
				<extensions>
				</extensions>
			</trkpt>
			<trkpt lat="-28.248943" lon="153.084727">
				<ele>234</ele>
				<time>2015-05-07T01:30:30Z</time>
				<extensions>
				</extensions>
			</trkpt>
			<trkpt lat="-28.249023" lon="153.084932">
				<ele>234</ele>
				<time>2015-05-07T01:30:33Z</time>
				<extensions>
				</extensions>
			</trkpt>
			<trkpt lat="-28.249116" lon="153.085174">
				<ele>235</ele>
				<time>2015-05-07T01:30:37Z</time>
				<extensions>
				</extensions>
			</trkpt>
			<trkpt lat="-28.249212" lon="153.085397">
				<ele>235</ele>
				<time>2015-05-07T01:30:41Z</time>
				<extensions>
				</extensions>
			</trkpt>
			<trkpt lat="-28.249287" lon="153.085623">
				<ele>236</ele>
				<time>2015-05-07T01:30:46Z</time>
				<extensions>
				</extensions>
			</trkpt>
			<trkpt lat="-28.249328" lon="153.085834">
				<ele>236</ele>
				<time>2015-05-07T01:30:51Z</time>
				<extensions>
				</extensions>
			</trkpt>
			<trkpt lat="-28.249387" lon="153.086027">
				<ele>237</ele>
				<time>2015-05-07T01:30:57Z</time>
				<extensions>
				</extensions>
			</trkpt>
			<trkpt lat="-28.249472" lon="153.086218">
				<ele>237</ele>
				<time>2015-05-07T01:31:03Z</time>
				<extensions>
				</extensions>
			</trkpt>
			<trkpt lat="-28.249574" lon="153.086386">
				<ele>238</ele>
				<time>2015-05-07T01:31:08Z</time>
				<extensions>
				</extensions>
			</trkpt>
			<trkpt lat="-28.249718" lon="153.086585">
				<ele>239</ele>
				<time>2015-05-07T01:31:13Z</time>
				<extensions>
				</extensions>
			</trkpt>
			<trkpt lat="-28.249876" lon="153.086768">
				<ele>239</ele>
				<time>2015-05-07T01:31:17Z</time>
				<extensions>
				</extensions>
			</trkpt>
			<trkpt lat="-28.250038" lon="153.086963">
				<ele>239</ele>
				<time>2015-05-07T01:31:21Z</time>
				<extensions>
				</extensions>
			</trkpt>
			<trkpt lat="-28.250182" lon="153.087140">
				<ele>240</ele>
				<time>2015-05-07T01:31:24Z</time>
				<extensions>
				</extensions>
			</trkpt>
			<trkpt lat="-28.250307" lon="153.087341">
				<ele>240</ele>
				<time>2015-05-07T01:31:27Z</time>
				<extensions>
				</extensions>
			</trkpt>
			<trkpt lat="-28.250407" lon="153.087553">
				<ele>241</ele>
				<time>2015-05-07T01:31:30Z</time>
				<extensions>
				</extensions>
			</trkpt>
			<trkpt lat="-28.250543" lon="153.087743">
				<ele>241</ele>
				<time>2015-05-07T01:31:33Z</time>
				<extensions>
				</extensions>
			</trkpt>
			<trkpt lat="-28.250706" lon="153.087916">
				<ele>241</ele>
				<time>2015-05-07T01:31:36Z</time>
				<extensions>
				</extensions>
			</trkpt>
			<trkpt lat="-28.250892" lon="153.088045">
				<ele>242</ele>
				<time>2015-05-07T01:31:39Z</time>
				<extensions>
				</extensions>
			</trkpt>
			<trkpt lat="-28.251088" lon="153.088138">
				<ele>243</ele>
				<time>2015-05-07T01:31:42Z</time>
				<extensions>
				</extensions>
			</trkpt>
			<trkpt lat="-28.251279" lon="153.088246">
				<ele>244</ele>
				<time>2015-05-07T01:31:45Z</time>
				<extensions>
				</extensions>
			</trkpt>
			<trkpt lat="-28.251486" lon="153.088347">
				<ele>244</ele>
				<time>2015-05-07T01:31:48Z</time>
				<extensions>
				</extensions>
			</trkpt>
			<trkpt lat="-28.251698" lon="153.088442">
				<ele>244</ele>
				<time>2015-05-07T01:31:51Z</time>
				<extensions>
				</extensions>
			</trkpt>
			<trkpt lat="-28.251899" lon="153.088574">
				<ele>245</ele>
				<time>2015-05-07T01:31:54Z</time>
				<extensions>
				</extensions>
			</trkpt>
			<trkpt lat="-28.252041" lon="153.088702">
				<ele>246</ele>
				<time>2015-05-07T01:31:56Z</time>
				<extensions>
				</extensions>
			</trkpt>
			<trkpt lat="-28.252181" lon="153.088855">
				<ele>247</ele>
				<time>2015-05-07T01:31:58Z</time>
				<extensions>
				</extensions>
			</trkpt>
			<trkpt lat="-28.252323" lon="153.089015">
				<ele>249</ele>
				<time>2015-05-07T01:32:00Z</time>
				<extensions>
				</extensions>
			</trkpt>
			<trkpt lat="-28.252459" lon="153.089171">
				<ele>248</ele>
				<time>2015-05-07T01:32:02Z</time>
				<extensions>
				</extensions>
			</trkpt>
			<trkpt lat="-28.252592" lon="153.089321">
				<ele>248</ele>
				<time>2015-05-07T01:32:04Z</time>
				<extensions>
				</extensions>
			</trkpt>
			<trkpt lat="-28.252723" lon="153.089473">
				<ele>248</ele>
				<time>2015-05-07T01:32:06Z</time>
				<extensions>
				</extensions>
			</trkpt>
			<trkpt lat="-28.252909" lon="153.089684">
				<ele>248</ele>
				<time>2015-05-07T01:32:09Z</time>
				<extensions>
				</extensions>
			</trkpt>
			<trkpt lat="-28.253056" lon="153.089839">
				<ele>247</ele>
				<time>2015-05-07T01:32:11Z</time>
				<extensions>
				</extensions>
			</trkpt>
			<trkpt lat="-28.253237" lon="153.090023">
				<ele>247</ele>
				<time>2015-05-07T01:32:14Z</time>
				<extensions>
				</extensions>
			</trkpt>
			<trkpt lat="-28.253437" lon="153.090166">
				<ele>248</ele>
				<time>2015-05-07T01:32:17Z</time>
				<extensions>
				</extensions>
			</trkpt>
			<trkpt lat="-28.253664" lon="153.090312">
				<ele>248</ele>
				<time>2015-05-07T01:32:20Z</time>
				<extensions>
				</extensions>
			</trkpt>
			<trkpt lat="-28.253904" lon="153.090408">
				<ele>249</ele>
				<time>2015-05-07T01:32:23Z</time>
				<extensions>
				</extensions>
			</trkpt>
			<trkpt lat="-28.254112" lon="153.090481">
				<ele>249</ele>
				<time>2015-05-07T01:32:26Z</time>
				<extensions>
				</extensions>
			</trkpt>
			<trkpt lat="-28.254289" lon="153.090566">
				<ele>249</ele>
				<time>2015-05-07T01:32:29Z</time>
				<extensions>
				</extensions>
			</trkpt>
			<trkpt lat="-28.254454" lon="153.090708">
				<ele>250</ele>
				<time>2015-05-07T01:32:32Z</time>
				<extensions>
				</extensions>
			</trkpt>
			<trkpt lat="-28.254590" lon="153.090875">
				<ele>250</ele>
				<time>2015-05-07T01:32:35Z</time>
				<extensions>
				</extensions>
			</trkpt>
			<trkpt lat="-28.254715" lon="153.091102">
				<ele>250</ele>
				<time>2015-05-07T01:32:39Z</time>
				<extensions>
				</extensions>
			</trkpt>
			<trkpt lat="-28.254807" lon="153.091339">
				<ele>250</ele>
				<time>2015-05-07T01:32:43Z</time>
				<extensions>
				</extensions>
			</trkpt>
			<trkpt lat="-28.254895" lon="153.091517">
				<ele>250</ele>
				<time>2015-05-07T01:32:49Z</time>
				<extensions>
				</extensions>
			</trkpt>
			<trkpt lat="-28.255039" lon="153.091652">
				<ele>250</ele>
				<time>2015-05-07T01:32:54Z</time>
				<extensions>
				</extensions>
			</trkpt>
			<trkpt lat="-28.255192" lon="153.091813">
				<ele>251</ele>
				<time>2015-05-07T01:32:58Z</time>
				<extensions>
				</extensions>
			</trkpt>
			<trkpt lat="-28.255337" lon="153.092008">
				<ele>252</ele>
				<time>2015-05-07T01:33:02Z</time>
				<extensions>
				</extensions>
			</trkpt>
			<trkpt lat="-28.255458" lon="153.092203">
				<ele>253</ele>
				<time>2015-05-07T01:33:06Z</time>
				<extensions>
				</extensions>
			</trkpt>
			<trkpt lat="-28.255591" lon="153.092402">
				<ele>253</ele>
				<time>2015-05-07T01:33:10Z</time>
				<extensions>
				</extensions>
			</trkpt>
			<trkpt lat="-28.255729" lon="153.092608">
				<ele>254</ele>
				<time>2015-05-07T01:33:14Z</time>
				<extensions>
				</extensions>
			</trkpt>
			<trkpt lat="-28.255858" lon="153.092793">
				<ele>253</ele>
				<time>2015-05-07T01:33:17Z</time>
				<extensions>
				</extensions>
			</trkpt>
			<trkpt lat="-28.255998" lon="153.092986">
				<ele>255</ele>
				<time>2015-05-07T01:33:20Z</time>
				<extensions>
				</extensions>
			</trkpt>
			<trkpt lat="-28.256118" lon="153.093156">
				<ele>256</ele>
				<time>2015-05-07T01:33:23Z</time>
				<extensions>
				</extensions>
			</trkpt>
			<trkpt lat="-28.256256" lon="153.093371">
				<ele>257</ele>
				<time>2015-05-07T01:33:27Z</time>
				<extensions>
				</extensions>
			</trkpt>
			<trkpt lat="-28.256376" lon="153.093581">
				<ele>258</ele>
				<time>2015-05-07T01:33:31Z</time>
				<extensions>
				</extensions>
			</trkpt>
			<trkpt lat="-28.256498" lon="153.093804">
				<ele>258</ele>
				<time>2015-05-07T01:33:35Z</time>
				<extensions>
				</extensions>
			</trkpt>
			<trkpt lat="-28.256617" lon="153.094032">
				<ele>258</ele>
				<time>2015-05-07T01:33:39Z</time>
				<extensions>
				</extensions>
			</trkpt>
			<trkpt lat="-28.256707" lon="153.094214">
				<ele>259</ele>
				<time>2015-05-07T01:33:42Z</time>
				<extensions>
				</extensions>
			</trkpt>
			<trkpt lat="-28.256843" lon="153.094430">
				<ele>258</ele>
				<time>2015-05-07T01:33:46Z</time>
				<extensions>
				</extensions>
			</trkpt>
			<trkpt lat="-28.256975" lon="153.094618">
				<ele>258</ele>
				<time>2015-05-07T01:33:51Z</time>
				<extensions>
				</extensions>
			</trkpt>
			<trkpt lat="-28.257083" lon="153.094782">
				<ele>259</ele>
				<time>2015-05-07T01:34:01Z</time>
				<extensions>
				</extensions>
			</trkpt>
			<trkpt lat="-28.257240" lon="153.095000">
				<ele>260</ele>
				<time>2015-05-07T01:34:07Z</time>
				<extensions>
				</extensions>
			</trkpt>
			<trkpt lat="-28.257372" lon="153.095220">
				<ele>262</ele>
				<time>2015-05-07T01:34:10Z</time>
				<extensions>
				</extensions>
			</trkpt>
			<trkpt lat="-28.257509" lon="153.095475">
				<ele>263</ele>
				<time>2015-05-07T01:34:13Z</time>
				<extensions>
				</extensions>
			</trkpt>
			<trkpt lat="-28.257599" lon="153.095660">
				<ele>265</ele>
				<time>2015-05-07T01:34:15Z</time>
				<extensions>
				</extensions>
			</trkpt>
			<trkpt lat="-28.257690" lon="153.095844">
				<ele>266</ele>
				<time>2015-05-07T01:34:17Z</time>
				<extensions>
				</extensions>
			</trkpt>
			<trkpt lat="-28.257838" lon="153.096084">
				<ele>266</ele>
				<time>2015-05-07T01:34:20Z</time>
				<extensions>
				</extensions>
			</trkpt>
			<trkpt lat="-28.258004" lon="153.096235">
				<ele>266</ele>
				<time>2015-05-07T01:34:23Z</time>
				<extensions>
				</extensions>
			</trkpt>
			<trkpt lat="-28.258159" lon="153.096382">
				<ele>264</ele>
				<time>2015-05-07T01:34:28Z</time>
				<extensions>
				</extensions>
			</trkpt>
			<trkpt lat="-28.258301" lon="153.096533">
				<ele>265</ele>
				<time>2015-05-07T01:34:38Z</time>
				<extensions>
				</extensions>
			</trkpt>
			<trkpt lat="-28.258451" lon="153.096678">
				<ele>264</ele>
				<time>2015-05-07T01:34:44Z</time>
				<extensions>
				</extensions>
			</trkpt>
			<trkpt lat="-28.258607" lon="153.096799">
				<ele>265</ele>
				<time>2015-05-07T01:34:52Z</time>
				<extensions>
				</extensions>
			</trkpt>
			<trkpt lat="-28.258775" lon="153.096917">
				<ele>265</ele>
				<time>2015-05-07T01:34:58Z</time>
				<extensions>
				</extensions>
			</trkpt>
			<trkpt lat="-28.258925" lon="153.097059">
				<ele>265</ele>
				<time>2015-05-07T01:35:03Z</time>
				<extensions>
				</extensions>
			</trkpt>
			<trkpt lat="-28.259049" lon="153.097264">
				<ele>265</ele>
				<time>2015-05-07T01:35:09Z</time>
				<extensions>
				</extensions>
			</trkpt>
			<trkpt lat="-28.259124" lon="153.097497">
				<ele>266</ele>
				<time>2015-05-07T01:35:14Z</time>
				<extensions>
				</extensions>
			</trkpt>
			<trkpt lat="-28.259154" lon="153.097710">
				<ele>266</ele>
				<time>2015-05-07T01:35:20Z</time>
				<extensions>
				</extensions>
			</trkpt>
			<trkpt lat="-28.259204" lon="153.097931">
				<ele>267</ele>
				<time>2015-05-07T01:35:26Z</time>
				<extensions>
				</extensions>
			</trkpt>
			<trkpt lat="-28.259286" lon="153.098165">
				<ele>269</ele>
				<time>2015-05-07T01:35:29Z</time>
				<extensions>
				</extensions>
			</trkpt>
			<trkpt lat="-28.259395" lon="153.098431">
				<ele>270</ele>
				<time>2015-05-07T01:35:32Z</time>
				<extensions>
				</extensions>
			</trkpt>
			<trkpt lat="-28.259475" lon="153.098633">
				<ele>272</ele>
				<time>2015-05-07T01:35:34Z</time>
				<extensions>
				</extensions>
			</trkpt>
			<trkpt lat="-28.259557" lon="153.098830">
				<ele>272</ele>
				<time>2015-05-07T01:35:36Z</time>
				<extensions>
				</extensions>
			</trkpt>
			<trkpt lat="-28.259630" lon="153.099025">
				<ele>272</ele>
				<time>2015-05-07T01:35:38Z</time>
				<extensions>
				</extensions>
			</trkpt>
			<trkpt lat="-28.259708" lon="153.099214">
				<ele>272</ele>
				<time>2015-05-07T01:35:40Z</time>
				<extensions>
				</extensions>
			</trkpt>
			<trkpt lat="-28.259785" lon="153.099409">
				<ele>273</ele>
				<time>2015-05-07T01:35:42Z</time>
				<extensions>
				</extensions>
			</trkpt>
			<trkpt lat="-28.259884" lon="153.099683">
				<ele>273</ele>
				<time>2015-05-07T01:35:45Z</time>
				<extensions>
				</extensions>
			</trkpt>
			<trkpt lat="-28.259970" lon="153.099925">
				<ele>273</ele>
				<time>2015-05-07T01:35:48Z</time>
				<extensions>
				</extensions>
			</trkpt>
			<trkpt lat="-28.260077" lon="153.100137">
				<ele>274</ele>
				<time>2015-05-07T01:35:51Z</time>
				<extensions>
				</extensions>
			</trkpt>
			<trkpt lat="-28.260185" lon="153.100326">
				<ele>272</ele>
				<time>2015-05-07T01:35:56Z</time>
				<extensions>
				</extensions>
			</trkpt>
			<trkpt lat="-28.260298" lon="153.100487">
				<ele>271</ele>
				<time>2015-05-07T01:38:21Z</time>
				<extensions>
				</extensions>
			</trkpt>
			<trkpt lat="-28.260214" lon="153.100305">
				<ele>271</ele>
				<time>2015-05-07T01:53:38Z</time>
				<extensions>
				</extensions>
			</trkpt>
			<trkpt lat="-28.260073" lon="153.100143">
				<ele>271</ele>
				<time>2015-05-07T01:53:41Z</time>
				<extensions>
				</extensions>
			</trkpt>
			<trkpt lat="-28.259955" lon="153.099899">
				<ele>271</ele>
				<time>2015-05-07T01:53:45Z</time>
				<extensions>
				</extensions>
			</trkpt>
			<trkpt lat="-28.259871" lon="153.099605">
				<ele>272</ele>
				<time>2015-05-07T01:53:48Z</time>
				<extensions>
				</extensions>
			</trkpt>
			<trkpt lat="-28.259805" lon="153.099410">
				<ele>271</ele>
				<time>2015-05-07T01:53:50Z</time>
				<extensions>
				</extensions>
			</trkpt>
			<trkpt lat="-28.259690" lon="153.099140">
				<ele>270</ele>
				<time>2015-05-07T01:53:53Z</time>
				<extensions>
				</extensions>
			</trkpt>
			<trkpt lat="-28.259602" lon="153.098940">
				<ele>270</ele>
				<time>2015-05-07T01:53:55Z</time>
				<extensions>
				</extensions>
			</trkpt>
			<trkpt lat="-28.259518" lon="153.098753">
				<ele>270</ele>
				<time>2015-05-07T01:53:57Z</time>
				<extensions>
				</extensions>
			</trkpt>
			<trkpt lat="-28.259440" lon="153.098540">
				<ele>269</ele>
				<time>2015-05-07T01:53:59Z</time>
				<extensions>
				</extensions>
			</trkpt>
			<trkpt lat="-28.259366" lon="153.098349">
				<ele>269</ele>
				<time>2015-05-07T01:54:01Z</time>
				<extensions>
				</extensions>
			</trkpt>
			<trkpt lat="-28.259280" lon="153.098144">
				<ele>268</ele>
				<time>2015-05-07T01:54:03Z</time>
				<extensions>
				</extensions>
			</trkpt>
			<trkpt lat="-28.259220" lon="153.097939">
				<ele>269</ele>
				<time>2015-05-07T01:54:05Z</time>
				<extensions>
				</extensions>
			</trkpt>
			<trkpt lat="-28.259168" lon="153.097716">
				<ele>267</ele>
				<time>2015-05-07T01:54:07Z</time>
				<extensions>
				</extensions>
			</trkpt>
			<trkpt lat="-28.259113" lon="153.097487">
				<ele>267</ele>
				<time>2015-05-07T01:54:09Z</time>
				<extensions>
				</extensions>
			</trkpt>
			<trkpt lat="-28.259047" lon="153.097281">
				<ele>266</ele>
				<time>2015-05-07T01:54:11Z</time>
				<extensions>
				</extensions>
			</trkpt>
			<trkpt lat="-28.258883" lon="153.097054">
				<ele>265</ele>
				<time>2015-05-07T01:54:14Z</time>
				<extensions>
				</extensions>
			</trkpt>
			<trkpt lat="-28.258674" lon="153.096856">
				<ele>266</ele>
				<time>2015-05-07T01:54:17Z</time>
				<extensions>
				</extensions>
			</trkpt>
			<trkpt lat="-28.258477" lon="153.096695">
				<ele>265</ele>
				<time>2015-05-07T01:54:20Z</time>
				<extensions>
				</extensions>
			</trkpt>
			<trkpt lat="-28.258313" lon="153.096535">
				<ele>263</ele>
				<time>2015-05-07T01:54:23Z</time>
				<extensions>
				</extensions>
			</trkpt>
			<trkpt lat="-28.258161" lon="153.096393">
				<ele>263</ele>
				<time>2015-05-07T01:54:26Z</time>
				<extensions>
				</extensions>
			</trkpt>
			<trkpt lat="-28.258001" lon="153.096244">
				<ele>264</ele>
				<time>2015-05-07T01:54:29Z</time>
				<extensions>
				</extensions>
			</trkpt>
			<trkpt lat="-28.257825" lon="153.096068">
				<ele>265</ele>
				<time>2015-05-07T01:54:32Z</time>
				<extensions>
				</extensions>
			</trkpt>
			<trkpt lat="-28.257673" lon="153.095829">
				<ele>265</ele>
				<time>2015-05-07T01:54:35Z</time>
				<extensions>
				</extensions>
			</trkpt>
			<trkpt lat="-28.257537" lon="153.095531">
				<ele>263</ele>
				<time>2015-05-07T01:54:38Z</time>
				<extensions>
				</extensions>
			</trkpt>
			<trkpt lat="-28.257427" lon="153.095325">
				<ele>263</ele>
				<time>2015-05-07T01:54:40Z</time>
				<extensions>
				</extensions>
			</trkpt>
			<trkpt lat="-28.257328" lon="153.095146">
				<ele>262</ele>
				<time>2015-05-07T01:54:42Z</time>
				<extensions>
				</extensions>
			</trkpt>
			<trkpt lat="-28.257209" lon="153.094984">
				<ele>260</ele>
				<time>2015-05-07T01:54:44Z</time>
				<extensions>
				</extensions>
			</trkpt>
			<trkpt lat="-28.257093" lon="153.094807">
				<ele>259</ele>
				<time>2015-05-07T01:54:46Z</time>
				<extensions>
				</extensions>
			</trkpt>
			<trkpt lat="-28.256976" lon="153.094634">
				<ele>260</ele>
				<time>2015-05-07T01:54:48Z</time>
				<extensions>
				</extensions>
			</trkpt>
			<trkpt lat="-28.256806" lon="153.094391">
				<ele>259</ele>
				<time>2015-05-07T01:54:51Z</time>
				<extensions>
				</extensions>
			</trkpt>
			<trkpt lat="-28.256715" lon="153.094207">
				<ele>259</ele>
				<time>2015-05-07T01:54:53Z</time>
				<extensions>
				</extensions>
			</trkpt>
			<trkpt lat="-28.256619" lon="153.094018">
				<ele>258</ele>
				<time>2015-05-07T01:54:55Z</time>
				<extensions>
				</extensions>
			</trkpt>
			<trkpt lat="-28.256510" lon="153.093833">
				<ele>259</ele>
				<time>2015-05-07T01:54:57Z</time>
				<extensions>
				</extensions>
			</trkpt>
			<trkpt lat="-28.256376" lon="153.093587">
				<ele>259</ele>
				<time>2015-05-07T01:55:00Z</time>
				<extensions>
				</extensions>
			</trkpt>
			<trkpt lat="-28.256275" lon="153.093410">
				<ele>258</ele>
				<time>2015-05-07T01:55:02Z</time>
				<extensions>
				</extensions>
			</trkpt>
			<trkpt lat="-28.256162" lon="153.093234">
				<ele>258</ele>
				<time>2015-05-07T01:55:05Z</time>
				<extensions>
				</extensions>
			</trkpt>
			<trkpt lat="-28.256036" lon="153.093055">
				<ele>257</ele>
				<time>2015-05-07T01:55:08Z</time>
				<extensions>
				</extensions>
			</trkpt>
			<trkpt lat="-28.255902" lon="153.092841">
				<ele>258</ele>
				<time>2015-05-07T01:55:11Z</time>
				<extensions>
				</extensions>
			</trkpt>
			<trkpt lat="-28.255781" lon="153.092620">
				<ele>255</ele>
				<time>2015-05-07T01:55:14Z</time>
				<extensions>
				</extensions>
			</trkpt>
			<trkpt lat="-28.255656" lon="153.092464">
				<ele>254</ele>
				<time>2015-05-07T01:55:18Z</time>
				<extensions>
				</extensions>
			</trkpt>
			<trkpt lat="-28.255521" lon="153.092244">
				<ele>254</ele>
				<time>2015-05-07T01:55:23Z</time>
				<extensions>
				</extensions>
			</trkpt>
			<trkpt lat="-28.255398" lon="153.092060">
				<ele>254</ele>
				<time>2015-05-07T01:55:26Z</time>
				<extensions>
				</extensions>
			</trkpt>
			<trkpt lat="-28.255283" lon="153.091886">
				<ele>254</ele>
				<time>2015-05-07T01:55:29Z</time>
				<extensions>
				</extensions>
			</trkpt>
			<trkpt lat="-28.255134" lon="153.091691">
				<ele>252</ele>
				<time>2015-05-07T01:55:33Z</time>
				<extensions>
				</extensions>
			</trkpt>
			<trkpt lat="-28.254978" lon="153.091561">
				<ele>251</ele>
				<time>2015-05-07T01:55:39Z</time>
				<extensions>
				</extensions>
			</trkpt>
			<trkpt lat="-28.254845" lon="153.091346">
				<ele>252</ele>
				<time>2015-05-07T01:55:45Z</time>
				<extensions>
				</extensions>
			</trkpt>
			<trkpt lat="-28.254758" lon="153.091086">
				<ele>252</ele>
				<time>2015-05-07T01:55:49Z</time>
				<extensions>
				</extensions>
			</trkpt>
			<trkpt lat="-28.254640" lon="153.090897">
				<ele>252</ele>
				<time>2015-05-07T01:55:52Z</time>
				<extensions>
				</extensions>
			</trkpt>
			<trkpt lat="-28.254474" lon="153.090705">
				<ele>251</ele>
				<time>2015-05-07T01:55:55Z</time>
				<extensions>
				</extensions>
			</trkpt>
			<trkpt lat="-28.254299" lon="153.090545">
				<ele>251</ele>
				<time>2015-05-07T01:55:58Z</time>
				<extensions>
				</extensions>
			</trkpt>
			<trkpt lat="-28.254111" lon="153.090497">
				<ele>251</ele>
				<time>2015-05-07T01:56:01Z</time>
				<extensions>
				</extensions>
			</trkpt>
			<trkpt lat="-28.253908" lon="153.090436">
				<ele>250</ele>
				<time>2015-05-07T01:56:04Z</time>
				<extensions>
				</extensions>
			</trkpt>
			<trkpt lat="-28.253688" lon="153.090345">
				<ele>249</ele>
				<time>2015-05-07T01:56:07Z</time>
				<extensions>
				</extensions>
			</trkpt>
			<trkpt lat="-28.253488" lon="153.090211">
				<ele>248</ele>
				<time>2015-05-07T01:56:10Z</time>
				<extensions>
				</extensions>
			</trkpt>
			<trkpt lat="-28.253310" lon="153.090064">
				<ele>247</ele>
				<time>2015-05-07T01:56:13Z</time>
				<extensions>
				</extensions>
			</trkpt>
			<trkpt lat="-28.253168" lon="153.089892">
				<ele>246</ele>
				<time>2015-05-07T01:56:16Z</time>
				<extensions>
				</extensions>
			</trkpt>
			<trkpt lat="-28.253003" lon="153.089729">
				<ele>247</ele>
				<time>2015-05-07T01:56:19Z</time>
				<extensions>
				</extensions>
			</trkpt>
			<trkpt lat="-28.252848" lon="153.089543">
				<ele>247</ele>
				<time>2015-05-07T01:56:22Z</time>
				<extensions>
				</extensions>
			</trkpt>
			<trkpt lat="-28.252680" lon="153.089365">
				<ele>247</ele>
				<time>2015-05-07T01:56:25Z</time>
				<extensions>
				</extensions>
			</trkpt>
			<trkpt lat="-28.252493" lon="153.089162">
				<ele>246</ele>
				<time>2015-05-07T01:56:28Z</time>
				<extensions>
				</extensions>
			</trkpt>
			<trkpt lat="-28.252329" lon="153.088991">
				<ele>246</ele>
				<time>2015-05-07T01:56:31Z</time>
				<extensions>
				</extensions>
			</trkpt>
			<trkpt lat="-28.252161" lon="153.088807">
				<ele>246</ele>
				<time>2015-05-07T01:56:34Z</time>
				<extensions>
				</extensions>
			</trkpt>
			<trkpt lat="-28.252002" lon="153.088636">
				<ele>244</ele>
				<time>2015-05-07T01:56:37Z</time>
				<extensions>
				</extensions>
			</trkpt>
			<trkpt lat="-28.251798" lon="153.088498">
				<ele>244</ele>
				<time>2015-05-07T01:56:40Z</time>
				<extensions>
				</extensions>
			</trkpt>
			<trkpt lat="-28.251615" lon="153.088393">
				<ele>243</ele>
				<time>2015-05-07T01:56:43Z</time>
				<extensions>
				</extensions>
			</trkpt>
			<trkpt lat="-28.251396" lon="153.088319">
				<ele>243</ele>
				<time>2015-05-07T01:56:46Z</time>
				<extensions>
				</extensions>
			</trkpt>
			<trkpt lat="-28.251190" lon="153.088216">
				<ele>244</ele>
				<time>2015-05-07T01:56:49Z</time>
				<extensions>
				</extensions>
			</trkpt>
			<trkpt lat="-28.250984" lon="153.088086">
				<ele>243</ele>
				<time>2015-05-07T01:56:52Z</time>
				<extensions>
				</extensions>
			</trkpt>
			<trkpt lat="-28.250776" lon="153.087954">
				<ele>242</ele>
				<time>2015-05-07T01:56:55Z</time>
				<extensions>
				</extensions>
			</trkpt>
			<trkpt lat="-28.250606" lon="153.087797">
				<ele>242</ele>
				<time>2015-05-07T01:56:57Z</time>
				<extensions>
				</extensions>
			</trkpt>
			<trkpt lat="-28.250424" lon="153.087582">
				<ele>242</ele>
				<time>2015-05-07T01:57:00Z</time>
				<extensions>
				</extensions>
			</trkpt>
			<trkpt lat="-28.250285" lon="153.087336">
				<ele>241</ele>
				<time>2015-05-07T01:57:03Z</time>
				<extensions>
				</extensions>
			</trkpt>
			<trkpt lat="-28.250163" lon="153.087151">
				<ele>240</ele>
				<time>2015-05-07T01:57:06Z</time>
				<extensions>
				</extensions>
			</trkpt>
			<trkpt lat="-28.250018" lon="153.086957">
				<ele>240</ele>
				<time>2015-05-07T01:57:09Z</time>
				<extensions>
				</extensions>
			</trkpt>
			<trkpt lat="-28.249830" lon="153.086765">
				<ele>240</ele>
				<time>2015-05-07T01:57:12Z</time>
				<extensions>
				</extensions>
			</trkpt>
			<trkpt lat="-28.249678" lon="153.086557">
				<ele>239</ele>
				<time>2015-05-07T01:57:15Z</time>
				<extensions>
				</extensions>
			</trkpt>
			<trkpt lat="-28.249543" lon="153.086346">
				<ele>239</ele>
				<time>2015-05-07T01:57:18Z</time>
				<extensions>
				</extensions>
			</trkpt>
			<trkpt lat="-28.249440" lon="153.086149">
				<ele>239</ele>
				<time>2015-05-07T01:57:21Z</time>
				<extensions>
				</extensions>
			</trkpt>
			<trkpt lat="-28.249348" lon="153.085956">
				<ele>238</ele>
				<time>2015-05-07T01:57:24Z</time>
				<extensions>
				</extensions>
			</trkpt>
			<trkpt lat="-28.249297" lon="153.085700">
				<ele>238</ele>
				<time>2015-05-07T01:57:28Z</time>
				<extensions>
				</extensions>
			</trkpt>
			<trkpt lat="-28.249261" lon="153.085483">
				<ele>237</ele>
				<time>2015-05-07T01:57:32Z</time>
				<extensions>
				</extensions>
			</trkpt>
			<trkpt lat="-28.249194" lon="153.085277">
				<ele>237</ele>
				<time>2015-05-07T01:57:35Z</time>
				<extensions>
				</extensions>
			</trkpt>
			<trkpt lat="-28.249115" lon="153.085082">
				<ele>237</ele>
				<time>2015-05-07T01:57:38Z</time>
				<extensions>
				</extensions>
			</trkpt>
			<trkpt lat="-28.249017" lon="153.084797">
				<ele>236</ele>
				<time>2015-05-07T01:57:41Z</time>
				<extensions>
				</extensions>
			</trkpt>
			<trkpt lat="-28.248928" lon="153.084596">
				<ele>237</ele>
				<time>2015-05-07T01:57:43Z</time>
				<extensions>
				</extensions>
			</trkpt>
			<trkpt lat="-28.248827" lon="153.084402">
				<ele>236</ele>
				<time>2015-05-07T01:57:45Z</time>
				<extensions>
				</extensions>
			</trkpt>
			<trkpt lat="-28.248708" lon="153.084139">
				<ele>235</ele>
				<time>2015-05-07T01:57:48Z</time>
				<extensions>
				</extensions>
			</trkpt>
			<trkpt lat="-28.248625" lon="153.083910">
				<ele>234</ele>
				<time>2015-05-07T01:57:51Z</time>
				<extensions>
				</extensions>
			</trkpt>
			<trkpt lat="-28.248532" lon="153.083657">
				<ele>234</ele>
				<time>2015-05-07T01:57:54Z</time>
				<extensions>
				</extensions>
			</trkpt>
			<trkpt lat="-28.248445" lon="153.083420">
				<ele>234</ele>
				<time>2015-05-07T01:57:57Z</time>
				<extensions>
				</extensions>
			</trkpt>
			<trkpt lat="-28.248363" lon="153.083173">
				<ele>234</ele>
				<time>2015-05-07T01:58:00Z</time>
				<extensions>
				</extensions>
			</trkpt>
			<trkpt lat="-28.248281" lon="153.082929">
				<ele>233</ele>
				<time>2015-05-07T01:58:03Z</time>
				<extensions>
				</extensions>
			</trkpt>
			<trkpt lat="-28.248217" lon="153.082667">
				<ele>231</ele>
				<time>2015-05-07T01:58:07Z</time>
				<extensions>
				</extensions>
			</trkpt>
			<trkpt lat="-28.248178" lon="153.082423">
				<ele>230</ele>
				<time>2015-05-07T01:58:12Z</time>
				<extensions>
				</extensions>
			</trkpt>
			<trkpt lat="-28.248100" lon="153.082225">
				<ele>230</ele>
				<time>2015-05-07T01:58:41Z</time>
				<extensions>
				</extensions>
			</trkpt>
			<trkpt lat="-28.248044" lon="153.082002">
				<ele>229</ele>
				<time>2015-05-07T01:58:54Z</time>
				<extensions>
				</extensions>
			</trkpt>
			<trkpt lat="-28.247994" lon="153.081784">
				<ele>228</ele>
				<time>2015-05-07T01:59:01Z</time>
				<extensions>
				</extensions>
			</trkpt>
			<trkpt lat="-28.247942" lon="153.081588">
				<ele>228</ele>
				<time>2015-05-07T01:59:09Z</time>
				<extensions>
				</extensions>
			</trkpt>
			<trkpt lat="-28.247885" lon="153.081377">
				<ele>229</ele>
				<time>2015-05-07T01:59:16Z</time>
				<extensions>
				</extensions>
			</trkpt>
			<trkpt lat="-28.247850" lon="153.081165">
				<ele>229</ele>
				<time>2015-05-07T01:59:22Z</time>
				<extensions>
				</extensions>
			</trkpt>
			<trkpt lat="-28.247796" lon="153.080959">
				<ele>229</ele>
				<time>2015-05-07T01:59:26Z</time>
				<extensions>
				</extensions>
			</trkpt>
			<trkpt lat="-28.247734" lon="153.080734">
				<ele>229</ele>
				<time>2015-05-07T01:59:31Z</time>
				<extensions>
				</extensions>
			</trkpt>
			<trkpt lat="-28.247669" lon="153.080521">
				<ele>229</ele>
				<time>2015-05-07T01:59:34Z</time>
				<extensions>
				</extensions>
			</trkpt>
			<trkpt lat="-28.247617" lon="153.080291">
				<ele>230</ele>
				<time>2015-05-07T01:59:37Z</time>
				<extensions>
				</extensions>
			</trkpt>
			<trkpt lat="-28.247551" lon="153.080017">
				<ele>230</ele>
				<time>2015-05-07T01:59:40Z</time>
				<extensions>
				</extensions>
			</trkpt>
			<trkpt lat="-28.247501" lon="153.079813">
				<ele>230</ele>
				<time>2015-05-07T01:59:42Z</time>
				<extensions>
				</extensions>
			</trkpt>
			<trkpt lat="-28.247447" lon="153.079598">
				<ele>231</ele>
				<time>2015-05-07T01:59:44Z</time>
				<extensions>
				</extensions>
			</trkpt>
			<trkpt lat="-28.247392" lon="153.079371">
				<ele>231</ele>
				<time>2015-05-07T01:59:46Z</time>
				<extensions>
				</extensions>
			</trkpt>
			<trkpt lat="-28.247342" lon="153.079132">
				<ele>230</ele>
				<time>2015-05-07T01:59:48Z</time>
				<extensions>
				</extensions>
			</trkpt>
			<trkpt lat="-28.247269" lon="153.078886">
				<ele>230</ele>
				<time>2015-05-07T01:59:50Z</time>
				<extensions>
				</extensions>
			</trkpt>
			<trkpt lat="-28.247195" lon="153.078641">
				<ele>230</ele>
				<time>2015-05-07T01:59:52Z</time>
				<extensions>
				</extensions>
			</trkpt>
			<trkpt lat="-28.247080" lon="153.078378">
				<ele>230</ele>
				<time>2015-05-07T01:59:54Z</time>
				<extensions>
				</extensions>
			</trkpt>
			<trkpt lat="-28.246974" lon="153.078125">
				<ele>230</ele>
				<time>2015-05-07T01:59:56Z</time>
				<extensions>
				</extensions>
			</trkpt>
			<trkpt lat="-28.246893" lon="153.077868">
				<ele>231</ele>
				<time>2015-05-07T01:59:58Z</time>
				<extensions>
				</extensions>
			</trkpt>
			<trkpt lat="-28.246936" lon="153.077570">
				<ele>230</ele>
				<time>2015-05-07T02:00:01Z</time>
				<extensions>
				</extensions>
			</trkpt>
			<trkpt lat="-28.246875" lon="153.077306">
				<ele>230</ele>
				<time>2015-05-07T02:00:03Z</time>
				<extensions>
				</extensions>
			</trkpt>
			<trkpt lat="-28.246810" lon="153.077049">
				<ele>230</ele>
				<time>2015-05-07T02:00:05Z</time>
				<extensions>
				</extensions>
			</trkpt>
			<trkpt lat="-28.246755" lon="153.076783">
				<ele>230</ele>
				<time>2015-05-07T02:00:07Z</time>
				<extensions>
				</extensions>
			</trkpt>
			<trkpt lat="-28.246698" lon="153.076527">
				<ele>229</ele>
				<time>2015-05-07T02:00:09Z</time>
				<extensions>
				</extensions>
			</trkpt>
			<trkpt lat="-28.246632" lon="153.076256">
				<ele>228</ele>
				<time>2015-05-07T02:00:11Z</time>
				<extensions>
				</extensions>
			</trkpt>
			<trkpt lat="-28.246571" lon="153.076002">
				<ele>227</ele>
				<time>2015-05-07T02:00:13Z</time>
				<extensions>
				</extensions>
			</trkpt>
			<trkpt lat="-28.246516" lon="153.075751">
				<ele>228</ele>
				<time>2015-05-07T02:00:15Z</time>
				<extensions>
				</extensions>
			</trkpt>
			<trkpt lat="-28.246455" lon="153.075494">
				<ele>228</ele>
				<time>2015-05-07T02:00:17Z</time>
				<extensions>
				</extensions>
			</trkpt>
			<trkpt lat="-28.246398" lon="153.075231">
				<ele>227</ele>
				<time>2015-05-07T02:00:19Z</time>
				<extensions>
				</extensions>
			</trkpt>
			<trkpt lat="-28.246327" lon="153.074957">
				<ele>227</ele>
				<time>2015-05-07T02:00:21Z</time>
				<extensions>
				</extensions>
			</trkpt>
			<trkpt lat="-28.246264" lon="153.074696">
				<ele>226</ele>
				<time>2015-05-07T02:00:23Z</time>
				<extensions>
				</extensions>
			</trkpt>
			<trkpt lat="-28.246206" lon="153.074456">
				<ele>226</ele>
				<time>2015-05-07T02:00:25Z</time>
				<extensions>
				</extensions>
			</trkpt>
			<trkpt lat="-28.246153" lon="153.074230">
				<ele>225</ele>
				<time>2015-05-07T02:00:27Z</time>
				<extensions>
				</extensions>
			</trkpt>
			<trkpt lat="-28.246090" lon="153.073950">
				<ele>223</ele>
				<time>2015-05-07T02:00:30Z</time>
				<extensions>
				</extensions>
			</trkpt>
			<trkpt lat="-28.246028" lon="153.073747">
				<ele>222</ele>
				<time>2015-05-07T02:00:33Z</time>
				<extensions>
				</extensions>
			</trkpt>
			<trkpt lat="-28.245970" lon="153.073540">
				<ele>221</ele>
				<time>2015-05-07T02:00:37Z</time>
				<extensions>
				</extensions>
			</trkpt>
			<trkpt lat="-28.245910" lon="153.073319">
				<ele>221</ele>
				<time>2015-05-07T02:00:42Z</time>
				<extensions>
				</extensions>
			</trkpt>
			<trkpt lat="-28.245826" lon="153.073087">
				<ele>223</ele>
				<time>2015-05-07T02:00:45Z</time>
				<extensions>
				</extensions>
			</trkpt>
			<trkpt lat="-28.245728" lon="153.072889">
				<ele>224</ele>
				<time>2015-05-07T02:00:47Z</time>
				<extensions>
				</extensions>
			</trkpt>
			<trkpt lat="-28.245613" lon="153.072643">
				<ele>226</ele>
				<time>2015-05-07T02:00:49Z</time>
				<extensions>
				</extensions>
			</trkpt>
			<trkpt lat="-28.245499" lon="153.072382">
				<ele>227</ele>
				<time>2015-05-07T02:00:51Z</time>
				<extensions>
				</extensions>
			</trkpt>
			<trkpt lat="-28.245387" lon="153.072127">
				<ele>226</ele>
				<time>2015-05-07T02:00:53Z</time>
				<extensions>
				</extensions>
			</trkpt>
			<trkpt lat="-28.245277" lon="153.071870">
				<ele>226</ele>
				<time>2015-05-07T02:00:55Z</time>
				<extensions>
				</extensions>
			</trkpt>
			<trkpt lat="-28.245165" lon="153.071606">
				<ele>226</ele>
				<time>2015-05-07T02:00:57Z</time>
				<extensions>
				</extensions>
			</trkpt>
			<trkpt lat="-28.245041" lon="153.071306">
				<ele>227</ele>
				<time>2015-05-07T02:00:59Z</time>
				<extensions>
				</extensions>
			</trkpt>
			<trkpt lat="-28.244907" lon="153.070974">
				<ele>227</ele>
				<time>2015-05-07T02:01:01Z</time>
				<extensions>
				</extensions>
			</trkpt>
			<trkpt lat="-28.244757" lon="153.070619">
				<ele>227</ele>
				<time>2015-05-07T02:01:03Z</time>
				<extensions>
				</extensions>
			</trkpt>
			<trkpt lat="-28.244614" lon="153.070261">
				<ele>228</ele>
				<time>2015-05-07T02:01:05Z</time>
				<extensions>
				</extensions>
			</trkpt>
			<trkpt lat="-28.244501" lon="153.069914">
				<ele>226</ele>
				<time>2015-05-07T02:01:07Z</time>
				<extensions>
				</extensions>
			</trkpt>
			<trkpt lat="-28.244422" lon="153.069582">
				<ele>225</ele>
				<time>2015-05-07T02:01:09Z</time>
				<extensions>
				</extensions>
			</trkpt>
			<trkpt lat="-28.244421" lon="153.069249">
				<ele>226</ele>
				<time>2015-05-07T02:01:11Z</time>
				<extensions>
				</extensions>
			</trkpt>
			<trkpt lat="-28.244503" lon="153.068918">
				<ele>228</ele>
				<time>2015-05-07T02:01:13Z</time>
				<extensions>
				</extensions>
			</trkpt>
			<trkpt lat="-28.244641" lon="153.068585">
				<ele>229</ele>
				<time>2015-05-07T02:01:15Z</time>
				<extensions>
				</extensions>
			</trkpt>
			<trkpt lat="-28.244807" lon="153.068272">
				<ele>229</ele>
				<time>2015-05-07T02:01:17Z</time>
				<extensions>
				</extensions>
			</trkpt>
			<trkpt lat="-28.244986" lon="153.067970">
				<ele>228</ele>
				<time>2015-05-07T02:01:19Z</time>
				<extensions>
				</extensions>
			</trkpt>
			<trkpt lat="-28.245161" lon="153.067675">
				<ele>227</ele>
				<time>2015-05-07T02:01:21Z</time>
				<extensions>
				</extensions>
			</trkpt>
			<trkpt lat="-28.245340" lon="153.067379">
				<ele>226</ele>
				<time>2015-05-07T02:01:23Z</time>
				<extensions>
				</extensions>
			</trkpt>
			<trkpt lat="-28.245509" lon="153.067090">
				<ele>227</ele>
				<time>2015-05-07T02:01:25Z</time>
				<extensions>
				</extensions>
			</trkpt>
			<trkpt lat="-28.245673" lon="153.066787">
				<ele>226</ele>
				<time>2015-05-07T02:01:27Z</time>
				<extensions>
				</extensions>
			</trkpt>
			<trkpt lat="-28.245843" lon="153.066484">
				<ele>225</ele>
				<time>2015-05-07T02:01:29Z</time>
				<extensions>
				</extensions>
			</trkpt>
			<trkpt lat="-28.246018" lon="153.066157">
				<ele>225</ele>
				<time>2015-05-07T02:01:31Z</time>
				<extensions>
				</extensions>
			</trkpt>
			<trkpt lat="-28.246191" lon="153.065845">
				<ele>224</ele>
				<time>2015-05-07T02:01:33Z</time>
				<extensions>
				</extensions>
			</trkpt>
			<trkpt lat="-28.246366" lon="153.065539">
				<ele>223</ele>
				<time>2015-05-07T02:01:35Z</time>
				<extensions>
				</extensions>
			</trkpt>
			<trkpt lat="-28.246525" lon="153.065236">
				<ele>222</ele>
				<time>2015-05-07T02:01:37Z</time>
				<extensions>
				</extensions>
			</trkpt>
			<trkpt lat="-28.246674" lon="153.064939">
				<ele>221</ele>
				<time>2015-05-07T02:01:39Z</time>
				<extensions>
				</extensions>
			</trkpt>
			<trkpt lat="-28.246793" lon="153.064639">
				<ele>222</ele>
				<time>2015-05-07T02:01:41Z</time>
				<extensions>
				</extensions>
			</trkpt>
			<trkpt lat="-28.246854" lon="153.064326">
				<ele>222</ele>
				<time>2015-05-07T02:01:43Z</time>
				<extensions>
				</extensions>
			</trkpt>
			<trkpt lat="-28.246854" lon="153.064016">
				<ele>221</ele>
				<time>2015-05-07T02:01:45Z</time>
				<extensions>
				</extensions>
			</trkpt>
			<trkpt lat="-28.246790" lon="153.063699">
				<ele>222</ele>
				<time>2015-05-07T02:01:47Z</time>
				<extensions>
				</extensions>
			</trkpt>
			<trkpt lat="-28.246670" lon="153.063419">
				<ele>223</ele>
				<time>2015-05-07T02:01:49Z</time>
				<extensions>
				</extensions>
			</trkpt>
			<trkpt lat="-28.246494" lon="153.063175">
				<ele>224</ele>
				<time>2015-05-07T02:01:51Z</time>
				<extensions>
				</extensions>
			</trkpt>
			<trkpt lat="-28.246270" lon="153.062982">
				<ele>225</ele>
				<time>2015-05-07T02:01:53Z</time>
				<extensions>
				</extensions>
			</trkpt>
			<trkpt lat="-28.246002" lon="153.062841">
				<ele>227</ele>
				<time>2015-05-07T02:01:55Z</time>
				<extensions>
				</extensions>
			</trkpt>
			<trkpt lat="-28.245698" lon="153.062763">
				<ele>227</ele>
				<time>2015-05-07T02:01:57Z</time>
				<extensions>
				</extensions>
			</trkpt>
			<trkpt lat="-28.245378" lon="153.062757">
				<ele>228</ele>
				<time>2015-05-07T02:01:59Z</time>
				<extensions>
				</extensions>
			</trkpt>
			<trkpt lat="-28.245087" lon="153.062794">
				<ele>230</ele>
				<time>2015-05-07T02:02:01Z</time>
				<extensions>
				</extensions>
			</trkpt>
			<trkpt lat="-28.244792" lon="153.062837">
				<ele>231</ele>
				<time>2015-05-07T02:02:03Z</time>
				<extensions>
				</extensions>
			</trkpt>
			<trkpt lat="-28.244504" lon="153.062864">
				<ele>229</ele>
				<time>2015-05-07T02:02:05Z</time>
				<extensions>
				</extensions>
			</trkpt>
			<trkpt lat="-28.244180" lon="153.062898">
				<ele>231</ele>
				<time>2015-05-07T02:02:07Z</time>
				<extensions>
				</extensions>
			</trkpt>
			<trkpt lat="-28.243849" lon="153.062938">
				<ele>231</ele>
				<time>2015-05-07T02:02:09Z</time>
				<extensions>
				</extensions>
			</trkpt>
			<trkpt lat="-28.243499" lon="153.062976">
				<ele>228</ele>
				<time>2015-05-07T02:02:11Z</time>
				<extensions>
				</extensions>
			</trkpt>
			<trkpt lat="-28.243169" lon="153.063008">
				<ele>226</ele>
				<time>2015-05-07T02:02:13Z</time>
				<extensions>
				</extensions>
			</trkpt>
			<trkpt lat="-28.242816" lon="153.063015">
				<ele>227</ele>
				<time>2015-05-07T02:02:15Z</time>
				<extensions>
				</extensions>
			</trkpt>
			<trkpt lat="-28.242477" lon="153.062971">
				<ele>223</ele>
				<time>2015-05-07T02:02:17Z</time>
				<extensions>
				</extensions>
			</trkpt>
			<trkpt lat="-28.242144" lon="153.062849">
				<ele>224</ele>
				<time>2015-05-07T02:02:19Z</time>
				<extensions>
				</extensions>
			</trkpt>
			<trkpt lat="-28.241847" lon="153.062656">
				<ele>225</ele>
				<time>2015-05-07T02:02:21Z</time>
				<extensions>
				</extensions>
			</trkpt>
			<trkpt lat="-28.241583" lon="153.062404">
				<ele>223</ele>
				<time>2015-05-07T02:02:23Z</time>
				<extensions>
				</extensions>
			</trkpt>
			<trkpt lat="-28.241368" lon="153.062105">
				<ele>222</ele>
				<time>2015-05-07T02:02:25Z</time>
				<extensions>
				</extensions>
			</trkpt>
			<trkpt lat="-28.241212" lon="153.061749">
				<ele>224</ele>
				<time>2015-05-07T02:02:27Z</time>
				<extensions>
				</extensions>
			</trkpt>
			<trkpt lat="-28.241121" lon="153.061364">
				<ele>224</ele>
				<time>2015-05-07T02:02:29Z</time>
				<extensions>
				</extensions>
			</trkpt>
			<trkpt lat="-28.241094" lon="153.061162">
				<ele>223</ele>
				<time>2015-05-07T02:02:30Z</time>
				<extensions>
				</extensions>
			</trkpt>
			<trkpt lat="-28.241057" lon="153.060758">
				<ele>223</ele>
				<time>2015-05-07T02:02:32Z</time>
				<extensions>
				</extensions>
			</trkpt>
			<trkpt lat="-28.241039" lon="153.060553">
				<ele>222</ele>
				<time>2015-05-07T02:02:33Z</time>
				<extensions>
				</extensions>
			</trkpt>
			<trkpt lat="-28.241021" lon="153.060344">
				<ele>221</ele>
				<time>2015-05-07T02:02:34Z</time>
				<extensions>
				</extensions>
			</trkpt>
			<trkpt lat="-28.241002" lon="153.060131">
				<ele>221</ele>
				<time>2015-05-07T02:02:35Z</time>
				<extensions>
				</extensions>
			</trkpt>
			<trkpt lat="-28.240982" lon="153.059926">
				<ele>222</ele>
				<time>2015-05-07T02:02:36Z</time>
				<extensions>
				</extensions>
			</trkpt>
			<trkpt lat="-28.240961" lon="153.059717">
				<ele>220</ele>
				<time>2015-05-07T02:02:37Z</time>
				<extensions>
				</extensions>
			</trkpt>
			<trkpt lat="-28.240940" lon="153.059510">
				<ele>219</ele>
				<time>2015-05-07T02:02:38Z</time>
				<extensions>
				</extensions>
			</trkpt>
			<trkpt lat="-28.240912" lon="153.059104">
				<ele>221</ele>
				<time>2015-05-07T02:02:40Z</time>
				<extensions>
				</extensions>
			</trkpt>
			<trkpt lat="-28.240863" lon="153.058717">
				<ele>221</ele>
				<time>2015-05-07T02:02:42Z</time>
				<extensions>
				</extensions>
			</trkpt>
			<trkpt lat="-28.240825" lon="153.058517">
				<ele>223</ele>
				<time>2015-05-07T02:02:43Z</time>
				<extensions>
				</extensions>
			</trkpt>
			<trkpt lat="-28.240711" lon="153.058155">
				<ele>224</ele>
				<time>2015-05-07T02:02:45Z</time>
				<extensions>
				</extensions>
			</trkpt>
			<trkpt lat="-28.240551" lon="153.057811">
				<ele>226</ele>
				<time>2015-05-07T02:02:47Z</time>
				<extensions>
				</extensions>
			</trkpt>
			<trkpt lat="-28.240349" lon="153.057494">
				<ele>227</ele>
				<time>2015-05-07T02:02:49Z</time>
				<extensions>
				</extensions>
			</trkpt>
			<trkpt lat="-28.240090" lon="153.057195">
				<ele>227</ele>
				<time>2015-05-07T02:02:51Z</time>
				<extensions>
				</extensions>
			</trkpt>
			<trkpt lat="-28.239952" lon="153.057055">
				<ele>228</ele>
				<time>2015-05-07T02:02:52Z</time>
				<extensions>
				</extensions>
			</trkpt>
			<trkpt lat="-28.239808" lon="153.056911">
				<ele>229</ele>
				<time>2015-05-07T02:02:53Z</time>
				<extensions>
				</extensions>
			</trkpt>
			<trkpt lat="-28.239652" lon="153.056757">
				<ele>228</ele>
				<time>2015-05-07T02:02:54Z</time>
				<extensions>
				</extensions>
			</trkpt>
			<trkpt lat="-28.239502" lon="153.056607">
				<ele>227</ele>
				<time>2015-05-07T02:02:55Z</time>
				<extensions>
				</extensions>
			</trkpt>
			<trkpt lat="-28.239356" lon="153.056469">
				<ele>226</ele>
				<time>2015-05-07T02:02:56Z</time>
				<extensions>
				</extensions>
			</trkpt>
			<trkpt lat="-28.239205" lon="153.056333">
				<ele>224</ele>
				<time>2015-05-07T02:02:57Z</time>
				<extensions>
				</extensions>
			</trkpt>
			<trkpt lat="-28.239051" lon="153.056210">
				<ele>222</ele>
				<time>2015-05-07T02:02:58Z</time>
				<extensions>
				</extensions>
			</trkpt>
			<trkpt lat="-28.238896" lon="153.056098">
				<ele>223</ele>
				<time>2015-05-07T02:02:59Z</time>
				<extensions>
				</extensions>
			</trkpt>
			<trkpt lat="-28.238742" lon="153.055990">
				<ele>220</ele>
				<time>2015-05-07T02:03:00Z</time>
				<extensions>
				</extensions>
			</trkpt>
			<trkpt lat="-28.238417" lon="153.055784">
				<ele>219</ele>
				<time>2015-05-07T02:03:02Z</time>
				<extensions>
				</extensions>
			</trkpt>
			<trkpt lat="-28.238259" lon="153.055685">
				<ele>219</ele>
				<time>2015-05-07T02:03:03Z</time>
				<extensions>
				</extensions>
			</trkpt>
			<trkpt lat="-28.238090" lon="153.055577">
				<ele>219</ele>
				<time>2015-05-07T02:03:04Z</time>
				<extensions>
				</extensions>
			</trkpt>
			<trkpt lat="-28.237926" lon="153.055475">
				<ele>219</ele>
				<time>2015-05-07T02:03:05Z</time>
				<extensions>
				</extensions>
			</trkpt>
			<trkpt lat="-28.237759" lon="153.055368">
				<ele>219</ele>
				<time>2015-05-07T02:03:06Z</time>
				<extensions>
				</extensions>
			</trkpt>
			<trkpt lat="-28.237589" lon="153.055259">
				<ele>219</ele>
				<time>2015-05-07T02:03:07Z</time>
				<extensions>
				</extensions>
			</trkpt>
			<trkpt lat="-28.237419" lon="153.055151">
				<ele>220</ele>
				<time>2015-05-07T02:03:08Z</time>
				<extensions>
				</extensions>
			</trkpt>
			<trkpt lat="-28.237251" lon="153.055043">
				<ele>221</ele>
				<time>2015-05-07T02:03:09Z</time>
				<extensions>
				</extensions>
			</trkpt>
			<trkpt lat="-28.237075" lon="153.054936">
				<ele>220</ele>
				<time>2015-05-07T02:03:10Z</time>
				<extensions>
				</extensions>
			</trkpt>
			<trkpt lat="-28.236907" lon="153.054844">
				<ele>219</ele>
				<time>2015-05-07T02:03:11Z</time>
				<extensions>
				</extensions>
			</trkpt>
			<trkpt lat="-28.236733" lon="153.054760">
				<ele>221</ele>
				<time>2015-05-07T02:03:12Z</time>
				<extensions>
				</extensions>
			</trkpt>
			<trkpt lat="-28.236558" lon="153.054683">
				<ele>219</ele>
				<time>2015-05-07T02:03:13Z</time>
				<extensions>
				</extensions>
			</trkpt>
			<trkpt lat="-28.236201" lon="153.054582">
				<ele>217</ele>
				<time>2015-05-07T02:03:15Z</time>
				<extensions>
				</extensions>
			</trkpt>
			<trkpt lat="-28.236020" lon="153.054554">
				<ele>216</ele>
				<time>2015-05-07T02:03:16Z</time>
				<extensions>
				</extensions>
			</trkpt>
			<trkpt lat="-28.235667" lon="153.054513">
				<ele>213</ele>
				<time>2015-05-07T02:03:18Z</time>
				<extensions>
				</extensions>
			</trkpt>
			<trkpt lat="-28.235323" lon="153.054473">
				<ele>211</ele>
				<time>2015-05-07T02:03:20Z</time>
				<extensions>
				</extensions>
			</trkpt>
			<trkpt lat="-28.234979" lon="153.054445">
				<ele>213</ele>
				<time>2015-05-07T02:03:22Z</time>
				<extensions>
				</extensions>
			</trkpt>
			<trkpt lat="-28.234797" lon="153.054424">
				<ele>213</ele>
				<time>2015-05-07T02:03:23Z</time>
				<extensions>
				</extensions>
			</trkpt>
			<trkpt lat="-28.234445" lon="153.054383">
				<ele>213</ele>
				<time>2015-05-07T02:03:25Z</time>
				<extensions>
				</extensions>
			</trkpt>
			<trkpt lat="-28.234254" lon="153.054363">
				<ele>215</ele>
				<time>2015-05-07T02:03:26Z</time>
				<extensions>
				</extensions>
			</trkpt>
			<trkpt lat="-28.234061" lon="153.054338">
				<ele>215</ele>
				<time>2015-05-07T02:03:27Z</time>
				<extensions>
				</extensions>
			</trkpt>
			<trkpt lat="-28.233872" lon="153.054307">
				<ele>213</ele>
				<time>2015-05-07T02:03:28Z</time>
				<extensions>
				</extensions>
			</trkpt>
			<trkpt lat="-28.233682" lon="153.054267">
				<ele>212</ele>
				<time>2015-05-07T02:03:29Z</time>
				<extensions>
				</extensions>
			</trkpt>
			<trkpt lat="-28.233497" lon="153.054212">
				<ele>212</ele>
				<time>2015-05-07T02:03:30Z</time>
				<extensions>
				</extensions>
			</trkpt>
			<trkpt lat="-28.233315" lon="153.054141">
				<ele>211</ele>
				<time>2015-05-07T02:03:31Z</time>
				<extensions>
				</extensions>
			</trkpt>
			<trkpt lat="-28.233146" lon="153.054047">
				<ele>211</ele>
				<time>2015-05-07T02:03:32Z</time>
				<extensions>
				</extensions>
			</trkpt>
			<trkpt lat="-28.232984" lon="153.053941">
				<ele>209</ele>
				<time>2015-05-07T02:03:33Z</time>
				<extensions>
				</extensions>
			</trkpt>
			<trkpt lat="-28.232839" lon="153.053818">
				<ele>209</ele>
				<time>2015-05-07T02:03:34Z</time>
				<extensions>
				</extensions>
			</trkpt>
			<trkpt lat="-28.232701" lon="153.053683">
				<ele>209</ele>
				<time>2015-05-07T02:03:35Z</time>
				<extensions>
				</extensions>
			</trkpt>
			<trkpt lat="-28.232561" lon="153.053532">
				<ele>209</ele>
				<time>2015-05-07T02:03:36Z</time>
				<extensions>
				</extensions>
			</trkpt>
			<trkpt lat="-28.232423" lon="153.053368">
				<ele>211</ele>
				<time>2015-05-07T02:03:37Z</time>
				<extensions>
				</extensions>
			</trkpt>
			<trkpt lat="-28.232292" lon="153.053207">
				<ele>210</ele>
				<time>2015-05-07T02:03:38Z</time>
				<extensions>
				</extensions>
			</trkpt>
			<trkpt lat="-28.232150" lon="153.053037">
				<ele>208</ele>
				<time>2015-05-07T02:03:39Z</time>
				<extensions>
				</extensions>
			</trkpt>
			<trkpt lat="-28.232018" lon="153.052877">
				<ele>209</ele>
				<time>2015-05-07T02:03:40Z</time>
				<extensions>
				</extensions>
			</trkpt>
			<trkpt lat="-28.231889" lon="153.052725">
				<ele>208</ele>
				<time>2015-05-07T02:03:41Z</time>
				<extensions>
				</extensions>
			</trkpt>
			<trkpt lat="-28.231753" lon="153.052562">
				<ele>206</ele>
				<time>2015-05-07T02:03:42Z</time>
				<extensions>
				</extensions>
			</trkpt>
			<trkpt lat="-28.231509" lon="153.052273">
				<ele>203</ele>
				<time>2015-05-07T02:03:44Z</time>
				<extensions>
				</extensions>
			</trkpt>
			<trkpt lat="-28.231263" lon="153.052007">
				<ele>200</ele>
				<time>2015-05-07T02:03:46Z</time>
				<extensions>
				</extensions>
			</trkpt>
			<trkpt lat="-28.230984" lon="153.051770">
				<ele>201</ele>
				<time>2015-05-07T02:03:48Z</time>
				<extensions>
				</extensions>
			</trkpt>
			<trkpt lat="-28.230679" lon="153.051593">
				<ele>202</ele>
				<time>2015-05-07T02:03:50Z</time>
				<extensions>
				</extensions>
			</trkpt>
			<trkpt lat="-28.230356" lon="153.051475">
				<ele>202</ele>
				<time>2015-05-07T02:03:52Z</time>
				<extensions>
				</extensions>
			</trkpt>
			<trkpt lat="-28.230021" lon="153.051421">
				<ele>201</ele>
				<time>2015-05-07T02:03:54Z</time>
				<extensions>
				</extensions>
			</trkpt>
			<trkpt lat="-28.229837" lon="153.051413">
				<ele>202</ele>
				<time>2015-05-07T02:03:55Z</time>
				<extensions>
				</extensions>
			</trkpt>
			<trkpt lat="-28.229493" lon="153.051396">
				<ele>203</ele>
				<time>2015-05-07T02:03:57Z</time>
				<extensions>
				</extensions>
			</trkpt>
			<trkpt lat="-28.229310" lon="153.051391">
				<ele>204</ele>
				<time>2015-05-07T02:03:58Z</time>
				<extensions>
				</extensions>
			</trkpt>
			<trkpt lat="-28.229123" lon="153.051389">
				<ele>202</ele>
				<time>2015-05-07T02:03:59Z</time>
				<extensions>
				</extensions>
			</trkpt>
			<trkpt lat="-28.228936" lon="153.051379">
				<ele>201</ele>
				<time>2015-05-07T02:04:00Z</time>
				<extensions>
				</extensions>
			</trkpt>
			<trkpt lat="-28.228749" lon="153.051378">
				<ele>203</ele>
				<time>2015-05-07T02:04:01Z</time>
				<extensions>
				</extensions>
			</trkpt>
			<trkpt lat="-28.228561" lon="153.051375">
				<ele>204</ele>
				<time>2015-05-07T02:04:02Z</time>
				<extensions>
				</extensions>
			</trkpt>
			<trkpt lat="-28.228365" lon="153.051371">
				<ele>205</ele>
				<time>2015-05-07T02:04:03Z</time>
				<extensions>
				</extensions>
			</trkpt>
			<trkpt lat="-28.228176" lon="153.051363">
				<ele>204</ele>
				<time>2015-05-07T02:04:04Z</time>
				<extensions>
				</extensions>
			</trkpt>
			<trkpt lat="-28.227986" lon="153.051359">
				<ele>205</ele>
				<time>2015-05-07T02:04:05Z</time>
				<extensions>
				</extensions>
			</trkpt>
			<trkpt lat="-28.227792" lon="153.051349">
				<ele>204</ele>
				<time>2015-05-07T02:04:06Z</time>
				<extensions>
				</extensions>
			</trkpt>
			<trkpt lat="-28.227612" lon="153.051332">
				<ele>204</ele>
				<time>2015-05-07T02:04:07Z</time>
				<extensions>
				</extensions>
			</trkpt>
			<trkpt lat="-28.227430" lon="153.051305">
				<ele>204</ele>
				<time>2015-05-07T02:04:08Z</time>
				<extensions>
				</extensions>
			</trkpt>
			<trkpt lat="-28.227251" lon="153.051268">
				<ele>204</ele>
				<time>2015-05-07T02:04:09Z</time>
				<extensions>
				</extensions>
			</trkpt>
			<trkpt lat="-28.226898" lon="153.051157">
				<ele>202</ele>
				<time>2015-05-07T02:04:11Z</time>
				<extensions>
				</extensions>
			</trkpt>
			<trkpt lat="-28.226562" lon="153.051022">
				<ele>201</ele>
				<time>2015-05-07T02:04:13Z</time>
				<extensions>
				</extensions>
			</trkpt>
			<trkpt lat="-28.226256" lon="153.050897">
				<ele>199</ele>
				<time>2015-05-07T02:04:15Z</time>
				<extensions>
				</extensions>
			</trkpt>
			<trkpt lat="-28.225997" lon="153.050784">
				<ele>194</ele>
				<time>2015-05-07T02:04:17Z</time>
				<extensions>
				</extensions>
			</trkpt>
			<trkpt lat="-28.225773" lon="153.050675">
				<ele>192</ele>
				<time>2015-05-07T02:04:19Z</time>
				<extensions>
				</extensions>
			</trkpt>
			<trkpt lat="-28.225568" lon="153.050551">
				<ele>191</ele>
				<time>2015-05-07T02:04:21Z</time>
				<extensions>
				</extensions>
			</trkpt>
			<trkpt lat="-28.225347" lon="153.050403">
				<ele>190</ele>
				<time>2015-05-07T02:04:23Z</time>
				<extensions>
				</extensions>
			</trkpt>
			<trkpt lat="-28.225137" lon="153.050254">
				<ele>189</ele>
				<time>2015-05-07T02:04:25Z</time>
				<extensions>
				</extensions>
			</trkpt>
			<trkpt lat="-28.224945" lon="153.050071">
				<ele>189</ele>
				<time>2015-05-07T02:04:27Z</time>
				<extensions>
				</extensions>
			</trkpt>
			<trkpt lat="-28.224760" lon="153.049841">
				<ele>191</ele>
				<time>2015-05-07T02:04:29Z</time>
				<extensions>
				</extensions>
			</trkpt>
			<trkpt lat="-28.224544" lon="153.049570">
				<ele>194</ele>
				<time>2015-05-07T02:04:31Z</time>
				<extensions>
				</extensions>
			</trkpt>
			<trkpt lat="-28.224333" lon="153.049308">
				<ele>194</ele>
				<time>2015-05-07T02:04:33Z</time>
				<extensions>
				</extensions>
			</trkpt>
			<trkpt lat="-28.224113" lon="153.049063">
				<ele>192</ele>
				<time>2015-05-07T02:04:35Z</time>
				<extensions>
				</extensions>
			</trkpt>
			<trkpt lat="-28.223878" lon="153.048863">
				<ele>193</ele>
				<time>2015-05-07T02:04:37Z</time>
				<extensions>
				</extensions>
			</trkpt>
			<trkpt lat="-28.223584" lon="153.048720">
				<ele>193</ele>
				<time>2015-05-07T02:04:39Z</time>
				<extensions>
				</extensions>
			</trkpt>
			<trkpt lat="-28.223288" lon="153.048617">
				<ele>194</ele>
				<time>2015-05-07T02:04:41Z</time>
				<extensions>
				</extensions>
			</trkpt>
			<trkpt lat="-28.223005" lon="153.048523">
				<ele>190</ele>
				<time>2015-05-07T02:04:43Z</time>
				<extensions>
				</extensions>
			</trkpt>
			<trkpt lat="-28.222772" lon="153.048451">
				<ele>187</ele>
				<time>2015-05-07T02:04:45Z</time>
				<extensions>
				</extensions>
			</trkpt>
			<trkpt lat="-28.222543" lon="153.048375">
				<ele>185</ele>
				<time>2015-05-07T02:04:47Z</time>
				<extensions>
				</extensions>
			</trkpt>
			<trkpt lat="-28.222306" lon="153.048299">
				<ele>185</ele>
				<time>2015-05-07T02:04:49Z</time>
				<extensions>
				</extensions>
			</trkpt>
			<trkpt lat="-28.222041" lon="153.048208">
				<ele>188</ele>
				<time>2015-05-07T02:04:51Z</time>
				<extensions>
				</extensions>
			</trkpt>
			<trkpt lat="-28.221737" lon="153.048127">
				<ele>191</ele>
				<time>2015-05-07T02:04:53Z</time>
				<extensions>
				</extensions>
			</trkpt>
			<trkpt lat="-28.221387" lon="153.048038">
				<ele>193</ele>
				<time>2015-05-07T02:04:55Z</time>
				<extensions>
				</extensions>
			</trkpt>
			<trkpt lat="-28.221208" lon="153.047993">
				<ele>194</ele>
				<time>2015-05-07T02:04:56Z</time>
				<extensions>
				</extensions>
			</trkpt>
			<trkpt lat="-28.221026" lon="153.047943">
				<ele>194</ele>
				<time>2015-05-07T02:04:57Z</time>
				<extensions>
				</extensions>
			</trkpt>
			<trkpt lat="-28.220846" lon="153.047894">
				<ele>195</ele>
				<time>2015-05-07T02:04:58Z</time>
				<extensions>
				</extensions>
			</trkpt>
			<trkpt lat="-28.220666" lon="153.047844">
				<ele>194</ele>
				<time>2015-05-07T02:04:59Z</time>
				<extensions>
				</extensions>
			</trkpt>
			<trkpt lat="-28.220485" lon="153.047791">
				<ele>195</ele>
				<time>2015-05-07T02:05:00Z</time>
				<extensions>
				</extensions>
			</trkpt>
			<trkpt lat="-28.220298" lon="153.047728">
				<ele>196</ele>
				<time>2015-05-07T02:05:01Z</time>
				<extensions>
				</extensions>
			</trkpt>
			<trkpt lat="-28.220108" lon="153.047659">
				<ele>198</ele>
				<time>2015-05-07T02:05:02Z</time>
				<extensions>
				</extensions>
			</trkpt>
			<trkpt lat="-28.219925" lon="153.047587">
				<ele>196</ele>
				<time>2015-05-07T02:05:03Z</time>
				<extensions>
				</extensions>
			</trkpt>
			<trkpt lat="-28.219750" lon="153.047502">
				<ele>197</ele>
				<time>2015-05-07T02:05:04Z</time>
				<extensions>
				</extensions>
			</trkpt>
			<trkpt lat="-28.219572" lon="153.047416">
				<ele>198</ele>
				<time>2015-05-07T02:05:05Z</time>
				<extensions>
				</extensions>
			</trkpt>
			<trkpt lat="-28.219394" lon="153.047330">
				<ele>198</ele>
				<time>2015-05-07T02:05:06Z</time>
				<extensions>
				</extensions>
			</trkpt>
			<trkpt lat="-28.219216" lon="153.047237">
				<ele>197</ele>
				<time>2015-05-07T02:05:07Z</time>
				<extensions>
				</extensions>
			</trkpt>
			<trkpt lat="-28.219046" lon="153.047132">
				<ele>197</ele>
				<time>2015-05-07T02:05:08Z</time>
				<extensions>
				</extensions>
			</trkpt>
			<trkpt lat="-28.218883" lon="153.047032">
				<ele>196</ele>
				<time>2015-05-07T02:05:09Z</time>
				<extensions>
				</extensions>
			</trkpt>
			<trkpt lat="-28.218714" lon="153.046919">
				<ele>196</ele>
				<time>2015-05-07T02:05:10Z</time>
				<extensions>
				</extensions>
			</trkpt>
			<trkpt lat="-28.218562" lon="153.046805">
				<ele>196</ele>
				<time>2015-05-07T02:05:11Z</time>
				<extensions>
				</extensions>
			</trkpt>
			<trkpt lat="-28.218412" lon="153.046686">
				<ele>196</ele>
				<time>2015-05-07T02:05:12Z</time>
				<extensions>
				</extensions>
			</trkpt>
			<trkpt lat="-28.218263" lon="153.046567">
				<ele>197</ele>
				<time>2015-05-07T02:05:13Z</time>
				<extensions>
				</extensions>
			</trkpt>
			<trkpt lat="-28.218112" lon="153.046442">
				<ele>196</ele>
				<time>2015-05-07T02:05:14Z</time>
				<extensions>
				</extensions>
			</trkpt>
			<trkpt lat="-28.217959" lon="153.046316">
				<ele>197</ele>
				<time>2015-05-07T02:05:15Z</time>
				<extensions>
				</extensions>
			</trkpt>
			<trkpt lat="-28.217682" lon="153.046084">
				<ele>195</ele>
				<time>2015-05-07T02:05:17Z</time>
				<extensions>
				</extensions>
			</trkpt>
			<trkpt lat="-28.217447" lon="153.045893">
				<ele>190</ele>
				<time>2015-05-07T02:05:19Z</time>
				<extensions>
				</extensions>
			</trkpt>
			<trkpt lat="-28.217249" lon="153.045737">
				<ele>188</ele>
				<time>2015-05-07T02:05:21Z</time>
				<extensions>
				</extensions>
			</trkpt>
			<trkpt lat="-28.217090" lon="153.045610">
				<ele>186</ele>
				<time>2015-05-07T02:05:23Z</time>
				<extensions>
				</extensions>
			</trkpt>
			<trkpt lat="-28.216907" lon="153.045452">
				<ele>183</ele>
				<time>2015-05-07T02:05:26Z</time>
				<extensions>
				</extensions>
			</trkpt>
			<trkpt lat="-28.216901" lon="153.045209">
				<ele>184</ele>
				<time>2015-05-07T02:05:30Z</time>
				<extensions>
				</extensions>
			</trkpt>
			<trkpt lat="-28.217022" lon="153.044913">
				<ele>188</ele>
				<time>2015-05-07T02:05:33Z</time>
				<extensions>
				</extensions>
			</trkpt>
			<trkpt lat="-28.217136" lon="153.044650">
				<ele>191</ele>
				<time>2015-05-07T02:05:35Z</time>
				<extensions>
				</extensions>
			</trkpt>
			<trkpt lat="-28.217261" lon="153.044348">
				<ele>193</ele>
				<time>2015-05-07T02:05:37Z</time>
				<extensions>
				</extensions>
			</trkpt>
			<trkpt lat="-28.217391" lon="153.044036">
				<ele>195</ele>
				<time>2015-05-07T02:05:39Z</time>
				<extensions>
				</extensions>
			</trkpt>
			<trkpt lat="-28.217530" lon="153.043714">
				<ele>198</ele>
				<time>2015-05-07T02:05:41Z</time>
				<extensions>
				</extensions>
			</trkpt>
			<trkpt lat="-28.217675" lon="153.043389">
				<ele>200</ele>
				<time>2015-05-07T02:05:43Z</time>
				<extensions>
				</extensions>
			</trkpt>
			<trkpt lat="-28.217822" lon="153.043052">
				<ele>201</ele>
				<time>2015-05-07T02:05:45Z</time>
				<extensions>
				</extensions>
			</trkpt>
			<trkpt lat="-28.217974" lon="153.042703">
				<ele>203</ele>
				<time>2015-05-07T02:05:47Z</time>
				<extensions>
				</extensions>
			</trkpt>
			<trkpt lat="-28.218124" lon="153.042347">
				<ele>207</ele>
				<time>2015-05-07T02:05:49Z</time>
				<extensions>
				</extensions>
			</trkpt>
			<trkpt lat="-28.218206" lon="153.042164">
				<ele>207</ele>
				<time>2015-05-07T02:05:50Z</time>
				<extensions>
				</extensions>
			</trkpt>
			<trkpt lat="-28.218363" lon="153.041808">
				<ele>211</ele>
				<time>2015-05-07T02:05:52Z</time>
				<extensions>
				</extensions>
			</trkpt>
			<trkpt lat="-28.218519" lon="153.041456">
				<ele>215</ele>
				<time>2015-05-07T02:05:54Z</time>
				<extensions>
				</extensions>
			</trkpt>
			<trkpt lat="-28.218609" lon="153.041277">
				<ele>218</ele>
				<time>2015-05-07T02:05:55Z</time>
				<extensions>
				</extensions>
			</trkpt>
			<trkpt lat="-28.218789" lon="153.040954">
				<ele>221</ele>
				<time>2015-05-07T02:05:57Z</time>
				<extensions>
				</extensions>
			</trkpt>
			<trkpt lat="-28.218897" lon="153.040790">
				<ele>224</ele>
				<time>2015-05-07T02:05:58Z</time>
				<extensions>
				</extensions>
			</trkpt>
			<trkpt lat="-28.219104" lon="153.040475">
				<ele>228</ele>
				<time>2015-05-07T02:06:00Z</time>
				<extensions>
				</extensions>
			</trkpt>
			<trkpt lat="-28.219216" lon="153.040311">
				<ele>229</ele>
				<time>2015-05-07T02:06:01Z</time>
				<extensions>
				</extensions>
			</trkpt>
			<trkpt lat="-28.219429" lon="153.039984">
				<ele>231</ele>
				<time>2015-05-07T02:06:03Z</time>
				<extensions>
				</extensions>
			</trkpt>
			<trkpt lat="-28.219630" lon="153.039673">
				<ele>235</ele>
				<time>2015-05-07T02:06:05Z</time>
				<extensions>
				</extensions>
			</trkpt>
			<trkpt lat="-28.219837" lon="153.039353">
				<ele>239</ele>
				<time>2015-05-07T02:06:07Z</time>
				<extensions>
				</extensions>
			</trkpt>
			<trkpt lat="-28.220049" lon="153.039033">
				<ele>243</ele>
				<time>2015-05-07T02:06:09Z</time>
				<extensions>
				</extensions>
			</trkpt>
			<trkpt lat="-28.220261" lon="153.038710">
				<ele>247</ele>
				<time>2015-05-07T02:06:11Z</time>
				<extensions>
				</extensions>
			</trkpt>
			<trkpt lat="-28.220459" lon="153.038418">
				<ele>248</ele>
				<time>2015-05-07T02:06:13Z</time>
				<extensions>
				</extensions>
			</trkpt>
			<trkpt lat="-28.220680" lon="153.038183">
				<ele>252</ele>
				<time>2015-05-07T02:06:15Z</time>
				<extensions>
				</extensions>
			</trkpt>
			<trkpt lat="-28.220891" lon="153.037991">
				<ele>256</ele>
				<time>2015-05-07T02:06:17Z</time>
				<extensions>
				</extensions>
			</trkpt>
			<trkpt lat="-28.221040" lon="153.037743">
				<ele>260</ele>
				<time>2015-05-07T02:06:19Z</time>
				<extensions>
				</extensions>
			</trkpt>
			<trkpt lat="-28.221105" lon="153.037485">
				<ele>264</ele>
				<time>2015-05-07T02:06:21Z</time>
				<extensions>
				</extensions>
			</trkpt>
			<trkpt lat="-28.221114" lon="153.037222">
				<ele>268</ele>
				<time>2015-05-07T02:06:23Z</time>
				<extensions>
				</extensions>
			</trkpt>
			<trkpt lat="-28.221108" lon="153.036975">
				<ele>271</ele>
				<time>2015-05-07T02:06:25Z</time>
				<extensions>
				</extensions>
			</trkpt>
			<trkpt lat="-28.221169" lon="153.036759">
				<ele>271</ele>
				<time>2015-05-07T02:06:27Z</time>
				<extensions>
				</extensions>
			</trkpt>
			<trkpt lat="-28.221303" lon="153.036609">
				<ele>271</ele>
				<time>2015-05-07T02:06:29Z</time>
				<extensions>
				</extensions>
			</trkpt>
			<trkpt lat="-28.221457" lon="153.036489">
				<ele>266</ele>
				<time>2015-05-07T02:06:31Z</time>
				<extensions>
				</extensions>
			</trkpt>
			<trkpt lat="-28.221666" lon="153.036302">
				<ele>263</ele>
				<time>2015-05-07T02:06:34Z</time>
				<extensions>
				</extensions>
			</trkpt>
			<trkpt lat="-28.221785" lon="153.036136">
				<ele>261</ele>
				<time>2015-05-07T02:06:36Z</time>
				<extensions>
				</extensions>
			</trkpt>
			<trkpt lat="-28.221919" lon="153.035926">
				<ele>257</ele>
				<time>2015-05-07T02:06:39Z</time>
				<extensions>
				</extensions>
			</trkpt>
			<trkpt lat="-28.222039" lon="153.035725">
				<ele>254</ele>
				<time>2015-05-07T02:06:42Z</time>
				<extensions>
				</extensions>
			</trkpt>
			<trkpt lat="-28.222174" lon="153.035559">
				<ele>252</ele>
				<time>2015-05-07T02:06:44Z</time>
				<extensions>
				</extensions>
			</trkpt>
			<trkpt lat="-28.222368" lon="153.035382">
				<ele>247</ele>
				<time>2015-05-07T02:06:47Z</time>
				<extensions>
				</extensions>
			</trkpt>
			<trkpt lat="-28.222567" lon="153.035199">
				<ele>243</ele>
				<time>2015-05-07T02:06:50Z</time>
				<extensions>
				</extensions>
			</trkpt>
			<trkpt lat="-28.222735" lon="153.035112">
				<ele>239</ele>
				<time>2015-05-07T02:06:52Z</time>
				<extensions>
				</extensions>
			</trkpt>
			<trkpt lat="-28.222987" lon="153.035038">
				<ele>234</ele>
				<time>2015-05-07T02:06:55Z</time>
				<extensions>
				</extensions>
			</trkpt>
			<trkpt lat="-28.223229" lon="153.034967">
				<ele>228</ele>
				<time>2015-05-07T02:06:58Z</time>
				<extensions>
				</extensions>
			</trkpt>
			<trkpt lat="-28.223439" lon="153.034898">
				<ele>224</ele>
				<time>2015-05-07T02:07:01Z</time>
				<extensions>
				</extensions>
			</trkpt>
			<trkpt lat="-28.223643" lon="153.034821">
				<ele>220</ele>
				<time>2015-05-07T02:07:04Z</time>
				<extensions>
				</extensions>
			</trkpt>
			<trkpt lat="-28.223856" lon="153.034736">
				<ele>214</ele>
				<time>2015-05-07T02:07:07Z</time>
				<extensions>
				</extensions>
			</trkpt>
			<trkpt lat="-28.224046" lon="153.034656">
				<ele>211</ele>
				<time>2015-05-07T02:07:10Z</time>
				<extensions>
				</extensions>
			</trkpt>
			<trkpt lat="-28.224249" lon="153.034577">
				<ele>208</ele>
				<time>2015-05-07T02:07:13Z</time>
				<extensions>
				</extensions>
			</trkpt>
			<trkpt lat="-28.224486" lon="153.034446">
				<ele>204</ele>
				<time>2015-05-07T02:07:16Z</time>
				<extensions>
				</extensions>
			</trkpt>
			<trkpt lat="-28.224686" lon="153.034330">
				<ele>199</ele>
				<time>2015-05-07T02:07:19Z</time>
				<extensions>
				</extensions>
			</trkpt>
			<trkpt lat="-28.224887" lon="153.034200">
				<ele>196</ele>
				<time>2015-05-07T02:07:22Z</time>
				<extensions>
				</extensions>
			</trkpt>
			<trkpt lat="-28.225059" lon="153.034010">
				<ele>194</ele>
				<time>2015-05-07T02:07:25Z</time>
				<extensions>
				</extensions>
			</trkpt>
			<trkpt lat="-28.225190" lon="153.033785">
				<ele>189</ele>
				<time>2015-05-07T02:07:28Z</time>
				<extensions>
				</extensions>
			</trkpt>
			<trkpt lat="-28.225319" lon="153.033598">
				<ele>184</ele>
				<time>2015-05-07T02:07:31Z</time>
				<extensions>
				</extensions>
			</trkpt>
			<trkpt lat="-28.225428" lon="153.033428">
				<ele>180</ele>
				<time>2015-05-07T02:07:34Z</time>
				<extensions>
				</extensions>
			</trkpt>
			<trkpt lat="-28.225505" lon="153.033227">
				<ele>177</ele>
				<time>2015-05-07T02:07:37Z</time>
				<extensions>
				</extensions>
			</trkpt>
			<trkpt lat="-28.225415" lon="153.033033">
				<ele>174</ele>
				<time>2015-05-07T02:07:40Z</time>
				<extensions>
				</extensions>
			</trkpt>
			<trkpt lat="-28.225238" lon="153.032845">
				<ele>169</ele>
				<time>2015-05-07T02:07:43Z</time>
				<extensions>
				</extensions>
			</trkpt>
			<trkpt lat="-28.225073" lon="153.032727">
				<ele>167</ele>
				<time>2015-05-07T02:07:45Z</time>
				<extensions>
				</extensions>
			</trkpt>
			<trkpt lat="-28.224894" lon="153.032640">
				<ele>164</ele>
				<time>2015-05-07T02:07:47Z</time>
				<extensions>
				</extensions>
			</trkpt>
			<trkpt lat="-28.224710" lon="153.032569">
				<ele>161</ele>
				<time>2015-05-07T02:07:49Z</time>
				<extensions>
				</extensions>
			</trkpt>
			<trkpt lat="-28.224531" lon="153.032501">
				<ele>158</ele>
				<time>2015-05-07T02:07:51Z</time>
				<extensions>
				</extensions>
			</trkpt>
			<trkpt lat="-28.224290" lon="153.032407">
				<ele>154</ele>
				<time>2015-05-07T02:07:54Z</time>
				<extensions>
				</extensions>
			</trkpt>
			<trkpt lat="-28.224127" lon="153.032257">
				<ele>153</ele>
				<time>2015-05-07T02:07:57Z</time>
				<extensions>
				</extensions>
			</trkpt>
			<trkpt lat="-28.224123" lon="153.032042">
				<ele>154</ele>
				<time>2015-05-07T02:07:59Z</time>
				<extensions>
				</extensions>
			</trkpt>
			<trkpt lat="-28.224165" lon="153.031817">
				<ele>153</ele>
				<time>2015-05-07T02:08:01Z</time>
				<extensions>
				</extensions>
			</trkpt>
			<trkpt lat="-28.224219" lon="153.031539">
				<ele>154</ele>
				<time>2015-05-07T02:08:03Z</time>
				<extensions>
				</extensions>
			</trkpt>
			<trkpt lat="-28.224270" lon="153.031245">
				<ele>152</ele>
				<time>2015-05-07T02:08:05Z</time>
				<extensions>
				</extensions>
			</trkpt>
			<trkpt lat="-28.224331" lon="153.030921">
				<ele>151</ele>
				<time>2015-05-07T02:08:07Z</time>
				<extensions>
				</extensions>
			</trkpt>
			<trkpt lat="-28.224383" lon="153.030617">
				<ele>149</ele>
				<time>2015-05-07T02:08:09Z</time>
				<extensions>
				</extensions>
			</trkpt>
			<trkpt lat="-28.224439" lon="153.030292">
				<ele>148</ele>
				<time>2015-05-07T02:08:11Z</time>
				<extensions>
				</extensions>
			</trkpt>
			<trkpt lat="-28.224494" lon="153.029962">
				<ele>146</ele>
				<time>2015-05-07T02:08:13Z</time>
				<extensions>
				</extensions>
			</trkpt>
			<trkpt lat="-28.224556" lon="153.029646">
				<ele>143</ele>
				<time>2015-05-07T02:08:15Z</time>
				<extensions>
				</extensions>
			</trkpt>
			<trkpt lat="-28.224625" lon="153.029358">
				<ele>141</ele>
				<time>2015-05-07T02:08:17Z</time>
				<extensions>
				</extensions>
			</trkpt>
			<trkpt lat="-28.224693" lon="153.029053">
				<ele>141</ele>
				<time>2015-05-07T02:08:19Z</time>
				<extensions>
				</extensions>
			</trkpt>
			<trkpt lat="-28.224776" lon="153.028713">
				<ele>141</ele>
				<time>2015-05-07T02:08:21Z</time>
				<extensions>
				</extensions>
			</trkpt>
			<trkpt lat="-28.224857" lon="153.028370">
				<ele>142</ele>
				<time>2015-05-07T02:08:23Z</time>
				<extensions>
				</extensions>
			</trkpt>
			<trkpt lat="-28.224926" lon="153.028030">
				<ele>141</ele>
				<time>2015-05-07T02:08:25Z</time>
				<extensions>
				</extensions>
			</trkpt>
			<trkpt lat="-28.225004" lon="153.027717">
				<ele>143</ele>
				<time>2015-05-07T02:08:27Z</time>
				<extensions>
				</extensions>
			</trkpt>
			<trkpt lat="-28.225071" lon="153.027466">
				<ele>144</ele>
				<time>2015-05-07T02:08:29Z</time>
				<extensions>
				</extensions>
			</trkpt>
			<trkpt lat="-28.225128" lon="153.027189">
				<ele>143</ele>
				<time>2015-05-07T02:08:32Z</time>
				<extensions>
				</extensions>
			</trkpt>
			<trkpt lat="-28.225152" lon="153.026932">
				<ele>144</ele>
				<time>2015-05-07T02:08:35Z</time>
				<extensions>
				</extensions>
			</trkpt>
			<trkpt lat="-28.225045" lon="153.026748">
				<ele>145</ele>
				<time>2015-05-07T02:08:37Z</time>
				<extensions>
				</extensions>
			</trkpt>
			<trkpt lat="-28.224890" lon="153.026536">
				<ele>147</ele>
				<time>2015-05-07T02:08:39Z</time>
				<extensions>
				</extensions>
			</trkpt>
			<trkpt lat="-28.224699" lon="153.026293">
				<ele>149</ele>
				<time>2015-05-07T02:08:41Z</time>
				<extensions>
				</extensions>
			</trkpt>
			<trkpt lat="-28.224502" lon="153.026011">
				<ele>150</ele>
				<time>2015-05-07T02:08:43Z</time>
				<extensions>
				</extensions>
			</trkpt>
			<trkpt lat="-28.224331" lon="153.025711">
				<ele>150</ele>
				<time>2015-05-07T02:08:45Z</time>
				<extensions>
				</extensions>
			</trkpt>
			<trkpt lat="-28.224165" lon="153.025375">
				<ele>150</ele>
				<time>2015-05-07T02:08:47Z</time>
				<extensions>
				</extensions>
			</trkpt>
			<trkpt lat="-28.224008" lon="153.025029">
				<ele>148</ele>
				<time>2015-05-07T02:08:49Z</time>
				<extensions>
				</extensions>
			</trkpt>
			<trkpt lat="-28.223845" lon="153.024655">
				<ele>148</ele>
				<time>2015-05-07T02:08:51Z</time>
				<extensions>
				</extensions>
			</trkpt>
			<trkpt lat="-28.223764" lon="153.024471">
				<ele>147</ele>
				<time>2015-05-07T02:08:52Z</time>
				<extensions>
				</extensions>
			</trkpt>
			<trkpt lat="-28.223681" lon="153.024284">
				<ele>145</ele>
				<time>2015-05-07T02:08:53Z</time>
				<extensions>
				</extensions>
			</trkpt>
			<trkpt lat="-28.223594" lon="153.024088">
				<ele>146</ele>
				<time>2015-05-07T02:08:54Z</time>
				<extensions>
				</extensions>
			</trkpt>
			<trkpt lat="-28.223512" lon="153.023896">
				<ele>144</ele>
				<time>2015-05-07T02:08:55Z</time>
				<extensions>
				</extensions>
			</trkpt>
			<trkpt lat="-28.223428" lon="153.023699">
				<ele>145</ele>
				<time>2015-05-07T02:08:56Z</time>
				<extensions>
				</extensions>
			</trkpt>
			<trkpt lat="-28.223340" lon="153.023495">
				<ele>147</ele>
				<time>2015-05-07T02:08:57Z</time>
				<extensions>
				</extensions>
			</trkpt>
			<trkpt lat="-28.223251" lon="153.023293">
				<ele>148</ele>
				<time>2015-05-07T02:08:58Z</time>
				<extensions>
				</extensions>
			</trkpt>
			<trkpt lat="-28.223167" lon="153.023094">
				<ele>147</ele>
				<time>2015-05-07T02:08:59Z</time>
				<extensions>
				</extensions>
			</trkpt>
			<trkpt lat="-28.223084" lon="153.022909">
				<ele>145</ele>
				<time>2015-05-07T02:09:00Z</time>
				<extensions>
				</extensions>
			</trkpt>
			<trkpt lat="-28.223004" lon="153.022721">
				<ele>143</ele>
				<time>2015-05-07T02:09:01Z</time>
				<extensions>
				</extensions>
			</trkpt>
			<trkpt lat="-28.222920" lon="153.022530">
				<ele>143</ele>
				<time>2015-05-07T02:09:02Z</time>
				<extensions>
				</extensions>
			</trkpt>
			<trkpt lat="-28.222830" lon="153.022343">
				<ele>142</ele>
				<time>2015-05-07T02:09:03Z</time>
				<extensions>
				</extensions>
			</trkpt>
			<trkpt lat="-28.222721" lon="153.022159">
				<ele>141</ele>
				<time>2015-05-07T02:09:04Z</time>
				<extensions>
				</extensions>
			</trkpt>
			<trkpt lat="-28.222605" lon="153.021980">
				<ele>141</ele>
				<time>2015-05-07T02:09:05Z</time>
				<extensions>
				</extensions>
			</trkpt>
			<trkpt lat="-28.222487" lon="153.021800">
				<ele>143</ele>
				<time>2015-05-07T02:09:06Z</time>
				<extensions>
				</extensions>
			</trkpt>
			<trkpt lat="-28.222358" lon="153.021603">
				<ele>143</ele>
				<time>2015-05-07T02:09:07Z</time>
				<extensions>
				</extensions>
			</trkpt>
			<trkpt lat="-28.222229" lon="153.021406">
				<ele>143</ele>
				<time>2015-05-07T02:09:08Z</time>
				<extensions>
				</extensions>
			</trkpt>
			<trkpt lat="-28.222101" lon="153.021210">
				<ele>143</ele>
				<time>2015-05-07T02:09:09Z</time>
				<extensions>
				</extensions>
			</trkpt>
			<trkpt lat="-28.221966" lon="153.021008">
				<ele>142</ele>
				<time>2015-05-07T02:09:10Z</time>
				<extensions>
				</extensions>
			</trkpt>
			<trkpt lat="-28.221825" lon="153.020807">
				<ele>141</ele>
				<time>2015-05-07T02:09:11Z</time>
				<extensions>
				</extensions>
			</trkpt>
			<trkpt lat="-28.221689" lon="153.020606">
				<ele>142</ele>
				<time>2015-05-07T02:09:12Z</time>
				<extensions>
				</extensions>
			</trkpt>
			<trkpt lat="-28.221564" lon="153.020412">
				<ele>140</ele>
				<time>2015-05-07T02:09:13Z</time>
				<extensions>
				</extensions>
			</trkpt>
			<trkpt lat="-28.221434" lon="153.020218">
				<ele>143</ele>
				<time>2015-05-07T02:09:14Z</time>
				<extensions>
				</extensions>
			</trkpt>
			<trkpt lat="-28.221302" lon="153.020023">
				<ele>140</ele>
				<time>2015-05-07T02:09:15Z</time>
				<extensions>
				</extensions>
			</trkpt>
			<trkpt lat="-28.221179" lon="153.019837">
				<ele>141</ele>
				<time>2015-05-07T02:09:16Z</time>
				<extensions>
				</extensions>
			</trkpt>
			<trkpt lat="-28.221057" lon="153.019648">
				<ele>140</ele>
				<time>2015-05-07T02:09:17Z</time>
				<extensions>
				</extensions>
			</trkpt>
			<trkpt lat="-28.220931" lon="153.019454">
				<ele>140</ele>
				<time>2015-05-07T02:09:18Z</time>
				<extensions>
				</extensions>
			</trkpt>
			<trkpt lat="-28.220808" lon="153.019271">
				<ele>139</ele>
				<time>2015-05-07T02:09:19Z</time>
				<extensions>
				</extensions>
			</trkpt>
			<trkpt lat="-28.220691" lon="153.019081">
				<ele>140</ele>
				<time>2015-05-07T02:09:20Z</time>
				<extensions>
				</extensions>
			</trkpt>
			<trkpt lat="-28.220571" lon="153.018889">
				<ele>139</ele>
				<time>2015-05-07T02:09:21Z</time>
				<extensions>
				</extensions>
			</trkpt>
			<trkpt lat="-28.220449" lon="153.018698">
				<ele>140</ele>
				<time>2015-05-07T02:09:22Z</time>
				<extensions>
				</extensions>
			</trkpt>
			<trkpt lat="-28.220325" lon="153.018500">
				<ele>140</ele>
				<time>2015-05-07T02:09:23Z</time>
				<extensions>
				</extensions>
			</trkpt>
			<trkpt lat="-28.220199" lon="153.018311">
				<ele>140</ele>
				<time>2015-05-07T02:09:24Z</time>
				<extensions>
				</extensions>
			</trkpt>
			<trkpt lat="-28.220061" lon="153.018128">
				<ele>139</ele>
				<time>2015-05-07T02:09:25Z</time>
				<extensions>
				</extensions>
			</trkpt>
			<trkpt lat="-28.219933" lon="153.017927">
				<ele>138</ele>
				<time>2015-05-07T02:09:26Z</time>
				<extensions>
				</extensions>
			</trkpt>
			<trkpt lat="-28.219806" lon="153.017745">
				<ele>135</ele>
				<time>2015-05-07T02:09:27Z</time>
				<extensions>
				</extensions>
			</trkpt>
			<trkpt lat="-28.219687" lon="153.017563">
				<ele>134</ele>
				<time>2015-05-07T02:09:28Z</time>
				<extensions>
				</extensions>
			</trkpt>
			<trkpt lat="-28.219565" lon="153.017380">
				<ele>135</ele>
				<time>2015-05-07T02:09:29Z</time>
				<extensions>
				</extensions>
			</trkpt>
			<trkpt lat="-28.219447" lon="153.017199">
				<ele>134</ele>
				<time>2015-05-07T02:09:30Z</time>
				<extensions>
				</extensions>
			</trkpt>
			<trkpt lat="-28.219317" lon="153.017006">
				<ele>135</ele>
				<time>2015-05-07T02:09:31Z</time>
				<extensions>
				</extensions>
			</trkpt>
			<trkpt lat="-28.219192" lon="153.016821">
				<ele>134</ele>
				<time>2015-05-07T02:09:32Z</time>
				<extensions>
				</extensions>
			</trkpt>
			<trkpt lat="-28.219069" lon="153.016635">
				<ele>132</ele>
				<time>2015-05-07T02:09:33Z</time>
				<extensions>
				</extensions>
			</trkpt>
			<trkpt lat="-28.218943" lon="153.016447">
				<ele>132</ele>
				<time>2015-05-07T02:09:34Z</time>
				<extensions>
				</extensions>
			</trkpt>
			<trkpt lat="-28.218825" lon="153.016270">
				<ele>132</ele>
				<time>2015-05-07T02:09:35Z</time>
				<extensions>
				</extensions>
			</trkpt>
			<trkpt lat="-28.218701" lon="153.016083">
				<ele>132</ele>
				<time>2015-05-07T02:09:36Z</time>
				<extensions>
				</extensions>
			</trkpt>
			<trkpt lat="-28.218587" lon="153.015903">
				<ele>131</ele>
				<time>2015-05-07T02:09:37Z</time>
				<extensions>
				</extensions>
			</trkpt>
			<trkpt lat="-28.218466" lon="153.015724">
				<ele>129</ele>
				<time>2015-05-07T02:09:38Z</time>
				<extensions>
				</extensions>
			</trkpt>
			<trkpt lat="-28.218346" lon="153.015537">
				<ele>127</ele>
				<time>2015-05-07T02:09:39Z</time>
				<extensions>
				</extensions>
			</trkpt>
			<trkpt lat="-28.218239" lon="153.015369">
				<ele>125</ele>
				<time>2015-05-07T02:09:40Z</time>
				<extensions>
				</extensions>
			</trkpt>
			<trkpt lat="-28.218125" lon="153.015198">
				<ele>125</ele>
				<time>2015-05-07T02:09:41Z</time>
				<extensions>
				</extensions>
			</trkpt>
			<trkpt lat="-28.218015" lon="153.015027">
				<ele>125</ele>
				<time>2015-05-07T02:09:42Z</time>
				<extensions>
				</extensions>
			</trkpt>
			<trkpt lat="-28.217809" lon="153.014709">
				<ele>124</ele>
				<time>2015-05-07T02:09:44Z</time>
				<extensions>
				</extensions>
			</trkpt>
			<trkpt lat="-28.217618" lon="153.014404">
				<ele>122</ele>
				<time>2015-05-07T02:09:46Z</time>
				<extensions>
				</extensions>
			</trkpt>
			<trkpt lat="-28.217423" lon="153.014099">
				<ele>125</ele>
				<time>2015-05-07T02:09:48Z</time>
				<extensions>
				</extensions>
			</trkpt>
			<trkpt lat="-28.217229" lon="153.013802">
				<ele>123</ele>
				<time>2015-05-07T02:09:50Z</time>
				<extensions>
				</extensions>
			</trkpt>
			<trkpt lat="-28.217051" lon="153.013495">
				<ele>122</ele>
				<time>2015-05-07T02:09:52Z</time>
				<extensions>
				</extensions>
			</trkpt>
			<trkpt lat="-28.216886" lon="153.013171">
				<ele>121</ele>
				<time>2015-05-07T02:09:54Z</time>
				<extensions>
				</extensions>
			</trkpt>
			<trkpt lat="-28.216758" lon="153.012823">
				<ele>121</ele>
				<time>2015-05-07T02:09:56Z</time>
				<extensions>
				</extensions>
			</trkpt>
			<trkpt lat="-28.216668" lon="153.012470">
				<ele>122</ele>
				<time>2015-05-07T02:09:58Z</time>
				<extensions>
				</extensions>
			</trkpt>
			<trkpt lat="-28.216590" lon="153.012089">
				<ele>121</ele>
				<time>2015-05-07T02:10:00Z</time>
				<extensions>
				</extensions>
			</trkpt>
			<trkpt lat="-28.216531" lon="153.011682">
				<ele>124</ele>
				<time>2015-05-07T02:10:02Z</time>
				<extensions>
				</extensions>
			</trkpt>
			<trkpt lat="-28.216493" lon="153.011462">
				<ele>126</ele>
				<time>2015-05-07T02:10:03Z</time>
				<extensions>
				</extensions>
			</trkpt>
			<trkpt lat="-28.216461" lon="153.011250">
				<ele>123</ele>
				<time>2015-05-07T02:10:04Z</time>
				<extensions>
				</extensions>
			</trkpt>
			<trkpt lat="-28.216431" lon="153.011042">
				<ele>123</ele>
				<time>2015-05-07T02:10:05Z</time>
				<extensions>
				</extensions>
			</trkpt>
			<trkpt lat="-28.216400" lon="153.010815">
				<ele>122</ele>
				<time>2015-05-07T02:10:06Z</time>
				<extensions>
				</extensions>
			</trkpt>
			<trkpt lat="-28.216368" lon="153.010593">
				<ele>123</ele>
				<time>2015-05-07T02:10:07Z</time>
				<extensions>
				</extensions>
			</trkpt>
			<trkpt lat="-28.216337" lon="153.010367">
				<ele>124</ele>
				<time>2015-05-07T02:10:08Z</time>
				<extensions>
				</extensions>
			</trkpt>
			<trkpt lat="-28.216303" lon="153.010137">
				<ele>124</ele>
				<time>2015-05-07T02:10:09Z</time>
				<extensions>
				</extensions>
			</trkpt>
			<trkpt lat="-28.216260" lon="153.009898">
				<ele>123</ele>
				<time>2015-05-07T02:10:10Z</time>
				<extensions>
				</extensions>
			</trkpt>
			<trkpt lat="-28.216231" lon="153.009658">
				<ele>124</ele>
				<time>2015-05-07T02:10:11Z</time>
				<extensions>
				</extensions>
			</trkpt>
			<trkpt lat="-28.216200" lon="153.009434">
				<ele>124</ele>
				<time>2015-05-07T02:10:12Z</time>
				<extensions>
				</extensions>
			</trkpt>
			<trkpt lat="-28.216167" lon="153.009215">
				<ele>122</ele>
				<time>2015-05-07T02:10:13Z</time>
				<extensions>
				</extensions>
			</trkpt>
			<trkpt lat="-28.216136" lon="153.008990">
				<ele>121</ele>
				<time>2015-05-07T02:10:14Z</time>
				<extensions>
				</extensions>
			</trkpt>
			<trkpt lat="-28.216067" lon="153.008593">
				<ele>119</ele>
				<time>2015-05-07T02:10:16Z</time>
				<extensions>
				</extensions>
			</trkpt>
			<trkpt lat="-28.215962" lon="153.008233">
				<ele>118</ele>
				<time>2015-05-07T02:10:18Z</time>
				<extensions>
				</extensions>
			</trkpt>
			<trkpt lat="-28.215770" lon="153.007916">
				<ele>117</ele>
				<time>2015-05-07T02:10:20Z</time>
				<extensions>
				</extensions>
			</trkpt>
			<trkpt lat="-28.215489" lon="153.007666">
				<ele>117</ele>
				<time>2015-05-07T02:10:22Z</time>
				<extensions>
				</extensions>
			</trkpt>
			<trkpt lat="-28.215209" lon="153.007452">
				<ele>117</ele>
				<time>2015-05-07T02:10:24Z</time>
				<extensions>
				</extensions>
			</trkpt>
			<trkpt lat="-28.214976" lon="153.007168">
				<ele>117</ele>
				<time>2015-05-07T02:10:26Z</time>
				<extensions>
				</extensions>
			</trkpt>
			<trkpt lat="-28.214828" lon="153.006802">
				<ele>116</ele>
				<time>2015-05-07T02:10:28Z</time>
				<extensions>
				</extensions>
			</trkpt>
			<trkpt lat="-28.214734" lon="153.006417">
				<ele>116</ele>
				<time>2015-05-07T02:10:30Z</time>
				<extensions>
				</extensions>
			</trkpt>
			<trkpt lat="-28.214649" lon="153.006082">
				<ele>114</ele>
				<time>2015-05-07T02:10:32Z</time>
				<extensions>
				</extensions>
			</trkpt>
			<trkpt lat="-28.214548" lon="153.005833">
				<ele>110</ele>
				<time>2015-05-07T02:10:34Z</time>
				<extensions>
				</extensions>
			</trkpt>
			<trkpt lat="-28.214449" lon="153.005652">
				<ele>108</ele>
				<time>2015-05-07T02:10:36Z</time>
				<extensions>
				</extensions>
			</trkpt>
			<trkpt lat="-28.214345" lon="153.005470">
				<ele>107</ele>
				<time>2015-05-07T02:10:39Z</time>
				<extensions>
				</extensions>
			</trkpt>
			<trkpt lat="-28.214210" lon="153.005330">
				<ele>106</ele>
				<time>2015-05-07T02:10:42Z</time>
				<extensions>
				</extensions>
			</trkpt>
			<trkpt lat="-28.213938" lon="153.005302">
				<ele>107</ele>
				<time>2015-05-07T02:10:45Z</time>
				<extensions>
				</extensions>
			</trkpt>
			<trkpt lat="-28.213694" lon="153.005273">
				<ele>109</ele>
				<time>2015-05-07T02:10:47Z</time>
				<extensions>
				</extensions>
			</trkpt>
			<trkpt lat="-28.213451" lon="153.005145">
				<ele>111</ele>
				<time>2015-05-07T02:10:49Z</time>
				<extensions>
				</extensions>
			</trkpt>
			<trkpt lat="-28.213209" lon="153.004921">
				<ele>114</ele>
				<time>2015-05-07T02:10:51Z</time>
				<extensions>
				</extensions>
			</trkpt>
			<trkpt lat="-28.212937" lon="153.004682">
				<ele>114</ele>
				<time>2015-05-07T02:10:53Z</time>
				<extensions>
				</extensions>
			</trkpt>
			<trkpt lat="-28.212632" lon="153.004517">
				<ele>113</ele>
				<time>2015-05-07T02:10:55Z</time>
				<extensions>
				</extensions>
			</trkpt>
			<trkpt lat="-28.212287" lon="153.004445">
				<ele>113</ele>
				<time>2015-05-07T02:10:57Z</time>
				<extensions>
				</extensions>
			</trkpt>
			<trkpt lat="-28.212099" lon="153.004439">
				<ele>113</ele>
				<time>2015-05-07T02:10:58Z</time>
				<extensions>
				</extensions>
			</trkpt>
			<trkpt lat="-28.211903" lon="153.004441">
				<ele>113</ele>
				<time>2015-05-07T02:10:59Z</time>
				<extensions>
				</extensions>
			</trkpt>
			<trkpt lat="-28.211714" lon="153.004449">
				<ele>114</ele>
				<time>2015-05-07T02:11:00Z</time>
				<extensions>
				</extensions>
			</trkpt>
			<trkpt lat="-28.211515" lon="153.004454">
				<ele>115</ele>
				<time>2015-05-07T02:11:01Z</time>
				<extensions>
				</extensions>
			</trkpt>
			<trkpt lat="-28.211302" lon="153.004461">
				<ele>117</ele>
				<time>2015-05-07T02:11:02Z</time>
				<extensions>
				</extensions>
			</trkpt>
			<trkpt lat="-28.211105" lon="153.004465">
				<ele>119</ele>
				<time>2015-05-07T02:11:03Z</time>
				<extensions>
				</extensions>
			</trkpt>
			<trkpt lat="-28.210903" lon="153.004462">
				<ele>117</ele>
				<time>2015-05-07T02:11:04Z</time>
				<extensions>
				</extensions>
			</trkpt>
			<trkpt lat="-28.210702" lon="153.004449">
				<ele>115</ele>
				<time>2015-05-07T02:11:05Z</time>
				<extensions>
				</extensions>
			</trkpt>
			<trkpt lat="-28.210500" lon="153.004421">
				<ele>115</ele>
				<time>2015-05-07T02:11:06Z</time>
				<extensions>
				</extensions>
			</trkpt>
			<trkpt lat="-28.210300" lon="153.004385">
				<ele>116</ele>
				<time>2015-05-07T02:11:07Z</time>
				<extensions>
				</extensions>
			</trkpt>
			<trkpt lat="-28.210095" lon="153.004340">
				<ele>116</ele>
				<time>2015-05-07T02:11:08Z</time>
				<extensions>
				</extensions>
			</trkpt>
			<trkpt lat="-28.209892" lon="153.004296">
				<ele>119</ele>
				<time>2015-05-07T02:11:09Z</time>
				<extensions>
				</extensions>
			</trkpt>
			<trkpt lat="-28.209691" lon="153.004261">
				<ele>116</ele>
				<time>2015-05-07T02:11:10Z</time>
				<extensions>
				</extensions>
			</trkpt>
			<trkpt lat="-28.209490" lon="153.004238">
				<ele>115</ele>
				<time>2015-05-07T02:11:11Z</time>
				<extensions>
				</extensions>
			</trkpt>
			<trkpt lat="-28.209293" lon="153.004233">
				<ele>113</ele>
				<time>2015-05-07T02:11:12Z</time>
				<extensions>
				</extensions>
			</trkpt>
			<trkpt lat="-28.209087" lon="153.004232">
				<ele>113</ele>
				<time>2015-05-07T02:11:13Z</time>
				<extensions>
				</extensions>
			</trkpt>
			<trkpt lat="-28.208886" lon="153.004235">
				<ele>114</ele>
				<time>2015-05-07T02:11:14Z</time>
				<extensions>
				</extensions>
			</trkpt>
			<trkpt lat="-28.208682" lon="153.004237">
				<ele>115</ele>
				<time>2015-05-07T02:11:15Z</time>
				<extensions>
				</extensions>
			</trkpt>
			<trkpt lat="-28.208493" lon="153.004228">
				<ele>114</ele>
				<time>2015-05-07T02:11:16Z</time>
				<extensions>
				</extensions>
			</trkpt>
			<trkpt lat="-28.208299" lon="153.004200">
				<ele>112</ele>
				<time>2015-05-07T02:11:17Z</time>
				<extensions>
				</extensions>
			</trkpt>
			<trkpt lat="-28.208099" lon="153.004149">
				<ele>112</ele>
				<time>2015-05-07T02:11:18Z</time>
				<extensions>
				</extensions>
			</trkpt>
			<trkpt lat="-28.207904" lon="153.004087">
				<ele>112</ele>
				<time>2015-05-07T02:11:19Z</time>
				<extensions>
				</extensions>
			</trkpt>
			<trkpt lat="-28.207706" lon="153.004024">
				<ele>113</ele>
				<time>2015-05-07T02:11:20Z</time>
				<extensions>
				</extensions>
			</trkpt>
			<trkpt lat="-28.207524" lon="153.003975">
				<ele>112</ele>
				<time>2015-05-07T02:11:21Z</time>
				<extensions>
				</extensions>
			</trkpt>
			<trkpt lat="-28.207332" lon="153.003931">
				<ele>110</ele>
				<time>2015-05-07T02:11:22Z</time>
				<extensions>
				</extensions>
			</trkpt>
			<trkpt lat="-28.207142" lon="153.003904">
				<ele>109</ele>
				<time>2015-05-07T02:11:23Z</time>
				<extensions>
				</extensions>
			</trkpt>
			<trkpt lat="-28.206954" lon="153.003915">
				<ele>112</ele>
				<time>2015-05-07T02:11:24Z</time>
				<extensions>
				</extensions>
			</trkpt>
			<trkpt lat="-28.206762" lon="153.003951">
				<ele>112</ele>
				<time>2015-05-07T02:11:25Z</time>
				<extensions>
				</extensions>
			</trkpt>
			<trkpt lat="-28.206568" lon="153.004005">
				<ele>112</ele>
				<time>2015-05-07T02:11:26Z</time>
				<extensions>
				</extensions>
			</trkpt>
			<trkpt lat="-28.206370" lon="153.004065">
				<ele>112</ele>
				<time>2015-05-07T02:11:27Z</time>
				<extensions>
				</extensions>
			</trkpt>
			<trkpt lat="-28.206175" lon="153.004125">
				<ele>112</ele>
				<time>2015-05-07T02:11:28Z</time>
				<extensions>
				</extensions>
			</trkpt>
			<trkpt lat="-28.205979" lon="153.004182">
				<ele>112</ele>
				<time>2015-05-07T02:11:29Z</time>
				<extensions>
				</extensions>
			</trkpt>
			<trkpt lat="-28.205790" lon="153.004238">
				<ele>111</ele>
				<time>2015-05-07T02:11:30Z</time>
				<extensions>
				</extensions>
			</trkpt>
			<trkpt lat="-28.205591" lon="153.004297">
				<ele>111</ele>
				<time>2015-05-07T02:11:31Z</time>
				<extensions>
				</extensions>
			</trkpt>
			<trkpt lat="-28.205396" lon="153.004357">
				<ele>112</ele>
				<time>2015-05-07T02:11:32Z</time>
				<extensions>
				</extensions>
			</trkpt>
			<trkpt lat="-28.205202" lon="153.004417">
				<ele>111</ele>
				<time>2015-05-07T02:11:33Z</time>
				<extensions>
				</extensions>
			</trkpt>
			<trkpt lat="-28.205007" lon="153.004475">
				<ele>112</ele>
				<time>2015-05-07T02:11:34Z</time>
				<extensions>
				</extensions>
			</trkpt>
			<trkpt lat="-28.204811" lon="153.004535">
				<ele>112</ele>
				<time>2015-05-07T02:11:35Z</time>
				<extensions>
				</extensions>
			</trkpt>
			<trkpt lat="-28.204617" lon="153.004593">
				<ele>112</ele>
				<time>2015-05-07T02:11:36Z</time>
				<extensions>
				</extensions>
			</trkpt>
			<trkpt lat="-28.204419" lon="153.004650">
				<ele>111</ele>
				<time>2015-05-07T02:11:37Z</time>
				<extensions>
				</extensions>
			</trkpt>
			<trkpt lat="-28.204226" lon="153.004707">
				<ele>112</ele>
				<time>2015-05-07T02:11:38Z</time>
				<extensions>
				</extensions>
			</trkpt>
			<trkpt lat="-28.204017" lon="153.004768">
				<ele>112</ele>
				<time>2015-05-07T02:11:39Z</time>
				<extensions>
				</extensions>
			</trkpt>
			<trkpt lat="-28.203809" lon="153.004828">
				<ele>112</ele>
				<time>2015-05-07T02:11:40Z</time>
				<extensions>
				</extensions>
			</trkpt>
			<trkpt lat="-28.203596" lon="153.004887">
				<ele>112</ele>
				<time>2015-05-07T02:11:41Z</time>
				<extensions>
				</extensions>
			</trkpt>
			<trkpt lat="-28.203376" lon="153.004954">
				<ele>113</ele>
				<time>2015-05-07T02:11:42Z</time>
				<extensions>
				</extensions>
			</trkpt>
			<trkpt lat="-28.203166" lon="153.005015">
				<ele>113</ele>
				<time>2015-05-07T02:11:43Z</time>
				<extensions>
				</extensions>
			</trkpt>
			<trkpt lat="-28.202950" lon="153.005079">
				<ele>110</ele>
				<time>2015-05-07T02:11:44Z</time>
				<extensions>
				</extensions>
			</trkpt>
			<trkpt lat="-28.202734" lon="153.005144">
				<ele>110</ele>
				<time>2015-05-07T02:11:45Z</time>
				<extensions>
				</extensions>
			</trkpt>
			<trkpt lat="-28.202530" lon="153.005206">
				<ele>110</ele>
				<time>2015-05-07T02:11:46Z</time>
				<extensions>
				</extensions>
			</trkpt>
			<trkpt lat="-28.202317" lon="153.005270">
				<ele>109</ele>
				<time>2015-05-07T02:11:47Z</time>
				<extensions>
				</extensions>
			</trkpt>
			<trkpt lat="-28.202110" lon="153.005330">
				<ele>110</ele>
				<time>2015-05-07T02:11:48Z</time>
				<extensions>
				</extensions>
			</trkpt>
			<trkpt lat="-28.201906" lon="153.005390">
				<ele>108</ele>
				<time>2015-05-07T02:11:49Z</time>
				<extensions>
				</extensions>
			</trkpt>
			<trkpt lat="-28.201702" lon="153.005449">
				<ele>109</ele>
				<time>2015-05-07T02:11:50Z</time>
				<extensions>
				</extensions>
			</trkpt>
			<trkpt lat="-28.201506" lon="153.005485">
				<ele>109</ele>
				<time>2015-05-07T02:11:51Z</time>
				<extensions>
				</extensions>
			</trkpt>
			<trkpt lat="-28.201324" lon="153.005540">
				<ele>108</ele>
				<time>2015-05-07T02:11:52Z</time>
				<extensions>
				</extensions>
			</trkpt>
			<trkpt lat="-28.200978" lon="153.005646">
				<ele>107</ele>
				<time>2015-05-07T02:11:54Z</time>
				<extensions>
				</extensions>
			</trkpt>
			<trkpt lat="-28.200796" lon="153.005701">
				<ele>107</ele>
				<time>2015-05-07T02:11:55Z</time>
				<extensions>
				</extensions>
			</trkpt>
			<trkpt lat="-28.200621" lon="153.005754">
				<ele>107</ele>
				<time>2015-05-07T02:11:56Z</time>
				<extensions>
				</extensions>
			</trkpt>
			<trkpt lat="-28.200269" lon="153.005845">
				<ele>107</ele>
				<time>2015-05-07T02:11:58Z</time>
				<extensions>
				</extensions>
			</trkpt>
			<trkpt lat="-28.200088" lon="153.005868">
				<ele>108</ele>
				<time>2015-05-07T02:11:59Z</time>
				<extensions>
				</extensions>
			</trkpt>
			<trkpt lat="-28.199903" lon="153.005872">
				<ele>108</ele>
				<time>2015-05-07T02:12:00Z</time>
				<extensions>
				</extensions>
			</trkpt>
			<trkpt lat="-28.199528" lon="153.005819">
				<ele>109</ele>
				<time>2015-05-07T02:12:02Z</time>
				<extensions>
				</extensions>
			</trkpt>
			<trkpt lat="-28.199329" lon="153.005780">
				<ele>109</ele>
				<time>2015-05-07T02:12:03Z</time>
				<extensions>
				</extensions>
			</trkpt>
			<trkpt lat="-28.199131" lon="153.005740">
				<ele>108</ele>
				<time>2015-05-07T02:12:04Z</time>
				<extensions>
				</extensions>
			</trkpt>
			<trkpt lat="-28.198944" lon="153.005701">
				<ele>107</ele>
				<time>2015-05-07T02:12:05Z</time>
				<extensions>
				</extensions>
			</trkpt>
			<trkpt lat="-28.198748" lon="153.005659">
				<ele>107</ele>
				<time>2015-05-07T02:12:06Z</time>
				<extensions>
				</extensions>
			</trkpt>
			<trkpt lat="-28.198569" lon="153.005622">
				<ele>106</ele>
				<time>2015-05-07T02:12:07Z</time>
				<extensions>
				</extensions>
			</trkpt>
			<trkpt lat="-28.198256" lon="153.005550">
				<ele>105</ele>
				<time>2015-05-07T02:12:09Z</time>
				<extensions>
				</extensions>
			</trkpt>
			<trkpt lat="-28.197972" lon="153.005472">
				<ele>104</ele>
				<time>2015-05-07T02:12:11Z</time>
				<extensions>
				</extensions>
			</trkpt>
			<trkpt lat="-28.197738" lon="153.005405">
				<ele>101</ele>
				<time>2015-05-07T02:12:13Z</time>
				<extensions>
				</extensions>
			</trkpt>
			<trkpt lat="-28.197535" lon="153.005345">
				<ele>101</ele>
				<time>2015-05-07T02:12:15Z</time>
				<extensions>
				</extensions>
			</trkpt>
			<trkpt lat="-28.197355" lon="153.005289">
				<ele>101</ele>
				<time>2015-05-07T02:12:17Z</time>
				<extensions>
				</extensions>
			</trkpt>
			<trkpt lat="-28.197178" lon="153.005233">
				<ele>101</ele>
				<time>2015-05-07T02:12:19Z</time>
				<extensions>
				</extensions>
			</trkpt>
			<trkpt lat="-28.196978" lon="153.005172">
				<ele>102</ele>
				<time>2015-05-07T02:12:21Z</time>
				<extensions>
				</extensions>
			</trkpt>
			<trkpt lat="-28.196763" lon="153.005105">
				<ele>103</ele>
				<time>2015-05-07T02:12:23Z</time>
				<extensions>
				</extensions>
			</trkpt>
			<trkpt lat="-28.196503" lon="153.005023">
				<ele>103</ele>
				<time>2015-05-07T02:12:25Z</time>
				<extensions>
				</extensions>
			</trkpt>
			<trkpt lat="-28.196210" lon="153.004928">
				<ele>105</ele>
				<time>2015-05-07T02:12:27Z</time>
				<extensions>
				</extensions>
			</trkpt>
			<trkpt lat="-28.195907" lon="153.004811">
				<ele>108</ele>
				<time>2015-05-07T02:12:29Z</time>
				<extensions>
				</extensions>
			</trkpt>
			<trkpt lat="-28.195591" lon="153.004626">
				<ele>108</ele>
				<time>2015-05-07T02:12:31Z</time>
				<extensions>
				</extensions>
			</trkpt>
			<trkpt lat="-28.195426" lon="153.004509">
				<ele>109</ele>
				<time>2015-05-07T02:12:32Z</time>
				<extensions>
				</extensions>
			</trkpt>
			<trkpt lat="-28.195264" lon="153.004395">
				<ele>108</ele>
				<time>2015-05-07T02:12:33Z</time>
				<extensions>
				</extensions>
			</trkpt>
			<trkpt lat="-28.194961" lon="153.004182">
				<ele>107</ele>
				<time>2015-05-07T02:12:35Z</time>
				<extensions>
				</extensions>
			</trkpt>
			<trkpt lat="-28.194689" lon="153.003989">
				<ele>105</ele>
				<time>2015-05-07T02:12:37Z</time>
				<extensions>
				</extensions>
			</trkpt>
			<trkpt lat="-28.194461" lon="153.003827">
				<ele>103</ele>
				<time>2015-05-07T02:12:39Z</time>
				<extensions>
				</extensions>
			</trkpt>
			<trkpt lat="-28.194259" lon="153.003682">
				<ele>101</ele>
				<time>2015-05-07T02:12:41Z</time>
				<extensions>
				</extensions>
			</trkpt>
			<trkpt lat="-28.194026" lon="153.003512">
				<ele>102</ele>
				<time>2015-05-07T02:12:43Z</time>
				<extensions>
				</extensions>
			</trkpt>
			<trkpt lat="-28.193748" lon="153.003285">
				<ele>105</ele>
				<time>2015-05-07T02:12:45Z</time>
				<extensions>
				</extensions>
			</trkpt>
			<trkpt lat="-28.193596" lon="153.003142">
				<ele>106</ele>
				<time>2015-05-07T02:12:46Z</time>
				<extensions>
				</extensions>
			</trkpt>
			<trkpt lat="-28.193454" lon="153.002990">
				<ele>107</ele>
				<time>2015-05-07T02:12:47Z</time>
				<extensions>
				</extensions>
			</trkpt>
			<trkpt lat="-28.193314" lon="153.002811">
				<ele>107</ele>
				<time>2015-05-07T02:12:48Z</time>
				<extensions>
				</extensions>
			</trkpt>
			<trkpt lat="-28.193170" lon="153.002617">
				<ele>110</ele>
				<time>2015-05-07T02:12:49Z</time>
				<extensions>
				</extensions>
			</trkpt>
			<trkpt lat="-28.193019" lon="153.002406">
				<ele>111</ele>
				<time>2015-05-07T02:12:50Z</time>
				<extensions>
				</extensions>
			</trkpt>
			<trkpt lat="-28.192870" lon="153.002198">
				<ele>111</ele>
				<time>2015-05-07T02:12:51Z</time>
				<extensions>
				</extensions>
			</trkpt>
			<trkpt lat="-28.192712" lon="153.001978">
				<ele>113</ele>
				<time>2015-05-07T02:12:52Z</time>
				<extensions>
				</extensions>
			</trkpt>
			<trkpt lat="-28.192558" lon="153.001764">
				<ele>112</ele>
				<time>2015-05-07T02:12:53Z</time>
				<extensions>
				</extensions>
			</trkpt>
			<trkpt lat="-28.192394" lon="153.001537">
				<ele>112</ele>
				<time>2015-05-07T02:12:54Z</time>
				<extensions>
				</extensions>
			</trkpt>
			<trkpt lat="-28.192251" lon="153.001338">
				<ele>111</ele>
				<time>2015-05-07T02:12:55Z</time>
				<extensions>
				</extensions>
			</trkpt>
			<trkpt lat="-28.192107" lon="153.001139">
				<ele>111</ele>
				<time>2015-05-07T02:12:56Z</time>
				<extensions>
				</extensions>
			</trkpt>
			<trkpt lat="-28.191965" lon="153.000942">
				<ele>109</ele>
				<time>2015-05-07T02:12:57Z</time>
				<extensions>
				</extensions>
			</trkpt>
			<trkpt lat="-28.191828" lon="153.000756">
				<ele>109</ele>
				<time>2015-05-07T02:12:58Z</time>
				<extensions>
				</extensions>
			</trkpt>
			<trkpt lat="-28.191687" lon="153.000569">
				<ele>108</ele>
				<time>2015-05-07T02:12:59Z</time>
				<extensions>
				</extensions>
			</trkpt>
			<trkpt lat="-28.191543" lon="153.000381">
				<ele>107</ele>
				<time>2015-05-07T02:13:00Z</time>
				<extensions>
				</extensions>
			</trkpt>
			<trkpt lat="-28.191401" lon="153.000199">
				<ele>107</ele>
				<time>2015-05-07T02:13:01Z</time>
				<extensions>
				</extensions>
			</trkpt>
			<trkpt lat="-28.191244" lon="153.000006">
				<ele>107</ele>
				<time>2015-05-07T02:13:02Z</time>
				<extensions>
				</extensions>
			</trkpt>
			<trkpt lat="-28.191094" lon="152.999829">
				<ele>108</ele>
				<time>2015-05-07T02:13:03Z</time>
				<extensions>
				</extensions>
			</trkpt>
			<trkpt lat="-28.190939" lon="152.999646">
				<ele>108</ele>
				<time>2015-05-07T02:13:04Z</time>
				<extensions>
				</extensions>
			</trkpt>
			<trkpt lat="-28.190786" lon="152.999467">
				<ele>109</ele>
				<time>2015-05-07T02:13:05Z</time>
				<extensions>
				</extensions>
			</trkpt>
			<trkpt lat="-28.190628" lon="152.999279">
				<ele>109</ele>
				<time>2015-05-07T02:13:06Z</time>
				<extensions>
				</extensions>
			</trkpt>
			<trkpt lat="-28.190475" lon="152.999101">
				<ele>108</ele>
				<time>2015-05-07T02:13:07Z</time>
				<extensions>
				</extensions>
			</trkpt>
			<trkpt lat="-28.190315" lon="152.998914">
				<ele>106</ele>
				<time>2015-05-07T02:13:08Z</time>
				<extensions>
				</extensions>
			</trkpt>
			<trkpt lat="-28.190169" lon="152.998739">
				<ele>106</ele>
				<time>2015-05-07T02:13:09Z</time>
				<extensions>
				</extensions>
			</trkpt>
			<trkpt lat="-28.190034" lon="152.998556">
				<ele>106</ele>
				<time>2015-05-07T02:13:10Z</time>
				<extensions>
				</extensions>
			</trkpt>
			<trkpt lat="-28.189909" lon="152.998370">
				<ele>105</ele>
				<time>2015-05-07T02:13:11Z</time>
				<extensions>
				</extensions>
			</trkpt>
			<trkpt lat="-28.189783" lon="152.998175">
				<ele>105</ele>
				<time>2015-05-07T02:13:12Z</time>
				<extensions>
				</extensions>
			</trkpt>
			<trkpt lat="-28.189667" lon="152.997986">
				<ele>106</ele>
				<time>2015-05-07T02:13:13Z</time>
				<extensions>
				</extensions>
			</trkpt>
			<trkpt lat="-28.189541" lon="152.997789">
				<ele>107</ele>
				<time>2015-05-07T02:13:14Z</time>
				<extensions>
				</extensions>
			</trkpt>
			<trkpt lat="-28.189410" lon="152.997584">
				<ele>107</ele>
				<time>2015-05-07T02:13:15Z</time>
				<extensions>
				</extensions>
			</trkpt>
			<trkpt lat="-28.189297" lon="152.997403">
				<ele>107</ele>
				<time>2015-05-07T02:13:16Z</time>
				<extensions>
				</extensions>
			</trkpt>
			<trkpt lat="-28.189177" lon="152.997213">
				<ele>107</ele>
				<time>2015-05-07T02:13:17Z</time>
				<extensions>
				</extensions>
			</trkpt>
			<trkpt lat="-28.189051" lon="152.997028">
				<ele>106</ele>
				<time>2015-05-07T02:13:18Z</time>
				<extensions>
				</extensions>
			</trkpt>
			<trkpt lat="-28.188935" lon="152.996849">
				<ele>105</ele>
				<time>2015-05-07T02:13:19Z</time>
				<extensions>
				</extensions>
			</trkpt>
			<trkpt lat="-28.188825" lon="152.996659">
				<ele>105</ele>
				<time>2015-05-07T02:13:20Z</time>
				<extensions>
				</extensions>
			</trkpt>
			<trkpt lat="-28.188702" lon="152.996470">
				<ele>106</ele>
				<time>2015-05-07T02:13:21Z</time>
				<extensions>
				</extensions>
			</trkpt>
			<trkpt lat="-28.188585" lon="152.996289">
				<ele>105</ele>
				<time>2015-05-07T02:13:22Z</time>
				<extensions>
				</extensions>
			</trkpt>
			<trkpt lat="-28.188467" lon="152.996101">
				<ele>105</ele>
				<time>2015-05-07T02:13:23Z</time>
				<extensions>
				</extensions>
			</trkpt>
			<trkpt lat="-28.188354" lon="152.995901">
				<ele>105</ele>
				<time>2015-05-07T02:13:24Z</time>
				<extensions>
				</extensions>
			</trkpt>
			<trkpt lat="-28.188231" lon="152.995704">
				<ele>104</ele>
				<time>2015-05-07T02:13:25Z</time>
				<extensions>
				</extensions>
			</trkpt>
			<trkpt lat="-28.188123" lon="152.995516">
				<ele>104</ele>
				<time>2015-05-07T02:13:26Z</time>
				<extensions>
				</extensions>
			</trkpt>
			<trkpt lat="-28.188006" lon="152.995324">
				<ele>104</ele>
				<time>2015-05-07T02:13:27Z</time>
				<extensions>
				</extensions>
			</trkpt>
			<trkpt lat="-28.187857" lon="152.995123">
				<ele>105</ele>
				<time>2015-05-07T02:13:28Z</time>
				<extensions>
				</extensions>
			</trkpt>
			<trkpt lat="-28.187733" lon="152.994922">
				<ele>106</ele>
				<time>2015-05-07T02:13:29Z</time>
				<extensions>
				</extensions>
			</trkpt>
			<trkpt lat="-28.187596" lon="152.994704">
				<ele>107</ele>
				<time>2015-05-07T02:13:30Z</time>
				<extensions>
				</extensions>
			</trkpt>
			<trkpt lat="-28.187469" lon="152.994507">
				<ele>106</ele>
				<time>2015-05-07T02:13:31Z</time>
				<extensions>
				</extensions>
			</trkpt>
			<trkpt lat="-28.187332" lon="152.994309">
				<ele>106</ele>
				<time>2015-05-07T02:13:32Z</time>
				<extensions>
				</extensions>
			</trkpt>
			<trkpt lat="-28.187207" lon="152.994118">
				<ele>106</ele>
				<time>2015-05-07T02:13:33Z</time>
				<extensions>
				</extensions>
			</trkpt>
			<trkpt lat="-28.187091" lon="152.993921">
				<ele>105</ele>
				<time>2015-05-07T02:13:34Z</time>
				<extensions>
				</extensions>
			</trkpt>
			<trkpt lat="-28.186969" lon="152.993726">
				<ele>104</ele>
				<time>2015-05-07T02:13:35Z</time>
				<extensions>
				</extensions>
			</trkpt>
			<trkpt lat="-28.186855" lon="152.993561">
				<ele>104</ele>
				<time>2015-05-07T02:13:36Z</time>
				<extensions>
				</extensions>
			</trkpt>
			<trkpt lat="-28.186731" lon="152.993402">
				<ele>105</ele>
				<time>2015-05-07T02:13:37Z</time>
				<extensions>
				</extensions>
			</trkpt>
			<trkpt lat="-28.186591" lon="152.993254">
				<ele>104</ele>
				<time>2015-05-07T02:13:38Z</time>
				<extensions>
				</extensions>
			</trkpt>
			<trkpt lat="-28.186314" lon="152.992994">
				<ele>103</ele>
				<time>2015-05-07T02:13:40Z</time>
				<extensions>
				</extensions>
			</trkpt>
			<trkpt lat="-28.186042" lon="152.992806">
				<ele>102</ele>
				<time>2015-05-07T02:13:42Z</time>
				<extensions>
				</extensions>
			</trkpt>
			<trkpt lat="-28.185853" lon="152.992712">
				<ele>103</ele>
				<time>2015-05-07T02:13:43Z</time>
				<extensions>
				</extensions>
			</trkpt>
			<trkpt lat="-28.185666" lon="152.992644">
				<ele>103</ele>
				<time>2015-05-07T02:13:44Z</time>
				<extensions>
				</extensions>
			</trkpt>
			<trkpt lat="-28.185480" lon="152.992573">
				<ele>104</ele>
				<time>2015-05-07T02:13:45Z</time>
				<extensions>
				</extensions>
			</trkpt>
			<trkpt lat="-28.185254" lon="152.992556">
				<ele>104</ele>
				<time>2015-05-07T02:13:46Z</time>
				<extensions>
				</extensions>
			</trkpt>
			<trkpt lat="-28.185044" lon="152.992493">
				<ele>105</ele>
				<time>2015-05-07T02:13:47Z</time>
				<extensions>
				</extensions>
			</trkpt>
			<trkpt lat="-28.184833" lon="152.992429">
				<ele>105</ele>
				<time>2015-05-07T02:13:48Z</time>
				<extensions>
				</extensions>
			</trkpt>
			<trkpt lat="-28.184622" lon="152.992371">
				<ele>106</ele>
				<time>2015-05-07T02:13:49Z</time>
				<extensions>
				</extensions>
			</trkpt>
			<trkpt lat="-28.184415" lon="152.992315">
				<ele>104</ele>
				<time>2015-05-07T02:13:50Z</time>
				<extensions>
				</extensions>
			</trkpt>
			<trkpt lat="-28.184208" lon="152.992256">
				<ele>104</ele>
				<time>2015-05-07T02:13:51Z</time>
				<extensions>
				</extensions>
			</trkpt>
			<trkpt lat="-28.183999" lon="152.992194">
				<ele>104</ele>
				<time>2015-05-07T02:13:52Z</time>
				<extensions>
				</extensions>
			</trkpt>
			<trkpt lat="-28.183792" lon="152.992135">
				<ele>103</ele>
				<time>2015-05-07T02:13:53Z</time>
				<extensions>
				</extensions>
			</trkpt>
			<trkpt lat="-28.183562" lon="152.992067">
				<ele>104</ele>
				<time>2015-05-07T02:13:54Z</time>
				<extensions>
				</extensions>
			</trkpt>
			<trkpt lat="-28.183363" lon="152.992018">
				<ele>104</ele>
				<time>2015-05-07T02:13:55Z</time>
				<extensions>
				</extensions>
			</trkpt>
			<trkpt lat="-28.183168" lon="152.991962">
				<ele>103</ele>
				<time>2015-05-07T02:13:56Z</time>
				<extensions>
				</extensions>
			</trkpt>
			<trkpt lat="-28.182972" lon="152.991897">
				<ele>102</ele>
				<time>2015-05-07T02:13:57Z</time>
				<extensions>
				</extensions>
			</trkpt>
			<trkpt lat="-28.182779" lon="152.991840">
				<ele>101</ele>
				<time>2015-05-07T02:13:58Z</time>
				<extensions>
				</extensions>
			</trkpt>
			<trkpt lat="-28.182586" lon="152.991791">
				<ele>102</ele>
				<time>2015-05-07T02:13:59Z</time>
				<extensions>
				</extensions>
			</trkpt>
			<trkpt lat="-28.182392" lon="152.991752">
				<ele>101</ele>
				<time>2015-05-07T02:14:00Z</time>
				<extensions>
				</extensions>
			</trkpt>
			<trkpt lat="-28.182201" lon="152.991717">
				<ele>101</ele>
				<time>2015-05-07T02:14:01Z</time>
				<extensions>
				</extensions>
			</trkpt>
			<trkpt lat="-28.182014" lon="152.991677">
				<ele>101</ele>
				<time>2015-05-07T02:14:02Z</time>
				<extensions>
				</extensions>
			</trkpt>
			<trkpt lat="-28.181824" lon="152.991642">
				<ele>100</ele>
				<time>2015-05-07T02:14:03Z</time>
				<extensions>
				</extensions>
			</trkpt>
			<trkpt lat="-28.181643" lon="152.991613">
				<ele>99</ele>
				<time>2015-05-07T02:14:04Z</time>
				<extensions>
				</extensions>
			</trkpt>
			<trkpt lat="-28.181463" lon="152.991594">
				<ele>98</ele>
				<time>2015-05-07T02:14:05Z</time>
				<extensions>
				</extensions>
			</trkpt>
			<trkpt lat="-28.181127" lon="152.991537">
				<ele>97</ele>
				<time>2015-05-07T02:14:07Z</time>
				<extensions>
				</extensions>
			</trkpt>
			<trkpt lat="-28.180811" lon="152.991482">
				<ele>95</ele>
				<time>2015-05-07T02:14:09Z</time>
				<extensions>
				</extensions>
			</trkpt>
			<trkpt lat="-28.180527" lon="152.991444">
				<ele>94</ele>
				<time>2015-05-07T02:14:11Z</time>
				<extensions>
				</extensions>
			</trkpt>
			<trkpt lat="-28.180287" lon="152.991401">
				<ele>92</ele>
				<time>2015-05-07T02:14:13Z</time>
				<extensions>
				</extensions>
			</trkpt>
			<trkpt lat="-28.180073" lon="152.991363">
				<ele>90</ele>
				<time>2015-05-07T02:14:15Z</time>
				<extensions>
				</extensions>
			</trkpt>
			<trkpt lat="-28.179874" lon="152.991338">
				<ele>90</ele>
				<time>2015-05-07T02:14:17Z</time>
				<extensions>
				</extensions>
			</trkpt>
			<trkpt lat="-28.179637" lon="152.991299">
				<ele>93</ele>
				<time>2015-05-07T02:14:19Z</time>
				<extensions>
				</extensions>
			</trkpt>
			<trkpt lat="-28.179341" lon="152.991254">
				<ele>94</ele>
				<time>2015-05-07T02:14:21Z</time>
				<extensions>
				</extensions>
			</trkpt>
			<trkpt lat="-28.179002" lon="152.991211">
				<ele>96</ele>
				<time>2015-05-07T02:14:23Z</time>
				<extensions>
				</extensions>
			</trkpt>
			<trkpt lat="-28.178817" lon="152.991182">
				<ele>96</ele>
				<time>2015-05-07T02:14:24Z</time>
				<extensions>
				</extensions>
			</trkpt>
			<trkpt lat="-28.178634" lon="152.991147">
				<ele>96</ele>
				<time>2015-05-07T02:14:25Z</time>
				<extensions>
				</extensions>
			</trkpt>
			<trkpt lat="-28.178449" lon="152.991110">
				<ele>96</ele>
				<time>2015-05-07T02:14:26Z</time>
				<extensions>
				</extensions>
			</trkpt>
			<trkpt lat="-28.178264" lon="152.991087">
				<ele>95</ele>
				<time>2015-05-07T02:14:27Z</time>
				<extensions>
				</extensions>
			</trkpt>
			<trkpt lat="-28.178079" lon="152.991060">
				<ele>95</ele>
				<time>2015-05-07T02:14:28Z</time>
				<extensions>
				</extensions>
			</trkpt>
			<trkpt lat="-28.177897" lon="152.991031">
				<ele>95</ele>
				<time>2015-05-07T02:14:29Z</time>
				<extensions>
				</extensions>
			</trkpt>
			<trkpt lat="-28.177705" lon="152.991005">
				<ele>96</ele>
				<time>2015-05-07T02:14:30Z</time>
				<extensions>
				</extensions>
			</trkpt>
			<trkpt lat="-28.177508" lon="152.990976">
				<ele>96</ele>
				<time>2015-05-07T02:14:31Z</time>
				<extensions>
				</extensions>
			</trkpt>
			<trkpt lat="-28.177315" lon="152.990945">
				<ele>96</ele>
				<time>2015-05-07T02:14:32Z</time>
				<extensions>
				</extensions>
			</trkpt>
			<trkpt lat="-28.177126" lon="152.990917">
				<ele>95</ele>
				<time>2015-05-07T02:14:33Z</time>
				<extensions>
				</extensions>
			</trkpt>
			<trkpt lat="-28.176935" lon="152.990890">
				<ele>95</ele>
				<time>2015-05-07T02:14:34Z</time>
				<extensions>
				</extensions>
			</trkpt>
			<trkpt lat="-28.176747" lon="152.990866">
				<ele>96</ele>
				<time>2015-05-07T02:14:35Z</time>
				<extensions>
				</extensions>
			</trkpt>
			<trkpt lat="-28.176560" lon="152.990838">
				<ele>95</ele>
				<time>2015-05-07T02:14:36Z</time>
				<extensions>
				</extensions>
			</trkpt>
			<trkpt lat="-28.176368" lon="152.990825">
				<ele>96</ele>
				<time>2015-05-07T02:14:37Z</time>
				<extensions>
				</extensions>
			</trkpt>
			<trkpt lat="-28.176174" lon="152.990793">
				<ele>95</ele>
				<time>2015-05-07T02:14:38Z</time>
				<extensions>
				</extensions>
			</trkpt>
			<trkpt lat="-28.175984" lon="152.990761">
				<ele>93</ele>
				<time>2015-05-07T02:14:39Z</time>
				<extensions>
				</extensions>
			</trkpt>
			<trkpt lat="-28.175799" lon="152.990729">
				<ele>92</ele>
				<time>2015-05-07T02:14:40Z</time>
				<extensions>
				</extensions>
			</trkpt>
			<trkpt lat="-28.175610" lon="152.990697">
				<ele>93</ele>
				<time>2015-05-07T02:14:41Z</time>
				<extensions>
				</extensions>
			</trkpt>
			<trkpt lat="-28.175416" lon="152.990664">
				<ele>95</ele>
				<time>2015-05-07T02:14:42Z</time>
				<extensions>
				</extensions>
			</trkpt>
			<trkpt lat="-28.175212" lon="152.990628">
				<ele>96</ele>
				<time>2015-05-07T02:14:43Z</time>
				<extensions>
				</extensions>
			</trkpt>
			<trkpt lat="-28.174995" lon="152.990582">
				<ele>96</ele>
				<time>2015-05-07T02:14:44Z</time>
				<extensions>
				</extensions>
			</trkpt>
			<trkpt lat="-28.174774" lon="152.990536">
				<ele>97</ele>
				<time>2015-05-07T02:14:45Z</time>
				<extensions>
				</extensions>
			</trkpt>
			<trkpt lat="-28.174565" lon="152.990480">
				<ele>96</ele>
				<time>2015-05-07T02:14:46Z</time>
				<extensions>
				</extensions>
			</trkpt>
			<trkpt lat="-28.174365" lon="152.990428">
				<ele>94</ele>
				<time>2015-05-07T02:14:47Z</time>
				<extensions>
				</extensions>
			</trkpt>
			<trkpt lat="-28.174167" lon="152.990378">
				<ele>93</ele>
				<time>2015-05-07T02:14:48Z</time>
				<extensions>
				</extensions>
			</trkpt>
			<trkpt lat="-28.173964" lon="152.990322">
				<ele>94</ele>
				<time>2015-05-07T02:14:49Z</time>
				<extensions>
				</extensions>
			</trkpt>
			<trkpt lat="-28.173758" lon="152.990248">
				<ele>94</ele>
				<time>2015-05-07T02:14:50Z</time>
				<extensions>
				</extensions>
			</trkpt>
			<trkpt lat="-28.173555" lon="152.990181">
				<ele>92</ele>
				<time>2015-05-07T02:14:51Z</time>
				<extensions>
				</extensions>
			</trkpt>
			<trkpt lat="-28.173362" lon="152.990129">
				<ele>93</ele>
				<time>2015-05-07T02:14:52Z</time>
				<extensions>
				</extensions>
			</trkpt>
			<trkpt lat="-28.173185" lon="152.990083">
				<ele>91</ele>
				<time>2015-05-07T02:14:53Z</time>
				<extensions>
				</extensions>
			</trkpt>
			<trkpt lat="-28.172863" lon="152.989988">
				<ele>88</ele>
				<time>2015-05-07T02:14:55Z</time>
				<extensions>
				</extensions>
			</trkpt>
			<trkpt lat="-28.172586" lon="152.989916">
				<ele>86</ele>
				<time>2015-05-07T02:14:57Z</time>
				<extensions>
				</extensions>
			</trkpt>
			<trkpt lat="-28.172342" lon="152.989895">
				<ele>83</ele>
				<time>2015-05-07T02:14:59Z</time>
				<extensions>
				</extensions>
			</trkpt>
			<trkpt lat="-28.172116" lon="152.989784">
				<ele>81</ele>
				<time>2015-05-07T02:15:02Z</time>
				<extensions>
				</extensions>
			</trkpt>
			<trkpt lat="-28.172099" lon="152.989505">
				<ele>83</ele>
				<time>2015-05-07T02:15:05Z</time>
				<extensions>
				</extensions>
			</trkpt>
			<trkpt lat="-28.172189" lon="152.989265">
				<ele>86</ele>
				<time>2015-05-07T02:15:07Z</time>
				<extensions>
				</extensions>
			</trkpt>
			<trkpt lat="-28.172314" lon="152.988975">
				<ele>88</ele>
				<time>2015-05-07T02:15:09Z</time>
				<extensions>
				</extensions>
			</trkpt>
			<trkpt lat="-28.172420" lon="152.988682">
				<ele>88</ele>
				<time>2015-05-07T02:15:11Z</time>
				<extensions>
				</extensions>
			</trkpt>
			<trkpt lat="-28.172551" lon="152.988403">
				<ele>88</ele>
				<time>2015-05-07T02:15:13Z</time>
				<extensions>
				</extensions>
			</trkpt>
			<trkpt lat="-28.172673" lon="152.988094">
				<ele>88</ele>
				<time>2015-05-07T02:15:15Z</time>
				<extensions>
				</extensions>
			</trkpt>
			<trkpt lat="-28.172801" lon="152.987799">
				<ele>88</ele>
				<time>2015-05-07T02:15:17Z</time>
				<extensions>
				</extensions>
			</trkpt>
			<trkpt lat="-28.172930" lon="152.987520">
				<ele>86</ele>
				<time>2015-05-07T02:15:19Z</time>
				<extensions>
				</extensions>
			</trkpt>
			<trkpt lat="-28.173050" lon="152.987249">
				<ele>86</ele>
				<time>2015-05-07T02:15:21Z</time>
				<extensions>
				</extensions>
			</trkpt>
			<trkpt lat="-28.173166" lon="152.986980">
				<ele>86</ele>
				<time>2015-05-07T02:15:23Z</time>
				<extensions>
				</extensions>
			</trkpt>
			<trkpt lat="-28.173276" lon="152.986743">
				<ele>86</ele>
				<time>2015-05-07T02:15:25Z</time>
				<extensions>
				</extensions>
			</trkpt>
			<trkpt lat="-28.173355" lon="152.986500">
				<ele>85</ele>
				<time>2015-05-07T02:15:27Z</time>
				<extensions>
				</extensions>
			</trkpt>
			<trkpt lat="-28.173316" lon="152.986285">
				<ele>84</ele>
				<time>2015-05-07T02:15:29Z</time>
				<extensions>
				</extensions>
			</trkpt>
			<trkpt lat="-28.173186" lon="152.986085">
				<ele>84</ele>
				<time>2015-05-07T02:15:31Z</time>
				<extensions>
				</extensions>
			</trkpt>
			<trkpt lat="-28.172950" lon="152.985887">
				<ele>85</ele>
				<time>2015-05-07T02:15:33Z</time>
				<extensions>
				</extensions>
			</trkpt>
			<trkpt lat="-28.172698" lon="152.985684">
				<ele>87</ele>
				<time>2015-05-07T02:15:35Z</time>
				<extensions>
				</extensions>
			</trkpt>
			<trkpt lat="-28.172439" lon="152.985462">
				<ele>88</ele>
				<time>2015-05-07T02:15:37Z</time>
				<extensions>
				</extensions>
			</trkpt>
			<trkpt lat="-28.172186" lon="152.985223">
				<ele>88</ele>
				<time>2015-05-07T02:15:39Z</time>
				<extensions>
				</extensions>
			</trkpt>
			<trkpt lat="-28.172027" lon="152.985097">
				<ele>89</ele>
				<time>2015-05-07T02:15:40Z</time>
				<extensions>
				</extensions>
			</trkpt>
			<trkpt lat="-28.171773" lon="152.984888">
				<ele>90</ele>
				<time>2015-05-07T02:15:42Z</time>
				<extensions>
				</extensions>
			</trkpt>
			<trkpt lat="-28.171547" lon="152.984662">
				<ele>88</ele>
				<time>2015-05-07T02:15:44Z</time>
				<extensions>
				</extensions>
			</trkpt>
			<trkpt lat="-28.171350" lon="152.984418">
				<ele>88</ele>
				<time>2015-05-07T02:15:46Z</time>
				<extensions>
				</extensions>
			</trkpt>
			<trkpt lat="-28.171174" lon="152.984129">
				<ele>89</ele>
				<time>2015-05-07T02:15:48Z</time>
				<extensions>
				</extensions>
			</trkpt>
			<trkpt lat="-28.171021" lon="152.983839">
				<ele>89</ele>
				<time>2015-05-07T02:15:50Z</time>
				<extensions>
				</extensions>
			</trkpt>
			<trkpt lat="-28.170864" lon="152.983554">
				<ele>91</ele>
				<time>2015-05-07T02:15:52Z</time>
				<extensions>
				</extensions>
			</trkpt>
			<trkpt lat="-28.170727" lon="152.983261">
				<ele>90</ele>
				<time>2015-05-07T02:15:54Z</time>
				<extensions>
				</extensions>
			</trkpt>
			<trkpt lat="-28.170543" lon="152.982985">
				<ele>88</ele>
				<time>2015-05-07T02:15:56Z</time>
				<extensions>
				</extensions>
			</trkpt>
			<trkpt lat="-28.170299" lon="152.982753">
				<ele>88</ele>
				<time>2015-05-07T02:15:58Z</time>
				<extensions>
				</extensions>
			</trkpt>
			<trkpt lat="-28.170022" lon="152.982598">
				<ele>89</ele>
				<time>2015-05-07T02:16:00Z</time>
				<extensions>
				</extensions>
			</trkpt>
			<trkpt lat="-28.169712" lon="152.982512">
				<ele>90</ele>
				<time>2015-05-07T02:16:02Z</time>
				<extensions>
				</extensions>
			</trkpt>
			<trkpt lat="-28.169406" lon="152.982443">
				<ele>90</ele>
				<time>2015-05-07T02:16:04Z</time>
				<extensions>
				</extensions>
			</trkpt>
			<trkpt lat="-28.169128" lon="152.982367">
				<ele>87</ele>
				<time>2015-05-07T02:16:06Z</time>
				<extensions>
				</extensions>
			</trkpt>
			<trkpt lat="-28.168889" lon="152.982305">
				<ele>85</ele>
				<time>2015-05-07T02:16:08Z</time>
				<extensions>
				</extensions>
			</trkpt>
			<trkpt lat="-28.168677" lon="152.982250">
				<ele>84</ele>
				<time>2015-05-07T02:16:10Z</time>
				<extensions>
				</extensions>
			</trkpt>
			<trkpt lat="-28.168490" lon="152.982195">
				<ele>84</ele>
				<time>2015-05-07T02:16:12Z</time>
				<extensions>
				</extensions>
			</trkpt>
			<trkpt lat="-28.168290" lon="152.981981">
				<ele>84</ele>
				<time>2015-05-07T02:16:15Z</time>
				<extensions>
				</extensions>
			</trkpt>
			<trkpt lat="-28.168333" lon="152.981680">
				<ele>86</ele>
				<time>2015-05-07T02:16:18Z</time>
				<extensions>
				</extensions>
			</trkpt>
			<trkpt lat="-28.168470" lon="152.981357">
				<ele>89</ele>
				<time>2015-05-07T02:16:20Z</time>
				<extensions>
				</extensions>
			</trkpt>
			<trkpt lat="-28.168606" lon="152.981038">
				<ele>92</ele>
				<time>2015-05-07T02:16:22Z</time>
				<extensions>
				</extensions>
			</trkpt>
			<trkpt lat="-28.168759" lon="152.980697">
				<ele>94</ele>
				<time>2015-05-07T02:16:24Z</time>
				<extensions>
				</extensions>
			</trkpt>
			<trkpt lat="-28.168904" lon="152.980346">
				<ele>96</ele>
				<time>2015-05-07T02:16:26Z</time>
				<extensions>
				</extensions>
			</trkpt>
			<trkpt lat="-28.169050" lon="152.980000">
				<ele>97</ele>
				<time>2015-05-07T02:16:28Z</time>
				<extensions>
				</extensions>
			</trkpt>
			<trkpt lat="-28.169210" lon="152.979638">
				<ele>98</ele>
				<time>2015-05-07T02:16:30Z</time>
				<extensions>
				</extensions>
			</trkpt>
			<trkpt lat="-28.169301" lon="152.979440">
				<ele>100</ele>
				<time>2015-05-07T02:16:31Z</time>
				<extensions>
				</extensions>
			</trkpt>
			<trkpt lat="-28.169390" lon="152.979229">
				<ele>99</ele>
				<time>2015-05-07T02:16:32Z</time>
				<extensions>
				</extensions>
			</trkpt>
			<trkpt lat="-28.169478" lon="152.979017">
				<ele>99</ele>
				<time>2015-05-07T02:16:33Z</time>
				<extensions>
				</extensions>
			</trkpt>
			<trkpt lat="-28.169578" lon="152.978803">
				<ele>100</ele>
				<time>2015-05-07T02:16:34Z</time>
				<extensions>
				</extensions>
			</trkpt>
			<trkpt lat="-28.169669" lon="152.978588">
				<ele>100</ele>
				<time>2015-05-07T02:16:35Z</time>
				<extensions>
				</extensions>
			</trkpt>
			<trkpt lat="-28.169765" lon="152.978373">
				<ele>100</ele>
				<time>2015-05-07T02:16:36Z</time>
				<extensions>
				</extensions>
			</trkpt>
			<trkpt lat="-28.169871" lon="152.978150">
				<ele>100</ele>
				<time>2015-05-07T02:16:37Z</time>
				<extensions>
				</extensions>
			</trkpt>
			<trkpt lat="-28.169960" lon="152.977937">
				<ele>98</ele>
				<time>2015-05-07T02:16:38Z</time>
				<extensions>
				</extensions>
			</trkpt>
			<trkpt lat="-28.170052" lon="152.977717">
				<ele>97</ele>
				<time>2015-05-07T02:16:39Z</time>
				<extensions>
				</extensions>
			</trkpt>
			<trkpt lat="-28.170142" lon="152.977498">
				<ele>97</ele>
				<time>2015-05-07T02:16:40Z</time>
				<extensions>
				</extensions>
			</trkpt>
			<trkpt lat="-28.170222" lon="152.977284">
				<ele>97</ele>
				<time>2015-05-07T02:16:41Z</time>
				<extensions>
				</extensions>
			</trkpt>
			<trkpt lat="-28.170312" lon="152.977076">
				<ele>97</ele>
				<time>2015-05-07T02:16:42Z</time>
				<extensions>
				</extensions>
			</trkpt>
			<trkpt lat="-28.170397" lon="152.976878">
				<ele>95</ele>
				<time>2015-05-07T02:16:43Z</time>
				<extensions>
				</extensions>
			</trkpt>
			<trkpt lat="-28.170482" lon="152.976682">
				<ele>95</ele>
				<time>2015-05-07T02:16:44Z</time>
				<extensions>
				</extensions>
			</trkpt>
			<trkpt lat="-28.170565" lon="152.976491">
				<ele>93</ele>
				<time>2015-05-07T02:16:45Z</time>
				<extensions>
				</extensions>
			</trkpt>
			<trkpt lat="-28.170726" lon="152.976117">
				<ele>94</ele>
				<time>2015-05-07T02:16:47Z</time>
				<extensions>
				</extensions>
			</trkpt>
			<trkpt lat="-28.170810" lon="152.975922">
				<ele>94</ele>
				<time>2015-05-07T02:16:48Z</time>
				<extensions>
				</extensions>
			</trkpt>
			<trkpt lat="-28.170892" lon="152.975733">
				<ele>94</ele>
				<time>2015-05-07T02:16:49Z</time>
				<extensions>
				</extensions>
			</trkpt>
			<trkpt lat="-28.170979" lon="152.975533">
				<ele>94</ele>
				<time>2015-05-07T02:16:50Z</time>
				<extensions>
				</extensions>
			</trkpt>
			<trkpt lat="-28.171063" lon="152.975339">
				<ele>94</ele>
				<time>2015-05-07T02:16:51Z</time>
				<extensions>
				</extensions>
			</trkpt>
			<trkpt lat="-28.171146" lon="152.975148">
				<ele>93</ele>
				<time>2015-05-07T02:16:52Z</time>
				<extensions>
				</extensions>
			</trkpt>
			<trkpt lat="-28.171230" lon="152.974956">
				<ele>93</ele>
				<time>2015-05-07T02:16:53Z</time>
				<extensions>
				</extensions>
			</trkpt>
			<trkpt lat="-28.171314" lon="152.974761">
				<ele>94</ele>
				<time>2015-05-07T02:16:54Z</time>
				<extensions>
				</extensions>
			</trkpt>
			<trkpt lat="-28.171394" lon="152.974577">
				<ele>96</ele>
				<time>2015-05-07T02:16:55Z</time>
				<extensions>
				</extensions>
			</trkpt>
			<trkpt lat="-28.171479" lon="152.974382">
				<ele>95</ele>
				<time>2015-05-07T02:16:56Z</time>
				<extensions>
				</extensions>
			</trkpt>
			<trkpt lat="-28.171549" lon="152.974163">
				<ele>97</ele>
				<time>2015-05-07T02:16:57Z</time>
				<extensions>
				</extensions>
			</trkpt>
			<trkpt lat="-28.171639" lon="152.973957">
				<ele>97</ele>
				<time>2015-05-07T02:16:58Z</time>
				<extensions>
				</extensions>
			</trkpt>
			<trkpt lat="-28.171708" lon="152.973749">
				<ele>100</ele>
				<time>2015-05-07T02:16:59Z</time>
				<extensions>
				</extensions>
			</trkpt>
			<trkpt lat="-28.171851" lon="152.973521">
				<ele>101</ele>
				<time>2015-05-07T02:17:00Z</time>
				<extensions>
				</extensions>
			</trkpt>
			<trkpt lat="-28.171966" lon="152.973293">
				<ele>104</ele>
				<time>2015-05-07T02:17:01Z</time>
				<extensions>
				</extensions>
			</trkpt>
			<trkpt lat="-28.172082" lon="152.973068">
				<ele>107</ele>
				<time>2015-05-07T02:17:02Z</time>
				<extensions>
				</extensions>
			</trkpt>
			<trkpt lat="-28.172193" lon="152.972848">
				<ele>108</ele>
				<time>2015-05-07T02:17:03Z</time>
				<extensions>
				</extensions>
			</trkpt>
			<trkpt lat="-28.172295" lon="152.972633">
				<ele>109</ele>
				<time>2015-05-07T02:17:04Z</time>
				<extensions>
				</extensions>
			</trkpt>
			<trkpt lat="-28.172395" lon="152.972416">
				<ele>110</ele>
				<time>2015-05-07T02:17:05Z</time>
				<extensions>
				</extensions>
			</trkpt>
			<trkpt lat="-28.172497" lon="152.972213">
				<ele>110</ele>
				<time>2015-05-07T02:17:06Z</time>
				<extensions>
				</extensions>
			</trkpt>
			<trkpt lat="-28.172592" lon="152.972010">
				<ele>113</ele>
				<time>2015-05-07T02:17:07Z</time>
				<extensions>
				</extensions>
			</trkpt>
			<trkpt lat="-28.172683" lon="152.971810">
				<ele>112</ele>
				<time>2015-05-07T02:17:08Z</time>
				<extensions>
				</extensions>
			</trkpt>
			<trkpt lat="-28.172776" lon="152.971617">
				<ele>112</ele>
				<time>2015-05-07T02:17:09Z</time>
				<extensions>
				</extensions>
			</trkpt>
			<trkpt lat="-28.172862" lon="152.971432">
				<ele>112</ele>
				<time>2015-05-07T02:17:10Z</time>
				<extensions>
				</extensions>
			</trkpt>
			<trkpt lat="-28.173026" lon="152.971085">
				<ele>108</ele>
				<time>2015-05-07T02:17:12Z</time>
				<extensions>
				</extensions>
			</trkpt>
			<trkpt lat="-28.173144" lon="152.970728">
				<ele>106</ele>
				<time>2015-05-07T02:17:14Z</time>
				<extensions>
				</extensions>
			</trkpt>
			<trkpt lat="-28.173170" lon="152.970310">
				<ele>106</ele>
				<time>2015-05-07T02:17:16Z</time>
				<extensions>
				</extensions>
			</trkpt>
			<trkpt lat="-28.173165" lon="152.970093">
				<ele>107</ele>
				<time>2015-05-07T02:17:17Z</time>
				<extensions>
				</extensions>
			</trkpt>
			<trkpt lat="-28.173157" lon="152.969868">
				<ele>109</ele>
				<time>2015-05-07T02:17:18Z</time>
				<extensions>
				</extensions>
			</trkpt>
			<trkpt lat="-28.173172" lon="152.969629">
				<ele>110</ele>
				<time>2015-05-07T02:17:19Z</time>
				<extensions>
				</extensions>
			</trkpt>
			<trkpt lat="-28.173169" lon="152.969374">
				<ele>109</ele>
				<time>2015-05-07T02:17:20Z</time>
				<extensions>
				</extensions>
			</trkpt>
			<trkpt lat="-28.173155" lon="152.969146">
				<ele>111</ele>
				<time>2015-05-07T02:17:21Z</time>
				<extensions>
				</extensions>
			</trkpt>
			<trkpt lat="-28.173122" lon="152.968914">
				<ele>111</ele>
				<time>2015-05-07T02:17:22Z</time>
				<extensions>
				</extensions>
			</trkpt>
			<trkpt lat="-28.173112" lon="152.968680">
				<ele>109</ele>
				<time>2015-05-07T02:17:23Z</time>
				<extensions>
				</extensions>
			</trkpt>
			<trkpt lat="-28.173109" lon="152.968453">
				<ele>108</ele>
				<time>2015-05-07T02:17:24Z</time>
				<extensions>
				</extensions>
			</trkpt>
			<trkpt lat="-28.173106" lon="152.968222">
				<ele>109</ele>
				<time>2015-05-07T02:17:25Z</time>
				<extensions>
				</extensions>
			</trkpt>
			<trkpt lat="-28.173090" lon="152.967995">
				<ele>108</ele>
				<time>2015-05-07T02:17:26Z</time>
				<extensions>
				</extensions>
			</trkpt>
			<trkpt lat="-28.173079" lon="152.967759">
				<ele>108</ele>
				<time>2015-05-07T02:17:27Z</time>
				<extensions>
				</extensions>
			</trkpt>
			<trkpt lat="-28.173059" lon="152.967519">
				<ele>108</ele>
				<time>2015-05-07T02:17:28Z</time>
				<extensions>
				</extensions>
			</trkpt>
			<trkpt lat="-28.173045" lon="152.967282">
				<ele>109</ele>
				<time>2015-05-07T02:17:29Z</time>
				<extensions>
				</extensions>
			</trkpt>
			<trkpt lat="-28.173028" lon="152.967041">
				<ele>110</ele>
				<time>2015-05-07T02:17:30Z</time>
				<extensions>
				</extensions>
			</trkpt>
			<trkpt lat="-28.173018" lon="152.966796">
				<ele>110</ele>
				<time>2015-05-07T02:17:31Z</time>
				<extensions>
				</extensions>
			</trkpt>
			<trkpt lat="-28.172998" lon="152.966543">
				<ele>111</ele>
				<time>2015-05-07T02:17:32Z</time>
				<extensions>
				</extensions>
			</trkpt>
			<trkpt lat="-28.172982" lon="152.966282">
				<ele>113</ele>
				<time>2015-05-07T02:17:33Z</time>
				<extensions>
				</extensions>
			</trkpt>
			<trkpt lat="-28.172966" lon="152.966023">
				<ele>115</ele>
				<time>2015-05-07T02:17:34Z</time>
				<extensions>
				</extensions>
			</trkpt>
			<trkpt lat="-28.172940" lon="152.965785">
				<ele>116</ele>
				<time>2015-05-07T02:17:35Z</time>
				<extensions>
				</extensions>
			</trkpt>
			<trkpt lat="-28.172926" lon="152.965541">
				<ele>117</ele>
				<time>2015-05-07T02:17:36Z</time>
				<extensions>
				</extensions>
			</trkpt>
			<trkpt lat="-28.172911" lon="152.965323">
				<ele>117</ele>
				<time>2015-05-07T02:17:37Z</time>
				<extensions>
				</extensions>
			</trkpt>
			<trkpt lat="-28.172903" lon="152.965103">
				<ele>116</ele>
				<time>2015-05-07T02:17:38Z</time>
				<extensions>
				</extensions>
			</trkpt>
			<trkpt lat="-28.172880" lon="152.964887">
				<ele>117</ele>
				<time>2015-05-07T02:17:39Z</time>
				<extensions>
				</extensions>
			</trkpt>
			<trkpt lat="-28.172869" lon="152.964684">
				<ele>118</ele>
				<time>2015-05-07T02:17:40Z</time>
				<extensions>
				</extensions>
			</trkpt>
			<trkpt lat="-28.172855" lon="152.964480">
				<ele>118</ele>
				<time>2015-05-07T02:17:41Z</time>
				<extensions>
				</extensions>
			</trkpt>
			<trkpt lat="-28.172859" lon="152.964103">
				<ele>118</ele>
				<time>2015-05-07T02:17:43Z</time>
				<extensions>
				</extensions>
			</trkpt>
			<trkpt lat="-28.172869" lon="152.963885">
				<ele>118</ele>
				<time>2015-05-07T02:17:44Z</time>
				<extensions>
				</extensions>
			</trkpt>
			<trkpt lat="-28.172925" lon="152.963488">
				<ele>118</ele>
				<time>2015-05-07T02:17:46Z</time>
				<extensions>
				</extensions>
			</trkpt>
			<trkpt lat="-28.173024" lon="152.963115">
				<ele>121</ele>
				<time>2015-05-07T02:17:48Z</time>
				<extensions>
				</extensions>
			</trkpt>
			<trkpt lat="-28.173087" lon="152.962918">
				<ele>123</ele>
				<time>2015-05-07T02:17:49Z</time>
				<extensions>
				</extensions>
			</trkpt>
			<trkpt lat="-28.173148" lon="152.962719">
				<ele>125</ele>
				<time>2015-05-07T02:17:50Z</time>
				<extensions>
				</extensions>
			</trkpt>
			<trkpt lat="-28.173208" lon="152.962500">
				<ele>127</ele>
				<time>2015-05-07T02:17:51Z</time>
				<extensions>
				</extensions>
			</trkpt>
			<trkpt lat="-28.173277" lon="152.962251">
				<ele>129</ele>
				<time>2015-05-07T02:17:52Z</time>
				<extensions>
				</extensions>
			</trkpt>
			<trkpt lat="-28.173345" lon="152.962023">
				<ele>131</ele>
				<time>2015-05-07T02:17:53Z</time>
				<extensions>
				</extensions>
			</trkpt>
			<trkpt lat="-28.173415" lon="152.961792">
				<ele>131</ele>
				<time>2015-05-07T02:17:54Z</time>
				<extensions>
				</extensions>
			</trkpt>
			<trkpt lat="-28.173488" lon="152.961578">
				<ele>131</ele>
				<time>2015-05-07T02:17:55Z</time>
				<extensions>
				</extensions>
			</trkpt>
			<trkpt lat="-28.173539" lon="152.961356">
				<ele>131</ele>
				<time>2015-05-07T02:17:56Z</time>
				<extensions>
				</extensions>
			</trkpt>
			<trkpt lat="-28.173602" lon="152.961141">
				<ele>133</ele>
				<time>2015-05-07T02:17:57Z</time>
				<extensions>
				</extensions>
			</trkpt>
			<trkpt lat="-28.173686" lon="152.960772">
				<ele>134</ele>
				<time>2015-05-07T02:17:59Z</time>
				<extensions>
				</extensions>
			</trkpt>
			<trkpt lat="-28.173757" lon="152.960564">
				<ele>134</ele>
				<time>2015-05-07T02:18:00Z</time>
				<extensions>
				</extensions>
			</trkpt>
			<trkpt lat="-28.173826" lon="152.960350">
				<ele>136</ele>
				<time>2015-05-07T02:18:01Z</time>
				<extensions>
				</extensions>
			</trkpt>
			<trkpt lat="-28.173895" lon="152.960143">
				<ele>138</ele>
				<time>2015-05-07T02:18:02Z</time>
				<extensions>
				</extensions>
			</trkpt>
			<trkpt lat="-28.173960" lon="152.959933">
				<ele>140</ele>
				<time>2015-05-07T02:18:03Z</time>
				<extensions>
				</extensions>
			</trkpt>
			<trkpt lat="-28.174017" lon="152.959733">
				<ele>140</ele>
				<time>2015-05-07T02:18:04Z</time>
				<extensions>
				</extensions>
			</trkpt>
			<trkpt lat="-28.174127" lon="152.959335">
				<ele>144</ele>
				<time>2015-05-07T02:18:06Z</time>
				<extensions>
				</extensions>
			</trkpt>
			<trkpt lat="-28.174181" lon="152.959141">
				<ele>146</ele>
				<time>2015-05-07T02:18:07Z</time>
				<extensions>
				</extensions>
			</trkpt>
			<trkpt lat="-28.174299" lon="152.958768">
				<ele>146</ele>
				<time>2015-05-07T02:18:09Z</time>
				<extensions>
				</extensions>
			</trkpt>
			<trkpt lat="-28.174420" lon="152.958391">
				<ele>150</ele>
				<time>2015-05-07T02:18:11Z</time>
				<extensions>
				</extensions>
			</trkpt>
			<trkpt lat="-28.174483" lon="152.958184">
				<ele>150</ele>
				<time>2015-05-07T02:18:12Z</time>
				<extensions>
				</extensions>
			</trkpt>
			<trkpt lat="-28.174542" lon="152.957972">
				<ele>149</ele>
				<time>2015-05-07T02:18:13Z</time>
				<extensions>
				</extensions>
			</trkpt>
			<trkpt lat="-28.174607" lon="152.957746">
				<ele>148</ele>
				<time>2015-05-07T02:18:14Z</time>
				<extensions>
				</extensions>
			</trkpt>
			<trkpt lat="-28.174678" lon="152.957514">
				<ele>147</ele>
				<time>2015-05-07T02:18:15Z</time>
				<extensions>
				</extensions>
			</trkpt>
			<trkpt lat="-28.174753" lon="152.957288">
				<ele>147</ele>
				<time>2015-05-07T02:18:16Z</time>
				<extensions>
				</extensions>
			</trkpt>
			<trkpt lat="-28.174819" lon="152.957049">
				<ele>146</ele>
				<time>2015-05-07T02:18:17Z</time>
				<extensions>
				</extensions>
			</trkpt>
			<trkpt lat="-28.174876" lon="152.956818">
				<ele>143</ele>
				<time>2015-05-07T02:18:18Z</time>
				<extensions>
				</extensions>
			</trkpt>
			<trkpt lat="-28.174951" lon="152.956589">
				<ele>142</ele>
				<time>2015-05-07T02:18:19Z</time>
				<extensions>
				</extensions>
			</trkpt>
			<trkpt lat="-28.175049" lon="152.956386">
				<ele>138</ele>
				<time>2015-05-07T02:18:20Z</time>
				<extensions>
				</extensions>
			</trkpt>
			<trkpt lat="-28.175154" lon="152.956167">
				<ele>135</ele>
				<time>2015-05-07T02:18:21Z</time>
				<extensions>
				</extensions>
			</trkpt>
			<trkpt lat="-28.175256" lon="152.955968">
				<ele>136</ele>
				<time>2015-05-07T02:18:22Z</time>
				<extensions>
				</extensions>
			</trkpt>
			<trkpt lat="-28.175355" lon="152.955773">
				<ele>132</ele>
				<time>2015-05-07T02:18:23Z</time>
				<extensions>
				</extensions>
			</trkpt>
			<trkpt lat="-28.175463" lon="152.955561">
				<ele>128</ele>
				<time>2015-05-07T02:18:24Z</time>
				<extensions>
				</extensions>
			</trkpt>
			<trkpt lat="-28.175565" lon="152.955359">
				<ele>127</ele>
				<time>2015-05-07T02:18:25Z</time>
				<extensions>
				</extensions>
			</trkpt>
			<trkpt lat="-28.175669" lon="152.955173">
				<ele>126</ele>
				<time>2015-05-07T02:18:26Z</time>
				<extensions>
				</extensions>
			</trkpt>
			<trkpt lat="-28.175774" lon="152.954982">
				<ele>124</ele>
				<time>2015-05-07T02:18:27Z</time>
				<extensions>
				</extensions>
			</trkpt>
			<trkpt lat="-28.175876" lon="152.954784">
				<ele>122</ele>
				<time>2015-05-07T02:18:28Z</time>
				<extensions>
				</extensions>
			</trkpt>
			<trkpt lat="-28.175972" lon="152.954583">
				<ele>120</ele>
				<time>2015-05-07T02:18:29Z</time>
				<extensions>
				</extensions>
			</trkpt>
			<trkpt lat="-28.176058" lon="152.954392">
				<ele>119</ele>
				<time>2015-05-07T02:18:30Z</time>
				<extensions>
				</extensions>
			</trkpt>
			<trkpt lat="-28.176167" lon="152.954193">
				<ele>118</ele>
				<time>2015-05-07T02:18:31Z</time>
				<extensions>
				</extensions>
			</trkpt>
			<trkpt lat="-28.176259" lon="152.953992">
				<ele>117</ele>
				<time>2015-05-07T02:18:32Z</time>
				<extensions>
				</extensions>
			</trkpt>
			<trkpt lat="-28.176374" lon="152.953769">
				<ele>116</ele>
				<time>2015-05-07T02:18:33Z</time>
				<extensions>
				</extensions>
			</trkpt>
			<trkpt lat="-28.176472" lon="152.953556">
				<ele>116</ele>
				<time>2015-05-07T02:18:34Z</time>
				<extensions>
				</extensions>
			</trkpt>
			<trkpt lat="-28.176568" lon="152.953323">
				<ele>117</ele>
				<time>2015-05-07T02:18:35Z</time>
				<extensions>
				</extensions>
			</trkpt>
			<trkpt lat="-28.176675" lon="152.953111">
				<ele>116</ele>
				<time>2015-05-07T02:18:36Z</time>
				<extensions>
				</extensions>
			</trkpt>
			<trkpt lat="-28.176781" lon="152.952898">
				<ele>114</ele>
				<time>2015-05-07T02:18:37Z</time>
				<extensions>
				</extensions>
			</trkpt>
			<trkpt lat="-28.176877" lon="152.952684">
				<ele>112</ele>
				<time>2015-05-07T02:18:38Z</time>
				<extensions>
				</extensions>
			</trkpt>
			<trkpt lat="-28.176975" lon="152.952478">
				<ele>111</ele>
				<time>2015-05-07T02:18:39Z</time>
				<extensions>
				</extensions>
			</trkpt>
			<trkpt lat="-28.177080" lon="152.952264">
				<ele>111</ele>
				<time>2015-05-07T02:18:40Z</time>
				<extensions>
				</extensions>
			</trkpt>
			<trkpt lat="-28.177189" lon="152.952045">
				<ele>111</ele>
				<time>2015-05-07T02:18:41Z</time>
				<extensions>
				</extensions>
			</trkpt>
			<trkpt lat="-28.177293" lon="152.951834">
				<ele>108</ele>
				<time>2015-05-07T02:18:42Z</time>
				<extensions>
				</extensions>
			</trkpt>
			<trkpt lat="-28.177385" lon="152.951636">
				<ele>107</ele>
				<time>2015-05-07T02:18:43Z</time>
				<extensions>
				</extensions>
			</trkpt>
			<trkpt lat="-28.177490" lon="152.951435">
				<ele>106</ele>
				<time>2015-05-07T02:18:44Z</time>
				<extensions>
				</extensions>
			</trkpt>
			<trkpt lat="-28.177586" lon="152.951239">
				<ele>103</ele>
				<time>2015-05-07T02:18:45Z</time>
				<extensions>
				</extensions>
			</trkpt>
			<trkpt lat="-28.177737" lon="152.950907">
				<ele>98</ele>
				<time>2015-05-07T02:18:47Z</time>
				<extensions>
				</extensions>
			</trkpt>
			<trkpt lat="-28.177915" lon="152.950561">
				<ele>97</ele>
				<time>2015-05-07T02:18:49Z</time>
				<extensions>
				</extensions>
			</trkpt>
			<trkpt lat="-28.178005" lon="152.950363">
				<ele>97</ele>
				<time>2015-05-07T02:18:50Z</time>
				<extensions>
				</extensions>
			</trkpt>
			<trkpt lat="-28.178098" lon="152.950175">
				<ele>98</ele>
				<time>2015-05-07T02:18:51Z</time>
				<extensions>
				</extensions>
			</trkpt>
			<trkpt lat="-28.178210" lon="152.949972">
				<ele>97</ele>
				<time>2015-05-07T02:18:52Z</time>
				<extensions>
				</extensions>
			</trkpt>
			<trkpt lat="-28.178303" lon="152.949783">
				<ele>98</ele>
				<time>2015-05-07T02:18:53Z</time>
				<extensions>
				</extensions>
			</trkpt>
			<trkpt lat="-28.178408" lon="152.949595">
				<ele>98</ele>
				<time>2015-05-07T02:18:54Z</time>
				<extensions>
				</extensions>
			</trkpt>
			<trkpt lat="-28.178504" lon="152.949414">
				<ele>100</ele>
				<time>2015-05-07T02:18:55Z</time>
				<extensions>
				</extensions>
			</trkpt>
			<trkpt lat="-28.178573" lon="152.949221">
				<ele>99</ele>
				<time>2015-05-07T02:18:56Z</time>
				<extensions>
				</extensions>
			</trkpt>
			<trkpt lat="-28.178675" lon="152.949033">
				<ele>99</ele>
				<time>2015-05-07T02:18:57Z</time>
				<extensions>
				</extensions>
			</trkpt>
			<trkpt lat="-28.178747" lon="152.948839">
				<ele>99</ele>
				<time>2015-05-07T02:18:58Z</time>
				<extensions>
				</extensions>
			</trkpt>
			<trkpt lat="-28.178841" lon="152.948648">
				<ele>100</ele>
				<time>2015-05-07T02:18:59Z</time>
				<extensions>
				</extensions>
			</trkpt>
			<trkpt lat="-28.178936" lon="152.948450">
				<ele>100</ele>
				<time>2015-05-07T02:19:00Z</time>
				<extensions>
				</extensions>
			</trkpt>
			<trkpt lat="-28.179027" lon="152.948269">
				<ele>97</ele>
				<time>2015-05-07T02:19:01Z</time>
				<extensions>
				</extensions>
			</trkpt>
			<trkpt lat="-28.179103" lon="152.948080">
				<ele>97</ele>
				<time>2015-05-07T02:19:02Z</time>
				<extensions>
				</extensions>
			</trkpt>
			<trkpt lat="-28.179202" lon="152.947714">
				<ele>94</ele>
				<time>2015-05-07T02:19:04Z</time>
				<extensions>
				</extensions>
			</trkpt>
			<trkpt lat="-28.179269" lon="152.947300">
				<ele>96</ele>
				<time>2015-05-07T02:19:06Z</time>
				<extensions>
				</extensions>
			</trkpt>
			<trkpt lat="-28.179240" lon="152.947075">
				<ele>98</ele>
				<time>2015-05-07T02:19:07Z</time>
				<extensions>
				</extensions>
			</trkpt>
			<trkpt lat="-28.179205" lon="152.946847">
				<ele>99</ele>
				<time>2015-05-07T02:19:08Z</time>
				<extensions>
				</extensions>
			</trkpt>
			<trkpt lat="-28.179155" lon="152.946623">
				<ele>101</ele>
				<time>2015-05-07T02:19:09Z</time>
				<extensions>
				</extensions>
			</trkpt>
			<trkpt lat="-28.179119" lon="152.946406">
				<ele>101</ele>
				<time>2015-05-07T02:19:10Z</time>
				<extensions>
				</extensions>
			</trkpt>
			<trkpt lat="-28.179073" lon="152.946183">
				<ele>103</ele>
				<time>2015-05-07T02:19:11Z</time>
				<extensions>
				</extensions>
			</trkpt>
			<trkpt lat="-28.179036" lon="152.945959">
				<ele>104</ele>
				<time>2015-05-07T02:19:12Z</time>
				<extensions>
				</extensions>
			</trkpt>
			<trkpt lat="-28.178993" lon="152.945733">
				<ele>105</ele>
				<time>2015-05-07T02:19:13Z</time>
				<extensions>
				</extensions>
			</trkpt>
			<trkpt lat="-28.178947" lon="152.945520">
				<ele>104</ele>
				<time>2015-05-07T02:19:14Z</time>
				<extensions>
				</extensions>
			</trkpt>
			<trkpt lat="-28.178912" lon="152.945298">
				<ele>100</ele>
				<time>2015-05-07T02:19:15Z</time>
				<extensions>
				</extensions>
			</trkpt>
			<trkpt lat="-28.178870" lon="152.945077">
				<ele>102</ele>
				<time>2015-05-07T02:19:16Z</time>
				<extensions>
				</extensions>
			</trkpt>
			<trkpt lat="-28.178829" lon="152.944856">
				<ele>101</ele>
				<time>2015-05-07T02:19:17Z</time>
				<extensions>
				</extensions>
			</trkpt>
			<trkpt lat="-28.178790" lon="152.944633">
				<ele>103</ele>
				<time>2015-05-07T02:19:18Z</time>
				<extensions>
				</extensions>
			</trkpt>
			<trkpt lat="-28.178746" lon="152.944412">
				<ele>104</ele>
				<time>2015-05-07T02:19:19Z</time>
				<extensions>
				</extensions>
			</trkpt>
			<trkpt lat="-28.178705" lon="152.944194">
				<ele>104</ele>
				<time>2015-05-07T02:19:20Z</time>
				<extensions>
				</extensions>
			</trkpt>
			<trkpt lat="-28.178670" lon="152.943973">
				<ele>106</ele>
				<time>2015-05-07T02:19:21Z</time>
				<extensions>
				</extensions>
			</trkpt>
			<trkpt lat="-28.178630" lon="152.943758">
				<ele>107</ele>
				<time>2015-05-07T02:19:22Z</time>
				<extensions>
				</extensions>
			</trkpt>
			<trkpt lat="-28.178591" lon="152.943554">
				<ele>104</ele>
				<time>2015-05-07T02:19:23Z</time>
				<extensions>
				</extensions>
			</trkpt>
			<trkpt lat="-28.178552" lon="152.943350">
				<ele>104</ele>
				<time>2015-05-07T02:19:24Z</time>
				<extensions>
				</extensions>
			</trkpt>
			<trkpt lat="-28.178518" lon="152.943140">
				<ele>104</ele>
				<time>2015-05-07T02:19:25Z</time>
				<extensions>
				</extensions>
			</trkpt>
			<trkpt lat="-28.178480" lon="152.942925">
				<ele>104</ele>
				<time>2015-05-07T02:19:26Z</time>
				<extensions>
				</extensions>
			</trkpt>
			<trkpt lat="-28.178441" lon="152.942709">
				<ele>105</ele>
				<time>2015-05-07T02:19:27Z</time>
				<extensions>
				</extensions>
			</trkpt>
			<trkpt lat="-28.178399" lon="152.942486">
				<ele>106</ele>
				<time>2015-05-07T02:19:28Z</time>
				<extensions>
				</extensions>
			</trkpt>
			<trkpt lat="-28.178360" lon="152.942258">
				<ele>106</ele>
				<time>2015-05-07T02:19:29Z</time>
				<extensions>
				</extensions>
			</trkpt>
			<trkpt lat="-28.178322" lon="152.942038">
				<ele>106</ele>
				<time>2015-05-07T02:19:30Z</time>
				<extensions>
				</extensions>
			</trkpt>
			<trkpt lat="-28.178276" lon="152.941808">
				<ele>107</ele>
				<time>2015-05-07T02:19:31Z</time>
				<extensions>
				</extensions>
			</trkpt>
			<trkpt lat="-28.178229" lon="152.941588">
				<ele>107</ele>
				<time>2015-05-07T02:19:32Z</time>
				<extensions>
				</extensions>
			</trkpt>
			<trkpt lat="-28.178183" lon="152.941381">
				<ele>107</ele>
				<time>2015-05-07T02:19:33Z</time>
				<extensions>
				</extensions>
			</trkpt>
			<trkpt lat="-28.178134" lon="152.941174">
				<ele>106</ele>
				<time>2015-05-07T02:19:34Z</time>
				<extensions>
				</extensions>
			</trkpt>
			<trkpt lat="-28.178076" lon="152.940975">
				<ele>108</ele>
				<time>2015-05-07T02:19:35Z</time>
				<extensions>
				</extensions>
			</trkpt>
			<trkpt lat="-28.178011" lon="152.940783">
				<ele>110</ele>
				<time>2015-05-07T02:19:36Z</time>
				<extensions>
				</extensions>
			</trkpt>
			<trkpt lat="-28.177935" lon="152.940590">
				<ele>111</ele>
				<time>2015-05-07T02:19:37Z</time>
				<extensions>
				</extensions>
			</trkpt>
			<trkpt lat="-28.177858" lon="152.940403">
				<ele>110</ele>
				<time>2015-05-07T02:19:38Z</time>
				<extensions>
				</extensions>
			</trkpt>
			<trkpt lat="-28.177771" lon="152.940215">
				<ele>109</ele>
				<time>2015-05-07T02:19:39Z</time>
				<extensions>
				</extensions>
			</trkpt>
			<trkpt lat="-28.177675" lon="152.940005">
				<ele>109</ele>
				<time>2015-05-07T02:19:40Z</time>
				<extensions>
				</extensions>
			</trkpt>
			<trkpt lat="-28.177583" lon="152.939815">
				<ele>108</ele>
				<time>2015-05-07T02:19:41Z</time>
				<extensions>
				</extensions>
			</trkpt>
			<trkpt lat="-28.177477" lon="152.939609">
				<ele>107</ele>
				<time>2015-05-07T02:19:42Z</time>
				<extensions>
				</extensions>
			</trkpt>
			<trkpt lat="-28.177396" lon="152.939419">
				<ele>104</ele>
				<time>2015-05-07T02:19:43Z</time>
				<extensions>
				</extensions>
			</trkpt>
			<trkpt lat="-28.177308" lon="152.939223">
				<ele>104</ele>
				<time>2015-05-07T02:19:44Z</time>
				<extensions>
				</extensions>
			</trkpt>
			<trkpt lat="-28.177228" lon="152.939035">
				<ele>102</ele>
				<time>2015-05-07T02:19:45Z</time>
				<extensions>
				</extensions>
			</trkpt>
			<trkpt lat="-28.177147" lon="152.938838">
				<ele>100</ele>
				<time>2015-05-07T02:19:46Z</time>
				<extensions>
				</extensions>
			</trkpt>
			<trkpt lat="-28.177052" lon="152.938639">
				<ele>99</ele>
				<time>2015-05-07T02:19:47Z</time>
				<extensions>
				</extensions>
			</trkpt>
			<trkpt lat="-28.176957" lon="152.938448">
				<ele>98</ele>
				<time>2015-05-07T02:19:48Z</time>
				<extensions>
				</extensions>
			</trkpt>
			<trkpt lat="-28.176877" lon="152.938256">
				<ele>99</ele>
				<time>2015-05-07T02:19:49Z</time>
				<extensions>
				</extensions>
			</trkpt>
			<trkpt lat="-28.176795" lon="152.938064">
				<ele>97</ele>
				<time>2015-05-07T02:19:50Z</time>
				<extensions>
				</extensions>
			</trkpt>
			<trkpt lat="-28.176699" lon="152.937861">
				<ele>96</ele>
				<time>2015-05-07T02:19:51Z</time>
				<extensions>
				</extensions>
			</trkpt>
			<trkpt lat="-28.176614" lon="152.937679">
				<ele>96</ele>
				<time>2015-05-07T02:19:52Z</time>
				<extensions>
				</extensions>
			</trkpt>
			<trkpt lat="-28.176453" lon="152.937329">
				<ele>94</ele>
				<time>2015-05-07T02:19:54Z</time>
				<extensions>
				</extensions>
			</trkpt>
			<trkpt lat="-28.176301" lon="152.936982">
				<ele>91</ele>
				<time>2015-05-07T02:19:56Z</time>
				<extensions>
				</extensions>
			</trkpt>
			<trkpt lat="-28.176136" lon="152.936627">
				<ele>89</ele>
				<time>2015-05-07T02:19:58Z</time>
				<extensions>
				</extensions>
			</trkpt>
			<trkpt lat="-28.175977" lon="152.936274">
				<ele>86</ele>
				<time>2015-05-07T02:20:00Z</time>
				<extensions>
				</extensions>
			</trkpt>
			<trkpt lat="-28.175889" lon="152.936089">
				<ele>86</ele>
				<time>2015-05-07T02:20:01Z</time>
				<extensions>
				</extensions>
			</trkpt>
			<trkpt lat="-28.175739" lon="152.935745">
				<ele>83</ele>
				<time>2015-05-07T02:20:03Z</time>
				<extensions>
				</extensions>
			</trkpt>
			<trkpt lat="-28.175582" lon="152.935414">
				<ele>81</ele>
				<time>2015-05-07T02:20:05Z</time>
				<extensions>
				</extensions>
			</trkpt>
			<trkpt lat="-28.175457" lon="152.935110">
				<ele>79</ele>
				<time>2015-05-07T02:20:07Z</time>
				<extensions>
				</extensions>
			</trkpt>
			<trkpt lat="-28.175370" lon="152.934795">
				<ele>82</ele>
				<time>2015-05-07T02:20:09Z</time>
				<extensions>
				</extensions>
			</trkpt>
			<trkpt lat="-28.175379" lon="152.934482">
				<ele>81</ele>
				<time>2015-05-07T02:20:11Z</time>
				<extensions>
				</extensions>
			</trkpt>
			<trkpt lat="-28.175400" lon="152.934187">
				<ele>79</ele>
				<time>2015-05-07T02:20:13Z</time>
				<extensions>
				</extensions>
			</trkpt>
			<trkpt lat="-28.175428" lon="152.933947">
				<ele>78</ele>
				<time>2015-05-07T02:20:15Z</time>
				<extensions>
				</extensions>
			</trkpt>
			<trkpt lat="-28.175448" lon="152.933728">
				<ele>76</ele>
				<time>2015-05-07T02:20:17Z</time>
				<extensions>
				</extensions>
			</trkpt>
			<trkpt lat="-28.175472" lon="152.933414">
				<ele>77</ele>
				<time>2015-05-07T02:20:20Z</time>
				<extensions>
				</extensions>
			</trkpt>
			<trkpt lat="-28.175450" lon="152.933155">
				<ele>78</ele>
				<time>2015-05-07T02:20:22Z</time>
				<extensions>
				</extensions>
			</trkpt>
			<trkpt lat="-28.175375" lon="152.932845">
				<ele>81</ele>
				<time>2015-05-07T02:20:24Z</time>
				<extensions>
				</extensions>
			</trkpt>
			<trkpt lat="-28.175287" lon="152.932488">
				<ele>84</ele>
				<time>2015-05-07T02:20:26Z</time>
				<extensions>
				</extensions>
			</trkpt>
			<trkpt lat="-28.175193" lon="152.932103">
				<ele>85</ele>
				<time>2015-05-07T02:20:28Z</time>
				<extensions>
				</extensions>
			</trkpt>
			<trkpt lat="-28.175143" lon="152.931899">
				<ele>84</ele>
				<time>2015-05-07T02:20:29Z</time>
				<extensions>
				</extensions>
			</trkpt>
			<trkpt lat="-28.175050" lon="152.931515">
				<ele>83</ele>
				<time>2015-05-07T02:20:31Z</time>
				<extensions>
				</extensions>
			</trkpt>
			<trkpt lat="-28.174952" lon="152.931117">
				<ele>83</ele>
				<time>2015-05-07T02:20:33Z</time>
				<extensions>
				</extensions>
			</trkpt>
			<trkpt lat="-28.174902" lon="152.930914">
				<ele>83</ele>
				<time>2015-05-07T02:20:34Z</time>
				<extensions>
				</extensions>
			</trkpt>
			<trkpt lat="-28.174851" lon="152.930706">
				<ele>84</ele>
				<time>2015-05-07T02:20:35Z</time>
				<extensions>
				</extensions>
			</trkpt>
			<trkpt lat="-28.174801" lon="152.930503">
				<ele>84</ele>
				<time>2015-05-07T02:20:36Z</time>
				<extensions>
				</extensions>
			</trkpt>
			<trkpt lat="-28.174734" lon="152.930305">
				<ele>83</ele>
				<time>2015-05-07T02:20:37Z</time>
				<extensions>
				</extensions>
			</trkpt>
			<trkpt lat="-28.174683" lon="152.930104">
				<ele>82</ele>
				<time>2015-05-07T02:20:38Z</time>
				<extensions>
				</extensions>
			</trkpt>
			<trkpt lat="-28.174632" lon="152.929902">
				<ele>82</ele>
				<time>2015-05-07T02:20:39Z</time>
				<extensions>
				</extensions>
			</trkpt>
			<trkpt lat="-28.174581" lon="152.929696">
				<ele>81</ele>
				<time>2015-05-07T02:20:40Z</time>
				<extensions>
				</extensions>
			</trkpt>
			<trkpt lat="-28.174540" lon="152.929497">
				<ele>82</ele>
				<time>2015-05-07T02:20:41Z</time>
				<extensions>
				</extensions>
			</trkpt>
			<trkpt lat="-28.174483" lon="152.929277">
				<ele>82</ele>
				<time>2015-05-07T02:20:42Z</time>
				<extensions>
				</extensions>
			</trkpt>
			<trkpt lat="-28.174427" lon="152.929065">
				<ele>82</ele>
				<time>2015-05-07T02:20:43Z</time>
				<extensions>
				</extensions>
			</trkpt>
			<trkpt lat="-28.174371" lon="152.928853">
				<ele>80</ele>
				<time>2015-05-07T02:20:44Z</time>
				<extensions>
				</extensions>
			</trkpt>
			<trkpt lat="-28.174315" lon="152.928643">
				<ele>80</ele>
				<time>2015-05-07T02:20:45Z</time>
				<extensions>
				</extensions>
			</trkpt>
			<trkpt lat="-28.174255" lon="152.928439">
				<ele>80</ele>
				<time>2015-05-07T02:20:46Z</time>
				<extensions>
				</extensions>
			</trkpt>
			<trkpt lat="-28.174183" lon="152.928223">
				<ele>80</ele>
				<time>2015-05-07T02:20:47Z</time>
				<extensions>
				</extensions>
			</trkpt>
			<trkpt lat="-28.174070" lon="152.928025">
				<ele>80</ele>
				<time>2015-05-07T02:20:48Z</time>
				<extensions>
				</extensions>
			</trkpt>
			<trkpt lat="-28.173986" lon="152.927822">
				<ele>80</ele>
				<time>2015-05-07T02:20:49Z</time>
				<extensions>
				</extensions>
			</trkpt>
			<trkpt lat="-28.173897" lon="152.927609">
				<ele>81</ele>
				<time>2015-05-07T02:20:50Z</time>
				<extensions>
				</extensions>
			</trkpt>
			<trkpt lat="-28.173803" lon="152.927398">
				<ele>83</ele>
				<time>2015-05-07T02:20:51Z</time>
				<extensions>
				</extensions>
			</trkpt>
			<trkpt lat="-28.173694" lon="152.927196">
				<ele>82</ele>
				<time>2015-05-07T02:20:52Z</time>
				<extensions>
				</extensions>
			</trkpt>
			<trkpt lat="-28.173621" lon="152.926997">
				<ele>83</ele>
				<time>2015-05-07T02:20:53Z</time>
				<extensions>
				</extensions>
			</trkpt>
			<trkpt lat="-28.173522" lon="152.926791">
				<ele>83</ele>
				<time>2015-05-07T02:20:54Z</time>
				<extensions>
				</extensions>
			</trkpt>
			<trkpt lat="-28.173428" lon="152.926581">
				<ele>81</ele>
				<time>2015-05-07T02:20:55Z</time>
				<extensions>
				</extensions>
			</trkpt>
			<trkpt lat="-28.173339" lon="152.926374">
				<ele>82</ele>
				<time>2015-05-07T02:20:56Z</time>
				<extensions>
				</extensions>
			</trkpt>
			<trkpt lat="-28.173243" lon="152.926158">
				<ele>82</ele>
				<time>2015-05-07T02:20:57Z</time>
				<extensions>
				</extensions>
			</trkpt>
			<trkpt lat="-28.173130" lon="152.925931">
				<ele>84</ele>
				<time>2015-05-07T02:20:58Z</time>
				<extensions>
				</extensions>
			</trkpt>
			<trkpt lat="-28.173018" lon="152.925703">
				<ele>83</ele>
				<time>2015-05-07T02:20:59Z</time>
				<extensions>
				</extensions>
			</trkpt>
			<trkpt lat="-28.172920" lon="152.925481">
				<ele>85</ele>
				<time>2015-05-07T02:21:00Z</time>
				<extensions>
				</extensions>
			</trkpt>
			<trkpt lat="-28.172810" lon="152.925256">
				<ele>86</ele>
				<time>2015-05-07T02:21:01Z</time>
				<extensions>
				</extensions>
			</trkpt>
			<trkpt lat="-28.172699" lon="152.925037">
				<ele>85</ele>
				<time>2015-05-07T02:21:02Z</time>
				<extensions>
				</extensions>
			</trkpt>
			<trkpt lat="-28.172593" lon="152.924804">
				<ele>86</ele>
				<time>2015-05-07T02:21:03Z</time>
				<extensions>
				</extensions>
			</trkpt>
			<trkpt lat="-28.172491" lon="152.924584">
				<ele>88</ele>
				<time>2015-05-07T02:21:04Z</time>
				<extensions>
				</extensions>
			</trkpt>
			<trkpt lat="-28.172387" lon="152.924355">
				<ele>91</ele>
				<time>2015-05-07T02:21:05Z</time>
				<extensions>
				</extensions>
			</trkpt>
			<trkpt lat="-28.172285" lon="152.924126">
				<ele>92</ele>
				<time>2015-05-07T02:21:06Z</time>
				<extensions>
				</extensions>
			</trkpt>
			<trkpt lat="-28.172198" lon="152.923919">
				<ele>92</ele>
				<time>2015-05-07T02:21:07Z</time>
				<extensions>
				</extensions>
			</trkpt>
			<trkpt lat="-28.172100" lon="152.923720">
				<ele>91</ele>
				<time>2015-05-07T02:21:08Z</time>
				<extensions>
				</extensions>
			</trkpt>
			<trkpt lat="-28.172010" lon="152.923508">
				<ele>90</ele>
				<time>2015-05-07T02:21:09Z</time>
				<extensions>
				</extensions>
			</trkpt>
			<trkpt lat="-28.171903" lon="152.923297">
				<ele>91</ele>
				<time>2015-05-07T02:21:10Z</time>
				<extensions>
				</extensions>
			</trkpt>
			<trkpt lat="-28.171805" lon="152.923092">
				<ele>90</ele>
				<time>2015-05-07T02:21:11Z</time>
				<extensions>
				</extensions>
			</trkpt>
			<trkpt lat="-28.171718" lon="152.922882">
				<ele>89</ele>
				<time>2015-05-07T02:21:12Z</time>
				<extensions>
				</extensions>
			</trkpt>
			<trkpt lat="-28.171663" lon="152.922677">
				<ele>90</ele>
				<time>2015-05-07T02:21:13Z</time>
				<extensions>
				</extensions>
			</trkpt>
			<trkpt lat="-28.171604" lon="152.922452">
				<ele>88</ele>
				<time>2015-05-07T02:21:14Z</time>
				<extensions>
				</extensions>
			</trkpt>
			<trkpt lat="-28.171550" lon="152.922231">
				<ele>89</ele>
				<time>2015-05-07T02:21:15Z</time>
				<extensions>
				</extensions>
			</trkpt>
			<trkpt lat="-28.171502" lon="152.922012">
				<ele>88</ele>
				<time>2015-05-07T02:21:16Z</time>
				<extensions>
				</extensions>
			</trkpt>
			<trkpt lat="-28.171456" lon="152.921785">
				<ele>87</ele>
				<time>2015-05-07T02:21:17Z</time>
				<extensions>
				</extensions>
			</trkpt>
			<trkpt lat="-28.171408" lon="152.921566">
				<ele>89</ele>
				<time>2015-05-07T02:21:18Z</time>
				<extensions>
				</extensions>
			</trkpt>
			<trkpt lat="-28.171367" lon="152.921354">
				<ele>87</ele>
				<time>2015-05-07T02:21:19Z</time>
				<extensions>
				</extensions>
			</trkpt>
			<trkpt lat="-28.171306" lon="152.920964">
				<ele>83</ele>
				<time>2015-05-07T02:21:21Z</time>
				<extensions>
				</extensions>
			</trkpt>
			<trkpt lat="-28.171282" lon="152.920756">
				<ele>83</ele>
				<time>2015-05-07T02:21:22Z</time>
				<extensions>
				</extensions>
			</trkpt>
			<trkpt lat="-28.171260" lon="152.920547">
				<ele>83</ele>
				<time>2015-05-07T02:21:23Z</time>
				<extensions>
				</extensions>
			</trkpt>
			<trkpt lat="-28.171251" lon="152.920329">
				<ele>85</ele>
				<time>2015-05-07T02:21:24Z</time>
				<extensions>
				</extensions>
			</trkpt>
			<trkpt lat="-28.171234" lon="152.920116">
				<ele>85</ele>
				<time>2015-05-07T02:21:25Z</time>
				<extensions>
				</extensions>
			</trkpt>
			<trkpt lat="-28.171220" lon="152.919908">
				<ele>84</ele>
				<time>2015-05-07T02:21:26Z</time>
				<extensions>
				</extensions>
			</trkpt>
			<trkpt lat="-28.171208" lon="152.919699">
				<ele>84</ele>
				<time>2015-05-07T02:21:27Z</time>
				<extensions>
				</extensions>
			</trkpt>
			<trkpt lat="-28.171202" lon="152.919491">
				<ele>85</ele>
				<time>2015-05-07T02:21:28Z</time>
				<extensions>
				</extensions>
			</trkpt>
			<trkpt lat="-28.171187" lon="152.919277">
				<ele>84</ele>
				<time>2015-05-07T02:21:29Z</time>
				<extensions>
				</extensions>
			</trkpt>
			<trkpt lat="-28.171173" lon="152.919058">
				<ele>82</ele>
				<time>2015-05-07T02:21:30Z</time>
				<extensions>
				</extensions>
			</trkpt>
			<trkpt lat="-28.171131" lon="152.918641">
				<ele>82</ele>
				<time>2015-05-07T02:21:32Z</time>
				<extensions>
				</extensions>
			</trkpt>
			<trkpt lat="-28.171119" lon="152.918402">
				<ele>84</ele>
				<time>2015-05-07T02:21:33Z</time>
				<extensions>
				</extensions>
			</trkpt>
			<trkpt lat="-28.171101" lon="152.918162">
				<ele>83</ele>
				<time>2015-05-07T02:21:34Z</time>
				<extensions>
				</extensions>
			</trkpt>
			<trkpt lat="-28.171088" lon="152.917926">
				<ele>82</ele>
				<time>2015-05-07T02:21:35Z</time>
				<extensions>
				</extensions>
			</trkpt>
			<trkpt lat="-28.171078" lon="152.917694">
				<ele>83</ele>
				<time>2015-05-07T02:21:36Z</time>
				<extensions>
				</extensions>
			</trkpt>
			<trkpt lat="-28.171072" lon="152.917457">
				<ele>84</ele>
				<time>2015-05-07T02:21:37Z</time>
				<extensions>
				</extensions>
			</trkpt>
			<trkpt lat="-28.171058" lon="152.917224">
				<ele>87</ele>
				<time>2015-05-07T02:21:38Z</time>
				<extensions>
				</extensions>
			</trkpt>
			<trkpt lat="-28.171052" lon="152.916989">
				<ele>85</ele>
				<time>2015-05-07T02:21:39Z</time>
				<extensions>
				</extensions>
			</trkpt>
			<trkpt lat="-28.171036" lon="152.916757">
				<ele>83</ele>
				<time>2015-05-07T02:21:40Z</time>
				<extensions>
				</extensions>
			</trkpt>
			<trkpt lat="-28.171000" lon="152.916536">
				<ele>81</ele>
				<time>2015-05-07T02:21:41Z</time>
				<extensions>
				</extensions>
			</trkpt>
			<trkpt lat="-28.170959" lon="152.916321">
				<ele>82</ele>
				<time>2015-05-07T02:21:42Z</time>
				<extensions>
				</extensions>
			</trkpt>
			<trkpt lat="-28.170916" lon="152.916101">
				<ele>81</ele>
				<time>2015-05-07T02:21:43Z</time>
				<extensions>
				</extensions>
			</trkpt>
			<trkpt lat="-28.170858" lon="152.915888">
				<ele>80</ele>
				<time>2015-05-07T02:21:44Z</time>
				<extensions>
				</extensions>
			</trkpt>
			<trkpt lat="-28.170808" lon="152.915668">
				<ele>80</ele>
				<time>2015-05-07T02:21:45Z</time>
				<extensions>
				</extensions>
			</trkpt>
			<trkpt lat="-28.170750" lon="152.915460">
				<ele>79</ele>
				<time>2015-05-07T02:21:46Z</time>
				<extensions>
				</extensions>
			</trkpt>
			<trkpt lat="-28.170691" lon="152.915232">
				<ele>79</ele>
				<time>2015-05-07T02:21:47Z</time>
				<extensions>
				</extensions>
			</trkpt>
			<trkpt lat="-28.170635" lon="152.915001">
				<ele>80</ele>
				<time>2015-05-07T02:21:48Z</time>
				<extensions>
				</extensions>
			</trkpt>
			<trkpt lat="-28.170577" lon="152.914766">
				<ele>79</ele>
				<time>2015-05-07T02:21:49Z</time>
				<extensions>
				</extensions>
			</trkpt>
			<trkpt lat="-28.170515" lon="152.914532">
				<ele>79</ele>
				<time>2015-05-07T02:21:50Z</time>
				<extensions>
				</extensions>
			</trkpt>
			<trkpt lat="-28.170454" lon="152.914291">
				<ele>80</ele>
				<time>2015-05-07T02:21:51Z</time>
				<extensions>
				</extensions>
			</trkpt>
			<trkpt lat="-28.170396" lon="152.914060">
				<ele>81</ele>
				<time>2015-05-07T02:21:52Z</time>
				<extensions>
				</extensions>
			</trkpt>
			<trkpt lat="-28.170338" lon="152.913822">
				<ele>80</ele>
				<time>2015-05-07T02:21:53Z</time>
				<extensions>
				</extensions>
			</trkpt>
			<trkpt lat="-28.170276" lon="152.913582">
				<ele>80</ele>
				<time>2015-05-07T02:21:54Z</time>
				<extensions>
				</extensions>
			</trkpt>
			<trkpt lat="-28.170208" lon="152.913339">
				<ele>79</ele>
				<time>2015-05-07T02:21:55Z</time>
				<extensions>
				</extensions>
			</trkpt>
			<trkpt lat="-28.170146" lon="152.913094">
				<ele>82</ele>
				<time>2015-05-07T02:21:56Z</time>
				<extensions>
				</extensions>
			</trkpt>
			<trkpt lat="-28.170086" lon="152.912836">
				<ele>82</ele>
				<time>2015-05-07T02:21:57Z</time>
				<extensions>
				</extensions>
			</trkpt>
			<trkpt lat="-28.170025" lon="152.912574">
				<ele>80</ele>
				<time>2015-05-07T02:21:58Z</time>
				<extensions>
				</extensions>
			</trkpt>
			<trkpt lat="-28.169969" lon="152.912324">
				<ele>81</ele>
				<time>2015-05-07T02:21:59Z</time>
				<extensions>
				</extensions>
			</trkpt>
			<trkpt lat="-28.169908" lon="152.912074">
				<ele>81</ele>
				<time>2015-05-07T02:22:00Z</time>
				<extensions>
				</extensions>
			</trkpt>
			<trkpt lat="-28.169845" lon="152.911823">
				<ele>80</ele>
				<time>2015-05-07T02:22:01Z</time>
				<extensions>
				</extensions>
			</trkpt>
			<trkpt lat="-28.169783" lon="152.911571">
				<ele>82</ele>
				<time>2015-05-07T02:22:02Z</time>
				<extensions>
				</extensions>
			</trkpt>
			<trkpt lat="-28.169734" lon="152.911319">
				<ele>80</ele>
				<time>2015-05-07T02:22:03Z</time>
				<extensions>
				</extensions>
			</trkpt>
			<trkpt lat="-28.169688" lon="152.911080">
				<ele>79</ele>
				<time>2015-05-07T02:22:04Z</time>
				<extensions>
				</extensions>
			</trkpt>
			<trkpt lat="-28.169644" lon="152.910842">
				<ele>79</ele>
				<time>2015-05-07T02:22:05Z</time>
				<extensions>
				</extensions>
			</trkpt>
			<trkpt lat="-28.169603" lon="152.910606">
				<ele>79</ele>
				<time>2015-05-07T02:22:06Z</time>
				<extensions>
				</extensions>
			</trkpt>
			<trkpt lat="-28.169573" lon="152.910388">
				<ele>79</ele>
				<time>2015-05-07T02:22:07Z</time>
				<extensions>
				</extensions>
			</trkpt>
			<trkpt lat="-28.169537" lon="152.910176">
				<ele>77</ele>
				<time>2015-05-07T02:22:08Z</time>
				<extensions>
				</extensions>
			</trkpt>
			<trkpt lat="-28.169473" lon="152.909801">
				<ele>75</ele>
				<time>2015-05-07T02:22:10Z</time>
				<extensions>
				</extensions>
			</trkpt>
			<trkpt lat="-28.169434" lon="152.909504">
				<ele>73</ele>
				<time>2015-05-07T02:22:12Z</time>
				<extensions>
				</extensions>
			</trkpt>
			<trkpt lat="-28.169385" lon="152.909241">
				<ele>72</ele>
				<time>2015-05-07T02:22:14Z</time>
				<extensions>
				</extensions>
			</trkpt>
			<trkpt lat="-28.169361" lon="152.909019">
				<ele>70</ele>
				<time>2015-05-07T02:22:16Z</time>
				<extensions>
				</extensions>
			</trkpt>
			<trkpt lat="-28.169395" lon="152.908719">
				<ele>69</ele>
				<time>2015-05-07T02:22:19Z</time>
				<extensions>
				</extensions>
			</trkpt>
			<trkpt lat="-28.169599" lon="152.908475">
				<ele>72</ele>
				<time>2015-05-07T02:22:22Z</time>
				<extensions>
				</extensions>
			</trkpt>
			<trkpt lat="-28.169858" lon="152.908330">
				<ele>74</ele>
				<time>2015-05-07T02:22:24Z</time>
				<extensions>
				</extensions>
			</trkpt>
			<trkpt lat="-28.170144" lon="152.908179">
				<ele>76</ele>
				<time>2015-05-07T02:22:26Z</time>
				<extensions>
				</extensions>
			</trkpt>
			<trkpt lat="-28.170452" lon="152.908026">
				<ele>77</ele>
				<time>2015-05-07T02:22:28Z</time>
				<extensions>
				</extensions>
			</trkpt>
			<trkpt lat="-28.170761" lon="152.907852">
				<ele>79</ele>
				<time>2015-05-07T02:22:30Z</time>
				<extensions>
				</extensions>
			</trkpt>
			<trkpt lat="-28.171061" lon="152.907666">
				<ele>78</ele>
				<time>2015-05-07T02:22:32Z</time>
				<extensions>
				</extensions>
			</trkpt>
			<trkpt lat="-28.171355" lon="152.907513">
				<ele>76</ele>
				<time>2015-05-07T02:22:34Z</time>
				<extensions>
				</extensions>
			</trkpt>
			<trkpt lat="-28.171659" lon="152.907325">
				<ele>75</ele>
				<time>2015-05-07T02:22:36Z</time>
				<extensions>
				</extensions>
			</trkpt>
			<trkpt lat="-28.171925" lon="152.907097">
				<ele>77</ele>
				<time>2015-05-07T02:22:38Z</time>
				<extensions>
				</extensions>
			</trkpt>
			<trkpt lat="-28.172164" lon="152.906799">
				<ele>77</ele>
				<time>2015-05-07T02:22:40Z</time>
				<extensions>
				</extensions>
			</trkpt>
			<trkpt lat="-28.172289" lon="152.906638">
				<ele>79</ele>
				<time>2015-05-07T02:22:41Z</time>
				<extensions>
				</extensions>
			</trkpt>
			<trkpt lat="-28.172411" lon="152.906470">
				<ele>79</ele>
				<time>2015-05-07T02:22:42Z</time>
				<extensions>
				</extensions>
			</trkpt>
			<trkpt lat="-28.172525" lon="152.906297">
				<ele>80</ele>
				<time>2015-05-07T02:22:43Z</time>
				<extensions>
				</extensions>
			</trkpt>
			<trkpt lat="-28.172642" lon="152.906128">
				<ele>79</ele>
				<time>2015-05-07T02:22:44Z</time>
				<extensions>
				</extensions>
			</trkpt>
			<trkpt lat="-28.172776" lon="152.905954">
				<ele>80</ele>
				<time>2015-05-07T02:22:45Z</time>
				<extensions>
				</extensions>
			</trkpt>
			<trkpt lat="-28.172906" lon="152.905778">
				<ele>81</ele>
				<time>2015-05-07T02:22:46Z</time>
				<extensions>
				</extensions>
			</trkpt>
			<trkpt lat="-28.173028" lon="152.905602">
				<ele>82</ele>
				<time>2015-05-07T02:22:47Z</time>
				<extensions>
				</extensions>
			</trkpt>
			<trkpt lat="-28.173143" lon="152.905423">
				<ele>81</ele>
				<time>2015-05-07T02:22:48Z</time>
				<extensions>
				</extensions>
			</trkpt>
			<trkpt lat="-28.173343" lon="152.905109">
				<ele>78</ele>
				<time>2015-05-07T02:22:50Z</time>
				<extensions>
				</extensions>
			</trkpt>
			<trkpt lat="-28.173454" lon="152.904944">
				<ele>79</ele>
				<time>2015-05-07T02:22:51Z</time>
				<extensions>
				</extensions>
			</trkpt>
			<trkpt lat="-28.173636" lon="152.904672">
				<ele>77</ele>
				<time>2015-05-07T02:22:53Z</time>
				<extensions>
				</extensions>
			</trkpt>
			<trkpt lat="-28.173803" lon="152.904425">
				<ele>74</ele>
				<time>2015-05-07T02:22:55Z</time>
				<extensions>
				</extensions>
			</trkpt>
			<trkpt lat="-28.173954" lon="152.904206">
				<ele>72</ele>
				<time>2015-05-07T02:22:57Z</time>
				<extensions>
				</extensions>
			</trkpt>
			<trkpt lat="-28.174106" lon="152.903971">
				<ele>70</ele>
				<time>2015-05-07T02:23:00Z</time>
				<extensions>
				</extensions>
			</trkpt>
			<trkpt lat="-28.174222" lon="152.903776">
				<ele>67</ele>
				<time>2015-05-07T02:23:03Z</time>
				<extensions>
				</extensions>
			</trkpt>
			<trkpt lat="-28.174166" lon="152.903535">
				<ele>69</ele>
				<time>2015-05-07T02:23:09Z</time>
				<extensions>
				</extensions>
			</trkpt>
			<trkpt lat="-28.173882" lon="152.903394">
				<ele>72</ele>
				<time>2015-05-07T02:23:12Z</time>
				<extensions>
				</extensions>
			</trkpt>
			<trkpt lat="-28.173549" lon="152.903286">
				<ele>78</ele>
				<time>2015-05-07T02:23:14Z</time>
				<extensions>
				</extensions>
			</trkpt>
			<trkpt lat="-28.173330" lon="152.903226">
				<ele>81</ele>
				<time>2015-05-07T02:23:15Z</time>
				<extensions>
				</extensions>
			</trkpt>
			<trkpt lat="-28.173099" lon="152.903167">
				<ele>83</ele>
				<time>2015-05-07T02:23:16Z</time>
				<extensions>
				</extensions>
			</trkpt>
			<trkpt lat="-28.172885" lon="152.903112">
				<ele>81</ele>
				<time>2015-05-07T02:23:17Z</time>
				<extensions>
				</extensions>
			</trkpt>
			<trkpt lat="-28.172687" lon="152.903084">
				<ele>78</ele>
				<time>2015-05-07T02:23:18Z</time>
				<extensions>
				</extensions>
			</trkpt>
			<trkpt lat="-28.172498" lon="152.903060">
				<ele>77</ele>
				<time>2015-05-07T02:23:19Z</time>
				<extensions>
				</extensions>
			</trkpt>
			<trkpt lat="-28.172311" lon="152.903038">
				<ele>76</ele>
				<time>2015-05-07T02:23:20Z</time>
				<extensions>
				</extensions>
			</trkpt>
			<trkpt lat="-28.172130" lon="152.903026">
				<ele>75</ele>
				<time>2015-05-07T02:23:21Z</time>
				<extensions>
				</extensions>
			</trkpt>
			<trkpt lat="-28.171806" lon="152.902999">
				<ele>73</ele>
				<time>2015-05-07T02:23:23Z</time>
				<extensions>
				</extensions>
			</trkpt>
			<trkpt lat="-28.171519" lon="152.902978">
				<ele>73</ele>
				<time>2015-05-07T02:23:25Z</time>
				<extensions>
				</extensions>
			</trkpt>
			<trkpt lat="-28.171257" lon="152.902944">
				<ele>72</ele>
				<time>2015-05-07T02:23:27Z</time>
				<extensions>
				</extensions>
			</trkpt>
			<trkpt lat="-28.170986" lon="152.902866">
				<ele>71</ele>
				<time>2015-05-07T02:23:29Z</time>
				<extensions>
				</extensions>
			</trkpt>
			<trkpt lat="-28.170725" lon="152.902740">
				<ele>72</ele>
				<time>2015-05-07T02:23:31Z</time>
				<extensions>
				</extensions>
			</trkpt>
			<trkpt lat="-28.170496" lon="152.902582">
				<ele>74</ele>
				<time>2015-05-07T02:23:33Z</time>
				<extensions>
				</extensions>
			</trkpt>
			<trkpt lat="-28.170246" lon="152.902369">
				<ele>74</ele>
				<time>2015-05-07T02:23:35Z</time>
				<extensions>
				</extensions>
			</trkpt>
			<trkpt lat="-28.169985" lon="152.902133">
				<ele>75</ele>
				<time>2015-05-07T02:23:37Z</time>
				<extensions>
				</extensions>
			</trkpt>
			<trkpt lat="-28.169753" lon="152.901844">
				<ele>75</ele>
				<time>2015-05-07T02:23:39Z</time>
				<extensions>
				</extensions>
			</trkpt>
			<trkpt lat="-28.169635" lon="152.901671">
				<ele>78</ele>
				<time>2015-05-07T02:23:40Z</time>
				<extensions>
				</extensions>
			</trkpt>
			<trkpt lat="-28.169543" lon="152.901488">
				<ele>78</ele>
				<time>2015-05-07T02:23:41Z</time>
				<extensions>
				</extensions>
			</trkpt>
			<trkpt lat="-28.169444" lon="152.901311">
				<ele>78</ele>
				<time>2015-05-07T02:23:42Z</time>
				<extensions>
				</extensions>
			</trkpt>
			<trkpt lat="-28.169263" lon="152.901002">
				<ele>74</ele>
				<time>2015-05-07T02:23:44Z</time>
				<extensions>
				</extensions>
			</trkpt>
			<trkpt lat="-28.169061" lon="152.900720">
				<ele>74</ele>
				<time>2015-05-07T02:23:46Z</time>
				<extensions>
				</extensions>
			</trkpt>
			<trkpt lat="-28.168883" lon="152.900439">
				<ele>74</ele>
				<time>2015-05-07T02:23:48Z</time>
				<extensions>
				</extensions>
			</trkpt>
			<trkpt lat="-28.168689" lon="152.900222">
				<ele>71</ele>
				<time>2015-05-07T02:23:50Z</time>
				<extensions>
				</extensions>
			</trkpt>
			<trkpt lat="-28.168453" lon="152.900055">
				<ele>71</ele>
				<time>2015-05-07T02:23:52Z</time>
				<extensions>
				</extensions>
			</trkpt>
			<trkpt lat="-28.168182" lon="152.899961">
				<ele>71</ele>
				<time>2015-05-07T02:23:54Z</time>
				<extensions>
				</extensions>
			</trkpt>
			<trkpt lat="-28.167912" lon="152.899988">
				<ele>71</ele>
				<time>2015-05-07T02:23:56Z</time>
				<extensions>
				</extensions>
			</trkpt>
			<trkpt lat="-28.167657" lon="152.900122">
				<ele>72</ele>
				<time>2015-05-07T02:23:58Z</time>
				<extensions>
				</extensions>
			</trkpt>
			<trkpt lat="-28.167416" lon="152.900372">
				<ele>73</ele>
				<time>2015-05-07T02:24:00Z</time>
				<extensions>
				</extensions>
			</trkpt>
			<trkpt lat="-28.167197" lon="152.900659">
				<ele>75</ele>
				<time>2015-05-07T02:24:02Z</time>
				<extensions>
				</extensions>
			</trkpt>
			<trkpt lat="-28.166996" lon="152.900935">
				<ele>72</ele>
				<time>2015-05-07T02:24:04Z</time>
				<extensions>
				</extensions>
			</trkpt>
			<trkpt lat="-28.166807" lon="152.901192">
				<ele>72</ele>
				<time>2015-05-07T02:24:06Z</time>
				<extensions>
				</extensions>
			</trkpt>
			<trkpt lat="-28.166642" lon="152.901435">
				<ele>70</ele>
				<time>2015-05-07T02:24:08Z</time>
				<extensions>
				</extensions>
			</trkpt>
			<trkpt lat="-28.166482" lon="152.901650">
				<ele>69</ele>
				<time>2015-05-07T02:24:10Z</time>
				<extensions>
				</extensions>
			</trkpt>
			<trkpt lat="-28.166351" lon="152.901837">
				<ele>69</ele>
				<time>2015-05-07T02:24:12Z</time>
				<extensions>
				</extensions>
			</trkpt>
			<trkpt lat="-28.166221" lon="152.902013">
				<ele>67</ele>
				<time>2015-05-07T02:24:15Z</time>
				<extensions>
				</extensions>
			</trkpt>
			<trkpt lat="-28.166041" lon="152.902085">
				<ele>68</ele>
				<time>2015-05-07T02:24:25Z</time>
				<extensions>
				</extensions>
			</trkpt>
			<trkpt lat="-28.166047" lon="152.901836">
				<ele>74</ele>
				<time>2015-05-07T02:24:30Z</time>
				<extensions>
				</extensions>
			</trkpt>
			<trkpt lat="-28.166199" lon="152.901588">
				<ele>79</ele>
				<time>2015-05-07T02:24:32Z</time>
				<extensions>
				</extensions>
			</trkpt>
			<trkpt lat="-28.166404" lon="152.901267">
				<ele>83</ele>
				<time>2015-05-07T02:24:34Z</time>
				<extensions>
				</extensions>
			</trkpt>
			<trkpt lat="-28.166597" lon="152.900965">
				<ele>83</ele>
				<time>2015-05-07T02:24:36Z</time>
				<extensions>
				</extensions>
			</trkpt>
			<trkpt lat="-28.166751" lon="152.900637">
				<ele>85</ele>
				<time>2015-05-07T02:24:38Z</time>
				<extensions>
				</extensions>
			</trkpt>
			<trkpt lat="-28.166918" lon="152.900303">
				<ele>86</ele>
				<time>2015-05-07T02:24:40Z</time>
				<extensions>
				</extensions>
			</trkpt>
			<trkpt lat="-28.167004" lon="152.900118">
				<ele>86</ele>
				<time>2015-05-07T02:24:41Z</time>
				<extensions>
				</extensions>
			</trkpt>
			<trkpt lat="-28.167093" lon="152.899934">
				<ele>86</ele>
				<time>2015-05-07T02:24:42Z</time>
				<extensions>
				</extensions>
			</trkpt>
			<trkpt lat="-28.167166" lon="152.899746">
				<ele>86</ele>
				<time>2015-05-07T02:24:43Z</time>
				<extensions>
				</extensions>
			</trkpt>
			<trkpt lat="-28.167236" lon="152.899548">
				<ele>90</ele>
				<time>2015-05-07T02:24:44Z</time>
				<extensions>
				</extensions>
			</trkpt>
			<trkpt lat="-28.167293" lon="152.899336">
				<ele>93</ele>
				<time>2015-05-07T02:24:45Z</time>
				<extensions>
				</extensions>
			</trkpt>
			<trkpt lat="-28.167354" lon="152.899114">
				<ele>94</ele>
				<time>2015-05-07T02:24:46Z</time>
				<extensions>
				</extensions>
			</trkpt>
			<trkpt lat="-28.167417" lon="152.898877">
				<ele>94</ele>
				<time>2015-05-07T02:24:47Z</time>
				<extensions>
				</extensions>
			</trkpt>
			<trkpt lat="-28.167480" lon="152.898641">
				<ele>92</ele>
				<time>2015-05-07T02:24:48Z</time>
				<extensions>
				</extensions>
			</trkpt>
			<trkpt lat="-28.167539" lon="152.898420">
				<ele>91</ele>
				<time>2015-05-07T02:24:49Z</time>
				<extensions>
				</extensions>
			</trkpt>
			<trkpt lat="-28.167601" lon="152.898195">
				<ele>91</ele>
				<time>2015-05-07T02:24:50Z</time>
				<extensions>
				</extensions>
			</trkpt>
			<trkpt lat="-28.167670" lon="152.897962">
				<ele>90</ele>
				<time>2015-05-07T02:24:51Z</time>
				<extensions>
				</extensions>
			</trkpt>
			<trkpt lat="-28.167730" lon="152.897726">
				<ele>90</ele>
				<time>2015-05-07T02:24:52Z</time>
				<extensions>
				</extensions>
			</trkpt>
			<trkpt lat="-28.167785" lon="152.897491">
				<ele>90</ele>
				<time>2015-05-07T02:24:53Z</time>
				<extensions>
				</extensions>
			</trkpt>
			<trkpt lat="-28.167846" lon="152.897255">
				<ele>89</ele>
				<time>2015-05-07T02:24:54Z</time>
				<extensions>
				</extensions>
			</trkpt>
			<trkpt lat="-28.167904" lon="152.897017">
				<ele>88</ele>
				<time>2015-05-07T02:24:55Z</time>
				<extensions>
				</extensions>
			</trkpt>
			<trkpt lat="-28.167971" lon="152.896783">
				<ele>87</ele>
				<time>2015-05-07T02:24:56Z</time>
				<extensions>
				</extensions>
			</trkpt>
			<trkpt lat="-28.168038" lon="152.896550">
				<ele>87</ele>
				<time>2015-05-07T02:24:57Z</time>
				<extensions>
				</extensions>
			</trkpt>
			<trkpt lat="-28.168095" lon="152.896308">
				<ele>86</ele>
				<time>2015-05-07T02:24:58Z</time>
				<extensions>
				</extensions>
			</trkpt>
			<trkpt lat="-28.168156" lon="152.896067">
				<ele>87</ele>
				<time>2015-05-07T02:24:59Z</time>
				<extensions>
				</extensions>
			</trkpt>
			<trkpt lat="-28.168221" lon="152.895824">
				<ele>88</ele>
				<time>2015-05-07T02:25:00Z</time>
				<extensions>
				</extensions>
			</trkpt>
			<trkpt lat="-28.168290" lon="152.895571">
				<ele>89</ele>
				<time>2015-05-07T02:25:01Z</time>
				<extensions>
				</extensions>
			</trkpt>
			<trkpt lat="-28.168355" lon="152.895325">
				<ele>88</ele>
				<time>2015-05-07T02:25:02Z</time>
				<extensions>
				</extensions>
			</trkpt>
			<trkpt lat="-28.168425" lon="152.895074">
				<ele>88</ele>
				<time>2015-05-07T02:25:03Z</time>
				<extensions>
				</extensions>
			</trkpt>
			<trkpt lat="-28.168467" lon="152.894811">
				<ele>89</ele>
				<time>2015-05-07T02:25:04Z</time>
				<extensions>
				</extensions>
			</trkpt>
			<trkpt lat="-28.168539" lon="152.894564">
				<ele>89</ele>
				<time>2015-05-07T02:25:05Z</time>
				<extensions>
				</extensions>
			</trkpt>
			<trkpt lat="-28.168601" lon="152.894303">
				<ele>87</ele>
				<time>2015-05-07T02:25:06Z</time>
				<extensions>
				</extensions>
			</trkpt>
			<trkpt lat="-28.168666" lon="152.894057">
				<ele>86</ele>
				<time>2015-05-07T02:25:07Z</time>
				<extensions>
				</extensions>
			</trkpt>
			<trkpt lat="-28.168736" lon="152.893815">
				<ele>87</ele>
				<time>2015-05-07T02:25:08Z</time>
				<extensions>
				</extensions>
			</trkpt>
			<trkpt lat="-28.168799" lon="152.893572">
				<ele>86</ele>
				<time>2015-05-07T02:25:09Z</time>
				<extensions>
				</extensions>
			</trkpt>
			<trkpt lat="-28.168854" lon="152.893337">
				<ele>86</ele>
				<time>2015-05-07T02:25:10Z</time>
				<extensions>
				</extensions>
			</trkpt>
			<trkpt lat="-28.168916" lon="152.893100">
				<ele>85</ele>
				<time>2015-05-07T02:25:11Z</time>
				<extensions>
				</extensions>
			</trkpt>
			<trkpt lat="-28.168981" lon="152.892875">
				<ele>84</ele>
				<time>2015-05-07T02:25:12Z</time>
				<extensions>
				</extensions>
			</trkpt>
			<trkpt lat="-28.169054" lon="152.892652">
				<ele>83</ele>
				<time>2015-05-07T02:25:13Z</time>
				<extensions>
				</extensions>
			</trkpt>
			<trkpt lat="-28.169106" lon="152.892415">
				<ele>81</ele>
				<time>2015-05-07T02:25:14Z</time>
				<extensions>
				</extensions>
			</trkpt>
			<trkpt lat="-28.169184" lon="152.892197">
				<ele>82</ele>
				<time>2015-05-07T02:25:15Z</time>
				<extensions>
				</extensions>
			</trkpt>
			<trkpt lat="-28.169282" lon="152.891961">
				<ele>84</ele>
				<time>2015-05-07T02:25:16Z</time>
				<extensions>
				</extensions>
			</trkpt>
			<trkpt lat="-28.169346" lon="152.891716">
				<ele>84</ele>
				<time>2015-05-07T02:25:17Z</time>
				<extensions>
				</extensions>
			</trkpt>
			<trkpt lat="-28.169424" lon="152.891476">
				<ele>84</ele>
				<time>2015-05-07T02:25:18Z</time>
				<extensions>
				</extensions>
			</trkpt>
			<trkpt lat="-28.169525" lon="152.891255">
				<ele>84</ele>
				<time>2015-05-07T02:25:19Z</time>
				<extensions>
				</extensions>
			</trkpt>
			<trkpt lat="-28.169629" lon="152.891037">
				<ele>86</ele>
				<time>2015-05-07T02:25:20Z</time>
				<extensions>
				</extensions>
			</trkpt>
			<trkpt lat="-28.169738" lon="152.890804">
				<ele>87</ele>
				<time>2015-05-07T02:25:21Z</time>
				<extensions>
				</extensions>
			</trkpt>
			<trkpt lat="-28.169861" lon="152.890574">
				<ele>91</ele>
				<time>2015-05-07T02:25:22Z</time>
				<extensions>
				</extensions>
			</trkpt>
			<trkpt lat="-28.169975" lon="152.890341">
				<ele>91</ele>
				<time>2015-05-07T02:25:23Z</time>
				<extensions>
				</extensions>
			</trkpt>
			<trkpt lat="-28.170106" lon="152.890122">
				<ele>91</ele>
				<time>2015-05-07T02:25:24Z</time>
				<extensions>
				</extensions>
			</trkpt>
			<trkpt lat="-28.170275" lon="152.889908">
				<ele>90</ele>
				<time>2015-05-07T02:25:25Z</time>
				<extensions>
				</extensions>
			</trkpt>
			<trkpt lat="-28.170420" lon="152.889700">
				<ele>89</ele>
				<time>2015-05-07T02:25:26Z</time>
				<extensions>
				</extensions>
			</trkpt>
			<trkpt lat="-28.170595" lon="152.889494">
				<ele>91</ele>
				<time>2015-05-07T02:25:27Z</time>
				<extensions>
				</extensions>
			</trkpt>
			<trkpt lat="-28.170758" lon="152.889286">
				<ele>95</ele>
				<time>2015-05-07T02:25:28Z</time>
				<extensions>
				</extensions>
			</trkpt>
			<trkpt lat="-28.170925" lon="152.889074">
				<ele>97</ele>
				<time>2015-05-07T02:25:29Z</time>
				<extensions>
				</extensions>
			</trkpt>
			<trkpt lat="-28.171067" lon="152.888872">
				<ele>97</ele>
				<time>2015-05-07T02:25:30Z</time>
				<extensions>
				</extensions>
			</trkpt>
			<trkpt lat="-28.171288" lon="152.888621">
				<ele>99</ele>
				<time>2015-05-07T02:25:31Z</time>
				<extensions>
				</extensions>
			</trkpt>
			<trkpt lat="-28.171495" lon="152.888397">
				<ele>98</ele>
				<time>2015-05-07T02:25:32Z</time>
				<extensions>
				</extensions>
			</trkpt>
			<trkpt lat="-28.171671" lon="152.888178">
				<ele>98</ele>
				<time>2015-05-07T02:25:33Z</time>
				<extensions>
				</extensions>
			</trkpt>
			<trkpt lat="-28.171864" lon="152.887972">
				<ele>99</ele>
				<time>2015-05-07T02:25:34Z</time>
				<extensions>
				</extensions>
			</trkpt>
			<trkpt lat="-28.172013" lon="152.887774">
				<ele>101</ele>
				<time>2015-05-07T02:25:35Z</time>
				<extensions>
				</extensions>
			</trkpt>
			<trkpt lat="-28.172159" lon="152.887587">
				<ele>100</ele>
				<time>2015-05-07T02:25:36Z</time>
				<extensions>
				</extensions>
			</trkpt>
			<trkpt lat="-28.172312" lon="152.887401">
				<ele>99</ele>
				<time>2015-05-07T02:25:37Z</time>
				<extensions>
				</extensions>
			</trkpt>
			<trkpt lat="-28.172475" lon="152.887200">
				<ele>100</ele>
				<time>2015-05-07T02:25:38Z</time>
				<extensions>
				</extensions>
			</trkpt>
			<trkpt lat="-28.172636" lon="152.887004">
				<ele>100</ele>
				<time>2015-05-07T02:25:39Z</time>
				<extensions>
				</extensions>
			</trkpt>
			<trkpt lat="-28.172795" lon="152.886808">
				<ele>101</ele>
				<time>2015-05-07T02:25:40Z</time>
				<extensions>
				</extensions>
			</trkpt>
			<trkpt lat="-28.172926" lon="152.886634">
				<ele>102</ele>
				<time>2015-05-07T02:25:41Z</time>
				<extensions>
				</extensions>
			</trkpt>
			<trkpt lat="-28.173078" lon="152.886448">
				<ele>101</ele>
				<time>2015-05-07T02:25:42Z</time>
				<extensions>
				</extensions>
			</trkpt>
			<trkpt lat="-28.173258" lon="152.886271">
				<ele>100</ele>
				<time>2015-05-07T02:25:43Z</time>
				<extensions>
				</extensions>
			</trkpt>
			<trkpt lat="-28.173421" lon="152.886085">
				<ele>100</ele>
				<time>2015-05-07T02:25:44Z</time>
				<extensions>
				</extensions>
			</trkpt>
			<trkpt lat="-28.173611" lon="152.885909">
				<ele>101</ele>
				<time>2015-05-07T02:25:45Z</time>
				<extensions>
				</extensions>
			</trkpt>
			<trkpt lat="-28.173770" lon="152.885737">
				<ele>100</ele>
				<time>2015-05-07T02:25:46Z</time>
				<extensions>
				</extensions>
			</trkpt>
			<trkpt lat="-28.173929" lon="152.885570">
				<ele>102</ele>
				<time>2015-05-07T02:25:47Z</time>
				<extensions>
				</extensions>
			</trkpt>
			<trkpt lat="-28.174113" lon="152.885415">
				<ele>100</ele>
				<time>2015-05-07T02:25:48Z</time>
				<extensions>
				</extensions>
			</trkpt>
			<trkpt lat="-28.174290" lon="152.885266">
				<ele>97</ele>
				<time>2015-05-07T02:25:49Z</time>
				<extensions>
				</extensions>
			</trkpt>
			<trkpt lat="-28.174487" lon="152.885133">
				<ele>97</ele>
				<time>2015-05-07T02:25:50Z</time>
				<extensions>
				</extensions>
			</trkpt>
			<trkpt lat="-28.174670" lon="152.884998">
				<ele>96</ele>
				<time>2015-05-07T02:25:51Z</time>
				<extensions>
				</extensions>
			</trkpt>
			<trkpt lat="-28.174856" lon="152.884888">
				<ele>96</ele>
				<time>2015-05-07T02:25:52Z</time>
				<extensions>
				</extensions>
			</trkpt>
			<trkpt lat="-28.175046" lon="152.884785">
				<ele>96</ele>
				<time>2015-05-07T02:25:53Z</time>
				<extensions>
				</extensions>
			</trkpt>
			<trkpt lat="-28.175248" lon="152.884690">
				<ele>93</ele>
				<time>2015-05-07T02:25:54Z</time>
				<extensions>
				</extensions>
			</trkpt>
			<trkpt lat="-28.175449" lon="152.884608">
				<ele>93</ele>
				<time>2015-05-07T02:25:55Z</time>
				<extensions>
				</extensions>
			</trkpt>
			<trkpt lat="-28.175655" lon="152.884527">
				<ele>93</ele>
				<time>2015-05-07T02:25:56Z</time>
				<extensions>
				</extensions>
			</trkpt>
			<trkpt lat="-28.175857" lon="152.884454">
				<ele>94</ele>
				<time>2015-05-07T02:25:57Z</time>
				<extensions>
				</extensions>
			</trkpt>
			<trkpt lat="-28.176061" lon="152.884373">
				<ele>94</ele>
				<time>2015-05-07T02:25:58Z</time>
				<extensions>
				</extensions>
			</trkpt>
			<trkpt lat="-28.176276" lon="152.884299">
				<ele>93</ele>
				<time>2015-05-07T02:25:59Z</time>
				<extensions>
				</extensions>
			</trkpt>
			<trkpt lat="-28.176489" lon="152.884228">
				<ele>93</ele>
				<time>2015-05-07T02:26:00Z</time>
				<extensions>
				</extensions>
			</trkpt>
			<trkpt lat="-28.176695" lon="152.884140">
				<ele>92</ele>
				<time>2015-05-07T02:26:01Z</time>
				<extensions>
				</extensions>
			</trkpt>
			<trkpt lat="-28.176897" lon="152.884023">
				<ele>92</ele>
				<time>2015-05-07T02:26:02Z</time>
				<extensions>
				</extensions>
			</trkpt>
			<trkpt lat="-28.177088" lon="152.883917">
				<ele>94</ele>
				<time>2015-05-07T02:26:03Z</time>
				<extensions>
				</extensions>
			</trkpt>
			<trkpt lat="-28.177286" lon="152.883808">
				<ele>96</ele>
				<time>2015-05-07T02:26:04Z</time>
				<extensions>
				</extensions>
			</trkpt>
			<trkpt lat="-28.177491" lon="152.883685">
				<ele>95</ele>
				<time>2015-05-07T02:26:05Z</time>
				<extensions>
				</extensions>
			</trkpt>
			<trkpt lat="-28.177685" lon="152.883559">
				<ele>96</ele>
				<time>2015-05-07T02:26:06Z</time>
				<extensions>
				</extensions>
			</trkpt>
			<trkpt lat="-28.177880" lon="152.883433">
				<ele>97</ele>
				<time>2015-05-07T02:26:07Z</time>
				<extensions>
				</extensions>
			</trkpt>
			<trkpt lat="-28.178064" lon="152.883287">
				<ele>97</ele>
				<time>2015-05-07T02:26:08Z</time>
				<extensions>
				</extensions>
			</trkpt>
			<trkpt lat="-28.178223" lon="152.883137">
				<ele>98</ele>
				<time>2015-05-07T02:26:09Z</time>
				<extensions>
				</extensions>
			</trkpt>
			<trkpt lat="-28.178402" lon="152.882970">
				<ele>100</ele>
				<time>2015-05-07T02:26:10Z</time>
				<extensions>
				</extensions>
			</trkpt>
			<trkpt lat="-28.178581" lon="152.882792">
				<ele>100</ele>
				<time>2015-05-07T02:26:11Z</time>
				<extensions>
				</extensions>
			</trkpt>
			<trkpt lat="-28.178751" lon="152.882611">
				<ele>102</ele>
				<time>2015-05-07T02:26:12Z</time>
				<extensions>
				</extensions>
			</trkpt>
			<trkpt lat="-28.178924" lon="152.882433">
				<ele>103</ele>
				<time>2015-05-07T02:26:13Z</time>
				<extensions>
				</extensions>
			</trkpt>
			<trkpt lat="-28.179073" lon="152.882273">
				<ele>103</ele>
				<time>2015-05-07T02:26:14Z</time>
				<extensions>
				</extensions>
			</trkpt>
			<trkpt lat="-28.179233" lon="152.882104">
				<ele>102</ele>
				<time>2015-05-07T02:26:15Z</time>
				<extensions>
				</extensions>
			</trkpt>
			<trkpt lat="-28.179400" lon="152.881925">
				<ele>103</ele>
				<time>2015-05-07T02:26:16Z</time>
				<extensions>
				</extensions>
			</trkpt>
			<trkpt lat="-28.179560" lon="152.881742">
				<ele>101</ele>
				<time>2015-05-07T02:26:17Z</time>
				<extensions>
				</extensions>
			</trkpt>
			<trkpt lat="-28.179716" lon="152.881552">
				<ele>103</ele>
				<time>2015-05-07T02:26:18Z</time>
				<extensions>
				</extensions>
			</trkpt>
			<trkpt lat="-28.179888" lon="152.881344">
				<ele>107</ele>
				<time>2015-05-07T02:26:19Z</time>
				<extensions>
				</extensions>
			</trkpt>
			<trkpt lat="-28.180048" lon="152.881138">
				<ele>105</ele>
				<time>2015-05-07T02:26:20Z</time>
				<extensions>
				</extensions>
			</trkpt>
			<trkpt lat="-28.180185" lon="152.880917">
				<ele>105</ele>
				<time>2015-05-07T02:26:21Z</time>
				<extensions>
				</extensions>
			</trkpt>
			<trkpt lat="-28.180325" lon="152.880692">
				<ele>107</ele>
				<time>2015-05-07T02:26:22Z</time>
				<extensions>
				</extensions>
			</trkpt>
			<trkpt lat="-28.180464" lon="152.880480">
				<ele>107</ele>
				<time>2015-05-07T02:26:23Z</time>
				<extensions>
				</extensions>
			</trkpt>
			<trkpt lat="-28.180584" lon="152.880282">
				<ele>107</ele>
				<time>2015-05-07T02:26:24Z</time>
				<extensions>
				</extensions>
			</trkpt>
			<trkpt lat="-28.180724" lon="152.880077">
				<ele>108</ele>
				<time>2015-05-07T02:26:25Z</time>
				<extensions>
				</extensions>
			</trkpt>
			<trkpt lat="-28.180842" lon="152.879878">
				<ele>108</ele>
				<time>2015-05-07T02:26:26Z</time>
				<extensions>
				</extensions>
			</trkpt>
			<trkpt lat="-28.180986" lon="152.879659">
				<ele>109</ele>
				<time>2015-05-07T02:26:27Z</time>
				<extensions>
				</extensions>
			</trkpt>
			<trkpt lat="-28.181101" lon="152.879472">
				<ele>109</ele>
				<time>2015-05-07T02:26:28Z</time>
				<extensions>
				</extensions>
			</trkpt>
			<trkpt lat="-28.181224" lon="152.879283">
				<ele>109</ele>
				<time>2015-05-07T02:26:29Z</time>
				<extensions>
				</extensions>
			</trkpt>
			<trkpt lat="-28.181326" lon="152.879110">
				<ele>108</ele>
				<time>2015-05-07T02:26:30Z</time>
				<extensions>
				</extensions>
			</trkpt>
			<trkpt lat="-28.181447" lon="152.878933">
				<ele>110</ele>
				<time>2015-05-07T02:26:31Z</time>
				<extensions>
				</extensions>
			</trkpt>
			<trkpt lat="-28.181568" lon="152.878763">
				<ele>110</ele>
				<time>2015-05-07T02:26:32Z</time>
				<extensions>
				</extensions>
			</trkpt>
			<trkpt lat="-28.181845" lon="152.878439">
				<ele>111</ele>
				<time>2015-05-07T02:26:34Z</time>
				<extensions>
				</extensions>
			</trkpt>
			<trkpt lat="-28.182147" lon="152.878205">
				<ele>113</ele>
				<time>2015-05-07T02:26:36Z</time>
				<extensions>
				</extensions>
			</trkpt>
			<trkpt lat="-28.182321" lon="152.878090">
				<ele>113</ele>
				<time>2015-05-07T02:26:37Z</time>
				<extensions>
				</extensions>
			</trkpt>
			<trkpt lat="-28.182493" lon="152.877982">
				<ele>114</ele>
				<time>2015-05-07T02:26:38Z</time>
				<extensions>
				</extensions>
			</trkpt>
			<trkpt lat="-28.182681" lon="152.877886">
				<ele>115</ele>
				<time>2015-05-07T02:26:39Z</time>
				<extensions>
				</extensions>
			</trkpt>
			<trkpt lat="-28.182889" lon="152.877819">
				<ele>115</ele>
				<time>2015-05-07T02:26:40Z</time>
				<extensions>
				</extensions>
			</trkpt>
			<trkpt lat="-28.183107" lon="152.877764">
				<ele>116</ele>
				<time>2015-05-07T02:26:41Z</time>
				<extensions>
				</extensions>
			</trkpt>
			<trkpt lat="-28.183326" lon="152.877716">
				<ele>118</ele>
				<time>2015-05-07T02:26:42Z</time>
				<extensions>
				</extensions>
			</trkpt>
			<trkpt lat="-28.183548" lon="152.877672">
				<ele>117</ele>
				<time>2015-05-07T02:26:43Z</time>
				<extensions>
				</extensions>
			</trkpt>
			<trkpt lat="-28.183747" lon="152.877642">
				<ele>117</ele>
				<time>2015-05-07T02:26:44Z</time>
				<extensions>
				</extensions>
			</trkpt>
			<trkpt lat="-28.183963" lon="152.877609">
				<ele>116</ele>
				<time>2015-05-07T02:26:45Z</time>
				<extensions>
				</extensions>
			</trkpt>
			<trkpt lat="-28.184179" lon="152.877566">
				<ele>117</ele>
				<time>2015-05-07T02:26:46Z</time>
				<extensions>
				</extensions>
			</trkpt>
			<trkpt lat="-28.184410" lon="152.877513">
				<ele>117</ele>
				<time>2015-05-07T02:26:47Z</time>
				<extensions>
				</extensions>
			</trkpt>
			<trkpt lat="-28.184635" lon="152.877467">
				<ele>117</ele>
				<time>2015-05-07T02:26:48Z</time>
				<extensions>
				</extensions>
			</trkpt>
			<trkpt lat="-28.184874" lon="152.877418">
				<ele>117</ele>
				<time>2015-05-07T02:26:49Z</time>
				<extensions>
				</extensions>
			</trkpt>
			<trkpt lat="-28.185104" lon="152.877372">
				<ele>115</ele>
				<time>2015-05-07T02:26:50Z</time>
				<extensions>
				</extensions>
			</trkpt>
			<trkpt lat="-28.185369" lon="152.877335">
				<ele>114</ele>
				<time>2015-05-07T02:26:51Z</time>
				<extensions>
				</extensions>
			</trkpt>
			<trkpt lat="-28.185610" lon="152.877292">
				<ele>112</ele>
				<time>2015-05-07T02:26:52Z</time>
				<extensions>
				</extensions>
			</trkpt>
			<trkpt lat="-28.185863" lon="152.877251">
				<ele>113</ele>
				<time>2015-05-07T02:26:53Z</time>
				<extensions>
				</extensions>
			</trkpt>
			<trkpt lat="-28.186098" lon="152.877213">
				<ele>110</ele>
				<time>2015-05-07T02:26:54Z</time>
				<extensions>
				</extensions>
			</trkpt>
			<trkpt lat="-28.186349" lon="152.877169">
				<ele>109</ele>
				<time>2015-05-07T02:26:55Z</time>
				<extensions>
				</extensions>
			</trkpt>
			<trkpt lat="-28.186575" lon="152.877137">
				<ele>109</ele>
				<time>2015-05-07T02:26:56Z</time>
				<extensions>
				</extensions>
			</trkpt>
			<trkpt lat="-28.186804" lon="152.877097">
				<ele>107</ele>
				<time>2015-05-07T02:26:57Z</time>
				<extensions>
				</extensions>
			</trkpt>
			<trkpt lat="-28.187031" lon="152.877056">
				<ele>107</ele>
				<time>2015-05-07T02:26:58Z</time>
				<extensions>
				</extensions>
			</trkpt>
			<trkpt lat="-28.187254" lon="152.877017">
				<ele>106</ele>
				<time>2015-05-07T02:26:59Z</time>
				<extensions>
				</extensions>
			</trkpt>
			<trkpt lat="-28.187560" lon="152.877002">
				<ele>101</ele>
				<time>2015-05-07T02:27:01Z</time>
				<extensions>
				</extensions>
			</trkpt>
			<trkpt lat="-28.187778" lon="152.876960">
				<ele>101</ele>
				<time>2015-05-07T02:27:02Z</time>
				<extensions>
				</extensions>
			</trkpt>
			<trkpt lat="-28.188008" lon="152.876928">
				<ele>101</ele>
				<time>2015-05-07T02:27:03Z</time>
				<extensions>
				</extensions>
			</trkpt>
			<trkpt lat="-28.188224" lon="152.876889">
				<ele>100</ele>
				<time>2015-05-07T02:27:04Z</time>
				<extensions>
				</extensions>
			</trkpt>
			<trkpt lat="-28.188472" lon="152.876845">
				<ele>100</ele>
				<time>2015-05-07T02:27:05Z</time>
				<extensions>
				</extensions>
			</trkpt>
			<trkpt lat="-28.188709" lon="152.876798">
				<ele>98</ele>
				<time>2015-05-07T02:27:06Z</time>
				<extensions>
				</extensions>
			</trkpt>
			<trkpt lat="-28.188921" lon="152.876748">
				<ele>96</ele>
				<time>2015-05-07T02:27:07Z</time>
				<extensions>
				</extensions>
			</trkpt>
			<trkpt lat="-28.189131" lon="152.876680">
				<ele>96</ele>
				<time>2015-05-07T02:27:08Z</time>
				<extensions>
				</extensions>
			</trkpt>
			<trkpt lat="-28.189336" lon="152.876609">
				<ele>95</ele>
				<time>2015-05-07T02:27:09Z</time>
				<extensions>
				</extensions>
			</trkpt>
			<trkpt lat="-28.189510" lon="152.876498">
				<ele>94</ele>
				<time>2015-05-07T02:27:10Z</time>
				<extensions>
				</extensions>
			</trkpt>
			<trkpt lat="-28.189707" lon="152.876417">
				<ele>94</ele>
				<time>2015-05-07T02:27:11Z</time>
				<extensions>
				</extensions>
			</trkpt>
			<trkpt lat="-28.189918" lon="152.876317">
				<ele>95</ele>
				<time>2015-05-07T02:27:12Z</time>
				<extensions>
				</extensions>
			</trkpt>
			<trkpt lat="-28.190102" lon="152.876196">
				<ele>93</ele>
				<time>2015-05-07T02:27:13Z</time>
				<extensions>
				</extensions>
			</trkpt>
			<trkpt lat="-28.190284" lon="152.876098">
				<ele>93</ele>
				<time>2015-05-07T02:27:14Z</time>
				<extensions>
				</extensions>
			</trkpt>
			<trkpt lat="-28.190462" lon="152.875997">
				<ele>92</ele>
				<time>2015-05-07T02:27:15Z</time>
				<extensions>
				</extensions>
			</trkpt>
			<trkpt lat="-28.190635" lon="152.875897">
				<ele>91</ele>
				<time>2015-05-07T02:27:16Z</time>
				<extensions>
				</extensions>
			</trkpt>
			<trkpt lat="-28.190804" lon="152.875800">
				<ele>93</ele>
				<time>2015-05-07T02:27:17Z</time>
				<extensions>
				</extensions>
			</trkpt>
			<trkpt lat="-28.190981" lon="152.875689">
				<ele>94</ele>
				<time>2015-05-07T02:27:18Z</time>
				<extensions>
				</extensions>
			</trkpt>
			<trkpt lat="-28.191158" lon="152.875584">
				<ele>93</ele>
				<time>2015-05-07T02:27:19Z</time>
				<extensions>
				</extensions>
			</trkpt>
			<trkpt lat="-28.191349" lon="152.875477">
				<ele>94</ele>
				<time>2015-05-07T02:27:20Z</time>
				<extensions>
				</extensions>
			</trkpt>
			<trkpt lat="-28.191538" lon="152.875378">
				<ele>95</ele>
				<time>2015-05-07T02:27:21Z</time>
				<extensions>
				</extensions>
			</trkpt>
			<trkpt lat="-28.191747" lon="152.875271">
				<ele>95</ele>
				<time>2015-05-07T02:27:22Z</time>
				<extensions>
				</extensions>
			</trkpt>
			<trkpt lat="-28.191950" lon="152.875168">
				<ele>94</ele>
				<time>2015-05-07T02:27:23Z</time>
				<extensions>
				</extensions>
			</trkpt>
			<trkpt lat="-28.192156" lon="152.875107">
				<ele>94</ele>
				<time>2015-05-07T02:27:24Z</time>
				<extensions>
				</extensions>
			</trkpt>
			<trkpt lat="-28.192368" lon="152.875020">
				<ele>94</ele>
				<time>2015-05-07T02:27:25Z</time>
				<extensions>
				</extensions>
			</trkpt>
			<trkpt lat="-28.192583" lon="152.874933">
				<ele>94</ele>
				<time>2015-05-07T02:27:26Z</time>
				<extensions>
				</extensions>
			</trkpt>
			<trkpt lat="-28.192760" lon="152.874876">
				<ele>95</ele>
				<time>2015-05-07T02:27:27Z</time>
				<extensions>
				</extensions>
			</trkpt>
			<trkpt lat="-28.192972" lon="152.874795">
				<ele>94</ele>
				<time>2015-05-07T02:27:28Z</time>
				<extensions>
				</extensions>
			</trkpt>
			<trkpt lat="-28.193185" lon="152.874695">
				<ele>93</ele>
				<time>2015-05-07T02:27:29Z</time>
				<extensions>
				</extensions>
			</trkpt>
			<trkpt lat="-28.193385" lon="152.874618">
				<ele>93</ele>
				<time>2015-05-07T02:27:30Z</time>
				<extensions>
				</extensions>
			</trkpt>
			<trkpt lat="-28.193593" lon="152.874536">
				<ele>98</ele>
				<time>2015-05-07T02:27:31Z</time>
				<extensions>
				</extensions>
			</trkpt>
			<trkpt lat="-28.193806" lon="152.874431">
				<ele>101</ele>
				<time>2015-05-07T02:27:32Z</time>
				<extensions>
				</extensions>
			</trkpt>
			<trkpt lat="-28.194017" lon="152.874338">
				<ele>100</ele>
				<time>2015-05-07T02:27:33Z</time>
				<extensions>
				</extensions>
			</trkpt>
			<trkpt lat="-28.194230" lon="152.874250">
				<ele>100</ele>
				<time>2015-05-07T02:27:34Z</time>
				<extensions>
				</extensions>
			</trkpt>
			<trkpt lat="-28.194433" lon="152.874161">
				<ele>101</ele>
				<time>2015-05-07T02:27:35Z</time>
				<extensions>
				</extensions>
			</trkpt>
			<trkpt lat="-28.194630" lon="152.874041">
				<ele>102</ele>
				<time>2015-05-07T02:27:36Z</time>
				<extensions>
				</extensions>
			</trkpt>
			<trkpt lat="-28.194829" lon="152.873937">
				<ele>104</ele>
				<time>2015-05-07T02:27:37Z</time>
				<extensions>
				</extensions>
			</trkpt>
			<trkpt lat="-28.195022" lon="152.873765">
				<ele>106</ele>
				<time>2015-05-07T02:27:38Z</time>
				<extensions>
				</extensions>
			</trkpt>
			<trkpt lat="-28.195214" lon="152.873642">
				<ele>106</ele>
				<time>2015-05-07T02:27:39Z</time>
				<extensions>
				</extensions>
			</trkpt>
			<trkpt lat="-28.195398" lon="152.873495">
				<ele>108</ele>
				<time>2015-05-07T02:27:40Z</time>
				<extensions>
				</extensions>
			</trkpt>
			<trkpt lat="-28.195577" lon="152.873349">
				<ele>108</ele>
				<time>2015-05-07T02:27:41Z</time>
				<extensions>
				</extensions>
			</trkpt>
			<trkpt lat="-28.195767" lon="152.873200">
				<ele>111</ele>
				<time>2015-05-07T02:27:42Z</time>
				<extensions>
				</extensions>
			</trkpt>
			<trkpt lat="-28.195944" lon="152.873047">
				<ele>114</ele>
				<time>2015-05-07T02:27:43Z</time>
				<extensions>
				</extensions>
			</trkpt>
			<trkpt lat="-28.196131" lon="152.872896">
				<ele>114</ele>
				<time>2015-05-07T02:27:44Z</time>
				<extensions>
				</extensions>
			</trkpt>
			<trkpt lat="-28.196339" lon="152.872748">
				<ele>113</ele>
				<time>2015-05-07T02:27:45Z</time>
				<extensions>
				</extensions>
			</trkpt>
			<trkpt lat="-28.196509" lon="152.872610">
				<ele>113</ele>
				<time>2015-05-07T02:27:46Z</time>
				<extensions>
				</extensions>
			</trkpt>
			<trkpt lat="-28.196661" lon="152.872487">
				<ele>114</ele>
				<time>2015-05-07T02:27:47Z</time>
				<extensions>
				</extensions>
			</trkpt>
			<trkpt lat="-28.196825" lon="152.872342">
				<ele>115</ele>
				<time>2015-05-07T02:27:48Z</time>
				<extensions>
				</extensions>
			</trkpt>
			<trkpt lat="-28.196970" lon="152.872220">
				<ele>116</ele>
				<time>2015-05-07T02:27:49Z</time>
				<extensions>
				</extensions>
			</trkpt>
			<trkpt lat="-28.197118" lon="152.872093">
				<ele>116</ele>
				<time>2015-05-07T02:27:50Z</time>
				<extensions>
				</extensions>
			</trkpt>
			<trkpt lat="-28.197275" lon="152.871961">
				<ele>116</ele>
				<time>2015-05-07T02:27:51Z</time>
				<extensions>
				</extensions>
			</trkpt>
			<trkpt lat="-28.197432" lon="152.871837">
				<ele>116</ele>
				<time>2015-05-07T02:27:52Z</time>
				<extensions>
				</extensions>
			</trkpt>
			<trkpt lat="-28.197584" lon="152.871705">
				<ele>116</ele>
				<time>2015-05-07T02:27:53Z</time>
				<extensions>
				</extensions>
			</trkpt>
			<trkpt lat="-28.197757" lon="152.871575">
				<ele>116</ele>
				<time>2015-05-07T02:27:54Z</time>
				<extensions>
				</extensions>
			</trkpt>
			<trkpt lat="-28.198074" lon="152.871342">
				<ele>113</ele>
				<time>2015-05-07T02:27:56Z</time>
				<extensions>
				</extensions>
			</trkpt>
			<trkpt lat="-28.198261" lon="152.871232">
				<ele>114</ele>
				<time>2015-05-07T02:27:57Z</time>
				<extensions>
				</extensions>
			</trkpt>
			<trkpt lat="-28.198447" lon="152.871122">
				<ele>114</ele>
				<time>2015-05-07T02:27:58Z</time>
				<extensions>
				</extensions>
			</trkpt>
			<trkpt lat="-28.198671" lon="152.871016">
				<ele>113</ele>
				<time>2015-05-07T02:27:59Z</time>
				<extensions>
				</extensions>
			</trkpt>
			<trkpt lat="-28.198873" lon="152.870938">
				<ele>114</ele>
				<time>2015-05-07T02:28:00Z</time>
				<extensions>
				</extensions>
			</trkpt>
			<trkpt lat="-28.199080" lon="152.870847">
				<ele>116</ele>
				<time>2015-05-07T02:28:01Z</time>
				<extensions>
				</extensions>
			</trkpt>
			<trkpt lat="-28.199278" lon="152.870759">
				<ele>118</ele>
				<time>2015-05-07T02:28:02Z</time>
				<extensions>
				</extensions>
			</trkpt>
			<trkpt lat="-28.199474" lon="152.870672">
				<ele>121</ele>
				<time>2015-05-07T02:28:03Z</time>
				<extensions>
				</extensions>
			</trkpt>
			<trkpt lat="-28.199679" lon="152.870588">
				<ele>122</ele>
				<time>2015-05-07T02:28:04Z</time>
				<extensions>
				</extensions>
			</trkpt>
			<trkpt lat="-28.199879" lon="152.870503">
				<ele>124</ele>
				<time>2015-05-07T02:28:05Z</time>
				<extensions>
				</extensions>
			</trkpt>
			<trkpt lat="-28.200070" lon="152.870433">
				<ele>122</ele>
				<time>2015-05-07T02:28:06Z</time>
				<extensions>
				</extensions>
			</trkpt>
			<trkpt lat="-28.200252" lon="152.870334">
				<ele>122</ele>
				<time>2015-05-07T02:28:07Z</time>
				<extensions>
				</extensions>
			</trkpt>
			<trkpt lat="-28.200430" lon="152.870241">
				<ele>120</ele>
				<time>2015-05-07T02:28:08Z</time>
				<extensions>
				</extensions>
			</trkpt>
			<trkpt lat="-28.200720" lon="152.870003">
				<ele>120</ele>
				<time>2015-05-07T02:28:10Z</time>
				<extensions>
				</extensions>
			</trkpt>
			<trkpt lat="-28.200868" lon="152.869856">
				<ele>120</ele>
				<time>2015-05-07T02:28:11Z</time>
				<extensions>
				</extensions>
			</trkpt>
			<trkpt lat="-28.201000" lon="152.869700">
				<ele>118</ele>
				<time>2015-05-07T02:28:12Z</time>
				<extensions>
				</extensions>
			</trkpt>
			<trkpt lat="-28.201111" lon="152.869520">
				<ele>117</ele>
				<time>2015-05-07T02:28:13Z</time>
				<extensions>
				</extensions>
			</trkpt>
			<trkpt lat="-28.201206" lon="152.869335">
				<ele>117</ele>
				<time>2015-05-07T02:28:14Z</time>
				<extensions>
				</extensions>
			</trkpt>
			<trkpt lat="-28.201287" lon="152.869148">
				<ele>116</ele>
				<time>2015-05-07T02:28:15Z</time>
				<extensions>
				</extensions>
			</trkpt>
			<trkpt lat="-28.201353" lon="152.868954">
				<ele>114</ele>
				<time>2015-05-07T02:28:16Z</time>
				<extensions>
				</extensions>
			</trkpt>
			<trkpt lat="-28.201415" lon="152.868743">
				<ele>115</ele>
				<time>2015-05-07T02:28:17Z</time>
				<extensions>
				</extensions>
			</trkpt>
			<trkpt lat="-28.201461" lon="152.868540">
				<ele>113</ele>
				<time>2015-05-07T02:28:18Z</time>
				<extensions>
				</extensions>
			</trkpt>
			<trkpt lat="-28.201517" lon="152.868342">
				<ele>112</ele>
				<time>2015-05-07T02:28:19Z</time>
				<extensions>
				</extensions>
			</trkpt>
			<trkpt lat="-28.201579" lon="152.868135">
				<ele>111</ele>
				<time>2015-05-07T02:28:20Z</time>
				<extensions>
				</extensions>
			</trkpt>
			<trkpt lat="-28.201706" lon="152.867750">
				<ele>108</ele>
				<time>2015-05-07T02:28:22Z</time>
				<extensions>
				</extensions>
			</trkpt>
			<trkpt lat="-28.201874" lon="152.867386">
				<ele>103</ele>
				<time>2015-05-07T02:28:24Z</time>
				<extensions>
				</extensions>
			</trkpt>
			<trkpt lat="-28.201987" lon="152.867212">
				<ele>104</ele>
				<time>2015-05-07T02:28:25Z</time>
				<extensions>
				</extensions>
			</trkpt>
			<trkpt lat="-28.202119" lon="152.867050">
				<ele>105</ele>
				<time>2015-05-07T02:28:26Z</time>
				<extensions>
				</extensions>
			</trkpt>
			<trkpt lat="-28.202265" lon="152.866898">
				<ele>103</ele>
				<time>2015-05-07T02:28:27Z</time>
				<extensions>
				</extensions>
			</trkpt>
			<trkpt lat="-28.202419" lon="152.866758">
				<ele>101</ele>
				<time>2015-05-07T02:28:28Z</time>
				<extensions>
				</extensions>
			</trkpt>
			<trkpt lat="-28.202590" lon="152.866652">
				<ele>101</ele>
				<time>2015-05-07T02:28:29Z</time>
				<extensions>
				</extensions>
			</trkpt>
			<trkpt lat="-28.202767" lon="152.866553">
				<ele>99</ele>
				<time>2015-05-07T02:28:30Z</time>
				<extensions>
				</extensions>
			</trkpt>
			<trkpt lat="-28.202948" lon="152.866470">
				<ele>100</ele>
				<time>2015-05-07T02:28:31Z</time>
				<extensions>
				</extensions>
			</trkpt>
			<trkpt lat="-28.203159" lon="152.866395">
				<ele>100</ele>
				<time>2015-05-07T02:28:32Z</time>
				<extensions>
				</extensions>
			</trkpt>
			<trkpt lat="-28.203353" lon="152.866338">
				<ele>100</ele>
				<time>2015-05-07T02:28:33Z</time>
				<extensions>
				</extensions>
			</trkpt>
			<trkpt lat="-28.203590" lon="152.866267">
				<ele>99</ele>
				<time>2015-05-07T02:28:34Z</time>
				<extensions>
				</extensions>
			</trkpt>
			<trkpt lat="-28.203830" lon="152.866208">
				<ele>100</ele>
				<time>2015-05-07T02:28:35Z</time>
				<extensions>
				</extensions>
			</trkpt>
			<trkpt lat="-28.204037" lon="152.866152">
				<ele>98</ele>
				<time>2015-05-07T02:28:36Z</time>
				<extensions>
				</extensions>
			</trkpt>
			<trkpt lat="-28.204233" lon="152.866108">
				<ele>98</ele>
				<time>2015-05-07T02:28:37Z</time>
				<extensions>
				</extensions>
			</trkpt>
			<trkpt lat="-28.204429" lon="152.866063">
				<ele>95</ele>
				<time>2015-05-07T02:28:38Z</time>
				<extensions>
				</extensions>
			</trkpt>
			<trkpt lat="-28.204608" lon="152.866020">
				<ele>94</ele>
				<time>2015-05-07T02:28:39Z</time>
				<extensions>
				</extensions>
			</trkpt>
			<trkpt lat="-28.204785" lon="152.865977">
				<ele>92</ele>
				<time>2015-05-07T02:28:40Z</time>
				<extensions>
				</extensions>
			</trkpt>
			<trkpt lat="-28.205123" lon="152.865897">
				<ele>92</ele>
				<time>2015-05-07T02:28:42Z</time>
				<extensions>
				</extensions>
			</trkpt>
			<trkpt lat="-28.205458" lon="152.865821">
				<ele>92</ele>
				<time>2015-05-07T02:28:44Z</time>
				<extensions>
				</extensions>
			</trkpt>
			<trkpt lat="-28.205804" lon="152.865734">
				<ele>93</ele>
				<time>2015-05-07T02:28:46Z</time>
				<extensions>
				</extensions>
			</trkpt>
			<trkpt lat="-28.206155" lon="152.865651">
				<ele>91</ele>
				<time>2015-05-07T02:28:48Z</time>
				<extensions>
				</extensions>
			</trkpt>
			<trkpt lat="-28.206496" lon="152.865570">
				<ele>90</ele>
				<time>2015-05-07T02:28:50Z</time>
				<extensions>
				</extensions>
			</trkpt>
			<trkpt lat="-28.206822" lon="152.865495">
				<ele>88</ele>
				<time>2015-05-07T02:28:52Z</time>
				<extensions>
				</extensions>
			</trkpt>
			<trkpt lat="-28.207131" lon="152.865418">
				<ele>88</ele>
				<time>2015-05-07T02:28:54Z</time>
				<extensions>
				</extensions>
			</trkpt>
			<trkpt lat="-28.207407" lon="152.865362">
				<ele>86</ele>
				<time>2015-05-07T02:28:56Z</time>
				<extensions>
				</extensions>
			</trkpt>
			<trkpt lat="-28.207724" lon="152.865282">
				<ele>86</ele>
				<time>2015-05-07T02:28:58Z</time>
				<extensions>
				</extensions>
			</trkpt>
			<trkpt lat="-28.208039" lon="152.865202">
				<ele>86</ele>
				<time>2015-05-07T02:29:00Z</time>
				<extensions>
				</extensions>
			</trkpt>
			<trkpt lat="-28.208332" lon="152.865137">
				<ele>86</ele>
				<time>2015-05-07T02:29:02Z</time>
				<extensions>
				</extensions>
			</trkpt>
			<trkpt lat="-28.208619" lon="152.865067">
				<ele>83</ele>
				<time>2015-05-07T02:29:04Z</time>
				<extensions>
				</extensions>
			</trkpt>
			<trkpt lat="-28.208903" lon="152.864999">
				<ele>82</ele>
				<time>2015-05-07T02:29:06Z</time>
				<extensions>
				</extensions>
			</trkpt>
			<trkpt lat="-28.209179" lon="152.864935">
				<ele>84</ele>
				<time>2015-05-07T02:29:08Z</time>
				<extensions>
				</extensions>
			</trkpt>
			<trkpt lat="-28.209484" lon="152.864872">
				<ele>86</ele>
				<time>2015-05-07T02:29:10Z</time>
				<extensions>
				</extensions>
			</trkpt>
			<trkpt lat="-28.209778" lon="152.864807">
				<ele>84</ele>
				<time>2015-05-07T02:29:12Z</time>
				<extensions>
				</extensions>
			</trkpt>
			<trkpt lat="-28.210015" lon="152.864742">
				<ele>84</ele>
				<time>2015-05-07T02:29:14Z</time>
				<extensions>
				</extensions>
			</trkpt>
			<trkpt lat="-28.210233" lon="152.864691">
				<ele>83</ele>
				<time>2015-05-07T02:29:16Z</time>
				<extensions>
				</extensions>
			</trkpt>
			<trkpt lat="-28.210471" lon="152.864657">
				<ele>82</ele>
				<time>2015-05-07T02:29:19Z</time>
				<extensions>
				</extensions>
			</trkpt>
			<trkpt lat="-28.210658" lon="152.864621">
				<ele>82</ele>
				<time>2015-05-07T02:30:36Z</time>
				<extensions>
				</extensions>
			</trkpt>
			<trkpt lat="-28.210849" lon="152.864568">
				<ele>84</ele>
				<time>2015-05-07T02:30:47Z</time>
				<extensions>
				</extensions>
			</trkpt>
			<trkpt lat="-28.211051" lon="152.864499">
				<ele>85</ele>
				<time>2015-05-07T02:30:51Z</time>
				<extensions>
				</extensions>
			</trkpt>
			<trkpt lat="-28.211101" lon="152.864246">
				<ele>85</ele>
				<time>2015-05-07T02:30:55Z</time>
				<extensions>
				</extensions>
			</trkpt>
			<trkpt lat="-28.211180" lon="152.864031">
				<ele>87</ele>
				<time>2015-05-07T02:30:58Z</time>
				<extensions>
				</extensions>
			</trkpt>
			<trkpt lat="-28.211264" lon="152.863801">
				<ele>87</ele>
				<time>2015-05-07T02:31:02Z</time>
				<extensions>
				</extensions>
			</trkpt>
			<trkpt lat="-28.211341" lon="152.863588">
				<ele>88</ele>
				<time>2015-05-07T02:31:06Z</time>
				<extensions>
				</extensions>
			</trkpt>
			<trkpt lat="-28.211465" lon="152.863248">
				<ele>89</ele>
				<time>2015-05-07T02:31:12Z</time>
				<extensions>
				</extensions>
			</trkpt>
			<trkpt lat="-28.211538" lon="152.863044">
				<ele>88</ele>
				<time>2015-05-07T02:31:16Z</time>
				<extensions>
				</extensions>
			</trkpt>
			<trkpt lat="-28.211461" lon="152.863259">
				<ele>88</ele>
				<time>2015-05-07T02:31:28Z</time>
				<extensions>
				</extensions>
			</trkpt>
			<trkpt lat="-28.211542" lon="152.863032">
				<ele>100</ele>
				<time>2015-05-07T03:31:35Z</time>
				<extensions>
				</extensions>
			</trkpt>
			<trkpt lat="-28.211629" lon="152.862790">
				<ele>99</ele>
				<time>2015-05-07T03:31:40Z</time>
				<extensions>
				</extensions>
			</trkpt>
			<trkpt lat="-28.211766" lon="152.862640">
				<ele>98</ele>
				<time>2015-05-07T03:31:44Z</time>
				<extensions>
				</extensions>
			</trkpt>
			<trkpt lat="-28.211967" lon="152.862617">
				<ele>96</ele>
				<time>2015-05-07T03:31:50Z</time>
				<extensions>
				</extensions>
			</trkpt>
			<trkpt lat="-28.212286" lon="152.862516">
				<ele>98</ele>
				<time>2015-05-07T03:31:53Z</time>
				<extensions>
				</extensions>
			</trkpt>
			<trkpt lat="-28.212489" lon="152.862423">
				<ele>98</ele>
				<time>2015-05-07T03:31:55Z</time>
				<extensions>
				</extensions>
			</trkpt>
			<trkpt lat="-28.212753" lon="152.862364">
				<ele>97</ele>
				<time>2015-05-07T03:31:57Z</time>
				<extensions>
				</extensions>
			</trkpt>
			<trkpt lat="-28.213009" lon="152.862293">
				<ele>96</ele>
				<time>2015-05-07T03:31:59Z</time>
				<extensions>
				</extensions>
			</trkpt>
			<trkpt lat="-28.213258" lon="152.862165">
				<ele>97</ele>
				<time>2015-05-07T03:32:01Z</time>
				<extensions>
				</extensions>
			</trkpt>
			<trkpt lat="-28.213501" lon="152.861996">
				<ele>96</ele>
				<time>2015-05-07T03:32:03Z</time>
				<extensions>
				</extensions>
			</trkpt>
			<trkpt lat="-28.213753" lon="152.861805">
				<ele>97</ele>
				<time>2015-05-07T03:32:05Z</time>
				<extensions>
				</extensions>
			</trkpt>
			<trkpt lat="-28.213991" lon="152.861639">
				<ele>97</ele>
				<time>2015-05-07T03:32:07Z</time>
				<extensions>
				</extensions>
			</trkpt>
			<trkpt lat="-28.214215" lon="152.861529">
				<ele>96</ele>
				<time>2015-05-07T03:32:09Z</time>
				<extensions>
				</extensions>
			</trkpt>
			<trkpt lat="-28.214505" lon="152.861347">
				<ele>98</ele>
				<time>2015-05-07T03:32:11Z</time>
				<extensions>
				</extensions>
			</trkpt>
			<trkpt lat="-28.214823" lon="152.861184">
				<ele>99</ele>
				<time>2015-05-07T03:32:13Z</time>
				<extensions>
				</extensions>
			</trkpt>
			<trkpt lat="-28.215137" lon="152.861065">
				<ele>97</ele>
				<time>2015-05-07T03:32:15Z</time>
				<extensions>
				</extensions>
			</trkpt>
			<trkpt lat="-28.215415" lon="152.860875">
				<ele>97</ele>
				<time>2015-05-07T03:32:18Z</time>
				<extensions>
				</extensions>
			</trkpt>
			<trkpt lat="-28.215661" lon="152.860770">
				<ele>97</ele>
				<time>2015-05-07T03:32:20Z</time>
				<extensions>
				</extensions>
			</trkpt>
			<trkpt lat="-28.215917" lon="152.860635">
				<ele>96</ele>
				<time>2015-05-07T03:32:22Z</time>
				<extensions>
				</extensions>
			</trkpt>
			<trkpt lat="-28.216173" lon="152.860477">
				<ele>97</ele>
				<time>2015-05-07T03:32:24Z</time>
				<extensions>
				</extensions>
			</trkpt>
			<trkpt lat="-28.216417" lon="152.860316">
				<ele>97</ele>
				<time>2015-05-07T03:32:26Z</time>
				<extensions>
				</extensions>
			</trkpt>
			<trkpt lat="-28.216678" lon="152.860136">
				<ele>96</ele>
				<time>2015-05-07T03:32:28Z</time>
				<extensions>
				</extensions>
			</trkpt>
			<trkpt lat="-28.216878" lon="152.859957">
				<ele>95</ele>
				<time>2015-05-07T03:32:30Z</time>
				<extensions>
				</extensions>
			</trkpt>
			<trkpt lat="-28.217077" lon="152.859785">
				<ele>94</ele>
				<time>2015-05-07T03:32:32Z</time>
				<extensions>
				</extensions>
			</trkpt>
			<trkpt lat="-28.217268" lon="152.859591">
				<ele>94</ele>
				<time>2015-05-07T03:32:34Z</time>
				<extensions>
				</extensions>
			</trkpt>
			<trkpt lat="-28.217455" lon="152.859355">
				<ele>95</ele>
				<time>2015-05-07T03:32:36Z</time>
				<extensions>
				</extensions>
			</trkpt>
			<trkpt lat="-28.217645" lon="152.859114">
				<ele>96</ele>
				<time>2015-05-07T03:32:38Z</time>
				<extensions>
				</extensions>
			</trkpt>
			<trkpt lat="-28.217836" lon="152.859044">
				<ele>94</ele>
				<time>2015-05-07T03:32:40Z</time>
				<extensions>
				</extensions>
			</trkpt>
			<trkpt lat="-28.218025" lon="152.858899">
				<ele>94</ele>
				<time>2015-05-07T03:32:42Z</time>
				<extensions>
				</extensions>
			</trkpt>
			<trkpt lat="-28.218205" lon="152.858781">
				<ele>93</ele>
				<time>2015-05-07T03:32:44Z</time>
				<extensions>
				</extensions>
			</trkpt>
			<trkpt lat="-28.218389" lon="152.858696">
				<ele>93</ele>
				<time>2015-05-07T03:32:46Z</time>
				<extensions>
				</extensions>
			</trkpt>
			<trkpt lat="-28.218542" lon="152.858553">
				<ele>91</ele>
				<time>2015-05-07T03:32:49Z</time>
				<extensions>
				</extensions>
			</trkpt>
			<trkpt lat="-28.218713" lon="152.858467">
				<ele>91</ele>
				<time>2015-05-07T03:32:52Z</time>
				<extensions>
				</extensions>
			</trkpt>
			<trkpt lat="-28.218746" lon="152.858262">
				<ele>93</ele>
				<time>2015-05-07T03:32:56Z</time>
				<extensions>
				</extensions>
			</trkpt>
			<trkpt lat="-28.218729" lon="152.857923">
				<ele>95</ele>
				<time>2015-05-07T03:32:59Z</time>
				<extensions>
				</extensions>
			</trkpt>
			<trkpt lat="-28.218587" lon="152.857654">
				<ele>96</ele>
				<time>2015-05-07T03:33:01Z</time>
				<extensions>
				</extensions>
			</trkpt>
			<trkpt lat="-28.218438" lon="152.857346">
				<ele>97</ele>
				<time>2015-05-07T03:33:03Z</time>
				<extensions>
				</extensions>
			</trkpt>
			<trkpt lat="-28.218272" lon="152.857019">
				<ele>100</ele>
				<time>2015-05-07T03:33:05Z</time>
				<extensions>
				</extensions>
			</trkpt>
			<trkpt lat="-28.218125" lon="152.856686">
				<ele>100</ele>
				<time>2015-05-07T03:33:07Z</time>
				<extensions>
				</extensions>
			</trkpt>
			<trkpt lat="-28.217979" lon="152.856375">
				<ele>103</ele>
				<time>2015-05-07T03:33:09Z</time>
				<extensions>
				</extensions>
			</trkpt>
			<trkpt lat="-28.217854" lon="152.855980">
				<ele>101</ele>
				<time>2015-05-07T03:33:11Z</time>
				<extensions>
				</extensions>
			</trkpt>
			<trkpt lat="-28.217741" lon="152.855659">
				<ele>104</ele>
				<time>2015-05-07T03:33:13Z</time>
				<extensions>
				</extensions>
			</trkpt>
			<trkpt lat="-28.217624" lon="152.855305">
				<ele>106</ele>
				<time>2015-05-07T03:33:15Z</time>
				<extensions>
				</extensions>
			</trkpt>
			<trkpt lat="-28.217531" lon="152.854937">
				<ele>109</ele>
				<time>2015-05-07T03:33:17Z</time>
				<extensions>
				</extensions>
			</trkpt>
			<trkpt lat="-28.217469" lon="152.854739">
				<ele>109</ele>
				<time>2015-05-07T03:33:18Z</time>
				<extensions>
				</extensions>
			</trkpt>
			<trkpt lat="-28.217373" lon="152.854377">
				<ele>110</ele>
				<time>2015-05-07T03:33:20Z</time>
				<extensions>
				</extensions>
			</trkpt>
			<trkpt lat="-28.217246" lon="152.854013">
				<ele>112</ele>
				<time>2015-05-07T03:33:22Z</time>
				<extensions>
				</extensions>
			</trkpt>
			<trkpt lat="-28.217175" lon="152.853820">
				<ele>114</ele>
				<time>2015-05-07T03:33:23Z</time>
				<extensions>
				</extensions>
			</trkpt>
			<trkpt lat="-28.217028" lon="152.853435">
				<ele>118</ele>
				<time>2015-05-07T03:33:25Z</time>
				<extensions>
				</extensions>
			</trkpt>
			<trkpt lat="-28.216947" lon="152.853240">
				<ele>119</ele>
				<time>2015-05-07T03:33:26Z</time>
				<extensions>
				</extensions>
			</trkpt>
			<trkpt lat="-28.216815" lon="152.852804">
				<ele>116</ele>
				<time>2015-05-07T03:33:28Z</time>
				<extensions>
				</extensions>
			</trkpt>
			<trkpt lat="-28.216764" lon="152.852604">
				<ele>117</ele>
				<time>2015-05-07T03:33:29Z</time>
				<extensions>
				</extensions>
			</trkpt>
			<trkpt lat="-28.216716" lon="152.852395">
				<ele>117</ele>
				<time>2015-05-07T03:33:30Z</time>
				<extensions>
				</extensions>
			</trkpt>
			<trkpt lat="-28.216662" lon="152.852159">
				<ele>118</ele>
				<time>2015-05-07T03:33:31Z</time>
				<extensions>
				</extensions>
			</trkpt>
			<trkpt lat="-28.216613" lon="152.851950">
				<ele>116</ele>
				<time>2015-05-07T03:33:32Z</time>
				<extensions>
				</extensions>
			</trkpt>
			<trkpt lat="-28.216569" lon="152.851746">
				<ele>115</ele>
				<time>2015-05-07T03:33:33Z</time>
				<extensions>
				</extensions>
			</trkpt>
			<trkpt lat="-28.216556" lon="152.851517">
				<ele>114</ele>
				<time>2015-05-07T03:33:34Z</time>
				<extensions>
				</extensions>
			</trkpt>
			<trkpt lat="-28.216503" lon="152.851308">
				<ele>114</ele>
				<time>2015-05-07T03:33:35Z</time>
				<extensions>
				</extensions>
			</trkpt>
			<trkpt lat="-28.216453" lon="152.851088">
				<ele>113</ele>
				<time>2015-05-07T03:33:36Z</time>
				<extensions>
				</extensions>
			</trkpt>
			<trkpt lat="-28.216405" lon="152.850852">
				<ele>113</ele>
				<time>2015-05-07T03:33:37Z</time>
				<extensions>
				</extensions>
			</trkpt>
			<trkpt lat="-28.216364" lon="152.850602">
				<ele>113</ele>
				<time>2015-05-07T03:33:38Z</time>
				<extensions>
				</extensions>
			</trkpt>
			<trkpt lat="-28.216335" lon="152.850394">
				<ele>114</ele>
				<time>2015-05-07T03:33:39Z</time>
				<extensions>
				</extensions>
			</trkpt>
			<trkpt lat="-28.216311" lon="152.850153">
				<ele>113</ele>
				<time>2015-05-07T03:33:40Z</time>
				<extensions>
				</extensions>
			</trkpt>
			<trkpt lat="-28.216299" lon="152.849903">
				<ele>113</ele>
				<time>2015-05-07T03:33:41Z</time>
				<extensions>
				</extensions>
			</trkpt>
			<trkpt lat="-28.216295" lon="152.849629">
				<ele>113</ele>
				<time>2015-05-07T03:33:42Z</time>
				<extensions>
				</extensions>
			</trkpt>
			<trkpt lat="-28.216296" lon="152.849344">
				<ele>115</ele>
				<time>2015-05-07T03:33:43Z</time>
				<extensions>
				</extensions>
			</trkpt>
			<trkpt lat="-28.216314" lon="152.849062">
				<ele>116</ele>
				<time>2015-05-07T03:33:44Z</time>
				<extensions>
				</extensions>
			</trkpt>
			<trkpt lat="-28.216345" lon="152.848783">
				<ele>114</ele>
				<time>2015-05-07T03:33:45Z</time>
				<extensions>
				</extensions>
			</trkpt>
			<trkpt lat="-28.216381" lon="152.848513">
				<ele>115</ele>
				<time>2015-05-07T03:33:46Z</time>
				<extensions>
				</extensions>
			</trkpt>
			<trkpt lat="-28.216422" lon="152.848207">
				<ele>111</ele>
				<time>2015-05-07T03:33:47Z</time>
				<extensions>
				</extensions>
			</trkpt>
			<trkpt lat="-28.216453" lon="152.847966">
				<ele>112</ele>
				<time>2015-05-07T03:33:48Z</time>
				<extensions>
				</extensions>
			</trkpt>
			<trkpt lat="-28.216486" lon="152.847717">
				<ele>112</ele>
				<time>2015-05-07T03:33:49Z</time>
				<extensions>
				</extensions>
			</trkpt>
			<trkpt lat="-28.216533" lon="152.847363">
				<ele>110</ele>
				<time>2015-05-07T03:33:51Z</time>
				<extensions>
				</extensions>
			</trkpt>
			<trkpt lat="-28.216590" lon="152.846931">
				<ele>112</ele>
				<time>2015-05-07T03:33:53Z</time>
				<extensions>
				</extensions>
			</trkpt>
			<trkpt lat="-28.216620" lon="152.846707">
				<ele>112</ele>
				<time>2015-05-07T03:33:54Z</time>
				<extensions>
				</extensions>
			</trkpt>
			<trkpt lat="-28.216648" lon="152.846491">
				<ele>110</ele>
				<time>2015-05-07T03:33:55Z</time>
				<extensions>
				</extensions>
			</trkpt>
			<trkpt lat="-28.216677" lon="152.846275">
				<ele>111</ele>
				<time>2015-05-07T03:33:56Z</time>
				<extensions>
				</extensions>
			</trkpt>
			<trkpt lat="-28.216709" lon="152.846062">
				<ele>113</ele>
				<time>2015-05-07T03:33:57Z</time>
				<extensions>
				</extensions>
			</trkpt>
			<trkpt lat="-28.216742" lon="152.845828">
				<ele>114</ele>
				<time>2015-05-07T03:33:58Z</time>
				<extensions>
				</extensions>
			</trkpt>
			<trkpt lat="-28.216769" lon="152.845583">
				<ele>115</ele>
				<time>2015-05-07T03:33:59Z</time>
				<extensions>
				</extensions>
			</trkpt>
			<trkpt lat="-28.216810" lon="152.845316">
				<ele>115</ele>
				<time>2015-05-07T03:34:00Z</time>
				<extensions>
				</extensions>
			</trkpt>
			<trkpt lat="-28.216844" lon="152.845085">
				<ele>113</ele>
				<time>2015-05-07T03:34:01Z</time>
				<extensions>
				</extensions>
			</trkpt>
			<trkpt lat="-28.216867" lon="152.844871">
				<ele>111</ele>
				<time>2015-05-07T03:34:02Z</time>
				<extensions>
				</extensions>
			</trkpt>
			<trkpt lat="-28.216899" lon="152.844651">
				<ele>112</ele>
				<time>2015-05-07T03:34:03Z</time>
				<extensions>
				</extensions>
			</trkpt>
			<trkpt lat="-28.216942" lon="152.844433">
				<ele>112</ele>
				<time>2015-05-07T03:34:04Z</time>
				<extensions>
				</extensions>
			</trkpt>
			<trkpt lat="-28.216994" lon="152.844218">
				<ele>113</ele>
				<time>2015-05-07T03:34:05Z</time>
				<extensions>
				</extensions>
			</trkpt>
			<trkpt lat="-28.217060" lon="152.843990">
				<ele>113</ele>
				<time>2015-05-07T03:34:06Z</time>
				<extensions>
				</extensions>
			</trkpt>
			<trkpt lat="-28.217132" lon="152.843775">
				<ele>113</ele>
				<time>2015-05-07T03:34:07Z</time>
				<extensions>
				</extensions>
			</trkpt>
			<trkpt lat="-28.217211" lon="152.843559">
				<ele>113</ele>
				<time>2015-05-07T03:34:08Z</time>
				<extensions>
				</extensions>
			</trkpt>
			<trkpt lat="-28.217296" lon="152.843353">
				<ele>113</ele>
				<time>2015-05-07T03:34:09Z</time>
				<extensions>
				</extensions>
			</trkpt>
			<trkpt lat="-28.217394" lon="152.843156">
				<ele>113</ele>
				<time>2015-05-07T03:34:10Z</time>
				<extensions>
				</extensions>
			</trkpt>
			<trkpt lat="-28.217501" lon="152.842965">
				<ele>114</ele>
				<time>2015-05-07T03:34:11Z</time>
				<extensions>
				</extensions>
			</trkpt>
			<trkpt lat="-28.217718" lon="152.842610">
				<ele>112</ele>
				<time>2015-05-07T03:34:13Z</time>
				<extensions>
				</extensions>
			</trkpt>
			<trkpt lat="-28.217863" lon="152.842377">
				<ele>112</ele>
				<time>2015-05-07T03:34:14Z</time>
				<extensions>
				</extensions>
			</trkpt>
			<trkpt lat="-28.217977" lon="152.842163">
				<ele>113</ele>
				<time>2015-05-07T03:34:15Z</time>
				<extensions>
				</extensions>
			</trkpt>
			<trkpt lat="-28.218098" lon="152.841978">
				<ele>113</ele>
				<time>2015-05-07T03:34:16Z</time>
				<extensions>
				</extensions>
			</trkpt>
			<trkpt lat="-28.218232" lon="152.841814">
				<ele>111</ele>
				<time>2015-05-07T03:34:17Z</time>
				<extensions>
				</extensions>
			</trkpt>
			<trkpt lat="-28.218360" lon="152.841622">
				<ele>111</ele>
				<time>2015-05-07T03:34:18Z</time>
				<extensions>
				</extensions>
			</trkpt>
			<trkpt lat="-28.218480" lon="152.841426">
				<ele>110</ele>
				<time>2015-05-07T03:34:19Z</time>
				<extensions>
				</extensions>
			</trkpt>
			<trkpt lat="-28.218635" lon="152.841210">
				<ele>110</ele>
				<time>2015-05-07T03:34:20Z</time>
				<extensions>
				</extensions>
			</trkpt>
			<trkpt lat="-28.218740" lon="152.841018">
				<ele>111</ele>
				<time>2015-05-07T03:34:21Z</time>
				<extensions>
				</extensions>
			</trkpt>
			<trkpt lat="-28.218874" lon="152.840824">
				<ele>113</ele>
				<time>2015-05-07T03:34:22Z</time>
				<extensions>
				</extensions>
			</trkpt>
			<trkpt lat="-28.219017" lon="152.840610">
				<ele>112</ele>
				<time>2015-05-07T03:34:23Z</time>
				<extensions>
				</extensions>
			</trkpt>
			<trkpt lat="-28.219156" lon="152.840408">
				<ele>111</ele>
				<time>2015-05-07T03:34:24Z</time>
				<extensions>
				</extensions>
			</trkpt>
			<trkpt lat="-28.219273" lon="152.840216">
				<ele>112</ele>
				<time>2015-05-07T03:34:25Z</time>
				<extensions>
				</extensions>
			</trkpt>
			<trkpt lat="-28.219381" lon="152.840010">
				<ele>113</ele>
				<time>2015-05-07T03:34:26Z</time>
				<extensions>
				</extensions>
			</trkpt>
			<trkpt lat="-28.219491" lon="152.839829">
				<ele>114</ele>
				<time>2015-05-07T03:34:27Z</time>
				<extensions>
				</extensions>
			</trkpt>
			<trkpt lat="-28.219605" lon="152.839626">
				<ele>113</ele>
				<time>2015-05-07T03:34:28Z</time>
				<extensions>
				</extensions>
			</trkpt>
			<trkpt lat="-28.219724" lon="152.839435">
				<ele>113</ele>
				<time>2015-05-07T03:34:29Z</time>
				<extensions>
				</extensions>
			</trkpt>
			<trkpt lat="-28.219864" lon="152.839242">
				<ele>112</ele>
				<time>2015-05-07T03:34:30Z</time>
				<extensions>
				</extensions>
			</trkpt>
			<trkpt lat="-28.219956" lon="152.839054">
				<ele>111</ele>
				<time>2015-05-07T03:34:31Z</time>
				<extensions>
				</extensions>
			</trkpt>
			<trkpt lat="-28.220056" lon="152.838853">
				<ele>111</ele>
				<time>2015-05-07T03:34:32Z</time>
				<extensions>
				</extensions>
			</trkpt>
			<trkpt lat="-28.220136" lon="152.838656">
				<ele>111</ele>
				<time>2015-05-07T03:34:33Z</time>
				<extensions>
				</extensions>
			</trkpt>
			<trkpt lat="-28.220217" lon="152.838444">
				<ele>109</ele>
				<time>2015-05-07T03:34:34Z</time>
				<extensions>
				</extensions>
			</trkpt>
			<trkpt lat="-28.220281" lon="152.838242">
				<ele>110</ele>
				<time>2015-05-07T03:34:35Z</time>
				<extensions>
				</extensions>
			</trkpt>
			<trkpt lat="-28.220336" lon="152.838021">
				<ele>110</ele>
				<time>2015-05-07T03:34:36Z</time>
				<extensions>
				</extensions>
			</trkpt>
			<trkpt lat="-28.220374" lon="152.837807">
				<ele>109</ele>
				<time>2015-05-07T03:34:37Z</time>
				<extensions>
				</extensions>
			</trkpt>
			<trkpt lat="-28.220392" lon="152.837583">
				<ele>109</ele>
				<time>2015-05-07T03:34:38Z</time>
				<extensions>
				</extensions>
			</trkpt>
			<trkpt lat="-28.220411" lon="152.837345">
				<ele>109</ele>
				<time>2015-05-07T03:34:39Z</time>
				<extensions>
				</extensions>
			</trkpt>
			<trkpt lat="-28.220408" lon="152.837113">
				<ele>111</ele>
				<time>2015-05-07T03:34:40Z</time>
				<extensions>
				</extensions>
			</trkpt>
			<trkpt lat="-28.220381" lon="152.836889">
				<ele>110</ele>
				<time>2015-05-07T03:34:41Z</time>
				<extensions>
				</extensions>
			</trkpt>
			<trkpt lat="-28.220348" lon="152.836677">
				<ele>111</ele>
				<time>2015-05-07T03:34:42Z</time>
				<extensions>
				</extensions>
			</trkpt>
			<trkpt lat="-28.220297" lon="152.836440">
				<ele>111</ele>
				<time>2015-05-07T03:34:43Z</time>
				<extensions>
				</extensions>
			</trkpt>
			<trkpt lat="-28.220242" lon="152.836221">
				<ele>112</ele>
				<time>2015-05-07T03:34:44Z</time>
				<extensions>
				</extensions>
			</trkpt>
			<trkpt lat="-28.220164" lon="152.835996">
				<ele>110</ele>
				<time>2015-05-07T03:34:45Z</time>
				<extensions>
				</extensions>
			</trkpt>
			<trkpt lat="-28.220064" lon="152.835783">
				<ele>112</ele>
				<time>2015-05-07T03:34:46Z</time>
				<extensions>
				</extensions>
			</trkpt>
			<trkpt lat="-28.219965" lon="152.835571">
				<ele>112</ele>
				<time>2015-05-07T03:34:47Z</time>
				<extensions>
				</extensions>
			</trkpt>
			<trkpt lat="-28.219843" lon="152.835376">
				<ele>111</ele>
				<time>2015-05-07T03:34:48Z</time>
				<extensions>
				</extensions>
			</trkpt>
			<trkpt lat="-28.219713" lon="152.835160">
				<ele>115</ele>
				<time>2015-05-07T03:34:49Z</time>
				<extensions>
				</extensions>
			</trkpt>
			<trkpt lat="-28.219574" lon="152.834951">
				<ele>116</ele>
				<time>2015-05-07T03:34:50Z</time>
				<extensions>
				</extensions>
			</trkpt>
			<trkpt lat="-28.219429" lon="152.834747">
				<ele>115</ele>
				<time>2015-05-07T03:34:51Z</time>
				<extensions>
				</extensions>
			</trkpt>
			<trkpt lat="-28.219292" lon="152.834531">
				<ele>115</ele>
				<time>2015-05-07T03:34:52Z</time>
				<extensions>
				</extensions>
			</trkpt>
			<trkpt lat="-28.219152" lon="152.834319">
				<ele>115</ele>
				<time>2015-05-07T03:34:53Z</time>
				<extensions>
				</extensions>
			</trkpt>
			<trkpt lat="-28.219019" lon="152.834110">
				<ele>113</ele>
				<time>2015-05-07T03:34:54Z</time>
				<extensions>
				</extensions>
			</trkpt>
			<trkpt lat="-28.218889" lon="152.833917">
				<ele>114</ele>
				<time>2015-05-07T03:34:55Z</time>
				<extensions>
				</extensions>
			</trkpt>
			<trkpt lat="-28.218755" lon="152.833704">
				<ele>114</ele>
				<time>2015-05-07T03:34:56Z</time>
				<extensions>
				</extensions>
			</trkpt>
			<trkpt lat="-28.218622" lon="152.833502">
				<ele>116</ele>
				<time>2015-05-07T03:34:57Z</time>
				<extensions>
				</extensions>
			</trkpt>
			<trkpt lat="-28.218487" lon="152.833311">
				<ele>116</ele>
				<time>2015-05-07T03:34:58Z</time>
				<extensions>
				</extensions>
			</trkpt>
			<trkpt lat="-28.218333" lon="152.833121">
				<ele>116</ele>
				<time>2015-05-07T03:34:59Z</time>
				<extensions>
				</extensions>
			</trkpt>
			<trkpt lat="-28.218183" lon="152.832945">
				<ele>115</ele>
				<time>2015-05-07T03:35:00Z</time>
				<extensions>
				</extensions>
			</trkpt>
			<trkpt lat="-28.218027" lon="152.832767">
				<ele>115</ele>
				<time>2015-05-07T03:35:01Z</time>
				<extensions>
				</extensions>
			</trkpt>
			<trkpt lat="-28.217850" lon="152.832610">
				<ele>114</ele>
				<time>2015-05-07T03:35:02Z</time>
				<extensions>
				</extensions>
			</trkpt>
			<trkpt lat="-28.217682" lon="152.832458">
				<ele>115</ele>
				<time>2015-05-07T03:35:03Z</time>
				<extensions>
				</extensions>
			</trkpt>
			<trkpt lat="-28.217503" lon="152.832322">
				<ele>114</ele>
				<time>2015-05-07T03:35:04Z</time>
				<extensions>
				</extensions>
			</trkpt>
			<trkpt lat="-28.217326" lon="152.832191">
				<ele>115</ele>
				<time>2015-05-07T03:35:05Z</time>
				<extensions>
				</extensions>
			</trkpt>
			<trkpt lat="-28.217134" lon="152.832087">
				<ele>115</ele>
				<time>2015-05-07T03:35:06Z</time>
				<extensions>
				</extensions>
			</trkpt>
			<trkpt lat="-28.216920" lon="152.831956">
				<ele>115</ele>
				<time>2015-05-07T03:35:07Z</time>
				<extensions>
				</extensions>
			</trkpt>
			<trkpt lat="-28.216727" lon="152.831858">
				<ele>116</ele>
				<time>2015-05-07T03:35:08Z</time>
				<extensions>
				</extensions>
			</trkpt>
			<trkpt lat="-28.216537" lon="152.831745">
				<ele>115</ele>
				<time>2015-05-07T03:35:09Z</time>
				<extensions>
				</extensions>
			</trkpt>
			<trkpt lat="-28.216351" lon="152.831628">
				<ele>116</ele>
				<time>2015-05-07T03:35:10Z</time>
				<extensions>
				</extensions>
			</trkpt>
			<trkpt lat="-28.216149" lon="152.831520">
				<ele>116</ele>
				<time>2015-05-07T03:35:11Z</time>
				<extensions>
				</extensions>
			</trkpt>
			<trkpt lat="-28.215980" lon="152.831386">
				<ele>117</ele>
				<time>2015-05-07T03:35:12Z</time>
				<extensions>
				</extensions>
			</trkpt>
			<trkpt lat="-28.215823" lon="152.831216">
				<ele>120</ele>
				<time>2015-05-07T03:35:13Z</time>
				<extensions>
				</extensions>
			</trkpt>
			<trkpt lat="-28.215673" lon="152.831024">
				<ele>119</ele>
				<time>2015-05-07T03:35:14Z</time>
				<extensions>
				</extensions>
			</trkpt>
			<trkpt lat="-28.215545" lon="152.830825">
				<ele>119</ele>
				<time>2015-05-07T03:35:15Z</time>
				<extensions>
				</extensions>
			</trkpt>
			<trkpt lat="-28.215447" lon="152.830606">
				<ele>118</ele>
				<time>2015-05-07T03:35:16Z</time>
				<extensions>
				</extensions>
			</trkpt>
			<trkpt lat="-28.215364" lon="152.830387">
				<ele>120</ele>
				<time>2015-05-07T03:35:17Z</time>
				<extensions>
				</extensions>
			</trkpt>
			<trkpt lat="-28.215326" lon="152.830136">
				<ele>120</ele>
				<time>2015-05-07T03:35:18Z</time>
				<extensions>
				</extensions>
			</trkpt>
			<trkpt lat="-28.215294" lon="152.829874">
				<ele>121</ele>
				<time>2015-05-07T03:35:19Z</time>
				<extensions>
				</extensions>
			</trkpt>
			<trkpt lat="-28.215280" lon="152.829608">
				<ele>122</ele>
				<time>2015-05-07T03:35:20Z</time>
				<extensions>
				</extensions>
			</trkpt>
			<trkpt lat="-28.215263" lon="152.829343">
				<ele>120</ele>
				<time>2015-05-07T03:35:21Z</time>
				<extensions>
				</extensions>
			</trkpt>
			<trkpt lat="-28.215255" lon="152.829083">
				<ele>120</ele>
				<time>2015-05-07T03:35:22Z</time>
				<extensions>
				</extensions>
			</trkpt>
			<trkpt lat="-28.215253" lon="152.828816">
				<ele>122</ele>
				<time>2015-05-07T03:35:23Z</time>
				<extensions>
				</extensions>
			</trkpt>
			<trkpt lat="-28.215255" lon="152.828561">
				<ele>120</ele>
				<time>2015-05-07T03:35:24Z</time>
				<extensions>
				</extensions>
			</trkpt>
			<trkpt lat="-28.215257" lon="152.828318">
				<ele>118</ele>
				<time>2015-05-07T03:35:25Z</time>
				<extensions>
				</extensions>
			</trkpt>
			<trkpt lat="-28.215254" lon="152.828088">
				<ele>117</ele>
				<time>2015-05-07T03:35:26Z</time>
				<extensions>
				</extensions>
			</trkpt>
			<trkpt lat="-28.215273" lon="152.827864">
				<ele>115</ele>
				<time>2015-05-07T03:35:27Z</time>
				<extensions>
				</extensions>
			</trkpt>
			<trkpt lat="-28.215312" lon="152.827643">
				<ele>114</ele>
				<time>2015-05-07T03:35:28Z</time>
				<extensions>
				</extensions>
			</trkpt>
			<trkpt lat="-28.215381" lon="152.827430">
				<ele>114</ele>
				<time>2015-05-07T03:35:29Z</time>
				<extensions>
				</extensions>
			</trkpt>
			<trkpt lat="-28.215473" lon="152.827217">
				<ele>114</ele>
				<time>2015-05-07T03:35:30Z</time>
				<extensions>
				</extensions>
			</trkpt>
			<trkpt lat="-28.215579" lon="152.827024">
				<ele>116</ele>
				<time>2015-05-07T03:35:31Z</time>
				<extensions>
				</extensions>
			</trkpt>
			<trkpt lat="-28.215717" lon="152.826840">
				<ele>116</ele>
				<time>2015-05-07T03:35:32Z</time>
				<extensions>
				</extensions>
			</trkpt>
			<trkpt lat="-28.215883" lon="152.826670">
				<ele>116</ele>
				<time>2015-05-07T03:35:33Z</time>
				<extensions>
				</extensions>
			</trkpt>
			<trkpt lat="-28.216056" lon="152.826524">
				<ele>114</ele>
				<time>2015-05-07T03:35:34Z</time>
				<extensions>
				</extensions>
			</trkpt>
			<trkpt lat="-28.216248" lon="152.826408">
				<ele>114</ele>
				<time>2015-05-07T03:35:35Z</time>
				<extensions>
				</extensions>
			</trkpt>
			<trkpt lat="-28.216445" lon="152.826304">
				<ele>113</ele>
				<time>2015-05-07T03:35:36Z</time>
				<extensions>
				</extensions>
			</trkpt>
			<trkpt lat="-28.216642" lon="152.826217">
				<ele>115</ele>
				<time>2015-05-07T03:35:37Z</time>
				<extensions>
				</extensions>
			</trkpt>
			<trkpt lat="-28.216834" lon="152.826128">
				<ele>116</ele>
				<time>2015-05-07T03:35:38Z</time>
				<extensions>
				</extensions>
			</trkpt>
			<trkpt lat="-28.217027" lon="152.826040">
				<ele>113</ele>
				<time>2015-05-07T03:35:39Z</time>
				<extensions>
				</extensions>
			</trkpt>
			<trkpt lat="-28.217220" lon="152.825949">
				<ele>112</ele>
				<time>2015-05-07T03:35:40Z</time>
				<extensions>
				</extensions>
			</trkpt>
			<trkpt lat="-28.217423" lon="152.825867">
				<ele>113</ele>
				<time>2015-05-07T03:35:41Z</time>
				<extensions>
				</extensions>
			</trkpt>
			<trkpt lat="-28.217611" lon="152.825771">
				<ele>113</ele>
				<time>2015-05-07T03:35:42Z</time>
				<extensions>
				</extensions>
			</trkpt>
			<trkpt lat="-28.217806" lon="152.825658">
				<ele>111</ele>
				<time>2015-05-07T03:35:43Z</time>
				<extensions>
				</extensions>
			</trkpt>
			<trkpt lat="-28.218002" lon="152.825543">
				<ele>112</ele>
				<time>2015-05-07T03:35:44Z</time>
				<extensions>
				</extensions>
			</trkpt>
			<trkpt lat="-28.218185" lon="152.825422">
				<ele>111</ele>
				<time>2015-05-07T03:35:45Z</time>
				<extensions>
				</extensions>
			</trkpt>
			<trkpt lat="-28.218379" lon="152.825317">
				<ele>111</ele>
				<time>2015-05-07T03:35:46Z</time>
				<extensions>
				</extensions>
			</trkpt>
			<trkpt lat="-28.218541" lon="152.825169">
				<ele>109</ele>
				<time>2015-05-07T03:35:47Z</time>
				<extensions>
				</extensions>
			</trkpt>
			<trkpt lat="-28.218696" lon="152.824990">
				<ele>109</ele>
				<time>2015-05-07T03:35:48Z</time>
				<extensions>
				</extensions>
			</trkpt>
			<trkpt lat="-28.218730" lon="152.824762">
				<ele>111</ele>
				<time>2015-05-07T03:35:49Z</time>
				<extensions>
				</extensions>
			</trkpt>
			<trkpt lat="-28.218839" lon="152.824541">
				<ele>110</ele>
				<time>2015-05-07T03:35:50Z</time>
				<extensions>
				</extensions>
			</trkpt>
			<trkpt lat="-28.218929" lon="152.824310">
				<ele>111</ele>
				<time>2015-05-07T03:35:51Z</time>
				<extensions>
				</extensions>
			</trkpt>
			<trkpt lat="-28.219007" lon="152.824088">
				<ele>113</ele>
				<time>2015-05-07T03:35:52Z</time>
				<extensions>
				</extensions>
			</trkpt>
			<trkpt lat="-28.219064" lon="152.823889">
				<ele>110</ele>
				<time>2015-05-07T03:35:53Z</time>
				<extensions>
				</extensions>
			</trkpt>
			<trkpt lat="-28.219104" lon="152.823666">
				<ele>109</ele>
				<time>2015-05-07T03:35:54Z</time>
				<extensions>
				</extensions>
			</trkpt>
			<trkpt lat="-28.219135" lon="152.823457">
				<ele>110</ele>
				<time>2015-05-07T03:35:55Z</time>
				<extensions>
				</extensions>
			</trkpt>
			<trkpt lat="-28.219133" lon="152.823247">
				<ele>110</ele>
				<time>2015-05-07T03:35:56Z</time>
				<extensions>
				</extensions>
			</trkpt>
			<trkpt lat="-28.219122" lon="152.823031">
				<ele>110</ele>
				<time>2015-05-07T03:35:57Z</time>
				<extensions>
				</extensions>
			</trkpt>
			<trkpt lat="-28.219102" lon="152.822813">
				<ele>110</ele>
				<time>2015-05-07T03:35:58Z</time>
				<extensions>
				</extensions>
			</trkpt>
			<trkpt lat="-28.219055" lon="152.822599">
				<ele>110</ele>
				<time>2015-05-07T03:35:59Z</time>
				<extensions>
				</extensions>
			</trkpt>
			<trkpt lat="-28.218977" lon="152.822392">
				<ele>110</ele>
				<time>2015-05-07T03:36:00Z</time>
				<extensions>
				</extensions>
			</trkpt>
			<trkpt lat="-28.218873" lon="152.822216">
				<ele>110</ele>
				<time>2015-05-07T03:36:01Z</time>
				<extensions>
				</extensions>
			</trkpt>
			<trkpt lat="-28.218760" lon="152.822026">
				<ele>109</ele>
				<time>2015-05-07T03:36:02Z</time>
				<extensions>
				</extensions>
			</trkpt>
			<trkpt lat="-28.218640" lon="152.821833">
				<ele>111</ele>
				<time>2015-05-07T03:36:03Z</time>
				<extensions>
				</extensions>
			</trkpt>
			<trkpt lat="-28.218505" lon="152.821659">
				<ele>112</ele>
				<time>2015-05-07T03:36:04Z</time>
				<extensions>
				</extensions>
			</trkpt>
			<trkpt lat="-28.218352" lon="152.821498">
				<ele>113</ele>
				<time>2015-05-07T03:36:05Z</time>
				<extensions>
				</extensions>
			</trkpt>
			<trkpt lat="-28.218199" lon="152.821341">
				<ele>112</ele>
				<time>2015-05-07T03:36:06Z</time>
				<extensions>
				</extensions>
			</trkpt>
			<trkpt lat="-28.218040" lon="152.821173">
				<ele>113</ele>
				<time>2015-05-07T03:36:07Z</time>
				<extensions>
				</extensions>
			</trkpt>
			<trkpt lat="-28.217885" lon="152.821005">
				<ele>115</ele>
				<time>2015-05-07T03:36:08Z</time>
				<extensions>
				</extensions>
			</trkpt>
			<trkpt lat="-28.217719" lon="152.820835">
				<ele>115</ele>
				<time>2015-05-07T03:36:09Z</time>
				<extensions>
				</extensions>
			</trkpt>
			<trkpt lat="-28.217551" lon="152.820668">
				<ele>116</ele>
				<time>2015-05-07T03:36:10Z</time>
				<extensions>
				</extensions>
			</trkpt>
			<trkpt lat="-28.217383" lon="152.820514">
				<ele>116</ele>
				<time>2015-05-07T03:36:11Z</time>
				<extensions>
				</extensions>
			</trkpt>
			<trkpt lat="-28.217220" lon="152.820345">
				<ele>116</ele>
				<time>2015-05-07T03:36:12Z</time>
				<extensions>
				</extensions>
			</trkpt>
			<trkpt lat="-28.217065" lon="152.820172">
				<ele>115</ele>
				<time>2015-05-07T03:36:13Z</time>
				<extensions>
				</extensions>
			</trkpt>
			<trkpt lat="-28.216909" lon="152.820015">
				<ele>114</ele>
				<time>2015-05-07T03:36:14Z</time>
				<extensions>
				</extensions>
			</trkpt>
			<trkpt lat="-28.216767" lon="152.819847">
				<ele>115</ele>
				<time>2015-05-07T03:36:15Z</time>
				<extensions>
				</extensions>
			</trkpt>
			<trkpt lat="-28.216626" lon="152.819676">
				<ele>114</ele>
				<time>2015-05-07T03:36:16Z</time>
				<extensions>
				</extensions>
			</trkpt>
			<trkpt lat="-28.216487" lon="152.819492">
				<ele>114</ele>
				<time>2015-05-07T03:36:17Z</time>
				<extensions>
				</extensions>
			</trkpt>
			<trkpt lat="-28.216360" lon="152.819316">
				<ele>114</ele>
				<time>2015-05-07T03:36:18Z</time>
				<extensions>
				</extensions>
			</trkpt>
			<trkpt lat="-28.216245" lon="152.819126">
				<ele>115</ele>
				<time>2015-05-07T03:36:19Z</time>
				<extensions>
				</extensions>
			</trkpt>
			<trkpt lat="-28.216137" lon="152.818930">
				<ele>117</ele>
				<time>2015-05-07T03:36:20Z</time>
				<extensions>
				</extensions>
			</trkpt>
			<trkpt lat="-28.216039" lon="152.818727">
				<ele>114</ele>
				<time>2015-05-07T03:36:21Z</time>
				<extensions>
				</extensions>
			</trkpt>
			<trkpt lat="-28.215945" lon="152.818521">
				<ele>115</ele>
				<time>2015-05-07T03:36:22Z</time>
				<extensions>
				</extensions>
			</trkpt>
			<trkpt lat="-28.215855" lon="152.818302">
				<ele>116</ele>
				<time>2015-05-07T03:36:23Z</time>
				<extensions>
				</extensions>
			</trkpt>
			<trkpt lat="-28.215778" lon="152.818085">
				<ele>116</ele>
				<time>2015-05-07T03:36:24Z</time>
				<extensions>
				</extensions>
			</trkpt>
			<trkpt lat="-28.215702" lon="152.817866">
				<ele>117</ele>
				<time>2015-05-07T03:36:25Z</time>
				<extensions>
				</extensions>
			</trkpt>
			<trkpt lat="-28.215640" lon="152.817639">
				<ele>118</ele>
				<time>2015-05-07T03:36:26Z</time>
				<extensions>
				</extensions>
			</trkpt>
			<trkpt lat="-28.215586" lon="152.817411">
				<ele>118</ele>
				<time>2015-05-07T03:36:27Z</time>
				<extensions>
				</extensions>
			</trkpt>
			<trkpt lat="-28.215534" lon="152.817170">
				<ele>119</ele>
				<time>2015-05-07T03:36:28Z</time>
				<extensions>
				</extensions>
			</trkpt>
			<trkpt lat="-28.215484" lon="152.816942">
				<ele>121</ele>
				<time>2015-05-07T03:36:29Z</time>
				<extensions>
				</extensions>
			</trkpt>
			<trkpt lat="-28.215419" lon="152.816710">
				<ele>121</ele>
				<time>2015-05-07T03:36:30Z</time>
				<extensions>
				</extensions>
			</trkpt>
			<trkpt lat="-28.215349" lon="152.816481">
				<ele>123</ele>
				<time>2015-05-07T03:36:31Z</time>
				<extensions>
				</extensions>
			</trkpt>
			<trkpt lat="-28.215292" lon="152.816257">
				<ele>124</ele>
				<time>2015-05-07T03:36:32Z</time>
				<extensions>
				</extensions>
			</trkpt>
			<trkpt lat="-28.215235" lon="152.816028">
				<ele>123</ele>
				<time>2015-05-07T03:36:33Z</time>
				<extensions>
				</extensions>
			</trkpt>
			<trkpt lat="-28.215189" lon="152.815796">
				<ele>122</ele>
				<time>2015-05-07T03:36:34Z</time>
				<extensions>
				</extensions>
			</trkpt>
			<trkpt lat="-28.215129" lon="152.815579">
				<ele>120</ele>
				<time>2015-05-07T03:36:35Z</time>
				<extensions>
				</extensions>
			</trkpt>
			<trkpt lat="-28.215057" lon="152.815367">
				<ele>122</ele>
				<time>2015-05-07T03:36:36Z</time>
				<extensions>
				</extensions>
			</trkpt>
			<trkpt lat="-28.214972" lon="152.815170">
				<ele>124</ele>
				<time>2015-05-07T03:36:37Z</time>
				<extensions>
				</extensions>
			</trkpt>
			<trkpt lat="-28.214882" lon="152.814965">
				<ele>122</ele>
				<time>2015-05-07T03:36:38Z</time>
				<extensions>
				</extensions>
			</trkpt>
			<trkpt lat="-28.214777" lon="152.814774">
				<ele>122</ele>
				<time>2015-05-07T03:36:39Z</time>
				<extensions>
				</extensions>
			</trkpt>
			<trkpt lat="-28.214682" lon="152.814584">
				<ele>122</ele>
				<time>2015-05-07T03:36:40Z</time>
				<extensions>
				</extensions>
			</trkpt>
			<trkpt lat="-28.214581" lon="152.814392">
				<ele>122</ele>
				<time>2015-05-07T03:36:41Z</time>
				<extensions>
				</extensions>
			</trkpt>
			<trkpt lat="-28.214483" lon="152.814210">
				<ele>120</ele>
				<time>2015-05-07T03:36:42Z</time>
				<extensions>
				</extensions>
			</trkpt>
			<trkpt lat="-28.214379" lon="152.814027">
				<ele>118</ele>
				<time>2015-05-07T03:36:43Z</time>
				<extensions>
				</extensions>
			</trkpt>
			<trkpt lat="-28.214271" lon="152.813833">
				<ele>117</ele>
				<time>2015-05-07T03:36:44Z</time>
				<extensions>
				</extensions>
			</trkpt>
			<trkpt lat="-28.214194" lon="152.813643">
				<ele>116</ele>
				<time>2015-05-07T03:36:45Z</time>
				<extensions>
				</extensions>
			</trkpt>
			<trkpt lat="-28.214083" lon="152.813439">
				<ele>116</ele>
				<time>2015-05-07T03:36:46Z</time>
				<extensions>
				</extensions>
			</trkpt>
			<trkpt lat="-28.213996" lon="152.813252">
				<ele>114</ele>
				<time>2015-05-07T03:36:47Z</time>
				<extensions>
				</extensions>
			</trkpt>
			<trkpt lat="-28.213888" lon="152.813060">
				<ele>115</ele>
				<time>2015-05-07T03:36:48Z</time>
				<extensions>
				</extensions>
			</trkpt>
			<trkpt lat="-28.213786" lon="152.812873">
				<ele>115</ele>
				<time>2015-05-07T03:36:49Z</time>
				<extensions>
				</extensions>
			</trkpt>
			<trkpt lat="-28.213667" lon="152.812659">
				<ele>114</ele>
				<time>2015-05-07T03:36:50Z</time>
				<extensions>
				</extensions>
			</trkpt>
			<trkpt lat="-28.213565" lon="152.812462">
				<ele>113</ele>
				<time>2015-05-07T03:36:51Z</time>
				<extensions>
				</extensions>
			</trkpt>
			<trkpt lat="-28.213459" lon="152.812269">
				<ele>112</ele>
				<time>2015-05-07T03:36:52Z</time>
				<extensions>
				</extensions>
			</trkpt>
			<trkpt lat="-28.213358" lon="152.812085">
				<ele>113</ele>
				<time>2015-05-07T03:36:53Z</time>
				<extensions>
				</extensions>
			</trkpt>
			<trkpt lat="-28.213261" lon="152.811883">
				<ele>114</ele>
				<time>2015-05-07T03:36:54Z</time>
				<extensions>
				</extensions>
			</trkpt>
			<trkpt lat="-28.213160" lon="152.811689">
				<ele>112</ele>
				<time>2015-05-07T03:36:55Z</time>
				<extensions>
				</extensions>
			</trkpt>
			<trkpt lat="-28.213060" lon="152.811490">
				<ele>112</ele>
				<time>2015-05-07T03:36:56Z</time>
				<extensions>
				</extensions>
			</trkpt>
			<trkpt lat="-28.212955" lon="152.811319">
				<ele>113</ele>
				<time>2015-05-07T03:36:57Z</time>
				<extensions>
				</extensions>
			</trkpt>
			<trkpt lat="-28.212838" lon="152.811137">
				<ele>114</ele>
				<time>2015-05-07T03:36:58Z</time>
				<extensions>
				</extensions>
			</trkpt>
			<trkpt lat="-28.212717" lon="152.810970">
				<ele>114</ele>
				<time>2015-05-07T03:36:59Z</time>
				<extensions>
				</extensions>
			</trkpt>
			<trkpt lat="-28.212596" lon="152.810788">
				<ele>114</ele>
				<time>2015-05-07T03:37:00Z</time>
				<extensions>
				</extensions>
			</trkpt>
			<trkpt lat="-28.212470" lon="152.810609">
				<ele>114</ele>
				<time>2015-05-07T03:37:01Z</time>
				<extensions>
				</extensions>
			</trkpt>
			<trkpt lat="-28.212338" lon="152.810428">
				<ele>114</ele>
				<time>2015-05-07T03:37:02Z</time>
				<extensions>
				</extensions>
			</trkpt>
			<trkpt lat="-28.212199" lon="152.810242">
				<ele>116</ele>
				<time>2015-05-07T03:37:03Z</time>
				<extensions>
				</extensions>
			</trkpt>
			<trkpt lat="-28.212061" lon="152.810057">
				<ele>115</ele>
				<time>2015-05-07T03:37:04Z</time>
				<extensions>
				</extensions>
			</trkpt>
			<trkpt lat="-28.211925" lon="152.809859">
				<ele>118</ele>
				<time>2015-05-07T03:37:05Z</time>
				<extensions>
				</extensions>
			</trkpt>
			<trkpt lat="-28.211797" lon="152.809692">
				<ele>119</ele>
				<time>2015-05-07T03:37:06Z</time>
				<extensions>
				</extensions>
			</trkpt>
			<trkpt lat="-28.211656" lon="152.809494">
				<ele>119</ele>
				<time>2015-05-07T03:37:07Z</time>
				<extensions>
				</extensions>
			</trkpt>
			<trkpt lat="-28.211520" lon="152.809316">
				<ele>118</ele>
				<time>2015-05-07T03:37:08Z</time>
				<extensions>
				</extensions>
			</trkpt>
			<trkpt lat="-28.211379" lon="152.809123">
				<ele>117</ele>
				<time>2015-05-07T03:37:09Z</time>
				<extensions>
				</extensions>
			</trkpt>
			<trkpt lat="-28.211230" lon="152.808914">
				<ele>119</ele>
				<time>2015-05-07T03:37:10Z</time>
				<extensions>
				</extensions>
			</trkpt>
			<trkpt lat="-28.211093" lon="152.808714">
				<ele>119</ele>
				<time>2015-05-07T03:37:11Z</time>
				<extensions>
				</extensions>
			</trkpt>
			<trkpt lat="-28.210956" lon="152.808516">
				<ele>118</ele>
				<time>2015-05-07T03:37:12Z</time>
				<extensions>
				</extensions>
			</trkpt>
			<trkpt lat="-28.210821" lon="152.808338">
				<ele>118</ele>
				<time>2015-05-07T03:37:13Z</time>
				<extensions>
				</extensions>
			</trkpt>
			<trkpt lat="-28.210684" lon="152.808150">
				<ele>117</ele>
				<time>2015-05-07T03:37:14Z</time>
				<extensions>
				</extensions>
			</trkpt>
			<trkpt lat="-28.210549" lon="152.807965">
				<ele>118</ele>
				<time>2015-05-07T03:37:15Z</time>
				<extensions>
				</extensions>
			</trkpt>
			<trkpt lat="-28.210410" lon="152.807771">
				<ele>117</ele>
				<time>2015-05-07T03:37:16Z</time>
				<extensions>
				</extensions>
			</trkpt>
			<trkpt lat="-28.210283" lon="152.807593">
				<ele>118</ele>
				<time>2015-05-07T03:37:17Z</time>
				<extensions>
				</extensions>
			</trkpt>
			<trkpt lat="-28.210158" lon="152.807418">
				<ele>117</ele>
				<time>2015-05-07T03:37:18Z</time>
				<extensions>
				</extensions>
			</trkpt>
			<trkpt lat="-28.210035" lon="152.807245">
				<ele>115</ele>
				<time>2015-05-07T03:37:19Z</time>
				<extensions>
				</extensions>
			</trkpt>
			<trkpt lat="-28.209813" lon="152.806926">
				<ele>114</ele>
				<time>2015-05-07T03:37:21Z</time>
				<extensions>
				</extensions>
			</trkpt>
			<trkpt lat="-28.209709" lon="152.806747">
				<ele>115</ele>
				<time>2015-05-07T03:37:22Z</time>
				<extensions>
				</extensions>
			</trkpt>
			<trkpt lat="-28.209617" lon="152.806565">
				<ele>115</ele>
				<time>2015-05-07T03:37:23Z</time>
				<extensions>
				</extensions>
			</trkpt>
			<trkpt lat="-28.209532" lon="152.806369">
				<ele>116</ele>
				<time>2015-05-07T03:37:24Z</time>
				<extensions>
				</extensions>
			</trkpt>
			<trkpt lat="-28.209459" lon="152.806165">
				<ele>115</ele>
				<time>2015-05-07T03:37:25Z</time>
				<extensions>
				</extensions>
			</trkpt>
			<trkpt lat="-28.209404" lon="152.805961">
				<ele>116</ele>
				<time>2015-05-07T03:37:26Z</time>
				<extensions>
				</extensions>
			</trkpt>
			<trkpt lat="-28.209365" lon="152.805748">
				<ele>116</ele>
				<time>2015-05-07T03:37:27Z</time>
				<extensions>
				</extensions>
			</trkpt>
			<trkpt lat="-28.209341" lon="152.805536">
				<ele>117</ele>
				<time>2015-05-07T03:37:28Z</time>
				<extensions>
				</extensions>
			</trkpt>
			<trkpt lat="-28.209329" lon="152.805301">
				<ele>117</ele>
				<time>2015-05-07T03:37:29Z</time>
				<extensions>
				</extensions>
			</trkpt>
			<trkpt lat="-28.209326" lon="152.805062">
				<ele>117</ele>
				<time>2015-05-07T03:37:30Z</time>
				<extensions>
				</extensions>
			</trkpt>
			<trkpt lat="-28.209327" lon="152.804819">
				<ele>117</ele>
				<time>2015-05-07T03:37:31Z</time>
				<extensions>
				</extensions>
			</trkpt>
			<trkpt lat="-28.209327" lon="152.804570">
				<ele>118</ele>
				<time>2015-05-07T03:37:32Z</time>
				<extensions>
				</extensions>
			</trkpt>
			<trkpt lat="-28.209328" lon="152.804345">
				<ele>119</ele>
				<time>2015-05-07T03:37:33Z</time>
				<extensions>
				</extensions>
			</trkpt>
			<trkpt lat="-28.209328" lon="152.804094">
				<ele>119</ele>
				<time>2015-05-07T03:37:34Z</time>
				<extensions>
				</extensions>
			</trkpt>
			<trkpt lat="-28.209323" lon="152.803841">
				<ele>118</ele>
				<time>2015-05-07T03:37:35Z</time>
				<extensions>
				</extensions>
			</trkpt>
			<trkpt lat="-28.209311" lon="152.803598">
				<ele>119</ele>
				<time>2015-05-07T03:37:36Z</time>
				<extensions>
				</extensions>
			</trkpt>
			<trkpt lat="-28.209292" lon="152.803369">
				<ele>119</ele>
				<time>2015-05-07T03:37:37Z</time>
				<extensions>
				</extensions>
			</trkpt>
			<trkpt lat="-28.209253" lon="152.803139">
				<ele>118</ele>
				<time>2015-05-07T03:37:38Z</time>
				<extensions>
				</extensions>
			</trkpt>
			<trkpt lat="-28.209195" lon="152.802892">
				<ele>118</ele>
				<time>2015-05-07T03:37:39Z</time>
				<extensions>
				</extensions>
			</trkpt>
			<trkpt lat="-28.209123" lon="152.802666">
				<ele>118</ele>
				<time>2015-05-07T03:37:40Z</time>
				<extensions>
				</extensions>
			</trkpt>
			<trkpt lat="-28.209035" lon="152.802413">
				<ele>119</ele>
				<time>2015-05-07T03:37:41Z</time>
				<extensions>
				</extensions>
			</trkpt>
			<trkpt lat="-28.208934" lon="152.802206">
				<ele>119</ele>
				<time>2015-05-07T03:37:42Z</time>
				<extensions>
				</extensions>
			</trkpt>
			<trkpt lat="-28.208819" lon="152.802012">
				<ele>117</ele>
				<time>2015-05-07T03:37:43Z</time>
				<extensions>
				</extensions>
			</trkpt>
			<trkpt lat="-28.208695" lon="152.801834">
				<ele>118</ele>
				<time>2015-05-07T03:37:44Z</time>
				<extensions>
				</extensions>
			</trkpt>
			<trkpt lat="-28.208569" lon="152.801634">
				<ele>119</ele>
				<time>2015-05-07T03:37:45Z</time>
				<extensions>
				</extensions>
			</trkpt>
			<trkpt lat="-28.208453" lon="152.801451">
				<ele>119</ele>
				<time>2015-05-07T03:37:46Z</time>
				<extensions>
				</extensions>
			</trkpt>
			<trkpt lat="-28.208323" lon="152.801255">
				<ele>121</ele>
				<time>2015-05-07T03:37:47Z</time>
				<extensions>
				</extensions>
			</trkpt>
			<trkpt lat="-28.208208" lon="152.801065">
				<ele>121</ele>
				<time>2015-05-07T03:37:48Z</time>
				<extensions>
				</extensions>
			</trkpt>
			<trkpt lat="-28.208091" lon="152.800864">
				<ele>121</ele>
				<time>2015-05-07T03:37:49Z</time>
				<extensions>
				</extensions>
			</trkpt>
			<trkpt lat="-28.207995" lon="152.800660">
				<ele>123</ele>
				<time>2015-05-07T03:37:50Z</time>
				<extensions>
				</extensions>
			</trkpt>
			<trkpt lat="-28.207899" lon="152.800445">
				<ele>122</ele>
				<time>2015-05-07T03:37:51Z</time>
				<extensions>
				</extensions>
			</trkpt>
			<trkpt lat="-28.207815" lon="152.800243">
				<ele>122</ele>
				<time>2015-05-07T03:37:52Z</time>
				<extensions>
				</extensions>
			</trkpt>
			<trkpt lat="-28.207744" lon="152.800026">
				<ele>122</ele>
				<time>2015-05-07T03:37:53Z</time>
				<extensions>
				</extensions>
			</trkpt>
			<trkpt lat="-28.207680" lon="152.799806">
				<ele>122</ele>
				<time>2015-05-07T03:37:54Z</time>
				<extensions>
				</extensions>
			</trkpt>
			<trkpt lat="-28.207622" lon="152.799583">
				<ele>121</ele>
				<time>2015-05-07T03:37:55Z</time>
				<extensions>
				</extensions>
			</trkpt>
			<trkpt lat="-28.207574" lon="152.799353">
				<ele>121</ele>
				<time>2015-05-07T03:37:56Z</time>
				<extensions>
				</extensions>
			</trkpt>
			<trkpt lat="-28.207543" lon="152.799126">
				<ele>122</ele>
				<time>2015-05-07T03:37:57Z</time>
				<extensions>
				</extensions>
			</trkpt>
			<trkpt lat="-28.207519" lon="152.798878">
				<ele>123</ele>
				<time>2015-05-07T03:37:58Z</time>
				<extensions>
				</extensions>
			</trkpt>
			<trkpt lat="-28.207505" lon="152.798657">
				<ele>122</ele>
				<time>2015-05-07T03:37:59Z</time>
				<extensions>
				</extensions>
			</trkpt>
			<trkpt lat="-28.207493" lon="152.798422">
				<ele>122</ele>
				<time>2015-05-07T03:38:00Z</time>
				<extensions>
				</extensions>
			</trkpt>
			<trkpt lat="-28.207492" lon="152.798190">
				<ele>122</ele>
				<time>2015-05-07T03:38:01Z</time>
				<extensions>
				</extensions>
			</trkpt>
			<trkpt lat="-28.207486" lon="152.797967">
				<ele>121</ele>
				<time>2015-05-07T03:38:02Z</time>
				<extensions>
				</extensions>
			</trkpt>
			<trkpt lat="-28.207483" lon="152.797743">
				<ele>121</ele>
				<time>2015-05-07T03:38:03Z</time>
				<extensions>
				</extensions>
			</trkpt>
			<trkpt lat="-28.207481" lon="152.797515">
				<ele>118</ele>
				<time>2015-05-07T03:38:04Z</time>
				<extensions>
				</extensions>
			</trkpt>
			<trkpt lat="-28.207485" lon="152.797105">
				<ele>116</ele>
				<time>2015-05-07T03:38:06Z</time>
				<extensions>
				</extensions>
			</trkpt>
			<trkpt lat="-28.207478" lon="152.796749">
				<ele>113</ele>
				<time>2015-05-07T03:38:08Z</time>
				<extensions>
				</extensions>
			</trkpt>
			<trkpt lat="-28.207452" lon="152.796412">
				<ele>110</ele>
				<time>2015-05-07T03:38:10Z</time>
				<extensions>
				</extensions>
			</trkpt>
			<trkpt lat="-28.207358" lon="152.796146">
				<ele>108</ele>
				<time>2015-05-07T03:38:12Z</time>
				<extensions>
				</extensions>
			</trkpt>
			<trkpt lat="-28.207228" lon="152.795845">
				<ele>106</ele>
				<time>2015-05-07T03:38:14Z</time>
				<extensions>
				</extensions>
			</trkpt>
			<trkpt lat="-28.207119" lon="152.795561">
				<ele>106</ele>
				<time>2015-05-07T03:38:16Z</time>
				<extensions>
				</extensions>
			</trkpt>
			<trkpt lat="-28.207007" lon="152.795233">
				<ele>108</ele>
				<time>2015-05-07T03:38:18Z</time>
				<extensions>
				</extensions>
			</trkpt>
			<trkpt lat="-28.206969" lon="152.794976">
				<ele>110</ele>
				<time>2015-05-07T03:38:20Z</time>
				<extensions>
				</extensions>
			</trkpt>
			<trkpt lat="-28.206969" lon="152.794601">
				<ele>111</ele>
				<time>2015-05-07T03:38:22Z</time>
				<extensions>
				</extensions>
			</trkpt>
			<trkpt lat="-28.206963" lon="152.794257">
				<ele>113</ele>
				<time>2015-05-07T03:38:24Z</time>
				<extensions>
				</extensions>
			</trkpt>
			<trkpt lat="-28.206903" lon="152.793860">
				<ele>111</ele>
				<time>2015-05-07T03:38:26Z</time>
				<extensions>
				</extensions>
			</trkpt>
			<trkpt lat="-28.206759" lon="152.793566">
				<ele>112</ele>
				<time>2015-05-07T03:38:28Z</time>
				<extensions>
				</extensions>
			</trkpt>
			<trkpt lat="-28.206632" lon="152.793410">
				<ele>113</ele>
				<time>2015-05-07T03:38:29Z</time>
				<extensions>
				</extensions>
			</trkpt>
			<trkpt lat="-28.206376" lon="152.793144">
				<ele>116</ele>
				<time>2015-05-07T03:38:31Z</time>
				<extensions>
				</extensions>
			</trkpt>
			<trkpt lat="-28.206218" lon="152.792989">
				<ele>119</ele>
				<time>2015-05-07T03:38:32Z</time>
				<extensions>
				</extensions>
			</trkpt>
			<trkpt lat="-28.206082" lon="152.792855">
				<ele>120</ele>
				<time>2015-05-07T03:38:33Z</time>
				<extensions>
				</extensions>
			</trkpt>
			<trkpt lat="-28.205942" lon="152.792716">
				<ele>120</ele>
				<time>2015-05-07T03:38:34Z</time>
				<extensions>
				</extensions>
			</trkpt>
			<trkpt lat="-28.205796" lon="152.792571">
				<ele>120</ele>
				<time>2015-05-07T03:38:35Z</time>
				<extensions>
				</extensions>
			</trkpt>
			<trkpt lat="-28.205524" lon="152.792302">
				<ele>120</ele>
				<time>2015-05-07T03:38:37Z</time>
				<extensions>
				</extensions>
			</trkpt>
			<trkpt lat="-28.205254" lon="152.792036">
				<ele>121</ele>
				<time>2015-05-07T03:38:39Z</time>
				<extensions>
				</extensions>
			</trkpt>
			<trkpt lat="-28.205102" lon="152.791885">
				<ele>122</ele>
				<time>2015-05-07T03:38:40Z</time>
				<extensions>
				</extensions>
			</trkpt>
			<trkpt lat="-28.204949" lon="152.791734">
				<ele>122</ele>
				<time>2015-05-07T03:38:41Z</time>
				<extensions>
				</extensions>
			</trkpt>
			<trkpt lat="-28.204803" lon="152.791589">
				<ele>120</ele>
				<time>2015-05-07T03:38:42Z</time>
				<extensions>
				</extensions>
			</trkpt>
			<trkpt lat="-28.204650" lon="152.791437">
				<ele>121</ele>
				<time>2015-05-07T03:38:43Z</time>
				<extensions>
				</extensions>
			</trkpt>
			<trkpt lat="-28.204509" lon="152.791295">
				<ele>120</ele>
				<time>2015-05-07T03:38:44Z</time>
				<extensions>
				</extensions>
			</trkpt>
			<trkpt lat="-28.204366" lon="152.791153">
				<ele>121</ele>
				<time>2015-05-07T03:38:45Z</time>
				<extensions>
				</extensions>
			</trkpt>
			<trkpt lat="-28.204230" lon="152.791012">
				<ele>121</ele>
				<time>2015-05-07T03:38:46Z</time>
				<extensions>
				</extensions>
			</trkpt>
			<trkpt lat="-28.204088" lon="152.790863">
				<ele>121</ele>
				<time>2015-05-07T03:38:47Z</time>
				<extensions>
				</extensions>
			</trkpt>
			<trkpt lat="-28.203853" lon="152.790585">
				<ele>121</ele>
				<time>2015-05-07T03:38:49Z</time>
				<extensions>
				</extensions>
			</trkpt>
			<trkpt lat="-28.203739" lon="152.790424">
				<ele>121</ele>
				<time>2015-05-07T03:38:50Z</time>
				<extensions>
				</extensions>
			</trkpt>
			<trkpt lat="-28.203515" lon="152.790102">
				<ele>122</ele>
				<time>2015-05-07T03:38:52Z</time>
				<extensions>
				</extensions>
			</trkpt>
			<trkpt lat="-28.203399" lon="152.789932">
				<ele>120</ele>
				<time>2015-05-07T03:38:53Z</time>
				<extensions>
				</extensions>
			</trkpt>
			<trkpt lat="-28.203282" lon="152.789762">
				<ele>120</ele>
				<time>2015-05-07T03:38:54Z</time>
				<extensions>
				</extensions>
			</trkpt>
			<trkpt lat="-28.203064" lon="152.789446">
				<ele>122</ele>
				<time>2015-05-07T03:38:56Z</time>
				<extensions>
				</extensions>
			</trkpt>
			<trkpt lat="-28.202950" lon="152.789283">
				<ele>122</ele>
				<time>2015-05-07T03:38:57Z</time>
				<extensions>
				</extensions>
			</trkpt>
			<trkpt lat="-28.202832" lon="152.789115">
				<ele>122</ele>
				<time>2015-05-07T03:38:58Z</time>
				<extensions>
				</extensions>
			</trkpt>
			<trkpt lat="-28.202717" lon="152.788944">
				<ele>121</ele>
				<time>2015-05-07T03:38:59Z</time>
				<extensions>
				</extensions>
			</trkpt>
			<trkpt lat="-28.202604" lon="152.788776">
				<ele>121</ele>
				<time>2015-05-07T03:39:00Z</time>
				<extensions>
				</extensions>
			</trkpt>
			<trkpt lat="-28.202489" lon="152.788583">
				<ele>121</ele>
				<time>2015-05-07T03:39:01Z</time>
				<extensions>
				</extensions>
			</trkpt>
			<trkpt lat="-28.202373" lon="152.788388">
				<ele>120</ele>
				<time>2015-05-07T03:39:02Z</time>
				<extensions>
				</extensions>
			</trkpt>
			<trkpt lat="-28.202248" lon="152.788192">
				<ele>119</ele>
				<time>2015-05-07T03:39:03Z</time>
				<extensions>
				</extensions>
			</trkpt>
			<trkpt lat="-28.202135" lon="152.788032">
				<ele>119</ele>
				<time>2015-05-07T03:39:04Z</time>
				<extensions>
				</extensions>
			</trkpt>
			<trkpt lat="-28.202013" lon="152.787838">
				<ele>120</ele>
				<time>2015-05-07T03:39:05Z</time>
				<extensions>
				</extensions>
			</trkpt>
			<trkpt lat="-28.201904" lon="152.787668">
				<ele>120</ele>
				<time>2015-05-07T03:39:06Z</time>
				<extensions>
				</extensions>
			</trkpt>
			<trkpt lat="-28.201796" lon="152.787496">
				<ele>121</ele>
				<time>2015-05-07T03:39:07Z</time>
				<extensions>
				</extensions>
			</trkpt>
			<trkpt lat="-28.201691" lon="152.787314">
				<ele>121</ele>
				<time>2015-05-07T03:39:08Z</time>
				<extensions>
				</extensions>
			</trkpt>
			<trkpt lat="-28.201565" lon="152.787137">
				<ele>121</ele>
				<time>2015-05-07T03:39:09Z</time>
				<extensions>
				</extensions>
			</trkpt>
			<trkpt lat="-28.201358" lon="152.786802">
				<ele>120</ele>
				<time>2015-05-07T03:39:11Z</time>
				<extensions>
				</extensions>
			</trkpt>
			<trkpt lat="-28.201143" lon="152.786482">
				<ele>122</ele>
				<time>2015-05-07T03:39:13Z</time>
				<extensions>
				</extensions>
			</trkpt>
			<trkpt lat="-28.200911" lon="152.786175">
				<ele>120</ele>
				<time>2015-05-07T03:39:15Z</time>
				<extensions>
				</extensions>
			</trkpt>
			<trkpt lat="-28.200690" lon="152.785889">
				<ele>119</ele>
				<time>2015-05-07T03:39:17Z</time>
				<extensions>
				</extensions>
			</trkpt>
			<trkpt lat="-28.200433" lon="152.785643">
				<ele>119</ele>
				<time>2015-05-07T03:39:19Z</time>
				<extensions>
				</extensions>
			</trkpt>
			<trkpt lat="-28.200118" lon="152.785467">
				<ele>119</ele>
				<time>2015-05-07T03:39:21Z</time>
				<extensions>
				</extensions>
			</trkpt>
			<trkpt lat="-28.199927" lon="152.785402">
				<ele>121</ele>
				<time>2015-05-07T03:39:22Z</time>
				<extensions>
				</extensions>
			</trkpt>
			<trkpt lat="-28.199732" lon="152.785339">
				<ele>122</ele>
				<time>2015-05-07T03:39:23Z</time>
				<extensions>
				</extensions>
			</trkpt>
			<trkpt lat="-28.199408" lon="152.785267">
				<ele>121</ele>
				<time>2015-05-07T03:39:25Z</time>
				<extensions>
				</extensions>
			</trkpt>
			<trkpt lat="-28.199134" lon="152.785183">
				<ele>120</ele>
				<time>2015-05-07T03:39:27Z</time>
				<extensions>
				</extensions>
			</trkpt>
			<trkpt lat="-28.198889" lon="152.785100">
				<ele>120</ele>
				<time>2015-05-07T03:39:29Z</time>
				<extensions>
				</extensions>
			</trkpt>
			<trkpt lat="-28.198688" lon="152.785041">
				<ele>119</ele>
				<time>2015-05-07T03:39:31Z</time>
				<extensions>
				</extensions>
			</trkpt>
			<trkpt lat="-28.198506" lon="152.785000">
				<ele>120</ele>
				<time>2015-05-07T03:39:33Z</time>
				<extensions>
				</extensions>
			</trkpt>
			<trkpt lat="-28.198285" lon="152.784957">
				<ele>124</ele>
				<time>2015-05-07T03:39:35Z</time>
				<extensions>
				</extensions>
			</trkpt>
			<trkpt lat="-28.198014" lon="152.784877">
				<ele>126</ele>
				<time>2015-05-07T03:39:37Z</time>
				<extensions>
				</extensions>
			</trkpt>
			<trkpt lat="-28.197736" lon="152.784784">
				<ele>128</ele>
				<time>2015-05-07T03:39:39Z</time>
				<extensions>
				</extensions>
			</trkpt>
			<trkpt lat="-28.197468" lon="152.784678">
				<ele>130</ele>
				<time>2015-05-07T03:39:41Z</time>
				<extensions>
				</extensions>
			</trkpt>
			<trkpt lat="-28.197202" lon="152.784557">
				<ele>131</ele>
				<time>2015-05-07T03:39:43Z</time>
				<extensions>
				</extensions>
			</trkpt>
			<trkpt lat="-28.196936" lon="152.784445">
				<ele>131</ele>
				<time>2015-05-07T03:39:45Z</time>
				<extensions>
				</extensions>
			</trkpt>
			<trkpt lat="-28.196670" lon="152.784326">
				<ele>131</ele>
				<time>2015-05-07T03:39:47Z</time>
				<extensions>
				</extensions>
			</trkpt>
			<trkpt lat="-28.196424" lon="152.784222">
				<ele>132</ele>
				<time>2015-05-07T03:39:49Z</time>
				<extensions>
				</extensions>
			</trkpt>
			<trkpt lat="-28.196154" lon="152.784094">
				<ele>133</ele>
				<time>2015-05-07T03:39:51Z</time>
				<extensions>
				</extensions>
			</trkpt>
			<trkpt lat="-28.195904" lon="152.783951">
				<ele>133</ele>
				<time>2015-05-07T03:39:53Z</time>
				<extensions>
				</extensions>
			</trkpt>
			<trkpt lat="-28.195639" lon="152.783775">
				<ele>133</ele>
				<time>2015-05-07T03:39:55Z</time>
				<extensions>
				</extensions>
			</trkpt>
			<trkpt lat="-28.195389" lon="152.783538">
				<ele>134</ele>
				<time>2015-05-07T03:39:57Z</time>
				<extensions>
				</extensions>
			</trkpt>
			<trkpt lat="-28.195166" lon="152.783266">
				<ele>134</ele>
				<time>2015-05-07T03:39:59Z</time>
				<extensions>
				</extensions>
			</trkpt>
			<trkpt lat="-28.194976" lon="152.782975">
				<ele>133</ele>
				<time>2015-05-07T03:40:01Z</time>
				<extensions>
				</extensions>
			</trkpt>
			<trkpt lat="-28.194833" lon="152.782638">
				<ele>135</ele>
				<time>2015-05-07T03:40:03Z</time>
				<extensions>
				</extensions>
			</trkpt>
			<trkpt lat="-28.194737" lon="152.782299">
				<ele>132</ele>
				<time>2015-05-07T03:40:05Z</time>
				<extensions>
				</extensions>
			</trkpt>
			<trkpt lat="-28.194700" lon="152.781936">
				<ele>131</ele>
				<time>2015-05-07T03:40:07Z</time>
				<extensions>
				</extensions>
			</trkpt>
			<trkpt lat="-28.194694" lon="152.781582">
				<ele>129</ele>
				<time>2015-05-07T03:40:09Z</time>
				<extensions>
				</extensions>
			</trkpt>
			<trkpt lat="-28.194686" lon="152.781232">
				<ele>127</ele>
				<time>2015-05-07T03:40:11Z</time>
				<extensions>
				</extensions>
			</trkpt>
			<trkpt lat="-28.194689" lon="152.780901">
				<ele>126</ele>
				<time>2015-05-07T03:40:13Z</time>
				<extensions>
				</extensions>
			</trkpt>
			<trkpt lat="-28.194671" lon="152.780604">
				<ele>124</ele>
				<time>2015-05-07T03:40:15Z</time>
				<extensions>
				</extensions>
			</trkpt>
			<trkpt lat="-28.194597" lon="152.780294">
				<ele>122</ele>
				<time>2015-05-07T03:40:17Z</time>
				<extensions>
				</extensions>
			</trkpt>
			<trkpt lat="-28.194435" lon="152.779986">
				<ele>124</ele>
				<time>2015-05-07T03:40:19Z</time>
				<extensions>
				</extensions>
			</trkpt>
			<trkpt lat="-28.194258" lon="152.779673">
				<ele>121</ele>
				<time>2015-05-07T03:40:21Z</time>
				<extensions>
				</extensions>
			</trkpt>
			<trkpt lat="-28.194088" lon="152.779375">
				<ele>120</ele>
				<time>2015-05-07T03:40:23Z</time>
				<extensions>
				</extensions>
			</trkpt>
			<trkpt lat="-28.193931" lon="152.779060">
				<ele>120</ele>
				<time>2015-05-07T03:40:25Z</time>
				<extensions>
				</extensions>
			</trkpt>
			<trkpt lat="-28.193821" lon="152.778714">
				<ele>120</ele>
				<time>2015-05-07T03:40:27Z</time>
				<extensions>
				</extensions>
			</trkpt>
			<trkpt lat="-28.193744" lon="152.778389">
				<ele>119</ele>
				<time>2015-05-07T03:40:29Z</time>
				<extensions>
				</extensions>
			</trkpt>
			<trkpt lat="-28.193715" lon="152.778054">
				<ele>119</ele>
				<time>2015-05-07T03:40:31Z</time>
				<extensions>
				</extensions>
			</trkpt>
			<trkpt lat="-28.193734" lon="152.777702">
				<ele>120</ele>
				<time>2015-05-07T03:40:33Z</time>
				<extensions>
				</extensions>
			</trkpt>
			<trkpt lat="-28.193764" lon="152.777345">
				<ele>120</ele>
				<time>2015-05-07T03:40:35Z</time>
				<extensions>
				</extensions>
			</trkpt>
			<trkpt lat="-28.193783" lon="152.777005">
				<ele>119</ele>
				<time>2015-05-07T03:40:37Z</time>
				<extensions>
				</extensions>
			</trkpt>
			<trkpt lat="-28.193782" lon="152.776673">
				<ele>120</ele>
				<time>2015-05-07T03:40:39Z</time>
				<extensions>
				</extensions>
			</trkpt>
			<trkpt lat="-28.193799" lon="152.776336">
				<ele>123</ele>
				<time>2015-05-07T03:40:41Z</time>
				<extensions>
				</extensions>
			</trkpt>
			<trkpt lat="-28.193825" lon="152.775987">
				<ele>122</ele>
				<time>2015-05-07T03:40:43Z</time>
				<extensions>
				</extensions>
			</trkpt>
			<trkpt lat="-28.193754" lon="152.775718">
				<ele>121</ele>
				<time>2015-05-07T03:40:45Z</time>
				<extensions>
				</extensions>
			</trkpt>
			<trkpt lat="-28.193665" lon="152.775422">
				<ele>121</ele>
				<time>2015-05-07T03:40:47Z</time>
				<extensions>
				</extensions>
			</trkpt>
			<trkpt lat="-28.193523" lon="152.775126">
				<ele>122</ele>
				<time>2015-05-07T03:40:49Z</time>
				<extensions>
				</extensions>
			</trkpt>
			<trkpt lat="-28.193318" lon="152.774867">
				<ele>124</ele>
				<time>2015-05-07T03:40:51Z</time>
				<extensions>
				</extensions>
			</trkpt>
			<trkpt lat="-28.193073" lon="152.774693">
				<ele>126</ele>
				<time>2015-05-07T03:40:53Z</time>
				<extensions>
				</extensions>
			</trkpt>
			<trkpt lat="-28.192757" lon="152.774556">
				<ele>128</ele>
				<time>2015-05-07T03:40:55Z</time>
				<extensions>
				</extensions>
			</trkpt>
			<trkpt lat="-28.192436" lon="152.774523">
				<ele>126</ele>
				<time>2015-05-07T03:40:57Z</time>
				<extensions>
				</extensions>
			</trkpt>
			<trkpt lat="-28.192121" lon="152.774608">
				<ele>125</ele>
				<time>2015-05-07T03:40:59Z</time>
				<extensions>
				</extensions>
			</trkpt>
			<trkpt lat="-28.191938" lon="152.774661">
				<ele>125</ele>
				<time>2015-05-07T03:41:00Z</time>
				<extensions>
				</extensions>
			</trkpt>
			<trkpt lat="-28.191765" lon="152.774735">
				<ele>127</ele>
				<time>2015-05-07T03:41:01Z</time>
				<extensions>
				</extensions>
			</trkpt>
			<trkpt lat="-28.191591" lon="152.774823">
				<ele>127</ele>
				<time>2015-05-07T03:41:02Z</time>
				<extensions>
				</extensions>
			</trkpt>
			<trkpt lat="-28.191249" lon="152.774980">
				<ele>125</ele>
				<time>2015-05-07T03:41:04Z</time>
				<extensions>
				</extensions>
			</trkpt>
			<trkpt lat="-28.191071" lon="152.775041">
				<ele>123</ele>
				<time>2015-05-07T03:41:05Z</time>
				<extensions>
				</extensions>
			</trkpt>
			<trkpt lat="-28.190716" lon="152.775114">
				<ele>124</ele>
				<time>2015-05-07T03:41:07Z</time>
				<extensions>
				</extensions>
			</trkpt>
			<trkpt lat="-28.190525" lon="152.775118">
				<ele>124</ele>
				<time>2015-05-07T03:41:08Z</time>
				<extensions>
				</extensions>
			</trkpt>
			<trkpt lat="-28.190343" lon="152.775114">
				<ele>125</ele>
				<time>2015-05-07T03:41:09Z</time>
				<extensions>
				</extensions>
			</trkpt>
			<trkpt lat="-28.190160" lon="152.775104">
				<ele>125</ele>
				<time>2015-05-07T03:41:10Z</time>
				<extensions>
				</extensions>
			</trkpt>
			<trkpt lat="-28.189803" lon="152.775038">
				<ele>124</ele>
				<time>2015-05-07T03:41:12Z</time>
				<extensions>
				</extensions>
			</trkpt>
			<trkpt lat="-28.189447" lon="152.774941">
				<ele>126</ele>
				<time>2015-05-07T03:41:14Z</time>
				<extensions>
				</extensions>
			</trkpt>
			<trkpt lat="-28.189111" lon="152.774851">
				<ele>127</ele>
				<time>2015-05-07T03:41:16Z</time>
				<extensions>
				</extensions>
			</trkpt>
			<trkpt lat="-28.188786" lon="152.774748">
				<ele>125</ele>
				<time>2015-05-07T03:41:18Z</time>
				<extensions>
				</extensions>
			</trkpt>
			<trkpt lat="-28.188475" lon="152.774611">
				<ele>126</ele>
				<time>2015-05-07T03:41:20Z</time>
				<extensions>
				</extensions>
			</trkpt>
			<trkpt lat="-28.188161" lon="152.774425">
				<ele>126</ele>
				<time>2015-05-07T03:41:22Z</time>
				<extensions>
				</extensions>
			</trkpt>
			<trkpt lat="-28.187854" lon="152.774250">
				<ele>126</ele>
				<time>2015-05-07T03:41:24Z</time>
				<extensions>
				</extensions>
			</trkpt>
			<trkpt lat="-28.187691" lon="152.774156">
				<ele>126</ele>
				<time>2015-05-07T03:41:25Z</time>
				<extensions>
				</extensions>
			</trkpt>
			<trkpt lat="-28.187521" lon="152.774062">
				<ele>126</ele>
				<time>2015-05-07T03:41:26Z</time>
				<extensions>
				</extensions>
			</trkpt>
			<trkpt lat="-28.187181" lon="152.773911">
				<ele>125</ele>
				<time>2015-05-07T03:41:28Z</time>
				<extensions>
				</extensions>
			</trkpt>
			<trkpt lat="-28.187007" lon="152.773844">
				<ele>125</ele>
				<time>2015-05-07T03:41:29Z</time>
				<extensions>
				</extensions>
			</trkpt>
			<trkpt lat="-28.186670" lon="152.773752">
				<ele>124</ele>
				<time>2015-05-07T03:41:31Z</time>
				<extensions>
				</extensions>
			</trkpt>
			<trkpt lat="-28.186491" lon="152.773719">
				<ele>125</ele>
				<time>2015-05-07T03:41:32Z</time>
				<extensions>
				</extensions>
			</trkpt>
			<trkpt lat="-28.186310" lon="152.773700">
				<ele>125</ele>
				<time>2015-05-07T03:41:33Z</time>
				<extensions>
				</extensions>
			</trkpt>
			<trkpt lat="-28.186128" lon="152.773680">
				<ele>126</ele>
				<time>2015-05-07T03:41:34Z</time>
				<extensions>
				</extensions>
			</trkpt>
			<trkpt lat="-28.185769" lon="152.773664">
				<ele>129</ele>
				<time>2015-05-07T03:41:36Z</time>
				<extensions>
				</extensions>
			</trkpt>
			<trkpt lat="-28.185389" lon="152.773701">
				<ele>131</ele>
				<time>2015-05-07T03:41:38Z</time>
				<extensions>
				</extensions>
			</trkpt>
			<trkpt lat="-28.185192" lon="152.773731">
				<ele>129</ele>
				<time>2015-05-07T03:41:39Z</time>
				<extensions>
				</extensions>
			</trkpt>
			<trkpt lat="-28.185001" lon="152.773741">
				<ele>128</ele>
				<time>2015-05-07T03:41:40Z</time>
				<extensions>
				</extensions>
			</trkpt>
			<trkpt lat="-28.184790" lon="152.773779">
				<ele>128</ele>
				<time>2015-05-07T03:41:41Z</time>
				<extensions>
				</extensions>
			</trkpt>
			<trkpt lat="-28.184594" lon="152.773794">
				<ele>129</ele>
				<time>2015-05-07T03:41:42Z</time>
				<extensions>
				</extensions>
			</trkpt>
			<trkpt lat="-28.184394" lon="152.773804">
				<ele>129</ele>
				<time>2015-05-07T03:41:43Z</time>
				<extensions>
				</extensions>
			</trkpt>
			<trkpt lat="-28.184210" lon="152.773826">
				<ele>129</ele>
				<time>2015-05-07T03:41:44Z</time>
				<extensions>
				</extensions>
			</trkpt>
			<trkpt lat="-28.184029" lon="152.773854">
				<ele>130</ele>
				<time>2015-05-07T03:41:45Z</time>
				<extensions>
				</extensions>
			</trkpt>
			<trkpt lat="-28.183847" lon="152.773876">
				<ele>131</ele>
				<time>2015-05-07T03:41:46Z</time>
				<extensions>
				</extensions>
			</trkpt>
			<trkpt lat="-28.183482" lon="152.773930">
				<ele>132</ele>
				<time>2015-05-07T03:41:48Z</time>
				<extensions>
				</extensions>
			</trkpt>
			<trkpt lat="-28.183295" lon="152.773965">
				<ele>134</ele>
				<time>2015-05-07T03:41:49Z</time>
				<extensions>
				</extensions>
			</trkpt>
			<trkpt lat="-28.183110" lon="152.774010">
				<ele>134</ele>
				<time>2015-05-07T03:41:50Z</time>
				<extensions>
				</extensions>
			</trkpt>
			<trkpt lat="-28.182931" lon="152.774059">
				<ele>134</ele>
				<time>2015-05-07T03:41:51Z</time>
				<extensions>
				</extensions>
			</trkpt>
			<trkpt lat="-28.182581" lon="152.774171">
				<ele>135</ele>
				<time>2015-05-07T03:41:53Z</time>
				<extensions>
				</extensions>
			</trkpt>
			<trkpt lat="-28.182403" lon="152.774233">
				<ele>137</ele>
				<time>2015-05-07T03:41:54Z</time>
				<extensions>
				</extensions>
			</trkpt>
			<trkpt lat="-28.182218" lon="152.774294">
				<ele>139</ele>
				<time>2015-05-07T03:41:55Z</time>
				<extensions>
				</extensions>
			</trkpt>
			<trkpt lat="-28.181869" lon="152.774407">
				<ele>139</ele>
				<time>2015-05-07T03:41:57Z</time>
				<extensions>
				</extensions>
			</trkpt>
			<trkpt lat="-28.181533" lon="152.774513">
				<ele>141</ele>
				<time>2015-05-07T03:41:59Z</time>
				<extensions>
				</extensions>
			</trkpt>
			<trkpt lat="-28.181210" lon="152.774587">
				<ele>138</ele>
				<time>2015-05-07T03:42:01Z</time>
				<extensions>
				</extensions>
			</trkpt>
			<trkpt lat="-28.180891" lon="152.774620">
				<ele>137</ele>
				<time>2015-05-07T03:42:03Z</time>
				<extensions>
				</extensions>
			</trkpt>
			<trkpt lat="-28.180580" lon="152.774597">
				<ele>134</ele>
				<time>2015-05-07T03:42:05Z</time>
				<extensions>
				</extensions>
			</trkpt>
			<trkpt lat="-28.180266" lon="152.774502">
				<ele>133</ele>
				<time>2015-05-07T03:42:07Z</time>
				<extensions>
				</extensions>
			</trkpt>
			<trkpt lat="-28.179964" lon="152.774353">
				<ele>131</ele>
				<time>2015-05-07T03:42:09Z</time>
				<extensions>
				</extensions>
			</trkpt>
			<trkpt lat="-28.179701" lon="152.774151">
				<ele>129</ele>
				<time>2015-05-07T03:42:11Z</time>
				<extensions>
				</extensions>
			</trkpt>
			<trkpt lat="-28.179463" lon="152.773860">
				<ele>128</ele>
				<time>2015-05-07T03:42:13Z</time>
				<extensions>
				</extensions>
			</trkpt>
			<trkpt lat="-28.179264" lon="152.773509">
				<ele>128</ele>
				<time>2015-05-07T03:42:15Z</time>
				<extensions>
				</extensions>
			</trkpt>
			<trkpt lat="-28.179188" lon="152.773315">
				<ele>129</ele>
				<time>2015-05-07T03:42:16Z</time>
				<extensions>
				</extensions>
			</trkpt>
			<trkpt lat="-28.179132" lon="152.773115">
				<ele>130</ele>
				<time>2015-05-07T03:42:17Z</time>
				<extensions>
				</extensions>
			</trkpt>
			<trkpt lat="-28.179045" lon="152.772712">
				<ele>128</ele>
				<time>2015-05-07T03:42:19Z</time>
				<extensions>
				</extensions>
			</trkpt>
			<trkpt lat="-28.179006" lon="152.772508">
				<ele>130</ele>
				<time>2015-05-07T03:42:20Z</time>
				<extensions>
				</extensions>
			</trkpt>
			<trkpt lat="-28.178969" lon="152.772299">
				<ele>130</ele>
				<time>2015-05-07T03:42:21Z</time>
				<extensions>
				</extensions>
			</trkpt>
			<trkpt lat="-28.178939" lon="152.772090">
				<ele>132</ele>
				<time>2015-05-07T03:42:22Z</time>
				<extensions>
				</extensions>
			</trkpt>
			<trkpt lat="-28.178899" lon="152.771881">
				<ele>130</ele>
				<time>2015-05-07T03:42:23Z</time>
				<extensions>
				</extensions>
			</trkpt>
			<trkpt lat="-28.178860" lon="152.771667">
				<ele>127</ele>
				<time>2015-05-07T03:42:24Z</time>
				<extensions>
				</extensions>
			</trkpt>
			<trkpt lat="-28.178830" lon="152.771451">
				<ele>128</ele>
				<time>2015-05-07T03:42:25Z</time>
				<extensions>
				</extensions>
			</trkpt>
			<trkpt lat="-28.178791" lon="152.771232">
				<ele>130</ele>
				<time>2015-05-07T03:42:26Z</time>
				<extensions>
				</extensions>
			</trkpt>
			<trkpt lat="-28.178746" lon="152.771020">
				<ele>130</ele>
				<time>2015-05-07T03:42:27Z</time>
				<extensions>
				</extensions>
			</trkpt>
			<trkpt lat="-28.178694" lon="152.770813">
				<ele>130</ele>
				<time>2015-05-07T03:42:28Z</time>
				<extensions>
				</extensions>
			</trkpt>
			<trkpt lat="-28.178633" lon="152.770607">
				<ele>130</ele>
				<time>2015-05-07T03:42:29Z</time>
				<extensions>
				</extensions>
			</trkpt>
			<trkpt lat="-28.178569" lon="152.770391">
				<ele>131</ele>
				<time>2015-05-07T03:42:30Z</time>
				<extensions>
				</extensions>
			</trkpt>
			<trkpt lat="-28.178504" lon="152.770185">
				<ele>130</ele>
				<time>2015-05-07T03:42:31Z</time>
				<extensions>
				</extensions>
			</trkpt>
			<trkpt lat="-28.178442" lon="152.769978">
				<ele>131</ele>
				<time>2015-05-07T03:42:32Z</time>
				<extensions>
				</extensions>
			</trkpt>
			<trkpt lat="-28.178374" lon="152.769770">
				<ele>132</ele>
				<time>2015-05-07T03:42:33Z</time>
				<extensions>
				</extensions>
			</trkpt>
			<trkpt lat="-28.178305" lon="152.769559">
				<ele>129</ele>
				<time>2015-05-07T03:42:34Z</time>
				<extensions>
				</extensions>
			</trkpt>
			<trkpt lat="-28.178232" lon="152.769347">
				<ele>129</ele>
				<time>2015-05-07T03:42:35Z</time>
				<extensions>
				</extensions>
			</trkpt>
			<trkpt lat="-28.178160" lon="152.769136">
				<ele>129</ele>
				<time>2015-05-07T03:42:36Z</time>
				<extensions>
				</extensions>
			</trkpt>
			<trkpt lat="-28.178098" lon="152.768935">
				<ele>129</ele>
				<time>2015-05-07T03:42:37Z</time>
				<extensions>
				</extensions>
			</trkpt>
			<trkpt lat="-28.177976" lon="152.768569">
				<ele>128</ele>
				<time>2015-05-07T03:42:39Z</time>
				<extensions>
				</extensions>
			</trkpt>
			<trkpt lat="-28.177863" lon="152.768224">
				<ele>125</ele>
				<time>2015-05-07T03:42:41Z</time>
				<extensions>
				</extensions>
			</trkpt>
			<trkpt lat="-28.177724" lon="152.767903">
				<ele>124</ele>
				<time>2015-05-07T03:42:43Z</time>
				<extensions>
				</extensions>
			</trkpt>
			<trkpt lat="-28.177573" lon="152.767613">
				<ele>125</ele>
				<time>2015-05-07T03:42:45Z</time>
				<extensions>
				</extensions>
			</trkpt>
			<trkpt lat="-28.177376" lon="152.767338">
				<ele>123</ele>
				<time>2015-05-07T03:42:47Z</time>
				<extensions>
				</extensions>
			</trkpt>
			<trkpt lat="-28.177142" lon="152.767063">
				<ele>123</ele>
				<time>2015-05-07T03:42:49Z</time>
				<extensions>
				</extensions>
			</trkpt>
			<trkpt lat="-28.176886" lon="152.766797">
				<ele>122</ele>
				<time>2015-05-07T03:42:51Z</time>
				<extensions>
				</extensions>
			</trkpt>
			<trkpt lat="-28.176627" lon="152.766545">
				<ele>124</ele>
				<time>2015-05-07T03:42:53Z</time>
				<extensions>
				</extensions>
			</trkpt>
			<trkpt lat="-28.176478" lon="152.766414">
				<ele>124</ele>
				<time>2015-05-07T03:42:54Z</time>
				<extensions>
				</extensions>
			</trkpt>
			<trkpt lat="-28.176334" lon="152.766271">
				<ele>125</ele>
				<time>2015-05-07T03:42:55Z</time>
				<extensions>
				</extensions>
			</trkpt>
			<trkpt lat="-28.176190" lon="152.766141">
				<ele>125</ele>
				<time>2015-05-07T03:42:56Z</time>
				<extensions>
				</extensions>
			</trkpt>
			<trkpt lat="-28.176038" lon="152.765997">
				<ele>126</ele>
				<time>2015-05-07T03:42:57Z</time>
				<extensions>
				</extensions>
			</trkpt>
			<trkpt lat="-28.175881" lon="152.765870">
				<ele>127</ele>
				<time>2015-05-07T03:42:58Z</time>
				<extensions>
				</extensions>
			</trkpt>
			<trkpt lat="-28.175608" lon="152.765606">
				<ele>129</ele>
				<time>2015-05-07T03:43:00Z</time>
				<extensions>
				</extensions>
			</trkpt>
			<trkpt lat="-28.175450" lon="152.765465">
				<ele>130</ele>
				<time>2015-05-07T03:43:01Z</time>
				<extensions>
				</extensions>
			</trkpt>
			<trkpt lat="-28.175309" lon="152.765308">
				<ele>131</ele>
				<time>2015-05-07T03:43:02Z</time>
				<extensions>
				</extensions>
			</trkpt>
			<trkpt lat="-28.175180" lon="152.765136">
				<ele>132</ele>
				<time>2015-05-07T03:43:03Z</time>
				<extensions>
				</extensions>
			</trkpt>
			<trkpt lat="-28.175064" lon="152.764959">
				<ele>134</ele>
				<time>2015-05-07T03:43:04Z</time>
				<extensions>
				</extensions>
			</trkpt>
			<trkpt lat="-28.174951" lon="152.764773">
				<ele>134</ele>
				<time>2015-05-07T03:43:05Z</time>
				<extensions>
				</extensions>
			</trkpt>
			<trkpt lat="-28.174860" lon="152.764566">
				<ele>135</ele>
				<time>2015-05-07T03:43:06Z</time>
				<extensions>
				</extensions>
			</trkpt>
			<trkpt lat="-28.174768" lon="152.764355">
				<ele>136</ele>
				<time>2015-05-07T03:43:07Z</time>
				<extensions>
				</extensions>
			</trkpt>
			<trkpt lat="-28.174705" lon="152.764138">
				<ele>134</ele>
				<time>2015-05-07T03:43:08Z</time>
				<extensions>
				</extensions>
			</trkpt>
			<trkpt lat="-28.174641" lon="152.763932">
				<ele>134</ele>
				<time>2015-05-07T03:43:09Z</time>
				<extensions>
				</extensions>
			</trkpt>
			<trkpt lat="-28.174584" lon="152.763731">
				<ele>132</ele>
				<time>2015-05-07T03:43:10Z</time>
				<extensions>
				</extensions>
			</trkpt>
			<trkpt lat="-28.174542" lon="152.763526">
				<ele>133</ele>
				<time>2015-05-07T03:43:11Z</time>
				<extensions>
				</extensions>
			</trkpt>
			<trkpt lat="-28.174508" lon="152.763307">
				<ele>135</ele>
				<time>2015-05-07T03:43:12Z</time>
				<extensions>
				</extensions>
			</trkpt>
			<trkpt lat="-28.174491" lon="152.763082">
				<ele>136</ele>
				<time>2015-05-07T03:43:13Z</time>
				<extensions>
				</extensions>
			</trkpt>
			<trkpt lat="-28.174488" lon="152.762859">
				<ele>135</ele>
				<time>2015-05-07T03:43:14Z</time>
				<extensions>
				</extensions>
			</trkpt>
			<trkpt lat="-28.174477" lon="152.762610">
				<ele>135</ele>
				<time>2015-05-07T03:43:15Z</time>
				<extensions>
				</extensions>
			</trkpt>
			<trkpt lat="-28.174480" lon="152.762379">
				<ele>135</ele>
				<time>2015-05-07T03:43:16Z</time>
				<extensions>
				</extensions>
			</trkpt>
			<trkpt lat="-28.174488" lon="152.762151">
				<ele>134</ele>
				<time>2015-05-07T03:43:17Z</time>
				<extensions>
				</extensions>
			</trkpt>
			<trkpt lat="-28.174510" lon="152.761935">
				<ele>134</ele>
				<time>2015-05-07T03:43:18Z</time>
				<extensions>
				</extensions>
			</trkpt>
			<trkpt lat="-28.174532" lon="152.761715">
				<ele>133</ele>
				<time>2015-05-07T03:43:19Z</time>
				<extensions>
				</extensions>
			</trkpt>
			<trkpt lat="-28.174542" lon="152.761484">
				<ele>132</ele>
				<time>2015-05-07T03:43:20Z</time>
				<extensions>
				</extensions>
			</trkpt>
			<trkpt lat="-28.174554" lon="152.761263">
				<ele>132</ele>
				<time>2015-05-07T03:43:21Z</time>
				<extensions>
				</extensions>
			</trkpt>
			<trkpt lat="-28.174517" lon="152.760868">
				<ele>132</ele>
				<time>2015-05-07T03:43:23Z</time>
				<extensions>
				</extensions>
			</trkpt>
			<trkpt lat="-28.174538" lon="152.760441">
				<ele>132</ele>
				<time>2015-05-07T03:43:25Z</time>
				<extensions>
				</extensions>
			</trkpt>
			<trkpt lat="-28.174532" lon="152.760236">
				<ele>133</ele>
				<time>2015-05-07T03:43:26Z</time>
				<extensions>
				</extensions>
			</trkpt>
			<trkpt lat="-28.174504" lon="152.759873">
				<ele>134</ele>
				<time>2015-05-07T03:43:28Z</time>
				<extensions>
				</extensions>
			</trkpt>
			<trkpt lat="-28.174407" lon="152.759504">
				<ele>135</ele>
				<time>2015-05-07T03:43:30Z</time>
				<extensions>
				</extensions>
			</trkpt>
			<trkpt lat="-28.174248" lon="152.759174">
				<ele>136</ele>
				<time>2015-05-07T03:43:32Z</time>
				<extensions>
				</extensions>
			</trkpt>
			<trkpt lat="-28.174067" lon="152.758833">
				<ele>133</ele>
				<time>2015-05-07T03:43:34Z</time>
				<extensions>
				</extensions>
			</trkpt>
			<trkpt lat="-28.173858" lon="152.758542">
				<ele>135</ele>
				<time>2015-05-07T03:43:36Z</time>
				<extensions>
				</extensions>
			</trkpt>
			<trkpt lat="-28.173589" lon="152.758297">
				<ele>134</ele>
				<time>2015-05-07T03:43:38Z</time>
				<extensions>
				</extensions>
			</trkpt>
			<trkpt lat="-28.173304" lon="152.758097">
				<ele>135</ele>
				<time>2015-05-07T03:43:40Z</time>
				<extensions>
				</extensions>
			</trkpt>
			<trkpt lat="-28.172991" lon="152.757922">
				<ele>134</ele>
				<time>2015-05-07T03:43:42Z</time>
				<extensions>
				</extensions>
			</trkpt>
			<trkpt lat="-28.172680" lon="152.757820">
				<ele>134</ele>
				<time>2015-05-07T03:43:44Z</time>
				<extensions>
				</extensions>
			</trkpt>
			<trkpt lat="-28.172354" lon="152.757765">
				<ele>135</ele>
				<time>2015-05-07T03:43:46Z</time>
				<extensions>
				</extensions>
			</trkpt>
			<trkpt lat="-28.172017" lon="152.757704">
				<ele>135</ele>
				<time>2015-05-07T03:43:48Z</time>
				<extensions>
				</extensions>
			</trkpt>
			<trkpt lat="-28.171686" lon="152.757637">
				<ele>134</ele>
				<time>2015-05-07T03:43:50Z</time>
				<extensions>
				</extensions>
			</trkpt>
			<trkpt lat="-28.171403" lon="152.757520">
				<ele>135</ele>
				<time>2015-05-07T03:43:52Z</time>
				<extensions>
				</extensions>
			</trkpt>
			<trkpt lat="-28.171134" lon="152.757363">
				<ele>138</ele>
				<time>2015-05-07T03:43:54Z</time>
				<extensions>
				</extensions>
			</trkpt>
			<trkpt lat="-28.170878" lon="152.757096">
				<ele>142</ele>
				<time>2015-05-07T03:43:56Z</time>
				<extensions>
				</extensions>
			</trkpt>
			<trkpt lat="-28.170755" lon="152.756941">
				<ele>143</ele>
				<time>2015-05-07T03:43:57Z</time>
				<extensions>
				</extensions>
			</trkpt>
			<trkpt lat="-28.170655" lon="152.756770">
				<ele>143</ele>
				<time>2015-05-07T03:43:58Z</time>
				<extensions>
				</extensions>
			</trkpt>
			<trkpt lat="-28.170521" lon="152.756403">
				<ele>144</ele>
				<time>2015-05-07T03:44:00Z</time>
				<extensions>
				</extensions>
			</trkpt>
			<trkpt lat="-28.170458" lon="152.756032">
				<ele>147</ele>
				<time>2015-05-07T03:44:02Z</time>
				<extensions>
				</extensions>
			</trkpt>
			<trkpt lat="-28.170424" lon="152.755830">
				<ele>146</ele>
				<time>2015-05-07T03:44:03Z</time>
				<extensions>
				</extensions>
			</trkpt>
			<trkpt lat="-28.170383" lon="152.755437">
				<ele>145</ele>
				<time>2015-05-07T03:44:05Z</time>
				<extensions>
				</extensions>
			</trkpt>
			<trkpt lat="-28.170354" lon="152.755085">
				<ele>146</ele>
				<time>2015-05-07T03:44:07Z</time>
				<extensions>
				</extensions>
			</trkpt>
			<trkpt lat="-28.170378" lon="152.754761">
				<ele>145</ele>
				<time>2015-05-07T03:44:09Z</time>
				<extensions>
				</extensions>
			</trkpt>
			<trkpt lat="-28.170494" lon="152.754449">
				<ele>146</ele>
				<time>2015-05-07T03:44:11Z</time>
				<extensions>
				</extensions>
			</trkpt>
			<trkpt lat="-28.170671" lon="152.754164">
				<ele>147</ele>
				<time>2015-05-07T03:44:13Z</time>
				<extensions>
				</extensions>
			</trkpt>
			<trkpt lat="-28.170835" lon="152.753846">
				<ele>148</ele>
				<time>2015-05-07T03:44:15Z</time>
				<extensions>
				</extensions>
			</trkpt>
			<trkpt lat="-28.170971" lon="152.753545">
				<ele>148</ele>
				<time>2015-05-07T03:44:17Z</time>
				<extensions>
				</extensions>
			</trkpt>
			<trkpt lat="-28.171108" lon="152.753251">
				<ele>147</ele>
				<time>2015-05-07T03:44:19Z</time>
				<extensions>
				</extensions>
			</trkpt>
			<trkpt lat="-28.171280" lon="152.752974">
				<ele>147</ele>
				<time>2015-05-07T03:44:21Z</time>
				<extensions>
				</extensions>
			</trkpt>
			<trkpt lat="-28.171498" lon="152.752762">
				<ele>144</ele>
				<time>2015-05-07T03:44:23Z</time>
				<extensions>
				</extensions>
			</trkpt>
			<trkpt lat="-28.171689" lon="152.752620">
				<ele>139</ele>
				<time>2015-05-07T03:44:26Z</time>
				<extensions>
				</extensions>
			</trkpt>
			<trkpt lat="-28.171852" lon="152.752486">
				<ele>137</ele>
				<time>2015-05-07T03:44:30Z</time>
				<extensions>
				</extensions>
			</trkpt>
			<trkpt lat="-28.171995" lon="152.752352">
				<ele>136</ele>
				<time>2015-05-07T03:44:52Z</time>
				<extensions>
				</extensions>
			</trkpt>
			<trkpt lat="-28.172146" lon="152.752240">
				<ele>138</ele>
				<time>2015-05-07T03:45:35Z</time>
				<extensions>
				</extensions>
			</trkpt>
			<trkpt lat="-28.172344" lon="152.752051">
				<ele>136</ele>
				<time>2015-05-07T03:45:38Z</time>
				<extensions>
				</extensions>
			</trkpt>
			<trkpt lat="-28.172440" lon="152.751876">
				<ele>135</ele>
				<time>2015-05-07T03:45:40Z</time>
				<extensions>
				</extensions>
			</trkpt>
			<trkpt lat="-28.172495" lon="152.751650">
				<ele>134</ele>
				<time>2015-05-07T03:45:42Z</time>
				<extensions>
				</extensions>
			</trkpt>
			<trkpt lat="-28.172490" lon="152.751439">
				<ele>133</ele>
				<time>2015-05-07T03:45:44Z</time>
				<extensions>
				</extensions>
			</trkpt>
			<trkpt lat="-28.172419" lon="152.751236">
				<ele>135</ele>
				<time>2015-05-07T03:45:46Z</time>
				<extensions>
				</extensions>
			</trkpt>
			<trkpt lat="-28.172238" lon="152.751100">
				<ele>137</ele>
				<time>2015-05-07T03:45:48Z</time>
				<extensions>
				</extensions>
			</trkpt>
			<trkpt lat="-28.172019" lon="152.751043">
				<ele>140</ele>
				<time>2015-05-07T03:45:50Z</time>
				<extensions>
				</extensions>
			</trkpt>
			<trkpt lat="-28.171820" lon="152.750984">
				<ele>139</ele>
				<time>2015-05-07T03:45:52Z</time>
				<extensions>
				</extensions>
			</trkpt>
			<trkpt lat="-28.171595" lon="152.750950">
				<ele>141</ele>
				<time>2015-05-07T03:45:54Z</time>
				<extensions>
				</extensions>
			</trkpt>
			<trkpt lat="-28.171368" lon="152.750890">
				<ele>140</ele>
				<time>2015-05-07T03:45:56Z</time>
				<extensions>
				</extensions>
			</trkpt>
			<trkpt lat="-28.171143" lon="152.750786">
				<ele>141</ele>
				<time>2015-05-07T03:45:58Z</time>
				<extensions>
				</extensions>
			</trkpt>
			<trkpt lat="-28.170900" lon="152.750656">
				<ele>142</ele>
				<time>2015-05-07T03:46:00Z</time>
				<extensions>
				</extensions>
			</trkpt>
			<trkpt lat="-28.170656" lon="152.750514">
				<ele>143</ele>
				<time>2015-05-07T03:46:02Z</time>
				<extensions>
				</extensions>
			</trkpt>
			<trkpt lat="-28.170409" lon="152.750374">
				<ele>143</ele>
				<time>2015-05-07T03:46:04Z</time>
				<extensions>
				</extensions>
			</trkpt>
			<trkpt lat="-28.170139" lon="152.750250">
				<ele>145</ele>
				<time>2015-05-07T03:46:06Z</time>
				<extensions>
				</extensions>
			</trkpt>
			<trkpt lat="-28.169844" lon="152.750185">
				<ele>146</ele>
				<time>2015-05-07T03:46:08Z</time>
				<extensions>
				</extensions>
			</trkpt>
			<trkpt lat="-28.169550" lon="152.750128">
				<ele>146</ele>
				<time>2015-05-07T03:46:10Z</time>
				<extensions>
				</extensions>
			</trkpt>
			<trkpt lat="-28.169274" lon="152.750051">
				<ele>146</ele>
				<time>2015-05-07T03:46:12Z</time>
				<extensions>
				</extensions>
			</trkpt>
			<trkpt lat="-28.169020" lon="152.749959">
				<ele>146</ele>
				<time>2015-05-07T03:46:14Z</time>
				<extensions>
				</extensions>
			</trkpt>
			<trkpt lat="-28.168795" lon="152.749805">
				<ele>147</ele>
				<time>2015-05-07T03:46:16Z</time>
				<extensions>
				</extensions>
			</trkpt>
			<trkpt lat="-28.168593" lon="152.749605">
				<ele>150</ele>
				<time>2015-05-07T03:46:18Z</time>
				<extensions>
				</extensions>
			</trkpt>
			<trkpt lat="-28.168426" lon="152.749359">
				<ele>152</ele>
				<time>2015-05-07T03:46:20Z</time>
				<extensions>
				</extensions>
			</trkpt>
			<trkpt lat="-28.168310" lon="152.749085">
				<ele>153</ele>
				<time>2015-05-07T03:46:22Z</time>
				<extensions>
				</extensions>
			</trkpt>
			<trkpt lat="-28.168263" lon="152.748821">
				<ele>153</ele>
				<time>2015-05-07T03:46:24Z</time>
				<extensions>
				</extensions>
			</trkpt>
			<trkpt lat="-28.168309" lon="152.748568">
				<ele>152</ele>
				<time>2015-05-07T03:46:26Z</time>
				<extensions>
				</extensions>
			</trkpt>
			<trkpt lat="-28.168481" lon="152.748319">
				<ele>153</ele>
				<time>2015-05-07T03:46:28Z</time>
				<extensions>
				</extensions>
			</trkpt>
			<trkpt lat="-28.168709" lon="152.748078">
				<ele>153</ele>
				<time>2015-05-07T03:46:30Z</time>
				<extensions>
				</extensions>
			</trkpt>
			<trkpt lat="-28.168944" lon="152.747840">
				<ele>150</ele>
				<time>2015-05-07T03:46:32Z</time>
				<extensions>
				</extensions>
			</trkpt>
			<trkpt lat="-28.169174" lon="152.747580">
				<ele>148</ele>
				<time>2015-05-07T03:46:34Z</time>
				<extensions>
				</extensions>
			</trkpt>
			<trkpt lat="-28.169404" lon="152.747284">
				<ele>146</ele>
				<time>2015-05-07T03:46:36Z</time>
				<extensions>
				</extensions>
			</trkpt>
			<trkpt lat="-28.169612" lon="152.746979">
				<ele>144</ele>
				<time>2015-05-07T03:46:38Z</time>
				<extensions>
				</extensions>
			</trkpt>
			<trkpt lat="-28.169786" lon="152.746665">
				<ele>143</ele>
				<time>2015-05-07T03:46:40Z</time>
				<extensions>
				</extensions>
			</trkpt>
			<trkpt lat="-28.169921" lon="152.746322">
				<ele>143</ele>
				<time>2015-05-07T03:46:42Z</time>
				<extensions>
				</extensions>
			</trkpt>
			<trkpt lat="-28.169995" lon="152.745986">
				<ele>142</ele>
				<time>2015-05-07T03:46:44Z</time>
				<extensions>
				</extensions>
			</trkpt>
			<trkpt lat="-28.170030" lon="152.745650">
				<ele>141</ele>
				<time>2015-05-07T03:46:46Z</time>
				<extensions>
				</extensions>
			</trkpt>
			<trkpt lat="-28.169974" lon="152.745356">
				<ele>140</ele>
				<time>2015-05-07T03:46:48Z</time>
				<extensions>
				</extensions>
			</trkpt>
			<trkpt lat="-28.169839" lon="152.745086">
				<ele>140</ele>
				<time>2015-05-07T03:46:50Z</time>
				<extensions>
				</extensions>
			</trkpt>
			<trkpt lat="-28.169679" lon="152.744811">
				<ele>141</ele>
				<time>2015-05-07T03:46:52Z</time>
				<extensions>
				</extensions>
			</trkpt>
			<trkpt lat="-28.169534" lon="152.744482">
				<ele>141</ele>
				<time>2015-05-07T03:46:54Z</time>
				<extensions>
				</extensions>
			</trkpt>
			<trkpt lat="-28.169415" lon="152.744161">
				<ele>142</ele>
				<time>2015-05-07T03:46:56Z</time>
				<extensions>
				</extensions>
			</trkpt>
			<trkpt lat="-28.169288" lon="152.743844">
				<ele>143</ele>
				<time>2015-05-07T03:46:58Z</time>
				<extensions>
				</extensions>
			</trkpt>
			<trkpt lat="-28.169158" lon="152.743540">
				<ele>141</ele>
				<time>2015-05-07T03:47:00Z</time>
				<extensions>
				</extensions>
			</trkpt>
			<trkpt lat="-28.169034" lon="152.743256">
				<ele>140</ele>
				<time>2015-05-07T03:47:02Z</time>
				<extensions>
				</extensions>
			</trkpt>
			<trkpt lat="-28.168916" lon="152.742987">
				<ele>141</ele>
				<time>2015-05-07T03:47:04Z</time>
				<extensions>
				</extensions>
			</trkpt>
			<trkpt lat="-28.168821" lon="152.742720">
				<ele>142</ele>
				<time>2015-05-07T03:47:06Z</time>
				<extensions>
				</extensions>
			</trkpt>
			<trkpt lat="-28.168797" lon="152.742425">
				<ele>143</ele>
				<time>2015-05-07T03:47:08Z</time>
				<extensions>
				</extensions>
			</trkpt>
			<trkpt lat="-28.168886" lon="152.742105">
				<ele>145</ele>
				<time>2015-05-07T03:47:10Z</time>
				<extensions>
				</extensions>
			</trkpt>
			<trkpt lat="-28.169063" lon="152.741866">
				<ele>145</ele>
				<time>2015-05-07T03:47:12Z</time>
				<extensions>
				</extensions>
			</trkpt>
			<trkpt lat="-28.169265" lon="152.741744">
				<ele>142</ele>
				<time>2015-05-07T03:47:14Z</time>
				<extensions>
				</extensions>
			</trkpt>
			<trkpt lat="-28.169465" lon="152.741696">
				<ele>139</ele>
				<time>2015-05-07T03:47:18Z</time>
				<extensions>
				</extensions>
			</trkpt>
			<trkpt lat="-28.169641" lon="152.741635">
				<ele>139</ele>
				<time>2015-05-07T03:47:28Z</time>
				<extensions>
				</extensions>
			</trkpt>
			<trkpt lat="-28.169834" lon="152.741554">
				<ele>139</ele>
				<time>2015-05-07T03:47:59Z</time>
				<extensions>
				</extensions>
			</trkpt>
			<trkpt lat="-28.170025" lon="152.741480">
				<ele>140</ele>
				<time>2015-05-07T03:48:07Z</time>
				<extensions>
				</extensions>
			</trkpt>
			<trkpt lat="-28.170246" lon="152.741395">
				<ele>142</ele>
				<time>2015-05-07T03:48:10Z</time>
				<extensions>
				</extensions>
			</trkpt>
			<trkpt lat="-28.170480" lon="152.741306">
				<ele>142</ele>
				<time>2015-05-07T03:48:13Z</time>
				<extensions>
				</extensions>
			</trkpt>
			<trkpt lat="-28.170708" lon="152.741187">
				<ele>142</ele>
				<time>2015-05-07T03:48:16Z</time>
				<extensions>
				</extensions>
			</trkpt>
			<trkpt lat="-28.170889" lon="152.741069">
				<ele>143</ele>
				<time>2015-05-07T03:48:18Z</time>
				<extensions>
				</extensions>
			</trkpt>
			<trkpt lat="-28.171073" lon="152.740923">
				<ele>144</ele>
				<time>2015-05-07T03:48:20Z</time>
				<extensions>
				</extensions>
			</trkpt>
			<trkpt lat="-28.171263" lon="152.740737">
				<ele>145</ele>
				<time>2015-05-07T03:48:22Z</time>
				<extensions>
				</extensions>
			</trkpt>
			<trkpt lat="-28.171445" lon="152.740522">
				<ele>145</ele>
				<time>2015-05-07T03:48:24Z</time>
				<extensions>
				</extensions>
			</trkpt>
			<trkpt lat="-28.171608" lon="152.740299">
				<ele>147</ele>
				<time>2015-05-07T03:48:26Z</time>
				<extensions>
				</extensions>
			</trkpt>
			<trkpt lat="-28.171754" lon="152.740051">
				<ele>145</ele>
				<time>2015-05-07T03:48:28Z</time>
				<extensions>
				</extensions>
			</trkpt>
			<trkpt lat="-28.171891" lon="152.739762">
				<ele>146</ele>
				<time>2015-05-07T03:48:30Z</time>
				<extensions>
				</extensions>
			</trkpt>
			<trkpt lat="-28.172003" lon="152.739433">
				<ele>147</ele>
				<time>2015-05-07T03:48:32Z</time>
				<extensions>
				</extensions>
			</trkpt>
			<trkpt lat="-28.172083" lon="152.739062">
				<ele>149</ele>
				<time>2015-05-07T03:48:34Z</time>
				<extensions>
				</extensions>
			</trkpt>
			<trkpt lat="-28.172118" lon="152.738667">
				<ele>148</ele>
				<time>2015-05-07T03:48:36Z</time>
				<extensions>
				</extensions>
			</trkpt>
			<trkpt lat="-28.172097" lon="152.738275">
				<ele>148</ele>
				<time>2015-05-07T03:48:38Z</time>
				<extensions>
				</extensions>
			</trkpt>
			<trkpt lat="-28.172030" lon="152.737887">
				<ele>151</ele>
				<time>2015-05-07T03:48:40Z</time>
				<extensions>
				</extensions>
			</trkpt>
			<trkpt lat="-28.171934" lon="152.737500">
				<ele>152</ele>
				<time>2015-05-07T03:48:42Z</time>
				<extensions>
				</extensions>
			</trkpt>
			<trkpt lat="-28.171883" lon="152.737302">
				<ele>152</ele>
				<time>2015-05-07T03:48:43Z</time>
				<extensions>
				</extensions>
			</trkpt>
			<trkpt lat="-28.171837" lon="152.737097">
				<ele>153</ele>
				<time>2015-05-07T03:48:44Z</time>
				<extensions>
				</extensions>
			</trkpt>
			<trkpt lat="-28.171736" lon="152.736705">
				<ele>154</ele>
				<time>2015-05-07T03:48:46Z</time>
				<extensions>
				</extensions>
			</trkpt>
			<trkpt lat="-28.171688" lon="152.736507">
				<ele>156</ele>
				<time>2015-05-07T03:48:47Z</time>
				<extensions>
				</extensions>
			</trkpt>
			<trkpt lat="-28.171596" lon="152.736135">
				<ele>157</ele>
				<time>2015-05-07T03:48:49Z</time>
				<extensions>
				</extensions>
			</trkpt>
			<trkpt lat="-28.171495" lon="152.735761">
				<ele>160</ele>
				<time>2015-05-07T03:48:51Z</time>
				<extensions>
				</extensions>
			</trkpt>
			<trkpt lat="-28.171398" lon="152.735392">
				<ele>162</ele>
				<time>2015-05-07T03:48:53Z</time>
				<extensions>
				</extensions>
			</trkpt>
			<trkpt lat="-28.171298" lon="152.735042">
				<ele>164</ele>
				<time>2015-05-07T03:48:55Z</time>
				<extensions>
				</extensions>
			</trkpt>
			<trkpt lat="-28.171198" lon="152.734677">
				<ele>168</ele>
				<time>2015-05-07T03:48:57Z</time>
				<extensions>
				</extensions>
			</trkpt>
			<trkpt lat="-28.171115" lon="152.734288">
				<ele>170</ele>
				<time>2015-05-07T03:48:59Z</time>
				<extensions>
				</extensions>
			</trkpt>
			<trkpt lat="-28.171069" lon="152.734084">
				<ele>171</ele>
				<time>2015-05-07T03:49:00Z</time>
				<extensions>
				</extensions>
			</trkpt>
			<trkpt lat="-28.170971" lon="152.733680">
				<ele>173</ele>
				<time>2015-05-07T03:49:02Z</time>
				<extensions>
				</extensions>
			</trkpt>
			<trkpt lat="-28.170880" lon="152.733283">
				<ele>173</ele>
				<time>2015-05-07T03:49:04Z</time>
				<extensions>
				</extensions>
			</trkpt>
			<trkpt lat="-28.170831" lon="152.733085">
				<ele>173</ele>
				<time>2015-05-07T03:49:05Z</time>
				<extensions>
				</extensions>
			</trkpt>
			<trkpt lat="-28.170783" lon="152.732875">
				<ele>173</ele>
				<time>2015-05-07T03:49:06Z</time>
				<extensions>
				</extensions>
			</trkpt>
			<trkpt lat="-28.170732" lon="152.732651">
				<ele>173</ele>
				<time>2015-05-07T03:49:07Z</time>
				<extensions>
				</extensions>
			</trkpt>
			<trkpt lat="-28.170683" lon="152.732439">
				<ele>172</ele>
				<time>2015-05-07T03:49:08Z</time>
				<extensions>
				</extensions>
			</trkpt>
			<trkpt lat="-28.170627" lon="152.732204">
				<ele>171</ele>
				<time>2015-05-07T03:49:09Z</time>
				<extensions>
				</extensions>
			</trkpt>
			<trkpt lat="-28.170574" lon="152.731953">
				<ele>172</ele>
				<time>2015-05-07T03:49:10Z</time>
				<extensions>
				</extensions>
			</trkpt>
			<trkpt lat="-28.170518" lon="152.731683">
				<ele>172</ele>
				<time>2015-05-07T03:49:11Z</time>
				<extensions>
				</extensions>
			</trkpt>
			<trkpt lat="-28.170452" lon="152.731423">
				<ele>173</ele>
				<time>2015-05-07T03:49:12Z</time>
				<extensions>
				</extensions>
			</trkpt>
			<trkpt lat="-28.170395" lon="152.731155">
				<ele>172</ele>
				<time>2015-05-07T03:49:13Z</time>
				<extensions>
				</extensions>
			</trkpt>
			<trkpt lat="-28.170283" lon="152.730903">
				<ele>171</ele>
				<time>2015-05-07T03:49:14Z</time>
				<extensions>
				</extensions>
			</trkpt>
			<trkpt lat="-28.170206" lon="152.730608">
				<ele>171</ele>
				<time>2015-05-07T03:49:15Z</time>
				<extensions>
				</extensions>
			</trkpt>
			<trkpt lat="-28.170133" lon="152.730329">
				<ele>171</ele>
				<time>2015-05-07T03:49:16Z</time>
				<extensions>
				</extensions>
			</trkpt>
			<trkpt lat="-28.170058" lon="152.730045">
				<ele>170</ele>
				<time>2015-05-07T03:49:17Z</time>
				<extensions>
				</extensions>
			</trkpt>
			<trkpt lat="-28.169990" lon="152.729771">
				<ele>169</ele>
				<time>2015-05-07T03:49:18Z</time>
				<extensions>
				</extensions>
			</trkpt>
			<trkpt lat="-28.169918" lon="152.729511">
				<ele>170</ele>
				<time>2015-05-07T03:49:19Z</time>
				<extensions>
				</extensions>
			</trkpt>
			<trkpt lat="-28.169863" lon="152.729223">
				<ele>168</ele>
				<time>2015-05-07T03:49:20Z</time>
				<extensions>
				</extensions>
			</trkpt>
			<trkpt lat="-28.169818" lon="152.728910">
				<ele>166</ele>
				<time>2015-05-07T03:49:21Z</time>
				<extensions>
				</extensions>
			</trkpt>
			<trkpt lat="-28.169760" lon="152.728655">
				<ele>165</ele>
				<time>2015-05-07T03:49:22Z</time>
				<extensions>
				</extensions>
			</trkpt>
			<trkpt lat="-28.169709" lon="152.728402">
				<ele>165</ele>
				<time>2015-05-07T03:49:23Z</time>
				<extensions>
				</extensions>
			</trkpt>
			<trkpt lat="-28.169661" lon="152.728160">
				<ele>165</ele>
				<time>2015-05-07T03:49:24Z</time>
				<extensions>
				</extensions>
			</trkpt>
			<trkpt lat="-28.169642" lon="152.727936">
				<ele>165</ele>
				<time>2015-05-07T03:49:25Z</time>
				<extensions>
				</extensions>
			</trkpt>
			<trkpt lat="-28.169616" lon="152.727693">
				<ele>164</ele>
				<time>2015-05-07T03:49:26Z</time>
				<extensions>
				</extensions>
			</trkpt>
			<trkpt lat="-28.169605" lon="152.727453">
				<ele>162</ele>
				<time>2015-05-07T03:49:27Z</time>
				<extensions>
				</extensions>
			</trkpt>
			<trkpt lat="-28.169597" lon="152.727216">
				<ele>162</ele>
				<time>2015-05-07T03:49:28Z</time>
				<extensions>
				</extensions>
			</trkpt>
			<trkpt lat="-28.169600" lon="152.726991">
				<ele>162</ele>
				<time>2015-05-07T03:49:29Z</time>
				<extensions>
				</extensions>
			</trkpt>
			<trkpt lat="-28.169597" lon="152.726768">
				<ele>162</ele>
				<time>2015-05-07T03:49:30Z</time>
				<extensions>
				</extensions>
			</trkpt>
			<trkpt lat="-28.169605" lon="152.726546">
				<ele>162</ele>
				<time>2015-05-07T03:49:31Z</time>
				<extensions>
				</extensions>
			</trkpt>
			<trkpt lat="-28.169632" lon="152.726314">
				<ele>163</ele>
				<time>2015-05-07T03:49:32Z</time>
				<extensions>
				</extensions>
			</trkpt>
			<trkpt lat="-28.169668" lon="152.726087">
				<ele>164</ele>
				<time>2015-05-07T03:49:33Z</time>
				<extensions>
				</extensions>
			</trkpt>
			<trkpt lat="-28.169723" lon="152.725839">
				<ele>164</ele>
				<time>2015-05-07T03:49:34Z</time>
				<extensions>
				</extensions>
			</trkpt>
			<trkpt lat="-28.169811" lon="152.725571">
				<ele>163</ele>
				<time>2015-05-07T03:49:35Z</time>
				<extensions>
				</extensions>
			</trkpt>
			<trkpt lat="-28.169895" lon="152.725307">
				<ele>163</ele>
				<time>2015-05-07T03:49:36Z</time>
				<extensions>
				</extensions>
			</trkpt>
			<trkpt lat="-28.169982" lon="152.725058">
				<ele>164</ele>
				<time>2015-05-07T03:49:37Z</time>
				<extensions>
				</extensions>
			</trkpt>
			<trkpt lat="-28.170061" lon="152.724821">
				<ele>164</ele>
				<time>2015-05-07T03:49:38Z</time>
				<extensions>
				</extensions>
			</trkpt>
			<trkpt lat="-28.170162" lon="152.724591">
				<ele>163</ele>
				<time>2015-05-07T03:49:39Z</time>
				<extensions>
				</extensions>
			</trkpt>
			<trkpt lat="-28.170266" lon="152.724359">
				<ele>163</ele>
				<time>2015-05-07T03:49:40Z</time>
				<extensions>
				</extensions>
			</trkpt>
			<trkpt lat="-28.170376" lon="152.724136">
				<ele>164</ele>
				<time>2015-05-07T03:49:41Z</time>
				<extensions>
				</extensions>
			</trkpt>
			<trkpt lat="-28.170487" lon="152.723912">
				<ele>165</ele>
				<time>2015-05-07T03:49:42Z</time>
				<extensions>
				</extensions>
			</trkpt>
			<trkpt lat="-28.170610" lon="152.723700">
				<ele>164</ele>
				<time>2015-05-07T03:49:43Z</time>
				<extensions>
				</extensions>
			</trkpt>
			<trkpt lat="-28.170734" lon="152.723502">
				<ele>164</ele>
				<time>2015-05-07T03:49:44Z</time>
				<extensions>
				</extensions>
			</trkpt>
			<trkpt lat="-28.170859" lon="152.723315">
				<ele>163</ele>
				<time>2015-05-07T03:49:45Z</time>
				<extensions>
				</extensions>
			</trkpt>
			<trkpt lat="-28.171004" lon="152.723134">
				<ele>163</ele>
				<time>2015-05-07T03:49:46Z</time>
				<extensions>
				</extensions>
			</trkpt>
			<trkpt lat="-28.171149" lon="152.722942">
				<ele>164</ele>
				<time>2015-05-07T03:49:47Z</time>
				<extensions>
				</extensions>
			</trkpt>
			<trkpt lat="-28.171300" lon="152.722764">
				<ele>164</ele>
				<time>2015-05-07T03:49:48Z</time>
				<extensions>
				</extensions>
			</trkpt>
			<trkpt lat="-28.171441" lon="152.722585">
				<ele>164</ele>
				<time>2015-05-07T03:49:49Z</time>
				<extensions>
				</extensions>
			</trkpt>
			<trkpt lat="-28.171588" lon="152.722389">
				<ele>163</ele>
				<time>2015-05-07T03:49:50Z</time>
				<extensions>
				</extensions>
			</trkpt>
			<trkpt lat="-28.171739" lon="152.722214">
				<ele>163</ele>
				<time>2015-05-07T03:49:51Z</time>
				<extensions>
				</extensions>
			</trkpt>
			<trkpt lat="-28.171885" lon="152.722035">
				<ele>164</ele>
				<time>2015-05-07T03:49:52Z</time>
				<extensions>
				</extensions>
			</trkpt>
			<trkpt lat="-28.172029" lon="152.721858">
				<ele>164</ele>
				<time>2015-05-07T03:49:53Z</time>
				<extensions>
				</extensions>
			</trkpt>
			<trkpt lat="-28.172159" lon="152.721677">
				<ele>164</ele>
				<time>2015-05-07T03:49:54Z</time>
				<extensions>
				</extensions>
			</trkpt>
			<trkpt lat="-28.172271" lon="152.721493">
				<ele>163</ele>
				<time>2015-05-07T03:49:55Z</time>
				<extensions>
				</extensions>
			</trkpt>
			<trkpt lat="-28.172372" lon="152.721304">
				<ele>161</ele>
				<time>2015-05-07T03:49:56Z</time>
				<extensions>
				</extensions>
			</trkpt>
			<trkpt lat="-28.172479" lon="152.721119">
				<ele>160</ele>
				<time>2015-05-07T03:49:57Z</time>
				<extensions>
				</extensions>
			</trkpt>
			<trkpt lat="-28.172600" lon="152.720763">
				<ele>160</ele>
				<time>2015-05-07T03:49:59Z</time>
				<extensions>
				</extensions>
			</trkpt>
			<trkpt lat="-28.172705" lon="152.720406">
				<ele>160</ele>
				<time>2015-05-07T03:50:01Z</time>
				<extensions>
				</extensions>
			</trkpt>
			<trkpt lat="-28.172779" lon="152.720039">
				<ele>160</ele>
				<time>2015-05-07T03:50:03Z</time>
				<extensions>
				</extensions>
			</trkpt>
			<trkpt lat="-28.172815" lon="152.719674">
				<ele>161</ele>
				<time>2015-05-07T03:50:05Z</time>
				<extensions>
				</extensions>
			</trkpt>
			<trkpt lat="-28.172827" lon="152.719319">
				<ele>161</ele>
				<time>2015-05-07T03:50:07Z</time>
				<extensions>
				</extensions>
			</trkpt>
			<trkpt lat="-28.172846" lon="152.718950">
				<ele>164</ele>
				<time>2015-05-07T03:50:09Z</time>
				<extensions>
				</extensions>
			</trkpt>
			<trkpt lat="-28.172850" lon="152.718571">
				<ele>166</ele>
				<time>2015-05-07T03:50:11Z</time>
				<extensions>
				</extensions>
			</trkpt>
			<trkpt lat="-28.172861" lon="152.718164">
				<ele>167</ele>
				<time>2015-05-07T03:50:13Z</time>
				<extensions>
				</extensions>
			</trkpt>
			<trkpt lat="-28.172869" lon="152.717766">
				<ele>166</ele>
				<time>2015-05-07T03:50:15Z</time>
				<extensions>
				</extensions>
			</trkpt>
			<trkpt lat="-28.172864" lon="152.717372">
				<ele>165</ele>
				<time>2015-05-07T03:50:17Z</time>
				<extensions>
				</extensions>
			</trkpt>
			<trkpt lat="-28.172872" lon="152.717011">
				<ele>165</ele>
				<time>2015-05-07T03:50:19Z</time>
				<extensions>
				</extensions>
			</trkpt>
			<trkpt lat="-28.172881" lon="152.716610">
				<ele>164</ele>
				<time>2015-05-07T03:50:21Z</time>
				<extensions>
				</extensions>
			</trkpt>
			<trkpt lat="-28.172910" lon="152.716390">
				<ele>163</ele>
				<time>2015-05-07T03:50:22Z</time>
				<extensions>
				</extensions>
			</trkpt>
			<trkpt lat="-28.172833" lon="152.716022">
				<ele>162</ele>
				<time>2015-05-07T03:50:24Z</time>
				<extensions>
				</extensions>
			</trkpt>
			<trkpt lat="-28.172714" lon="152.715641">
				<ele>161</ele>
				<time>2015-05-07T03:50:26Z</time>
				<extensions>
				</extensions>
			</trkpt>
			<trkpt lat="-28.172622" lon="152.715452">
				<ele>161</ele>
				<time>2015-05-07T03:50:27Z</time>
				<extensions>
				</extensions>
			</trkpt>
			<trkpt lat="-28.172517" lon="152.715275">
				<ele>161</ele>
				<time>2015-05-07T03:50:28Z</time>
				<extensions>
				</extensions>
			</trkpt>
			<trkpt lat="-28.172299" lon="152.714969">
				<ele>161</ele>
				<time>2015-05-07T03:50:30Z</time>
				<extensions>
				</extensions>
			</trkpt>
			<trkpt lat="-28.172057" lon="152.714680">
				<ele>161</ele>
				<time>2015-05-07T03:50:32Z</time>
				<extensions>
				</extensions>
			</trkpt>
			<trkpt lat="-28.171826" lon="152.714388">
				<ele>160</ele>
				<time>2015-05-07T03:50:34Z</time>
				<extensions>
				</extensions>
			</trkpt>
			<trkpt lat="-28.171626" lon="152.714089">
				<ele>161</ele>
				<time>2015-05-07T03:50:36Z</time>
				<extensions>
				</extensions>
			</trkpt>
			<trkpt lat="-28.171495" lon="152.713751">
				<ele>162</ele>
				<time>2015-05-07T03:50:38Z</time>
				<extensions>
				</extensions>
			</trkpt>
			<trkpt lat="-28.171433" lon="152.713373">
				<ele>162</ele>
				<time>2015-05-07T03:50:40Z</time>
				<extensions>
				</extensions>
			</trkpt>
			<trkpt lat="-28.171391" lon="152.712972">
				<ele>163</ele>
				<time>2015-05-07T03:50:42Z</time>
				<extensions>
				</extensions>
			</trkpt>
			<trkpt lat="-28.171369" lon="152.712750">
				<ele>164</ele>
				<time>2015-05-07T03:50:43Z</time>
				<extensions>
				</extensions>
			</trkpt>
			<trkpt lat="-28.171345" lon="152.712532">
				<ele>163</ele>
				<time>2015-05-07T03:50:44Z</time>
				<extensions>
				</extensions>
			</trkpt>
			<trkpt lat="-28.171323" lon="152.712311">
				<ele>165</ele>
				<time>2015-05-07T03:50:45Z</time>
				<extensions>
				</extensions>
			</trkpt>
			<trkpt lat="-28.171306" lon="152.712093">
				<ele>165</ele>
				<time>2015-05-07T03:50:46Z</time>
				<extensions>
				</extensions>
			</trkpt>
			<trkpt lat="-28.171285" lon="152.711881">
				<ele>164</ele>
				<time>2015-05-07T03:50:47Z</time>
				<extensions>
				</extensions>
			</trkpt>
			<trkpt lat="-28.171267" lon="152.711665">
				<ele>164</ele>
				<time>2015-05-07T03:50:48Z</time>
				<extensions>
				</extensions>
			</trkpt>
			<trkpt lat="-28.171265" lon="152.711450">
				<ele>164</ele>
				<time>2015-05-07T03:50:49Z</time>
				<extensions>
				</extensions>
			</trkpt>
			<trkpt lat="-28.171248" lon="152.711204">
				<ele>165</ele>
				<time>2015-05-07T03:50:50Z</time>
				<extensions>
				</extensions>
			</trkpt>
			<trkpt lat="-28.171103" lon="152.710829">
				<ele>163</ele>
				<time>2015-05-07T03:50:52Z</time>
				<extensions>
				</extensions>
			</trkpt>
			<trkpt lat="-28.170887" lon="152.710527">
				<ele>163</ele>
				<time>2015-05-07T03:50:54Z</time>
				<extensions>
				</extensions>
			</trkpt>
			<trkpt lat="-28.170601" lon="152.710290">
				<ele>164</ele>
				<time>2015-05-07T03:50:56Z</time>
				<extensions>
				</extensions>
			</trkpt>
			<trkpt lat="-28.170280" lon="152.710165">
				<ele>167</ele>
				<time>2015-05-07T03:50:58Z</time>
				<extensions>
				</extensions>
			</trkpt>
			<trkpt lat="-28.169923" lon="152.710130">
				<ele>170</ele>
				<time>2015-05-07T03:51:00Z</time>
				<extensions>
				</extensions>
			</trkpt>
			<trkpt lat="-28.169741" lon="152.710142">
				<ele>172</ele>
				<time>2015-05-07T03:51:01Z</time>
				<extensions>
				</extensions>
			</trkpt>
			<trkpt lat="-28.169560" lon="152.710150">
				<ele>173</ele>
				<time>2015-05-07T03:51:02Z</time>
				<extensions>
				</extensions>
			</trkpt>
			<trkpt lat="-28.169212" lon="152.710169">
				<ele>171</ele>
				<time>2015-05-07T03:51:04Z</time>
				<extensions>
				</extensions>
			</trkpt>
			<trkpt lat="-28.168889" lon="152.710130">
				<ele>170</ele>
				<time>2015-05-07T03:51:06Z</time>
				<extensions>
				</extensions>
			</trkpt>
			<trkpt lat="-28.168590" lon="152.710056">
				<ele>168</ele>
				<time>2015-05-07T03:51:08Z</time>
				<extensions>
				</extensions>
			</trkpt>
			<trkpt lat="-28.168311" lon="152.709952">
				<ele>166</ele>
				<time>2015-05-07T03:51:10Z</time>
				<extensions>
				</extensions>
			</trkpt>
			<trkpt lat="-28.168098" lon="152.709835">
				<ele>164</ele>
				<time>2015-05-07T03:51:12Z</time>
				<extensions>
				</extensions>
			</trkpt>
			<trkpt lat="-28.167934" lon="152.709721">
				<ele>163</ele>
				<time>2015-05-07T03:51:14Z</time>
				<extensions>
				</extensions>
			</trkpt>
			<trkpt lat="-28.167753" lon="152.709571">
				<ele>165</ele>
				<time>2015-05-07T03:51:16Z</time>
				<extensions>
				</extensions>
			</trkpt>
			<trkpt lat="-28.167554" lon="152.709371">
				<ele>166</ele>
				<time>2015-05-07T03:51:18Z</time>
				<extensions>
				</extensions>
			</trkpt>
			<trkpt lat="-28.167362" lon="152.709118">
				<ele>168</ele>
				<time>2015-05-07T03:51:20Z</time>
				<extensions>
				</extensions>
			</trkpt>
			<trkpt lat="-28.167186" lon="152.708817">
				<ele>168</ele>
				<time>2015-05-07T03:51:22Z</time>
				<extensions>
				</extensions>
			</trkpt>
			<trkpt lat="-28.167038" lon="152.708480">
				<ele>167</ele>
				<time>2015-05-07T03:51:24Z</time>
				<extensions>
				</extensions>
			</trkpt>
			<trkpt lat="-28.166918" lon="152.708089">
				<ele>169</ele>
				<time>2015-05-07T03:51:26Z</time>
				<extensions>
				</extensions>
			</trkpt>
			<trkpt lat="-28.166876" lon="152.707878">
				<ele>170</ele>
				<time>2015-05-07T03:51:27Z</time>
				<extensions>
				</extensions>
			</trkpt>
			<trkpt lat="-28.166848" lon="152.707664">
				<ele>170</ele>
				<time>2015-05-07T03:51:28Z</time>
				<extensions>
				</extensions>
			</trkpt>
			<trkpt lat="-28.166828" lon="152.707443">
				<ele>171</ele>
				<time>2015-05-07T03:51:29Z</time>
				<extensions>
				</extensions>
			</trkpt>
			<trkpt lat="-28.166821" lon="152.707216">
				<ele>170</ele>
				<time>2015-05-07T03:51:30Z</time>
				<extensions>
				</extensions>
			</trkpt>
			<trkpt lat="-28.166825" lon="152.706981">
				<ele>171</ele>
				<time>2015-05-07T03:51:31Z</time>
				<extensions>
				</extensions>
			</trkpt>
			<trkpt lat="-28.166845" lon="152.706749">
				<ele>171</ele>
				<time>2015-05-07T03:51:32Z</time>
				<extensions>
				</extensions>
			</trkpt>
			<trkpt lat="-28.166877" lon="152.706505">
				<ele>174</ele>
				<time>2015-05-07T03:51:33Z</time>
				<extensions>
				</extensions>
			</trkpt>
			<trkpt lat="-28.166916" lon="152.706250">
				<ele>174</ele>
				<time>2015-05-07T03:51:34Z</time>
				<extensions>
				</extensions>
			</trkpt>
			<trkpt lat="-28.166970" lon="152.706025">
				<ele>173</ele>
				<time>2015-05-07T03:51:35Z</time>
				<extensions>
				</extensions>
			</trkpt>
			<trkpt lat="-28.167036" lon="152.705801">
				<ele>174</ele>
				<time>2015-05-07T03:51:36Z</time>
				<extensions>
				</extensions>
			</trkpt>
			<trkpt lat="-28.167124" lon="152.705575">
				<ele>174</ele>
				<time>2015-05-07T03:51:37Z</time>
				<extensions>
				</extensions>
			</trkpt>
			<trkpt lat="-28.167208" lon="152.705356">
				<ele>174</ele>
				<time>2015-05-07T03:51:38Z</time>
				<extensions>
				</extensions>
			</trkpt>
			<trkpt lat="-28.167302" lon="152.705125">
				<ele>174</ele>
				<time>2015-05-07T03:51:39Z</time>
				<extensions>
				</extensions>
			</trkpt>
			<trkpt lat="-28.167400" lon="152.704891">
				<ele>175</ele>
				<time>2015-05-07T03:51:40Z</time>
				<extensions>
				</extensions>
			</trkpt>
			<trkpt lat="-28.167493" lon="152.704668">
				<ele>175</ele>
				<time>2015-05-07T03:51:41Z</time>
				<extensions>
				</extensions>
			</trkpt>
			<trkpt lat="-28.167588" lon="152.704439">
				<ele>175</ele>
				<time>2015-05-07T03:51:42Z</time>
				<extensions>
				</extensions>
			</trkpt>
			<trkpt lat="-28.167679" lon="152.704205">
				<ele>175</ele>
				<time>2015-05-07T03:51:43Z</time>
				<extensions>
				</extensions>
			</trkpt>
			<trkpt lat="-28.167775" lon="152.703976">
				<ele>174</ele>
				<time>2015-05-07T03:51:44Z</time>
				<extensions>
				</extensions>
			</trkpt>
			<trkpt lat="-28.167868" lon="152.703748">
				<ele>173</ele>
				<time>2015-05-07T03:51:45Z</time>
				<extensions>
				</extensions>
			</trkpt>
			<trkpt lat="-28.167952" lon="152.703535">
				<ele>172</ele>
				<time>2015-05-07T03:51:46Z</time>
				<extensions>
				</extensions>
			</trkpt>
			<trkpt lat="-28.168036" lon="152.703330">
				<ele>171</ele>
				<time>2015-05-07T03:51:47Z</time>
				<extensions>
				</extensions>
			</trkpt>
			<trkpt lat="-28.168117" lon="152.703129">
				<ele>170</ele>
				<time>2015-05-07T03:51:48Z</time>
				<extensions>
				</extensions>
			</trkpt>
			<trkpt lat="-28.168199" lon="152.702932">
				<ele>169</ele>
				<time>2015-05-07T03:51:49Z</time>
				<extensions>
				</extensions>
			</trkpt>
			<trkpt lat="-28.168297" lon="152.702740">
				<ele>170</ele>
				<time>2015-05-07T03:51:50Z</time>
				<extensions>
				</extensions>
			</trkpt>
			<trkpt lat="-28.168415" lon="152.702552">
				<ele>171</ele>
				<time>2015-05-07T03:51:51Z</time>
				<extensions>
				</extensions>
			</trkpt>
			<trkpt lat="-28.168625" lon="152.702225">
				<ele>171</ele>
				<time>2015-05-07T03:51:53Z</time>
				<extensions>
				</extensions>
			</trkpt>
			<trkpt lat="-28.168848" lon="152.701900">
				<ele>170</ele>
				<time>2015-05-07T03:51:55Z</time>
				<extensions>
				</extensions>
			</trkpt>
			<trkpt lat="-28.169074" lon="152.701577">
				<ele>171</ele>
				<time>2015-05-07T03:51:57Z</time>
				<extensions>
				</extensions>
			</trkpt>
			<trkpt lat="-28.169191" lon="152.701414">
				<ele>172</ele>
				<time>2015-05-07T03:51:58Z</time>
				<extensions>
				</extensions>
			</trkpt>
			<trkpt lat="-28.169304" lon="152.701255">
				<ele>173</ele>
				<time>2015-05-07T03:51:59Z</time>
				<extensions>
				</extensions>
			</trkpt>
			<trkpt lat="-28.169421" lon="152.701093">
				<ele>172</ele>
				<time>2015-05-07T03:52:00Z</time>
				<extensions>
				</extensions>
			</trkpt>
			<trkpt lat="-28.169536" lon="152.700928">
				<ele>173</ele>
				<time>2015-05-07T03:52:01Z</time>
				<extensions>
				</extensions>
			</trkpt>
			<trkpt lat="-28.169648" lon="152.700760">
				<ele>172</ele>
				<time>2015-05-07T03:52:02Z</time>
				<extensions>
				</extensions>
			</trkpt>
			<trkpt lat="-28.169753" lon="152.700586">
				<ele>173</ele>
				<time>2015-05-07T03:52:03Z</time>
				<extensions>
				</extensions>
			</trkpt>
			<trkpt lat="-28.169862" lon="152.700409">
				<ele>173</ele>
				<time>2015-05-07T03:52:04Z</time>
				<extensions>
				</extensions>
			</trkpt>
			<trkpt lat="-28.169977" lon="152.700221">
				<ele>174</ele>
				<time>2015-05-07T03:52:05Z</time>
				<extensions>
				</extensions>
			</trkpt>
			<trkpt lat="-28.170082" lon="152.700036">
				<ele>175</ele>
				<time>2015-05-07T03:52:06Z</time>
				<extensions>
				</extensions>
			</trkpt>
			<trkpt lat="-28.170193" lon="152.699843">
				<ele>175</ele>
				<time>2015-05-07T03:52:07Z</time>
				<extensions>
				</extensions>
			</trkpt>
			<trkpt lat="-28.170292" lon="152.699646">
				<ele>175</ele>
				<time>2015-05-07T03:52:08Z</time>
				<extensions>
				</extensions>
			</trkpt>
			<trkpt lat="-28.170390" lon="152.699438">
				<ele>176</ele>
				<time>2015-05-07T03:52:09Z</time>
				<extensions>
				</extensions>
			</trkpt>
			<trkpt lat="-28.170480" lon="152.699233">
				<ele>176</ele>
				<time>2015-05-07T03:52:10Z</time>
				<extensions>
				</extensions>
			</trkpt>
			<trkpt lat="-28.170565" lon="152.699027">
				<ele>175</ele>
				<time>2015-05-07T03:52:11Z</time>
				<extensions>
				</extensions>
			</trkpt>
			<trkpt lat="-28.170652" lon="152.698826">
				<ele>175</ele>
				<time>2015-05-07T03:52:12Z</time>
				<extensions>
				</extensions>
			</trkpt>
			<trkpt lat="-28.170727" lon="152.698615">
				<ele>176</ele>
				<time>2015-05-07T03:52:13Z</time>
				<extensions>
				</extensions>
			</trkpt>
			<trkpt lat="-28.170803" lon="152.698396">
				<ele>176</ele>
				<time>2015-05-07T03:52:14Z</time>
				<extensions>
				</extensions>
			</trkpt>
			<trkpt lat="-28.170873" lon="152.698180">
				<ele>176</ele>
				<time>2015-05-07T03:52:15Z</time>
				<extensions>
				</extensions>
			</trkpt>
			<trkpt lat="-28.170933" lon="152.697962">
				<ele>177</ele>
				<time>2015-05-07T03:52:16Z</time>
				<extensions>
				</extensions>
			</trkpt>
			<trkpt lat="-28.170993" lon="152.697750">
				<ele>175</ele>
				<time>2015-05-07T03:52:17Z</time>
				<extensions>
				</extensions>
			</trkpt>
			<trkpt lat="-28.171046" lon="152.697540">
				<ele>175</ele>
				<time>2015-05-07T03:52:18Z</time>
				<extensions>
				</extensions>
			</trkpt>
			<trkpt lat="-28.171100" lon="152.697336">
				<ele>174</ele>
				<time>2015-05-07T03:52:19Z</time>
				<extensions>
				</extensions>
			</trkpt>
			<trkpt lat="-28.171151" lon="152.697122">
				<ele>174</ele>
				<time>2015-05-07T03:52:20Z</time>
				<extensions>
				</extensions>
			</trkpt>
			<trkpt lat="-28.171198" lon="152.696899">
				<ele>175</ele>
				<time>2015-05-07T03:52:21Z</time>
				<extensions>
				</extensions>
			</trkpt>
			<trkpt lat="-28.171247" lon="152.696690">
				<ele>175</ele>
				<time>2015-05-07T03:52:22Z</time>
				<extensions>
				</extensions>
			</trkpt>
			<trkpt lat="-28.171292" lon="152.696463">
				<ele>174</ele>
				<time>2015-05-07T03:52:23Z</time>
				<extensions>
				</extensions>
			</trkpt>
			<trkpt lat="-28.171347" lon="152.696238">
				<ele>176</ele>
				<time>2015-05-07T03:52:24Z</time>
				<extensions>
				</extensions>
			</trkpt>
			<trkpt lat="-28.171397" lon="152.696021">
				<ele>175</ele>
				<time>2015-05-07T03:52:25Z</time>
				<extensions>
				</extensions>
			</trkpt>
			<trkpt lat="-28.171442" lon="152.695801">
				<ele>175</ele>
				<time>2015-05-07T03:52:26Z</time>
				<extensions>
				</extensions>
			</trkpt>
			<trkpt lat="-28.171486" lon="152.695583">
				<ele>175</ele>
				<time>2015-05-07T03:52:27Z</time>
				<extensions>
				</extensions>
			</trkpt>
			<trkpt lat="-28.171532" lon="152.695360">
				<ele>176</ele>
				<time>2015-05-07T03:52:28Z</time>
				<extensions>
				</extensions>
			</trkpt>
			<trkpt lat="-28.171582" lon="152.695129">
				<ele>177</ele>
				<time>2015-05-07T03:52:29Z</time>
				<extensions>
				</extensions>
			</trkpt>
			<trkpt lat="-28.171632" lon="152.694897">
				<ele>178</ele>
				<time>2015-05-07T03:52:30Z</time>
				<extensions>
				</extensions>
			</trkpt>
			<trkpt lat="-28.171684" lon="152.694674">
				<ele>177</ele>
				<time>2015-05-07T03:52:31Z</time>
				<extensions>
				</extensions>
			</trkpt>
			<trkpt lat="-28.171732" lon="152.694447">
				<ele>176</ele>
				<time>2015-05-07T03:52:32Z</time>
				<extensions>
				</extensions>
			</trkpt>
			<trkpt lat="-28.171770" lon="152.694232">
				<ele>176</ele>
				<time>2015-05-07T03:52:33Z</time>
				<extensions>
				</extensions>
			</trkpt>
			<trkpt lat="-28.171817" lon="152.694006">
				<ele>177</ele>
				<time>2015-05-07T03:52:34Z</time>
				<extensions>
				</extensions>
			</trkpt>
			<trkpt lat="-28.171860" lon="152.693795">
				<ele>175</ele>
				<time>2015-05-07T03:52:35Z</time>
				<extensions>
				</extensions>
			</trkpt>
			<trkpt lat="-28.171901" lon="152.693586">
				<ele>175</ele>
				<time>2015-05-07T03:52:36Z</time>
				<extensions>
				</extensions>
			</trkpt>
			<trkpt lat="-28.171962" lon="152.693202">
				<ele>175</ele>
				<time>2015-05-07T03:52:38Z</time>
				<extensions>
				</extensions>
			</trkpt>
			<trkpt lat="-28.172007" lon="152.692802">
				<ele>176</ele>
				<time>2015-05-07T03:52:40Z</time>
				<extensions>
				</extensions>
			</trkpt>
			<trkpt lat="-28.172036" lon="152.692596">
				<ele>177</ele>
				<time>2015-05-07T03:52:41Z</time>
				<extensions>
				</extensions>
			</trkpt>
			<trkpt lat="-28.172057" lon="152.692378">
				<ele>177</ele>
				<time>2015-05-07T03:52:42Z</time>
				<extensions>
				</extensions>
			</trkpt>
			<trkpt lat="-28.172063" lon="152.692158">
				<ele>177</ele>
				<time>2015-05-07T03:52:43Z</time>
				<extensions>
				</extensions>
			</trkpt>
			<trkpt lat="-28.172065" lon="152.691935">
				<ele>178</ele>
				<time>2015-05-07T03:52:44Z</time>
				<extensions>
				</extensions>
			</trkpt>
			<trkpt lat="-28.172071" lon="152.691719">
				<ele>178</ele>
				<time>2015-05-07T03:52:45Z</time>
				<extensions>
				</extensions>
			</trkpt>
			<trkpt lat="-28.172071" lon="152.691497">
				<ele>177</ele>
				<time>2015-05-07T03:52:46Z</time>
				<extensions>
				</extensions>
			</trkpt>
			<trkpt lat="-28.172081" lon="152.691273">
				<ele>179</ele>
				<time>2015-05-07T03:52:47Z</time>
				<extensions>
				</extensions>
			</trkpt>
			<trkpt lat="-28.172090" lon="152.691025">
				<ele>179</ele>
				<time>2015-05-07T03:52:48Z</time>
				<extensions>
				</extensions>
			</trkpt>
			<trkpt lat="-28.172101" lon="152.690790">
				<ele>180</ele>
				<time>2015-05-07T03:52:49Z</time>
				<extensions>
				</extensions>
			</trkpt>
			<trkpt lat="-28.172116" lon="152.690535">
				<ele>180</ele>
				<time>2015-05-07T03:52:50Z</time>
				<extensions>
				</extensions>
			</trkpt>
			<trkpt lat="-28.172129" lon="152.690283">
				<ele>180</ele>
				<time>2015-05-07T03:52:51Z</time>
				<extensions>
				</extensions>
			</trkpt>
			<trkpt lat="-28.172136" lon="152.690015">
				<ele>181</ele>
				<time>2015-05-07T03:52:52Z</time>
				<extensions>
				</extensions>
			</trkpt>
			<trkpt lat="-28.172151" lon="152.689728">
				<ele>182</ele>
				<time>2015-05-07T03:52:53Z</time>
				<extensions>
				</extensions>
			</trkpt>
			<trkpt lat="-28.172167" lon="152.689462">
				<ele>182</ele>
				<time>2015-05-07T03:52:54Z</time>
				<extensions>
				</extensions>
			</trkpt>
			<trkpt lat="-28.172187" lon="152.689195">
				<ele>181</ele>
				<time>2015-05-07T03:52:55Z</time>
				<extensions>
				</extensions>
			</trkpt>
			<trkpt lat="-28.172206" lon="152.688903">
				<ele>181</ele>
				<time>2015-05-07T03:52:56Z</time>
				<extensions>
				</extensions>
			</trkpt>
			<trkpt lat="-28.172208" lon="152.688661">
				<ele>181</ele>
				<time>2015-05-07T03:52:57Z</time>
				<extensions>
				</extensions>
			</trkpt>
			<trkpt lat="-28.172208" lon="152.688394">
				<ele>180</ele>
				<time>2015-05-07T03:52:58Z</time>
				<extensions>
				</extensions>
			</trkpt>
			<trkpt lat="-28.172232" lon="152.688116">
				<ele>180</ele>
				<time>2015-05-07T03:52:59Z</time>
				<extensions>
				</extensions>
			</trkpt>
			<trkpt lat="-28.172221" lon="152.687855">
				<ele>180</ele>
				<time>2015-05-07T03:53:00Z</time>
				<extensions>
				</extensions>
			</trkpt>
			<trkpt lat="-28.172219" lon="152.687590">
				<ele>178</ele>
				<time>2015-05-07T03:53:01Z</time>
				<extensions>
				</extensions>
			</trkpt>
			<trkpt lat="-28.172192" lon="152.687340">
				<ele>181</ele>
				<time>2015-05-07T03:53:02Z</time>
				<extensions>
				</extensions>
			</trkpt>
			<trkpt lat="-28.172163" lon="152.687096">
				<ele>181</ele>
				<time>2015-05-07T03:53:03Z</time>
				<extensions>
				</extensions>
			</trkpt>
			<trkpt lat="-28.172123" lon="152.686861">
				<ele>182</ele>
				<time>2015-05-07T03:53:04Z</time>
				<extensions>
				</extensions>
			</trkpt>
			<trkpt lat="-28.172073" lon="152.686621">
				<ele>183</ele>
				<time>2015-05-07T03:53:05Z</time>
				<extensions>
				</extensions>
			</trkpt>
			<trkpt lat="-28.172017" lon="152.686361">
				<ele>182</ele>
				<time>2015-05-07T03:53:06Z</time>
				<extensions>
				</extensions>
			</trkpt>
			<trkpt lat="-28.171967" lon="152.686139">
				<ele>181</ele>
				<time>2015-05-07T03:53:07Z</time>
				<extensions>
				</extensions>
			</trkpt>
			<trkpt lat="-28.171916" lon="152.685913">
				<ele>181</ele>
				<time>2015-05-07T03:53:08Z</time>
				<extensions>
				</extensions>
			</trkpt>
			<trkpt lat="-28.171874" lon="152.685663">
				<ele>181</ele>
				<time>2015-05-07T03:53:09Z</time>
				<extensions>
				</extensions>
			</trkpt>
			<trkpt lat="-28.171829" lon="152.685422">
				<ele>182</ele>
				<time>2015-05-07T03:53:10Z</time>
				<extensions>
				</extensions>
			</trkpt>
			<trkpt lat="-28.171783" lon="152.685177">
				<ele>182</ele>
				<time>2015-05-07T03:53:11Z</time>
				<extensions>
				</extensions>
			</trkpt>
			<trkpt lat="-28.171728" lon="152.684941">
				<ele>183</ele>
				<time>2015-05-07T03:53:12Z</time>
				<extensions>
				</extensions>
			</trkpt>
			<trkpt lat="-28.171665" lon="152.684715">
				<ele>184</ele>
				<time>2015-05-07T03:53:13Z</time>
				<extensions>
				</extensions>
			</trkpt>
			<trkpt lat="-28.171603" lon="152.684491">
				<ele>183</ele>
				<time>2015-05-07T03:53:14Z</time>
				<extensions>
				</extensions>
			</trkpt>
			<trkpt lat="-28.171539" lon="152.684260">
				<ele>182</ele>
				<time>2015-05-07T03:53:15Z</time>
				<extensions>
				</extensions>
			</trkpt>
			<trkpt lat="-28.171472" lon="152.684050">
				<ele>181</ele>
				<time>2015-05-07T03:53:16Z</time>
				<extensions>
				</extensions>
			</trkpt>
			<trkpt lat="-28.171399" lon="152.683864">
				<ele>180</ele>
				<time>2015-05-07T03:53:17Z</time>
				<extensions>
				</extensions>
			</trkpt>
			<trkpt lat="-28.171257" lon="152.683518">
				<ele>177</ele>
				<time>2015-05-07T03:53:19Z</time>
				<extensions>
				</extensions>
			</trkpt>
			<trkpt lat="-28.171100" lon="152.683171">
				<ele>178</ele>
				<time>2015-05-07T03:53:21Z</time>
				<extensions>
				</extensions>
			</trkpt>
			<trkpt lat="-28.171018" lon="152.682984">
				<ele>179</ele>
				<time>2015-05-07T03:53:22Z</time>
				<extensions>
				</extensions>
			</trkpt>
			<trkpt lat="-28.170931" lon="152.682798">
				<ele>179</ele>
				<time>2015-05-07T03:53:23Z</time>
				<extensions>
				</extensions>
			</trkpt>
			<trkpt lat="-28.170849" lon="152.682616">
				<ele>179</ele>
				<time>2015-05-07T03:53:24Z</time>
				<extensions>
				</extensions>
			</trkpt>
			<trkpt lat="-28.170761" lon="152.682427">
				<ele>179</ele>
				<time>2015-05-07T03:53:25Z</time>
				<extensions>
				</extensions>
			</trkpt>
			<trkpt lat="-28.170671" lon="152.682237">
				<ele>180</ele>
				<time>2015-05-07T03:53:26Z</time>
				<extensions>
				</extensions>
			</trkpt>
			<trkpt lat="-28.170577" lon="152.682051">
				<ele>181</ele>
				<time>2015-05-07T03:53:27Z</time>
				<extensions>
				</extensions>
			</trkpt>
			<trkpt lat="-28.170490" lon="152.681866">
				<ele>181</ele>
				<time>2015-05-07T03:53:28Z</time>
				<extensions>
				</extensions>
			</trkpt>
			<trkpt lat="-28.170407" lon="152.681681">
				<ele>180</ele>
				<time>2015-05-07T03:53:29Z</time>
				<extensions>
				</extensions>
			</trkpt>
			<trkpt lat="-28.170318" lon="152.681490">
				<ele>180</ele>
				<time>2015-05-07T03:53:30Z</time>
				<extensions>
				</extensions>
			</trkpt>
			<trkpt lat="-28.170229" lon="152.681302">
				<ele>180</ele>
				<time>2015-05-07T03:53:31Z</time>
				<extensions>
				</extensions>
			</trkpt>
			<trkpt lat="-28.170140" lon="152.681108">
				<ele>181</ele>
				<time>2015-05-07T03:53:32Z</time>
				<extensions>
				</extensions>
			</trkpt>
			<trkpt lat="-28.170055" lon="152.680909">
				<ele>182</ele>
				<time>2015-05-07T03:53:33Z</time>
				<extensions>
				</extensions>
			</trkpt>
			<trkpt lat="-28.169961" lon="152.680726">
				<ele>181</ele>
				<time>2015-05-07T03:53:34Z</time>
				<extensions>
				</extensions>
			</trkpt>
			<trkpt lat="-28.169878" lon="152.680544">
				<ele>181</ele>
				<time>2015-05-07T03:53:35Z</time>
				<extensions>
				</extensions>
			</trkpt>
			<trkpt lat="-28.169728" lon="152.680192">
				<ele>179</ele>
				<time>2015-05-07T03:53:37Z</time>
				<extensions>
				</extensions>
			</trkpt>
			<trkpt lat="-28.169643" lon="152.679816">
				<ele>179</ele>
				<time>2015-05-07T03:53:39Z</time>
				<extensions>
				</extensions>
			</trkpt>
			<trkpt lat="-28.169641" lon="152.679613">
				<ele>179</ele>
				<time>2015-05-07T03:53:40Z</time>
				<extensions>
				</extensions>
			</trkpt>
			<trkpt lat="-28.169658" lon="152.679209">
				<ele>177</ele>
				<time>2015-05-07T03:53:42Z</time>
				<extensions>
				</extensions>
			</trkpt>
			<trkpt lat="-28.169670" lon="152.678806">
				<ele>175</ele>
				<time>2015-05-07T03:53:44Z</time>
				<extensions>
				</extensions>
			</trkpt>
			<trkpt lat="-28.169675" lon="152.678601">
				<ele>176</ele>
				<time>2015-05-07T03:53:45Z</time>
				<extensions>
				</extensions>
			</trkpt>
			<trkpt lat="-28.169679" lon="152.678388">
				<ele>177</ele>
				<time>2015-05-07T03:53:46Z</time>
				<extensions>
				</extensions>
			</trkpt>
			<trkpt lat="-28.169683" lon="152.678175">
				<ele>178</ele>
				<time>2015-05-07T03:53:47Z</time>
				<extensions>
				</extensions>
			</trkpt>
			<trkpt lat="-28.169685" lon="152.677938">
				<ele>180</ele>
				<time>2015-05-07T03:53:48Z</time>
				<extensions>
				</extensions>
			</trkpt>
			<trkpt lat="-28.169697" lon="152.677699">
				<ele>182</ele>
				<time>2015-05-07T03:53:49Z</time>
				<extensions>
				</extensions>
			</trkpt>
			<trkpt lat="-28.169752" lon="152.677409">
				<ele>182</ele>
				<time>2015-05-07T03:53:50Z</time>
				<extensions>
				</extensions>
			</trkpt>
			<trkpt lat="-28.169780" lon="152.677146">
				<ele>182</ele>
				<time>2015-05-07T03:53:51Z</time>
				<extensions>
				</extensions>
			</trkpt>
			<trkpt lat="-28.169803" lon="152.676908">
				<ele>183</ele>
				<time>2015-05-07T03:53:52Z</time>
				<extensions>
				</extensions>
			</trkpt>
			<trkpt lat="-28.169816" lon="152.676655">
				<ele>184</ele>
				<time>2015-05-07T03:53:53Z</time>
				<extensions>
				</extensions>
			</trkpt>
			<trkpt lat="-28.169845" lon="152.676410">
				<ele>186</ele>
				<time>2015-05-07T03:53:54Z</time>
				<extensions>
				</extensions>
			</trkpt>
			<trkpt lat="-28.169871" lon="152.676162">
				<ele>186</ele>
				<time>2015-05-07T03:53:55Z</time>
				<extensions>
				</extensions>
			</trkpt>
			<trkpt lat="-28.169909" lon="152.675895">
				<ele>187</ele>
				<time>2015-05-07T03:53:56Z</time>
				<extensions>
				</extensions>
			</trkpt>
			<trkpt lat="-28.169944" lon="152.675634">
				<ele>188</ele>
				<time>2015-05-07T03:53:57Z</time>
				<extensions>
				</extensions>
			</trkpt>
			<trkpt lat="-28.169984" lon="152.675371">
				<ele>189</ele>
				<time>2015-05-07T03:53:58Z</time>
				<extensions>
				</extensions>
			</trkpt>
			<trkpt lat="-28.170040" lon="152.675090">
				<ele>190</ele>
				<time>2015-05-07T03:53:59Z</time>
				<extensions>
				</extensions>
			</trkpt>
			<trkpt lat="-28.170059" lon="152.674825">
				<ele>191</ele>
				<time>2015-05-07T03:54:00Z</time>
				<extensions>
				</extensions>
			</trkpt>
			<trkpt lat="-28.170080" lon="152.674559">
				<ele>192</ele>
				<time>2015-05-07T03:54:01Z</time>
				<extensions>
				</extensions>
			</trkpt>
			<trkpt lat="-28.170125" lon="152.674300">
				<ele>192</ele>
				<time>2015-05-07T03:54:02Z</time>
				<extensions>
				</extensions>
			</trkpt>
			<trkpt lat="-28.170154" lon="152.674045">
				<ele>195</ele>
				<time>2015-05-07T03:54:03Z</time>
				<extensions>
				</extensions>
			</trkpt>
			<trkpt lat="-28.170186" lon="152.673783">
				<ele>197</ele>
				<time>2015-05-07T03:54:04Z</time>
				<extensions>
				</extensions>
			</trkpt>
			<trkpt lat="-28.170216" lon="152.673524">
				<ele>200</ele>
				<time>2015-05-07T03:54:05Z</time>
				<extensions>
				</extensions>
			</trkpt>
			<trkpt lat="-28.170238" lon="152.673275">
				<ele>201</ele>
				<time>2015-05-07T03:54:06Z</time>
				<extensions>
				</extensions>
			</trkpt>
			<trkpt lat="-28.170258" lon="152.673051">
				<ele>202</ele>
				<time>2015-05-07T03:54:07Z</time>
				<extensions>
				</extensions>
			</trkpt>
			<trkpt lat="-28.170285" lon="152.672820">
				<ele>203</ele>
				<time>2015-05-07T03:54:08Z</time>
				<extensions>
				</extensions>
			</trkpt>
			<trkpt lat="-28.170302" lon="152.672588">
				<ele>204</ele>
				<time>2015-05-07T03:54:09Z</time>
				<extensions>
				</extensions>
			</trkpt>
			<trkpt lat="-28.170327" lon="152.672378">
				<ele>203</ele>
				<time>2015-05-07T03:54:10Z</time>
				<extensions>
				</extensions>
			</trkpt>
			<trkpt lat="-28.170341" lon="152.672174">
				<ele>203</ele>
				<time>2015-05-07T03:54:11Z</time>
				<extensions>
				</extensions>
			</trkpt>
			<trkpt lat="-28.170364" lon="152.671966">
				<ele>204</ele>
				<time>2015-05-07T03:54:12Z</time>
				<extensions>
				</extensions>
			</trkpt>
			<trkpt lat="-28.170382" lon="152.671754">
				<ele>205</ele>
				<time>2015-05-07T03:54:13Z</time>
				<extensions>
				</extensions>
			</trkpt>
			<trkpt lat="-28.170382" lon="152.671542">
				<ele>206</ele>
				<time>2015-05-07T03:54:14Z</time>
				<extensions>
				</extensions>
			</trkpt>
			<trkpt lat="-28.170390" lon="152.671324">
				<ele>206</ele>
				<time>2015-05-07T03:54:15Z</time>
				<extensions>
				</extensions>
			</trkpt>
			<trkpt lat="-28.170423" lon="152.671104">
				<ele>206</ele>
				<time>2015-05-07T03:54:16Z</time>
				<extensions>
				</extensions>
			</trkpt>
			<trkpt lat="-28.170478" lon="152.670887">
				<ele>207</ele>
				<time>2015-05-07T03:54:17Z</time>
				<extensions>
				</extensions>
			</trkpt>
			<trkpt lat="-28.170483" lon="152.670667">
				<ele>207</ele>
				<time>2015-05-07T03:54:18Z</time>
				<extensions>
				</extensions>
			</trkpt>
			<trkpt lat="-28.170549" lon="152.670450">
				<ele>208</ele>
				<time>2015-05-07T03:54:19Z</time>
				<extensions>
				</extensions>
			</trkpt>
			<trkpt lat="-28.170579" lon="152.670247">
				<ele>208</ele>
				<time>2015-05-07T03:54:20Z</time>
				<extensions>
				</extensions>
			</trkpt>
			<trkpt lat="-28.170608" lon="152.670032">
				<ele>209</ele>
				<time>2015-05-07T03:54:21Z</time>
				<extensions>
				</extensions>
			</trkpt>
			<trkpt lat="-28.170633" lon="152.669822">
				<ele>209</ele>
				<time>2015-05-07T03:54:22Z</time>
				<extensions>
				</extensions>
			</trkpt>
			<trkpt lat="-28.170662" lon="152.669618">
				<ele>209</ele>
				<time>2015-05-07T03:54:23Z</time>
				<extensions>
				</extensions>
			</trkpt>
			<trkpt lat="-28.170699" lon="152.669226">
				<ele>210</ele>
				<time>2015-05-07T03:54:25Z</time>
				<extensions>
				</extensions>
			</trkpt>
			<trkpt lat="-28.170698" lon="152.669017">
				<ele>211</ele>
				<time>2015-05-07T03:54:26Z</time>
				<extensions>
				</extensions>
			</trkpt>
			<trkpt lat="-28.170685" lon="152.668808">
				<ele>212</ele>
				<time>2015-05-07T03:54:27Z</time>
				<extensions>
				</extensions>
			</trkpt>
			<trkpt lat="-28.170626" lon="152.668417">
				<ele>216</ele>
				<time>2015-05-07T03:54:29Z</time>
				<extensions>
				</extensions>
			</trkpt>
			<trkpt lat="-28.170493" lon="152.668073">
				<ele>217</ele>
				<time>2015-05-07T03:54:31Z</time>
				<extensions>
				</extensions>
			</trkpt>
			<trkpt lat="-28.170305" lon="152.667764">
				<ele>218</ele>
				<time>2015-05-07T03:54:33Z</time>
				<extensions>
				</extensions>
			</trkpt>
			<trkpt lat="-28.170076" lon="152.667468">
				<ele>221</ele>
				<time>2015-05-07T03:54:35Z</time>
				<extensions>
				</extensions>
			</trkpt>
			<trkpt lat="-28.169961" lon="152.667305">
				<ele>221</ele>
				<time>2015-05-07T03:54:36Z</time>
				<extensions>
				</extensions>
			</trkpt>
			<trkpt lat="-28.169837" lon="152.667150">
				<ele>224</ele>
				<time>2015-05-07T03:54:37Z</time>
				<extensions>
				</extensions>
			</trkpt>
			<trkpt lat="-28.169725" lon="152.666988">
				<ele>226</ele>
				<time>2015-05-07T03:54:38Z</time>
				<extensions>
				</extensions>
			</trkpt>
			<trkpt lat="-28.169481" lon="152.666700">
				<ele>226</ele>
				<time>2015-05-07T03:54:40Z</time>
				<extensions>
				</extensions>
			</trkpt>
			<trkpt lat="-28.169197" lon="152.666523">
				<ele>227</ele>
				<time>2015-05-07T03:54:42Z</time>
				<extensions>
				</extensions>
			</trkpt>
			<trkpt lat="-28.168878" lon="152.666444">
				<ele>228</ele>
				<time>2015-05-07T03:54:44Z</time>
				<extensions>
				</extensions>
			</trkpt>
			<trkpt lat="-28.168537" lon="152.666470">
				<ele>229</ele>
				<time>2015-05-07T03:54:46Z</time>
				<extensions>
				</extensions>
			</trkpt>
			<trkpt lat="-28.168357" lon="152.666488">
				<ele>232</ele>
				<time>2015-05-07T03:54:47Z</time>
				<extensions>
				</extensions>
			</trkpt>
			<trkpt lat="-28.167994" lon="152.666505">
				<ele>235</ele>
				<time>2015-05-07T03:54:49Z</time>
				<extensions>
				</extensions>
			</trkpt>
			<trkpt lat="-28.167810" lon="152.666481">
				<ele>236</ele>
				<time>2015-05-07T03:54:50Z</time>
				<extensions>
				</extensions>
			</trkpt>
			<trkpt lat="-28.167630" lon="152.666427">
				<ele>237</ele>
				<time>2015-05-07T03:54:51Z</time>
				<extensions>
				</extensions>
			</trkpt>
			<trkpt lat="-28.167450" lon="152.666363">
				<ele>239</ele>
				<time>2015-05-07T03:54:52Z</time>
				<extensions>
				</extensions>
			</trkpt>
			<trkpt lat="-28.167283" lon="152.666272">
				<ele>239</ele>
				<time>2015-05-07T03:54:53Z</time>
				<extensions>
				</extensions>
			</trkpt>
			<trkpt lat="-28.166985" lon="152.666075">
				<ele>241</ele>
				<time>2015-05-07T03:54:55Z</time>
				<extensions>
				</extensions>
			</trkpt>
			<trkpt lat="-28.166721" lon="152.665829">
				<ele>244</ele>
				<time>2015-05-07T03:54:57Z</time>
				<extensions>
				</extensions>
			</trkpt>
			<trkpt lat="-28.166595" lon="152.665675">
				<ele>245</ele>
				<time>2015-05-07T03:54:58Z</time>
				<extensions>
				</extensions>
			</trkpt>
			<trkpt lat="-28.166379" lon="152.665362">
				<ele>247</ele>
				<time>2015-05-07T03:55:00Z</time>
				<extensions>
				</extensions>
			</trkpt>
			<trkpt lat="-28.166211" lon="152.665012">
				<ele>247</ele>
				<time>2015-05-07T03:55:02Z</time>
				<extensions>
				</extensions>
			</trkpt>
			<trkpt lat="-28.166151" lon="152.664818">
				<ele>249</ele>
				<time>2015-05-07T03:55:03Z</time>
				<extensions>
				</extensions>
			</trkpt>
			<trkpt lat="-28.166099" lon="152.664607">
				<ele>249</ele>
				<time>2015-05-07T03:55:04Z</time>
				<extensions>
				</extensions>
			</trkpt>
			<trkpt lat="-28.166060" lon="152.664390">
				<ele>251</ele>
				<time>2015-05-07T03:55:05Z</time>
				<extensions>
				</extensions>
			</trkpt>
			<trkpt lat="-28.166034" lon="152.664161">
				<ele>253</ele>
				<time>2015-05-07T03:55:06Z</time>
				<extensions>
				</extensions>
			</trkpt>
			<trkpt lat="-28.166023" lon="152.663932">
				<ele>255</ele>
				<time>2015-05-07T03:55:07Z</time>
				<extensions>
				</extensions>
			</trkpt>
			<trkpt lat="-28.166025" lon="152.663699">
				<ele>256</ele>
				<time>2015-05-07T03:55:08Z</time>
				<extensions>
				</extensions>
			</trkpt>
			<trkpt lat="-28.166029" lon="152.663462">
				<ele>256</ele>
				<time>2015-05-07T03:55:09Z</time>
				<extensions>
				</extensions>
			</trkpt>
			<trkpt lat="-28.166048" lon="152.663249">
				<ele>258</ele>
				<time>2015-05-07T03:55:10Z</time>
				<extensions>
				</extensions>
			</trkpt>
			<trkpt lat="-28.166075" lon="152.663032">
				<ele>258</ele>
				<time>2015-05-07T03:55:11Z</time>
				<extensions>
				</extensions>
			</trkpt>
			<trkpt lat="-28.166102" lon="152.662824">
				<ele>258</ele>
				<time>2015-05-07T03:55:12Z</time>
				<extensions>
				</extensions>
			</trkpt>
			<trkpt lat="-28.166139" lon="152.662453">
				<ele>258</ele>
				<time>2015-05-07T03:55:14Z</time>
				<extensions>
				</extensions>
			</trkpt>
			<trkpt lat="-28.166234" lon="152.662122">
				<ele>262</ele>
				<time>2015-05-07T03:55:16Z</time>
				<extensions>
				</extensions>
			</trkpt>
			<trkpt lat="-28.166407" lon="152.661812">
				<ele>264</ele>
				<time>2015-05-07T03:55:18Z</time>
				<extensions>
				</extensions>
			</trkpt>
			<trkpt lat="-28.166574" lon="152.661501">
				<ele>263</ele>
				<time>2015-05-07T03:55:20Z</time>
				<extensions>
				</extensions>
			</trkpt>
			<trkpt lat="-28.166652" lon="152.661148">
				<ele>264</ele>
				<time>2015-05-07T03:55:22Z</time>
				<extensions>
				</extensions>
			</trkpt>
			<trkpt lat="-28.166660" lon="152.660795">
				<ele>264</ele>
				<time>2015-05-07T03:55:24Z</time>
				<extensions>
				</extensions>
			</trkpt>
			<trkpt lat="-28.166582" lon="152.660442">
				<ele>268</ele>
				<time>2015-05-07T03:55:26Z</time>
				<extensions>
				</extensions>
			</trkpt>
			<trkpt lat="-28.166445" lon="152.660113">
				<ele>272</ele>
				<time>2015-05-07T03:55:28Z</time>
				<extensions>
				</extensions>
			</trkpt>
			<trkpt lat="-28.166273" lon="152.659777">
				<ele>276</ele>
				<time>2015-05-07T03:55:30Z</time>
				<extensions>
				</extensions>
			</trkpt>
			<trkpt lat="-28.166109" lon="152.659480">
				<ele>277</ele>
				<time>2015-05-07T03:55:32Z</time>
				<extensions>
				</extensions>
			</trkpt>
			<trkpt lat="-28.165946" lon="152.659189">
				<ele>278</ele>
				<time>2015-05-07T03:55:34Z</time>
				<extensions>
				</extensions>
			</trkpt>
			<trkpt lat="-28.165791" lon="152.658869">
				<ele>278</ele>
				<time>2015-05-07T03:55:36Z</time>
				<extensions>
				</extensions>
			</trkpt>
			<trkpt lat="-28.165652" lon="152.658570">
				<ele>278</ele>
				<time>2015-05-07T03:55:38Z</time>
				<extensions>
				</extensions>
			</trkpt>
			<trkpt lat="-28.165504" lon="152.658271">
				<ele>279</ele>
				<time>2015-05-07T03:55:40Z</time>
				<extensions>
				</extensions>
			</trkpt>
			<trkpt lat="-28.165335" lon="152.657973">
				<ele>283</ele>
				<time>2015-05-07T03:55:42Z</time>
				<extensions>
				</extensions>
			</trkpt>
			<trkpt lat="-28.165130" lon="152.657686">
				<ele>285</ele>
				<time>2015-05-07T03:55:44Z</time>
				<extensions>
				</extensions>
			</trkpt>
			<trkpt lat="-28.164893" lon="152.657413">
				<ele>287</ele>
				<time>2015-05-07T03:55:46Z</time>
				<extensions>
				</extensions>
			</trkpt>
			<trkpt lat="-28.164638" lon="152.657156">
				<ele>290</ele>
				<time>2015-05-07T03:55:48Z</time>
				<extensions>
				</extensions>
			</trkpt>
			<trkpt lat="-28.164376" lon="152.656907">
				<ele>293</ele>
				<time>2015-05-07T03:55:50Z</time>
				<extensions>
				</extensions>
			</trkpt>
			<trkpt lat="-28.164092" lon="152.656660">
				<ele>298</ele>
				<time>2015-05-07T03:55:52Z</time>
				<extensions>
				</extensions>
			</trkpt>
			<trkpt lat="-28.163790" lon="152.656397">
				<ele>299</ele>
				<time>2015-05-07T03:55:54Z</time>
				<extensions>
				</extensions>
			</trkpt>
			<trkpt lat="-28.163629" lon="152.656259">
				<ele>300</ele>
				<time>2015-05-07T03:55:55Z</time>
				<extensions>
				</extensions>
			</trkpt>
			<trkpt lat="-28.163470" lon="152.656119">
				<ele>301</ele>
				<time>2015-05-07T03:55:56Z</time>
				<extensions>
				</extensions>
			</trkpt>
			<trkpt lat="-28.163311" lon="152.655979">
				<ele>300</ele>
				<time>2015-05-07T03:55:57Z</time>
				<extensions>
				</extensions>
			</trkpt>
			<trkpt lat="-28.163147" lon="152.655838">
				<ele>298</ele>
				<time>2015-05-07T03:55:58Z</time>
				<extensions>
				</extensions>
			</trkpt>
			<trkpt lat="-28.162975" lon="152.655684">
				<ele>299</ele>
				<time>2015-05-07T03:55:59Z</time>
				<extensions>
				</extensions>
			</trkpt>
			<trkpt lat="-28.162797" lon="152.655537">
				<ele>299</ele>
				<time>2015-05-07T03:56:00Z</time>
				<extensions>
				</extensions>
			</trkpt>
			<trkpt lat="-28.162608" lon="152.655387">
				<ele>298</ele>
				<time>2015-05-07T03:56:01Z</time>
				<extensions>
				</extensions>
			</trkpt>
			<trkpt lat="-28.162422" lon="152.655227">
				<ele>298</ele>
				<time>2015-05-07T03:56:02Z</time>
				<extensions>
				</extensions>
			</trkpt>
			<trkpt lat="-28.162239" lon="152.655060">
				<ele>297</ele>
				<time>2015-05-07T03:56:03Z</time>
				<extensions>
				</extensions>
			</trkpt>
			<trkpt lat="-28.162052" lon="152.654903">
				<ele>295</ele>
				<time>2015-05-07T03:56:04Z</time>
				<extensions>
				</extensions>
			</trkpt>
			<trkpt lat="-28.161857" lon="152.654748">
				<ele>293</ele>
				<time>2015-05-07T03:56:05Z</time>
				<extensions>
				</extensions>
			</trkpt>
			<trkpt lat="-28.161672" lon="152.654585">
				<ele>292</ele>
				<time>2015-05-07T03:56:06Z</time>
				<extensions>
				</extensions>
			</trkpt>
			<trkpt lat="-28.161496" lon="152.654427">
				<ele>288</ele>
				<time>2015-05-07T03:56:07Z</time>
				<extensions>
				</extensions>
			</trkpt>
			<trkpt lat="-28.161319" lon="152.654260">
				<ele>287</ele>
				<time>2015-05-07T03:56:08Z</time>
				<extensions>
				</extensions>
			</trkpt>
			<trkpt lat="-28.161134" lon="152.654098">
				<ele>287</ele>
				<time>2015-05-07T03:56:09Z</time>
				<extensions>
				</extensions>
			</trkpt>
			<trkpt lat="-28.160949" lon="152.653940">
				<ele>285</ele>
				<time>2015-05-07T03:56:10Z</time>
				<extensions>
				</extensions>
			</trkpt>
			<trkpt lat="-28.160769" lon="152.653771">
				<ele>284</ele>
				<time>2015-05-07T03:56:11Z</time>
				<extensions>
				</extensions>
			</trkpt>
			<trkpt lat="-28.160573" lon="152.653605">
				<ele>282</ele>
				<time>2015-05-07T03:56:12Z</time>
				<extensions>
				</extensions>
			</trkpt>
			<trkpt lat="-28.160392" lon="152.653439">
				<ele>279</ele>
				<time>2015-05-07T03:56:13Z</time>
				<extensions>
				</extensions>
			</trkpt>
			<trkpt lat="-28.160198" lon="152.653270">
				<ele>279</ele>
				<time>2015-05-07T03:56:14Z</time>
				<extensions>
				</extensions>
			</trkpt>
			<trkpt lat="-28.160008" lon="152.653105">
				<ele>278</ele>
				<time>2015-05-07T03:56:15Z</time>
				<extensions>
				</extensions>
			</trkpt>
			<trkpt lat="-28.159799" lon="152.652949">
				<ele>277</ele>
				<time>2015-05-07T03:56:16Z</time>
				<extensions>
				</extensions>
			</trkpt>
			<trkpt lat="-28.159585" lon="152.652783">
				<ele>277</ele>
				<time>2015-05-07T03:56:17Z</time>
				<extensions>
				</extensions>
			</trkpt>
			<trkpt lat="-28.159365" lon="152.652628">
				<ele>277</ele>
				<time>2015-05-07T03:56:18Z</time>
				<extensions>
				</extensions>
			</trkpt>
			<trkpt lat="-28.159148" lon="152.652473">
				<ele>277</ele>
				<time>2015-05-07T03:56:19Z</time>
				<extensions>
				</extensions>
			</trkpt>
			<trkpt lat="-28.158924" lon="152.652317">
				<ele>278</ele>
				<time>2015-05-07T03:56:20Z</time>
				<extensions>
				</extensions>
			</trkpt>
			<trkpt lat="-28.158703" lon="152.652162">
				<ele>276</ele>
				<time>2015-05-07T03:56:21Z</time>
				<extensions>
				</extensions>
			</trkpt>
			<trkpt lat="-28.158478" lon="152.652011">
				<ele>276</ele>
				<time>2015-05-07T03:56:22Z</time>
				<extensions>
				</extensions>
			</trkpt>
			<trkpt lat="-28.158267" lon="152.651850">
				<ele>277</ele>
				<time>2015-05-07T03:56:23Z</time>
				<extensions>
				</extensions>
			</trkpt>
			<trkpt lat="-28.158049" lon="152.651694">
				<ele>275</ele>
				<time>2015-05-07T03:56:24Z</time>
				<extensions>
				</extensions>
			</trkpt>
			<trkpt lat="-28.157841" lon="152.651546">
				<ele>276</ele>
				<time>2015-05-07T03:56:25Z</time>
				<extensions>
				</extensions>
			</trkpt>
			<trkpt lat="-28.157638" lon="152.651405">
				<ele>276</ele>
				<time>2015-05-07T03:56:26Z</time>
				<extensions>
				</extensions>
			</trkpt>
			<trkpt lat="-28.157431" lon="152.651267">
				<ele>276</ele>
				<time>2015-05-07T03:56:27Z</time>
				<extensions>
				</extensions>
			</trkpt>
			<trkpt lat="-28.157232" lon="152.651115">
				<ele>276</ele>
				<time>2015-05-07T03:56:28Z</time>
				<extensions>
				</extensions>
			</trkpt>
			<trkpt lat="-28.157030" lon="152.650985">
				<ele>277</ele>
				<time>2015-05-07T03:56:29Z</time>
				<extensions>
				</extensions>
			</trkpt>
			<trkpt lat="-28.156826" lon="152.650845">
				<ele>278</ele>
				<time>2015-05-07T03:56:30Z</time>
				<extensions>
				</extensions>
			</trkpt>
			<trkpt lat="-28.156628" lon="152.650703">
				<ele>279</ele>
				<time>2015-05-07T03:56:31Z</time>
				<extensions>
				</extensions>
			</trkpt>
			<trkpt lat="-28.156432" lon="152.650564">
				<ele>278</ele>
				<time>2015-05-07T03:56:32Z</time>
				<extensions>
				</extensions>
			</trkpt>
			<trkpt lat="-28.156245" lon="152.650426">
				<ele>278</ele>
				<time>2015-05-07T03:56:33Z</time>
				<extensions>
				</extensions>
			</trkpt>
			<trkpt lat="-28.156053" lon="152.650279">
				<ele>278</ele>
				<time>2015-05-07T03:56:34Z</time>
				<extensions>
				</extensions>
			</trkpt>
			<trkpt lat="-28.155881" lon="152.650120">
				<ele>278</ele>
				<time>2015-05-07T03:56:35Z</time>
				<extensions>
				</extensions>
			</trkpt>
			<trkpt lat="-28.155700" lon="152.649930">
				<ele>278</ele>
				<time>2015-05-07T03:56:36Z</time>
				<extensions>
				</extensions>
			</trkpt>
			<trkpt lat="-28.155538" lon="152.649746">
				<ele>278</ele>
				<time>2015-05-07T03:56:37Z</time>
				<extensions>
				</extensions>
			</trkpt>
			<trkpt lat="-28.155384" lon="152.649572">
				<ele>275</ele>
				<time>2015-05-07T03:56:38Z</time>
				<extensions>
				</extensions>
			</trkpt>
			<trkpt lat="-28.155253" lon="152.649402">
				<ele>276</ele>
				<time>2015-05-07T03:56:39Z</time>
				<extensions>
				</extensions>
			</trkpt>
			<trkpt lat="-28.155126" lon="152.649210">
				<ele>275</ele>
				<time>2015-05-07T03:56:40Z</time>
				<extensions>
				</extensions>
			</trkpt>
			<trkpt lat="-28.154995" lon="152.649015">
				<ele>274</ele>
				<time>2015-05-07T03:56:41Z</time>
				<extensions>
				</extensions>
			</trkpt>
			<trkpt lat="-28.154865" lon="152.648833">
				<ele>274</ele>
				<time>2015-05-07T03:56:42Z</time>
				<extensions>
				</extensions>
			</trkpt>
			<trkpt lat="-28.154731" lon="152.648650">
				<ele>273</ele>
				<time>2015-05-07T03:56:43Z</time>
				<extensions>
				</extensions>
			</trkpt>
			<trkpt lat="-28.154600" lon="152.648470">
				<ele>273</ele>
				<time>2015-05-07T03:56:44Z</time>
				<extensions>
				</extensions>
			</trkpt>
			<trkpt lat="-28.154464" lon="152.648285">
				<ele>271</ele>
				<time>2015-05-07T03:56:45Z</time>
				<extensions>
				</extensions>
			</trkpt>
			<trkpt lat="-28.154319" lon="152.648099">
				<ele>269</ele>
				<time>2015-05-07T03:56:46Z</time>
				<extensions>
				</extensions>
			</trkpt>
			<trkpt lat="-28.154160" lon="152.647921">
				<ele>269</ele>
				<time>2015-05-07T03:56:47Z</time>
				<extensions>
				</extensions>
			</trkpt>
			<trkpt lat="-28.153993" lon="152.647768">
				<ele>269</ele>
				<time>2015-05-07T03:56:48Z</time>
				<extensions>
				</extensions>
			</trkpt>
			<trkpt lat="-28.153835" lon="152.647623">
				<ele>267</ele>
				<time>2015-05-07T03:56:49Z</time>
				<extensions>
				</extensions>
			</trkpt>
			<trkpt lat="-28.153656" lon="152.647504">
				<ele>265</ele>
				<time>2015-05-07T03:56:50Z</time>
				<extensions>
				</extensions>
			</trkpt>
			<trkpt lat="-28.153463" lon="152.647371">
				<ele>263</ele>
				<time>2015-05-07T03:56:51Z</time>
				<extensions>
				</extensions>
			</trkpt>
			<trkpt lat="-28.153268" lon="152.647246">
				<ele>263</ele>
				<time>2015-05-07T03:56:52Z</time>
				<extensions>
				</extensions>
			</trkpt>
			<trkpt lat="-28.153059" lon="152.647129">
				<ele>262</ele>
				<time>2015-05-07T03:56:53Z</time>
				<extensions>
				</extensions>
			</trkpt>
			<trkpt lat="-28.152849" lon="152.647015">
				<ele>259</ele>
				<time>2015-05-07T03:56:54Z</time>
				<extensions>
				</extensions>
			</trkpt>
			<trkpt lat="-28.152645" lon="152.646923">
				<ele>258</ele>
				<time>2015-05-07T03:56:55Z</time>
				<extensions>
				</extensions>
			</trkpt>
			<trkpt lat="-28.152439" lon="152.646828">
				<ele>256</ele>
				<time>2015-05-07T03:56:56Z</time>
				<extensions>
				</extensions>
			</trkpt>
			<trkpt lat="-28.152240" lon="152.646758">
				<ele>254</ele>
				<time>2015-05-07T03:56:57Z</time>
				<extensions>
				</extensions>
			</trkpt>
			<trkpt lat="-28.152046" lon="152.646639">
				<ele>254</ele>
				<time>2015-05-07T03:56:58Z</time>
				<extensions>
				</extensions>
			</trkpt>
			<trkpt lat="-28.151841" lon="152.646519">
				<ele>253</ele>
				<time>2015-05-07T03:56:59Z</time>
				<extensions>
				</extensions>
			</trkpt>
			<trkpt lat="-28.151635" lon="152.646398">
				<ele>251</ele>
				<time>2015-05-07T03:57:00Z</time>
				<extensions>
				</extensions>
			</trkpt>
			<trkpt lat="-28.151443" lon="152.646276">
				<ele>249</ele>
				<time>2015-05-07T03:57:01Z</time>
				<extensions>
				</extensions>
			</trkpt>
			<trkpt lat="-28.151268" lon="152.646146">
				<ele>246</ele>
				<time>2015-05-07T03:57:02Z</time>
				<extensions>
				</extensions>
			</trkpt>
			<trkpt lat="-28.151098" lon="152.646006">
				<ele>244</ele>
				<time>2015-05-07T03:57:03Z</time>
				<extensions>
				</extensions>
			</trkpt>
			<trkpt lat="-28.150932" lon="152.645841">
				<ele>242</ele>
				<time>2015-05-07T03:57:04Z</time>
				<extensions>
				</extensions>
			</trkpt>
			<trkpt lat="-28.150778" lon="152.645671">
				<ele>240</ele>
				<time>2015-05-07T03:57:05Z</time>
				<extensions>
				</extensions>
			</trkpt>
			<trkpt lat="-28.150622" lon="152.645492">
				<ele>238</ele>
				<time>2015-05-07T03:57:06Z</time>
				<extensions>
				</extensions>
			</trkpt>
			<trkpt lat="-28.150462" lon="152.645322">
				<ele>239</ele>
				<time>2015-05-07T03:57:07Z</time>
				<extensions>
				</extensions>
			</trkpt>
			<trkpt lat="-28.150314" lon="152.645124">
				<ele>236</ele>
				<time>2015-05-07T03:57:08Z</time>
				<extensions>
				</extensions>
			</trkpt>
			<trkpt lat="-28.150166" lon="152.644955">
				<ele>234</ele>
				<time>2015-05-07T03:57:09Z</time>
				<extensions>
				</extensions>
			</trkpt>
			<trkpt lat="-28.150021" lon="152.644801">
				<ele>232</ele>
				<time>2015-05-07T03:57:10Z</time>
				<extensions>
				</extensions>
			</trkpt>
			<trkpt lat="-28.149871" lon="152.644648">
				<ele>231</ele>
				<time>2015-05-07T03:57:11Z</time>
				<extensions>
				</extensions>
			</trkpt>
			<trkpt lat="-28.149709" lon="152.644500">
				<ele>230</ele>
				<time>2015-05-07T03:57:12Z</time>
				<extensions>
				</extensions>
			</trkpt>
			<trkpt lat="-28.149538" lon="152.644362">
				<ele>230</ele>
				<time>2015-05-07T03:57:13Z</time>
				<extensions>
				</extensions>
			</trkpt>
			<trkpt lat="-28.149376" lon="152.644230">
				<ele>227</ele>
				<time>2015-05-07T03:57:14Z</time>
				<extensions>
				</extensions>
			</trkpt>
			<trkpt lat="-28.149201" lon="152.644078">
				<ele>226</ele>
				<time>2015-05-07T03:57:15Z</time>
				<extensions>
				</extensions>
			</trkpt>
			<trkpt lat="-28.149041" lon="152.643963">
				<ele>224</ele>
				<time>2015-05-07T03:57:16Z</time>
				<extensions>
				</extensions>
			</trkpt>
			<trkpt lat="-28.148872" lon="152.643832">
				<ele>223</ele>
				<time>2015-05-07T03:57:17Z</time>
				<extensions>
				</extensions>
			</trkpt>
			<trkpt lat="-28.148696" lon="152.643711">
				<ele>221</ele>
				<time>2015-05-07T03:57:18Z</time>
				<extensions>
				</extensions>
			</trkpt>
			<trkpt lat="-28.148517" lon="152.643573">
				<ele>219</ele>
				<time>2015-05-07T03:57:19Z</time>
				<extensions>
				</extensions>
			</trkpt>
			<trkpt lat="-28.148333" lon="152.643424">
				<ele>219</ele>
				<time>2015-05-07T03:57:20Z</time>
				<extensions>
				</extensions>
			</trkpt>
			<trkpt lat="-28.148151" lon="152.643275">
				<ele>219</ele>
				<time>2015-05-07T03:57:21Z</time>
				<extensions>
				</extensions>
			</trkpt>
			<trkpt lat="-28.147972" lon="152.643142">
				<ele>217</ele>
				<time>2015-05-07T03:57:22Z</time>
				<extensions>
				</extensions>
			</trkpt>
			<trkpt lat="-28.147773" lon="152.643028">
				<ele>215</ele>
				<time>2015-05-07T03:57:23Z</time>
				<extensions>
				</extensions>
			</trkpt>
			<trkpt lat="-28.147594" lon="152.642892">
				<ele>212</ele>
				<time>2015-05-07T03:57:24Z</time>
				<extensions>
				</extensions>
			</trkpt>
			<trkpt lat="-28.147419" lon="152.642756">
				<ele>211</ele>
				<time>2015-05-07T03:57:25Z</time>
				<extensions>
				</extensions>
			</trkpt>
			<trkpt lat="-28.147246" lon="152.642631">
				<ele>208</ele>
				<time>2015-05-07T03:57:26Z</time>
				<extensions>
				</extensions>
			</trkpt>
			<trkpt lat="-28.147073" lon="152.642502">
				<ele>205</ele>
				<time>2015-05-07T03:57:27Z</time>
				<extensions>
				</extensions>
			</trkpt>
			<trkpt lat="-28.146899" lon="152.642369">
				<ele>203</ele>
				<time>2015-05-07T03:57:28Z</time>
				<extensions>
				</extensions>
			</trkpt>
			<trkpt lat="-28.146717" lon="152.642237">
				<ele>203</ele>
				<time>2015-05-07T03:57:29Z</time>
				<extensions>
				</extensions>
			</trkpt>
			<trkpt lat="-28.146532" lon="152.642093">
				<ele>202</ele>
				<time>2015-05-07T03:57:30Z</time>
				<extensions>
				</extensions>
			</trkpt>
			<trkpt lat="-28.146328" lon="152.641943">
				<ele>204</ele>
				<time>2015-05-07T03:57:31Z</time>
				<extensions>
				</extensions>
			</trkpt>
			<trkpt lat="-28.146132" lon="152.641784">
				<ele>205</ele>
				<time>2015-05-07T03:57:32Z</time>
				<extensions>
				</extensions>
			</trkpt>
			<trkpt lat="-28.145934" lon="152.641622">
				<ele>205</ele>
				<time>2015-05-07T03:57:33Z</time>
				<extensions>
				</extensions>
			</trkpt>
			<trkpt lat="-28.145742" lon="152.641474">
				<ele>203</ele>
				<time>2015-05-07T03:57:34Z</time>
				<extensions>
				</extensions>
			</trkpt>
			<trkpt lat="-28.145545" lon="152.641326">
				<ele>202</ele>
				<time>2015-05-07T03:57:35Z</time>
				<extensions>
				</extensions>
			</trkpt>
			<trkpt lat="-28.145353" lon="152.641183">
				<ele>202</ele>
				<time>2015-05-07T03:57:36Z</time>
				<extensions>
				</extensions>
			</trkpt>
			<trkpt lat="-28.145152" lon="152.641057">
				<ele>202</ele>
				<time>2015-05-07T03:57:37Z</time>
				<extensions>
				</extensions>
			</trkpt>
			<trkpt lat="-28.144953" lon="152.640943">
				<ele>203</ele>
				<time>2015-05-07T03:57:38Z</time>
				<extensions>
				</extensions>
			</trkpt>
			<trkpt lat="-28.144750" lon="152.640828">
				<ele>206</ele>
				<time>2015-05-07T03:57:39Z</time>
				<extensions>
				</extensions>
			</trkpt>
			<trkpt lat="-28.144536" lon="152.640720">
				<ele>205</ele>
				<time>2015-05-07T03:57:40Z</time>
				<extensions>
				</extensions>
			</trkpt>
			<trkpt lat="-28.144317" lon="152.640616">
				<ele>208</ele>
				<time>2015-05-07T03:57:41Z</time>
				<extensions>
				</extensions>
			</trkpt>
			<trkpt lat="-28.144099" lon="152.640510">
				<ele>207</ele>
				<time>2015-05-07T03:57:42Z</time>
				<extensions>
				</extensions>
			</trkpt>
			<trkpt lat="-28.143873" lon="152.640430">
				<ele>207</ele>
				<time>2015-05-07T03:57:43Z</time>
				<extensions>
				</extensions>
			</trkpt>
			<trkpt lat="-28.143652" lon="152.640364">
				<ele>207</ele>
				<time>2015-05-07T03:57:44Z</time>
				<extensions>
				</extensions>
			</trkpt>
			<trkpt lat="-28.143437" lon="152.640287">
				<ele>205</ele>
				<time>2015-05-07T03:57:45Z</time>
				<extensions>
				</extensions>
			</trkpt>
			<trkpt lat="-28.143232" lon="152.640226">
				<ele>204</ele>
				<time>2015-05-07T03:57:46Z</time>
				<extensions>
				</extensions>
			</trkpt>
			<trkpt lat="-28.143021" lon="152.640138">
				<ele>204</ele>
				<time>2015-05-07T03:57:47Z</time>
				<extensions>
				</extensions>
			</trkpt>
			<trkpt lat="-28.142829" lon="152.640078">
				<ele>204</ele>
				<time>2015-05-07T03:57:48Z</time>
				<extensions>
				</extensions>
			</trkpt>
			<trkpt lat="-28.142626" lon="152.640009">
				<ele>203</ele>
				<time>2015-05-07T03:57:49Z</time>
				<extensions>
				</extensions>
			</trkpt>
			<trkpt lat="-28.142425" lon="152.639938">
				<ele>202</ele>
				<time>2015-05-07T03:57:50Z</time>
				<extensions>
				</extensions>
			</trkpt>
			<trkpt lat="-28.142231" lon="152.639877">
				<ele>202</ele>
				<time>2015-05-07T03:57:51Z</time>
				<extensions>
				</extensions>
			</trkpt>
			<trkpt lat="-28.142031" lon="152.639810">
				<ele>202</ele>
				<time>2015-05-07T03:57:52Z</time>
				<extensions>
				</extensions>
			</trkpt>
			<trkpt lat="-28.141824" lon="152.639748">
				<ele>200</ele>
				<time>2015-05-07T03:57:53Z</time>
				<extensions>
				</extensions>
			</trkpt>
			<trkpt lat="-28.141633" lon="152.639690">
				<ele>200</ele>
				<time>2015-05-07T03:57:54Z</time>
				<extensions>
				</extensions>
			</trkpt>
			<trkpt lat="-28.141433" lon="152.639625">
				<ele>198</ele>
				<time>2015-05-07T03:57:55Z</time>
				<extensions>
				</extensions>
			</trkpt>
			<trkpt lat="-28.141231" lon="152.639571">
				<ele>198</ele>
				<time>2015-05-07T03:57:56Z</time>
				<extensions>
				</extensions>
			</trkpt>
			<trkpt lat="-28.141046" lon="152.639533">
				<ele>197</ele>
				<time>2015-05-07T03:57:57Z</time>
				<extensions>
				</extensions>
			</trkpt>
			<trkpt lat="-28.140848" lon="152.639496">
				<ele>195</ele>
				<time>2015-05-07T03:57:58Z</time>
				<extensions>
				</extensions>
			</trkpt>
			<trkpt lat="-28.140645" lon="152.639470">
				<ele>194</ele>
				<time>2015-05-07T03:57:59Z</time>
				<extensions>
				</extensions>
			</trkpt>
			<trkpt lat="-28.140456" lon="152.639462">
				<ele>192</ele>
				<time>2015-05-07T03:58:00Z</time>
				<extensions>
				</extensions>
			</trkpt>
			<trkpt lat="-28.140248" lon="152.639468">
				<ele>193</ele>
				<time>2015-05-07T03:58:01Z</time>
				<extensions>
				</extensions>
			</trkpt>
			<trkpt lat="-28.140024" lon="152.639444">
				<ele>190</ele>
				<time>2015-05-07T03:58:02Z</time>
				<extensions>
				</extensions>
			</trkpt>
			<trkpt lat="-28.139803" lon="152.639440">
				<ele>191</ele>
				<time>2015-05-07T03:58:03Z</time>
				<extensions>
				</extensions>
			</trkpt>
			<trkpt lat="-28.139585" lon="152.639427">
				<ele>189</ele>
				<time>2015-05-07T03:58:04Z</time>
				<extensions>
				</extensions>
			</trkpt>
			<trkpt lat="-28.139369" lon="152.639405">
				<ele>186</ele>
				<time>2015-05-07T03:58:05Z</time>
				<extensions>
				</extensions>
			</trkpt>
			<trkpt lat="-28.139146" lon="152.639387">
				<ele>185</ele>
				<time>2015-05-07T03:58:06Z</time>
				<extensions>
				</extensions>
			</trkpt>
			<trkpt lat="-28.138930" lon="152.639376">
				<ele>184</ele>
				<time>2015-05-07T03:58:07Z</time>
				<extensions>
				</extensions>
			</trkpt>
			<trkpt lat="-28.138700" lon="152.639361">
				<ele>184</ele>
				<time>2015-05-07T03:58:08Z</time>
				<extensions>
				</extensions>
			</trkpt>
			<trkpt lat="-28.138477" lon="152.639346">
				<ele>184</ele>
				<time>2015-05-07T03:58:09Z</time>
				<extensions>
				</extensions>
			</trkpt>
			<trkpt lat="-28.138257" lon="152.639329">
				<ele>184</ele>
				<time>2015-05-07T03:58:10Z</time>
				<extensions>
				</extensions>
			</trkpt>
			<trkpt lat="-28.138034" lon="152.639302">
				<ele>184</ele>
				<time>2015-05-07T03:58:11Z</time>
				<extensions>
				</extensions>
			</trkpt>
			<trkpt lat="-28.137811" lon="152.639266">
				<ele>182</ele>
				<time>2015-05-07T03:58:12Z</time>
				<extensions>
				</extensions>
			</trkpt>
			<trkpt lat="-28.137597" lon="152.639229">
				<ele>180</ele>
				<time>2015-05-07T03:58:13Z</time>
				<extensions>
				</extensions>
			</trkpt>
			<trkpt lat="-28.137381" lon="152.639197">
				<ele>179</ele>
				<time>2015-05-07T03:58:14Z</time>
				<extensions>
				</extensions>
			</trkpt>
			<trkpt lat="-28.137160" lon="152.639160">
				<ele>180</ele>
				<time>2015-05-07T03:58:15Z</time>
				<extensions>
				</extensions>
			</trkpt>
			<trkpt lat="-28.136944" lon="152.639126">
				<ele>179</ele>
				<time>2015-05-07T03:58:16Z</time>
				<extensions>
				</extensions>
			</trkpt>
			<trkpt lat="-28.136726" lon="152.639095">
				<ele>177</ele>
				<time>2015-05-07T03:58:17Z</time>
				<extensions>
				</extensions>
			</trkpt>
			<trkpt lat="-28.136505" lon="152.639058">
				<ele>177</ele>
				<time>2015-05-07T03:58:18Z</time>
				<extensions>
				</extensions>
			</trkpt>
			<trkpt lat="-28.136291" lon="152.639032">
				<ele>176</ele>
				<time>2015-05-07T03:58:19Z</time>
				<extensions>
				</extensions>
			</trkpt>
			<trkpt lat="-28.136059" lon="152.638993">
				<ele>174</ele>
				<time>2015-05-07T03:58:20Z</time>
				<extensions>
				</extensions>
			</trkpt>
			<trkpt lat="-28.135837" lon="152.638958">
				<ele>174</ele>
				<time>2015-05-07T03:58:21Z</time>
				<extensions>
				</extensions>
			</trkpt>
			<trkpt lat="-28.135609" lon="152.638924">
				<ele>173</ele>
				<time>2015-05-07T03:58:22Z</time>
				<extensions>
				</extensions>
			</trkpt>
			<trkpt lat="-28.135389" lon="152.638893">
				<ele>173</ele>
				<time>2015-05-07T03:58:23Z</time>
				<extensions>
				</extensions>
			</trkpt>
			<trkpt lat="-28.135157" lon="152.638855">
				<ele>172</ele>
				<time>2015-05-07T03:58:24Z</time>
				<extensions>
				</extensions>
			</trkpt>
			<trkpt lat="-28.134925" lon="152.638825">
				<ele>172</ele>
				<time>2015-05-07T03:58:25Z</time>
				<extensions>
				</extensions>
			</trkpt>
			<trkpt lat="-28.134699" lon="152.638794">
				<ele>171</ele>
				<time>2015-05-07T03:58:26Z</time>
				<extensions>
				</extensions>
			</trkpt>
			<trkpt lat="-28.134474" lon="152.638756">
				<ele>171</ele>
				<time>2015-05-07T03:58:27Z</time>
				<extensions>
				</extensions>
			</trkpt>
			<trkpt lat="-28.134253" lon="152.638710">
				<ele>171</ele>
				<time>2015-05-07T03:58:28Z</time>
				<extensions>
				</extensions>
			</trkpt>
			<trkpt lat="-28.134030" lon="152.638673">
				<ele>173</ele>
				<time>2015-05-07T03:58:29Z</time>
				<extensions>
				</extensions>
			</trkpt>
			<trkpt lat="-28.133795" lon="152.638600">
				<ele>173</ele>
				<time>2015-05-07T03:58:30Z</time>
				<extensions>
				</extensions>
			</trkpt>
			<trkpt lat="-28.133588" lon="152.638533">
				<ele>171</ele>
				<time>2015-05-07T03:58:31Z</time>
				<extensions>
				</extensions>
			</trkpt>
			<trkpt lat="-28.133384" lon="152.638443">
				<ele>171</ele>
				<time>2015-05-07T03:58:32Z</time>
				<extensions>
				</extensions>
			</trkpt>
			<trkpt lat="-28.133188" lon="152.638345">
				<ele>168</ele>
				<time>2015-05-07T03:58:33Z</time>
				<extensions>
				</extensions>
			</trkpt>
			<trkpt lat="-28.132999" lon="152.638260">
				<ele>167</ele>
				<time>2015-05-07T03:58:34Z</time>
				<extensions>
				</extensions>
			</trkpt>
			<trkpt lat="-28.132810" lon="152.638163">
				<ele>168</ele>
				<time>2015-05-07T03:58:35Z</time>
				<extensions>
				</extensions>
			</trkpt>
			<trkpt lat="-28.132616" lon="152.638066">
				<ele>168</ele>
				<time>2015-05-07T03:58:36Z</time>
				<extensions>
				</extensions>
			</trkpt>
			<trkpt lat="-28.132424" lon="152.637960">
				<ele>168</ele>
				<time>2015-05-07T03:58:37Z</time>
				<extensions>
				</extensions>
			</trkpt>
			<trkpt lat="-28.132236" lon="152.637854">
				<ele>167</ele>
				<time>2015-05-07T03:58:38Z</time>
				<extensions>
				</extensions>
			</trkpt>
			<trkpt lat="-28.132063" lon="152.637741">
				<ele>165</ele>
				<time>2015-05-07T03:58:39Z</time>
				<extensions>
				</extensions>
			</trkpt>
			<trkpt lat="-28.131901" lon="152.637619">
				<ele>165</ele>
				<time>2015-05-07T03:58:40Z</time>
				<extensions>
				</extensions>
			</trkpt>
			<trkpt lat="-28.131724" lon="152.637499">
				<ele>166</ele>
				<time>2015-05-07T03:58:41Z</time>
				<extensions>
				</extensions>
			</trkpt>
			<trkpt lat="-28.131559" lon="152.637375">
				<ele>166</ele>
				<time>2015-05-07T03:58:42Z</time>
				<extensions>
				</extensions>
			</trkpt>
			<trkpt lat="-28.131400" lon="152.637243">
				<ele>166</ele>
				<time>2015-05-07T03:58:43Z</time>
				<extensions>
				</extensions>
			</trkpt>
			<trkpt lat="-28.131232" lon="152.637089">
				<ele>167</ele>
				<time>2015-05-07T03:58:44Z</time>
				<extensions>
				</extensions>
			</trkpt>
			<trkpt lat="-28.131069" lon="152.636949">
				<ele>165</ele>
				<time>2015-05-07T03:58:45Z</time>
				<extensions>
				</extensions>
			</trkpt>
			<trkpt lat="-28.130908" lon="152.636821">
				<ele>165</ele>
				<time>2015-05-07T03:58:46Z</time>
				<extensions>
				</extensions>
			</trkpt>
			<trkpt lat="-28.130739" lon="152.636695">
				<ele>164</ele>
				<time>2015-05-07T03:58:47Z</time>
				<extensions>
				</extensions>
			</trkpt>
			<trkpt lat="-28.130556" lon="152.636572">
				<ele>164</ele>
				<time>2015-05-07T03:58:48Z</time>
				<extensions>
				</extensions>
			</trkpt>
			<trkpt lat="-28.130386" lon="152.636442">
				<ele>164</ele>
				<time>2015-05-07T03:58:49Z</time>
				<extensions>
				</extensions>
			</trkpt>
			<trkpt lat="-28.130221" lon="152.636344">
				<ele>165</ele>
				<time>2015-05-07T03:58:50Z</time>
				<extensions>
				</extensions>
			</trkpt>
			<trkpt lat="-28.130028" lon="152.636255">
				<ele>164</ele>
				<time>2015-05-07T03:58:51Z</time>
				<extensions>
				</extensions>
			</trkpt>
			<trkpt lat="-28.129830" lon="152.636165">
				<ele>166</ele>
				<time>2015-05-07T03:58:52Z</time>
				<extensions>
				</extensions>
			</trkpt>
			<trkpt lat="-28.129636" lon="152.636081">
				<ele>165</ele>
				<time>2015-05-07T03:58:53Z</time>
				<extensions>
				</extensions>
			</trkpt>
			<trkpt lat="-28.129436" lon="152.636006">
				<ele>165</ele>
				<time>2015-05-07T03:58:54Z</time>
				<extensions>
				</extensions>
			</trkpt>
			<trkpt lat="-28.129234" lon="152.635949">
				<ele>165</ele>
				<time>2015-05-07T03:58:55Z</time>
				<extensions>
				</extensions>
			</trkpt>
			<trkpt lat="-28.129029" lon="152.635898">
				<ele>163</ele>
				<time>2015-05-07T03:58:56Z</time>
				<extensions>
				</extensions>
			</trkpt>
			<trkpt lat="-28.128820" lon="152.635857">
				<ele>165</ele>
				<time>2015-05-07T03:58:57Z</time>
				<extensions>
				</extensions>
			</trkpt>
			<trkpt lat="-28.128596" lon="152.635846">
				<ele>165</ele>
				<time>2015-05-07T03:58:58Z</time>
				<extensions>
				</extensions>
			</trkpt>
			<trkpt lat="-28.128382" lon="152.635847">
				<ele>164</ele>
				<time>2015-05-07T03:58:59Z</time>
				<extensions>
				</extensions>
			</trkpt>
			<trkpt lat="-28.128161" lon="152.635857">
				<ele>164</ele>
				<time>2015-05-07T03:59:00Z</time>
				<extensions>
				</extensions>
			</trkpt>
			<trkpt lat="-28.127941" lon="152.635874">
				<ele>164</ele>
				<time>2015-05-07T03:59:01Z</time>
				<extensions>
				</extensions>
			</trkpt>
			<trkpt lat="-28.127712" lon="152.635905">
				<ele>165</ele>
				<time>2015-05-07T03:59:02Z</time>
				<extensions>
				</extensions>
			</trkpt>
			<trkpt lat="-28.127494" lon="152.635949">
				<ele>164</ele>
				<time>2015-05-07T03:59:03Z</time>
				<extensions>
				</extensions>
			</trkpt>
			<trkpt lat="-28.127272" lon="152.635990">
				<ele>164</ele>
				<time>2015-05-07T03:59:04Z</time>
				<extensions>
				</extensions>
			</trkpt>
			<trkpt lat="-28.127045" lon="152.636038">
				<ele>163</ele>
				<time>2015-05-07T03:59:05Z</time>
				<extensions>
				</extensions>
			</trkpt>
			<trkpt lat="-28.126821" lon="152.636088">
				<ele>164</ele>
				<time>2015-05-07T03:59:06Z</time>
				<extensions>
				</extensions>
			</trkpt>
			<trkpt lat="-28.126590" lon="152.636145">
				<ele>164</ele>
				<time>2015-05-07T03:59:07Z</time>
				<extensions>
				</extensions>
			</trkpt>
			<trkpt lat="-28.126362" lon="152.636197">
				<ele>164</ele>
				<time>2015-05-07T03:59:08Z</time>
				<extensions>
				</extensions>
			</trkpt>
			<trkpt lat="-28.126127" lon="152.636248">
				<ele>165</ele>
				<time>2015-05-07T03:59:09Z</time>
				<extensions>
				</extensions>
			</trkpt>
			<trkpt lat="-28.125893" lon="152.636297">
				<ele>164</ele>
				<time>2015-05-07T03:59:10Z</time>
				<extensions>
				</extensions>
			</trkpt>
			<trkpt lat="-28.125661" lon="152.636345">
				<ele>164</ele>
				<time>2015-05-07T03:59:11Z</time>
				<extensions>
				</extensions>
			</trkpt>
			<trkpt lat="-28.125426" lon="152.636396">
				<ele>163</ele>
				<time>2015-05-07T03:59:12Z</time>
				<extensions>
				</extensions>
			</trkpt>
			<trkpt lat="-28.125193" lon="152.636439">
				<ele>163</ele>
				<time>2015-05-07T03:59:13Z</time>
				<extensions>
				</extensions>
			</trkpt>
			<trkpt lat="-28.124971" lon="152.636486">
				<ele>163</ele>
				<time>2015-05-07T03:59:14Z</time>
				<extensions>
				</extensions>
			</trkpt>
			<trkpt lat="-28.124751" lon="152.636540">
				<ele>162</ele>
				<time>2015-05-07T03:59:15Z</time>
				<extensions>
				</extensions>
			</trkpt>
			<trkpt lat="-28.124519" lon="152.636580">
				<ele>163</ele>
				<time>2015-05-07T03:59:16Z</time>
				<extensions>
				</extensions>
			</trkpt>
			<trkpt lat="-28.124291" lon="152.636622">
				<ele>163</ele>
				<time>2015-05-07T03:59:17Z</time>
				<extensions>
				</extensions>
			</trkpt>
			<trkpt lat="-28.124065" lon="152.636670">
				<ele>161</ele>
				<time>2015-05-07T03:59:18Z</time>
				<extensions>
				</extensions>
			</trkpt>
			<trkpt lat="-28.123848" lon="152.636714">
				<ele>161</ele>
				<time>2015-05-07T03:59:19Z</time>
				<extensions>
				</extensions>
			</trkpt>
			<trkpt lat="-28.123623" lon="152.636760">
				<ele>161</ele>
				<time>2015-05-07T03:59:20Z</time>
				<extensions>
				</extensions>
			</trkpt>
			<trkpt lat="-28.123405" lon="152.636797">
				<ele>162</ele>
				<time>2015-05-07T03:59:21Z</time>
				<extensions>
				</extensions>
			</trkpt>
			<trkpt lat="-28.123198" lon="152.636846">
				<ele>160</ele>
				<time>2015-05-07T03:59:22Z</time>
				<extensions>
				</extensions>
			</trkpt>
			<trkpt lat="-28.122988" lon="152.636885">
				<ele>160</ele>
				<time>2015-05-07T03:59:23Z</time>
				<extensions>
				</extensions>
			</trkpt>
			<trkpt lat="-28.122772" lon="152.636929">
				<ele>160</ele>
				<time>2015-05-07T03:59:24Z</time>
				<extensions>
				</extensions>
			</trkpt>
			<trkpt lat="-28.122558" lon="152.636973">
				<ele>159</ele>
				<time>2015-05-07T03:59:25Z</time>
				<extensions>
				</extensions>
			</trkpt>
			<trkpt lat="-28.122339" lon="152.637020">
				<ele>160</ele>
				<time>2015-05-07T03:59:26Z</time>
				<extensions>
				</extensions>
			</trkpt>
			<trkpt lat="-28.122116" lon="152.637068">
				<ele>159</ele>
				<time>2015-05-07T03:59:27Z</time>
				<extensions>
				</extensions>
			</trkpt>
			<trkpt lat="-28.121900" lon="152.637123">
				<ele>160</ele>
				<time>2015-05-07T03:59:28Z</time>
				<extensions>
				</extensions>
			</trkpt>
			<trkpt lat="-28.121680" lon="152.637178">
				<ele>160</ele>
				<time>2015-05-07T03:59:29Z</time>
				<extensions>
				</extensions>
			</trkpt>
			<trkpt lat="-28.121460" lon="152.637241">
				<ele>160</ele>
				<time>2015-05-07T03:59:30Z</time>
				<extensions>
				</extensions>
			</trkpt>
			<trkpt lat="-28.121244" lon="152.637306">
				<ele>159</ele>
				<time>2015-05-07T03:59:31Z</time>
				<extensions>
				</extensions>
			</trkpt>
			<trkpt lat="-28.121033" lon="152.637372">
				<ele>158</ele>
				<time>2015-05-07T03:59:32Z</time>
				<extensions>
				</extensions>
			</trkpt>
			<trkpt lat="-28.120821" lon="152.637438">
				<ele>157</ele>
				<time>2015-05-07T03:59:33Z</time>
				<extensions>
				</extensions>
			</trkpt>
			<trkpt lat="-28.120614" lon="152.637500">
				<ele>157</ele>
				<time>2015-05-07T03:59:34Z</time>
				<extensions>
				</extensions>
			</trkpt>
			<trkpt lat="-28.120404" lon="152.637590">
				<ele>158</ele>
				<time>2015-05-07T03:59:35Z</time>
				<extensions>
				</extensions>
			</trkpt>
			<trkpt lat="-28.120189" lon="152.637669">
				<ele>158</ele>
				<time>2015-05-07T03:59:36Z</time>
				<extensions>
				</extensions>
			</trkpt>
			<trkpt lat="-28.119975" lon="152.637747">
				<ele>156</ele>
				<time>2015-05-07T03:59:37Z</time>
				<extensions>
				</extensions>
			</trkpt>
			<trkpt lat="-28.119757" lon="152.637839">
				<ele>156</ele>
				<time>2015-05-07T03:59:38Z</time>
				<extensions>
				</extensions>
			</trkpt>
			<trkpt lat="-28.119548" lon="152.637927">
				<ele>155</ele>
				<time>2015-05-07T03:59:39Z</time>
				<extensions>
				</extensions>
			</trkpt>
			<trkpt lat="-28.119350" lon="152.638006">
				<ele>153</ele>
				<time>2015-05-07T03:59:40Z</time>
				<extensions>
				</extensions>
			</trkpt>
			<trkpt lat="-28.119127" lon="152.638097">
				<ele>154</ele>
				<time>2015-05-07T03:59:41Z</time>
				<extensions>
				</extensions>
			</trkpt>
			<trkpt lat="-28.118915" lon="152.638195">
				<ele>153</ele>
				<time>2015-05-07T03:59:42Z</time>
				<extensions>
				</extensions>
			</trkpt>
			<trkpt lat="-28.118721" lon="152.638287">
				<ele>153</ele>
				<time>2015-05-07T03:59:43Z</time>
				<extensions>
				</extensions>
			</trkpt>
			<trkpt lat="-28.118498" lon="152.638394">
				<ele>154</ele>
				<time>2015-05-07T03:59:44Z</time>
				<extensions>
				</extensions>
			</trkpt>
			<trkpt lat="-28.118291" lon="152.638486">
				<ele>155</ele>
				<time>2015-05-07T03:59:45Z</time>
				<extensions>
				</extensions>
			</trkpt>
			<trkpt lat="-28.118083" lon="152.638575">
				<ele>153</ele>
				<time>2015-05-07T03:59:46Z</time>
				<extensions>
				</extensions>
			</trkpt>
			<trkpt lat="-28.117869" lon="152.638646">
				<ele>153</ele>
				<time>2015-05-07T03:59:47Z</time>
				<extensions>
				</extensions>
			</trkpt>
			<trkpt lat="-28.117653" lon="152.638720">
				<ele>154</ele>
				<time>2015-05-07T03:59:48Z</time>
				<extensions>
				</extensions>
			</trkpt>
			<trkpt lat="-28.117430" lon="152.638786">
				<ele>154</ele>
				<time>2015-05-07T03:59:49Z</time>
				<extensions>
				</extensions>
			</trkpt>
			<trkpt lat="-28.117212" lon="152.638831">
				<ele>154</ele>
				<time>2015-05-07T03:59:50Z</time>
				<extensions>
				</extensions>
			</trkpt>
			<trkpt lat="-28.116977" lon="152.638886">
				<ele>155</ele>
				<time>2015-05-07T03:59:51Z</time>
				<extensions>
				</extensions>
			</trkpt>
			<trkpt lat="-28.116750" lon="152.638937">
				<ele>155</ele>
				<time>2015-05-07T03:59:52Z</time>
				<extensions>
				</extensions>
			</trkpt>
			<trkpt lat="-28.116529" lon="152.638990">
				<ele>153</ele>
				<time>2015-05-07T03:59:53Z</time>
				<extensions>
				</extensions>
			</trkpt>
			<trkpt lat="-28.116315" lon="152.639025">
				<ele>154</ele>
				<time>2015-05-07T03:59:54Z</time>
				<extensions>
				</extensions>
			</trkpt>
			<trkpt lat="-28.116105" lon="152.639053">
				<ele>154</ele>
				<time>2015-05-07T03:59:55Z</time>
				<extensions>
				</extensions>
			</trkpt>
			<trkpt lat="-28.115888" lon="152.639097">
				<ele>153</ele>
				<time>2015-05-07T03:59:56Z</time>
				<extensions>
				</extensions>
			</trkpt>
			<trkpt lat="-28.115670" lon="152.639132">
				<ele>154</ele>
				<time>2015-05-07T03:59:57Z</time>
				<extensions>
				</extensions>
			</trkpt>
			<trkpt lat="-28.115438" lon="152.639175">
				<ele>155</ele>
				<time>2015-05-07T03:59:58Z</time>
				<extensions>
				</extensions>
			</trkpt>
			<trkpt lat="-28.115201" lon="152.639207">
				<ele>153</ele>
				<time>2015-05-07T03:59:59Z</time>
				<extensions>
				</extensions>
			</trkpt>
			<trkpt lat="-28.114968" lon="152.639230">
				<ele>153</ele>
				<time>2015-05-07T04:00:00Z</time>
				<extensions>
				</extensions>
			</trkpt>
			<trkpt lat="-28.114738" lon="152.639255">
				<ele>153</ele>
				<time>2015-05-07T04:00:01Z</time>
				<extensions>
				</extensions>
			</trkpt>
			<trkpt lat="-28.114501" lon="152.639270">
				<ele>154</ele>
				<time>2015-05-07T04:00:02Z</time>
				<extensions>
				</extensions>
			</trkpt>
			<trkpt lat="-28.114268" lon="152.639282">
				<ele>154</ele>
				<time>2015-05-07T04:00:03Z</time>
				<extensions>
				</extensions>
			</trkpt>
			<trkpt lat="-28.114034" lon="152.639293">
				<ele>155</ele>
				<time>2015-05-07T04:00:04Z</time>
				<extensions>
				</extensions>
			</trkpt>
			<trkpt lat="-28.113798" lon="152.639298">
				<ele>154</ele>
				<time>2015-05-07T04:00:05Z</time>
				<extensions>
				</extensions>
			</trkpt>
			<trkpt lat="-28.113562" lon="152.639304">
				<ele>153</ele>
				<time>2015-05-07T04:00:06Z</time>
				<extensions>
				</extensions>
			</trkpt>
			<trkpt lat="-28.113331" lon="152.639305">
				<ele>153</ele>
				<time>2015-05-07T04:00:07Z</time>
				<extensions>
				</extensions>
			</trkpt>
			<trkpt lat="-28.113104" lon="152.639299">
				<ele>154</ele>
				<time>2015-05-07T04:00:08Z</time>
				<extensions>
				</extensions>
			</trkpt>
			<trkpt lat="-28.112880" lon="152.639297">
				<ele>154</ele>
				<time>2015-05-07T04:00:09Z</time>
				<extensions>
				</extensions>
			</trkpt>
			<trkpt lat="-28.112653" lon="152.639285">
				<ele>154</ele>
				<time>2015-05-07T04:00:10Z</time>
				<extensions>
				</extensions>
			</trkpt>
			<trkpt lat="-28.112414" lon="152.639289">
				<ele>153</ele>
				<time>2015-05-07T04:00:11Z</time>
				<extensions>
				</extensions>
			</trkpt>
			<trkpt lat="-28.112167" lon="152.639287">
				<ele>153</ele>
				<time>2015-05-07T04:00:12Z</time>
				<extensions>
				</extensions>
			</trkpt>
			<trkpt lat="-28.111946" lon="152.639284">
				<ele>153</ele>
				<time>2015-05-07T04:00:13Z</time>
				<extensions>
				</extensions>
			</trkpt>
			<trkpt lat="-28.111710" lon="152.639273">
				<ele>153</ele>
				<time>2015-05-07T04:00:14Z</time>
				<extensions>
				</extensions>
			</trkpt>
			<trkpt lat="-28.111521" lon="152.639271">
				<ele>152</ele>
				<time>2015-05-07T04:00:15Z</time>
				<extensions>
				</extensions>
			</trkpt>
			<trkpt lat="-28.111332" lon="152.639290">
				<ele>151</ele>
				<time>2015-05-07T04:00:16Z</time>
				<extensions>
				</extensions>
			</trkpt>
			<trkpt lat="-28.111140" lon="152.639314">
				<ele>151</ele>
				<time>2015-05-07T04:00:17Z</time>
				<extensions>
				</extensions>
			</trkpt>
			<trkpt lat="-28.110930" lon="152.639340">
				<ele>151</ele>
				<time>2015-05-07T04:00:18Z</time>
				<extensions>
				</extensions>
			</trkpt>
			<trkpt lat="-28.110715" lon="152.639377">
				<ele>151</ele>
				<time>2015-05-07T04:00:19Z</time>
				<extensions>
				</extensions>
			</trkpt>
			<trkpt lat="-28.110497" lon="152.639431">
				<ele>150</ele>
				<time>2015-05-07T04:00:20Z</time>
				<extensions>
				</extensions>
			</trkpt>
			<trkpt lat="-28.110267" lon="152.639473">
				<ele>151</ele>
				<time>2015-05-07T04:00:21Z</time>
				<extensions>
				</extensions>
			</trkpt>
			<trkpt lat="-28.110069" lon="152.639531">
				<ele>150</ele>
				<time>2015-05-07T04:00:22Z</time>
				<extensions>
				</extensions>
			</trkpt>
			<trkpt lat="-28.109862" lon="152.639580">
				<ele>151</ele>
				<time>2015-05-07T04:00:23Z</time>
				<extensions>
				</extensions>
			</trkpt>
			<trkpt lat="-28.109636" lon="152.639636">
				<ele>151</ele>
				<time>2015-05-07T04:00:24Z</time>
				<extensions>
				</extensions>
			</trkpt>
			<trkpt lat="-28.109414" lon="152.639695">
				<ele>149</ele>
				<time>2015-05-07T04:00:25Z</time>
				<extensions>
				</extensions>
			</trkpt>
			<trkpt lat="-28.109194" lon="152.639750">
				<ele>149</ele>
				<time>2015-05-07T04:00:26Z</time>
				<extensions>
				</extensions>
			</trkpt>
			<trkpt lat="-28.108966" lon="152.639811">
				<ele>150</ele>
				<time>2015-05-07T04:00:27Z</time>
				<extensions>
				</extensions>
			</trkpt>
			<trkpt lat="-28.108770" lon="152.639857">
				<ele>150</ele>
				<time>2015-05-07T04:00:28Z</time>
				<extensions>
				</extensions>
			</trkpt>
			<trkpt lat="-28.108567" lon="152.639911">
				<ele>147</ele>
				<time>2015-05-07T04:00:29Z</time>
				<extensions>
				</extensions>
			</trkpt>
			<trkpt lat="-28.108365" lon="152.639956">
				<ele>146</ele>
				<time>2015-05-07T04:00:30Z</time>
				<extensions>
				</extensions>
			</trkpt>
			<trkpt lat="-28.108165" lon="152.639999">
				<ele>145</ele>
				<time>2015-05-07T04:00:31Z</time>
				<extensions>
				</extensions>
			</trkpt>
			<trkpt lat="-28.107965" lon="152.640044">
				<ele>147</ele>
				<time>2015-05-07T04:00:32Z</time>
				<extensions>
				</extensions>
			</trkpt>
			<trkpt lat="-28.107780" lon="152.640090">
				<ele>145</ele>
				<time>2015-05-07T04:00:33Z</time>
				<extensions>
				</extensions>
			</trkpt>
			<trkpt lat="-28.107602" lon="152.640126">
				<ele>144</ele>
				<time>2015-05-07T04:00:34Z</time>
				<extensions>
				</extensions>
			</trkpt>
			<trkpt lat="-28.107253" lon="152.640185">
				<ele>144</ele>
				<time>2015-05-07T04:00:36Z</time>
				<extensions>
				</extensions>
			</trkpt>
			<trkpt lat="-28.107072" lon="152.640201">
				<ele>143</ele>
				<time>2015-05-07T04:00:37Z</time>
				<extensions>
				</extensions>
			</trkpt>
			<trkpt lat="-28.106719" lon="152.640202">
				<ele>144</ele>
				<time>2015-05-07T04:00:39Z</time>
				<extensions>
				</extensions>
			</trkpt>
			<trkpt lat="-28.106525" lon="152.640195">
				<ele>144</ele>
				<time>2015-05-07T04:00:40Z</time>
				<extensions>
				</extensions>
			</trkpt>
			<trkpt lat="-28.106329" lon="152.640181">
				<ele>146</ele>
				<time>2015-05-07T04:00:41Z</time>
				<extensions>
				</extensions>
			</trkpt>
			<trkpt lat="-28.106119" lon="152.640164">
				<ele>146</ele>
				<time>2015-05-07T04:00:42Z</time>
				<extensions>
				</extensions>
			</trkpt>
			<trkpt lat="-28.105915" lon="152.640147">
				<ele>145</ele>
				<time>2015-05-07T04:00:43Z</time>
				<extensions>
				</extensions>
			</trkpt>
			<trkpt lat="-28.105700" lon="152.640145">
				<ele>147</ele>
				<time>2015-05-07T04:00:44Z</time>
				<extensions>
				</extensions>
			</trkpt>
			<trkpt lat="-28.105486" lon="152.640129">
				<ele>148</ele>
				<time>2015-05-07T04:00:45Z</time>
				<extensions>
				</extensions>
			</trkpt>
			<trkpt lat="-28.105271" lon="152.640117">
				<ele>149</ele>
				<time>2015-05-07T04:00:46Z</time>
				<extensions>
				</extensions>
			</trkpt>
			<trkpt lat="-28.105047" lon="152.640111">
				<ele>149</ele>
				<time>2015-05-07T04:00:47Z</time>
				<extensions>
				</extensions>
			</trkpt>
			<trkpt lat="-28.104828" lon="152.640108">
				<ele>152</ele>
				<time>2015-05-07T04:00:48Z</time>
				<extensions>
				</extensions>
			</trkpt>
			<trkpt lat="-28.104615" lon="152.640113">
				<ele>151</ele>
				<time>2015-05-07T04:00:49Z</time>
				<extensions>
				</extensions>
			</trkpt>
			<trkpt lat="-28.104394" lon="152.640125">
				<ele>151</ele>
				<time>2015-05-07T04:00:50Z</time>
				<extensions>
				</extensions>
			</trkpt>
			<trkpt lat="-28.104181" lon="152.640147">
				<ele>151</ele>
				<time>2015-05-07T04:00:51Z</time>
				<extensions>
				</extensions>
			</trkpt>
			<trkpt lat="-28.103961" lon="152.640179">
				<ele>151</ele>
				<time>2015-05-07T04:00:52Z</time>
				<extensions>
				</extensions>
			</trkpt>
			<trkpt lat="-28.103739" lon="152.640235">
				<ele>154</ele>
				<time>2015-05-07T04:00:53Z</time>
				<extensions>
				</extensions>
			</trkpt>
			<trkpt lat="-28.103506" lon="152.640288">
				<ele>155</ele>
				<time>2015-05-07T04:00:54Z</time>
				<extensions>
				</extensions>
			</trkpt>
			<trkpt lat="-28.103283" lon="152.640349">
				<ele>155</ele>
				<time>2015-05-07T04:00:55Z</time>
				<extensions>
				</extensions>
			</trkpt>
			<trkpt lat="-28.103058" lon="152.640432">
				<ele>156</ele>
				<time>2015-05-07T04:00:56Z</time>
				<extensions>
				</extensions>
			</trkpt>
			<trkpt lat="-28.102843" lon="152.640512">
				<ele>155</ele>
				<time>2015-05-07T04:00:57Z</time>
				<extensions>
				</extensions>
			</trkpt>
			<trkpt lat="-28.102632" lon="152.640617">
				<ele>157</ele>
				<time>2015-05-07T04:00:58Z</time>
				<extensions>
				</extensions>
			</trkpt>
			<trkpt lat="-28.102423" lon="152.640723">
				<ele>156</ele>
				<time>2015-05-07T04:00:59Z</time>
				<extensions>
				</extensions>
			</trkpt>
			<trkpt lat="-28.102219" lon="152.640849">
				<ele>156</ele>
				<time>2015-05-07T04:01:00Z</time>
				<extensions>
				</extensions>
			</trkpt>
			<trkpt lat="-28.102022" lon="152.640982">
				<ele>156</ele>
				<time>2015-05-07T04:01:01Z</time>
				<extensions>
				</extensions>
			</trkpt>
			<trkpt lat="-28.101827" lon="152.641119">
				<ele>156</ele>
				<time>2015-05-07T04:01:02Z</time>
				<extensions>
				</extensions>
			</trkpt>
			<trkpt lat="-28.101636" lon="152.641270">
				<ele>156</ele>
				<time>2015-05-07T04:01:03Z</time>
				<extensions>
				</extensions>
			</trkpt>
			<trkpt lat="-28.101450" lon="152.641421">
				<ele>156</ele>
				<time>2015-05-07T04:01:04Z</time>
				<extensions>
				</extensions>
			</trkpt>
			<trkpt lat="-28.101261" lon="152.641592">
				<ele>156</ele>
				<time>2015-05-07T04:01:05Z</time>
				<extensions>
				</extensions>
			</trkpt>
			<trkpt lat="-28.101064" lon="152.641750">
				<ele>156</ele>
				<time>2015-05-07T04:01:06Z</time>
				<extensions>
				</extensions>
			</trkpt>
			<trkpt lat="-28.100875" lon="152.641915">
				<ele>156</ele>
				<time>2015-05-07T04:01:07Z</time>
				<extensions>
				</extensions>
			</trkpt>
			<trkpt lat="-28.100679" lon="152.642084">
				<ele>154</ele>
				<time>2015-05-07T04:01:08Z</time>
				<extensions>
				</extensions>
			</trkpt>
			<trkpt lat="-28.100483" lon="152.642255">
				<ele>156</ele>
				<time>2015-05-07T04:01:09Z</time>
				<extensions>
				</extensions>
			</trkpt>
			<trkpt lat="-28.100277" lon="152.642433">
				<ele>157</ele>
				<time>2015-05-07T04:01:10Z</time>
				<extensions>
				</extensions>
			</trkpt>
			<trkpt lat="-28.100080" lon="152.642601">
				<ele>154</ele>
				<time>2015-05-07T04:01:11Z</time>
				<extensions>
				</extensions>
			</trkpt>
			<trkpt lat="-28.099882" lon="152.642774">
				<ele>154</ele>
				<time>2015-05-07T04:01:12Z</time>
				<extensions>
				</extensions>
			</trkpt>
			<trkpt lat="-28.099691" lon="152.642935">
				<ele>155</ele>
				<time>2015-05-07T04:01:13Z</time>
				<extensions>
				</extensions>
			</trkpt>
			<trkpt lat="-28.099495" lon="152.643100">
				<ele>153</ele>
				<time>2015-05-07T04:01:14Z</time>
				<extensions>
				</extensions>
			</trkpt>
			<trkpt lat="-28.099315" lon="152.643255">
				<ele>154</ele>
				<time>2015-05-07T04:01:15Z</time>
				<extensions>
				</extensions>
			</trkpt>
			<trkpt lat="-28.099135" lon="152.643409">
				<ele>152</ele>
				<time>2015-05-07T04:01:16Z</time>
				<extensions>
				</extensions>
			</trkpt>
			<trkpt lat="-28.098951" lon="152.643564">
				<ele>152</ele>
				<time>2015-05-07T04:01:17Z</time>
				<extensions>
				</extensions>
			</trkpt>
			<trkpt lat="-28.098772" lon="152.643717">
				<ele>152</ele>
				<time>2015-05-07T04:01:18Z</time>
				<extensions>
				</extensions>
			</trkpt>
			<trkpt lat="-28.098593" lon="152.643864">
				<ele>152</ele>
				<time>2015-05-07T04:01:19Z</time>
				<extensions>
				</extensions>
			</trkpt>
			<trkpt lat="-28.098410" lon="152.644012">
				<ele>151</ele>
				<time>2015-05-07T04:01:20Z</time>
				<extensions>
				</extensions>
			</trkpt>
			<trkpt lat="-28.098232" lon="152.644155">
				<ele>150</ele>
				<time>2015-05-07T04:01:21Z</time>
				<extensions>
				</extensions>
			</trkpt>
			<trkpt lat="-28.098065" lon="152.644300">
				<ele>149</ele>
				<time>2015-05-07T04:01:22Z</time>
				<extensions>
				</extensions>
			</trkpt>
			<trkpt lat="-28.097889" lon="152.644441">
				<ele>149</ele>
				<time>2015-05-07T04:01:23Z</time>
				<extensions>
				</extensions>
			</trkpt>
			<trkpt lat="-28.097721" lon="152.644596">
				<ele>149</ele>
				<time>2015-05-07T04:01:24Z</time>
				<extensions>
				</extensions>
			</trkpt>
			<trkpt lat="-28.097561" lon="152.644735">
				<ele>148</ele>
				<time>2015-05-07T04:01:25Z</time>
				<extensions>
				</extensions>
			</trkpt>
			<trkpt lat="-28.097398" lon="152.644880">
				<ele>149</ele>
				<time>2015-05-07T04:01:26Z</time>
				<extensions>
				</extensions>
			</trkpt>
			<trkpt lat="-28.097238" lon="152.645020">
				<ele>151</ele>
				<time>2015-05-07T04:01:27Z</time>
				<extensions>
				</extensions>
			</trkpt>
			<trkpt lat="-28.097089" lon="152.645146">
				<ele>149</ele>
				<time>2015-05-07T04:01:28Z</time>
				<extensions>
				</extensions>
			</trkpt>
			<trkpt lat="-28.096933" lon="152.645279">
				<ele>151</ele>
				<time>2015-05-07T04:01:29Z</time>
				<extensions>
				</extensions>
			</trkpt>
			<trkpt lat="-28.096768" lon="152.645401">
				<ele>152</ele>
				<time>2015-05-07T04:01:30Z</time>
				<extensions>
				</extensions>
			</trkpt>
			<trkpt lat="-28.096610" lon="152.645510">
				<ele>150</ele>
				<time>2015-05-07T04:01:31Z</time>
				<extensions>
				</extensions>
			</trkpt>
			<trkpt lat="-28.096442" lon="152.645632">
				<ele>150</ele>
				<time>2015-05-07T04:01:32Z</time>
				<extensions>
				</extensions>
			</trkpt>
			<trkpt lat="-28.096262" lon="152.645725">
				<ele>150</ele>
				<time>2015-05-07T04:01:33Z</time>
				<extensions>
				</extensions>
			</trkpt>
			<trkpt lat="-28.096092" lon="152.645823">
				<ele>151</ele>
				<time>2015-05-07T04:01:34Z</time>
				<extensions>
				</extensions>
			</trkpt>
			<trkpt lat="-28.095912" lon="152.645904">
				<ele>150</ele>
				<time>2015-05-07T04:01:35Z</time>
				<extensions>
				</extensions>
			</trkpt>
			<trkpt lat="-28.095722" lon="152.645976">
				<ele>148</ele>
				<time>2015-05-07T04:01:36Z</time>
				<extensions>
				</extensions>
			</trkpt>
			<trkpt lat="-28.095542" lon="152.646058">
				<ele>149</ele>
				<time>2015-05-07T04:01:37Z</time>
				<extensions>
				</extensions>
			</trkpt>
			<trkpt lat="-28.095344" lon="152.646133">
				<ele>149</ele>
				<time>2015-05-07T04:01:38Z</time>
				<extensions>
				</extensions>
			</trkpt>
			<trkpt lat="-28.095146" lon="152.646205">
				<ele>148</ele>
				<time>2015-05-07T04:01:39Z</time>
				<extensions>
				</extensions>
			</trkpt>
			<trkpt lat="-28.094945" lon="152.646285">
				<ele>149</ele>
				<time>2015-05-07T04:01:40Z</time>
				<extensions>
				</extensions>
			</trkpt>
			<trkpt lat="-28.094744" lon="152.646355">
				<ele>149</ele>
				<time>2015-05-07T04:01:41Z</time>
				<extensions>
				</extensions>
			</trkpt>
			<trkpt lat="-28.094538" lon="152.646434">
				<ele>150</ele>
				<time>2015-05-07T04:01:42Z</time>
				<extensions>
				</extensions>
			</trkpt>
			<trkpt lat="-28.094331" lon="152.646512">
				<ele>151</ele>
				<time>2015-05-07T04:01:43Z</time>
				<extensions>
				</extensions>
			</trkpt>
			<trkpt lat="-28.094125" lon="152.646591">
				<ele>153</ele>
				<time>2015-05-07T04:01:44Z</time>
				<extensions>
				</extensions>
			</trkpt>
			<trkpt lat="-28.093919" lon="152.646676">
				<ele>155</ele>
				<time>2015-05-07T04:01:45Z</time>
				<extensions>
				</extensions>
			</trkpt>
			<trkpt lat="-28.093719" lon="152.646780">
				<ele>156</ele>
				<time>2015-05-07T04:01:46Z</time>
				<extensions>
				</extensions>
			</trkpt>
			<trkpt lat="-28.093535" lon="152.646903">
				<ele>157</ele>
				<time>2015-05-07T04:01:47Z</time>
				<extensions>
				</extensions>
			</trkpt>
			<trkpt lat="-28.093351" lon="152.647038">
				<ele>159</ele>
				<time>2015-05-07T04:01:48Z</time>
				<extensions>
				</extensions>
			</trkpt>
			<trkpt lat="-28.093177" lon="152.647194">
				<ele>160</ele>
				<time>2015-05-07T04:01:49Z</time>
				<extensions>
				</extensions>
			</trkpt>
			<trkpt lat="-28.093004" lon="152.647346">
				<ele>161</ele>
				<time>2015-05-07T04:01:50Z</time>
				<extensions>
				</extensions>
			</trkpt>
			<trkpt lat="-28.092829" lon="152.647495">
				<ele>162</ele>
				<time>2015-05-07T04:01:51Z</time>
				<extensions>
				</extensions>
			</trkpt>
			<trkpt lat="-28.092653" lon="152.647643">
				<ele>163</ele>
				<time>2015-05-07T04:01:52Z</time>
				<extensions>
				</extensions>
			</trkpt>
			<trkpt lat="-28.092464" lon="152.647794">
				<ele>164</ele>
				<time>2015-05-07T04:01:53Z</time>
				<extensions>
				</extensions>
			</trkpt>
			<trkpt lat="-28.092270" lon="152.647938">
				<ele>165</ele>
				<time>2015-05-07T04:01:54Z</time>
				<extensions>
				</extensions>
			</trkpt>
			<trkpt lat="-28.092070" lon="152.648076">
				<ele>165</ele>
				<time>2015-05-07T04:01:55Z</time>
				<extensions>
				</extensions>
			</trkpt>
			<trkpt lat="-28.091872" lon="152.648216">
				<ele>168</ele>
				<time>2015-05-07T04:01:56Z</time>
				<extensions>
				</extensions>
			</trkpt>
			<trkpt lat="-28.091652" lon="152.648349">
				<ele>172</ele>
				<time>2015-05-07T04:01:57Z</time>
				<extensions>
				</extensions>
			</trkpt>
			<trkpt lat="-28.091444" lon="152.648485">
				<ele>172</ele>
				<time>2015-05-07T04:01:58Z</time>
				<extensions>
				</extensions>
			</trkpt>
			<trkpt lat="-28.091249" lon="152.648609">
				<ele>173</ele>
				<time>2015-05-07T04:01:59Z</time>
				<extensions>
				</extensions>
			</trkpt>
			<trkpt lat="-28.091067" lon="152.648742">
				<ele>172</ele>
				<time>2015-05-07T04:02:00Z</time>
				<extensions>
				</extensions>
			</trkpt>
			<trkpt lat="-28.090886" lon="152.648857">
				<ele>173</ele>
				<time>2015-05-07T04:02:01Z</time>
				<extensions>
				</extensions>
			</trkpt>
			<trkpt lat="-28.090710" lon="152.648975">
				<ele>173</ele>
				<time>2015-05-07T04:02:02Z</time>
				<extensions>
				</extensions>
			</trkpt>
			<trkpt lat="-28.090524" lon="152.649092">
				<ele>173</ele>
				<time>2015-05-07T04:02:03Z</time>
				<extensions>
				</extensions>
			</trkpt>
			<trkpt lat="-28.090345" lon="152.649212">
				<ele>175</ele>
				<time>2015-05-07T04:02:04Z</time>
				<extensions>
				</extensions>
			</trkpt>
			<trkpt lat="-28.090044" lon="152.649411">
				<ele>174</ele>
				<time>2015-05-07T04:02:06Z</time>
				<extensions>
				</extensions>
			</trkpt>
			<trkpt lat="-28.089780" lon="152.649581">
				<ele>175</ele>
				<time>2015-05-07T04:02:08Z</time>
				<extensions>
				</extensions>
			</trkpt>
			<trkpt lat="-28.089566" lon="152.649759">
				<ele>177</ele>
				<time>2015-05-07T04:02:10Z</time>
				<extensions>
				</extensions>
			</trkpt>
			<trkpt lat="-28.089362" lon="152.649949">
				<ele>179</ele>
				<time>2015-05-07T04:02:12Z</time>
				<extensions>
				</extensions>
			</trkpt>
			<trkpt lat="-28.089170" lon="152.650166">
				<ele>182</ele>
				<time>2015-05-07T04:02:14Z</time>
				<extensions>
				</extensions>
			</trkpt>
			<trkpt lat="-28.088964" lon="152.650401">
				<ele>184</ele>
				<time>2015-05-07T04:02:16Z</time>
				<extensions>
				</extensions>
			</trkpt>
			<trkpt lat="-28.088761" lon="152.650651">
				<ele>186</ele>
				<time>2015-05-07T04:02:18Z</time>
				<extensions>
				</extensions>
			</trkpt>
			<trkpt lat="-28.088539" lon="152.650920">
				<ele>188</ele>
				<time>2015-05-07T04:02:20Z</time>
				<extensions>
				</extensions>
			</trkpt>
			<trkpt lat="-28.088415" lon="152.651070">
				<ele>190</ele>
				<time>2015-05-07T04:02:21Z</time>
				<extensions>
				</extensions>
			</trkpt>
			<trkpt lat="-28.088289" lon="152.651222">
				<ele>192</ele>
				<time>2015-05-07T04:02:22Z</time>
				<extensions>
				</extensions>
			</trkpt>
			<trkpt lat="-28.088159" lon="152.651379">
				<ele>196</ele>
				<time>2015-05-07T04:02:23Z</time>
				<extensions>
				</extensions>
			</trkpt>
			<trkpt lat="-28.088021" lon="152.651546">
				<ele>198</ele>
				<time>2015-05-07T04:02:24Z</time>
				<extensions>
				</extensions>
			</trkpt>
			<trkpt lat="-28.087879" lon="152.651716">
				<ele>200</ele>
				<time>2015-05-07T04:02:25Z</time>
				<extensions>
				</extensions>
			</trkpt>
			<trkpt lat="-28.087732" lon="152.651893">
				<ele>202</ele>
				<time>2015-05-07T04:02:26Z</time>
				<extensions>
				</extensions>
			</trkpt>
			<trkpt lat="-28.087584" lon="152.652072">
				<ele>203</ele>
				<time>2015-05-07T04:02:27Z</time>
				<extensions>
				</extensions>
			</trkpt>
			<trkpt lat="-28.087445" lon="152.652239">
				<ele>205</ele>
				<time>2015-05-07T04:02:28Z</time>
				<extensions>
				</extensions>
			</trkpt>
			<trkpt lat="-28.087288" lon="152.652411">
				<ele>203</ele>
				<time>2015-05-07T04:02:29Z</time>
				<extensions>
				</extensions>
			</trkpt>
			<trkpt lat="-28.087136" lon="152.652554">
				<ele>204</ele>
				<time>2015-05-07T04:02:30Z</time>
				<extensions>
				</extensions>
			</trkpt>
			<trkpt lat="-28.086985" lon="152.652691">
				<ele>206</ele>
				<time>2015-05-07T04:02:31Z</time>
				<extensions>
				</extensions>
			</trkpt>
			<trkpt lat="-28.086832" lon="152.652808">
				<ele>206</ele>
				<time>2015-05-07T04:02:32Z</time>
				<extensions>
				</extensions>
			</trkpt>
			<trkpt lat="-28.086528" lon="152.652996">
				<ele>207</ele>
				<time>2015-05-07T04:02:34Z</time>
				<extensions>
				</extensions>
			</trkpt>
			<trkpt lat="-28.086192" lon="152.653118">
				<ele>210</ele>
				<time>2015-05-07T04:02:36Z</time>
				<extensions>
				</extensions>
			</trkpt>
			<trkpt lat="-28.086010" lon="152.653155">
				<ele>210</ele>
				<time>2015-05-07T04:02:37Z</time>
				<extensions>
				</extensions>
			</trkpt>
			<trkpt lat="-28.085826" lon="152.653171">
				<ele>211</ele>
				<time>2015-05-07T04:02:38Z</time>
				<extensions>
				</extensions>
			</trkpt>
			<trkpt lat="-28.085638" lon="152.653172">
				<ele>211</ele>
				<time>2015-05-07T04:02:39Z</time>
				<extensions>
				</extensions>
			</trkpt>
			<trkpt lat="-28.085435" lon="152.653154">
				<ele>213</ele>
				<time>2015-05-07T04:02:40Z</time>
				<extensions>
				</extensions>
			</trkpt>
			<trkpt lat="-28.085225" lon="152.653127">
				<ele>214</ele>
				<time>2015-05-07T04:02:41Z</time>
				<extensions>
				</extensions>
			</trkpt>
			<trkpt lat="-28.085005" lon="152.653091">
				<ele>214</ele>
				<time>2015-05-07T04:02:42Z</time>
				<extensions>
				</extensions>
			</trkpt>
			<trkpt lat="-28.084774" lon="152.653051">
				<ele>215</ele>
				<time>2015-05-07T04:02:43Z</time>
				<extensions>
				</extensions>
			</trkpt>
			<trkpt lat="-28.084555" lon="152.653014">
				<ele>213</ele>
				<time>2015-05-07T04:02:44Z</time>
				<extensions>
				</extensions>
			</trkpt>
			<trkpt lat="-28.084333" lon="152.652975">
				<ele>213</ele>
				<time>2015-05-07T04:02:45Z</time>
				<extensions>
				</extensions>
			</trkpt>
			<trkpt lat="-28.084108" lon="152.652936">
				<ele>213</ele>
				<time>2015-05-07T04:02:46Z</time>
				<extensions>
				</extensions>
			</trkpt>
			<trkpt lat="-28.083875" lon="152.652914">
				<ele>214</ele>
				<time>2015-05-07T04:02:47Z</time>
				<extensions>
				</extensions>
			</trkpt>
			<trkpt lat="-28.083654" lon="152.652867">
				<ele>213</ele>
				<time>2015-05-07T04:02:48Z</time>
				<extensions>
				</extensions>
			</trkpt>
			<trkpt lat="-28.083431" lon="152.652826">
				<ele>212</ele>
				<time>2015-05-07T04:02:49Z</time>
				<extensions>
				</extensions>
			</trkpt>
			<trkpt lat="-28.083205" lon="152.652779">
				<ele>212</ele>
				<time>2015-05-07T04:02:50Z</time>
				<extensions>
				</extensions>
			</trkpt>
			<trkpt lat="-28.082989" lon="152.652741">
				<ele>211</ele>
				<time>2015-05-07T04:02:51Z</time>
				<extensions>
				</extensions>
			</trkpt>
			<trkpt lat="-28.082772" lon="152.652707">
				<ele>210</ele>
				<time>2015-05-07T04:02:52Z</time>
				<extensions>
				</extensions>
			</trkpt>
			<trkpt lat="-28.082553" lon="152.652680">
				<ele>209</ele>
				<time>2015-05-07T04:02:53Z</time>
				<extensions>
				</extensions>
			</trkpt>
			<trkpt lat="-28.082332" lon="152.652657">
				<ele>208</ele>
				<time>2015-05-07T04:02:54Z</time>
				<extensions>
				</extensions>
			</trkpt>
			<trkpt lat="-28.082114" lon="152.652645">
				<ele>208</ele>
				<time>2015-05-07T04:02:55Z</time>
				<extensions>
				</extensions>
			</trkpt>
			<trkpt lat="-28.081900" lon="152.652645">
				<ele>207</ele>
				<time>2015-05-07T04:02:56Z</time>
				<extensions>
				</extensions>
			</trkpt>
			<trkpt lat="-28.081681" lon="152.652651">
				<ele>205</ele>
				<time>2015-05-07T04:02:57Z</time>
				<extensions>
				</extensions>
			</trkpt>
			<trkpt lat="-28.081457" lon="152.652670">
				<ele>204</ele>
				<time>2015-05-07T04:02:58Z</time>
				<extensions>
				</extensions>
			</trkpt>
			<trkpt lat="-28.081235" lon="152.652707">
				<ele>205</ele>
				<time>2015-05-07T04:02:59Z</time>
				<extensions>
				</extensions>
			</trkpt>
			<trkpt lat="-28.081009" lon="152.652748">
				<ele>205</ele>
				<time>2015-05-07T04:03:00Z</time>
				<extensions>
				</extensions>
			</trkpt>
			<trkpt lat="-28.080786" lon="152.652796">
				<ele>204</ele>
				<time>2015-05-07T04:03:01Z</time>
				<extensions>
				</extensions>
			</trkpt>
			<trkpt lat="-28.080550" lon="152.652845">
				<ele>205</ele>
				<time>2015-05-07T04:03:02Z</time>
				<extensions>
				</extensions>
			</trkpt>
			<trkpt lat="-28.080322" lon="152.652906">
				<ele>204</ele>
				<time>2015-05-07T04:03:03Z</time>
				<extensions>
				</extensions>
			</trkpt>
			<trkpt lat="-28.080105" lon="152.652965">
				<ele>205</ele>
				<time>2015-05-07T04:03:04Z</time>
				<extensions>
				</extensions>
			</trkpt>
			<trkpt lat="-28.079898" lon="152.653015">
				<ele>204</ele>
				<time>2015-05-07T04:03:05Z</time>
				<extensions>
				</extensions>
			</trkpt>
			<trkpt lat="-28.079684" lon="152.653068">
				<ele>202</ele>
				<time>2015-05-07T04:03:06Z</time>
				<extensions>
				</extensions>
			</trkpt>
			<trkpt lat="-28.079468" lon="152.653114">
				<ele>203</ele>
				<time>2015-05-07T04:03:07Z</time>
				<extensions>
				</extensions>
			</trkpt>
			<trkpt lat="-28.079250" lon="152.653164">
				<ele>202</ele>
				<time>2015-05-07T04:03:08Z</time>
				<extensions>
				</extensions>
			</trkpt>
			<trkpt lat="-28.079038" lon="152.653219">
				<ele>204</ele>
				<time>2015-05-07T04:03:09Z</time>
				<extensions>
				</extensions>
			</trkpt>
			<trkpt lat="-28.078823" lon="152.653267">
				<ele>204</ele>
				<time>2015-05-07T04:03:10Z</time>
				<extensions>
				</extensions>
			</trkpt>
			<trkpt lat="-28.078612" lon="152.653318">
				<ele>204</ele>
				<time>2015-05-07T04:03:11Z</time>
				<extensions>
				</extensions>
			</trkpt>
			<trkpt lat="-28.078402" lon="152.653364">
				<ele>202</ele>
				<time>2015-05-07T04:03:12Z</time>
				<extensions>
				</extensions>
			</trkpt>
			<trkpt lat="-28.078186" lon="152.653408">
				<ele>201</ele>
				<time>2015-05-07T04:03:13Z</time>
				<extensions>
				</extensions>
			</trkpt>
			<trkpt lat="-28.077962" lon="152.653458">
				<ele>200</ele>
				<time>2015-05-07T04:03:14Z</time>
				<extensions>
				</extensions>
			</trkpt>
			<trkpt lat="-28.077737" lon="152.653509">
				<ele>200</ele>
				<time>2015-05-07T04:03:15Z</time>
				<extensions>
				</extensions>
			</trkpt>
			<trkpt lat="-28.077511" lon="152.653555">
				<ele>199</ele>
				<time>2015-05-07T04:03:16Z</time>
				<extensions>
				</extensions>
			</trkpt>
			<trkpt lat="-28.077296" lon="152.653603">
				<ele>198</ele>
				<time>2015-05-07T04:03:17Z</time>
				<extensions>
				</extensions>
			</trkpt>
			<trkpt lat="-28.077081" lon="152.653655">
				<ele>199</ele>
				<time>2015-05-07T04:03:18Z</time>
				<extensions>
				</extensions>
			</trkpt>
			<trkpt lat="-28.076868" lon="152.653702">
				<ele>199</ele>
				<time>2015-05-07T04:03:19Z</time>
				<extensions>
				</extensions>
			</trkpt>
			<trkpt lat="-28.076659" lon="152.653754">
				<ele>199</ele>
				<time>2015-05-07T04:03:20Z</time>
				<extensions>
				</extensions>
			</trkpt>
			<trkpt lat="-28.076438" lon="152.653804">
				<ele>198</ele>
				<time>2015-05-07T04:03:21Z</time>
				<extensions>
				</extensions>
			</trkpt>
			<trkpt lat="-28.076218" lon="152.653858">
				<ele>198</ele>
				<time>2015-05-07T04:03:22Z</time>
				<extensions>
				</extensions>
			</trkpt>
			<trkpt lat="-28.076004" lon="152.653922">
				<ele>198</ele>
				<time>2015-05-07T04:03:23Z</time>
				<extensions>
				</extensions>
			</trkpt>
			<trkpt lat="-28.075779" lon="152.653973">
				<ele>197</ele>
				<time>2015-05-07T04:03:24Z</time>
				<extensions>
				</extensions>
			</trkpt>
			<trkpt lat="-28.075553" lon="152.654017">
				<ele>197</ele>
				<time>2015-05-07T04:03:25Z</time>
				<extensions>
				</extensions>
			</trkpt>
			<trkpt lat="-28.075327" lon="152.654070">
				<ele>197</ele>
				<time>2015-05-07T04:03:26Z</time>
				<extensions>
				</extensions>
			</trkpt>
			<trkpt lat="-28.075108" lon="152.654117">
				<ele>196</ele>
				<time>2015-05-07T04:03:27Z</time>
				<extensions>
				</extensions>
			</trkpt>
			<trkpt lat="-28.074903" lon="152.654161">
				<ele>196</ele>
				<time>2015-05-07T04:03:28Z</time>
				<extensions>
				</extensions>
			</trkpt>
			<trkpt lat="-28.074687" lon="152.654193">
				<ele>195</ele>
				<time>2015-05-07T04:03:29Z</time>
				<extensions>
				</extensions>
			</trkpt>
			<trkpt lat="-28.074469" lon="152.654217">
				<ele>194</ele>
				<time>2015-05-07T04:03:30Z</time>
				<extensions>
				</extensions>
			</trkpt>
			<trkpt lat="-28.074259" lon="152.654234">
				<ele>194</ele>
				<time>2015-05-07T04:03:31Z</time>
				<extensions>
				</extensions>
			</trkpt>
			<trkpt lat="-28.074049" lon="152.654239">
				<ele>196</ele>
				<time>2015-05-07T04:03:32Z</time>
				<extensions>
				</extensions>
			</trkpt>
			<trkpt lat="-28.073838" lon="152.654242">
				<ele>194</ele>
				<time>2015-05-07T04:03:33Z</time>
				<extensions>
				</extensions>
			</trkpt>
			<trkpt lat="-28.073619" lon="152.654232">
				<ele>194</ele>
				<time>2015-05-07T04:03:34Z</time>
				<extensions>
				</extensions>
			</trkpt>
			<trkpt lat="-28.073403" lon="152.654214">
				<ele>193</ele>
				<time>2015-05-07T04:03:35Z</time>
				<extensions>
				</extensions>
			</trkpt>
			<trkpt lat="-28.073185" lon="152.654182">
				<ele>192</ele>
				<time>2015-05-07T04:03:36Z</time>
				<extensions>
				</extensions>
			</trkpt>
			<trkpt lat="-28.072975" lon="152.654150">
				<ele>191</ele>
				<time>2015-05-07T04:03:37Z</time>
				<extensions>
				</extensions>
			</trkpt>
			<trkpt lat="-28.072757" lon="152.654100">
				<ele>192</ele>
				<time>2015-05-07T04:03:38Z</time>
				<extensions>
				</extensions>
			</trkpt>
			<trkpt lat="-28.072556" lon="152.654045">
				<ele>193</ele>
				<time>2015-05-07T04:03:39Z</time>
				<extensions>
				</extensions>
			</trkpt>
			<trkpt lat="-28.072336" lon="152.653979">
				<ele>193</ele>
				<time>2015-05-07T04:03:40Z</time>
				<extensions>
				</extensions>
			</trkpt>
			<trkpt lat="-28.072120" lon="152.653886">
				<ele>191</ele>
				<time>2015-05-07T04:03:41Z</time>
				<extensions>
				</extensions>
			</trkpt>
			<trkpt lat="-28.071905" lon="152.653801">
				<ele>190</ele>
				<time>2015-05-07T04:03:42Z</time>
				<extensions>
				</extensions>
			</trkpt>
			<trkpt lat="-28.071691" lon="152.653700">
				<ele>189</ele>
				<time>2015-05-07T04:03:43Z</time>
				<extensions>
				</extensions>
			</trkpt>
			<trkpt lat="-28.071495" lon="152.653593">
				<ele>189</ele>
				<time>2015-05-07T04:03:44Z</time>
				<extensions>
				</extensions>
			</trkpt>
			<trkpt lat="-28.071294" lon="152.653482">
				<ele>189</ele>
				<time>2015-05-07T04:03:45Z</time>
				<extensions>
				</extensions>
			</trkpt>
			<trkpt lat="-28.071109" lon="152.653350">
				<ele>188</ele>
				<time>2015-05-07T04:03:46Z</time>
				<extensions>
				</extensions>
			</trkpt>
			<trkpt lat="-28.070891" lon="152.653179">
				<ele>187</ele>
				<time>2015-05-07T04:03:47Z</time>
				<extensions>
				</extensions>
			</trkpt>
			<trkpt lat="-28.070693" lon="152.653030">
				<ele>187</ele>
				<time>2015-05-07T04:03:48Z</time>
				<extensions>
				</extensions>
			</trkpt>
			<trkpt lat="-28.070495" lon="152.652877">
				<ele>185</ele>
				<time>2015-05-07T04:03:49Z</time>
				<extensions>
				</extensions>
			</trkpt>
			<trkpt lat="-28.070305" lon="152.652735">
				<ele>184</ele>
				<time>2015-05-07T04:03:50Z</time>
				<extensions>
				</extensions>
			</trkpt>
			<trkpt lat="-28.070096" lon="152.652604">
				<ele>182</ele>
				<time>2015-05-07T04:03:51Z</time>
				<extensions>
				</extensions>
			</trkpt>
			<trkpt lat="-28.069912" lon="152.652478">
				<ele>179</ele>
				<time>2015-05-07T04:03:52Z</time>
				<extensions>
				</extensions>
			</trkpt>
			<trkpt lat="-28.069718" lon="152.652328">
				<ele>178</ele>
				<time>2015-05-07T04:03:53Z</time>
				<extensions>
				</extensions>
			</trkpt>
			<trkpt lat="-28.069535" lon="152.652198">
				<ele>176</ele>
				<time>2015-05-07T04:03:54Z</time>
				<extensions>
				</extensions>
			</trkpt>
			<trkpt lat="-28.069340" lon="152.652087">
				<ele>172</ele>
				<time>2015-05-07T04:03:55Z</time>
				<extensions>
				</extensions>
			</trkpt>
			<trkpt lat="-28.069135" lon="152.651957">
				<ele>170</ele>
				<time>2015-05-07T04:03:56Z</time>
				<extensions>
				</extensions>
			</trkpt>
			<trkpt lat="-28.068937" lon="152.651852">
				<ele>169</ele>
				<time>2015-05-07T04:03:57Z</time>
				<extensions>
				</extensions>
			</trkpt>
			<trkpt lat="-28.068738" lon="152.651748">
				<ele>168</ele>
				<time>2015-05-07T04:03:58Z</time>
				<extensions>
				</extensions>
			</trkpt>
			<trkpt lat="-28.068535" lon="152.651658">
				<ele>165</ele>
				<time>2015-05-07T04:03:59Z</time>
				<extensions>
				</extensions>
			</trkpt>
			<trkpt lat="-28.068321" lon="152.651563">
				<ele>163</ele>
				<time>2015-05-07T04:04:00Z</time>
				<extensions>
				</extensions>
			</trkpt>
			<trkpt lat="-28.068111" lon="152.651520">
				<ele>164</ele>
				<time>2015-05-07T04:04:01Z</time>
				<extensions>
				</extensions>
			</trkpt>
			<trkpt lat="-28.067879" lon="152.651463">
				<ele>162</ele>
				<time>2015-05-07T04:04:02Z</time>
				<extensions>
				</extensions>
			</trkpt>
			<trkpt lat="-28.067637" lon="152.651410">
				<ele>160</ele>
				<time>2015-05-07T04:04:03Z</time>
				<extensions>
				</extensions>
			</trkpt>
			<trkpt lat="-28.067403" lon="152.651384">
				<ele>162</ele>
				<time>2015-05-07T04:04:04Z</time>
				<extensions>
				</extensions>
			</trkpt>
			<trkpt lat="-28.067168" lon="152.651341">
				<ele>161</ele>
				<time>2015-05-07T04:04:05Z</time>
				<extensions>
				</extensions>
			</trkpt>
			<trkpt lat="-28.066932" lon="152.651295">
				<ele>160</ele>
				<time>2015-05-07T04:04:06Z</time>
				<extensions>
				</extensions>
			</trkpt>
			<trkpt lat="-28.066702" lon="152.651248">
				<ele>157</ele>
				<time>2015-05-07T04:04:07Z</time>
				<extensions>
				</extensions>
			</trkpt>
			<trkpt lat="-28.066472" lon="152.651211">
				<ele>157</ele>
				<time>2015-05-07T04:04:08Z</time>
				<extensions>
				</extensions>
			</trkpt>
			<trkpt lat="-28.066244" lon="152.651166">
				<ele>159</ele>
				<time>2015-05-07T04:04:09Z</time>
				<extensions>
				</extensions>
			</trkpt>
			<trkpt lat="-28.066015" lon="152.651107">
				<ele>158</ele>
				<time>2015-05-07T04:04:10Z</time>
				<extensions>
				</extensions>
			</trkpt>
			<trkpt lat="-28.065784" lon="152.651036">
				<ele>158</ele>
				<time>2015-05-07T04:04:11Z</time>
				<extensions>
				</extensions>
			</trkpt>
			<trkpt lat="-28.065576" lon="152.650966">
				<ele>158</ele>
				<time>2015-05-07T04:04:12Z</time>
				<extensions>
				</extensions>
			</trkpt>
			<trkpt lat="-28.065364" lon="152.650882">
				<ele>157</ele>
				<time>2015-05-07T04:04:13Z</time>
				<extensions>
				</extensions>
			</trkpt>
			<trkpt lat="-28.065133" lon="152.650789">
				<ele>156</ele>
				<time>2015-05-07T04:04:14Z</time>
				<extensions>
				</extensions>
			</trkpt>
			<trkpt lat="-28.064934" lon="152.650694">
				<ele>154</ele>
				<time>2015-05-07T04:04:15Z</time>
				<extensions>
				</extensions>
			</trkpt>
			<trkpt lat="-28.064723" lon="152.650600">
				<ele>153</ele>
				<time>2015-05-07T04:04:16Z</time>
				<extensions>
				</extensions>
			</trkpt>
			<trkpt lat="-28.064530" lon="152.650523">
				<ele>152</ele>
				<time>2015-05-07T04:04:17Z</time>
				<extensions>
				</extensions>
			</trkpt>
			<trkpt lat="-28.064327" lon="152.650427">
				<ele>150</ele>
				<time>2015-05-07T04:04:18Z</time>
				<extensions>
				</extensions>
			</trkpt>
			<trkpt lat="-28.064115" lon="152.650325">
				<ele>149</ele>
				<time>2015-05-07T04:04:19Z</time>
				<extensions>
				</extensions>
			</trkpt>
			<trkpt lat="-28.063917" lon="152.650220">
				<ele>149</ele>
				<time>2015-05-07T04:04:20Z</time>
				<extensions>
				</extensions>
			</trkpt>
			<trkpt lat="-28.063721" lon="152.650122">
				<ele>148</ele>
				<time>2015-05-07T04:04:21Z</time>
				<extensions>
				</extensions>
			</trkpt>
			<trkpt lat="-28.063529" lon="152.650049">
				<ele>147</ele>
				<time>2015-05-07T04:04:22Z</time>
				<extensions>
				</extensions>
			</trkpt>
			<trkpt lat="-28.063337" lon="152.649942">
				<ele>146</ele>
				<time>2015-05-07T04:04:23Z</time>
				<extensions>
				</extensions>
			</trkpt>
			<trkpt lat="-28.063155" lon="152.649867">
				<ele>145</ele>
				<time>2015-05-07T04:04:24Z</time>
				<extensions>
				</extensions>
			</trkpt>
			<trkpt lat="-28.062971" lon="152.649787">
				<ele>143</ele>
				<time>2015-05-07T04:04:25Z</time>
				<extensions>
				</extensions>
			</trkpt>
			<trkpt lat="-28.062793" lon="152.649692">
				<ele>141</ele>
				<time>2015-05-07T04:04:26Z</time>
				<extensions>
				</extensions>
			</trkpt>
			<trkpt lat="-28.062608" lon="152.649609">
				<ele>141</ele>
				<time>2015-05-07T04:04:27Z</time>
				<extensions>
				</extensions>
			</trkpt>
			<trkpt lat="-28.062408" lon="152.649516">
				<ele>140</ele>
				<time>2015-05-07T04:04:28Z</time>
				<extensions>
				</extensions>
			</trkpt>
			<trkpt lat="-28.062030" lon="152.649410">
				<ele>139</ele>
				<time>2015-05-07T04:04:30Z</time>
				<extensions>
				</extensions>
			</trkpt>
			<trkpt lat="-28.061808" lon="152.649332">
				<ele>139</ele>
				<time>2015-05-07T04:04:31Z</time>
				<extensions>
				</extensions>
			</trkpt>
			<trkpt lat="-28.061593" lon="152.649293">
				<ele>139</ele>
				<time>2015-05-07T04:04:32Z</time>
				<extensions>
				</extensions>
			</trkpt>
			<trkpt lat="-28.061365" lon="152.649255">
				<ele>139</ele>
				<time>2015-05-07T04:04:33Z</time>
				<extensions>
				</extensions>
			</trkpt>
			<trkpt lat="-28.061145" lon="152.649241">
				<ele>138</ele>
				<time>2015-05-07T04:04:34Z</time>
				<extensions>
				</extensions>
			</trkpt>
			<trkpt lat="-28.060922" lon="152.649240">
				<ele>138</ele>
				<time>2015-05-07T04:04:35Z</time>
				<extensions>
				</extensions>
			</trkpt>
			<trkpt lat="-28.060699" lon="152.649240">
				<ele>137</ele>
				<time>2015-05-07T04:04:36Z</time>
				<extensions>
				</extensions>
			</trkpt>
			<trkpt lat="-28.060455" lon="152.649244">
				<ele>138</ele>
				<time>2015-05-07T04:04:37Z</time>
				<extensions>
				</extensions>
			</trkpt>
			<trkpt lat="-28.060222" lon="152.649253">
				<ele>142</ele>
				<time>2015-05-07T04:04:38Z</time>
				<extensions>
				</extensions>
			</trkpt>
			<trkpt lat="-28.059980" lon="152.649244">
				<ele>141</ele>
				<time>2015-05-07T04:04:39Z</time>
				<extensions>
				</extensions>
			</trkpt>
			<trkpt lat="-28.059741" lon="152.649240">
				<ele>140</ele>
				<time>2015-05-07T04:04:40Z</time>
				<extensions>
				</extensions>
			</trkpt>
			<trkpt lat="-28.059491" lon="152.649236">
				<ele>142</ele>
				<time>2015-05-07T04:04:41Z</time>
				<extensions>
				</extensions>
			</trkpt>
			<trkpt lat="-28.059240" lon="152.649228">
				<ele>142</ele>
				<time>2015-05-07T04:04:42Z</time>
				<extensions>
				</extensions>
			</trkpt>
			<trkpt lat="-28.058993" lon="152.649219">
				<ele>142</ele>
				<time>2015-05-07T04:04:43Z</time>
				<extensions>
				</extensions>
			</trkpt>
			<trkpt lat="-28.058758" lon="152.649213">
				<ele>140</ele>
				<time>2015-05-07T04:04:44Z</time>
				<extensions>
				</extensions>
			</trkpt>
			<trkpt lat="-28.058501" lon="152.649192">
				<ele>141</ele>
				<time>2015-05-07T04:04:45Z</time>
				<extensions>
				</extensions>
			</trkpt>
			<trkpt lat="-28.058264" lon="152.649170">
				<ele>140</ele>
				<time>2015-05-07T04:04:46Z</time>
				<extensions>
				</extensions>
			</trkpt>
			<trkpt lat="-28.058025" lon="152.649142">
				<ele>140</ele>
				<time>2015-05-07T04:04:47Z</time>
				<extensions>
				</extensions>
			</trkpt>
			<trkpt lat="-28.057779" lon="152.649154">
				<ele>140</ele>
				<time>2015-05-07T04:04:48Z</time>
				<extensions>
				</extensions>
			</trkpt>
			<trkpt lat="-28.057547" lon="152.649127">
				<ele>141</ele>
				<time>2015-05-07T04:04:49Z</time>
				<extensions>
				</extensions>
			</trkpt>
			<trkpt lat="-28.057312" lon="152.649125">
				<ele>140</ele>
				<time>2015-05-07T04:04:50Z</time>
				<extensions>
				</extensions>
			</trkpt>
			<trkpt lat="-28.057091" lon="152.649105">
				<ele>139</ele>
				<time>2015-05-07T04:04:51Z</time>
				<extensions>
				</extensions>
			</trkpt>
			<trkpt lat="-28.056862" lon="152.649106">
				<ele>138</ele>
				<time>2015-05-07T04:04:52Z</time>
				<extensions>
				</extensions>
			</trkpt>
			<trkpt lat="-28.056632" lon="152.649113">
				<ele>137</ele>
				<time>2015-05-07T04:04:53Z</time>
				<extensions>
				</extensions>
			</trkpt>
			<trkpt lat="-28.056394" lon="152.649103">
				<ele>135</ele>
				<time>2015-05-07T04:04:54Z</time>
				<extensions>
				</extensions>
			</trkpt>
			<trkpt lat="-28.056145" lon="152.649096">
				<ele>135</ele>
				<time>2015-05-07T04:04:55Z</time>
				<extensions>
				</extensions>
			</trkpt>
			<trkpt lat="-28.055895" lon="152.649099">
				<ele>134</ele>
				<time>2015-05-07T04:04:56Z</time>
				<extensions>
				</extensions>
			</trkpt>
			<trkpt lat="-28.055662" lon="152.649094">
				<ele>133</ele>
				<time>2015-05-07T04:04:57Z</time>
				<extensions>
				</extensions>
			</trkpt>
			<trkpt lat="-28.055432" lon="152.649088">
				<ele>132</ele>
				<time>2015-05-07T04:04:58Z</time>
				<extensions>
				</extensions>
			</trkpt>
			<trkpt lat="-28.055202" lon="152.649079">
				<ele>131</ele>
				<time>2015-05-07T04:04:59Z</time>
				<extensions>
				</extensions>
			</trkpt>
			<trkpt lat="-28.054978" lon="152.649068">
				<ele>129</ele>
				<time>2015-05-07T04:05:00Z</time>
				<extensions>
				</extensions>
			</trkpt>
			<trkpt lat="-28.054757" lon="152.649054">
				<ele>128</ele>
				<time>2015-05-07T04:05:01Z</time>
				<extensions>
				</extensions>
			</trkpt>
			<trkpt lat="-28.054544" lon="152.649039">
				<ele>128</ele>
				<time>2015-05-07T04:05:02Z</time>
				<extensions>
				</extensions>
			</trkpt>
			<trkpt lat="-28.054339" lon="152.649030">
				<ele>129</ele>
				<time>2015-05-07T04:05:03Z</time>
				<extensions>
				</extensions>
			</trkpt>
			<trkpt lat="-28.054142" lon="152.649007">
				<ele>126</ele>
				<time>2015-05-07T04:05:04Z</time>
				<extensions>
				</extensions>
			</trkpt>
			<trkpt lat="-28.053945" lon="152.649002">
				<ele>126</ele>
				<time>2015-05-07T04:05:05Z</time>
				<extensions>
				</extensions>
			</trkpt>
			<trkpt lat="-28.053753" lon="152.648999">
				<ele>126</ele>
				<time>2015-05-07T04:05:06Z</time>
				<extensions>
				</extensions>
			</trkpt>
			<trkpt lat="-28.053377" lon="152.649019">
				<ele>125</ele>
				<time>2015-05-07T04:05:08Z</time>
				<extensions>
				</extensions>
			</trkpt>
			<trkpt lat="-28.053172" lon="152.649066">
				<ele>124</ele>
				<time>2015-05-07T04:05:09Z</time>
				<extensions>
				</extensions>
			</trkpt>
			<trkpt lat="-28.052985" lon="152.649168">
				<ele>125</ele>
				<time>2015-05-07T04:05:10Z</time>
				<extensions>
				</extensions>
			</trkpt>
			<trkpt lat="-28.052815" lon="152.649290">
				<ele>125</ele>
				<time>2015-05-07T04:05:11Z</time>
				<extensions>
				</extensions>
			</trkpt>
			<trkpt lat="-28.052655" lon="152.649423">
				<ele>126</ele>
				<time>2015-05-07T04:05:12Z</time>
				<extensions>
				</extensions>
			</trkpt>
			<trkpt lat="-28.052499" lon="152.649570">
				<ele>127</ele>
				<time>2015-05-07T04:05:13Z</time>
				<extensions>
				</extensions>
			</trkpt>
			<trkpt lat="-28.052349" lon="152.649718">
				<ele>128</ele>
				<time>2015-05-07T04:05:14Z</time>
				<extensions>
				</extensions>
			</trkpt>
			<trkpt lat="-28.052196" lon="152.649866">
				<ele>129</ele>
				<time>2015-05-07T04:05:15Z</time>
				<extensions>
				</extensions>
			</trkpt>
			<trkpt lat="-28.052041" lon="152.650009">
				<ele>129</ele>
				<time>2015-05-07T04:05:16Z</time>
				<extensions>
				</extensions>
			</trkpt>
			<trkpt lat="-28.051887" lon="152.650154">
				<ele>128</ele>
				<time>2015-05-07T04:05:17Z</time>
				<extensions>
				</extensions>
			</trkpt>
			<trkpt lat="-28.051734" lon="152.650296">
				<ele>128</ele>
				<time>2015-05-07T04:05:18Z</time>
				<extensions>
				</extensions>
			</trkpt>
			<trkpt lat="-28.051577" lon="152.650446">
				<ele>128</ele>
				<time>2015-05-07T04:05:19Z</time>
				<extensions>
				</extensions>
			</trkpt>
			<trkpt lat="-28.051427" lon="152.650587">
				<ele>129</ele>
				<time>2015-05-07T04:05:20Z</time>
				<extensions>
				</extensions>
			</trkpt>
			<trkpt lat="-28.051267" lon="152.650737">
				<ele>129</ele>
				<time>2015-05-07T04:05:21Z</time>
				<extensions>
				</extensions>
			</trkpt>
			<trkpt lat="-28.051105" lon="152.650892">
				<ele>128</ele>
				<time>2015-05-07T04:05:22Z</time>
				<extensions>
				</extensions>
			</trkpt>
			<trkpt lat="-28.050944" lon="152.651041">
				<ele>128</ele>
				<time>2015-05-07T04:05:23Z</time>
				<extensions>
				</extensions>
			</trkpt>
			<trkpt lat="-28.050788" lon="152.651186">
				<ele>127</ele>
				<time>2015-05-07T04:05:24Z</time>
				<extensions>
				</extensions>
			</trkpt>
			<trkpt lat="-28.050628" lon="152.651334">
				<ele>126</ele>
				<time>2015-05-07T04:05:25Z</time>
				<extensions>
				</extensions>
			</trkpt>
			<trkpt lat="-28.050464" lon="152.651486">
				<ele>127</ele>
				<time>2015-05-07T04:05:26Z</time>
				<extensions>
				</extensions>
			</trkpt>
			<trkpt lat="-28.050296" lon="152.651642">
				<ele>128</ele>
				<time>2015-05-07T04:05:27Z</time>
				<extensions>
				</extensions>
			</trkpt>
			<trkpt lat="-28.050131" lon="152.651794">
				<ele>129</ele>
				<time>2015-05-07T04:05:28Z</time>
				<extensions>
				</extensions>
			</trkpt>
			<trkpt lat="-28.049968" lon="152.651945">
				<ele>130</ele>
				<time>2015-05-07T04:05:29Z</time>
				<extensions>
				</extensions>
			</trkpt>
			<trkpt lat="-28.049814" lon="152.652088">
				<ele>130</ele>
				<time>2015-05-07T04:05:30Z</time>
				<extensions>
				</extensions>
			</trkpt>
			<trkpt lat="-28.049660" lon="152.652216">
				<ele>129</ele>
				<time>2015-05-07T04:05:31Z</time>
				<extensions>
				</extensions>
			</trkpt>
			<trkpt lat="-28.049501" lon="152.652316">
				<ele>130</ele>
				<time>2015-05-07T04:05:32Z</time>
				<extensions>
				</extensions>
			</trkpt>
			<trkpt lat="-28.049326" lon="152.652394">
				<ele>129</ele>
				<time>2015-05-07T04:05:33Z</time>
				<extensions>
				</extensions>
			</trkpt>
			<trkpt lat="-28.049138" lon="152.652445">
				<ele>130</ele>
				<time>2015-05-07T04:05:34Z</time>
				<extensions>
				</extensions>
			</trkpt>
			<trkpt lat="-28.048949" lon="152.652482">
				<ele>129</ele>
				<time>2015-05-07T04:05:35Z</time>
				<extensions>
				</extensions>
			</trkpt>
			<trkpt lat="-28.048750" lon="152.652513">
				<ele>128</ele>
				<time>2015-05-07T04:05:36Z</time>
				<extensions>
				</extensions>
			</trkpt>
			<trkpt lat="-28.048519" lon="152.652546">
				<ele>127</ele>
				<time>2015-05-07T04:05:37Z</time>
				<extensions>
				</extensions>
			</trkpt>
			<trkpt lat="-28.048301" lon="152.652577">
				<ele>126</ele>
				<time>2015-05-07T04:05:38Z</time>
				<extensions>
				</extensions>
			</trkpt>
			<trkpt lat="-28.048090" lon="152.652608">
				<ele>126</ele>
				<time>2015-05-07T04:05:39Z</time>
				<extensions>
				</extensions>
			</trkpt>
			<trkpt lat="-28.047874" lon="152.652639">
				<ele>126</ele>
				<time>2015-05-07T04:05:40Z</time>
				<extensions>
				</extensions>
			</trkpt>
			<trkpt lat="-28.047662" lon="152.652673">
				<ele>125</ele>
				<time>2015-05-07T04:05:41Z</time>
				<extensions>
				</extensions>
			</trkpt>
			<trkpt lat="-28.047458" lon="152.652704">
				<ele>125</ele>
				<time>2015-05-07T04:05:42Z</time>
				<extensions>
				</extensions>
			</trkpt>
			<trkpt lat="-28.047257" lon="152.652734">
				<ele>127</ele>
				<time>2015-05-07T04:05:43Z</time>
				<extensions>
				</extensions>
			</trkpt>
			<trkpt lat="-28.047060" lon="152.652766">
				<ele>127</ele>
				<time>2015-05-07T04:05:44Z</time>
				<extensions>
				</extensions>
			</trkpt>
			<trkpt lat="-28.046868" lon="152.652796">
				<ele>127</ele>
				<time>2015-05-07T04:05:45Z</time>
				<extensions>
				</extensions>
			</trkpt>
			<trkpt lat="-28.046679" lon="152.652826">
				<ele>127</ele>
				<time>2015-05-07T04:05:46Z</time>
				<extensions>
				</extensions>
			</trkpt>
			<trkpt lat="-28.046490" lon="152.652855">
				<ele>128</ele>
				<time>2015-05-07T04:05:47Z</time>
				<extensions>
				</extensions>
			</trkpt>
			<trkpt lat="-28.046292" lon="152.652887">
				<ele>128</ele>
				<time>2015-05-07T04:05:48Z</time>
				<extensions>
				</extensions>
			</trkpt>
			<trkpt lat="-28.046105" lon="152.652917">
				<ele>127</ele>
				<time>2015-05-07T04:05:49Z</time>
				<extensions>
				</extensions>
			</trkpt>
			<trkpt lat="-28.045901" lon="152.652941">
				<ele>127</ele>
				<time>2015-05-07T04:05:50Z</time>
				<extensions>
				</extensions>
			</trkpt>
			<trkpt lat="-28.045692" lon="152.652971">
				<ele>127</ele>
				<time>2015-05-07T04:05:51Z</time>
				<extensions>
				</extensions>
			</trkpt>
			<trkpt lat="-28.045492" lon="152.652998">
				<ele>126</ele>
				<time>2015-05-07T04:05:52Z</time>
				<extensions>
				</extensions>
			</trkpt>
			<trkpt lat="-28.045277" lon="152.653041">
				<ele>124</ele>
				<time>2015-05-07T04:05:53Z</time>
				<extensions>
				</extensions>
			</trkpt>
			<trkpt lat="-28.045067" lon="152.653075">
				<ele>123</ele>
				<time>2015-05-07T04:05:54Z</time>
				<extensions>
				</extensions>
			</trkpt>
			<trkpt lat="-28.044864" lon="152.653113">
				<ele>122</ele>
				<time>2015-05-07T04:05:55Z</time>
				<extensions>
				</extensions>
			</trkpt>
			<trkpt lat="-28.044662" lon="152.653163">
				<ele>122</ele>
				<time>2015-05-07T04:05:56Z</time>
				<extensions>
				</extensions>
			</trkpt>
			<trkpt lat="-28.044465" lon="152.653222">
				<ele>119</ele>
				<time>2015-05-07T04:05:57Z</time>
				<extensions>
				</extensions>
			</trkpt>
			<trkpt lat="-28.044288" lon="152.653300">
				<ele>118</ele>
				<time>2015-05-07T04:05:58Z</time>
				<extensions>
				</extensions>
			</trkpt>
			<trkpt lat="-28.044105" lon="152.653386">
				<ele>118</ele>
				<time>2015-05-07T04:05:59Z</time>
				<extensions>
				</extensions>
			</trkpt>
			<trkpt lat="-28.043909" lon="152.653483">
				<ele>117</ele>
				<time>2015-05-07T04:06:00Z</time>
				<extensions>
				</extensions>
			</trkpt>
			<trkpt lat="-28.043716" lon="152.653578">
				<ele>119</ele>
				<time>2015-05-07T04:06:01Z</time>
				<extensions>
				</extensions>
			</trkpt>
			<trkpt lat="-28.043511" lon="152.653671">
				<ele>122</ele>
				<time>2015-05-07T04:06:02Z</time>
				<extensions>
				</extensions>
			</trkpt>
			<trkpt lat="-28.043301" lon="152.653766">
				<ele>122</ele>
				<time>2015-05-07T04:06:03Z</time>
				<extensions>
				</extensions>
			</trkpt>
			<trkpt lat="-28.043094" lon="152.653864">
				<ele>122</ele>
				<time>2015-05-07T04:06:04Z</time>
				<extensions>
				</extensions>
			</trkpt>
			<trkpt lat="-28.042890" lon="152.653970">
				<ele>123</ele>
				<time>2015-05-07T04:06:05Z</time>
				<extensions>
				</extensions>
			</trkpt>
			<trkpt lat="-28.042690" lon="152.654064">
				<ele>122</ele>
				<time>2015-05-07T04:06:06Z</time>
				<extensions>
				</extensions>
			</trkpt>
			<trkpt lat="-28.042482" lon="152.654157">
				<ele>125</ele>
				<time>2015-05-07T04:06:07Z</time>
				<extensions>
				</extensions>
			</trkpt>
			<trkpt lat="-28.042280" lon="152.654255">
				<ele>127</ele>
				<time>2015-05-07T04:06:08Z</time>
				<extensions>
				</extensions>
			</trkpt>
			<trkpt lat="-28.042082" lon="152.654354">
				<ele>130</ele>
				<time>2015-05-07T04:06:09Z</time>
				<extensions>
				</extensions>
			</trkpt>
			<trkpt lat="-28.041884" lon="152.654451">
				<ele>131</ele>
				<time>2015-05-07T04:06:10Z</time>
				<extensions>
				</extensions>
			</trkpt>
			<trkpt lat="-28.041692" lon="152.654543">
				<ele>131</ele>
				<time>2015-05-07T04:06:11Z</time>
				<extensions>
				</extensions>
			</trkpt>
			<trkpt lat="-28.041503" lon="152.654635">
				<ele>131</ele>
				<time>2015-05-07T04:06:12Z</time>
				<extensions>
				</extensions>
			</trkpt>
			<trkpt lat="-28.041329" lon="152.654724">
				<ele>132</ele>
				<time>2015-05-07T04:06:13Z</time>
				<extensions>
				</extensions>
			</trkpt>
			<trkpt lat="-28.041152" lon="152.654813">
				<ele>131</ele>
				<time>2015-05-07T04:06:14Z</time>
				<extensions>
				</extensions>
			</trkpt>
			<trkpt lat="-28.040968" lon="152.654904">
				<ele>131</ele>
				<time>2015-05-07T04:06:15Z</time>
				<extensions>
				</extensions>
			</trkpt>
			<trkpt lat="-28.040784" lon="152.654994">
				<ele>130</ele>
				<time>2015-05-07T04:06:16Z</time>
				<extensions>
				</extensions>
			</trkpt>
			<trkpt lat="-28.040588" lon="152.655091">
				<ele>129</ele>
				<time>2015-05-07T04:06:17Z</time>
				<extensions>
				</extensions>
			</trkpt>
			<trkpt lat="-28.040382" lon="152.655182">
				<ele>128</ele>
				<time>2015-05-07T04:06:18Z</time>
				<extensions>
				</extensions>
			</trkpt>
			<trkpt lat="-28.040177" lon="152.655278">
				<ele>127</ele>
				<time>2015-05-07T04:06:19Z</time>
				<extensions>
				</extensions>
			</trkpt>
			<trkpt lat="-28.039975" lon="152.655371">
				<ele>127</ele>
				<time>2015-05-07T04:06:20Z</time>
				<extensions>
				</extensions>
			</trkpt>
			<trkpt lat="-28.039760" lon="152.655471">
				<ele>127</ele>
				<time>2015-05-07T04:06:21Z</time>
				<extensions>
				</extensions>
			</trkpt>
			<trkpt lat="-28.039545" lon="152.655571">
				<ele>127</ele>
				<time>2015-05-07T04:06:22Z</time>
				<extensions>
				</extensions>
			</trkpt>
			<trkpt lat="-28.039332" lon="152.655674">
				<ele>128</ele>
				<time>2015-05-07T04:06:23Z</time>
				<extensions>
				</extensions>
			</trkpt>
			<trkpt lat="-28.039135" lon="152.655776">
				<ele>128</ele>
				<time>2015-05-07T04:06:24Z</time>
				<extensions>
				</extensions>
			</trkpt>
			<trkpt lat="-28.038933" lon="152.655873">
				<ele>127</ele>
				<time>2015-05-07T04:06:25Z</time>
				<extensions>
				</extensions>
			</trkpt>
			<trkpt lat="-28.038750" lon="152.655974">
				<ele>129</ele>
				<time>2015-05-07T04:06:26Z</time>
				<extensions>
				</extensions>
			</trkpt>
			<trkpt lat="-28.038558" lon="152.656058">
				<ele>131</ele>
				<time>2015-05-07T04:06:27Z</time>
				<extensions>
				</extensions>
			</trkpt>
			<trkpt lat="-28.038371" lon="152.656150">
				<ele>131</ele>
				<time>2015-05-07T04:06:28Z</time>
				<extensions>
				</extensions>
			</trkpt>
			<trkpt lat="-28.038174" lon="152.656241">
				<ele>130</ele>
				<time>2015-05-07T04:06:29Z</time>
				<extensions>
				</extensions>
			</trkpt>
			<trkpt lat="-28.037976" lon="152.656325">
				<ele>130</ele>
				<time>2015-05-07T04:06:30Z</time>
				<extensions>
				</extensions>
			</trkpt>
			<trkpt lat="-28.037785" lon="152.656414">
				<ele>126</ele>
				<time>2015-05-07T04:06:31Z</time>
				<extensions>
				</extensions>
			</trkpt>
			<trkpt lat="-28.037595" lon="152.656507">
				<ele>123</ele>
				<time>2015-05-07T04:06:32Z</time>
				<extensions>
				</extensions>
			</trkpt>
			<trkpt lat="-28.037399" lon="152.656599">
				<ele>122</ele>
				<time>2015-05-07T04:06:33Z</time>
				<extensions>
				</extensions>
			</trkpt>
			<trkpt lat="-28.037220" lon="152.656693">
				<ele>122</ele>
				<time>2015-05-07T04:06:34Z</time>
				<extensions>
				</extensions>
			</trkpt>
			<trkpt lat="-28.037024" lon="152.656790">
				<ele>123</ele>
				<time>2015-05-07T04:06:35Z</time>
				<extensions>
				</extensions>
			</trkpt>
			<trkpt lat="-28.036843" lon="152.656902">
				<ele>125</ele>
				<time>2015-05-07T04:06:36Z</time>
				<extensions>
				</extensions>
			</trkpt>
			<trkpt lat="-28.036672" lon="152.657030">
				<ele>125</ele>
				<time>2015-05-07T04:06:37Z</time>
				<extensions>
				</extensions>
			</trkpt>
			<trkpt lat="-28.036501" lon="152.657174">
				<ele>127</ele>
				<time>2015-05-07T04:06:38Z</time>
				<extensions>
				</extensions>
			</trkpt>
			<trkpt lat="-28.036344" lon="152.657346">
				<ele>129</ele>
				<time>2015-05-07T04:06:39Z</time>
				<extensions>
				</extensions>
			</trkpt>
			<trkpt lat="-28.036176" lon="152.657519">
				<ele>134</ele>
				<time>2015-05-07T04:06:40Z</time>
				<extensions>
				</extensions>
			</trkpt>
			<trkpt lat="-28.036009" lon="152.657700">
				<ele>135</ele>
				<time>2015-05-07T04:06:41Z</time>
				<extensions>
				</extensions>
			</trkpt>
			<trkpt lat="-28.035840" lon="152.657880">
				<ele>136</ele>
				<time>2015-05-07T04:06:42Z</time>
				<extensions>
				</extensions>
			</trkpt>
			<trkpt lat="-28.035674" lon="152.658062">
				<ele>136</ele>
				<time>2015-05-07T04:06:43Z</time>
				<extensions>
				</extensions>
			</trkpt>
			<trkpt lat="-28.035509" lon="152.658240">
				<ele>136</ele>
				<time>2015-05-07T04:06:44Z</time>
				<extensions>
				</extensions>
			</trkpt>
			<trkpt lat="-28.035345" lon="152.658406">
				<ele>134</ele>
				<time>2015-05-07T04:06:45Z</time>
				<extensions>
				</extensions>
			</trkpt>
			<trkpt lat="-28.035181" lon="152.658570">
				<ele>133</ele>
				<time>2015-05-07T04:06:46Z</time>
				<extensions>
				</extensions>
			</trkpt>
			<trkpt lat="-28.035009" lon="152.658719">
				<ele>132</ele>
				<time>2015-05-07T04:06:47Z</time>
				<extensions>
				</extensions>
			</trkpt>
			<trkpt lat="-28.034830" lon="152.658867">
				<ele>132</ele>
				<time>2015-05-07T04:06:48Z</time>
				<extensions>
				</extensions>
			</trkpt>
			<trkpt lat="-28.034640" lon="152.658974">
				<ele>130</ele>
				<time>2015-05-07T04:06:49Z</time>
				<extensions>
				</extensions>
			</trkpt>
			<trkpt lat="-28.034446" lon="152.659073">
				<ele>130</ele>
				<time>2015-05-07T04:06:50Z</time>
				<extensions>
				</extensions>
			</trkpt>
			<trkpt lat="-28.034240" lon="152.659173">
				<ele>128</ele>
				<time>2015-05-07T04:06:51Z</time>
				<extensions>
				</extensions>
			</trkpt>
			<trkpt lat="-28.034033" lon="152.659269">
				<ele>127</ele>
				<time>2015-05-07T04:06:52Z</time>
				<extensions>
				</extensions>
			</trkpt>
			<trkpt lat="-28.033820" lon="152.659372">
				<ele>124</ele>
				<time>2015-05-07T04:06:53Z</time>
				<extensions>
				</extensions>
			</trkpt>
			<trkpt lat="-28.033616" lon="152.659468">
				<ele>123</ele>
				<time>2015-05-07T04:06:54Z</time>
				<extensions>
				</extensions>
			</trkpt>
			<trkpt lat="-28.033410" lon="152.659561">
				<ele>120</ele>
				<time>2015-05-07T04:06:55Z</time>
				<extensions>
				</extensions>
			</trkpt>
			<trkpt lat="-28.033199" lon="152.659646">
				<ele>120</ele>
				<time>2015-05-07T04:06:56Z</time>
				<extensions>
				</extensions>
			</trkpt>
			<trkpt lat="-28.032997" lon="152.659760">
				<ele>118</ele>
				<time>2015-05-07T04:06:57Z</time>
				<extensions>
				</extensions>
			</trkpt>
			<trkpt lat="-28.032787" lon="152.659849">
				<ele>117</ele>
				<time>2015-05-07T04:06:58Z</time>
				<extensions>
				</extensions>
			</trkpt>
			<trkpt lat="-28.032578" lon="152.659941">
				<ele>115</ele>
				<time>2015-05-07T04:06:59Z</time>
				<extensions>
				</extensions>
			</trkpt>
			<trkpt lat="-28.032367" lon="152.660028">
				<ele>114</ele>
				<time>2015-05-07T04:07:00Z</time>
				<extensions>
				</extensions>
			</trkpt>
			<trkpt lat="-28.032151" lon="152.660124">
				<ele>114</ele>
				<time>2015-05-07T04:07:01Z</time>
				<extensions>
				</extensions>
			</trkpt>
			<trkpt lat="-28.031938" lon="152.660221">
				<ele>114</ele>
				<time>2015-05-07T04:07:02Z</time>
				<extensions>
				</extensions>
			</trkpt>
			<trkpt lat="-28.031728" lon="152.660318">
				<ele>113</ele>
				<time>2015-05-07T04:07:03Z</time>
				<extensions>
				</extensions>
			</trkpt>
			<trkpt lat="-28.031530" lon="152.660419">
				<ele>112</ele>
				<time>2015-05-07T04:07:04Z</time>
				<extensions>
				</extensions>
			</trkpt>
			<trkpt lat="-28.031339" lon="152.660542">
				<ele>110</ele>
				<time>2015-05-07T04:07:05Z</time>
				<extensions>
				</extensions>
			</trkpt>
			<trkpt lat="-28.031169" lon="152.660688">
				<ele>108</ele>
				<time>2015-05-07T04:07:06Z</time>
				<extensions>
				</extensions>
			</trkpt>
			<trkpt lat="-28.031000" lon="152.660853">
				<ele>109</ele>
				<time>2015-05-07T04:07:07Z</time>
				<extensions>
				</extensions>
			</trkpt>
			<trkpt lat="-28.030841" lon="152.661028">
				<ele>110</ele>
				<time>2015-05-07T04:07:08Z</time>
				<extensions>
				</extensions>
			</trkpt>
			<trkpt lat="-28.030681" lon="152.661205">
				<ele>110</ele>
				<time>2015-05-07T04:07:09Z</time>
				<extensions>
				</extensions>
			</trkpt>
			<trkpt lat="-28.030515" lon="152.661389">
				<ele>111</ele>
				<time>2015-05-07T04:07:10Z</time>
				<extensions>
				</extensions>
			</trkpt>
			<trkpt lat="-28.030352" lon="152.661569">
				<ele>111</ele>
				<time>2015-05-07T04:07:11Z</time>
				<extensions>
				</extensions>
			</trkpt>
			<trkpt lat="-28.030189" lon="152.661742">
				<ele>113</ele>
				<time>2015-05-07T04:07:12Z</time>
				<extensions>
				</extensions>
			</trkpt>
			<trkpt lat="-28.030038" lon="152.661912">
				<ele>112</ele>
				<time>2015-05-07T04:07:13Z</time>
				<extensions>
				</extensions>
			</trkpt>
			<trkpt lat="-28.029891" lon="152.662082">
				<ele>112</ele>
				<time>2015-05-07T04:07:14Z</time>
				<extensions>
				</extensions>
			</trkpt>
			<trkpt lat="-28.029746" lon="152.662255">
				<ele>112</ele>
				<time>2015-05-07T04:07:15Z</time>
				<extensions>
				</extensions>
			</trkpt>
			<trkpt lat="-28.029595" lon="152.662418">
				<ele>110</ele>
				<time>2015-05-07T04:07:16Z</time>
				<extensions>
				</extensions>
			</trkpt>
			<trkpt lat="-28.029446" lon="152.662578">
				<ele>110</ele>
				<time>2015-05-07T04:07:17Z</time>
				<extensions>
				</extensions>
			</trkpt>
			<trkpt lat="-28.029298" lon="152.662733">
				<ele>111</ele>
				<time>2015-05-07T04:07:18Z</time>
				<extensions>
				</extensions>
			</trkpt>
			<trkpt lat="-28.029163" lon="152.662879">
				<ele>112</ele>
				<time>2015-05-07T04:07:19Z</time>
				<extensions>
				</extensions>
			</trkpt>
			<trkpt lat="-28.028900" lon="152.663150">
				<ele>110</ele>
				<time>2015-05-07T04:07:21Z</time>
				<extensions>
				</extensions>
			</trkpt>
			<trkpt lat="-28.028681" lon="152.663404">
				<ele>106</ele>
				<time>2015-05-07T04:07:23Z</time>
				<extensions>
				</extensions>
			</trkpt>
			<trkpt lat="-28.028508" lon="152.663657">
				<ele>104</ele>
				<time>2015-05-07T04:07:25Z</time>
				<extensions>
				</extensions>
			</trkpt>
			<trkpt lat="-28.028359" lon="152.663904">
				<ele>104</ele>
				<time>2015-05-07T04:07:27Z</time>
				<extensions>
				</extensions>
			</trkpt>
			<trkpt lat="-28.028227" lon="152.664184">
				<ele>104</ele>
				<time>2015-05-07T04:07:29Z</time>
				<extensions>
				</extensions>
			</trkpt>
			<trkpt lat="-28.028087" lon="152.664486">
				<ele>105</ele>
				<time>2015-05-07T04:07:31Z</time>
				<extensions>
				</extensions>
			</trkpt>
			<trkpt lat="-28.027928" lon="152.664780">
				<ele>106</ele>
				<time>2015-05-07T04:07:33Z</time>
				<extensions>
				</extensions>
			</trkpt>
			<trkpt lat="-28.027734" lon="152.665020">
				<ele>106</ele>
				<time>2015-05-07T04:07:35Z</time>
				<extensions>
				</extensions>
			</trkpt>
			<trkpt lat="-28.027447" lon="152.665183">
				<ele>106</ele>
				<time>2015-05-07T04:07:37Z</time>
				<extensions>
				</extensions>
			</trkpt>
			<trkpt lat="-28.027108" lon="152.665307">
				<ele>109</ele>
				<time>2015-05-07T04:07:39Z</time>
				<extensions>
				</extensions>
			</trkpt>
			<trkpt lat="-28.026924" lon="152.665356">
				<ele>110</ele>
				<time>2015-05-07T04:07:40Z</time>
				<extensions>
				</extensions>
			</trkpt>
			<trkpt lat="-28.026728" lon="152.665419">
				<ele>110</ele>
				<time>2015-05-07T04:07:41Z</time>
				<extensions>
				</extensions>
			</trkpt>
			<trkpt lat="-28.026528" lon="152.665472">
				<ele>111</ele>
				<time>2015-05-07T04:07:42Z</time>
				<extensions>
				</extensions>
			</trkpt>
			<trkpt lat="-28.026324" lon="152.665526">
				<ele>110</ele>
				<time>2015-05-07T04:07:43Z</time>
				<extensions>
				</extensions>
			</trkpt>
			<trkpt lat="-28.026119" lon="152.665578">
				<ele>112</ele>
				<time>2015-05-07T04:07:44Z</time>
				<extensions>
				</extensions>
			</trkpt>
			<trkpt lat="-28.025913" lon="152.665629">
				<ele>113</ele>
				<time>2015-05-07T04:07:45Z</time>
				<extensions>
				</extensions>
			</trkpt>
			<trkpt lat="-28.025715" lon="152.665681">
				<ele>112</ele>
				<time>2015-05-07T04:07:46Z</time>
				<extensions>
				</extensions>
			</trkpt>
			<trkpt lat="-28.025511" lon="152.665739">
				<ele>111</ele>
				<time>2015-05-07T04:07:47Z</time>
				<extensions>
				</extensions>
			</trkpt>
			<trkpt lat="-28.025292" lon="152.665807">
				<ele>112</ele>
				<time>2015-05-07T04:07:48Z</time>
				<extensions>
				</extensions>
			</trkpt>
			<trkpt lat="-28.025082" lon="152.665884">
				<ele>111</ele>
				<time>2015-05-07T04:07:49Z</time>
				<extensions>
				</extensions>
			</trkpt>
			<trkpt lat="-28.024876" lon="152.665968">
				<ele>111</ele>
				<time>2015-05-07T04:07:50Z</time>
				<extensions>
				</extensions>
			</trkpt>
			<trkpt lat="-28.024676" lon="152.666061">
				<ele>112</ele>
				<time>2015-05-07T04:07:51Z</time>
				<extensions>
				</extensions>
			</trkpt>
			<trkpt lat="-28.024480" lon="152.666162">
				<ele>112</ele>
				<time>2015-05-07T04:07:52Z</time>
				<extensions>
				</extensions>
			</trkpt>
			<trkpt lat="-28.024296" lon="152.666268">
				<ele>111</ele>
				<time>2015-05-07T04:07:53Z</time>
				<extensions>
				</extensions>
			</trkpt>
			<trkpt lat="-28.024119" lon="152.666381">
				<ele>111</ele>
				<time>2015-05-07T04:07:54Z</time>
				<extensions>
				</extensions>
			</trkpt>
			<trkpt lat="-28.023928" lon="152.666507">
				<ele>111</ele>
				<time>2015-05-07T04:07:55Z</time>
				<extensions>
				</extensions>
			</trkpt>
			<trkpt lat="-28.023760" lon="152.666635">
				<ele>111</ele>
				<time>2015-05-07T04:07:56Z</time>
				<extensions>
				</extensions>
			</trkpt>
			<trkpt lat="-28.023588" lon="152.666775">
				<ele>110</ele>
				<time>2015-05-07T04:07:57Z</time>
				<extensions>
				</extensions>
			</trkpt>
			<trkpt lat="-28.023419" lon="152.666925">
				<ele>110</ele>
				<time>2015-05-07T04:07:58Z</time>
				<extensions>
				</extensions>
			</trkpt>
			<trkpt lat="-28.023248" lon="152.667081">
				<ele>111</ele>
				<time>2015-05-07T04:07:59Z</time>
				<extensions>
				</extensions>
			</trkpt>
			<trkpt lat="-28.023088" lon="152.667246">
				<ele>112</ele>
				<time>2015-05-07T04:08:00Z</time>
				<extensions>
				</extensions>
			</trkpt>
			<trkpt lat="-28.022933" lon="152.667412">
				<ele>112</ele>
				<time>2015-05-07T04:08:01Z</time>
				<extensions>
				</extensions>
			</trkpt>
			<trkpt lat="-28.022790" lon="152.667578">
				<ele>111</ele>
				<time>2015-05-07T04:08:02Z</time>
				<extensions>
				</extensions>
			</trkpt>
			<trkpt lat="-28.022655" lon="152.667734">
				<ele>110</ele>
				<time>2015-05-07T04:08:03Z</time>
				<extensions>
				</extensions>
			</trkpt>
			<trkpt lat="-28.022518" lon="152.667887">
				<ele>109</ele>
				<time>2015-05-07T04:08:04Z</time>
				<extensions>
				</extensions>
			</trkpt>
			<trkpt lat="-28.022382" lon="152.668040">
				<ele>110</ele>
				<time>2015-05-07T04:08:05Z</time>
				<extensions>
				</extensions>
			</trkpt>
			<trkpt lat="-28.022239" lon="152.668188">
				<ele>109</ele>
				<time>2015-05-07T04:08:06Z</time>
				<extensions>
				</extensions>
			</trkpt>
			<trkpt lat="-28.022094" lon="152.668340">
				<ele>110</ele>
				<time>2015-05-07T04:08:07Z</time>
				<extensions>
				</extensions>
			</trkpt>
			<trkpt lat="-28.021941" lon="152.668487">
				<ele>109</ele>
				<time>2015-05-07T04:08:08Z</time>
				<extensions>
				</extensions>
			</trkpt>
			<trkpt lat="-28.021787" lon="152.668616">
				<ele>109</ele>
				<time>2015-05-07T04:08:09Z</time>
				<extensions>
				</extensions>
			</trkpt>
			<trkpt lat="-28.021615" lon="152.668737">
				<ele>110</ele>
				<time>2015-05-07T04:08:10Z</time>
				<extensions>
				</extensions>
			</trkpt>
			<trkpt lat="-28.021445" lon="152.668856">
				<ele>111</ele>
				<time>2015-05-07T04:08:11Z</time>
				<extensions>
				</extensions>
			</trkpt>
			<trkpt lat="-28.021273" lon="152.668972">
				<ele>113</ele>
				<time>2015-05-07T04:08:12Z</time>
				<extensions>
				</extensions>
			</trkpt>
			<trkpt lat="-28.021096" lon="152.669085">
				<ele>113</ele>
				<time>2015-05-07T04:08:13Z</time>
				<extensions>
				</extensions>
			</trkpt>
			<trkpt lat="-28.020911" lon="152.669211">
				<ele>112</ele>
				<time>2015-05-07T04:08:14Z</time>
				<extensions>
				</extensions>
			</trkpt>
			<trkpt lat="-28.020735" lon="152.669329">
				<ele>112</ele>
				<time>2015-05-07T04:08:15Z</time>
				<extensions>
				</extensions>
			</trkpt>
			<trkpt lat="-28.020560" lon="152.669444">
				<ele>111</ele>
				<time>2015-05-07T04:08:16Z</time>
				<extensions>
				</extensions>
			</trkpt>
			<trkpt lat="-28.020389" lon="152.669552">
				<ele>110</ele>
				<time>2015-05-07T04:08:17Z</time>
				<extensions>
				</extensions>
			</trkpt>
			<trkpt lat="-28.020217" lon="152.669664">
				<ele>108</ele>
				<time>2015-05-07T04:08:18Z</time>
				<extensions>
				</extensions>
			</trkpt>
			<trkpt lat="-28.020059" lon="152.669770">
				<ele>108</ele>
				<time>2015-05-07T04:08:19Z</time>
				<extensions>
				</extensions>
			</trkpt>
			<trkpt lat="-28.019773" lon="152.669958">
				<ele>105</ele>
				<time>2015-05-07T04:08:21Z</time>
				<extensions>
				</extensions>
			</trkpt>
			<trkpt lat="-28.019507" lon="152.670131">
				<ele>103</ele>
				<time>2015-05-07T04:08:23Z</time>
				<extensions>
				</extensions>
			</trkpt>
			<trkpt lat="-28.019231" lon="152.670302">
				<ele>104</ele>
				<time>2015-05-07T04:08:25Z</time>
				<extensions>
				</extensions>
			</trkpt>
			<trkpt lat="-28.018916" lon="152.670476">
				<ele>104</ele>
				<time>2015-05-07T04:08:27Z</time>
				<extensions>
				</extensions>
			</trkpt>
			<trkpt lat="-28.018596" lon="152.670605">
				<ele>105</ele>
				<time>2015-05-07T04:08:29Z</time>
				<extensions>
				</extensions>
			</trkpt>
			<trkpt lat="-28.018273" lon="152.670728">
				<ele>104</ele>
				<time>2015-05-07T04:08:31Z</time>
				<extensions>
				</extensions>
			</trkpt>
			<trkpt lat="-28.017935" lon="152.670846">
				<ele>104</ele>
				<time>2015-05-07T04:08:33Z</time>
				<extensions>
				</extensions>
			</trkpt>
			<trkpt lat="-28.017600" lon="152.670974">
				<ele>106</ele>
				<time>2015-05-07T04:08:35Z</time>
				<extensions>
				</extensions>
			</trkpt>
			<trkpt lat="-28.017293" lon="152.671138">
				<ele>104</ele>
				<time>2015-05-07T04:08:37Z</time>
				<extensions>
				</extensions>
			</trkpt>
			<trkpt lat="-28.017128" lon="152.671247">
				<ele>104</ele>
				<time>2015-05-07T04:08:38Z</time>
				<extensions>
				</extensions>
			</trkpt>
			<trkpt lat="-28.016978" lon="152.671366">
				<ele>105</ele>
				<time>2015-05-07T04:08:39Z</time>
				<extensions>
				</extensions>
			</trkpt>
			<trkpt lat="-28.016825" lon="152.671506">
				<ele>105</ele>
				<time>2015-05-07T04:08:40Z</time>
				<extensions>
				</extensions>
			</trkpt>
			<trkpt lat="-28.016675" lon="152.671661">
				<ele>105</ele>
				<time>2015-05-07T04:08:41Z</time>
				<extensions>
				</extensions>
			</trkpt>
			<trkpt lat="-28.016522" lon="152.671834">
				<ele>105</ele>
				<time>2015-05-07T04:08:42Z</time>
				<extensions>
				</extensions>
			</trkpt>
			<trkpt lat="-28.016380" lon="152.671994">
				<ele>106</ele>
				<time>2015-05-07T04:08:43Z</time>
				<extensions>
				</extensions>
			</trkpt>
			<trkpt lat="-28.016238" lon="152.672155">
				<ele>106</ele>
				<time>2015-05-07T04:08:44Z</time>
				<extensions>
				</extensions>
			</trkpt>
			<trkpt lat="-28.016091" lon="152.672321">
				<ele>106</ele>
				<time>2015-05-07T04:08:45Z</time>
				<extensions>
				</extensions>
			</trkpt>
			<trkpt lat="-28.015947" lon="152.672492">
				<ele>106</ele>
				<time>2015-05-07T04:08:46Z</time>
				<extensions>
				</extensions>
			</trkpt>
			<trkpt lat="-28.015798" lon="152.672669">
				<ele>107</ele>
				<time>2015-05-07T04:08:47Z</time>
				<extensions>
				</extensions>
			</trkpt>
			<trkpt lat="-28.015641" lon="152.672848">
				<ele>109</ele>
				<time>2015-05-07T04:08:48Z</time>
				<extensions>
				</extensions>
			</trkpt>
			<trkpt lat="-28.015473" lon="152.673036">
				<ele>111</ele>
				<time>2015-05-07T04:08:49Z</time>
				<extensions>
				</extensions>
			</trkpt>
			<trkpt lat="-28.015306" lon="152.673229">
				<ele>111</ele>
				<time>2015-05-07T04:08:50Z</time>
				<extensions>
				</extensions>
			</trkpt>
			<trkpt lat="-28.015138" lon="152.673420">
				<ele>112</ele>
				<time>2015-05-07T04:08:51Z</time>
				<extensions>
				</extensions>
			</trkpt>
			<trkpt lat="-28.014973" lon="152.673610">
				<ele>111</ele>
				<time>2015-05-07T04:08:52Z</time>
				<extensions>
				</extensions>
			</trkpt>
			<trkpt lat="-28.014812" lon="152.673795">
				<ele>112</ele>
				<time>2015-05-07T04:08:53Z</time>
				<extensions>
				</extensions>
			</trkpt>
			<trkpt lat="-28.014656" lon="152.673975">
				<ele>109</ele>
				<time>2015-05-07T04:08:54Z</time>
				<extensions>
				</extensions>
			</trkpt>
			<trkpt lat="-28.014505" lon="152.674153">
				<ele>108</ele>
				<time>2015-05-07T04:08:55Z</time>
				<extensions>
				</extensions>
			</trkpt>
			<trkpt lat="-28.014350" lon="152.674324">
				<ele>109</ele>
				<time>2015-05-07T04:08:56Z</time>
				<extensions>
				</extensions>
			</trkpt>
			<trkpt lat="-28.014201" lon="152.674493">
				<ele>108</ele>
				<time>2015-05-07T04:08:57Z</time>
				<extensions>
				</extensions>
			</trkpt>
			<trkpt lat="-28.014044" lon="152.674665">
				<ele>107</ele>
				<time>2015-05-07T04:08:58Z</time>
				<extensions>
				</extensions>
			</trkpt>
			<trkpt lat="-28.013893" lon="152.674839">
				<ele>107</ele>
				<time>2015-05-07T04:08:59Z</time>
				<extensions>
				</extensions>
			</trkpt>
			<trkpt lat="-28.013746" lon="152.675013">
				<ele>108</ele>
				<time>2015-05-07T04:09:00Z</time>
				<extensions>
				</extensions>
			</trkpt>
			<trkpt lat="-28.013601" lon="152.675171">
				<ele>107</ele>
				<time>2015-05-07T04:09:01Z</time>
				<extensions>
				</extensions>
			</trkpt>
			<trkpt lat="-28.013449" lon="152.675334">
				<ele>105</ele>
				<time>2015-05-07T04:09:02Z</time>
				<extensions>
				</extensions>
			</trkpt>
			<trkpt lat="-28.013304" lon="152.675484">
				<ele>103</ele>
				<time>2015-05-07T04:09:03Z</time>
				<extensions>
				</extensions>
			</trkpt>
			<trkpt lat="-28.013173" lon="152.675633">
				<ele>102</ele>
				<time>2015-05-07T04:09:04Z</time>
				<extensions>
				</extensions>
			</trkpt>
			<trkpt lat="-28.012918" lon="152.675931">
				<ele>101</ele>
				<time>2015-05-07T04:09:06Z</time>
				<extensions>
				</extensions>
			</trkpt>
			<trkpt lat="-28.012785" lon="152.676084">
				<ele>102</ele>
				<time>2015-05-07T04:09:07Z</time>
				<extensions>
				</extensions>
			</trkpt>
			<trkpt lat="-28.012653" lon="152.676234">
				<ele>102</ele>
				<time>2015-05-07T04:09:08Z</time>
				<extensions>
				</extensions>
			</trkpt>
			<trkpt lat="-28.012505" lon="152.676378">
				<ele>102</ele>
				<time>2015-05-07T04:09:09Z</time>
				<extensions>
				</extensions>
			</trkpt>
			<trkpt lat="-28.012357" lon="152.676513">
				<ele>102</ele>
				<time>2015-05-07T04:09:10Z</time>
				<extensions>
				</extensions>
			</trkpt>
			<trkpt lat="-28.012209" lon="152.676648">
				<ele>102</ele>
				<time>2015-05-07T04:09:11Z</time>
				<extensions>
				</extensions>
			</trkpt>
			<trkpt lat="-28.012047" lon="152.676775">
				<ele>102</ele>
				<time>2015-05-07T04:09:12Z</time>
				<extensions>
				</extensions>
			</trkpt>
			<trkpt lat="-28.011878" lon="152.676898">
				<ele>102</ele>
				<time>2015-05-07T04:09:13Z</time>
				<extensions>
				</extensions>
			</trkpt>
			<trkpt lat="-28.011710" lon="152.677033">
				<ele>103</ele>
				<time>2015-05-07T04:09:14Z</time>
				<extensions>
				</extensions>
			</trkpt>
			<trkpt lat="-28.011534" lon="152.677169">
				<ele>104</ele>
				<time>2015-05-07T04:09:15Z</time>
				<extensions>
				</extensions>
			</trkpt>
			<trkpt lat="-28.011364" lon="152.677304">
				<ele>103</ele>
				<time>2015-05-07T04:09:16Z</time>
				<extensions>
				</extensions>
			</trkpt>
			<trkpt lat="-28.011198" lon="152.677430">
				<ele>103</ele>
				<time>2015-05-07T04:09:17Z</time>
				<extensions>
				</extensions>
			</trkpt>
			<trkpt lat="-28.011034" lon="152.677561">
				<ele>102</ele>
				<time>2015-05-07T04:09:18Z</time>
				<extensions>
				</extensions>
			</trkpt>
			<trkpt lat="-28.010869" lon="152.677682">
				<ele>102</ele>
				<time>2015-05-07T04:09:19Z</time>
				<extensions>
				</extensions>
			</trkpt>
			<trkpt lat="-28.010713" lon="152.677800">
				<ele>102</ele>
				<time>2015-05-07T04:09:20Z</time>
				<extensions>
				</extensions>
			</trkpt>
			<trkpt lat="-28.010557" lon="152.677924">
				<ele>101</ele>
				<time>2015-05-07T04:09:21Z</time>
				<extensions>
				</extensions>
			</trkpt>
			<trkpt lat="-28.010401" lon="152.678050">
				<ele>103</ele>
				<time>2015-05-07T04:09:22Z</time>
				<extensions>
				</extensions>
			</trkpt>
			<trkpt lat="-28.010252" lon="152.678172">
				<ele>102</ele>
				<time>2015-05-07T04:09:23Z</time>
				<extensions>
				</extensions>
			</trkpt>
			<trkpt lat="-28.009955" lon="152.678399">
				<ele>102</ele>
				<time>2015-05-07T04:09:25Z</time>
				<extensions>
				</extensions>
			</trkpt>
			<trkpt lat="-28.009676" lon="152.678612">
				<ele>101</ele>
				<time>2015-05-07T04:09:27Z</time>
				<extensions>
				</extensions>
			</trkpt>
			<trkpt lat="-28.009414" lon="152.678812">
				<ele>100</ele>
				<time>2015-05-07T04:09:29Z</time>
				<extensions>
				</extensions>
			</trkpt>
			<trkpt lat="-28.009142" lon="152.679029">
				<ele>100</ele>
				<time>2015-05-07T04:09:31Z</time>
				<extensions>
				</extensions>
			</trkpt>
			<trkpt lat="-28.008864" lon="152.679271">
				<ele>100</ele>
				<time>2015-05-07T04:09:33Z</time>
				<extensions>
				</extensions>
			</trkpt>
			<trkpt lat="-28.008722" lon="152.679404">
				<ele>100</ele>
				<time>2015-05-07T04:09:34Z</time>
				<extensions>
				</extensions>
			</trkpt>
			<trkpt lat="-28.008577" lon="152.679541">
				<ele>100</ele>
				<time>2015-05-07T04:09:35Z</time>
				<extensions>
				</extensions>
			</trkpt>
			<trkpt lat="-28.008437" lon="152.679672">
				<ele>102</ele>
				<time>2015-05-07T04:09:36Z</time>
				<extensions>
				</extensions>
			</trkpt>
			<trkpt lat="-28.008167" lon="152.679941">
				<ele>101</ele>
				<time>2015-05-07T04:09:38Z</time>
				<extensions>
				</extensions>
			</trkpt>
			<trkpt lat="-28.007886" lon="152.680146">
				<ele>101</ele>
				<time>2015-05-07T04:09:40Z</time>
				<extensions>
				</extensions>
			</trkpt>
			<trkpt lat="-28.007546" lon="152.680301">
				<ele>101</ele>
				<time>2015-05-07T04:09:42Z</time>
				<extensions>
				</extensions>
			</trkpt>
			<trkpt lat="-28.007227" lon="152.680369">
				<ele>101</ele>
				<time>2015-05-07T04:09:44Z</time>
				<extensions>
				</extensions>
			</trkpt>
			<trkpt lat="-28.006898" lon="152.680399">
				<ele>101</ele>
				<time>2015-05-07T04:09:46Z</time>
				<extensions>
				</extensions>
			</trkpt>
			<trkpt lat="-28.006550" lon="152.680408">
				<ele>102</ele>
				<time>2015-05-07T04:09:48Z</time>
				<extensions>
				</extensions>
			</trkpt>
			<trkpt lat="-28.006211" lon="152.680427">
				<ele>100</ele>
				<time>2015-05-07T04:09:50Z</time>
				<extensions>
				</extensions>
			</trkpt>
			<trkpt lat="-28.005874" lon="152.680498">
				<ele>100</ele>
				<time>2015-05-07T04:09:52Z</time>
				<extensions>
				</extensions>
			</trkpt>
			<trkpt lat="-28.005579" lon="152.680611">
				<ele>97</ele>
				<time>2015-05-07T04:09:54Z</time>
				<extensions>
				</extensions>
			</trkpt>
			<trkpt lat="-28.005339" lon="152.680707">
				<ele>95</ele>
				<time>2015-05-07T04:09:56Z</time>
				<extensions>
				</extensions>
			</trkpt>
			<trkpt lat="-28.005160" lon="152.680788">
				<ele>93</ele>
				<time>2015-05-07T04:09:58Z</time>
				<extensions>
				</extensions>
			</trkpt>
			<trkpt lat="-28.004901" lon="152.680886">
				<ele>93</ele>
				<time>2015-05-07T04:10:01Z</time>
				<extensions>
				</extensions>
			</trkpt>
			<trkpt lat="-28.004725" lon="152.680953">
				<ele>93</ele>
				<time>2015-05-07T04:10:03Z</time>
				<extensions>
				</extensions>
			</trkpt>
			<trkpt lat="-28.004515" lon="152.681003">
				<ele>92</ele>
				<time>2015-05-07T04:10:06Z</time>
				<extensions>
				</extensions>
			</trkpt>
			<trkpt lat="-28.004338" lon="152.680897">
				<ele>91</ele>
				<time>2015-05-07T04:10:09Z</time>
				<extensions>
				</extensions>
			</trkpt>
			<trkpt lat="-28.004262" lon="152.680590">
				<ele>93</ele>
				<time>2015-05-07T04:10:12Z</time>
				<extensions>
				</extensions>
			</trkpt>
			<trkpt lat="-28.004208" lon="152.680323">
				<ele>93</ele>
				<time>2015-05-07T04:10:14Z</time>
				<extensions>
				</extensions>
			</trkpt>
			<trkpt lat="-28.004168" lon="152.680035">
				<ele>94</ele>
				<time>2015-05-07T04:10:16Z</time>
				<extensions>
				</extensions>
			</trkpt>
			<trkpt lat="-28.004126" lon="152.679741">
				<ele>94</ele>
				<time>2015-05-07T04:10:18Z</time>
				<extensions>
				</extensions>
			</trkpt>
			<trkpt lat="-28.004100" lon="152.679459">
				<ele>94</ele>
				<time>2015-05-07T04:10:20Z</time>
				<extensions>
				</extensions>
			</trkpt>
			<trkpt lat="-28.004075" lon="152.679171">
				<ele>94</ele>
				<time>2015-05-07T04:10:22Z</time>
				<extensions>
				</extensions>
			</trkpt>
			<trkpt lat="-28.004010" lon="152.678892">
				<ele>95</ele>
				<time>2015-05-07T04:10:24Z</time>
				<extensions>
				</extensions>
			</trkpt>
			<trkpt lat="-28.003925" lon="152.678616">
				<ele>94</ele>
				<time>2015-05-07T04:10:26Z</time>
				<extensions>
				</extensions>
			</trkpt>
			<trkpt lat="-28.003785" lon="152.678396">
				<ele>94</ele>
				<time>2015-05-07T04:10:28Z</time>
				<extensions>
				</extensions>
			</trkpt>
			<trkpt lat="-28.003593" lon="152.678208">
				<ele>95</ele>
				<time>2015-05-07T04:10:30Z</time>
				<extensions>
				</extensions>
			</trkpt>
			<trkpt lat="-28.003375" lon="152.677997">
				<ele>97</ele>
				<time>2015-05-07T04:10:32Z</time>
				<extensions>
				</extensions>
			</trkpt>
			<trkpt lat="-28.003193" lon="152.677837">
				<ele>97</ele>
				<time>2015-05-07T04:10:34Z</time>
				<extensions>
				</extensions>
			</trkpt>
			<trkpt lat="-28.003127" lon="152.677572">
				<ele>99</ele>
				<time>2015-05-07T04:10:37Z</time>
				<extensions>
				</extensions>
			</trkpt>
			<trkpt lat="-28.003243" lon="152.677319">
				<ele>100</ele>
				<time>2015-05-07T04:10:39Z</time>
				<extensions>
				</extensions>
			</trkpt>
			<trkpt lat="-28.003402" lon="152.677090">
				<ele>99</ele>
				<time>2015-05-07T04:10:41Z</time>
				<extensions>
				</extensions>
			</trkpt>
			<trkpt lat="-28.003551" lon="152.676870">
				<ele>100</ele>
				<time>2015-05-07T04:10:43Z</time>
				<extensions>
				</extensions>
			</trkpt>
			<trkpt lat="-28.003672" lon="152.676629">
				<ele>99</ele>
				<time>2015-05-07T04:10:45Z</time>
				<extensions>
				</extensions>
			</trkpt>
			<trkpt lat="-28.003696" lon="152.676340">
				<ele>100</ele>
				<time>2015-05-07T04:10:47Z</time>
				<extensions>
				</extensions>
			</trkpt>
			<trkpt lat="-28.003657" lon="152.676044">
				<ele>102</ele>
				<time>2015-05-07T04:10:49Z</time>
				<extensions>
				</extensions>
			</trkpt>
			<trkpt lat="-28.003612" lon="152.675717">
				<ele>105</ele>
				<time>2015-05-07T04:10:51Z</time>
				<extensions>
				</extensions>
			</trkpt>
			<trkpt lat="-28.003565" lon="152.675357">
				<ele>109</ele>
				<time>2015-05-07T04:10:53Z</time>
				<extensions>
				</extensions>
			</trkpt>
			<trkpt lat="-28.003516" lon="152.674982">
				<ele>112</ele>
				<time>2015-05-07T04:10:55Z</time>
				<extensions>
				</extensions>
			</trkpt>
			<trkpt lat="-28.003474" lon="152.674645">
				<ele>113</ele>
				<time>2015-05-07T04:10:57Z</time>
				<extensions>
				</extensions>
			</trkpt>
			<trkpt lat="-28.003429" lon="152.674303">
				<ele>114</ele>
				<time>2015-05-07T04:10:59Z</time>
				<extensions>
				</extensions>
			</trkpt>
			<trkpt lat="-28.003387" lon="152.673939">
				<ele>117</ele>
				<time>2015-05-07T04:11:01Z</time>
				<extensions>
				</extensions>
			</trkpt>
			<trkpt lat="-28.003331" lon="152.673566">
				<ele>119</ele>
				<time>2015-05-07T04:11:03Z</time>
				<extensions>
				</extensions>
			</trkpt>
			<trkpt lat="-28.003277" lon="152.673183">
				<ele>120</ele>
				<time>2015-05-07T04:11:05Z</time>
				<extensions>
				</extensions>
			</trkpt>
			<trkpt lat="-28.003231" lon="152.672829">
				<ele>121</ele>
				<time>2015-05-07T04:11:07Z</time>
				<extensions>
				</extensions>
			</trkpt>
			<trkpt lat="-28.003198" lon="152.672465">
				<ele>125</ele>
				<time>2015-05-07T04:11:09Z</time>
				<extensions>
				</extensions>
			</trkpt>
			<trkpt lat="-28.003154" lon="152.672106">
				<ele>128</ele>
				<time>2015-05-07T04:11:11Z</time>
				<extensions>
				</extensions>
			</trkpt>
			<trkpt lat="-28.003106" lon="152.671794">
				<ele>130</ele>
				<time>2015-05-07T04:11:13Z</time>
				<extensions>
				</extensions>
			</trkpt>
			<trkpt lat="-28.003065" lon="152.671466">
				<ele>129</ele>
				<time>2015-05-07T04:11:15Z</time>
				<extensions>
				</extensions>
			</trkpt>
			<trkpt lat="-28.003025" lon="152.671143">
				<ele>127</ele>
				<time>2015-05-07T04:11:17Z</time>
				<extensions>
				</extensions>
			</trkpt>
			<trkpt lat="-28.002977" lon="152.670804">
				<ele>123</ele>
				<time>2015-05-07T04:11:19Z</time>
				<extensions>
				</extensions>
			</trkpt>
			<trkpt lat="-28.002937" lon="152.670462">
				<ele>122</ele>
				<time>2015-05-07T04:11:21Z</time>
				<extensions>
				</extensions>
			</trkpt>
			<trkpt lat="-28.002886" lon="152.670090">
				<ele>123</ele>
				<time>2015-05-07T04:11:23Z</time>
				<extensions>
				</extensions>
			</trkpt>
			<trkpt lat="-28.002854" lon="152.669881">
				<ele>124</ele>
				<time>2015-05-07T04:11:24Z</time>
				<extensions>
				</extensions>
			</trkpt>
			<trkpt lat="-28.002808" lon="152.669469">
				<ele>129</ele>
				<time>2015-05-07T04:11:26Z</time>
				<extensions>
				</extensions>
			</trkpt>
			<trkpt lat="-28.002752" lon="152.669060">
				<ele>135</ele>
				<time>2015-05-07T04:11:28Z</time>
				<extensions>
				</extensions>
			</trkpt>
			<trkpt lat="-28.002715" lon="152.668839">
				<ele>136</ele>
				<time>2015-05-07T04:11:29Z</time>
				<extensions>
				</extensions>
			</trkpt>
			<trkpt lat="-28.002681" lon="152.668604">
				<ele>139</ele>
				<time>2015-05-07T04:11:30Z</time>
				<extensions>
				</extensions>
			</trkpt>
			<trkpt lat="-28.002653" lon="152.668377">
				<ele>142</ele>
				<time>2015-05-07T04:11:31Z</time>
				<extensions>
				</extensions>
			</trkpt>
			<trkpt lat="-28.002629" lon="152.668157">
				<ele>143</ele>
				<time>2015-05-07T04:11:32Z</time>
				<extensions>
				</extensions>
			</trkpt>
			<trkpt lat="-28.002598" lon="152.667942">
				<ele>145</ele>
				<time>2015-05-07T04:11:33Z</time>
				<extensions>
				</extensions>
			</trkpt>
			<trkpt lat="-28.002575" lon="152.667736">
				<ele>144</ele>
				<time>2015-05-07T04:11:34Z</time>
				<extensions>
				</extensions>
			</trkpt>
			<trkpt lat="-28.002534" lon="152.667371">
				<ele>143</ele>
				<time>2015-05-07T04:11:36Z</time>
				<extensions>
				</extensions>
			</trkpt>
			<trkpt lat="-28.002485" lon="152.667000">
				<ele>141</ele>
				<time>2015-05-07T04:11:38Z</time>
				<extensions>
				</extensions>
			</trkpt>
			<trkpt lat="-28.002427" lon="152.666625">
				<ele>138</ele>
				<time>2015-05-07T04:11:40Z</time>
				<extensions>
				</extensions>
			</trkpt>
			<trkpt lat="-28.002395" lon="152.666421">
				<ele>138</ele>
				<time>2015-05-07T04:11:41Z</time>
				<extensions>
				</extensions>
			</trkpt>
			<trkpt lat="-28.002364" lon="152.666210">
				<ele>138</ele>
				<time>2015-05-07T04:11:42Z</time>
				<extensions>
				</extensions>
			</trkpt>
			<trkpt lat="-28.002344" lon="152.666002">
				<ele>139</ele>
				<time>2015-05-07T04:11:43Z</time>
				<extensions>
				</extensions>
			</trkpt>
			<trkpt lat="-28.002310" lon="152.665778">
				<ele>141</ele>
				<time>2015-05-07T04:11:44Z</time>
				<extensions>
				</extensions>
			</trkpt>
			<trkpt lat="-28.002283" lon="152.665566">
				<ele>141</ele>
				<time>2015-05-07T04:11:45Z</time>
				<extensions>
				</extensions>
			</trkpt>
			<trkpt lat="-28.002255" lon="152.665361">
				<ele>142</ele>
				<time>2015-05-07T04:11:46Z</time>
				<extensions>
				</extensions>
			</trkpt>
			<trkpt lat="-28.002202" lon="152.664966">
				<ele>145</ele>
				<time>2015-05-07T04:11:48Z</time>
				<extensions>
				</extensions>
			</trkpt>
			<trkpt lat="-28.002145" lon="152.664577">
				<ele>149</ele>
				<time>2015-05-07T04:11:50Z</time>
				<extensions>
				</extensions>
			</trkpt>
			<trkpt lat="-28.002093" lon="152.664189">
				<ele>151</ele>
				<time>2015-05-07T04:11:52Z</time>
				<extensions>
				</extensions>
			</trkpt>
			<trkpt lat="-28.002038" lon="152.663795">
				<ele>152</ele>
				<time>2015-05-07T04:11:54Z</time>
				<extensions>
				</extensions>
			</trkpt>
			<trkpt lat="-28.001978" lon="152.663404">
				<ele>154</ele>
				<time>2015-05-07T04:11:56Z</time>
				<extensions>
				</extensions>
			</trkpt>
			<trkpt lat="-28.001923" lon="152.663007">
				<ele>154</ele>
				<time>2015-05-07T04:11:58Z</time>
				<extensions>
				</extensions>
			</trkpt>
			<trkpt lat="-28.001872" lon="152.662610">
				<ele>154</ele>
				<time>2015-05-07T04:12:00Z</time>
				<extensions>
				</extensions>
			</trkpt>
			<trkpt lat="-28.001812" lon="152.662230">
				<ele>155</ele>
				<time>2015-05-07T04:12:02Z</time>
				<extensions>
				</extensions>
			</trkpt>
			<trkpt lat="-28.001758" lon="152.661852">
				<ele>154</ele>
				<time>2015-05-07T04:12:04Z</time>
				<extensions>
				</extensions>
			</trkpt>
			<trkpt lat="-28.001707" lon="152.661479">
				<ele>154</ele>
				<time>2015-05-07T04:12:06Z</time>
				<extensions>
				</extensions>
			</trkpt>
			<trkpt lat="-28.001665" lon="152.661105">
				<ele>152</ele>
				<time>2015-05-07T04:12:08Z</time>
				<extensions>
				</extensions>
			</trkpt>
			<trkpt lat="-28.001614" lon="152.660742">
				<ele>150</ele>
				<time>2015-05-07T04:12:10Z</time>
				<extensions>
				</extensions>
			</trkpt>
			<trkpt lat="-28.001565" lon="152.660408">
				<ele>149</ele>
				<time>2015-05-07T04:12:12Z</time>
				<extensions>
				</extensions>
			</trkpt>
			<trkpt lat="-28.001523" lon="152.660090">
				<ele>150</ele>
				<time>2015-05-07T04:12:14Z</time>
				<extensions>
				</extensions>
			</trkpt>
			<trkpt lat="-28.001489" lon="152.659801">
				<ele>151</ele>
				<time>2015-05-07T04:12:16Z</time>
				<extensions>
				</extensions>
			</trkpt>
			<trkpt lat="-28.001456" lon="152.659477">
				<ele>152</ele>
				<time>2015-05-07T04:12:18Z</time>
				<extensions>
				</extensions>
			</trkpt>
			<trkpt lat="-28.001416" lon="152.659139">
				<ele>153</ele>
				<time>2015-05-07T04:12:20Z</time>
				<extensions>
				</extensions>
			</trkpt>
			<trkpt lat="-28.001361" lon="152.658804">
				<ele>151</ele>
				<time>2015-05-07T04:12:22Z</time>
				<extensions>
				</extensions>
			</trkpt>
			<trkpt lat="-28.001239" lon="152.658471">
				<ele>148</ele>
				<time>2015-05-07T04:12:24Z</time>
				<extensions>
				</extensions>
			</trkpt>
			<trkpt lat="-28.001051" lon="152.658195">
				<ele>149</ele>
				<time>2015-05-07T04:12:26Z</time>
				<extensions>
				</extensions>
			</trkpt>
			<trkpt lat="-28.000813" lon="152.657931">
				<ele>151</ele>
				<time>2015-05-07T04:12:28Z</time>
				<extensions>
				</extensions>
			</trkpt>
			<trkpt lat="-28.000597" lon="152.657645">
				<ele>153</ele>
				<time>2015-05-07T04:12:30Z</time>
				<extensions>
				</extensions>
			</trkpt>
			<trkpt lat="-28.000465" lon="152.657320">
				<ele>156</ele>
				<time>2015-05-07T04:12:32Z</time>
				<extensions>
				</extensions>
			</trkpt>
			<trkpt lat="-28.000423" lon="152.657121">
				<ele>158</ele>
				<time>2015-05-07T04:12:33Z</time>
				<extensions>
				</extensions>
			</trkpt>
			<trkpt lat="-28.000366" lon="152.656729">
				<ele>162</ele>
				<time>2015-05-07T04:12:35Z</time>
				<extensions>
				</extensions>
			</trkpt>
			<trkpt lat="-28.000309" lon="152.656314">
				<ele>165</ele>
				<time>2015-05-07T04:12:37Z</time>
				<extensions>
				</extensions>
			</trkpt>
			<trkpt lat="-28.000281" lon="152.656106">
				<ele>167</ele>
				<time>2015-05-07T04:12:38Z</time>
				<extensions>
				</extensions>
			</trkpt>
			<trkpt lat="-28.000226" lon="152.655700">
				<ele>170</ele>
				<time>2015-05-07T04:12:40Z</time>
				<extensions>
				</extensions>
			</trkpt>
			<trkpt lat="-28.000196" lon="152.655484">
				<ele>170</ele>
				<time>2015-05-07T04:12:41Z</time>
				<extensions>
				</extensions>
			</trkpt>
			<trkpt lat="-28.000168" lon="152.655274">
				<ele>172</ele>
				<time>2015-05-07T04:12:42Z</time>
				<extensions>
				</extensions>
			</trkpt>
			<trkpt lat="-28.000139" lon="152.655060">
				<ele>173</ele>
				<time>2015-05-07T04:12:43Z</time>
				<extensions>
				</extensions>
			</trkpt>
			<trkpt lat="-28.000111" lon="152.654856">
				<ele>173</ele>
				<time>2015-05-07T04:12:44Z</time>
				<extensions>
				</extensions>
			</trkpt>
			<trkpt lat="-28.000057" lon="152.654461">
				<ele>177</ele>
				<time>2015-05-07T04:12:46Z</time>
				<extensions>
				</extensions>
			</trkpt>
			<trkpt lat="-28.000007" lon="152.654090">
				<ele>176</ele>
				<time>2015-05-07T04:12:48Z</time>
				<extensions>
				</extensions>
			</trkpt>
			<trkpt lat="-27.999971" lon="152.653820">
				<ele>174</ele>
				<time>2015-05-07T04:12:50Z</time>
				<extensions>
				</extensions>
			</trkpt>
			<trkpt lat="-27.999945" lon="152.653577">
				<ele>174</ele>
				<time>2015-05-07T04:12:52Z</time>
				<extensions>
				</extensions>
			</trkpt>
			<trkpt lat="-27.999916" lon="152.653375">
				<ele>172</ele>
				<time>2015-05-07T04:12:54Z</time>
				<extensions>
				</extensions>
			</trkpt>
			<trkpt lat="-27.999882" lon="152.653121">
				<ele>169</ele>
				<time>2015-05-07T04:12:57Z</time>
				<extensions>
				</extensions>
			</trkpt>
			<trkpt lat="-27.999857" lon="152.652874">
				<ele>166</ele>
				<time>2015-05-07T04:13:00Z</time>
				<extensions>
				</extensions>
			</trkpt>
			<trkpt lat="-27.999844" lon="152.652650">
				<ele>163</ele>
				<time>2015-05-07T04:13:03Z</time>
				<extensions>
				</extensions>
			</trkpt>
			<trkpt lat="-27.999966" lon="152.652500">
				<ele>162</ele>
				<time>2015-05-07T04:13:05Z</time>
				<extensions>
				</extensions>
			</trkpt>
			<trkpt lat="-28.000167" lon="152.652436">
				<ele>164</ele>
				<time>2015-05-07T04:13:07Z</time>
				<extensions>
				</extensions>
			</trkpt>
			<trkpt lat="-28.000402" lon="152.652397">
				<ele>165</ele>
				<time>2015-05-07T04:13:09Z</time>
				<extensions>
				</extensions>
			</trkpt>
			<trkpt lat="-28.000690" lon="152.652356">
				<ele>168</ele>
				<time>2015-05-07T04:13:11Z</time>
				<extensions>
				</extensions>
			</trkpt>
			<trkpt lat="-28.000998" lon="152.652304">
				<ele>169</ele>
				<time>2015-05-07T04:13:13Z</time>
				<extensions>
				</extensions>
			</trkpt>
			<trkpt lat="-28.001310" lon="152.652246">
				<ele>167</ele>
				<time>2015-05-07T04:13:15Z</time>
				<extensions>
				</extensions>
			</trkpt>
			<trkpt lat="-28.001619" lon="152.652193">
				<ele>169</ele>
				<time>2015-05-07T04:13:17Z</time>
				<extensions>
				</extensions>
			</trkpt>
			<trkpt lat="-28.001903" lon="152.652140">
				<ele>172</ele>
				<time>2015-05-07T04:13:19Z</time>
				<extensions>
				</extensions>
			</trkpt>
			<trkpt lat="-28.002205" lon="152.652086">
				<ele>174</ele>
				<time>2015-05-07T04:13:21Z</time>
				<extensions>
				</extensions>
			</trkpt>
			<trkpt lat="-28.002531" lon="152.652023">
				<ele>175</ele>
				<time>2015-05-07T04:13:23Z</time>
				<extensions>
				</extensions>
			</trkpt>
			<trkpt lat="-28.002858" lon="152.651962">
				<ele>175</ele>
				<time>2015-05-07T04:13:25Z</time>
				<extensions>
				</extensions>
			</trkpt>
			<trkpt lat="-28.003201" lon="152.651897">
				<ele>172</ele>
				<time>2015-05-07T04:13:27Z</time>
				<extensions>
				</extensions>
			</trkpt>
			<trkpt lat="-28.003548" lon="152.651835">
				<ele>172</ele>
				<time>2015-05-07T04:13:29Z</time>
				<extensions>
				</extensions>
			</trkpt>
			<trkpt lat="-28.003727" lon="152.651803">
				<ele>172</ele>
				<time>2015-05-07T04:13:30Z</time>
				<extensions>
				</extensions>
			</trkpt>
			<trkpt lat="-28.004064" lon="152.651742">
				<ele>172</ele>
				<time>2015-05-07T04:13:32Z</time>
				<extensions>
				</extensions>
			</trkpt>
			<trkpt lat="-28.004259" lon="152.651704">
				<ele>174</ele>
				<time>2015-05-07T04:13:33Z</time>
				<extensions>
				</extensions>
			</trkpt>
			<trkpt lat="-28.004438" lon="152.651674">
				<ele>176</ele>
				<time>2015-05-07T04:13:34Z</time>
				<extensions>
				</extensions>
			</trkpt>
			<trkpt lat="-28.004628" lon="152.651642">
				<ele>178</ele>
				<time>2015-05-07T04:13:35Z</time>
				<extensions>
				</extensions>
			</trkpt>
			<trkpt lat="-28.004988" lon="152.651577">
				<ele>183</ele>
				<time>2015-05-07T04:13:37Z</time>
				<extensions>
				</extensions>
			</trkpt>
			<trkpt lat="-28.005327" lon="152.651514">
				<ele>184</ele>
				<time>2015-05-07T04:13:39Z</time>
				<extensions>
				</extensions>
			</trkpt>
			<trkpt lat="-28.005640" lon="152.651463">
				<ele>185</ele>
				<time>2015-05-07T04:13:41Z</time>
				<extensions>
				</extensions>
			</trkpt>
			<trkpt lat="-28.005979" lon="152.651410">
				<ele>186</ele>
				<time>2015-05-07T04:13:43Z</time>
				<extensions>
				</extensions>
			</trkpt>
			<trkpt lat="-28.006267" lon="152.651369">
				<ele>186</ele>
				<time>2015-05-07T04:13:45Z</time>
				<extensions>
				</extensions>
			</trkpt>
			<trkpt lat="-28.006493" lon="152.651333">
				<ele>185</ele>
				<time>2015-05-07T04:13:47Z</time>
				<extensions>
				</extensions>
			</trkpt>
			<trkpt lat="-28.006718" lon="152.651281">
				<ele>183</ele>
				<time>2015-05-07T04:13:50Z</time>
				<extensions>
				</extensions>
			</trkpt>
			<trkpt lat="-28.006815" lon="152.651109">
				<ele>185</ele>
				<time>2015-05-07T04:13:53Z</time>
				<extensions>
				</extensions>
			</trkpt>
			<trkpt lat="-28.006784" lon="152.650899">
				<ele>188</ele>
				<time>2015-05-07T04:13:55Z</time>
				<extensions>
				</extensions>
			</trkpt>
			<trkpt lat="-28.006747" lon="152.650601">
				<ele>193</ele>
				<time>2015-05-07T04:13:57Z</time>
				<extensions>
				</extensions>
			</trkpt>
			<trkpt lat="-28.006703" lon="152.650273">
				<ele>196</ele>
				<time>2015-05-07T04:13:59Z</time>
				<extensions>
				</extensions>
			</trkpt>
			<trkpt lat="-28.006659" lon="152.649941">
				<ele>197</ele>
				<time>2015-05-07T04:14:01Z</time>
				<extensions>
				</extensions>
			</trkpt>
			<trkpt lat="-28.006621" lon="152.649636">
				<ele>197</ele>
				<time>2015-05-07T04:14:03Z</time>
				<extensions>
				</extensions>
			</trkpt>
			<trkpt lat="-28.006569" lon="152.649312">
				<ele>197</ele>
				<time>2015-05-07T04:14:05Z</time>
				<extensions>
				</extensions>
			</trkpt>
			<trkpt lat="-28.006506" lon="152.648965">
				<ele>197</ele>
				<time>2015-05-07T04:14:07Z</time>
				<extensions>
				</extensions>
			</trkpt>
			<trkpt lat="-28.006454" lon="152.648612">
				<ele>195</ele>
				<time>2015-05-07T04:14:09Z</time>
				<extensions>
				</extensions>
			</trkpt>
			<trkpt lat="-28.006404" lon="152.648248">
				<ele>191</ele>
				<time>2015-05-07T04:14:11Z</time>
				<extensions>
				</extensions>
			</trkpt>
			<trkpt lat="-28.006358" lon="152.647894">
				<ele>187</ele>
				<time>2015-05-07T04:14:13Z</time>
				<extensions>
				</extensions>
			</trkpt>
			<trkpt lat="-28.006301" lon="152.647514">
				<ele>185</ele>
				<time>2015-05-07T04:14:15Z</time>
				<extensions>
				</extensions>
			</trkpt>
			<trkpt lat="-28.006250" lon="152.647127">
				<ele>182</ele>
				<time>2015-05-07T04:14:17Z</time>
				<extensions>
				</extensions>
			</trkpt>
			<trkpt lat="-28.006199" lon="152.646760">
				<ele>181</ele>
				<time>2015-05-07T04:14:19Z</time>
				<extensions>
				</extensions>
			</trkpt>
			<trkpt lat="-28.006155" lon="152.646415">
				<ele>180</ele>
				<time>2015-05-07T04:14:21Z</time>
				<extensions>
				</extensions>
			</trkpt>
			<trkpt lat="-28.006102" lon="152.646069">
				<ele>178</ele>
				<time>2015-05-07T04:14:23Z</time>
				<extensions>
				</extensions>
			</trkpt>
			<trkpt lat="-28.006052" lon="152.645707">
				<ele>176</ele>
				<time>2015-05-07T04:14:25Z</time>
				<extensions>
				</extensions>
			</trkpt>
			<trkpt lat="-28.006008" lon="152.645350">
				<ele>172</ele>
				<time>2015-05-07T04:14:27Z</time>
				<extensions>
				</extensions>
			</trkpt>
			<trkpt lat="-28.005954" lon="152.645005">
				<ele>173</ele>
				<time>2015-05-07T04:14:29Z</time>
				<extensions>
				</extensions>
			</trkpt>
			<trkpt lat="-28.005903" lon="152.644660">
				<ele>174</ele>
				<time>2015-05-07T04:14:31Z</time>
				<extensions>
				</extensions>
			</trkpt>
			<trkpt lat="-28.005852" lon="152.644329">
				<ele>176</ele>
				<time>2015-05-07T04:14:33Z</time>
				<extensions>
				</extensions>
			</trkpt>
			<trkpt lat="-28.005805" lon="152.644018">
				<ele>174</ele>
				<time>2015-05-07T04:14:35Z</time>
				<extensions>
				</extensions>
			</trkpt>
			<trkpt lat="-28.005759" lon="152.643714">
				<ele>173</ele>
				<time>2015-05-07T04:14:37Z</time>
				<extensions>
				</extensions>
			</trkpt>
			<trkpt lat="-28.005705" lon="152.643419">
				<ele>171</ele>
				<time>2015-05-07T04:14:39Z</time>
				<extensions>
				</extensions>
			</trkpt>
			<trkpt lat="-28.005587" lon="152.643196">
				<ele>168</ele>
				<time>2015-05-07T04:14:41Z</time>
				<extensions>
				</extensions>
			</trkpt>
			<trkpt lat="-28.005406" lon="152.643058">
				<ele>165</ele>
				<time>2015-05-07T04:14:43Z</time>
				<extensions>
				</extensions>
			</trkpt>
			<trkpt lat="-28.005154" lon="152.642997">
				<ele>164</ele>
				<time>2015-05-07T04:14:45Z</time>
				<extensions>
				</extensions>
			</trkpt>
			<trkpt lat="-28.004877" lon="152.643046">
				<ele>165</ele>
				<time>2015-05-07T04:14:47Z</time>
				<extensions>
				</extensions>
			</trkpt>
			<trkpt lat="-28.004589" lon="152.643109">
				<ele>165</ele>
				<time>2015-05-07T04:14:49Z</time>
				<extensions>
				</extensions>
			</trkpt>
			<trkpt lat="-28.004332" lon="152.643130">
				<ele>163</ele>
				<time>2015-05-07T04:14:51Z</time>
				<extensions>
				</extensions>
			</trkpt>
			<trkpt lat="-28.004103" lon="152.643034">
				<ele>164</ele>
				<time>2015-05-07T04:14:53Z</time>
				<extensions>
				</extensions>
			</trkpt>
			<trkpt lat="-28.003923" lon="152.642853">
				<ele>163</ele>
				<time>2015-05-07T04:14:55Z</time>
				<extensions>
				</extensions>
			</trkpt>
			<trkpt lat="-28.003825" lon="152.642573">
				<ele>165</ele>
				<time>2015-05-07T04:14:57Z</time>
				<extensions>
				</extensions>
			</trkpt>
			<trkpt lat="-28.003763" lon="152.642252">
				<ele>169</ele>
				<time>2015-05-07T04:14:59Z</time>
				<extensions>
				</extensions>
			</trkpt>
			<trkpt lat="-28.003727" lon="152.641925">
				<ele>173</ele>
				<time>2015-05-07T04:15:01Z</time>
				<extensions>
				</extensions>
			</trkpt>
			<trkpt lat="-28.003669" lon="152.641586">
				<ele>177</ele>
				<time>2015-05-07T04:15:03Z</time>
				<extensions>
				</extensions>
			</trkpt>
			<trkpt lat="-28.003608" lon="152.641249">
				<ele>181</ele>
				<time>2015-05-07T04:15:05Z</time>
				<extensions>
				</extensions>
			</trkpt>
			<trkpt lat="-28.003565" lon="152.640872">
				<ele>183</ele>
				<time>2015-05-07T04:15:07Z</time>
				<extensions>
				</extensions>
			</trkpt>
			<trkpt lat="-28.003513" lon="152.640507">
				<ele>186</ele>
				<time>2015-05-07T04:15:09Z</time>
				<extensions>
				</extensions>
			</trkpt>
			<trkpt lat="-28.003458" lon="152.640143">
				<ele>187</ele>
				<time>2015-05-07T04:15:11Z</time>
				<extensions>
				</extensions>
			</trkpt>
			<trkpt lat="-28.003403" lon="152.639786">
				<ele>189</ele>
				<time>2015-05-07T04:15:13Z</time>
				<extensions>
				</extensions>
			</trkpt>
			<trkpt lat="-28.003341" lon="152.639400">
				<ele>190</ele>
				<time>2015-05-07T04:15:15Z</time>
				<extensions>
				</extensions>
			</trkpt>
			<trkpt lat="-28.003306" lon="152.639199">
				<ele>192</ele>
				<time>2015-05-07T04:15:16Z</time>
				<extensions>
				</extensions>
			</trkpt>
			<trkpt lat="-28.003252" lon="152.638843">
				<ele>192</ele>
				<time>2015-05-07T04:15:18Z</time>
				<extensions>
				</extensions>
			</trkpt>
			<trkpt lat="-28.003201" lon="152.638454">
				<ele>195</ele>
				<time>2015-05-07T04:15:20Z</time>
				<extensions>
				</extensions>
			</trkpt>
			<trkpt lat="-28.003143" lon="152.638061">
				<ele>196</ele>
				<time>2015-05-07T04:15:22Z</time>
				<extensions>
				</extensions>
			</trkpt>
			<trkpt lat="-28.003087" lon="152.637691">
				<ele>197</ele>
				<time>2015-05-07T04:15:24Z</time>
				<extensions>
				</extensions>
			</trkpt>
			<trkpt lat="-28.003046" lon="152.637332">
				<ele>199</ele>
				<time>2015-05-07T04:15:26Z</time>
				<extensions>
				</extensions>
			</trkpt>
			<trkpt lat="-28.002998" lon="152.636971">
				<ele>200</ele>
				<time>2015-05-07T04:15:28Z</time>
				<extensions>
				</extensions>
			</trkpt>
			<trkpt lat="-28.002954" lon="152.636629">
				<ele>200</ele>
				<time>2015-05-07T04:15:30Z</time>
				<extensions>
				</extensions>
			</trkpt>
			<trkpt lat="-28.002914" lon="152.636300">
				<ele>200</ele>
				<time>2015-05-07T04:15:32Z</time>
				<extensions>
				</extensions>
			</trkpt>
			<trkpt lat="-28.002912" lon="152.635955">
				<ele>202</ele>
				<time>2015-05-07T04:15:34Z</time>
				<extensions>
				</extensions>
			</trkpt>
			<trkpt lat="-28.002970" lon="152.635623">
				<ele>201</ele>
				<time>2015-05-07T04:15:36Z</time>
				<extensions>
				</extensions>
			</trkpt>
			<trkpt lat="-28.003100" lon="152.635326">
				<ele>202</ele>
				<time>2015-05-07T04:15:38Z</time>
				<extensions>
				</extensions>
			</trkpt>
			<trkpt lat="-28.003260" lon="152.635058">
				<ele>200</ele>
				<time>2015-05-07T04:15:40Z</time>
				<extensions>
				</extensions>
			</trkpt>
			<trkpt lat="-28.003428" lon="152.634810">
				<ele>199</ele>
				<time>2015-05-07T04:15:42Z</time>
				<extensions>
				</extensions>
			</trkpt>
			<trkpt lat="-28.003596" lon="152.634556">
				<ele>197</ele>
				<time>2015-05-07T04:15:44Z</time>
				<extensions>
				</extensions>
			</trkpt>
			<trkpt lat="-28.003712" lon="152.634270">
				<ele>198</ele>
				<time>2015-05-07T04:15:46Z</time>
				<extensions>
				</extensions>
			</trkpt>
			<trkpt lat="-28.003748" lon="152.633976">
				<ele>200</ele>
				<time>2015-05-07T04:15:48Z</time>
				<extensions>
				</extensions>
			</trkpt>
			<trkpt lat="-28.003727" lon="152.633662">
				<ele>203</ele>
				<time>2015-05-07T04:15:50Z</time>
				<extensions>
				</extensions>
			</trkpt>
			<trkpt lat="-28.003676" lon="152.633340">
				<ele>205</ele>
				<time>2015-05-07T04:15:52Z</time>
				<extensions>
				</extensions>
			</trkpt>
			<trkpt lat="-28.003644" lon="152.633008">
				<ele>206</ele>
				<time>2015-05-07T04:15:54Z</time>
				<extensions>
				</extensions>
			</trkpt>
			<trkpt lat="-28.003598" lon="152.632693">
				<ele>207</ele>
				<time>2015-05-07T04:15:56Z</time>
				<extensions>
				</extensions>
			</trkpt>
			<trkpt lat="-28.003544" lon="152.632381">
				<ele>208</ele>
				<time>2015-05-07T04:15:58Z</time>
				<extensions>
				</extensions>
			</trkpt>
			<trkpt lat="-28.003495" lon="152.632061">
				<ele>210</ele>
				<time>2015-05-07T04:16:00Z</time>
				<extensions>
				</extensions>
			</trkpt>
			<trkpt lat="-28.003443" lon="152.631734">
				<ele>213</ele>
				<time>2015-05-07T04:16:02Z</time>
				<extensions>
				</extensions>
			</trkpt>
			<trkpt lat="-28.003394" lon="152.631384">
				<ele>214</ele>
				<time>2015-05-07T04:16:04Z</time>
				<extensions>
				</extensions>
			</trkpt>
			<trkpt lat="-28.003346" lon="152.631009">
				<ele>216</ele>
				<time>2015-05-07T04:16:06Z</time>
				<extensions>
				</extensions>
			</trkpt>
			<trkpt lat="-28.003299" lon="152.630629">
				<ele>220</ele>
				<time>2015-05-07T04:16:08Z</time>
				<extensions>
				</extensions>
			</trkpt>
			<trkpt lat="-28.003274" lon="152.630422">
				<ele>224</ele>
				<time>2015-05-07T04:16:09Z</time>
				<extensions>
				</extensions>
			</trkpt>
			<trkpt lat="-28.003221" lon="152.630018">
				<ele>230</ele>
				<time>2015-05-07T04:16:11Z</time>
				<extensions>
				</extensions>
			</trkpt>
			<trkpt lat="-28.003180" lon="152.629643">
				<ele>236</ele>
				<time>2015-05-07T04:16:13Z</time>
				<extensions>
				</extensions>
			</trkpt>
			<trkpt lat="-28.003141" lon="152.629281">
				<ele>243</ele>
				<time>2015-05-07T04:16:15Z</time>
				<extensions>
				</extensions>
			</trkpt>
			<trkpt lat="-28.003106" lon="152.628925">
				<ele>246</ele>
				<time>2015-05-07T04:16:17Z</time>
				<extensions>
				</extensions>
			</trkpt>
			<trkpt lat="-28.003050" lon="152.628631">
				<ele>246</ele>
				<time>2015-05-07T04:16:19Z</time>
				<extensions>
				</extensions>
			</trkpt>
			<trkpt lat="-28.003013" lon="152.628380">
				<ele>247</ele>
				<time>2015-05-07T04:16:21Z</time>
				<extensions>
				</extensions>
			</trkpt>
			<trkpt lat="-28.002970" lon="152.628141">
				<ele>248</ele>
				<time>2015-05-07T04:16:23Z</time>
				<extensions>
				</extensions>
			</trkpt>
			<trkpt lat="-28.002890" lon="152.627873">
				<ele>248</ele>
				<time>2015-05-07T04:16:25Z</time>
				<extensions>
				</extensions>
			</trkpt>
			<trkpt lat="-28.002777" lon="152.627624">
				<ele>250</ele>
				<time>2015-05-07T04:16:27Z</time>
				<extensions>
				</extensions>
			</trkpt>
			<trkpt lat="-28.002632" lon="152.627353">
				<ele>249</ele>
				<time>2015-05-07T04:16:29Z</time>
				<extensions>
				</extensions>
			</trkpt>
			<trkpt lat="-28.002472" lon="152.627077">
				<ele>250</ele>
				<time>2015-05-07T04:16:31Z</time>
				<extensions>
				</extensions>
			</trkpt>
			<trkpt lat="-28.002332" lon="152.626864">
				<ele>252</ele>
				<time>2015-05-07T04:16:33Z</time>
				<extensions>
				</extensions>
			</trkpt>
			<trkpt lat="-28.002185" lon="152.626603">
				<ele>255</ele>
				<time>2015-05-07T04:16:35Z</time>
				<extensions>
				</extensions>
			</trkpt>
			<trkpt lat="-28.002027" lon="152.626334">
				<ele>259</ele>
				<time>2015-05-07T04:16:37Z</time>
				<extensions>
				</extensions>
			</trkpt>
			<trkpt lat="-28.001911" lon="152.626059">
				<ele>265</ele>
				<time>2015-05-07T04:16:39Z</time>
				<extensions>
				</extensions>
			</trkpt>
			<trkpt lat="-28.001830" lon="152.625781">
				<ele>271</ele>
				<time>2015-05-07T04:16:41Z</time>
				<extensions>
				</extensions>
			</trkpt>
			<trkpt lat="-28.001778" lon="152.625454">
				<ele>277</ele>
				<time>2015-05-07T04:16:43Z</time>
				<extensions>
				</extensions>
			</trkpt>
			<trkpt lat="-28.001715" lon="152.625096">
				<ele>283</ele>
				<time>2015-05-07T04:16:45Z</time>
				<extensions>
				</extensions>
			</trkpt>
			<trkpt lat="-28.001660" lon="152.624784">
				<ele>289</ele>
				<time>2015-05-07T04:16:47Z</time>
				<extensions>
				</extensions>
			</trkpt>
			<trkpt lat="-28.001604" lon="152.624460">
				<ele>295</ele>
				<time>2015-05-07T04:16:49Z</time>
				<extensions>
				</extensions>
			</trkpt>
			<trkpt lat="-28.001548" lon="152.624141">
				<ele>299</ele>
				<time>2015-05-07T04:16:51Z</time>
				<extensions>
				</extensions>
			</trkpt>
			<trkpt lat="-28.001513" lon="152.623884">
				<ele>303</ele>
				<time>2015-05-07T04:16:53Z</time>
				<extensions>
				</extensions>
			</trkpt>
			<trkpt lat="-28.001467" lon="152.623599">
				<ele>308</ele>
				<time>2015-05-07T04:16:55Z</time>
				<extensions>
				</extensions>
			</trkpt>
			<trkpt lat="-28.001433" lon="152.623323">
				<ele>310</ele>
				<time>2015-05-07T04:16:57Z</time>
				<extensions>
				</extensions>
			</trkpt>
			<trkpt lat="-28.001378" lon="152.623022">
				<ele>311</ele>
				<time>2015-05-07T04:16:59Z</time>
				<extensions>
				</extensions>
			</trkpt>
			<trkpt lat="-28.001294" lon="152.622745">
				<ele>311</ele>
				<time>2015-05-07T04:17:01Z</time>
				<extensions>
				</extensions>
			</trkpt>
			<trkpt lat="-28.001186" lon="152.622480">
				<ele>311</ele>
				<time>2015-05-07T04:17:03Z</time>
				<extensions>
				</extensions>
			</trkpt>
			<trkpt lat="-28.001083" lon="152.622256">
				<ele>311</ele>
				<time>2015-05-07T04:17:05Z</time>
				<extensions>
				</extensions>
			</trkpt>
			<trkpt lat="-28.000977" lon="152.622022">
				<ele>310</ele>
				<time>2015-05-07T04:17:07Z</time>
				<extensions>
				</extensions>
			</trkpt>
			<trkpt lat="-28.000864" lon="152.621785">
				<ele>310</ele>
				<time>2015-05-07T04:17:09Z</time>
				<extensions>
				</extensions>
			</trkpt>
			<trkpt lat="-28.000730" lon="152.621502">
				<ele>311</ele>
				<time>2015-05-07T04:17:11Z</time>
				<extensions>
				</extensions>
			</trkpt>
			<trkpt lat="-28.000568" lon="152.621149">
				<ele>313</ele>
				<time>2015-05-07T04:17:13Z</time>
				<extensions>
				</extensions>
			</trkpt>
			<trkpt lat="-28.000487" lon="152.620967">
				<ele>314</ele>
				<time>2015-05-07T04:17:14Z</time>
				<extensions>
				</extensions>
			</trkpt>
			<trkpt lat="-28.000334" lon="152.620657">
				<ele>315</ele>
				<time>2015-05-07T04:17:16Z</time>
				<extensions>
				</extensions>
			</trkpt>
			<trkpt lat="-28.000182" lon="152.620337">
				<ele>317</ele>
				<time>2015-05-07T04:17:18Z</time>
				<extensions>
				</extensions>
			</trkpt>
			<trkpt lat="-28.000027" lon="152.620011">
				<ele>321</ele>
				<time>2015-05-07T04:17:20Z</time>
				<extensions>
				</extensions>
			</trkpt>
			<trkpt lat="-27.999862" lon="152.619698">
				<ele>327</ele>
				<time>2015-05-07T04:17:22Z</time>
				<extensions>
				</extensions>
			</trkpt>
			<trkpt lat="-27.999670" lon="152.619408">
				<ele>334</ele>
				<time>2015-05-07T04:17:24Z</time>
				<extensions>
				</extensions>
			</trkpt>
			<trkpt lat="-27.999542" lon="152.619263">
				<ele>337</ele>
				<time>2015-05-07T04:17:25Z</time>
				<extensions>
				</extensions>
			</trkpt>
			<trkpt lat="-27.999312" lon="152.619017">
				<ele>343</ele>
				<time>2015-05-07T04:17:27Z</time>
				<extensions>
				</extensions>
			</trkpt>
			<trkpt lat="-27.999089" lon="152.618784">
				<ele>346</ele>
				<time>2015-05-07T04:17:29Z</time>
				<extensions>
				</extensions>
			</trkpt>
			<trkpt lat="-27.998873" lon="152.618561">
				<ele>349</ele>
				<time>2015-05-07T04:17:31Z</time>
				<extensions>
				</extensions>
			</trkpt>
			<trkpt lat="-27.998671" lon="152.618334">
				<ele>353</ele>
				<time>2015-05-07T04:17:33Z</time>
				<extensions>
				</extensions>
			</trkpt>
			<trkpt lat="-27.998465" lon="152.618090">
				<ele>356</ele>
				<time>2015-05-07T04:17:35Z</time>
				<extensions>
				</extensions>
			</trkpt>
			<trkpt lat="-27.998279" lon="152.617857">
				<ele>358</ele>
				<time>2015-05-07T04:17:37Z</time>
				<extensions>
				</extensions>
			</trkpt>
			<trkpt lat="-27.998135" lon="152.617632">
				<ele>360</ele>
				<time>2015-05-07T04:17:39Z</time>
				<extensions>
				</extensions>
			</trkpt>
			<trkpt lat="-27.998014" lon="152.617369">
				<ele>363</ele>
				<time>2015-05-07T04:17:41Z</time>
				<extensions>
				</extensions>
			</trkpt>
			<trkpt lat="-27.997830" lon="152.617117">
				<ele>365</ele>
				<time>2015-05-07T04:17:43Z</time>
				<extensions>
				</extensions>
			</trkpt>
			<trkpt lat="-27.997586" lon="152.616881">
				<ele>368</ele>
				<time>2015-05-07T04:17:45Z</time>
				<extensions>
				</extensions>
			</trkpt>
			<trkpt lat="-27.997345" lon="152.616621">
				<ele>367</ele>
				<time>2015-05-07T04:17:47Z</time>
				<extensions>
				</extensions>
			</trkpt>
			<trkpt lat="-27.997205" lon="152.616479">
				<ele>367</ele>
				<time>2015-05-07T04:17:48Z</time>
				<extensions>
				</extensions>
			</trkpt>
			<trkpt lat="-27.997061" lon="152.616358">
				<ele>367</ele>
				<time>2015-05-07T04:17:49Z</time>
				<extensions>
				</extensions>
			</trkpt>
			<trkpt lat="-27.996794" lon="152.616096">
				<ele>367</ele>
				<time>2015-05-07T04:17:51Z</time>
				<extensions>
				</extensions>
			</trkpt>
			<trkpt lat="-27.996583" lon="152.615877">
				<ele>368</ele>
				<time>2015-05-07T04:17:53Z</time>
				<extensions>
				</extensions>
			</trkpt>
			<trkpt lat="-27.996407" lon="152.615685">
				<ele>369</ele>
				<time>2015-05-07T04:17:55Z</time>
				<extensions>
				</extensions>
			</trkpt>
			<trkpt lat="-27.996071" lon="152.615474">
				<ele>372</ele>
				<time>2015-05-07T04:17:57Z</time>
				<extensions>
				</extensions>
			</trkpt>
			<trkpt lat="-27.995892" lon="152.615401">
				<ele>375</ele>
				<time>2015-05-07T04:17:58Z</time>
				<extensions>
				</extensions>
			</trkpt>
			<trkpt lat="-27.995703" lon="152.615347">
				<ele>378</ele>
				<time>2015-05-07T04:17:59Z</time>
				<extensions>
				</extensions>
			</trkpt>
			<trkpt lat="-27.995516" lon="152.615288">
				<ele>380</ele>
				<time>2015-05-07T04:18:00Z</time>
				<extensions>
				</extensions>
			</trkpt>
			<trkpt lat="-27.995188" lon="152.615180">
				<ele>384</ele>
				<time>2015-05-07T04:18:02Z</time>
				<extensions>
				</extensions>
			</trkpt>
			<trkpt lat="-27.994883" lon="152.615083">
				<ele>387</ele>
				<time>2015-05-07T04:18:04Z</time>
				<extensions>
				</extensions>
			</trkpt>
			<trkpt lat="-27.994595" lon="152.614964">
				<ele>389</ele>
				<time>2015-05-07T04:18:06Z</time>
				<extensions>
				</extensions>
			</trkpt>
			<trkpt lat="-27.994337" lon="152.614774">
				<ele>391</ele>
				<time>2015-05-07T04:18:08Z</time>
				<extensions>
				</extensions>
			</trkpt>
			<trkpt lat="-27.994109" lon="152.614541">
				<ele>393</ele>
				<time>2015-05-07T04:18:10Z</time>
				<extensions>
				</extensions>
			</trkpt>
			<trkpt lat="-27.993927" lon="152.614363">
				<ele>393</ele>
				<time>2015-05-07T04:18:12Z</time>
				<extensions>
				</extensions>
			</trkpt>
			<trkpt lat="-27.993747" lon="152.614202">
				<ele>392</ele>
				<time>2015-05-07T04:18:14Z</time>
				<extensions>
				</extensions>
			</trkpt>
			<trkpt lat="-27.993550" lon="152.614028">
				<ele>393</ele>
				<time>2015-05-07T04:18:16Z</time>
				<extensions>
				</extensions>
			</trkpt>
			<trkpt lat="-27.993286" lon="152.613807">
				<ele>393</ele>
				<time>2015-05-07T04:18:18Z</time>
				<extensions>
				</extensions>
			</trkpt>
			<trkpt lat="-27.993088" lon="152.613649">
				<ele>392</ele>
				<time>2015-05-07T04:18:20Z</time>
				<extensions>
				</extensions>
			</trkpt>
			<trkpt lat="-27.992879" lon="152.613610">
				<ele>388</ele>
				<time>2015-05-07T04:18:23Z</time>
				<extensions>
				</extensions>
			</trkpt>
			<trkpt lat="-27.992809" lon="152.613866">
				<ele>390</ele>
				<time>2015-05-07T04:18:28Z</time>
				<extensions>
				</extensions>
			</trkpt>
			<trkpt lat="-27.992820" lon="152.614108">
				<ele>391</ele>
				<time>2015-05-07T04:18:30Z</time>
				<extensions>
				</extensions>
			</trkpt>
			<trkpt lat="-27.992865" lon="152.614365">
				<ele>392</ele>
				<time>2015-05-07T04:18:32Z</time>
				<extensions>
				</extensions>
			</trkpt>
			<trkpt lat="-27.992898" lon="152.614590">
				<ele>393</ele>
				<time>2015-05-07T04:18:34Z</time>
				<extensions>
				</extensions>
			</trkpt>
			<trkpt lat="-27.992893" lon="152.614797">
				<ele>394</ele>
				<time>2015-05-07T04:18:36Z</time>
				<extensions>
				</extensions>
			</trkpt>
			<trkpt lat="-27.992737" lon="152.615037">
				<ele>396</ele>
				<time>2015-05-07T04:18:39Z</time>
				<extensions>
				</extensions>
			</trkpt>
			<trkpt lat="-27.992560" lon="152.615259">
				<ele>397</ele>
				<time>2015-05-07T04:18:41Z</time>
				<extensions>
				</extensions>
			</trkpt>
			<trkpt lat="-27.992415" lon="152.615454">
				<ele>396</ele>
				<time>2015-05-07T04:18:43Z</time>
				<extensions>
				</extensions>
			</trkpt>
			<trkpt lat="-27.992341" lon="152.615658">
				<ele>397</ele>
				<time>2015-05-07T04:18:45Z</time>
				<extensions>
				</extensions>
			</trkpt>
			<trkpt lat="-27.992289" lon="152.615935">
				<ele>398</ele>
				<time>2015-05-07T04:18:47Z</time>
				<extensions>
				</extensions>
			</trkpt>
			<trkpt lat="-27.992251" lon="152.616195">
				<ele>398</ele>
				<time>2015-05-07T04:18:49Z</time>
				<extensions>
				</extensions>
			</trkpt>
			<trkpt lat="-27.992113" lon="152.616459">
				<ele>399</ele>
				<time>2015-05-07T04:18:52Z</time>
				<extensions>
				</extensions>
			</trkpt>
			<trkpt lat="-27.991912" lon="152.616508">
				<ele>402</ele>
				<time>2015-05-07T04:18:54Z</time>
				<extensions>
				</extensions>
			</trkpt>
			<trkpt lat="-27.991707" lon="152.616536">
				<ele>405</ele>
				<time>2015-05-07T04:18:56Z</time>
				<extensions>
				</extensions>
			</trkpt>
			<trkpt lat="-27.991504" lon="152.616562">
				<ele>407</ele>
				<time>2015-05-07T04:18:58Z</time>
				<extensions>
				</extensions>
			</trkpt>
			<trkpt lat="-27.991248" lon="152.616623">
				<ele>409</ele>
				<time>2015-05-07T04:19:00Z</time>
				<extensions>
				</extensions>
			</trkpt>
			<trkpt lat="-27.991069" lon="152.616727">
				<ele>411</ele>
				<time>2015-05-07T04:19:02Z</time>
				<extensions>
				</extensions>
			</trkpt>
			<trkpt lat="-27.990873" lon="152.616869">
				<ele>412</ele>
				<time>2015-05-07T04:19:04Z</time>
				<extensions>
				</extensions>
			</trkpt>
			<trkpt lat="-27.990679" lon="152.617012">
				<ele>415</ele>
				<time>2015-05-07T04:19:06Z</time>
				<extensions>
				</extensions>
			</trkpt>
			<trkpt lat="-27.990479" lon="152.617172">
				<ele>415</ele>
				<time>2015-05-07T04:19:08Z</time>
				<extensions>
				</extensions>
			</trkpt>
			<trkpt lat="-27.990269" lon="152.617362">
				<ele>416</ele>
				<time>2015-05-07T04:19:10Z</time>
				<extensions>
				</extensions>
			</trkpt>
			<trkpt lat="-27.990044" lon="152.617578">
				<ele>417</ele>
				<time>2015-05-07T04:19:12Z</time>
				<extensions>
				</extensions>
			</trkpt>
			<trkpt lat="-27.989831" lon="152.617792">
				<ele>418</ele>
				<time>2015-05-07T04:19:14Z</time>
				<extensions>
				</extensions>
			</trkpt>
			<trkpt lat="-27.989632" lon="152.617993">
				<ele>420</ele>
				<time>2015-05-07T04:19:16Z</time>
				<extensions>
				</extensions>
			</trkpt>
			<trkpt lat="-27.989452" lon="152.618148">
				<ele>422</ele>
				<time>2015-05-07T04:19:18Z</time>
				<extensions>
				</extensions>
			</trkpt>
			<trkpt lat="-27.989212" lon="152.618257">
				<ele>424</ele>
				<time>2015-05-07T04:19:20Z</time>
				<extensions>
				</extensions>
			</trkpt>
			<trkpt lat="-27.988945" lon="152.618296">
				<ele>425</ele>
				<time>2015-05-07T04:19:22Z</time>
				<extensions>
				</extensions>
			</trkpt>
			<trkpt lat="-27.988698" lon="152.618318">
				<ele>425</ele>
				<time>2015-05-07T04:19:24Z</time>
				<extensions>
				</extensions>
			</trkpt>
			<trkpt lat="-27.988484" lon="152.618342">
				<ele>423</ele>
				<time>2015-05-07T04:19:26Z</time>
				<extensions>
				</extensions>
			</trkpt>
			<trkpt lat="-27.988271" lon="152.618395">
				<ele>422</ele>
				<time>2015-05-07T04:19:28Z</time>
				<extensions>
				</extensions>
			</trkpt>
			<trkpt lat="-27.988021" lon="152.618471">
				<ele>422</ele>
				<time>2015-05-07T04:19:30Z</time>
				<extensions>
				</extensions>
			</trkpt>
			<trkpt lat="-27.987744" lon="152.618564">
				<ele>424</ele>
				<time>2015-05-07T04:19:32Z</time>
				<extensions>
				</extensions>
			</trkpt>
			<trkpt lat="-27.987495" lon="152.618657">
				<ele>427</ele>
				<time>2015-05-07T04:19:34Z</time>
				<extensions>
				</extensions>
			</trkpt>
			<trkpt lat="-27.987256" lon="152.618776">
				<ele>432</ele>
				<time>2015-05-07T04:19:36Z</time>
				<extensions>
				</extensions>
			</trkpt>
			<trkpt lat="-27.987045" lon="152.618940">
				<ele>437</ele>
				<time>2015-05-07T04:19:38Z</time>
				<extensions>
				</extensions>
			</trkpt>
			<trkpt lat="-27.986862" lon="152.619093">
				<ele>440</ele>
				<time>2015-05-07T04:19:40Z</time>
				<extensions>
				</extensions>
			</trkpt>
			<trkpt lat="-27.986673" lon="152.619252">
				<ele>443</ele>
				<time>2015-05-07T04:19:42Z</time>
				<extensions>
				</extensions>
			</trkpt>
			<trkpt lat="-27.986487" lon="152.619408">
				<ele>446</ele>
				<time>2015-05-07T04:19:44Z</time>
				<extensions>
				</extensions>
			</trkpt>
			<trkpt lat="-27.986321" lon="152.619547">
				<ele>448</ele>
				<time>2015-05-07T04:19:46Z</time>
				<extensions>
				</extensions>
			</trkpt>
			<trkpt lat="-27.986126" lon="152.619699">
				<ele>448</ele>
				<time>2015-05-07T04:19:48Z</time>
				<extensions>
				</extensions>
			</trkpt>
			<trkpt lat="-27.985913" lon="152.619838">
				<ele>450</ele>
				<time>2015-05-07T04:19:50Z</time>
				<extensions>
				</extensions>
			</trkpt>
			<trkpt lat="-27.985754" lon="152.619945">
				<ele>449</ele>
				<time>2015-05-07T04:19:52Z</time>
				<extensions>
				</extensions>
			</trkpt>
			<trkpt lat="-27.985556" lon="152.620141">
				<ele>449</ele>
				<time>2015-05-07T04:19:55Z</time>
				<extensions>
				</extensions>
			</trkpt>
			<trkpt lat="-27.985478" lon="152.620360">
				<ele>450</ele>
				<time>2015-05-07T04:19:58Z</time>
				<extensions>
				</extensions>
			</trkpt>
			<trkpt lat="-27.985457" lon="152.620595">
				<ele>450</ele>
				<time>2015-05-07T04:20:02Z</time>
				<extensions>
				</extensions>
			</trkpt>
			<trkpt lat="-27.985376" lon="152.620839">
				<ele>451</ele>
				<time>2015-05-07T04:20:08Z</time>
				<extensions>
				</extensions>
			</trkpt>
			<trkpt lat="-27.985257" lon="152.620994">
				<ele>451</ele>
				<time>2015-05-07T04:21:58Z</time>
				<extensions>
				</extensions>
			</trkpt>
			<trkpt lat="-27.985345" lon="152.621193">
				<ele>454</ele>
				<time>2015-05-07T05:10:10Z</time>
				<extensions>
				</extensions>
			</trkpt>
			<trkpt lat="-27.985532" lon="152.621190">
				<ele>453</ele>
				<time>2015-05-07T05:10:16Z</time>
				<extensions>
				</extensions>
			</trkpt>
			<trkpt lat="-27.985599" lon="152.620998">
				<ele>452</ele>
				<time>2015-05-07T05:10:20Z</time>
				<extensions>
				</extensions>
			</trkpt>
			<trkpt lat="-27.985488" lon="152.620815">
				<ele>453</ele>
				<time>2015-05-07T05:10:25Z</time>
				<extensions>
				</extensions>
			</trkpt>
			<trkpt lat="-27.985434" lon="152.620543">
				<ele>453</ele>
				<time>2015-05-07T05:10:30Z</time>
				<extensions>
				</extensions>
			</trkpt>
			<trkpt lat="-27.985483" lon="152.620338">
				<ele>452</ele>
				<time>2015-05-07T05:10:33Z</time>
				<extensions>
				</extensions>
			</trkpt>
			<trkpt lat="-27.985567" lon="152.620124">
				<ele>451</ele>
				<time>2015-05-07T05:10:37Z</time>
				<extensions>
				</extensions>
			</trkpt>
			<trkpt lat="-27.985733" lon="152.619961">
				<ele>452</ele>
				<time>2015-05-07T05:10:40Z</time>
				<extensions>
				</extensions>
			</trkpt>
			<trkpt lat="-27.985961" lon="152.619807">
				<ele>450</ele>
				<time>2015-05-07T05:10:43Z</time>
				<extensions>
				</extensions>
			</trkpt>
			<trkpt lat="-27.986138" lon="152.619690">
				<ele>451</ele>
				<time>2015-05-07T05:10:45Z</time>
				<extensions>
				</extensions>
			</trkpt>
			<trkpt lat="-27.986304" lon="152.619562">
				<ele>450</ele>
				<time>2015-05-07T05:10:47Z</time>
				<extensions>
				</extensions>
			</trkpt>
			<trkpt lat="-27.986460" lon="152.619430">
				<ele>448</ele>
				<time>2015-05-07T05:10:49Z</time>
				<extensions>
				</extensions>
			</trkpt>
			<trkpt lat="-27.986609" lon="152.619306">
				<ele>447</ele>
				<time>2015-05-07T05:10:51Z</time>
				<extensions>
				</extensions>
			</trkpt>
			<trkpt lat="-27.986824" lon="152.619125">
				<ele>446</ele>
				<time>2015-05-07T05:10:54Z</time>
				<extensions>
				</extensions>
			</trkpt>
			<trkpt lat="-27.987039" lon="152.618945">
				<ele>440</ele>
				<time>2015-05-07T05:10:57Z</time>
				<extensions>
				</extensions>
			</trkpt>
			<trkpt lat="-27.987223" lon="152.618798">
				<ele>437</ele>
				<time>2015-05-07T05:10:59Z</time>
				<extensions>
				</extensions>
			</trkpt>
			<trkpt lat="-27.987412" lon="152.618692">
				<ele>433</ele>
				<time>2015-05-07T05:11:01Z</time>
				<extensions>
				</extensions>
			</trkpt>
			<trkpt lat="-27.987633" lon="152.618605">
				<ele>430</ele>
				<time>2015-05-07T05:11:03Z</time>
				<extensions>
				</extensions>
			</trkpt>
			<trkpt lat="-27.987853" lon="152.618526">
				<ele>427</ele>
				<time>2015-05-07T05:11:05Z</time>
				<extensions>
				</extensions>
			</trkpt>
			<trkpt lat="-27.988062" lon="152.618457">
				<ele>423</ele>
				<time>2015-05-07T05:11:07Z</time>
				<extensions>
				</extensions>
			</trkpt>
			<trkpt lat="-27.988259" lon="152.618399">
				<ele>422</ele>
				<time>2015-05-07T05:11:09Z</time>
				<extensions>
				</extensions>
			</trkpt>
			<trkpt lat="-27.988493" lon="152.618340">
				<ele>424</ele>
				<time>2015-05-07T05:11:11Z</time>
				<extensions>
				</extensions>
			</trkpt>
			<trkpt lat="-27.988731" lon="152.618315">
				<ele>425</ele>
				<time>2015-05-07T05:11:13Z</time>
				<extensions>
				</extensions>
			</trkpt>
			<trkpt lat="-27.988958" lon="152.618295">
				<ele>426</ele>
				<time>2015-05-07T05:11:15Z</time>
				<extensions>
				</extensions>
			</trkpt>
			<trkpt lat="-27.989216" lon="152.618256">
				<ele>426</ele>
				<time>2015-05-07T05:11:17Z</time>
				<extensions>
				</extensions>
			</trkpt>
			<trkpt lat="-27.989400" lon="152.618187">
				<ele>424</ele>
				<time>2015-05-07T05:11:19Z</time>
				<extensions>
				</extensions>
			</trkpt>
			<trkpt lat="-27.989614" lon="152.618011">
				<ele>423</ele>
				<time>2015-05-07T05:11:21Z</time>
				<extensions>
				</extensions>
			</trkpt>
			<trkpt lat="-27.989798" lon="152.617825">
				<ele>421</ele>
				<time>2015-05-07T05:11:23Z</time>
				<extensions>
				</extensions>
			</trkpt>
			<trkpt lat="-27.990001" lon="152.617621">
				<ele>419</ele>
				<time>2015-05-07T05:11:25Z</time>
				<extensions>
				</extensions>
			</trkpt>
			<trkpt lat="-27.990191" lon="152.617434">
				<ele>418</ele>
				<time>2015-05-07T05:11:27Z</time>
				<extensions>
				</extensions>
			</trkpt>
			<trkpt lat="-27.990407" lon="152.617235">
				<ele>418</ele>
				<time>2015-05-07T05:11:29Z</time>
				<extensions>
				</extensions>
			</trkpt>
			<trkpt lat="-27.990619" lon="152.617057">
				<ele>418</ele>
				<time>2015-05-07T05:11:31Z</time>
				<extensions>
				</extensions>
			</trkpt>
			<trkpt lat="-27.990812" lon="152.616914">
				<ele>417</ele>
				<time>2015-05-07T05:11:33Z</time>
				<extensions>
				</extensions>
			</trkpt>
			<trkpt lat="-27.991001" lon="152.616776">
				<ele>415</ele>
				<time>2015-05-07T05:11:35Z</time>
				<extensions>
				</extensions>
			</trkpt>
			<trkpt lat="-27.991214" lon="152.616636">
				<ele>412</ele>
				<time>2015-05-07T05:11:37Z</time>
				<extensions>
				</extensions>
			</trkpt>
			<trkpt lat="-27.991436" lon="152.616574">
				<ele>410</ele>
				<time>2015-05-07T05:11:39Z</time>
				<extensions>
				</extensions>
			</trkpt>
			<trkpt lat="-27.991646" lon="152.616543">
				<ele>408</ele>
				<time>2015-05-07T05:11:41Z</time>
				<extensions>
				</extensions>
			</trkpt>
			<trkpt lat="-27.991843" lon="152.616519">
				<ele>406</ele>
				<time>2015-05-07T05:11:43Z</time>
				<extensions>
				</extensions>
			</trkpt>
			<trkpt lat="-27.992050" lon="152.616485">
				<ele>403</ele>
				<time>2015-05-07T05:11:46Z</time>
				<extensions>
				</extensions>
			</trkpt>
			<trkpt lat="-27.992203" lon="152.616374">
				<ele>400</ele>
				<time>2015-05-07T05:11:49Z</time>
				<extensions>
				</extensions>
			</trkpt>
			<trkpt lat="-27.992268" lon="152.616082">
				<ele>400</ele>
				<time>2015-05-07T05:11:53Z</time>
				<extensions>
				</extensions>
			</trkpt>
			<trkpt lat="-27.992303" lon="152.615839">
				<ele>399</ele>
				<time>2015-05-07T05:11:55Z</time>
				<extensions>
				</extensions>
			</trkpt>
			<trkpt lat="-27.992360" lon="152.615597">
				<ele>400</ele>
				<time>2015-05-07T05:11:57Z</time>
				<extensions>
				</extensions>
			</trkpt>
			<trkpt lat="-27.992541" lon="152.615284">
				<ele>400</ele>
				<time>2015-05-07T05:11:59Z</time>
				<extensions>
				</extensions>
			</trkpt>
			<trkpt lat="-27.992760" lon="152.615009">
				<ele>400</ele>
				<time>2015-05-07T05:12:01Z</time>
				<extensions>
				</extensions>
			</trkpt>
			<trkpt lat="-27.992878" lon="152.614841">
				<ele>398</ele>
				<time>2015-05-07T05:12:03Z</time>
				<extensions>
				</extensions>
			</trkpt>
			<trkpt lat="-27.992896" lon="152.614568">
				<ele>396</ele>
				<time>2015-05-07T05:12:06Z</time>
				<extensions>
				</extensions>
			</trkpt>
			<trkpt lat="-27.992857" lon="152.614316">
				<ele>394</ele>
				<time>2015-05-07T05:12:09Z</time>
				<extensions>
				</extensions>
			</trkpt>
			<trkpt lat="-27.992819" lon="152.614103">
				<ele>395</ele>
				<time>2015-05-07T05:12:11Z</time>
				<extensions>
				</extensions>
			</trkpt>
			<trkpt lat="-27.992815" lon="152.613807">
				<ele>393</ele>
				<time>2015-05-07T05:12:14Z</time>
				<extensions>
				</extensions>
			</trkpt>
			<trkpt lat="-27.992879" lon="152.613610">
				<ele>391</ele>
				<time>2015-05-07T05:12:16Z</time>
				<extensions>
				</extensions>
			</trkpt>
			<trkpt lat="-27.993034" lon="152.613733">
				<ele>391</ele>
				<time>2015-05-07T05:12:20Z</time>
				<extensions>
				</extensions>
			</trkpt>
			<trkpt lat="-27.993214" lon="152.613876">
				<ele>392</ele>
				<time>2015-05-07T05:12:23Z</time>
				<extensions>
				</extensions>
			</trkpt>
			<trkpt lat="-27.993389" lon="152.614046">
				<ele>392</ele>
				<time>2015-05-07T05:12:26Z</time>
				<extensions>
				</extensions>
			</trkpt>
			<trkpt lat="-27.993566" lon="152.614268">
				<ele>394</ele>
				<time>2015-05-07T05:12:29Z</time>
				<extensions>
				</extensions>
			</trkpt>
			<trkpt lat="-27.993731" lon="152.614423">
				<ele>393</ele>
				<time>2015-05-07T05:12:31Z</time>
				<extensions>
				</extensions>
			</trkpt>
			<trkpt lat="-27.993894" lon="152.614585">
				<ele>393</ele>
				<time>2015-05-07T05:12:33Z</time>
				<extensions>
				</extensions>
			</trkpt>
			<trkpt lat="-27.994065" lon="152.614738">
				<ele>392</ele>
				<time>2015-05-07T05:12:35Z</time>
				<extensions>
				</extensions>
			</trkpt>
			<trkpt lat="-27.994218" lon="152.614874">
				<ele>390</ele>
				<time>2015-05-07T05:12:37Z</time>
				<extensions>
				</extensions>
			</trkpt>
			<trkpt lat="-27.994375" lon="152.614988">
				<ele>389</ele>
				<time>2015-05-07T05:12:39Z</time>
				<extensions>
				</extensions>
			</trkpt>
			<trkpt lat="-27.994595" lon="152.615092">
				<ele>388</ele>
				<time>2015-05-07T05:12:41Z</time>
				<extensions>
				</extensions>
			</trkpt>
			<trkpt lat="-27.994816" lon="152.615136">
				<ele>386</ele>
				<time>2015-05-07T05:12:43Z</time>
				<extensions>
				</extensions>
			</trkpt>
			<trkpt lat="-27.995041" lon="152.615194">
				<ele>384</ele>
				<time>2015-05-07T05:12:45Z</time>
				<extensions>
				</extensions>
			</trkpt>
			<trkpt lat="-27.995253" lon="152.615259">
				<ele>382</ele>
				<time>2015-05-07T05:12:47Z</time>
				<extensions>
				</extensions>
			</trkpt>
			<trkpt lat="-27.995476" lon="152.615310">
				<ele>380</ele>
				<time>2015-05-07T05:12:49Z</time>
				<extensions>
				</extensions>
			</trkpt>
			<trkpt lat="-27.995706" lon="152.615371">
				<ele>377</ele>
				<time>2015-05-07T05:12:51Z</time>
				<extensions>
				</extensions>
			</trkpt>
			<trkpt lat="-27.995951" lon="152.615467">
				<ele>373</ele>
				<time>2015-05-07T05:12:53Z</time>
				<extensions>
				</extensions>
			</trkpt>
			<trkpt lat="-27.996169" lon="152.615576">
				<ele>370</ele>
				<time>2015-05-07T05:12:55Z</time>
				<extensions>
				</extensions>
			</trkpt>
			<trkpt lat="-27.996364" lon="152.615711">
				<ele>368</ele>
				<time>2015-05-07T05:12:57Z</time>
				<extensions>
				</extensions>
			</trkpt>
			<trkpt lat="-27.996554" lon="152.615884">
				<ele>367</ele>
				<time>2015-05-07T05:12:59Z</time>
				<extensions>
				</extensions>
			</trkpt>
			<trkpt lat="-27.996737" lon="152.616066">
				<ele>366</ele>
				<time>2015-05-07T05:13:01Z</time>
				<extensions>
				</extensions>
			</trkpt>
			<trkpt lat="-27.996909" lon="152.616238">
				<ele>365</ele>
				<time>2015-05-07T05:13:03Z</time>
				<extensions>
				</extensions>
			</trkpt>
			<trkpt lat="-27.997090" lon="152.616422">
				<ele>365</ele>
				<time>2015-05-07T05:13:05Z</time>
				<extensions>
				</extensions>
			</trkpt>
			<trkpt lat="-27.997296" lon="152.616630">
				<ele>366</ele>
				<time>2015-05-07T05:13:07Z</time>
				<extensions>
				</extensions>
			</trkpt>
			<trkpt lat="-27.997481" lon="152.616822">
				<ele>366</ele>
				<time>2015-05-07T05:13:09Z</time>
				<extensions>
				</extensions>
			</trkpt>
			<trkpt lat="-27.997678" lon="152.617037">
				<ele>367</ele>
				<time>2015-05-07T05:13:11Z</time>
				<extensions>
				</extensions>
			</trkpt>
			<trkpt lat="-27.997852" lon="152.617246">
				<ele>365</ele>
				<time>2015-05-07T05:13:13Z</time>
				<extensions>
				</extensions>
			</trkpt>
			<trkpt lat="-27.997996" lon="152.617487">
				<ele>364</ele>
				<time>2015-05-07T05:13:15Z</time>
				<extensions>
				</extensions>
			</trkpt>
			<trkpt lat="-27.998143" lon="152.617745">
				<ele>362</ele>
				<time>2015-05-07T05:13:17Z</time>
				<extensions>
				</extensions>
			</trkpt>
			<trkpt lat="-27.998320" lon="152.617993">
				<ele>361</ele>
				<time>2015-05-07T05:13:19Z</time>
				<extensions>
				</extensions>
			</trkpt>
			<trkpt lat="-27.998441" lon="152.618145">
				<ele>360</ele>
				<time>2015-05-07T05:13:20Z</time>
				<extensions>
				</extensions>
			</trkpt>
			<trkpt lat="-27.998663" lon="152.618394">
				<ele>358</ele>
				<time>2015-05-07T05:13:22Z</time>
				<extensions>
				</extensions>
			</trkpt>
			<trkpt lat="-27.998904" lon="152.618652">
				<ele>355</ele>
				<time>2015-05-07T05:13:24Z</time>
				<extensions>
				</extensions>
			</trkpt>
			<trkpt lat="-27.999129" lon="152.618890">
				<ele>351</ele>
				<time>2015-05-07T05:13:26Z</time>
				<extensions>
				</extensions>
			</trkpt>
			<trkpt lat="-27.999347" lon="152.619128">
				<ele>348</ele>
				<time>2015-05-07T05:13:28Z</time>
				<extensions>
				</extensions>
			</trkpt>
			<trkpt lat="-27.999559" lon="152.619363">
				<ele>343</ele>
				<time>2015-05-07T05:13:30Z</time>
				<extensions>
				</extensions>
			</trkpt>
			<trkpt lat="-27.999724" lon="152.619575">
				<ele>336</ele>
				<time>2015-05-07T05:13:32Z</time>
				<extensions>
				</extensions>
			</trkpt>
			<trkpt lat="-27.999907" lon="152.619886">
				<ele>331</ele>
				<time>2015-05-07T05:13:34Z</time>
				<extensions>
				</extensions>
			</trkpt>
			<trkpt lat="-28.000075" lon="152.620217">
				<ele>326</ele>
				<time>2015-05-07T05:13:36Z</time>
				<extensions>
				</extensions>
			</trkpt>
			<trkpt lat="-28.000233" lon="152.620549">
				<ele>322</ele>
				<time>2015-05-07T05:13:38Z</time>
				<extensions>
				</extensions>
			</trkpt>
			<trkpt lat="-28.000321" lon="152.620732">
				<ele>319</ele>
				<time>2015-05-07T05:13:39Z</time>
				<extensions>
				</extensions>
			</trkpt>
			<trkpt lat="-28.000478" lon="152.621063">
				<ele>317</ele>
				<time>2015-05-07T05:13:41Z</time>
				<extensions>
				</extensions>
			</trkpt>
			<trkpt lat="-28.000626" lon="152.621377">
				<ele>316</ele>
				<time>2015-05-07T05:13:43Z</time>
				<extensions>
				</extensions>
			</trkpt>
			<trkpt lat="-28.000768" lon="152.621679">
				<ele>313</ele>
				<time>2015-05-07T05:13:45Z</time>
				<extensions>
				</extensions>
			</trkpt>
			<trkpt lat="-28.000904" lon="152.621966">
				<ele>312</ele>
				<time>2015-05-07T05:13:47Z</time>
				<extensions>
				</extensions>
			</trkpt>
			<trkpt lat="-28.001047" lon="152.622271">
				<ele>315</ele>
				<time>2015-05-07T05:13:49Z</time>
				<extensions>
				</extensions>
			</trkpt>
			<trkpt lat="-28.001177" lon="152.622546">
				<ele>315</ele>
				<time>2015-05-07T05:13:51Z</time>
				<extensions>
				</extensions>
			</trkpt>
			<trkpt lat="-28.001315" lon="152.622841">
				<ele>315</ele>
				<time>2015-05-07T05:13:53Z</time>
				<extensions>
				</extensions>
			</trkpt>
			<trkpt lat="-28.001381" lon="152.623145">
				<ele>315</ele>
				<time>2015-05-07T05:13:55Z</time>
				<extensions>
				</extensions>
			</trkpt>
			<trkpt lat="-28.001422" lon="152.623461">
				<ele>314</ele>
				<time>2015-05-07T05:13:57Z</time>
				<extensions>
				</extensions>
			</trkpt>
			<trkpt lat="-28.001471" lon="152.623758">
				<ele>312</ele>
				<time>2015-05-07T05:13:59Z</time>
				<extensions>
				</extensions>
			</trkpt>
			<trkpt lat="-28.001531" lon="152.624081">
				<ele>308</ele>
				<time>2015-05-07T05:14:01Z</time>
				<extensions>
				</extensions>
			</trkpt>
			<trkpt lat="-28.001582" lon="152.624417">
				<ele>304</ele>
				<time>2015-05-07T05:14:03Z</time>
				<extensions>
				</extensions>
			</trkpt>
			<trkpt lat="-28.001651" lon="152.624795">
				<ele>299</ele>
				<time>2015-05-07T05:14:05Z</time>
				<extensions>
				</extensions>
			</trkpt>
			<trkpt lat="-28.001673" lon="152.625120">
				<ele>290</ele>
				<time>2015-05-07T05:14:07Z</time>
				<extensions>
				</extensions>
			</trkpt>
			<trkpt lat="-28.001689" lon="152.625421">
				<ele>285</ele>
				<time>2015-05-07T05:14:09Z</time>
				<extensions>
				</extensions>
			</trkpt>
			<trkpt lat="-28.001731" lon="152.625744">
				<ele>281</ele>
				<time>2015-05-07T05:14:11Z</time>
				<extensions>
				</extensions>
			</trkpt>
			<trkpt lat="-28.001791" lon="152.626004">
				<ele>274</ele>
				<time>2015-05-07T05:14:13Z</time>
				<extensions>
				</extensions>
			</trkpt>
			<trkpt lat="-28.001867" lon="152.626196">
				<ele>269</ele>
				<time>2015-05-07T05:14:15Z</time>
				<extensions>
				</extensions>
			</trkpt>
			<trkpt lat="-28.002029" lon="152.626508">
				<ele>264</ele>
				<time>2015-05-07T05:14:17Z</time>
				<extensions>
				</extensions>
			</trkpt>
			<trkpt lat="-28.002196" lon="152.626822">
				<ele>260</ele>
				<time>2015-05-07T05:14:19Z</time>
				<extensions>
				</extensions>
			</trkpt>
			<trkpt lat="-28.002360" lon="152.627131">
				<ele>256</ele>
				<time>2015-05-07T05:14:21Z</time>
				<extensions>
				</extensions>
			</trkpt>
			<trkpt lat="-28.002508" lon="152.627409">
				<ele>253</ele>
				<time>2015-05-07T05:14:23Z</time>
				<extensions>
				</extensions>
			</trkpt>
			<trkpt lat="-28.002651" lon="152.627674">
				<ele>251</ele>
				<time>2015-05-07T05:14:25Z</time>
				<extensions>
				</extensions>
			</trkpt>
			<trkpt lat="-28.002784" lon="152.627929">
				<ele>250</ele>
				<time>2015-05-07T05:14:27Z</time>
				<extensions>
				</extensions>
			</trkpt>
			<trkpt lat="-28.002875" lon="152.628214">
				<ele>251</ele>
				<time>2015-05-07T05:14:29Z</time>
				<extensions>
				</extensions>
			</trkpt>
			<trkpt lat="-28.002945" lon="152.628520">
				<ele>251</ele>
				<time>2015-05-07T05:14:31Z</time>
				<extensions>
				</extensions>
			</trkpt>
			<trkpt lat="-28.002983" lon="152.628809">
				<ele>251</ele>
				<time>2015-05-07T05:14:33Z</time>
				<extensions>
				</extensions>
			</trkpt>
			<trkpt lat="-28.003020" lon="152.629131">
				<ele>248</ele>
				<time>2015-05-07T05:14:35Z</time>
				<extensions>
				</extensions>
			</trkpt>
			<trkpt lat="-28.003057" lon="152.629427">
				<ele>246</ele>
				<time>2015-05-07T05:14:37Z</time>
				<extensions>
				</extensions>
			</trkpt>
			<trkpt lat="-28.003110" lon="152.629733">
				<ele>242</ele>
				<time>2015-05-07T05:14:39Z</time>
				<extensions>
				</extensions>
			</trkpt>
			<trkpt lat="-28.003173" lon="152.630069">
				<ele>237</ele>
				<time>2015-05-07T05:14:41Z</time>
				<extensions>
				</extensions>
			</trkpt>
			<trkpt lat="-28.003220" lon="152.630390">
				<ele>230</ele>
				<time>2015-05-07T05:14:43Z</time>
				<extensions>
				</extensions>
			</trkpt>
			<trkpt lat="-28.003259" lon="152.630743">
				<ele>226</ele>
				<time>2015-05-07T05:14:45Z</time>
				<extensions>
				</extensions>
			</trkpt>
			<trkpt lat="-28.003313" lon="152.631114">
				<ele>222</ele>
				<time>2015-05-07T05:14:47Z</time>
				<extensions>
				</extensions>
			</trkpt>
			<trkpt lat="-28.003362" lon="152.631490">
				<ele>218</ele>
				<time>2015-05-07T05:14:49Z</time>
				<extensions>
				</extensions>
			</trkpt>
			<trkpt lat="-28.003410" lon="152.631869">
				<ele>218</ele>
				<time>2015-05-07T05:14:51Z</time>
				<extensions>
				</extensions>
			</trkpt>
			<trkpt lat="-28.003470" lon="152.632237">
				<ele>217</ele>
				<time>2015-05-07T05:14:53Z</time>
				<extensions>
				</extensions>
			</trkpt>
			<trkpt lat="-28.003523" lon="152.632605">
				<ele>215</ele>
				<time>2015-05-07T05:14:55Z</time>
				<extensions>
				</extensions>
			</trkpt>
			<trkpt lat="-28.003576" lon="152.632971">
				<ele>213</ele>
				<time>2015-05-07T05:14:57Z</time>
				<extensions>
				</extensions>
			</trkpt>
			<trkpt lat="-28.003625" lon="152.633342">
				<ele>211</ele>
				<time>2015-05-07T05:14:59Z</time>
				<extensions>
				</extensions>
			</trkpt>
			<trkpt lat="-28.003668" lon="152.633673">
				<ele>209</ele>
				<time>2015-05-07T05:15:01Z</time>
				<extensions>
				</extensions>
			</trkpt>
			<trkpt lat="-28.003701" lon="152.633996">
				<ele>207</ele>
				<time>2015-05-07T05:15:03Z</time>
				<extensions>
				</extensions>
			</trkpt>
			<trkpt lat="-28.003670" lon="152.634332">
				<ele>205</ele>
				<time>2015-05-07T05:15:05Z</time>
				<extensions>
				</extensions>
			</trkpt>
			<trkpt lat="-28.003524" lon="152.634664">
				<ele>202</ele>
				<time>2015-05-07T05:15:07Z</time>
				<extensions>
				</extensions>
			</trkpt>
			<trkpt lat="-28.003365" lon="152.634939">
				<ele>201</ele>
				<time>2015-05-07T05:15:09Z</time>
				<extensions>
				</extensions>
			</trkpt>
			<trkpt lat="-28.003198" lon="152.635174">
				<ele>203</ele>
				<time>2015-05-07T05:15:11Z</time>
				<extensions>
				</extensions>
			</trkpt>
			<trkpt lat="-28.003045" lon="152.635419">
				<ele>204</ele>
				<time>2015-05-07T05:15:13Z</time>
				<extensions>
				</extensions>
			</trkpt>
			<trkpt lat="-28.002940" lon="152.635673">
				<ele>204</ele>
				<time>2015-05-07T05:15:15Z</time>
				<extensions>
				</extensions>
			</trkpt>
			<trkpt lat="-28.002905" lon="152.635945">
				<ele>205</ele>
				<time>2015-05-07T05:15:17Z</time>
				<extensions>
				</extensions>
			</trkpt>
			<trkpt lat="-28.002915" lon="152.636294">
				<ele>205</ele>
				<time>2015-05-07T05:15:19Z</time>
				<extensions>
				</extensions>
			</trkpt>
			<trkpt lat="-28.002965" lon="152.636692">
				<ele>207</ele>
				<time>2015-05-07T05:15:21Z</time>
				<extensions>
				</extensions>
			</trkpt>
			<trkpt lat="-28.003002" lon="152.636903">
				<ele>207</ele>
				<time>2015-05-07T05:15:22Z</time>
				<extensions>
				</extensions>
			</trkpt>
			<trkpt lat="-28.003034" lon="152.637140">
				<ele>206</ele>
				<time>2015-05-07T05:15:23Z</time>
				<extensions>
				</extensions>
			</trkpt>
			<trkpt lat="-28.003059" lon="152.637348">
				<ele>205</ele>
				<time>2015-05-07T05:15:24Z</time>
				<extensions>
				</extensions>
			</trkpt>
			<trkpt lat="-28.003087" lon="152.637556">
				<ele>205</ele>
				<time>2015-05-07T05:15:25Z</time>
				<extensions>
				</extensions>
			</trkpt>
			<trkpt lat="-28.003115" lon="152.637784">
				<ele>204</ele>
				<time>2015-05-07T05:15:26Z</time>
				<extensions>
				</extensions>
			</trkpt>
			<trkpt lat="-28.003141" lon="152.638008">
				<ele>204</ele>
				<time>2015-05-07T05:15:27Z</time>
				<extensions>
				</extensions>
			</trkpt>
			<trkpt lat="-28.003169" lon="152.638241">
				<ele>202</ele>
				<time>2015-05-07T05:15:28Z</time>
				<extensions>
				</extensions>
			</trkpt>
			<trkpt lat="-28.003202" lon="152.638467">
				<ele>201</ele>
				<time>2015-05-07T05:15:29Z</time>
				<extensions>
				</extensions>
			</trkpt>
			<trkpt lat="-28.003235" lon="152.638706">
				<ele>200</ele>
				<time>2015-05-07T05:15:30Z</time>
				<extensions>
				</extensions>
			</trkpt>
			<trkpt lat="-28.003265" lon="152.638940">
				<ele>200</ele>
				<time>2015-05-07T05:15:31Z</time>
				<extensions>
				</extensions>
			</trkpt>
			<trkpt lat="-28.003300" lon="152.639145">
				<ele>199</ele>
				<time>2015-05-07T05:15:32Z</time>
				<extensions>
				</extensions>
			</trkpt>
			<trkpt lat="-28.003331" lon="152.639466">
				<ele>196</ele>
				<time>2015-05-07T05:15:34Z</time>
				<extensions>
				</extensions>
			</trkpt>
			<trkpt lat="-28.003389" lon="152.639840">
				<ele>194</ele>
				<time>2015-05-07T05:15:36Z</time>
				<extensions>
				</extensions>
			</trkpt>
			<trkpt lat="-28.003447" lon="152.640217">
				<ele>193</ele>
				<time>2015-05-07T05:15:38Z</time>
				<extensions>
				</extensions>
			</trkpt>
			<trkpt lat="-28.003506" lon="152.640593">
				<ele>191</ele>
				<time>2015-05-07T05:15:40Z</time>
				<extensions>
				</extensions>
			</trkpt>
			<trkpt lat="-28.003562" lon="152.640958">
				<ele>189</ele>
				<time>2015-05-07T05:15:42Z</time>
				<extensions>
				</extensions>
			</trkpt>
			<trkpt lat="-28.003622" lon="152.641300">
				<ele>185</ele>
				<time>2015-05-07T05:15:44Z</time>
				<extensions>
				</extensions>
			</trkpt>
			<trkpt lat="-28.003673" lon="152.641658">
				<ele>182</ele>
				<time>2015-05-07T05:15:46Z</time>
				<extensions>
				</extensions>
			</trkpt>
			<trkpt lat="-28.003724" lon="152.642017">
				<ele>179</ele>
				<time>2015-05-07T05:15:48Z</time>
				<extensions>
				</extensions>
			</trkpt>
			<trkpt lat="-28.003770" lon="152.642369">
				<ele>173</ele>
				<time>2015-05-07T05:15:50Z</time>
				<extensions>
				</extensions>
			</trkpt>
			<trkpt lat="-28.003820" lon="152.642668">
				<ele>168</ele>
				<time>2015-05-07T05:15:52Z</time>
				<extensions>
				</extensions>
			</trkpt>
			<trkpt lat="-28.003943" lon="152.642903">
				<ele>166</ele>
				<time>2015-05-07T05:15:54Z</time>
				<extensions>
				</extensions>
			</trkpt>
			<trkpt lat="-28.004119" lon="152.643060">
				<ele>165</ele>
				<time>2015-05-07T05:15:56Z</time>
				<extensions>
				</extensions>
			</trkpt>
			<trkpt lat="-28.004348" lon="152.643122">
				<ele>166</ele>
				<time>2015-05-07T05:15:58Z</time>
				<extensions>
				</extensions>
			</trkpt>
			<trkpt lat="-28.004543" lon="152.643122">
				<ele>167</ele>
				<time>2015-05-07T05:15:59Z</time>
				<extensions>
				</extensions>
			</trkpt>
			<trkpt lat="-28.004844" lon="152.643088">
				<ele>168</ele>
				<time>2015-05-07T05:16:01Z</time>
				<extensions>
				</extensions>
			</trkpt>
			<trkpt lat="-28.005156" lon="152.643063">
				<ele>168</ele>
				<time>2015-05-07T05:16:03Z</time>
				<extensions>
				</extensions>
			</trkpt>
			<trkpt lat="-28.005464" lon="152.643105">
				<ele>168</ele>
				<time>2015-05-07T05:16:05Z</time>
				<extensions>
				</extensions>
			</trkpt>
			<trkpt lat="-28.005682" lon="152.643292">
				<ele>170</ele>
				<time>2015-05-07T05:16:07Z</time>
				<extensions>
				</extensions>
			</trkpt>
			<trkpt lat="-28.005784" lon="152.643584">
				<ele>175</ele>
				<time>2015-05-07T05:16:09Z</time>
				<extensions>
				</extensions>
			</trkpt>
			<trkpt lat="-28.005801" lon="152.643833">
				<ele>177</ele>
				<time>2015-05-07T05:16:11Z</time>
				<extensions>
				</extensions>
			</trkpt>
			<trkpt lat="-28.005836" lon="152.644131">
				<ele>179</ele>
				<time>2015-05-07T05:16:13Z</time>
				<extensions>
				</extensions>
			</trkpt>
			<trkpt lat="-28.005876" lon="152.644413">
				<ele>179</ele>
				<time>2015-05-07T05:16:15Z</time>
				<extensions>
				</extensions>
			</trkpt>
			<trkpt lat="-28.005908" lon="152.644735">
				<ele>180</ele>
				<time>2015-05-07T05:16:17Z</time>
				<extensions>
				</extensions>
			</trkpt>
			<trkpt lat="-28.005964" lon="152.645124">
				<ele>179</ele>
				<time>2015-05-07T05:16:19Z</time>
				<extensions>
				</extensions>
			</trkpt>
			<trkpt lat="-28.005987" lon="152.645350">
				<ele>178</ele>
				<time>2015-05-07T05:16:20Z</time>
				<extensions>
				</extensions>
			</trkpt>
			<trkpt lat="-28.006020" lon="152.645576">
				<ele>180</ele>
				<time>2015-05-07T05:16:21Z</time>
				<extensions>
				</extensions>
			</trkpt>
			<trkpt lat="-28.006052" lon="152.645802">
				<ele>180</ele>
				<time>2015-05-07T05:16:22Z</time>
				<extensions>
				</extensions>
			</trkpt>
			<trkpt lat="-28.006086" lon="152.646037">
				<ele>181</ele>
				<time>2015-05-07T05:16:23Z</time>
				<extensions>
				</extensions>
			</trkpt>
			<trkpt lat="-28.006142" lon="152.646423">
				<ele>184</ele>
				<time>2015-05-07T05:16:25Z</time>
				<extensions>
				</extensions>
			</trkpt>
			<trkpt lat="-28.006180" lon="152.646690">
				<ele>186</ele>
				<time>2015-05-07T05:16:26Z</time>
				<extensions>
				</extensions>
			</trkpt>
			<trkpt lat="-28.006215" lon="152.646931">
				<ele>186</ele>
				<time>2015-05-07T05:16:27Z</time>
				<extensions>
				</extensions>
			</trkpt>
			<trkpt lat="-28.006251" lon="152.647184">
				<ele>187</ele>
				<time>2015-05-07T05:16:28Z</time>
				<extensions>
				</extensions>
			</trkpt>
			<trkpt lat="-28.006285" lon="152.647417">
				<ele>188</ele>
				<time>2015-05-07T05:16:29Z</time>
				<extensions>
				</extensions>
			</trkpt>
			<trkpt lat="-28.006321" lon="152.647669">
				<ele>189</ele>
				<time>2015-05-07T05:16:30Z</time>
				<extensions>
				</extensions>
			</trkpt>
			<trkpt lat="-28.006351" lon="152.647883">
				<ele>191</ele>
				<time>2015-05-07T05:16:31Z</time>
				<extensions>
				</extensions>
			</trkpt>
			<trkpt lat="-28.006384" lon="152.648115">
				<ele>192</ele>
				<time>2015-05-07T05:16:32Z</time>
				<extensions>
				</extensions>
			</trkpt>
			<trkpt lat="-28.006416" lon="152.648342">
				<ele>194</ele>
				<time>2015-05-07T05:16:33Z</time>
				<extensions>
				</extensions>
			</trkpt>
			<trkpt lat="-28.006448" lon="152.648570">
				<ele>197</ele>
				<time>2015-05-07T05:16:34Z</time>
				<extensions>
				</extensions>
			</trkpt>
			<trkpt lat="-28.006480" lon="152.648796">
				<ele>199</ele>
				<time>2015-05-07T05:16:35Z</time>
				<extensions>
				</extensions>
			</trkpt>
			<trkpt lat="-28.006507" lon="152.649005">
				<ele>201</ele>
				<time>2015-05-07T05:16:36Z</time>
				<extensions>
				</extensions>
			</trkpt>
			<trkpt lat="-28.006539" lon="152.649233">
				<ele>201</ele>
				<time>2015-05-07T05:16:37Z</time>
				<extensions>
				</extensions>
			</trkpt>
			<trkpt lat="-28.006570" lon="152.649469">
				<ele>203</ele>
				<time>2015-05-07T05:16:38Z</time>
				<extensions>
				</extensions>
			</trkpt>
			<trkpt lat="-28.006615" lon="152.649828">
				<ele>202</ele>
				<time>2015-05-07T05:16:40Z</time>
				<extensions>
				</extensions>
			</trkpt>
			<trkpt lat="-28.006672" lon="152.650181">
				<ele>200</ele>
				<time>2015-05-07T05:16:42Z</time>
				<extensions>
				</extensions>
			</trkpt>
			<trkpt lat="-28.006695" lon="152.650465">
				<ele>197</ele>
				<time>2015-05-07T05:16:44Z</time>
				<extensions>
				</extensions>
			</trkpt>
			<trkpt lat="-28.006739" lon="152.650695">
				<ele>194</ele>
				<time>2015-05-07T05:16:46Z</time>
				<extensions>
				</extensions>
			</trkpt>
			<trkpt lat="-28.006779" lon="152.650937">
				<ele>191</ele>
				<time>2015-05-07T05:16:49Z</time>
				<extensions>
				</extensions>
			</trkpt>
			<trkpt lat="-28.006783" lon="152.651151">
				<ele>189</ele>
				<time>2015-05-07T05:16:52Z</time>
				<extensions>
				</extensions>
			</trkpt>
			<trkpt lat="-28.006592" lon="152.651284">
				<ele>188</ele>
				<time>2015-05-07T05:16:54Z</time>
				<extensions>
				</extensions>
			</trkpt>
			<trkpt lat="-28.006338" lon="152.651331">
				<ele>190</ele>
				<time>2015-05-07T05:16:56Z</time>
				<extensions>
				</extensions>
			</trkpt>
			<trkpt lat="-28.006045" lon="152.651382">
				<ele>191</ele>
				<time>2015-05-07T05:16:58Z</time>
				<extensions>
				</extensions>
			</trkpt>
			<trkpt lat="-28.005725" lon="152.651437">
				<ele>190</ele>
				<time>2015-05-07T05:17:00Z</time>
				<extensions>
				</extensions>
			</trkpt>
			<trkpt lat="-28.005410" lon="152.651492">
				<ele>187</ele>
				<time>2015-05-07T05:17:02Z</time>
				<extensions>
				</extensions>
			</trkpt>
			<trkpt lat="-28.005102" lon="152.651546">
				<ele>186</ele>
				<time>2015-05-07T05:17:04Z</time>
				<extensions>
				</extensions>
			</trkpt>
			<trkpt lat="-28.004806" lon="152.651572">
				<ele>183</ele>
				<time>2015-05-07T05:17:06Z</time>
				<extensions>
				</extensions>
			</trkpt>
			<trkpt lat="-28.004485" lon="152.651619">
				<ele>181</ele>
				<time>2015-05-07T05:17:08Z</time>
				<extensions>
				</extensions>
			</trkpt>
			<trkpt lat="-28.004290" lon="152.651674">
				<ele>179</ele>
				<time>2015-05-07T05:17:09Z</time>
				<extensions>
				</extensions>
			</trkpt>
			<trkpt lat="-28.003957" lon="152.651736">
				<ele>177</ele>
				<time>2015-05-07T05:17:11Z</time>
				<extensions>
				</extensions>
			</trkpt>
			<trkpt lat="-28.003605" lon="152.651801">
				<ele>176</ele>
				<time>2015-05-07T05:17:13Z</time>
				<extensions>
				</extensions>
			</trkpt>
			<trkpt lat="-28.003252" lon="152.651864">
				<ele>178</ele>
				<time>2015-05-07T05:17:15Z</time>
				<extensions>
				</extensions>
			</trkpt>
			<trkpt lat="-28.003073" lon="152.651898">
				<ele>179</ele>
				<time>2015-05-07T05:17:16Z</time>
				<extensions>
				</extensions>
			</trkpt>
			<trkpt lat="-28.002887" lon="152.651926">
				<ele>180</ele>
				<time>2015-05-07T05:17:17Z</time>
				<extensions>
				</extensions>
			</trkpt>
			<trkpt lat="-28.002704" lon="152.651961">
				<ele>180</ele>
				<time>2015-05-07T05:17:18Z</time>
				<extensions>
				</extensions>
			</trkpt>
			<trkpt lat="-28.002359" lon="152.652024">
				<ele>180</ele>
				<time>2015-05-07T05:17:20Z</time>
				<extensions>
				</extensions>
			</trkpt>
			<trkpt lat="-28.002050" lon="152.652071">
				<ele>177</ele>
				<time>2015-05-07T05:17:22Z</time>
				<extensions>
				</extensions>
			</trkpt>
			<trkpt lat="-28.001773" lon="152.652116">
				<ele>175</ele>
				<time>2015-05-07T05:17:24Z</time>
				<extensions>
				</extensions>
			</trkpt>
			<trkpt lat="-28.001495" lon="152.652170">
				<ele>173</ele>
				<time>2015-05-07T05:17:26Z</time>
				<extensions>
				</extensions>
			</trkpt>
			<trkpt lat="-28.001192" lon="152.652225">
				<ele>171</ele>
				<time>2015-05-07T05:17:28Z</time>
				<extensions>
				</extensions>
			</trkpt>
			<trkpt lat="-28.000901" lon="152.652272">
				<ele>171</ele>
				<time>2015-05-07T05:17:30Z</time>
				<extensions>
				</extensions>
			</trkpt>
			<trkpt lat="-28.000619" lon="152.652324">
				<ele>171</ele>
				<time>2015-05-07T05:17:32Z</time>
				<extensions>
				</extensions>
			</trkpt>
			<trkpt lat="-28.000347" lon="152.652368">
				<ele>169</ele>
				<time>2015-05-07T05:17:34Z</time>
				<extensions>
				</extensions>
			</trkpt>
			<trkpt lat="-28.000132" lon="152.652402">
				<ele>167</ele>
				<time>2015-05-07T05:17:36Z</time>
				<extensions>
				</extensions>
			</trkpt>
			<trkpt lat="-27.999896" lon="152.652475">
				<ele>165</ele>
				<time>2015-05-07T05:17:39Z</time>
				<extensions>
				</extensions>
			</trkpt>
			<trkpt lat="-27.999816" lon="152.652711">
				<ele>167</ele>
				<time>2015-05-07T05:17:42Z</time>
				<extensions>
				</extensions>
			</trkpt>
			<trkpt lat="-27.999846" lon="152.652993">
				<ele>170</ele>
				<time>2015-05-07T05:17:44Z</time>
				<extensions>
				</extensions>
			</trkpt>
			<trkpt lat="-27.999883" lon="152.653320">
				<ele>173</ele>
				<time>2015-05-07T05:17:46Z</time>
				<extensions>
				</extensions>
			</trkpt>
			<trkpt lat="-27.999933" lon="152.653682">
				<ele>176</ele>
				<time>2015-05-07T05:17:48Z</time>
				<extensions>
				</extensions>
			</trkpt>
			<trkpt lat="-27.999995" lon="152.654002">
				<ele>178</ele>
				<time>2015-05-07T05:17:50Z</time>
				<extensions>
				</extensions>
			</trkpt>
			<trkpt lat="-28.000036" lon="152.654309">
				<ele>177</ele>
				<time>2015-05-07T05:17:52Z</time>
				<extensions>
				</extensions>
			</trkpt>
			<trkpt lat="-28.000083" lon="152.654650">
				<ele>176</ele>
				<time>2015-05-07T05:17:54Z</time>
				<extensions>
				</extensions>
			</trkpt>
			<trkpt lat="-28.000115" lon="152.654967">
				<ele>175</ele>
				<time>2015-05-07T05:17:56Z</time>
				<extensions>
				</extensions>
			</trkpt>
			<trkpt lat="-28.000156" lon="152.655300">
				<ele>173</ele>
				<time>2015-05-07T05:17:58Z</time>
				<extensions>
				</extensions>
			</trkpt>
			<trkpt lat="-28.000198" lon="152.655626">
				<ele>172</ele>
				<time>2015-05-07T05:18:00Z</time>
				<extensions>
				</extensions>
			</trkpt>
			<trkpt lat="-28.000242" lon="152.655969">
				<ele>170</ele>
				<time>2015-05-07T05:18:02Z</time>
				<extensions>
				</extensions>
			</trkpt>
			<trkpt lat="-28.000290" lon="152.656312">
				<ele>168</ele>
				<time>2015-05-07T05:18:04Z</time>
				<extensions>
				</extensions>
			</trkpt>
			<trkpt lat="-28.000343" lon="152.656668">
				<ele>166</ele>
				<time>2015-05-07T05:18:06Z</time>
				<extensions>
				</extensions>
			</trkpt>
			<trkpt lat="-28.000389" lon="152.657012">
				<ele>163</ele>
				<time>2015-05-07T05:18:08Z</time>
				<extensions>
				</extensions>
			</trkpt>
			<trkpt lat="-28.000436" lon="152.657304">
				<ele>158</ele>
				<time>2015-05-07T05:18:10Z</time>
				<extensions>
				</extensions>
			</trkpt>
			<trkpt lat="-28.000531" lon="152.657593">
				<ele>156</ele>
				<time>2015-05-07T05:18:12Z</time>
				<extensions>
				</extensions>
			</trkpt>
			<trkpt lat="-28.000695" lon="152.657838">
				<ele>155</ele>
				<time>2015-05-07T05:18:14Z</time>
				<extensions>
				</extensions>
			</trkpt>
			<trkpt lat="-28.000900" lon="152.658081">
				<ele>154</ele>
				<time>2015-05-07T05:18:16Z</time>
				<extensions>
				</extensions>
			</trkpt>
			<trkpt lat="-28.001135" lon="152.658360">
				<ele>152</ele>
				<time>2015-05-07T05:18:18Z</time>
				<extensions>
				</extensions>
			</trkpt>
			<trkpt lat="-28.001235" lon="152.658534">
				<ele>152</ele>
				<time>2015-05-07T05:18:19Z</time>
				<extensions>
				</extensions>
			</trkpt>
			<trkpt lat="-28.001309" lon="152.658728">
				<ele>152</ele>
				<time>2015-05-07T05:18:20Z</time>
				<extensions>
				</extensions>
			</trkpt>
			<trkpt lat="-28.001376" lon="152.659108">
				<ele>153</ele>
				<time>2015-05-07T05:18:22Z</time>
				<extensions>
				</extensions>
			</trkpt>
			<trkpt lat="-28.001426" lon="152.659462">
				<ele>155</ele>
				<time>2015-05-07T05:18:24Z</time>
				<extensions>
				</extensions>
			</trkpt>
			<trkpt lat="-28.001473" lon="152.659798">
				<ele>156</ele>
				<time>2015-05-07T05:18:26Z</time>
				<extensions>
				</extensions>
			</trkpt>
			<trkpt lat="-28.001510" lon="152.660064">
				<ele>156</ele>
				<time>2015-05-07T05:18:27Z</time>
				<extensions>
				</extensions>
			</trkpt>
			<trkpt lat="-28.001539" lon="152.660266">
				<ele>156</ele>
				<time>2015-05-07T05:18:28Z</time>
				<extensions>
				</extensions>
			</trkpt>
			<trkpt lat="-28.001594" lon="152.660656">
				<ele>155</ele>
				<time>2015-05-07T05:18:30Z</time>
				<extensions>
				</extensions>
			</trkpt>
			<trkpt lat="-28.001645" lon="152.661024">
				<ele>155</ele>
				<time>2015-05-07T05:18:32Z</time>
				<extensions>
				</extensions>
			</trkpt>
			<trkpt lat="-28.001701" lon="152.661432">
				<ele>153</ele>
				<time>2015-05-07T05:18:34Z</time>
				<extensions>
				</extensions>
			</trkpt>
			<trkpt lat="-28.001754" lon="152.661817">
				<ele>154</ele>
				<time>2015-05-07T05:18:36Z</time>
				<extensions>
				</extensions>
			</trkpt>
			<trkpt lat="-28.001806" lon="152.662200">
				<ele>153</ele>
				<time>2015-05-07T05:18:38Z</time>
				<extensions>
				</extensions>
			</trkpt>
			<trkpt lat="-28.001850" lon="152.662548">
				<ele>153</ele>
				<time>2015-05-07T05:18:40Z</time>
				<extensions>
				</extensions>
			</trkpt>
			<trkpt lat="-28.001899" lon="152.662894">
				<ele>154</ele>
				<time>2015-05-07T05:18:42Z</time>
				<extensions>
				</extensions>
			</trkpt>
			<trkpt lat="-28.001948" lon="152.663251">
				<ele>154</ele>
				<time>2015-05-07T05:18:44Z</time>
				<extensions>
				</extensions>
			</trkpt>
			<trkpt lat="-28.001995" lon="152.663599">
				<ele>152</ele>
				<time>2015-05-07T05:18:46Z</time>
				<extensions>
				</extensions>
			</trkpt>
			<trkpt lat="-28.002038" lon="152.663945">
				<ele>153</ele>
				<time>2015-05-07T05:18:48Z</time>
				<extensions>
				</extensions>
			</trkpt>
			<trkpt lat="-28.002084" lon="152.664303">
				<ele>153</ele>
				<time>2015-05-07T05:18:50Z</time>
				<extensions>
				</extensions>
			</trkpt>
			<trkpt lat="-28.002132" lon="152.664650">
				<ele>151</ele>
				<time>2015-05-07T05:18:52Z</time>
				<extensions>
				</extensions>
			</trkpt>
			<trkpt lat="-28.002181" lon="152.665009">
				<ele>148</ele>
				<time>2015-05-07T05:18:54Z</time>
				<extensions>
				</extensions>
			</trkpt>
			<trkpt lat="-28.002228" lon="152.665367">
				<ele>146</ele>
				<time>2015-05-07T05:18:56Z</time>
				<extensions>
				</extensions>
			</trkpt>
			<trkpt lat="-28.002276" lon="152.665724">
				<ele>144</ele>
				<time>2015-05-07T05:18:58Z</time>
				<extensions>
				</extensions>
			</trkpt>
			<trkpt lat="-28.002329" lon="152.666120">
				<ele>140</ele>
				<time>2015-05-07T05:19:00Z</time>
				<extensions>
				</extensions>
			</trkpt>
			<trkpt lat="-28.002381" lon="152.666506">
				<ele>138</ele>
				<time>2015-05-07T05:19:02Z</time>
				<extensions>
				</extensions>
			</trkpt>
			<trkpt lat="-28.002433" lon="152.666891">
				<ele>141</ele>
				<time>2015-05-07T05:19:04Z</time>
				<extensions>
				</extensions>
			</trkpt>
			<trkpt lat="-28.002460" lon="152.667094">
				<ele>143</ele>
				<time>2015-05-07T05:19:05Z</time>
				<extensions>
				</extensions>
			</trkpt>
			<trkpt lat="-28.002514" lon="152.667505">
				<ele>145</ele>
				<time>2015-05-07T05:19:07Z</time>
				<extensions>
				</extensions>
			</trkpt>
			<trkpt lat="-28.002564" lon="152.667906">
				<ele>148</ele>
				<time>2015-05-07T05:19:09Z</time>
				<extensions>
				</extensions>
			</trkpt>
			<trkpt lat="-28.002611" lon="152.668279">
				<ele>146</ele>
				<time>2015-05-07T05:19:11Z</time>
				<extensions>
				</extensions>
			</trkpt>
			<trkpt lat="-28.002662" lon="152.668651">
				<ele>141</ele>
				<time>2015-05-07T05:19:13Z</time>
				<extensions>
				</extensions>
			</trkpt>
			<trkpt lat="-28.002719" lon="152.669049">
				<ele>140</ele>
				<time>2015-05-07T05:19:15Z</time>
				<extensions>
				</extensions>
			</trkpt>
			<trkpt lat="-28.002746" lon="152.669251">
				<ele>139</ele>
				<time>2015-05-07T05:19:16Z</time>
				<extensions>
				</extensions>
			</trkpt>
			<trkpt lat="-28.002774" lon="152.669456">
				<ele>135</ele>
				<time>2015-05-07T05:19:17Z</time>
				<extensions>
				</extensions>
			</trkpt>
			<trkpt lat="-28.002801" lon="152.669664">
				<ele>134</ele>
				<time>2015-05-07T05:19:18Z</time>
				<extensions>
				</extensions>
			</trkpt>
			<trkpt lat="-28.002829" lon="152.669867">
				<ele>132</ele>
				<time>2015-05-07T05:19:19Z</time>
				<extensions>
				</extensions>
			</trkpt>
			<trkpt lat="-28.002857" lon="152.670073">
				<ele>131</ele>
				<time>2015-05-07T05:19:20Z</time>
				<extensions>
				</extensions>
			</trkpt>
			<trkpt lat="-28.002885" lon="152.670279">
				<ele>128</ele>
				<time>2015-05-07T05:19:21Z</time>
				<extensions>
				</extensions>
			</trkpt>
			<trkpt lat="-28.002936" lon="152.670670">
				<ele>126</ele>
				<time>2015-05-07T05:19:23Z</time>
				<extensions>
				</extensions>
			</trkpt>
			<trkpt lat="-28.002987" lon="152.671039">
				<ele>126</ele>
				<time>2015-05-07T05:19:25Z</time>
				<extensions>
				</extensions>
			</trkpt>
			<trkpt lat="-28.003037" lon="152.671404">
				<ele>128</ele>
				<time>2015-05-07T05:19:27Z</time>
				<extensions>
				</extensions>
			</trkpt>
			<trkpt lat="-28.003086" lon="152.671756">
				<ele>131</ele>
				<time>2015-05-07T05:19:29Z</time>
				<extensions>
				</extensions>
			</trkpt>
			<trkpt lat="-28.003133" lon="152.672103">
				<ele>132</ele>
				<time>2015-05-07T05:19:31Z</time>
				<extensions>
				</extensions>
			</trkpt>
			<trkpt lat="-28.003176" lon="152.672427">
				<ele>131</ele>
				<time>2015-05-07T05:19:33Z</time>
				<extensions>
				</extensions>
			</trkpt>
			<trkpt lat="-28.003218" lon="152.672764">
				<ele>129</ele>
				<time>2015-05-07T05:19:35Z</time>
				<extensions>
				</extensions>
			</trkpt>
			<trkpt lat="-28.003262" lon="152.673104">
				<ele>126</ele>
				<time>2015-05-07T05:19:37Z</time>
				<extensions>
				</extensions>
			</trkpt>
			<trkpt lat="-28.003309" lon="152.673452">
				<ele>123</ele>
				<time>2015-05-07T05:19:39Z</time>
				<extensions>
				</extensions>
			</trkpt>
			<trkpt lat="-28.003351" lon="152.673781">
				<ele>121</ele>
				<time>2015-05-07T05:19:41Z</time>
				<extensions>
				</extensions>
			</trkpt>
			<trkpt lat="-28.003394" lon="152.674108">
				<ele>120</ele>
				<time>2015-05-07T05:19:43Z</time>
				<extensions>
				</extensions>
			</trkpt>
			<trkpt lat="-28.003437" lon="152.674422">
				<ele>119</ele>
				<time>2015-05-07T05:19:45Z</time>
				<extensions>
				</extensions>
			</trkpt>
			<trkpt lat="-28.003480" lon="152.674752">
				<ele>118</ele>
				<time>2015-05-07T05:19:47Z</time>
				<extensions>
				</extensions>
			</trkpt>
			<trkpt lat="-28.003519" lon="152.675063">
				<ele>115</ele>
				<time>2015-05-07T05:19:49Z</time>
				<extensions>
				</extensions>
			</trkpt>
			<trkpt lat="-28.003561" lon="152.675397">
				<ele>112</ele>
				<time>2015-05-07T05:19:51Z</time>
				<extensions>
				</extensions>
			</trkpt>
			<trkpt lat="-28.003589" lon="152.675661">
				<ele>110</ele>
				<time>2015-05-07T05:19:53Z</time>
				<extensions>
				</extensions>
			</trkpt>
			<trkpt lat="-28.003632" lon="152.675996">
				<ele>107</ele>
				<time>2015-05-07T05:19:55Z</time>
				<extensions>
				</extensions>
			</trkpt>
			<trkpt lat="-28.003667" lon="152.676233">
				<ele>104</ele>
				<time>2015-05-07T05:19:57Z</time>
				<extensions>
				</extensions>
			</trkpt>
			<trkpt lat="-28.003689" lon="152.676470">
				<ele>102</ele>
				<time>2015-05-07T05:19:59Z</time>
				<extensions>
				</extensions>
			</trkpt>
			<trkpt lat="-28.003604" lon="152.676783">
				<ele>101</ele>
				<time>2015-05-07T05:20:02Z</time>
				<extensions>
				</extensions>
			</trkpt>
			<trkpt lat="-28.003477" lon="152.676977">
				<ele>102</ele>
				<time>2015-05-07T05:20:04Z</time>
				<extensions>
				</extensions>
			</trkpt>
			<trkpt lat="-28.003338" lon="152.677165">
				<ele>102</ele>
				<time>2015-05-07T05:20:06Z</time>
				<extensions>
				</extensions>
			</trkpt>
			<trkpt lat="-28.003168" lon="152.677415">
				<ele>101</ele>
				<time>2015-05-07T05:20:09Z</time>
				<extensions>
				</extensions>
			</trkpt>
			<trkpt lat="-28.003099" lon="152.677679">
				<ele>101</ele>
				<time>2015-05-07T05:20:12Z</time>
				<extensions>
				</extensions>
			</trkpt>
			<trkpt lat="-28.003233" lon="152.677905">
				<ele>100</ele>
				<time>2015-05-07T05:20:15Z</time>
				<extensions>
				</extensions>
			</trkpt>
			<trkpt lat="-28.003446" lon="152.678090">
				<ele>100</ele>
				<time>2015-05-07T05:20:17Z</time>
				<extensions>
				</extensions>
			</trkpt>
			<trkpt lat="-28.003677" lon="152.678291">
				<ele>99</ele>
				<time>2015-05-07T05:20:19Z</time>
				<extensions>
				</extensions>
			</trkpt>
			<trkpt lat="-28.003874" lon="152.678521">
				<ele>98</ele>
				<time>2015-05-07T05:20:21Z</time>
				<extensions>
				</extensions>
			</trkpt>
			<trkpt lat="-28.004004" lon="152.678854">
				<ele>99</ele>
				<time>2015-05-07T05:20:23Z</time>
				<extensions>
				</extensions>
			</trkpt>
			<trkpt lat="-28.004041" lon="152.679179">
				<ele>97</ele>
				<time>2015-05-07T05:20:25Z</time>
				<extensions>
				</extensions>
			</trkpt>
			<trkpt lat="-28.004070" lon="152.679417">
				<ele>97</ele>
				<time>2015-05-07T05:20:27Z</time>
				<extensions>
				</extensions>
			</trkpt>
			<trkpt lat="-28.004114" lon="152.679705">
				<ele>96</ele>
				<time>2015-05-07T05:20:29Z</time>
				<extensions>
				</extensions>
			</trkpt>
			<trkpt lat="-28.004155" lon="152.679980">
				<ele>96</ele>
				<time>2015-05-07T05:20:31Z</time>
				<extensions>
				</extensions>
			</trkpt>
			<trkpt lat="-28.004180" lon="152.680240">
				<ele>97</ele>
				<time>2015-05-07T05:20:33Z</time>
				<extensions>
				</extensions>
			</trkpt>
			<trkpt lat="-28.004216" lon="152.680491">
				<ele>95</ele>
				<time>2015-05-07T05:20:35Z</time>
				<extensions>
				</extensions>
			</trkpt>
			<trkpt lat="-28.004245" lon="152.680751">
				<ele>93</ele>
				<time>2015-05-07T05:20:38Z</time>
				<extensions>
				</extensions>
			</trkpt>
			<trkpt lat="-28.004234" lon="152.680979">
				<ele>93</ele>
				<time>2015-05-07T05:20:42Z</time>
				<extensions>
				</extensions>
			</trkpt>
			<trkpt lat="-28.004076" lon="152.681100">
				<ele>95</ele>
				<time>2015-05-07T05:20:45Z</time>
				<extensions>
				</extensions>
			</trkpt>
			<trkpt lat="-28.003804" lon="152.681152">
				<ele>100</ele>
				<time>2015-05-07T05:20:47Z</time>
				<extensions>
				</extensions>
			</trkpt>
			<trkpt lat="-28.003481" lon="152.681210">
				<ele>102</ele>
				<time>2015-05-07T05:20:49Z</time>
				<extensions>
				</extensions>
			</trkpt>
			<trkpt lat="-28.003161" lon="152.681264">
				<ele>100</ele>
				<time>2015-05-07T05:20:51Z</time>
				<extensions>
				</extensions>
			</trkpt>
			<trkpt lat="-28.002978" lon="152.681303">
				<ele>100</ele>
				<time>2015-05-07T05:20:52Z</time>
				<extensions>
				</extensions>
			</trkpt>
			<trkpt lat="-28.002678" lon="152.681371">
				<ele>99</ele>
				<time>2015-05-07T05:20:54Z</time>
				<extensions>
				</extensions>
			</trkpt>
			<trkpt lat="-28.002390" lon="152.681460">
				<ele>98</ele>
				<time>2015-05-07T05:20:56Z</time>
				<extensions>
				</extensions>
			</trkpt>
			<trkpt lat="-28.002119" lon="152.681566">
				<ele>99</ele>
				<time>2015-05-07T05:20:58Z</time>
				<extensions>
				</extensions>
			</trkpt>
			<trkpt lat="-28.001819" lon="152.681684">
				<ele>98</ele>
				<time>2015-05-07T05:21:00Z</time>
				<extensions>
				</extensions>
			</trkpt>
			<trkpt lat="-28.001547" lon="152.681788">
				<ele>98</ele>
				<time>2015-05-07T05:21:02Z</time>
				<extensions>
				</extensions>
			</trkpt>
			<trkpt lat="-28.001283" lon="152.681874">
				<ele>98</ele>
				<time>2015-05-07T05:21:04Z</time>
				<extensions>
				</extensions>
			</trkpt>
			<trkpt lat="-28.000999" lon="152.681908">
				<ele>98</ele>
				<time>2015-05-07T05:21:06Z</time>
				<extensions>
				</extensions>
			</trkpt>
			<trkpt lat="-28.000718" lon="152.681892">
				<ele>98</ele>
				<time>2015-05-07T05:21:08Z</time>
				<extensions>
				</extensions>
			</trkpt>
			<trkpt lat="-28.000455" lon="152.681823">
				<ele>99</ele>
				<time>2015-05-07T05:21:10Z</time>
				<extensions>
				</extensions>
			</trkpt>
			<trkpt lat="-28.000193" lon="152.681733">
				<ele>100</ele>
				<time>2015-05-07T05:21:12Z</time>
				<extensions>
				</extensions>
			</trkpt>
			<trkpt lat="-27.999937" lon="152.681631">
				<ele>105</ele>
				<time>2015-05-07T05:21:14Z</time>
				<extensions>
				</extensions>
			</trkpt>
			<trkpt lat="-27.999699" lon="152.681557">
				<ele>104</ele>
				<time>2015-05-07T05:21:16Z</time>
				<extensions>
				</extensions>
			</trkpt>
			<trkpt lat="-27.999491" lon="152.681512">
				<ele>104</ele>
				<time>2015-05-07T05:21:18Z</time>
				<extensions>
				</extensions>
			</trkpt>
			<trkpt lat="-27.999280" lon="152.681484">
				<ele>104</ele>
				<time>2015-05-07T05:21:22Z</time>
				<extensions>
				</extensions>
			</trkpt>
			<trkpt lat="-27.999100" lon="152.681478">
				<ele>105</ele>
				<time>2015-05-07T05:21:27Z</time>
				<extensions>
				</extensions>
			</trkpt>
			<trkpt lat="-27.998891" lon="152.681480">
				<ele>106</ele>
				<time>2015-05-07T05:21:34Z</time>
				<extensions>
				</extensions>
			</trkpt>
			<trkpt lat="-27.998916" lon="152.681723">
				<ele>104</ele>
				<time>2015-05-07T05:21:39Z</time>
				<extensions>
				</extensions>
			</trkpt>
			<trkpt lat="-27.998846" lon="152.681966">
				<ele>104</ele>
				<time>2015-05-07T05:21:47Z</time>
				<extensions>
				</extensions>
			</trkpt>
			<trkpt lat="-27.998935" lon="152.682220">
				<ele>105</ele>
				<time>2015-05-07T05:21:51Z</time>
				<extensions>
				</extensions>
			</trkpt>
			<trkpt lat="-27.998963" lon="152.682494">
				<ele>106</ele>
				<time>2015-05-07T05:21:54Z</time>
				<extensions>
				</extensions>
			</trkpt>
			<trkpt lat="-27.998987" lon="152.682721">
				<ele>107</ele>
				<time>2015-05-07T05:21:56Z</time>
				<extensions>
				</extensions>
			</trkpt>
			<trkpt lat="-27.999009" lon="152.682935">
				<ele>108</ele>
				<time>2015-05-07T05:21:58Z</time>
				<extensions>
				</extensions>
			</trkpt>
			<trkpt lat="-27.999038" lon="152.683218">
				<ele>108</ele>
				<time>2015-05-07T05:22:01Z</time>
				<extensions>
				</extensions>
			</trkpt>
			<trkpt lat="-27.999062" lon="152.683432">
				<ele>109</ele>
				<time>2015-05-07T05:22:03Z</time>
				<extensions>
				</extensions>
			</trkpt>
			<trkpt lat="-27.999087" lon="152.683663">
				<ele>109</ele>
				<time>2015-05-07T05:22:05Z</time>
				<extensions>
				</extensions>
			</trkpt>
			<trkpt lat="-27.999117" lon="152.683898">
				<ele>110</ele>
				<time>2015-05-07T05:22:07Z</time>
				<extensions>
				</extensions>
			</trkpt>
			<trkpt lat="-27.999146" lon="152.684112">
				<ele>110</ele>
				<time>2015-05-07T05:22:09Z</time>
				<extensions>
				</extensions>
			</trkpt>
			<trkpt lat="-27.999180" lon="152.684365">
				<ele>108</ele>
				<time>2015-05-07T05:22:12Z</time>
				<extensions>
				</extensions>
			</trkpt>
			<trkpt lat="-27.999163" lon="152.684715">
				<ele>107</ele>
				<time>2015-05-07T05:22:16Z</time>
				<extensions>
				</extensions>
			</trkpt>
			<trkpt lat="-27.998921" lon="152.684769">
				<ele>105</ele>
				<time>2015-05-07T05:22:20Z</time>
				<extensions>
				</extensions>
			</trkpt>
			<trkpt lat="-27.998683" lon="152.684823">
				<ele>103</ele>
				<time>2015-05-07T05:22:23Z</time>
				<extensions>
				</extensions>
			</trkpt>
			<trkpt lat="-27.998455" lon="152.684874">
				<ele>101</ele>
				<time>2015-05-07T05:22:26Z</time>
				<extensions>
				</extensions>
			</trkpt>
			<trkpt lat="-27.998232" lon="152.684925">
				<ele>98</ele>
				<time>2015-05-07T05:22:29Z</time>
				<extensions>
				</extensions>
			</trkpt>
			<trkpt lat="-27.998044" lon="152.684967">
				<ele>96</ele>
				<time>2015-05-07T05:22:32Z</time>
				<extensions>
				</extensions>
			</trkpt>
			<trkpt lat="-27.997856" lon="152.684976">
				<ele>95</ele>
				<time>2015-05-07T05:22:34Z</time>
				<extensions>
				</extensions>
			</trkpt>
			<trkpt lat="-27.997775" lon="152.684730">
				<ele>96</ele>
				<time>2015-05-07T05:22:36Z</time>
				<extensions>
				</extensions>
			</trkpt>
			<trkpt lat="-27.997741" lon="152.684459">
				<ele>97</ele>
				<time>2015-05-07T05:22:39Z</time>
				<extensions>
				</extensions>
			</trkpt>
			<trkpt lat="-27.997705" lon="152.684175">
				<ele>97</ele>
				<time>2015-05-07T05:22:42Z</time>
				<extensions>
				</extensions>
			</trkpt>
			<trkpt lat="-27.997674" lon="152.683932">
				<ele>96</ele>
				<time>2015-05-07T05:22:45Z</time>
				<extensions>
				</extensions>
			</trkpt>
			<trkpt lat="-27.997645" lon="152.683703">
				<ele>96</ele>
				<time>2015-05-07T05:22:49Z</time>
				<extensions>
				</extensions>
			</trkpt>
			<trkpt lat="-27.997619" lon="152.683495">
				<ele>96</ele>
				<time>2015-05-07T05:22:55Z</time>
				<extensions>
				</extensions>
			</trkpt>
			<trkpt lat="-27.997435" lon="152.683511">
				<ele>100</ele>
				<time>2015-05-07T05:22:59Z</time>
				<extensions>
				</extensions>
			</trkpt>
			<trkpt lat="-27.997236" lon="152.683547">
				<ele>100</ele>
				<time>2015-05-07T05:23:01Z</time>
				<extensions>
				</extensions>
			</trkpt>
			<trkpt lat="-27.996988" lon="152.683589">
				<ele>100</ele>
				<time>2015-05-07T05:23:04Z</time>
				<extensions>
				</extensions>
			</trkpt>
			<trkpt lat="-27.996804" lon="152.683619">
				<ele>99</ele>
				<time>2015-05-07T05:23:07Z</time>
				<extensions>
				</extensions>
			</trkpt>
			<trkpt lat="-27.996564" lon="152.683655">
				<ele>91</ele>
				<time>2015-05-07T05:23:10Z</time>
				<extensions>
				</extensions>
			</trkpt>
			<trkpt lat="-27.996383" lon="152.683683">
				<ele>90</ele>
				<time>2015-05-07T05:23:12Z</time>
				<extensions>
				</extensions>
			</trkpt>
			<trkpt lat="-27.996184" lon="152.683714">
				<ele>89</ele>
				<time>2015-05-07T05:23:14Z</time>
				<extensions>
				</extensions>
			</trkpt>
			<trkpt lat="-27.995993" lon="152.683732">
				<ele>88</ele>
				<time>2015-05-07T05:23:16Z</time>
				<extensions>
				</extensions>
			</trkpt>
			<trkpt lat="-27.995849" lon="152.683604">
				<ele>87</ele>
				<time>2015-05-07T05:23:18Z</time>
				<extensions>
				</extensions>
			</trkpt>
			<trkpt lat="-27.995706" lon="152.683439">
				<ele>85</ele>
				<time>2015-05-07T05:23:23Z</time>
				<extensions>
				</extensions>
			</trkpt>
			<trkpt lat="-27.995584" lon="152.683286">
				<ele>85</ele>
				<time>2015-05-07T05:23:37Z</time>
				<extensions>
				</extensions>
			</trkpt>
			<trkpt lat="-27.995460" lon="152.683132">
				<ele>89</ele>
				<time>2015-05-07T05:33:22Z</time>
				<extensions>
				</extensions>
			</trkpt>
			<trkpt lat="-27.995329" lon="152.682971">
				<ele>90</ele>
				<time>2015-05-07T05:35:48Z</time>
				<extensions>
				</extensions>
			</trkpt>
			<trkpt lat="-27.995175" lon="152.682784">
				<ele>91</ele>
				<time>2015-05-07T05:35:52Z</time>
				<extensions>
				</extensions>
			</trkpt>
			<trkpt lat="-27.995044" lon="152.682621">
				<ele>90</ele>
				<time>2015-05-07T05:35:55Z</time>
				<extensions>
				</extensions>
			</trkpt>
			<trkpt lat="-27.994932" lon="152.682442">
				<ele>90</ele>
				<time>2015-05-07T05:35:58Z</time>
				<extensions>
				</extensions>
			</trkpt>
			<trkpt lat="-27.994813" lon="152.682213">
				<ele>90</ele>
				<time>2015-05-07T05:36:01Z</time>
				<extensions>
				</extensions>
			</trkpt>
			<trkpt lat="-27.994623" lon="152.682124">
				<ele>92</ele>
				<time>2015-05-07T05:36:08Z</time>
				<extensions>
				</extensions>
			</trkpt>
			<trkpt lat="-27.994447" lon="152.682224">
				<ele>93</ele>
				<time>2015-05-07T05:36:10Z</time>
				<extensions>
				</extensions>
			</trkpt>
			<trkpt lat="-27.994272" lon="152.682311">
				<ele>93</ele>
				<time>2015-05-07T05:36:12Z</time>
				<extensions>
				</extensions>
			</trkpt>
			<trkpt lat="-27.994099" lon="152.682378">
				<ele>93</ele>
				<time>2015-05-07T05:36:14Z</time>
				<extensions>
				</extensions>
			</trkpt>
			<trkpt lat="-27.993864" lon="152.682371">
				<ele>92</ele>
				<time>2015-05-07T05:36:17Z</time>
				<extensions>
				</extensions>
			</trkpt>
			<trkpt lat="-27.993659" lon="152.682420">
				<ele>92</ele>
				<time>2015-05-07T05:36:20Z</time>
				<extensions>
				</extensions>
			</trkpt>
			<trkpt lat="-27.993549" lon="152.682691">
				<ele>91</ele>
				<time>2015-05-07T05:36:23Z</time>
				<extensions>
				</extensions>
			</trkpt>
			<trkpt lat="-27.993612" lon="152.682975">
				<ele>92</ele>
				<time>2015-05-07T05:36:26Z</time>
				<extensions>
				</extensions>
			</trkpt>
			<trkpt lat="-27.993603" lon="152.683259">
				<ele>91</ele>
				<time>2015-05-07T05:36:29Z</time>
				<extensions>
				</extensions>
			</trkpt>
			<trkpt lat="-27.993572" lon="152.683462">
				<ele>91</ele>
				<time>2015-05-07T05:36:31Z</time>
				<extensions>
				</extensions>
			</trkpt>
			<trkpt lat="-27.993497" lon="152.683707">
				<ele>90</ele>
				<time>2015-05-07T05:36:33Z</time>
				<extensions>
				</extensions>
			</trkpt>
			<trkpt lat="-27.993430" lon="152.683917">
				<ele>91</ele>
				<time>2015-05-07T05:36:35Z</time>
				<extensions>
				</extensions>
			</trkpt>
			<trkpt lat="-27.993350" lon="152.684152">
				<ele>91</ele>
				<time>2015-05-07T05:36:37Z</time>
				<extensions>
				</extensions>
			</trkpt>
			<trkpt lat="-27.993291" lon="152.684381">
				<ele>91</ele>
				<time>2015-05-07T05:36:39Z</time>
				<extensions>
				</extensions>
			</trkpt>
			<trkpt lat="-27.993212" lon="152.684623">
				<ele>92</ele>
				<time>2015-05-07T05:36:41Z</time>
				<extensions>
				</extensions>
			</trkpt>
			<trkpt lat="-27.993134" lon="152.684877">
				<ele>94</ele>
				<time>2015-05-07T05:36:43Z</time>
				<extensions>
				</extensions>
			</trkpt>
			<trkpt lat="-27.993043" lon="152.685160">
				<ele>96</ele>
				<time>2015-05-07T05:36:45Z</time>
				<extensions>
				</extensions>
			</trkpt>
			<trkpt lat="-27.992953" lon="152.685471">
				<ele>98</ele>
				<time>2015-05-07T05:36:47Z</time>
				<extensions>
				</extensions>
			</trkpt>
			<trkpt lat="-27.992866" lon="152.685784">
				<ele>99</ele>
				<time>2015-05-07T05:36:49Z</time>
				<extensions>
				</extensions>
			</trkpt>
			<trkpt lat="-27.992792" lon="152.686098">
				<ele>101</ele>
				<time>2015-05-07T05:36:51Z</time>
				<extensions>
				</extensions>
			</trkpt>
			<trkpt lat="-27.992729" lon="152.686362">
				<ele>103</ele>
				<time>2015-05-07T05:36:53Z</time>
				<extensions>
				</extensions>
			</trkpt>
			<trkpt lat="-27.992669" lon="152.686587">
				<ele>104</ele>
				<time>2015-05-07T05:36:55Z</time>
				<extensions>
				</extensions>
			</trkpt>
			<trkpt lat="-27.992611" lon="152.686859">
				<ele>105</ele>
				<time>2015-05-07T05:36:57Z</time>
				<extensions>
				</extensions>
			</trkpt>
			<trkpt lat="-27.992518" lon="152.687274">
				<ele>106</ele>
				<time>2015-05-07T05:36:59Z</time>
				<extensions>
				</extensions>
			</trkpt>
			<trkpt lat="-27.992491" lon="152.687423">
				<ele>107</ele>
				<time>2015-05-07T05:37:00Z</time>
				<extensions>
				</extensions>
			</trkpt>
			<trkpt lat="-27.992434" lon="152.687706">
				<ele>105</ele>
				<time>2015-05-07T05:37:02Z</time>
				<extensions>
				</extensions>
			</trkpt>
			<trkpt lat="-27.992370" lon="152.687971">
				<ele>105</ele>
				<time>2015-05-07T05:37:04Z</time>
				<extensions>
				</extensions>
			</trkpt>
			<trkpt lat="-27.992316" lon="152.688214">
				<ele>104</ele>
				<time>2015-05-07T05:37:06Z</time>
				<extensions>
				</extensions>
			</trkpt>
			<trkpt lat="-27.992253" lon="152.688449">
				<ele>102</ele>
				<time>2015-05-07T05:37:08Z</time>
				<extensions>
				</extensions>
			</trkpt>
			<trkpt lat="-27.992192" lon="152.688661">
				<ele>100</ele>
				<time>2015-05-07T05:37:10Z</time>
				<extensions>
				</extensions>
			</trkpt>
			<trkpt lat="-27.992107" lon="152.688906">
				<ele>97</ele>
				<time>2015-05-07T05:37:13Z</time>
				<extensions>
				</extensions>
			</trkpt>
			<trkpt lat="-27.991931" lon="152.689075">
				<ele>95</ele>
				<time>2015-05-07T05:37:17Z</time>
				<extensions>
				</extensions>
			</trkpt>
			<trkpt lat="-27.991720" lon="152.689003">
				<ele>97</ele>
				<time>2015-05-07T05:37:19Z</time>
				<extensions>
				</extensions>
			</trkpt>
			<trkpt lat="-27.991490" lon="152.688934">
				<ele>99</ele>
				<time>2015-05-07T05:37:21Z</time>
				<extensions>
				</extensions>
			</trkpt>
			<trkpt lat="-27.991237" lon="152.688913">
				<ele>100</ele>
				<time>2015-05-07T05:37:23Z</time>
				<extensions>
				</extensions>
			</trkpt>
			<trkpt lat="-27.990995" lon="152.688930">
				<ele>100</ele>
				<time>2015-05-07T05:37:25Z</time>
				<extensions>
				</extensions>
			</trkpt>
			<trkpt lat="-27.990734" lon="152.688967">
				<ele>100</ele>
				<time>2015-05-07T05:37:27Z</time>
				<extensions>
				</extensions>
			</trkpt>
			<trkpt lat="-27.990477" lon="152.689000">
				<ele>101</ele>
				<time>2015-05-07T05:37:29Z</time>
				<extensions>
				</extensions>
			</trkpt>
			<trkpt lat="-27.990185" lon="152.689039">
				<ele>103</ele>
				<time>2015-05-07T05:37:31Z</time>
				<extensions>
				</extensions>
			</trkpt>
			<trkpt lat="-27.989870" lon="152.689085">
				<ele>104</ele>
				<time>2015-05-07T05:37:33Z</time>
				<extensions>
				</extensions>
			</trkpt>
			<trkpt lat="-27.989557" lon="152.689131">
				<ele>105</ele>
				<time>2015-05-07T05:37:35Z</time>
				<extensions>
				</extensions>
			</trkpt>
			<trkpt lat="-27.989245" lon="152.689177">
				<ele>105</ele>
				<time>2015-05-07T05:37:37Z</time>
				<extensions>
				</extensions>
			</trkpt>
			<trkpt lat="-27.988925" lon="152.689234">
				<ele>107</ele>
				<time>2015-05-07T05:37:39Z</time>
				<extensions>
				</extensions>
			</trkpt>
			<trkpt lat="-27.988610" lon="152.689284">
				<ele>107</ele>
				<time>2015-05-07T05:37:41Z</time>
				<extensions>
				</extensions>
			</trkpt>
			<trkpt lat="-27.988289" lon="152.689335">
				<ele>109</ele>
				<time>2015-05-07T05:37:43Z</time>
				<extensions>
				</extensions>
			</trkpt>
			<trkpt lat="-27.987962" lon="152.689391">
				<ele>109</ele>
				<time>2015-05-07T05:37:45Z</time>
				<extensions>
				</extensions>
			</trkpt>
			<trkpt lat="-27.987643" lon="152.689441">
				<ele>111</ele>
				<time>2015-05-07T05:37:47Z</time>
				<extensions>
				</extensions>
			</trkpt>
			<trkpt lat="-27.987330" lon="152.689490">
				<ele>112</ele>
				<time>2015-05-07T05:37:49Z</time>
				<extensions>
				</extensions>
			</trkpt>
			<trkpt lat="-27.987012" lon="152.689536">
				<ele>114</ele>
				<time>2015-05-07T05:37:51Z</time>
				<extensions>
				</extensions>
			</trkpt>
			<trkpt lat="-27.986690" lon="152.689585">
				<ele>118</ele>
				<time>2015-05-07T05:37:53Z</time>
				<extensions>
				</extensions>
			</trkpt>
			<trkpt lat="-27.986383" lon="152.689632">
				<ele>122</ele>
				<time>2015-05-07T05:37:55Z</time>
				<extensions>
				</extensions>
			</trkpt>
			<trkpt lat="-27.986090" lon="152.689679">
				<ele>123</ele>
				<time>2015-05-07T05:37:57Z</time>
				<extensions>
				</extensions>
			</trkpt>
			<trkpt lat="-27.985793" lon="152.689729">
				<ele>125</ele>
				<time>2015-05-07T05:37:59Z</time>
				<extensions>
				</extensions>
			</trkpt>
			<trkpt lat="-27.985497" lon="152.689774">
				<ele>126</ele>
				<time>2015-05-07T05:38:01Z</time>
				<extensions>
				</extensions>
			</trkpt>
			<trkpt lat="-27.985204" lon="152.689817">
				<ele>129</ele>
				<time>2015-05-07T05:38:03Z</time>
				<extensions>
				</extensions>
			</trkpt>
			<trkpt lat="-27.984886" lon="152.689867">
				<ele>130</ele>
				<time>2015-05-07T05:38:05Z</time>
				<extensions>
				</extensions>
			</trkpt>
			<trkpt lat="-27.984555" lon="152.689916">
				<ele>131</ele>
				<time>2015-05-07T05:38:07Z</time>
				<extensions>
				</extensions>
			</trkpt>
			<trkpt lat="-27.984221" lon="152.689973">
				<ele>132</ele>
				<time>2015-05-07T05:38:09Z</time>
				<extensions>
				</extensions>
			</trkpt>
			<trkpt lat="-27.983873" lon="152.690029">
				<ele>134</ele>
				<time>2015-05-07T05:38:11Z</time>
				<extensions>
				</extensions>
			</trkpt>
			<trkpt lat="-27.983693" lon="152.690054">
				<ele>134</ele>
				<time>2015-05-07T05:38:12Z</time>
				<extensions>
				</extensions>
			</trkpt>
			<trkpt lat="-27.983511" lon="152.690084">
				<ele>135</ele>
				<time>2015-05-07T05:38:13Z</time>
				<extensions>
				</extensions>
			</trkpt>
			<trkpt lat="-27.983317" lon="152.690116">
				<ele>138</ele>
				<time>2015-05-07T05:38:14Z</time>
				<extensions>
				</extensions>
			</trkpt>
			<trkpt lat="-27.983115" lon="152.690150">
				<ele>139</ele>
				<time>2015-05-07T05:38:15Z</time>
				<extensions>
				</extensions>
			</trkpt>
			<trkpt lat="-27.982915" lon="152.690181">
				<ele>141</ele>
				<time>2015-05-07T05:38:16Z</time>
				<extensions>
				</extensions>
			</trkpt>
			<trkpt lat="-27.982721" lon="152.690211">
				<ele>141</ele>
				<time>2015-05-07T05:38:17Z</time>
				<extensions>
				</extensions>
			</trkpt>
			<trkpt lat="-27.982538" lon="152.690240">
				<ele>142</ele>
				<time>2015-05-07T05:38:18Z</time>
				<extensions>
				</extensions>
			</trkpt>
			<trkpt lat="-27.982201" lon="152.690299">
				<ele>144</ele>
				<time>2015-05-07T05:38:20Z</time>
				<extensions>
				</extensions>
			</trkpt>
			<trkpt lat="-27.981906" lon="152.690349">
				<ele>144</ele>
				<time>2015-05-07T05:38:22Z</time>
				<extensions>
				</extensions>
			</trkpt>
			<trkpt lat="-27.981631" lon="152.690398">
				<ele>146</ele>
				<time>2015-05-07T05:38:24Z</time>
				<extensions>
				</extensions>
			</trkpt>
			<trkpt lat="-27.981343" lon="152.690449">
				<ele>148</ele>
				<time>2015-05-07T05:38:26Z</time>
				<extensions>
				</extensions>
			</trkpt>
			<trkpt lat="-27.981066" lon="152.690493">
				<ele>148</ele>
				<time>2015-05-07T05:38:28Z</time>
				<extensions>
				</extensions>
			</trkpt>
			<trkpt lat="-27.980774" lon="152.690541">
				<ele>147</ele>
				<time>2015-05-07T05:38:30Z</time>
				<extensions>
				</extensions>
			</trkpt>
			<trkpt lat="-27.980492" lon="152.690588">
				<ele>145</ele>
				<time>2015-05-07T05:38:32Z</time>
				<extensions>
				</extensions>
			</trkpt>
			<trkpt lat="-27.980199" lon="152.690636">
				<ele>143</ele>
				<time>2015-05-07T05:38:34Z</time>
				<extensions>
				</extensions>
			</trkpt>
			<trkpt lat="-27.979915" lon="152.690685">
				<ele>142</ele>
				<time>2015-05-07T05:38:36Z</time>
				<extensions>
				</extensions>
			</trkpt>
			<trkpt lat="-27.979635" lon="152.690729">
				<ele>140</ele>
				<time>2015-05-07T05:38:38Z</time>
				<extensions>
				</extensions>
			</trkpt>
			<trkpt lat="-27.979360" lon="152.690774">
				<ele>138</ele>
				<time>2015-05-07T05:38:40Z</time>
				<extensions>
				</extensions>
			</trkpt>
			<trkpt lat="-27.979080" lon="152.690821">
				<ele>137</ele>
				<time>2015-05-07T05:38:42Z</time>
				<extensions>
				</extensions>
			</trkpt>
			<trkpt lat="-27.978812" lon="152.690869">
				<ele>135</ele>
				<time>2015-05-07T05:38:44Z</time>
				<extensions>
				</extensions>
			</trkpt>
			<trkpt lat="-27.978546" lon="152.690919">
				<ele>133</ele>
				<time>2015-05-07T05:38:46Z</time>
				<extensions>
				</extensions>
			</trkpt>
			<trkpt lat="-27.978299" lon="152.690964">
				<ele>132</ele>
				<time>2015-05-07T05:38:48Z</time>
				<extensions>
				</extensions>
			</trkpt>
			<trkpt lat="-27.978053" lon="152.691009">
				<ele>131</ele>
				<time>2015-05-07T05:38:50Z</time>
				<extensions>
				</extensions>
			</trkpt>
			<trkpt lat="-27.977807" lon="152.691048">
				<ele>128</ele>
				<time>2015-05-07T05:38:52Z</time>
				<extensions>
				</extensions>
			</trkpt>
			<trkpt lat="-27.977569" lon="152.691054">
				<ele>126</ele>
				<time>2015-05-07T05:38:54Z</time>
				<extensions>
				</extensions>
			</trkpt>
			<trkpt lat="-27.977327" lon="152.691006">
				<ele>124</ele>
				<time>2015-05-07T05:38:56Z</time>
				<extensions>
				</extensions>
			</trkpt>
			<trkpt lat="-27.977145" lon="152.690865">
				<ele>123</ele>
				<time>2015-05-07T05:38:58Z</time>
				<extensions>
				</extensions>
			</trkpt>
			<trkpt lat="-27.977028" lon="152.690636">
				<ele>126</ele>
				<time>2015-05-07T05:39:00Z</time>
				<extensions>
				</extensions>
			</trkpt>
			<trkpt lat="-27.976986" lon="152.690357">
				<ele>128</ele>
				<time>2015-05-07T05:39:02Z</time>
				<extensions>
				</extensions>
			</trkpt>
			<trkpt lat="-27.976956" lon="152.690077">
				<ele>130</ele>
				<time>2015-05-07T05:39:04Z</time>
				<extensions>
				</extensions>
			</trkpt>
			<trkpt lat="-27.976931" lon="152.689793">
				<ele>132</ele>
				<time>2015-05-07T05:39:06Z</time>
				<extensions>
				</extensions>
			</trkpt>
			<trkpt lat="-27.976891" lon="152.689496">
				<ele>135</ele>
				<time>2015-05-07T05:39:08Z</time>
				<extensions>
				</extensions>
			</trkpt>
			<trkpt lat="-27.976857" lon="152.689200">
				<ele>139</ele>
				<time>2015-05-07T05:39:10Z</time>
				<extensions>
				</extensions>
			</trkpt>
			<trkpt lat="-27.976832" lon="152.688901">
				<ele>142</ele>
				<time>2015-05-07T05:39:12Z</time>
				<extensions>
				</extensions>
			</trkpt>
			<trkpt lat="-27.976801" lon="152.688596">
				<ele>146</ele>
				<time>2015-05-07T05:39:14Z</time>
				<extensions>
				</extensions>
			</trkpt>
			<trkpt lat="-27.976759" lon="152.688335">
				<ele>147</ele>
				<time>2015-05-07T05:39:16Z</time>
				<extensions>
				</extensions>
			</trkpt>
			<trkpt lat="-27.976661" lon="152.688161">
				<ele>150</ele>
				<time>2015-05-07T05:39:18Z</time>
				<extensions>
				</extensions>
			</trkpt>
			<trkpt lat="-27.976453" lon="152.688024">
				<ele>151</ele>
				<time>2015-05-07T05:39:20Z</time>
				<extensions>
				</extensions>
			</trkpt>
			<trkpt lat="-27.976224" lon="152.687964">
				<ele>153</ele>
				<time>2015-05-07T05:39:22Z</time>
				<extensions>
				</extensions>
			</trkpt>
			<trkpt lat="-27.975959" lon="152.688000">
				<ele>153</ele>
				<time>2015-05-07T05:39:24Z</time>
				<extensions>
				</extensions>
			</trkpt>
			<trkpt lat="-27.975660" lon="152.688053">
				<ele>156</ele>
				<time>2015-05-07T05:39:26Z</time>
				<extensions>
				</extensions>
			</trkpt>
			<trkpt lat="-27.975337" lon="152.688098">
				<ele>155</ele>
				<time>2015-05-07T05:39:28Z</time>
				<extensions>
				</extensions>
			</trkpt>
			<trkpt lat="-27.975023" lon="152.688152">
				<ele>151</ele>
				<time>2015-05-07T05:39:30Z</time>
				<extensions>
				</extensions>
			</trkpt>
			<trkpt lat="-27.974679" lon="152.688208">
				<ele>149</ele>
				<time>2015-05-07T05:39:32Z</time>
				<extensions>
				</extensions>
			</trkpt>
			<trkpt lat="-27.974324" lon="152.688270">
				<ele>146</ele>
				<time>2015-05-07T05:39:34Z</time>
				<extensions>
				</extensions>
			</trkpt>
			<trkpt lat="-27.974145" lon="152.688305">
				<ele>144</ele>
				<time>2015-05-07T05:39:35Z</time>
				<extensions>
				</extensions>
			</trkpt>
			<trkpt lat="-27.973962" lon="152.688337">
				<ele>143</ele>
				<time>2015-05-07T05:39:36Z</time>
				<extensions>
				</extensions>
			</trkpt>
			<trkpt lat="-27.973777" lon="152.688368">
				<ele>143</ele>
				<time>2015-05-07T05:39:37Z</time>
				<extensions>
				</extensions>
			</trkpt>
			<trkpt lat="-27.973595" lon="152.688401">
				<ele>142</ele>
				<time>2015-05-07T05:39:38Z</time>
				<extensions>
				</extensions>
			</trkpt>
			<trkpt lat="-27.973408" lon="152.688429">
				<ele>142</ele>
				<time>2015-05-07T05:39:39Z</time>
				<extensions>
				</extensions>
			</trkpt>
			<trkpt lat="-27.973063" lon="152.688483">
				<ele>142</ele>
				<time>2015-05-07T05:39:41Z</time>
				<extensions>
				</extensions>
			</trkpt>
			<trkpt lat="-27.972719" lon="152.688542">
				<ele>143</ele>
				<time>2015-05-07T05:39:43Z</time>
				<extensions>
				</extensions>
			</trkpt>
			<trkpt lat="-27.972539" lon="152.688575">
				<ele>143</ele>
				<time>2015-05-07T05:39:44Z</time>
				<extensions>
				</extensions>
			</trkpt>
			<trkpt lat="-27.972356" lon="152.688614">
				<ele>145</ele>
				<time>2015-05-07T05:39:45Z</time>
				<extensions>
				</extensions>
			</trkpt>
			<trkpt lat="-27.972173" lon="152.688660">
				<ele>145</ele>
				<time>2015-05-07T05:39:46Z</time>
				<extensions>
				</extensions>
			</trkpt>
			<trkpt lat="-27.971983" lon="152.688714">
				<ele>145</ele>
				<time>2015-05-07T05:39:47Z</time>
				<extensions>
				</extensions>
			</trkpt>
			<trkpt lat="-27.971799" lon="152.688785">
				<ele>144</ele>
				<time>2015-05-07T05:39:48Z</time>
				<extensions>
				</extensions>
			</trkpt>
			<trkpt lat="-27.971619" lon="152.688861">
				<ele>143</ele>
				<time>2015-05-07T05:39:49Z</time>
				<extensions>
				</extensions>
			</trkpt>
			<trkpt lat="-27.971438" lon="152.688938">
				<ele>143</ele>
				<time>2015-05-07T05:39:50Z</time>
				<extensions>
				</extensions>
			</trkpt>
			<trkpt lat="-27.971260" lon="152.689028">
				<ele>142</ele>
				<time>2015-05-07T05:39:51Z</time>
				<extensions>
				</extensions>
			</trkpt>
			<trkpt lat="-27.971085" lon="152.689127">
				<ele>141</ele>
				<time>2015-05-07T05:39:52Z</time>
				<extensions>
				</extensions>
			</trkpt>
			<trkpt lat="-27.970914" lon="152.689240">
				<ele>140</ele>
				<time>2015-05-07T05:39:53Z</time>
				<extensions>
				</extensions>
			</trkpt>
			<trkpt lat="-27.970744" lon="152.689357">
				<ele>140</ele>
				<time>2015-05-07T05:39:54Z</time>
				<extensions>
				</extensions>
			</trkpt>
			<trkpt lat="-27.970584" lon="152.689484">
				<ele>140</ele>
				<time>2015-05-07T05:39:55Z</time>
				<extensions>
				</extensions>
			</trkpt>
			<trkpt lat="-27.970424" lon="152.689622">
				<ele>139</ele>
				<time>2015-05-07T05:39:56Z</time>
				<extensions>
				</extensions>
			</trkpt>
			<trkpt lat="-27.970273" lon="152.689761">
				<ele>139</ele>
				<time>2015-05-07T05:39:57Z</time>
				<extensions>
				</extensions>
			</trkpt>
			<trkpt lat="-27.970129" lon="152.689903">
				<ele>138</ele>
				<time>2015-05-07T05:39:58Z</time>
				<extensions>
				</extensions>
			</trkpt>
			<trkpt lat="-27.969994" lon="152.690043">
				<ele>140</ele>
				<time>2015-05-07T05:39:59Z</time>
				<extensions>
				</extensions>
			</trkpt>
			<trkpt lat="-27.969870" lon="152.690202">
				<ele>140</ele>
				<time>2015-05-07T05:40:00Z</time>
				<extensions>
				</extensions>
			</trkpt>
			<trkpt lat="-27.969749" lon="152.690373">
				<ele>140</ele>
				<time>2015-05-07T05:40:01Z</time>
				<extensions>
				</extensions>
			</trkpt>
			<trkpt lat="-27.969637" lon="152.690546">
				<ele>141</ele>
				<time>2015-05-07T05:40:02Z</time>
				<extensions>
				</extensions>
			</trkpt>
			<trkpt lat="-27.969528" lon="152.690723">
				<ele>142</ele>
				<time>2015-05-07T05:40:03Z</time>
				<extensions>
				</extensions>
			</trkpt>
			<trkpt lat="-27.969408" lon="152.690905">
				<ele>143</ele>
				<time>2015-05-07T05:40:04Z</time>
				<extensions>
				</extensions>
			</trkpt>
			<trkpt lat="-27.969300" lon="152.691083">
				<ele>143</ele>
				<time>2015-05-07T05:40:05Z</time>
				<extensions>
				</extensions>
			</trkpt>
			<trkpt lat="-27.969184" lon="152.691256">
				<ele>145</ele>
				<time>2015-05-07T05:40:06Z</time>
				<extensions>
				</extensions>
			</trkpt>
			<trkpt lat="-27.969069" lon="152.691414">
				<ele>143</ele>
				<time>2015-05-07T05:40:07Z</time>
				<extensions>
				</extensions>
			</trkpt>
			<trkpt lat="-27.968943" lon="152.691561">
				<ele>143</ele>
				<time>2015-05-07T05:40:08Z</time>
				<extensions>
				</extensions>
			</trkpt>
			<trkpt lat="-27.968643" lon="152.691783">
				<ele>145</ele>
				<time>2015-05-07T05:40:10Z</time>
				<extensions>
				</extensions>
			</trkpt>
			<trkpt lat="-27.968473" lon="152.691866">
				<ele>145</ele>
				<time>2015-05-07T05:40:11Z</time>
				<extensions>
				</extensions>
			</trkpt>
			<trkpt lat="-27.968124" lon="152.691951">
				<ele>145</ele>
				<time>2015-05-07T05:40:13Z</time>
				<extensions>
				</extensions>
			</trkpt>
			<trkpt lat="-27.967942" lon="152.691986">
				<ele>144</ele>
				<time>2015-05-07T05:40:14Z</time>
				<extensions>
				</extensions>
			</trkpt>
			<trkpt lat="-27.967759" lon="152.692019">
				<ele>144</ele>
				<time>2015-05-07T05:40:15Z</time>
				<extensions>
				</extensions>
			</trkpt>
			<trkpt lat="-27.967564" lon="152.692052">
				<ele>146</ele>
				<time>2015-05-07T05:40:16Z</time>
				<extensions>
				</extensions>
			</trkpt>
			<trkpt lat="-27.967371" lon="152.692095">
				<ele>147</ele>
				<time>2015-05-07T05:40:17Z</time>
				<extensions>
				</extensions>
			</trkpt>
			<trkpt lat="-27.967181" lon="152.692132">
				<ele>147</ele>
				<time>2015-05-07T05:40:18Z</time>
				<extensions>
				</extensions>
			</trkpt>
			<trkpt lat="-27.966989" lon="152.692164">
				<ele>146</ele>
				<time>2015-05-07T05:40:19Z</time>
				<extensions>
				</extensions>
			</trkpt>
			<trkpt lat="-27.966795" lon="152.692201">
				<ele>146</ele>
				<time>2015-05-07T05:40:20Z</time>
				<extensions>
				</extensions>
			</trkpt>
			<trkpt lat="-27.966609" lon="152.692236">
				<ele>147</ele>
				<time>2015-05-07T05:40:21Z</time>
				<extensions>
				</extensions>
			</trkpt>
			<trkpt lat="-27.966427" lon="152.692271">
				<ele>146</ele>
				<time>2015-05-07T05:40:22Z</time>
				<extensions>
				</extensions>
			</trkpt>
			<trkpt lat="-27.966247" lon="152.692306">
				<ele>145</ele>
				<time>2015-05-07T05:40:23Z</time>
				<extensions>
				</extensions>
			</trkpt>
			<trkpt lat="-27.965893" lon="152.692366">
				<ele>145</ele>
				<time>2015-05-07T05:40:25Z</time>
				<extensions>
				</extensions>
			</trkpt>
			<trkpt lat="-27.965711" lon="152.692400">
				<ele>145</ele>
				<time>2015-05-07T05:40:26Z</time>
				<extensions>
				</extensions>
			</trkpt>
			<trkpt lat="-27.965530" lon="152.692431">
				<ele>146</ele>
				<time>2015-05-07T05:40:27Z</time>
				<extensions>
				</extensions>
			</trkpt>
			<trkpt lat="-27.965167" lon="152.692499">
				<ele>146</ele>
				<time>2015-05-07T05:40:29Z</time>
				<extensions>
				</extensions>
			</trkpt>
			<trkpt lat="-27.964980" lon="152.692537">
				<ele>146</ele>
				<time>2015-05-07T05:40:30Z</time>
				<extensions>
				</extensions>
			</trkpt>
			<trkpt lat="-27.964790" lon="152.692574">
				<ele>147</ele>
				<time>2015-05-07T05:40:31Z</time>
				<extensions>
				</extensions>
			</trkpt>
			<trkpt lat="-27.964603" lon="152.692608">
				<ele>146</ele>
				<time>2015-05-07T05:40:32Z</time>
				<extensions>
				</extensions>
			</trkpt>
			<trkpt lat="-27.964421" lon="152.692646">
				<ele>146</ele>
				<time>2015-05-07T05:40:33Z</time>
				<extensions>
				</extensions>
			</trkpt>
			<trkpt lat="-27.964232" lon="152.692684">
				<ele>145</ele>
				<time>2015-05-07T05:40:34Z</time>
				<extensions>
				</extensions>
			</trkpt>
			<trkpt lat="-27.964048" lon="152.692721">
				<ele>145</ele>
				<time>2015-05-07T05:40:35Z</time>
				<extensions>
				</extensions>
			</trkpt>
			<trkpt lat="-27.963864" lon="152.692755">
				<ele>146</ele>
				<time>2015-05-07T05:40:36Z</time>
				<extensions>
				</extensions>
			</trkpt>
			<trkpt lat="-27.963682" lon="152.692786">
				<ele>146</ele>
				<time>2015-05-07T05:40:37Z</time>
				<extensions>
				</extensions>
			</trkpt>
			<trkpt lat="-27.963496" lon="152.692818">
				<ele>144</ele>
				<time>2015-05-07T05:40:38Z</time>
				<extensions>
				</extensions>
			</trkpt>
			<trkpt lat="-27.963312" lon="152.692850">
				<ele>143</ele>
				<time>2015-05-07T05:40:39Z</time>
				<extensions>
				</extensions>
			</trkpt>
			<trkpt lat="-27.963130" lon="152.692872">
				<ele>142</ele>
				<time>2015-05-07T05:40:40Z</time>
				<extensions>
				</extensions>
			</trkpt>
			<trkpt lat="-27.962947" lon="152.692904">
				<ele>140</ele>
				<time>2015-05-07T05:40:41Z</time>
				<extensions>
				</extensions>
			</trkpt>
			<trkpt lat="-27.962759" lon="152.692939">
				<ele>138</ele>
				<time>2015-05-07T05:40:42Z</time>
				<extensions>
				</extensions>
			</trkpt>
			<trkpt lat="-27.962577" lon="152.692969">
				<ele>136</ele>
				<time>2015-05-07T05:40:43Z</time>
				<extensions>
				</extensions>
			</trkpt>
			<trkpt lat="-27.962385" lon="152.693004">
				<ele>135</ele>
				<time>2015-05-07T05:40:44Z</time>
				<extensions>
				</extensions>
			</trkpt>
			<trkpt lat="-27.962190" lon="152.693036">
				<ele>134</ele>
				<time>2015-05-07T05:40:45Z</time>
				<extensions>
				</extensions>
			</trkpt>
			<trkpt lat="-27.961997" lon="152.693073">
				<ele>132</ele>
				<time>2015-05-07T05:40:46Z</time>
				<extensions>
				</extensions>
			</trkpt>
			<trkpt lat="-27.961799" lon="152.693106">
				<ele>131</ele>
				<time>2015-05-07T05:40:47Z</time>
				<extensions>
				</extensions>
			</trkpt>
			<trkpt lat="-27.961602" lon="152.693140">
				<ele>131</ele>
				<time>2015-05-07T05:40:48Z</time>
				<extensions>
				</extensions>
			</trkpt>
			<trkpt lat="-27.961400" lon="152.693179">
				<ele>130</ele>
				<time>2015-05-07T05:40:49Z</time>
				<extensions>
				</extensions>
			</trkpt>
			<trkpt lat="-27.961202" lon="152.693222">
				<ele>131</ele>
				<time>2015-05-07T05:40:50Z</time>
				<extensions>
				</extensions>
			</trkpt>
			<trkpt lat="-27.961009" lon="152.693251">
				<ele>130</ele>
				<time>2015-05-07T05:40:51Z</time>
				<extensions>
				</extensions>
			</trkpt>
			<trkpt lat="-27.960819" lon="152.693283">
				<ele>131</ele>
				<time>2015-05-07T05:40:52Z</time>
				<extensions>
				</extensions>
			</trkpt>
			<trkpt lat="-27.960487" lon="152.693344">
				<ele>128</ele>
				<time>2015-05-07T05:40:54Z</time>
				<extensions>
				</extensions>
			</trkpt>
			<trkpt lat="-27.960190" lon="152.693394">
				<ele>127</ele>
				<time>2015-05-07T05:40:56Z</time>
				<extensions>
				</extensions>
			</trkpt>
			<trkpt lat="-27.959882" lon="152.693396">
				<ele>129</ele>
				<time>2015-05-07T05:40:58Z</time>
				<extensions>
				</extensions>
			</trkpt>
			<trkpt lat="-27.959606" lon="152.693284">
				<ele>128</ele>
				<time>2015-05-07T05:41:00Z</time>
				<extensions>
				</extensions>
			</trkpt>
			<trkpt lat="-27.959434" lon="152.693071">
				<ele>130</ele>
				<time>2015-05-07T05:41:02Z</time>
				<extensions>
				</extensions>
			</trkpt>
			<trkpt lat="-27.959304" lon="152.692753">
				<ele>132</ele>
				<time>2015-05-07T05:41:04Z</time>
				<extensions>
				</extensions>
			</trkpt>
			<trkpt lat="-27.959245" lon="152.692395">
				<ele>135</ele>
				<time>2015-05-07T05:41:06Z</time>
				<extensions>
				</extensions>
			</trkpt>
			<trkpt lat="-27.959209" lon="152.692061">
				<ele>137</ele>
				<time>2015-05-07T05:41:08Z</time>
				<extensions>
				</extensions>
			</trkpt>
			<trkpt lat="-27.959170" lon="152.691731">
				<ele>140</ele>
				<time>2015-05-07T05:41:10Z</time>
				<extensions>
				</extensions>
			</trkpt>
			<trkpt lat="-27.959136" lon="152.691411">
				<ele>143</ele>
				<time>2015-05-07T05:41:12Z</time>
				<extensions>
				</extensions>
			</trkpt>
			<trkpt lat="-27.959101" lon="152.691099">
				<ele>145</ele>
				<time>2015-05-07T05:41:14Z</time>
				<extensions>
				</extensions>
			</trkpt>
			<trkpt lat="-27.959066" lon="152.690784">
				<ele>147</ele>
				<time>2015-05-07T05:41:16Z</time>
				<extensions>
				</extensions>
			</trkpt>
			<trkpt lat="-27.959013" lon="152.690522">
				<ele>148</ele>
				<time>2015-05-07T05:41:18Z</time>
				<extensions>
				</extensions>
			</trkpt>
			<trkpt lat="-27.958867" lon="152.690268">
				<ele>150</ele>
				<time>2015-05-07T05:41:20Z</time>
				<extensions>
				</extensions>
			</trkpt>
			<trkpt lat="-27.958634" lon="152.690067">
				<ele>153</ele>
				<time>2015-05-07T05:41:22Z</time>
				<extensions>
				</extensions>
			</trkpt>
			<trkpt lat="-27.958352" lon="152.689868">
				<ele>159</ele>
				<time>2015-05-07T05:41:24Z</time>
				<extensions>
				</extensions>
			</trkpt>
			<trkpt lat="-27.958094" lon="152.689674">
				<ele>162</ele>
				<time>2015-05-07T05:41:26Z</time>
				<extensions>
				</extensions>
			</trkpt>
			<trkpt lat="-27.957886" lon="152.689432">
				<ele>162</ele>
				<time>2015-05-07T05:41:28Z</time>
				<extensions>
				</extensions>
			</trkpt>
			<trkpt lat="-27.957782" lon="152.689107">
				<ele>163</ele>
				<time>2015-05-07T05:41:30Z</time>
				<extensions>
				</extensions>
			</trkpt>
			<trkpt lat="-27.957724" lon="152.688762">
				<ele>164</ele>
				<time>2015-05-07T05:41:32Z</time>
				<extensions>
				</extensions>
			</trkpt>
			<trkpt lat="-27.957658" lon="152.688351">
				<ele>166</ele>
				<time>2015-05-07T05:41:34Z</time>
				<extensions>
				</extensions>
			</trkpt>
			<trkpt lat="-27.957631" lon="152.688148">
				<ele>168</ele>
				<time>2015-05-07T05:41:35Z</time>
				<extensions>
				</extensions>
			</trkpt>
			<trkpt lat="-27.957605" lon="152.687945">
				<ele>169</ele>
				<time>2015-05-07T05:41:36Z</time>
				<extensions>
				</extensions>
			</trkpt>
			<trkpt lat="-27.957575" lon="152.687721">
				<ele>169</ele>
				<time>2015-05-07T05:41:37Z</time>
				<extensions>
				</extensions>
			</trkpt>
			<trkpt lat="-27.957531" lon="152.687500">
				<ele>171</ele>
				<time>2015-05-07T05:41:38Z</time>
				<extensions>
				</extensions>
			</trkpt>
			<trkpt lat="-27.957503" lon="152.687286">
				<ele>174</ele>
				<time>2015-05-07T05:41:39Z</time>
				<extensions>
				</extensions>
			</trkpt>
			<trkpt lat="-27.957478" lon="152.687072">
				<ele>176</ele>
				<time>2015-05-07T05:41:40Z</time>
				<extensions>
				</extensions>
			</trkpt>
			<trkpt lat="-27.957451" lon="152.686860">
				<ele>178</ele>
				<time>2015-05-07T05:41:41Z</time>
				<extensions>
				</extensions>
			</trkpt>
			<trkpt lat="-27.957423" lon="152.686654">
				<ele>179</ele>
				<time>2015-05-07T05:41:42Z</time>
				<extensions>
				</extensions>
			</trkpt>
			<trkpt lat="-27.957373" lon="152.686254">
				<ele>181</ele>
				<time>2015-05-07T05:41:44Z</time>
				<extensions>
				</extensions>
			</trkpt>
			<trkpt lat="-27.957350" lon="152.686052">
				<ele>181</ele>
				<time>2015-05-07T05:41:45Z</time>
				<extensions>
				</extensions>
			</trkpt>
			<trkpt lat="-27.957292" lon="152.685658">
				<ele>185</ele>
				<time>2015-05-07T05:41:47Z</time>
				<extensions>
				</extensions>
			</trkpt>
			<trkpt lat="-27.957227" lon="152.685293">
				<ele>186</ele>
				<time>2015-05-07T05:41:49Z</time>
				<extensions>
				</extensions>
			</trkpt>
			<trkpt lat="-27.957158" lon="152.684949">
				<ele>184</ele>
				<time>2015-05-07T05:41:51Z</time>
				<extensions>
				</extensions>
			</trkpt>
			<trkpt lat="-27.957030" lon="152.684646">
				<ele>185</ele>
				<time>2015-05-07T05:41:53Z</time>
				<extensions>
				</extensions>
			</trkpt>
			<trkpt lat="-27.956833" lon="152.684394">
				<ele>185</ele>
				<time>2015-05-07T05:41:55Z</time>
				<extensions>
				</extensions>
			</trkpt>
			<trkpt lat="-27.956557" lon="152.684198">
				<ele>188</ele>
				<time>2015-05-07T05:41:57Z</time>
				<extensions>
				</extensions>
			</trkpt>
			<trkpt lat="-27.956253" lon="152.684101">
				<ele>191</ele>
				<time>2015-05-07T05:41:59Z</time>
				<extensions>
				</extensions>
			</trkpt>
			<trkpt lat="-27.955941" lon="152.684079">
				<ele>194</ele>
				<time>2015-05-07T05:42:01Z</time>
				<extensions>
				</extensions>
			</trkpt>
			<trkpt lat="-27.955624" lon="152.684119">
				<ele>196</ele>
				<time>2015-05-07T05:42:03Z</time>
				<extensions>
				</extensions>
			</trkpt>
			<trkpt lat="-27.955297" lon="152.684192">
				<ele>199</ele>
				<time>2015-05-07T05:42:05Z</time>
				<extensions>
				</extensions>
			</trkpt>
			<trkpt lat="-27.954963" lon="152.684244">
				<ele>200</ele>
				<time>2015-05-07T05:42:07Z</time>
				<extensions>
				</extensions>
			</trkpt>
			<trkpt lat="-27.954621" lon="152.684309">
				<ele>202</ele>
				<time>2015-05-07T05:42:09Z</time>
				<extensions>
				</extensions>
			</trkpt>
			<trkpt lat="-27.954271" lon="152.684369">
				<ele>203</ele>
				<time>2015-05-07T05:42:11Z</time>
				<extensions>
				</extensions>
			</trkpt>
			<trkpt lat="-27.954088" lon="152.684404">
				<ele>203</ele>
				<time>2015-05-07T05:42:12Z</time>
				<extensions>
				</extensions>
			</trkpt>
			<trkpt lat="-27.953901" lon="152.684441">
				<ele>203</ele>
				<time>2015-05-07T05:42:13Z</time>
				<extensions>
				</extensions>
			</trkpt>
			<trkpt lat="-27.953717" lon="152.684473">
				<ele>204</ele>
				<time>2015-05-07T05:42:14Z</time>
				<extensions>
				</extensions>
			</trkpt>
			<trkpt lat="-27.953532" lon="152.684507">
				<ele>205</ele>
				<time>2015-05-07T05:42:15Z</time>
				<extensions>
				</extensions>
			</trkpt>
			<trkpt lat="-27.953346" lon="152.684532">
				<ele>206</ele>
				<time>2015-05-07T05:42:16Z</time>
				<extensions>
				</extensions>
			</trkpt>
			<trkpt lat="-27.953158" lon="152.684565">
				<ele>207</ele>
				<time>2015-05-07T05:42:17Z</time>
				<extensions>
				</extensions>
			</trkpt>
			<trkpt lat="-27.952965" lon="152.684599">
				<ele>207</ele>
				<time>2015-05-07T05:42:18Z</time>
				<extensions>
				</extensions>
			</trkpt>
			<trkpt lat="-27.952770" lon="152.684633">
				<ele>208</ele>
				<time>2015-05-07T05:42:19Z</time>
				<extensions>
				</extensions>
			</trkpt>
			<trkpt lat="-27.952586" lon="152.684660">
				<ele>207</ele>
				<time>2015-05-07T05:42:20Z</time>
				<extensions>
				</extensions>
			</trkpt>
			<trkpt lat="-27.952247" lon="152.684716">
				<ele>206</ele>
				<time>2015-05-07T05:42:22Z</time>
				<extensions>
				</extensions>
			</trkpt>
			<trkpt lat="-27.951895" lon="152.684775">
				<ele>208</ele>
				<time>2015-05-07T05:42:24Z</time>
				<extensions>
				</extensions>
			</trkpt>
			<trkpt lat="-27.951716" lon="152.684813">
				<ele>210</ele>
				<time>2015-05-07T05:42:25Z</time>
				<extensions>
				</extensions>
			</trkpt>
			<trkpt lat="-27.951535" lon="152.684849">
				<ele>210</ele>
				<time>2015-05-07T05:42:26Z</time>
				<extensions>
				</extensions>
			</trkpt>
			<trkpt lat="-27.951353" lon="152.684885">
				<ele>210</ele>
				<time>2015-05-07T05:42:27Z</time>
				<extensions>
				</extensions>
			</trkpt>
			<trkpt lat="-27.951003" lon="152.684945">
				<ele>209</ele>
				<time>2015-05-07T05:42:29Z</time>
				<extensions>
				</extensions>
			</trkpt>
			<trkpt lat="-27.950668" lon="152.685003">
				<ele>208</ele>
				<time>2015-05-07T05:42:31Z</time>
				<extensions>
				</extensions>
			</trkpt>
			<trkpt lat="-27.950348" lon="152.685065">
				<ele>206</ele>
				<time>2015-05-07T05:42:33Z</time>
				<extensions>
				</extensions>
			</trkpt>
			<trkpt lat="-27.950004" lon="152.685137">
				<ele>203</ele>
				<time>2015-05-07T05:42:35Z</time>
				<extensions>
				</extensions>
			</trkpt>
			<trkpt lat="-27.949653" lon="152.685202">
				<ele>200</ele>
				<time>2015-05-07T05:42:37Z</time>
				<extensions>
				</extensions>
			</trkpt>
			<trkpt lat="-27.949317" lon="152.685253">
				<ele>196</ele>
				<time>2015-05-07T05:42:39Z</time>
				<extensions>
				</extensions>
			</trkpt>
			<trkpt lat="-27.948978" lon="152.685320">
				<ele>194</ele>
				<time>2015-05-07T05:42:41Z</time>
				<extensions>
				</extensions>
			</trkpt>
			<trkpt lat="-27.948656" lon="152.685386">
				<ele>189</ele>
				<time>2015-05-07T05:42:43Z</time>
				<extensions>
				</extensions>
			</trkpt>
			<trkpt lat="-27.948362" lon="152.685414">
				<ele>187</ele>
				<time>2015-05-07T05:42:45Z</time>
				<extensions>
				</extensions>
			</trkpt>
			<trkpt lat="-27.948123" lon="152.685379">
				<ele>182</ele>
				<time>2015-05-07T05:42:47Z</time>
				<extensions>
				</extensions>
			</trkpt>
			<trkpt lat="-27.947902" lon="152.685288">
				<ele>179</ele>
				<time>2015-05-07T05:42:49Z</time>
				<extensions>
				</extensions>
			</trkpt>
			<trkpt lat="-27.947701" lon="152.685143">
				<ele>177</ele>
				<time>2015-05-07T05:42:51Z</time>
				<extensions>
				</extensions>
			</trkpt>
			<trkpt lat="-27.947513" lon="152.684911">
				<ele>176</ele>
				<time>2015-05-07T05:42:53Z</time>
				<extensions>
				</extensions>
			</trkpt>
			<trkpt lat="-27.947360" lon="152.684602">
				<ele>177</ele>
				<time>2015-05-07T05:42:55Z</time>
				<extensions>
				</extensions>
			</trkpt>
			<trkpt lat="-27.947290" lon="152.684252">
				<ele>179</ele>
				<time>2015-05-07T05:42:57Z</time>
				<extensions>
				</extensions>
			</trkpt>
			<trkpt lat="-27.947250" lon="152.683884">
				<ele>182</ele>
				<time>2015-05-07T05:42:59Z</time>
				<extensions>
				</extensions>
			</trkpt>
			<trkpt lat="-27.947206" lon="152.683525">
				<ele>186</ele>
				<time>2015-05-07T05:43:01Z</time>
				<extensions>
				</extensions>
			</trkpt>
			<trkpt lat="-27.947154" lon="152.683152">
				<ele>189</ele>
				<time>2015-05-07T05:43:03Z</time>
				<extensions>
				</extensions>
			</trkpt>
			<trkpt lat="-27.947107" lon="152.682776">
				<ele>192</ele>
				<time>2015-05-07T05:43:05Z</time>
				<extensions>
				</extensions>
			</trkpt>
			<trkpt lat="-27.947065" lon="152.682398">
				<ele>192</ele>
				<time>2015-05-07T05:43:07Z</time>
				<extensions>
				</extensions>
			</trkpt>
			<trkpt lat="-27.947019" lon="152.682036">
				<ele>193</ele>
				<time>2015-05-07T05:43:09Z</time>
				<extensions>
				</extensions>
			</trkpt>
			<trkpt lat="-27.946973" lon="152.681661">
				<ele>192</ele>
				<time>2015-05-07T05:43:11Z</time>
				<extensions>
				</extensions>
			</trkpt>
			<trkpt lat="-27.946908" lon="152.681294">
				<ele>189</ele>
				<time>2015-05-07T05:43:13Z</time>
				<extensions>
				</extensions>
			</trkpt>
			<trkpt lat="-27.946868" lon="152.681096">
				<ele>188</ele>
				<time>2015-05-07T05:43:14Z</time>
				<extensions>
				</extensions>
			</trkpt>
			<trkpt lat="-27.946826" lon="152.680887">
				<ele>186</ele>
				<time>2015-05-07T05:43:15Z</time>
				<extensions>
				</extensions>
			</trkpt>
			<trkpt lat="-27.946785" lon="152.680662">
				<ele>186</ele>
				<time>2015-05-07T05:43:16Z</time>
				<extensions>
				</extensions>
			</trkpt>
			<trkpt lat="-27.946747" lon="152.680439">
				<ele>186</ele>
				<time>2015-05-07T05:43:17Z</time>
				<extensions>
				</extensions>
			</trkpt>
			<trkpt lat="-27.946724" lon="152.680230">
				<ele>186</ele>
				<time>2015-05-07T05:43:18Z</time>
				<extensions>
				</extensions>
			</trkpt>
			<trkpt lat="-27.946691" lon="152.680002">
				<ele>187</ele>
				<time>2015-05-07T05:43:19Z</time>
				<extensions>
				</extensions>
			</trkpt>
			<trkpt lat="-27.946660" lon="152.679782">
				<ele>186</ele>
				<time>2015-05-07T05:43:20Z</time>
				<extensions>
				</extensions>
			</trkpt>
			<trkpt lat="-27.946626" lon="152.679568">
				<ele>186</ele>
				<time>2015-05-07T05:43:21Z</time>
				<extensions>
				</extensions>
			</trkpt>
			<trkpt lat="-27.946594" lon="152.679357">
				<ele>186</ele>
				<time>2015-05-07T05:43:22Z</time>
				<extensions>
				</extensions>
			</trkpt>
			<trkpt lat="-27.946533" lon="152.678952">
				<ele>185</ele>
				<time>2015-05-07T05:43:24Z</time>
				<extensions>
				</extensions>
			</trkpt>
			<trkpt lat="-27.946501" lon="152.678729">
				<ele>185</ele>
				<time>2015-05-07T05:43:25Z</time>
				<extensions>
				</extensions>
			</trkpt>
			<trkpt lat="-27.946470" lon="152.678502">
				<ele>184</ele>
				<time>2015-05-07T05:43:26Z</time>
				<extensions>
				</extensions>
			</trkpt>
			<trkpt lat="-27.946437" lon="152.678294">
				<ele>183</ele>
				<time>2015-05-07T05:43:27Z</time>
				<extensions>
				</extensions>
			</trkpt>
			<trkpt lat="-27.946408" lon="152.678093">
				<ele>181</ele>
				<time>2015-05-07T05:43:28Z</time>
				<extensions>
				</extensions>
			</trkpt>
			<trkpt lat="-27.946353" lon="152.677698">
				<ele>181</ele>
				<time>2015-05-07T05:43:30Z</time>
				<extensions>
				</extensions>
			</trkpt>
			<trkpt lat="-27.946299" lon="152.677336">
				<ele>181</ele>
				<time>2015-05-07T05:43:32Z</time>
				<extensions>
				</extensions>
			</trkpt>
			<trkpt lat="-27.946235" lon="152.676946">
				<ele>181</ele>
				<time>2015-05-07T05:43:34Z</time>
				<extensions>
				</extensions>
			</trkpt>
			<trkpt lat="-27.946175" lon="152.676565">
				<ele>180</ele>
				<time>2015-05-07T05:43:36Z</time>
				<extensions>
				</extensions>
			</trkpt>
			<trkpt lat="-27.946143" lon="152.676361">
				<ele>179</ele>
				<time>2015-05-07T05:43:37Z</time>
				<extensions>
				</extensions>
			</trkpt>
			<trkpt lat="-27.946090" lon="152.675982">
				<ele>177</ele>
				<time>2015-05-07T05:43:39Z</time>
				<extensions>
				</extensions>
			</trkpt>
			<trkpt lat="-27.946048" lon="152.675632">
				<ele>173</ele>
				<time>2015-05-07T05:43:41Z</time>
				<extensions>
				</extensions>
			</trkpt>
			<trkpt lat="-27.946004" lon="152.675241">
				<ele>168</ele>
				<time>2015-05-07T05:43:43Z</time>
				<extensions>
				</extensions>
			</trkpt>
			<trkpt lat="-27.945948" lon="152.674847">
				<ele>164</ele>
				<time>2015-05-07T05:43:45Z</time>
				<extensions>
				</extensions>
			</trkpt>
			<trkpt lat="-27.945900" lon="152.674450">
				<ele>160</ele>
				<time>2015-05-07T05:43:47Z</time>
				<extensions>
				</extensions>
			</trkpt>
			<trkpt lat="-27.945869" lon="152.674246">
				<ele>158</ele>
				<time>2015-05-07T05:43:48Z</time>
				<extensions>
				</extensions>
			</trkpt>
			<trkpt lat="-27.945815" lon="152.673831">
				<ele>154</ele>
				<time>2015-05-07T05:43:50Z</time>
				<extensions>
				</extensions>
			</trkpt>
			<trkpt lat="-27.945788" lon="152.673617">
				<ele>153</ele>
				<time>2015-05-07T05:43:51Z</time>
				<extensions>
				</extensions>
			</trkpt>
			<trkpt lat="-27.945759" lon="152.673401">
				<ele>150</ele>
				<time>2015-05-07T05:43:52Z</time>
				<extensions>
				</extensions>
			</trkpt>
			<trkpt lat="-27.945730" lon="152.673179">
				<ele>148</ele>
				<time>2015-05-07T05:43:53Z</time>
				<extensions>
				</extensions>
			</trkpt>
			<trkpt lat="-27.945701" lon="152.672966">
				<ele>148</ele>
				<time>2015-05-07T05:43:54Z</time>
				<extensions>
				</extensions>
			</trkpt>
			<trkpt lat="-27.945668" lon="152.672742">
				<ele>145</ele>
				<time>2015-05-07T05:43:55Z</time>
				<extensions>
				</extensions>
			</trkpt>
			<trkpt lat="-27.945637" lon="152.672510">
				<ele>143</ele>
				<time>2015-05-07T05:43:56Z</time>
				<extensions>
				</extensions>
			</trkpt>
			<trkpt lat="-27.945608" lon="152.672281">
				<ele>142</ele>
				<time>2015-05-07T05:43:57Z</time>
				<extensions>
				</extensions>
			</trkpt>
			<trkpt lat="-27.945573" lon="152.672047">
				<ele>141</ele>
				<time>2015-05-07T05:43:58Z</time>
				<extensions>
				</extensions>
			</trkpt>
			<trkpt lat="-27.945542" lon="152.671810">
				<ele>139</ele>
				<time>2015-05-07T05:43:59Z</time>
				<extensions>
				</extensions>
			</trkpt>
			<trkpt lat="-27.945504" lon="152.671566">
				<ele>139</ele>
				<time>2015-05-07T05:44:00Z</time>
				<extensions>
				</extensions>
			</trkpt>
			<trkpt lat="-27.945466" lon="152.671335">
				<ele>139</ele>
				<time>2015-05-07T05:44:01Z</time>
				<extensions>
				</extensions>
			</trkpt>
			<trkpt lat="-27.945429" lon="152.671111">
				<ele>137</ele>
				<time>2015-05-07T05:44:02Z</time>
				<extensions>
				</extensions>
			</trkpt>
			<trkpt lat="-27.945395" lon="152.670858">
				<ele>138</ele>
				<time>2015-05-07T05:44:03Z</time>
				<extensions>
				</extensions>
			</trkpt>
			<trkpt lat="-27.945343" lon="152.670453">
				<ele>138</ele>
				<time>2015-05-07T05:44:05Z</time>
				<extensions>
				</extensions>
			</trkpt>
			<trkpt lat="-27.945312" lon="152.670208">
				<ele>137</ele>
				<time>2015-05-07T05:44:06Z</time>
				<extensions>
				</extensions>
			</trkpt>
			<trkpt lat="-27.945272" lon="152.669962">
				<ele>138</ele>
				<time>2015-05-07T05:44:07Z</time>
				<extensions>
				</extensions>
			</trkpt>
			<trkpt lat="-27.945239" lon="152.669718">
				<ele>138</ele>
				<time>2015-05-07T05:44:08Z</time>
				<extensions>
				</extensions>
			</trkpt>
			<trkpt lat="-27.945208" lon="152.669484">
				<ele>140</ele>
				<time>2015-05-07T05:44:09Z</time>
				<extensions>
				</extensions>
			</trkpt>
			<trkpt lat="-27.945147" lon="152.669047">
				<ele>137</ele>
				<time>2015-05-07T05:44:11Z</time>
				<extensions>
				</extensions>
			</trkpt>
			<trkpt lat="-27.945099" lon="152.668621">
				<ele>137</ele>
				<time>2015-05-07T05:44:13Z</time>
				<extensions>
				</extensions>
			</trkpt>
			<trkpt lat="-27.945066" lon="152.668377">
				<ele>137</ele>
				<time>2015-05-07T05:44:14Z</time>
				<extensions>
				</extensions>
			</trkpt>
			<trkpt lat="-27.945029" lon="152.668139">
				<ele>134</ele>
				<time>2015-05-07T05:44:15Z</time>
				<extensions>
				</extensions>
			</trkpt>
			<trkpt lat="-27.944995" lon="152.667903">
				<ele>133</ele>
				<time>2015-05-07T05:44:16Z</time>
				<extensions>
				</extensions>
			</trkpt>
			<trkpt lat="-27.944962" lon="152.667679">
				<ele>133</ele>
				<time>2015-05-07T05:44:17Z</time>
				<extensions>
				</extensions>
			</trkpt>
			<trkpt lat="-27.944928" lon="152.667433">
				<ele>134</ele>
				<time>2015-05-07T05:44:18Z</time>
				<extensions>
				</extensions>
			</trkpt>
			<trkpt lat="-27.944891" lon="152.667197">
				<ele>132</ele>
				<time>2015-05-07T05:44:19Z</time>
				<extensions>
				</extensions>
			</trkpt>
			<trkpt lat="-27.944865" lon="152.666971">
				<ele>132</ele>
				<time>2015-05-07T05:44:20Z</time>
				<extensions>
				</extensions>
			</trkpt>
			<trkpt lat="-27.944826" lon="152.666728">
				<ele>133</ele>
				<time>2015-05-07T05:44:21Z</time>
				<extensions>
				</extensions>
			</trkpt>
			<trkpt lat="-27.944793" lon="152.666492">
				<ele>133</ele>
				<time>2015-05-07T05:44:22Z</time>
				<extensions>
				</extensions>
			</trkpt>
			<trkpt lat="-27.944768" lon="152.666268">
				<ele>132</ele>
				<time>2015-05-07T05:44:23Z</time>
				<extensions>
				</extensions>
			</trkpt>
			<trkpt lat="-27.944747" lon="152.666058">
				<ele>132</ele>
				<time>2015-05-07T05:44:24Z</time>
				<extensions>
				</extensions>
			</trkpt>
			<trkpt lat="-27.944720" lon="152.665822">
				<ele>132</ele>
				<time>2015-05-07T05:44:25Z</time>
				<extensions>
				</extensions>
			</trkpt>
			<trkpt lat="-27.944688" lon="152.665581">
				<ele>133</ele>
				<time>2015-05-07T05:44:26Z</time>
				<extensions>
				</extensions>
			</trkpt>
			<trkpt lat="-27.944657" lon="152.665326">
				<ele>134</ele>
				<time>2015-05-07T05:44:27Z</time>
				<extensions>
				</extensions>
			</trkpt>
			<trkpt lat="-27.944620" lon="152.665047">
				<ele>135</ele>
				<time>2015-05-07T05:44:28Z</time>
				<extensions>
				</extensions>
			</trkpt>
			<trkpt lat="-27.944579" lon="152.664762">
				<ele>134</ele>
				<time>2015-05-07T05:44:29Z</time>
				<extensions>
				</extensions>
			</trkpt>
			<trkpt lat="-27.944536" lon="152.664492">
				<ele>135</ele>
				<time>2015-05-07T05:44:30Z</time>
				<extensions>
				</extensions>
			</trkpt>
			<trkpt lat="-27.944501" lon="152.664230">
				<ele>134</ele>
				<time>2015-05-07T05:44:31Z</time>
				<extensions>
				</extensions>
			</trkpt>
			<trkpt lat="-27.944471" lon="152.663962">
				<ele>133</ele>
				<time>2015-05-07T05:44:32Z</time>
				<extensions>
				</extensions>
			</trkpt>
			<trkpt lat="-27.944441" lon="152.663707">
				<ele>135</ele>
				<time>2015-05-07T05:44:33Z</time>
				<extensions>
				</extensions>
			</trkpt>
			<trkpt lat="-27.944407" lon="152.663462">
				<ele>137</ele>
				<time>2015-05-07T05:44:34Z</time>
				<extensions>
				</extensions>
			</trkpt>
			<trkpt lat="-27.944378" lon="152.663200">
				<ele>136</ele>
				<time>2015-05-07T05:44:35Z</time>
				<extensions>
				</extensions>
			</trkpt>
			<trkpt lat="-27.944349" lon="152.662969">
				<ele>135</ele>
				<time>2015-05-07T05:44:36Z</time>
				<extensions>
				</extensions>
			</trkpt>
			<trkpt lat="-27.944314" lon="152.662735">
				<ele>135</ele>
				<time>2015-05-07T05:44:37Z</time>
				<extensions>
				</extensions>
			</trkpt>
			<trkpt lat="-27.944282" lon="152.662488">
				<ele>135</ele>
				<time>2015-05-07T05:44:38Z</time>
				<extensions>
				</extensions>
			</trkpt>
			<trkpt lat="-27.944233" lon="152.662229">
				<ele>136</ele>
				<time>2015-05-07T05:44:39Z</time>
				<extensions>
				</extensions>
			</trkpt>
			<trkpt lat="-27.944180" lon="152.661968">
				<ele>137</ele>
				<time>2015-05-07T05:44:40Z</time>
				<extensions>
				</extensions>
			</trkpt>
			<trkpt lat="-27.944092" lon="152.661577">
				<ele>138</ele>
				<time>2015-05-07T05:44:42Z</time>
				<extensions>
				</extensions>
			</trkpt>
			<trkpt lat="-27.944002" lon="152.661263">
				<ele>140</ele>
				<time>2015-05-07T05:44:43Z</time>
				<extensions>
				</extensions>
			</trkpt>
			<trkpt lat="-27.943925" lon="152.661019">
				<ele>143</ele>
				<time>2015-05-07T05:44:44Z</time>
				<extensions>
				</extensions>
			</trkpt>
			<trkpt lat="-27.943850" lon="152.660762">
				<ele>144</ele>
				<time>2015-05-07T05:44:45Z</time>
				<extensions>
				</extensions>
			</trkpt>
			<trkpt lat="-27.943788" lon="152.660510">
				<ele>145</ele>
				<time>2015-05-07T05:44:46Z</time>
				<extensions>
				</extensions>
			</trkpt>
			<trkpt lat="-27.943746" lon="152.660257">
				<ele>146</ele>
				<time>2015-05-07T05:44:47Z</time>
				<extensions>
				</extensions>
			</trkpt>
			<trkpt lat="-27.943708" lon="152.660016">
				<ele>146</ele>
				<time>2015-05-07T05:44:48Z</time>
				<extensions>
				</extensions>
			</trkpt>
			<trkpt lat="-27.943677" lon="152.659778">
				<ele>147</ele>
				<time>2015-05-07T05:44:49Z</time>
				<extensions>
				</extensions>
			</trkpt>
			<trkpt lat="-27.943644" lon="152.659529">
				<ele>149</ele>
				<time>2015-05-07T05:44:50Z</time>
				<extensions>
				</extensions>
			</trkpt>
			<trkpt lat="-27.943614" lon="152.659289">
				<ele>148</ele>
				<time>2015-05-07T05:44:51Z</time>
				<extensions>
				</extensions>
			</trkpt>
			<trkpt lat="-27.943567" lon="152.659037">
				<ele>151</ele>
				<time>2015-05-07T05:44:52Z</time>
				<extensions>
				</extensions>
			</trkpt>
			<trkpt lat="-27.943530" lon="152.658800">
				<ele>152</ele>
				<time>2015-05-07T05:44:53Z</time>
				<extensions>
				</extensions>
			</trkpt>
			<trkpt lat="-27.943496" lon="152.658568">
				<ele>151</ele>
				<time>2015-05-07T05:44:54Z</time>
				<extensions>
				</extensions>
			</trkpt>
			<trkpt lat="-27.943450" lon="152.658317">
				<ele>152</ele>
				<time>2015-05-07T05:44:55Z</time>
				<extensions>
				</extensions>
			</trkpt>
			<trkpt lat="-27.943411" lon="152.658074">
				<ele>153</ele>
				<time>2015-05-07T05:44:56Z</time>
				<extensions>
				</extensions>
			</trkpt>
			<trkpt lat="-27.943373" lon="152.657831">
				<ele>151</ele>
				<time>2015-05-07T05:44:57Z</time>
				<extensions>
				</extensions>
			</trkpt>
			<trkpt lat="-27.943330" lon="152.657603">
				<ele>152</ele>
				<time>2015-05-07T05:44:58Z</time>
				<extensions>
				</extensions>
			</trkpt>
			<trkpt lat="-27.943291" lon="152.657382">
				<ele>151</ele>
				<time>2015-05-07T05:44:59Z</time>
				<extensions>
				</extensions>
			</trkpt>
			<trkpt lat="-27.943262" lon="152.657181">
				<ele>148</ele>
				<time>2015-05-07T05:45:00Z</time>
				<extensions>
				</extensions>
			</trkpt>
			<trkpt lat="-27.943223" lon="152.656959">
				<ele>148</ele>
				<time>2015-05-07T05:45:01Z</time>
				<extensions>
				</extensions>
			</trkpt>
			<trkpt lat="-27.943187" lon="152.656739">
				<ele>144</ele>
				<time>2015-05-07T05:45:02Z</time>
				<extensions>
				</extensions>
			</trkpt>
			<trkpt lat="-27.943151" lon="152.656506">
				<ele>146</ele>
				<time>2015-05-07T05:45:03Z</time>
				<extensions>
				</extensions>
			</trkpt>
			<trkpt lat="-27.943117" lon="152.656276">
				<ele>143</ele>
				<time>2015-05-07T05:45:04Z</time>
				<extensions>
				</extensions>
			</trkpt>
			<trkpt lat="-27.943080" lon="152.656045">
				<ele>141</ele>
				<time>2015-05-07T05:45:05Z</time>
				<extensions>
				</extensions>
			</trkpt>
			<trkpt lat="-27.943041" lon="152.655815">
				<ele>140</ele>
				<time>2015-05-07T05:45:06Z</time>
				<extensions>
				</extensions>
			</trkpt>
			<trkpt lat="-27.943007" lon="152.655578">
				<ele>138</ele>
				<time>2015-05-07T05:45:07Z</time>
				<extensions>
				</extensions>
			</trkpt>
			<trkpt lat="-27.942972" lon="152.655334">
				<ele>136</ele>
				<time>2015-05-07T05:45:08Z</time>
				<extensions>
				</extensions>
			</trkpt>
			<trkpt lat="-27.942915" lon="152.654909">
				<ele>133</ele>
				<time>2015-05-07T05:45:10Z</time>
				<extensions>
				</extensions>
			</trkpt>
			<trkpt lat="-27.942882" lon="152.654671">
				<ele>134</ele>
				<time>2015-05-07T05:45:11Z</time>
				<extensions>
				</extensions>
			</trkpt>
			<trkpt lat="-27.942848" lon="152.654432">
				<ele>133</ele>
				<time>2015-05-07T05:45:12Z</time>
				<extensions>
				</extensions>
			</trkpt>
			<trkpt lat="-27.942810" lon="152.654201">
				<ele>131</ele>
				<time>2015-05-07T05:45:13Z</time>
				<extensions>
				</extensions>
			</trkpt>
			<trkpt lat="-27.942784" lon="152.653978">
				<ele>130</ele>
				<time>2015-05-07T05:45:14Z</time>
				<extensions>
				</extensions>
			</trkpt>
			<trkpt lat="-27.942748" lon="152.653743">
				<ele>130</ele>
				<time>2015-05-07T05:45:15Z</time>
				<extensions>
				</extensions>
			</trkpt>
			<trkpt lat="-27.942701" lon="152.653508">
				<ele>129</ele>
				<time>2015-05-07T05:45:16Z</time>
				<extensions>
				</extensions>
			</trkpt>
			<trkpt lat="-27.942632" lon="152.653069">
				<ele>127</ele>
				<time>2015-05-07T05:45:18Z</time>
				<extensions>
				</extensions>
			</trkpt>
			<trkpt lat="-27.942570" lon="152.652624">
				<ele>124</ele>
				<time>2015-05-07T05:45:20Z</time>
				<extensions>
				</extensions>
			</trkpt>
			<trkpt lat="-27.942531" lon="152.652385">
				<ele>123</ele>
				<time>2015-05-07T05:45:21Z</time>
				<extensions>
				</extensions>
			</trkpt>
			<trkpt lat="-27.942497" lon="152.652149">
				<ele>124</ele>
				<time>2015-05-07T05:45:22Z</time>
				<extensions>
				</extensions>
			</trkpt>
			<trkpt lat="-27.942475" lon="152.651912">
				<ele>124</ele>
				<time>2015-05-07T05:45:23Z</time>
				<extensions>
				</extensions>
			</trkpt>
			<trkpt lat="-27.942437" lon="152.651649">
				<ele>127</ele>
				<time>2015-05-07T05:45:24Z</time>
				<extensions>
				</extensions>
			</trkpt>
			<trkpt lat="-27.942398" lon="152.651396">
				<ele>127</ele>
				<time>2015-05-07T05:45:25Z</time>
				<extensions>
				</extensions>
			</trkpt>
			<trkpt lat="-27.942369" lon="152.651165">
				<ele>126</ele>
				<time>2015-05-07T05:45:26Z</time>
				<extensions>
				</extensions>
			</trkpt>
			<trkpt lat="-27.942337" lon="152.650944">
				<ele>128</ele>
				<time>2015-05-07T05:45:27Z</time>
				<extensions>
				</extensions>
			</trkpt>
			<trkpt lat="-27.942302" lon="152.650728">
				<ele>128</ele>
				<time>2015-05-07T05:45:28Z</time>
				<extensions>
				</extensions>
			</trkpt>
			<trkpt lat="-27.942267" lon="152.650507">
				<ele>128</ele>
				<time>2015-05-07T05:45:29Z</time>
				<extensions>
				</extensions>
			</trkpt>
			<trkpt lat="-27.942228" lon="152.650147">
				<ele>127</ele>
				<time>2015-05-07T05:45:31Z</time>
				<extensions>
				</extensions>
			</trkpt>
			<trkpt lat="-27.942182" lon="152.649772">
				<ele>127</ele>
				<time>2015-05-07T05:45:33Z</time>
				<extensions>
				</extensions>
			</trkpt>
			<trkpt lat="-27.942138" lon="152.649386">
				<ele>128</ele>
				<time>2015-05-07T05:45:35Z</time>
				<extensions>
				</extensions>
			</trkpt>
			<trkpt lat="-27.942101" lon="152.649024">
				<ele>127</ele>
				<time>2015-05-07T05:45:37Z</time>
				<extensions>
				</extensions>
			</trkpt>
			<trkpt lat="-27.942057" lon="152.648816">
				<ele>126</ele>
				<time>2015-05-07T05:45:38Z</time>
				<extensions>
				</extensions>
			</trkpt>
			<trkpt lat="-27.942011" lon="152.648599">
				<ele>125</ele>
				<time>2015-05-07T05:45:39Z</time>
				<extensions>
				</extensions>
			</trkpt>
			<trkpt lat="-27.941975" lon="152.648387">
				<ele>124</ele>
				<time>2015-05-07T05:45:40Z</time>
				<extensions>
				</extensions>
			</trkpt>
			<trkpt lat="-27.941947" lon="152.648176">
				<ele>122</ele>
				<time>2015-05-07T05:45:41Z</time>
				<extensions>
				</extensions>
			</trkpt>
			<trkpt lat="-27.941918" lon="152.647946">
				<ele>122</ele>
				<time>2015-05-07T05:45:42Z</time>
				<extensions>
				</extensions>
			</trkpt>
			<trkpt lat="-27.941879" lon="152.647719">
				<ele>121</ele>
				<time>2015-05-07T05:45:43Z</time>
				<extensions>
				</extensions>
			</trkpt>
			<trkpt lat="-27.941844" lon="152.647491">
				<ele>119</ele>
				<time>2015-05-07T05:45:44Z</time>
				<extensions>
				</extensions>
			</trkpt>
			<trkpt lat="-27.941806" lon="152.647257">
				<ele>117</ele>
				<time>2015-05-07T05:45:45Z</time>
				<extensions>
				</extensions>
			</trkpt>
			<trkpt lat="-27.941774" lon="152.647026">
				<ele>116</ele>
				<time>2015-05-07T05:45:46Z</time>
				<extensions>
				</extensions>
			</trkpt>
			<trkpt lat="-27.941735" lon="152.646793">
				<ele>115</ele>
				<time>2015-05-07T05:45:47Z</time>
				<extensions>
				</extensions>
			</trkpt>
			<trkpt lat="-27.941707" lon="152.646560">
				<ele>113</ele>
				<time>2015-05-07T05:45:48Z</time>
				<extensions>
				</extensions>
			</trkpt>
			<trkpt lat="-27.941676" lon="152.646343">
				<ele>112</ele>
				<time>2015-05-07T05:45:49Z</time>
				<extensions>
				</extensions>
			</trkpt>
			<trkpt lat="-27.941636" lon="152.646094">
				<ele>113</ele>
				<time>2015-05-07T05:45:50Z</time>
				<extensions>
				</extensions>
			</trkpt>
			<trkpt lat="-27.941597" lon="152.645839">
				<ele>114</ele>
				<time>2015-05-07T05:45:51Z</time>
				<extensions>
				</extensions>
			</trkpt>
			<trkpt lat="-27.941562" lon="152.645588">
				<ele>111</ele>
				<time>2015-05-07T05:45:52Z</time>
				<extensions>
				</extensions>
			</trkpt>
			<trkpt lat="-27.941538" lon="152.645375">
				<ele>109</ele>
				<time>2015-05-07T05:45:53Z</time>
				<extensions>
				</extensions>
			</trkpt>
			<trkpt lat="-27.941508" lon="152.645127">
				<ele>109</ele>
				<time>2015-05-07T05:45:54Z</time>
				<extensions>
				</extensions>
			</trkpt>
			<trkpt lat="-27.941468" lon="152.644880">
				<ele>109</ele>
				<time>2015-05-07T05:45:55Z</time>
				<extensions>
				</extensions>
			</trkpt>
			<trkpt lat="-27.941439" lon="152.644633">
				<ele>108</ele>
				<time>2015-05-07T05:45:56Z</time>
				<extensions>
				</extensions>
			</trkpt>
			<trkpt lat="-27.941410" lon="152.644391">
				<ele>109</ele>
				<time>2015-05-07T05:45:57Z</time>
				<extensions>
				</extensions>
			</trkpt>
			<trkpt lat="-27.941373" lon="152.644140">
				<ele>108</ele>
				<time>2015-05-07T05:45:58Z</time>
				<extensions>
				</extensions>
			</trkpt>
			<trkpt lat="-27.941329" lon="152.643885">
				<ele>108</ele>
				<time>2015-05-07T05:45:59Z</time>
				<extensions>
				</extensions>
			</trkpt>
			<trkpt lat="-27.941295" lon="152.643641">
				<ele>108</ele>
				<time>2015-05-07T05:46:00Z</time>
				<extensions>
				</extensions>
			</trkpt>
			<trkpt lat="-27.941258" lon="152.643381">
				<ele>108</ele>
				<time>2015-05-07T05:46:01Z</time>
				<extensions>
				</extensions>
			</trkpt>
			<trkpt lat="-27.941226" lon="152.643145">
				<ele>108</ele>
				<time>2015-05-07T05:46:02Z</time>
				<extensions>
				</extensions>
			</trkpt>
			<trkpt lat="-27.941180" lon="152.642884">
				<ele>108</ele>
				<time>2015-05-07T05:46:03Z</time>
				<extensions>
				</extensions>
			</trkpt>
			<trkpt lat="-27.941142" lon="152.642628">
				<ele>108</ele>
				<time>2015-05-07T05:46:04Z</time>
				<extensions>
				</extensions>
			</trkpt>
			<trkpt lat="-27.941107" lon="152.642381">
				<ele>110</ele>
				<time>2015-05-07T05:46:05Z</time>
				<extensions>
				</extensions>
			</trkpt>
			<trkpt lat="-27.941071" lon="152.642123">
				<ele>110</ele>
				<time>2015-05-07T05:46:06Z</time>
				<extensions>
				</extensions>
			</trkpt>
			<trkpt lat="-27.941035" lon="152.641879">
				<ele>110</ele>
				<time>2015-05-07T05:46:07Z</time>
				<extensions>
				</extensions>
			</trkpt>
			<trkpt lat="-27.941002" lon="152.641648">
				<ele>111</ele>
				<time>2015-05-07T05:46:08Z</time>
				<extensions>
				</extensions>
			</trkpt>
			<trkpt lat="-27.940975" lon="152.641411">
				<ele>112</ele>
				<time>2015-05-07T05:46:09Z</time>
				<extensions>
				</extensions>
			</trkpt>
			<trkpt lat="-27.940947" lon="152.641162">
				<ele>111</ele>
				<time>2015-05-07T05:46:10Z</time>
				<extensions>
				</extensions>
			</trkpt>
			<trkpt lat="-27.940921" lon="152.640921">
				<ele>111</ele>
				<time>2015-05-07T05:46:11Z</time>
				<extensions>
				</extensions>
			</trkpt>
			<trkpt lat="-27.940892" lon="152.640689">
				<ele>112</ele>
				<time>2015-05-07T05:46:12Z</time>
				<extensions>
				</extensions>
			</trkpt>
			<trkpt lat="-27.940876" lon="152.640480">
				<ele>113</ele>
				<time>2015-05-07T05:46:13Z</time>
				<extensions>
				</extensions>
			</trkpt>
			<trkpt lat="-27.940844" lon="152.640253">
				<ele>116</ele>
				<time>2015-05-07T05:46:14Z</time>
				<extensions>
				</extensions>
			</trkpt>
			<trkpt lat="-27.940811" lon="152.640021">
				<ele>116</ele>
				<time>2015-05-07T05:46:15Z</time>
				<extensions>
				</extensions>
			</trkpt>
			<trkpt lat="-27.940783" lon="152.639808">
				<ele>116</ele>
				<time>2015-05-07T05:46:16Z</time>
				<extensions>
				</extensions>
			</trkpt>
			<trkpt lat="-27.940742" lon="152.639583">
				<ele>116</ele>
				<time>2015-05-07T05:46:17Z</time>
				<extensions>
				</extensions>
			</trkpt>
			<trkpt lat="-27.940711" lon="152.639357">
				<ele>115</ele>
				<time>2015-05-07T05:46:18Z</time>
				<extensions>
				</extensions>
			</trkpt>
			<trkpt lat="-27.940656" lon="152.638973">
				<ele>115</ele>
				<time>2015-05-07T05:46:20Z</time>
				<extensions>
				</extensions>
			</trkpt>
			<trkpt lat="-27.940594" lon="152.638566">
				<ele>116</ele>
				<time>2015-05-07T05:46:22Z</time>
				<extensions>
				</extensions>
			</trkpt>
			<trkpt lat="-27.940568" lon="152.638354">
				<ele>116</ele>
				<time>2015-05-07T05:46:23Z</time>
				<extensions>
				</extensions>
			</trkpt>
			<trkpt lat="-27.940536" lon="152.638148">
				<ele>116</ele>
				<time>2015-05-07T05:46:24Z</time>
				<extensions>
				</extensions>
			</trkpt>
			<trkpt lat="-27.940470" lon="152.637760">
				<ele>115</ele>
				<time>2015-05-07T05:46:26Z</time>
				<extensions>
				</extensions>
			</trkpt>
			<trkpt lat="-27.940421" lon="152.637406">
				<ele>115</ele>
				<time>2015-05-07T05:46:28Z</time>
				<extensions>
				</extensions>
			</trkpt>
			<trkpt lat="-27.940363" lon="152.637031">
				<ele>115</ele>
				<time>2015-05-07T05:46:30Z</time>
				<extensions>
				</extensions>
			</trkpt>
			<trkpt lat="-27.940317" lon="152.636711">
				<ele>115</ele>
				<time>2015-05-07T05:46:32Z</time>
				<extensions>
				</extensions>
			</trkpt>
			<trkpt lat="-27.940259" lon="152.636382">
				<ele>114</ele>
				<time>2015-05-07T05:46:34Z</time>
				<extensions>
				</extensions>
			</trkpt>
			<trkpt lat="-27.940218" lon="152.636090">
				<ele>114</ele>
				<time>2015-05-07T05:46:36Z</time>
				<extensions>
				</extensions>
			</trkpt>
			<trkpt lat="-27.940173" lon="152.635787">
				<ele>112</ele>
				<time>2015-05-07T05:46:38Z</time>
				<extensions>
				</extensions>
			</trkpt>
			<trkpt lat="-27.940137" lon="152.635525">
				<ele>111</ele>
				<time>2015-05-07T05:46:40Z</time>
				<extensions>
				</extensions>
			</trkpt>
			<trkpt lat="-27.940089" lon="152.635252">
				<ele>109</ele>
				<time>2015-05-07T05:46:42Z</time>
				<extensions>
				</extensions>
			</trkpt>
			<trkpt lat="-27.940052" lon="152.635000">
				<ele>107</ele>
				<time>2015-05-07T05:46:44Z</time>
				<extensions>
				</extensions>
			</trkpt>
			<trkpt lat="-27.940014" lon="152.634728">
				<ele>105</ele>
				<time>2015-05-07T05:46:46Z</time>
				<extensions>
				</extensions>
			</trkpt>
			<trkpt lat="-27.939977" lon="152.634466">
				<ele>103</ele>
				<time>2015-05-07T05:46:48Z</time>
				<extensions>
				</extensions>
			</trkpt>
			<trkpt lat="-27.939944" lon="152.634199">
				<ele>102</ele>
				<time>2015-05-07T05:46:50Z</time>
				<extensions>
				</extensions>
			</trkpt>
			<trkpt lat="-27.939898" lon="152.633944">
				<ele>100</ele>
				<time>2015-05-07T05:46:52Z</time>
				<extensions>
				</extensions>
			</trkpt>
			<trkpt lat="-27.939861" lon="152.633676">
				<ele>98</ele>
				<time>2015-05-07T05:46:54Z</time>
				<extensions>
				</extensions>
			</trkpt>
			<trkpt lat="-27.939824" lon="152.633386">
				<ele>97</ele>
				<time>2015-05-07T05:46:56Z</time>
				<extensions>
				</extensions>
			</trkpt>
			<trkpt lat="-27.939764" lon="152.633047">
				<ele>96</ele>
				<time>2015-05-07T05:46:58Z</time>
				<extensions>
				</extensions>
			</trkpt>
			<trkpt lat="-27.939713" lon="152.632720">
				<ele>95</ele>
				<time>2015-05-07T05:47:00Z</time>
				<extensions>
				</extensions>
			</trkpt>
			<trkpt lat="-27.939665" lon="152.632381">
				<ele>93</ele>
				<time>2015-05-07T05:47:02Z</time>
				<extensions>
				</extensions>
			</trkpt>
			<trkpt lat="-27.939608" lon="152.632041">
				<ele>92</ele>
				<time>2015-05-07T05:47:04Z</time>
				<extensions>
				</extensions>
			</trkpt>
			<trkpt lat="-27.939554" lon="152.631700">
				<ele>90</ele>
				<time>2015-05-07T05:47:06Z</time>
				<extensions>
				</extensions>
			</trkpt>
			<trkpt lat="-27.939500" lon="152.631349">
				<ele>89</ele>
				<time>2015-05-07T05:47:08Z</time>
				<extensions>
				</extensions>
			</trkpt>
			<trkpt lat="-27.939449" lon="152.631005">
				<ele>88</ele>
				<time>2015-05-07T05:47:10Z</time>
				<extensions>
				</extensions>
			</trkpt>
			<trkpt lat="-27.939395" lon="152.630647">
				<ele>87</ele>
				<time>2015-05-07T05:47:12Z</time>
				<extensions>
				</extensions>
			</trkpt>
			<trkpt lat="-27.939343" lon="152.630311">
				<ele>86</ele>
				<time>2015-05-07T05:47:14Z</time>
				<extensions>
				</extensions>
			</trkpt>
			<trkpt lat="-27.939293" lon="152.629963">
				<ele>86</ele>
				<time>2015-05-07T05:47:16Z</time>
				<extensions>
				</extensions>
			</trkpt>
			<trkpt lat="-27.939243" lon="152.629634">
				<ele>85</ele>
				<time>2015-05-07T05:47:18Z</time>
				<extensions>
				</extensions>
			</trkpt>
			<trkpt lat="-27.939197" lon="152.629299">
				<ele>84</ele>
				<time>2015-05-07T05:47:20Z</time>
				<extensions>
				</extensions>
			</trkpt>
			<trkpt lat="-27.939144" lon="152.628948">
				<ele>85</ele>
				<time>2015-05-07T05:47:22Z</time>
				<extensions>
				</extensions>
			</trkpt>
			<trkpt lat="-27.939090" lon="152.628602">
				<ele>84</ele>
				<time>2015-05-07T05:47:24Z</time>
				<extensions>
				</extensions>
			</trkpt>
			<trkpt lat="-27.939036" lon="152.628258">
				<ele>84</ele>
				<time>2015-05-07T05:47:26Z</time>
				<extensions>
				</extensions>
			</trkpt>
			<trkpt lat="-27.938969" lon="152.627887">
				<ele>84</ele>
				<time>2015-05-07T05:47:28Z</time>
				<extensions>
				</extensions>
			</trkpt>
			<trkpt lat="-27.938921" lon="152.627556">
				<ele>83</ele>
				<time>2015-05-07T05:47:30Z</time>
				<extensions>
				</extensions>
			</trkpt>
			<trkpt lat="-27.938883" lon="152.627267">
				<ele>81</ele>
				<time>2015-05-07T05:47:32Z</time>
				<extensions>
				</extensions>
			</trkpt>
			<trkpt lat="-27.938833" lon="152.626952">
				<ele>81</ele>
				<time>2015-05-07T05:47:34Z</time>
				<extensions>
				</extensions>
			</trkpt>
			<trkpt lat="-27.938778" lon="152.626630">
				<ele>82</ele>
				<time>2015-05-07T05:47:36Z</time>
				<extensions>
				</extensions>
			</trkpt>
			<trkpt lat="-27.938746" lon="152.626316">
				<ele>82</ele>
				<time>2015-05-07T05:47:38Z</time>
				<extensions>
				</extensions>
			</trkpt>
			<trkpt lat="-27.938706" lon="152.625981">
				<ele>81</ele>
				<time>2015-05-07T05:47:40Z</time>
				<extensions>
				</extensions>
			</trkpt>
			<trkpt lat="-27.938668" lon="152.625671">
				<ele>81</ele>
				<time>2015-05-07T05:47:42Z</time>
				<extensions>
				</extensions>
			</trkpt>
			<trkpt lat="-27.938627" lon="152.625402">
				<ele>81</ele>
				<time>2015-05-07T05:47:44Z</time>
				<extensions>
				</extensions>
			</trkpt>
			<trkpt lat="-27.938592" lon="152.625156">
				<ele>81</ele>
				<time>2015-05-07T05:47:46Z</time>
				<extensions>
				</extensions>
			</trkpt>
			<trkpt lat="-27.938560" lon="152.624918">
				<ele>81</ele>
				<time>2015-05-07T05:47:48Z</time>
				<extensions>
				</extensions>
			</trkpt>
			<trkpt lat="-27.938528" lon="152.624702">
				<ele>81</ele>
				<time>2015-05-07T05:47:50Z</time>
				<extensions>
				</extensions>
			</trkpt>
			<trkpt lat="-27.938491" lon="152.624489">
				<ele>81</ele>
				<time>2015-05-07T05:47:52Z</time>
				<extensions>
				</extensions>
			</trkpt>
			<trkpt lat="-27.938457" lon="152.624251">
				<ele>80</ele>
				<time>2015-05-07T05:47:55Z</time>
				<extensions>
				</extensions>
			</trkpt>
			<trkpt lat="-27.938413" lon="152.624026">
				<ele>80</ele>
				<time>2015-05-07T05:48:05Z</time>
				<extensions>
				</extensions>
			</trkpt>
			<trkpt lat="-27.938182" lon="152.623916">
				<ele>82</ele>
				<time>2015-05-07T05:48:12Z</time>
				<extensions>
				</extensions>
			</trkpt>
			<trkpt lat="-27.937950" lon="152.623974">
				<ele>83</ele>
				<time>2015-05-07T05:48:14Z</time>
				<extensions>
				</extensions>
			</trkpt>
			<trkpt lat="-27.937665" lon="152.624023">
				<ele>84</ele>
				<time>2015-05-07T05:48:16Z</time>
				<extensions>
				</extensions>
			</trkpt>
			<trkpt lat="-27.937332" lon="152.624082">
				<ele>84</ele>
				<time>2015-05-07T05:48:18Z</time>
				<extensions>
				</extensions>
			</trkpt>
			<trkpt lat="-27.937139" lon="152.624119">
				<ele>86</ele>
				<time>2015-05-07T05:48:19Z</time>
				<extensions>
				</extensions>
			</trkpt>
			<trkpt lat="-27.936945" lon="152.624153">
				<ele>89</ele>
				<time>2015-05-07T05:48:20Z</time>
				<extensions>
				</extensions>
			</trkpt>
			<trkpt lat="-27.936747" lon="152.624192">
				<ele>91</ele>
				<time>2015-05-07T05:48:21Z</time>
				<extensions>
				</extensions>
			</trkpt>
			<trkpt lat="-27.936534" lon="152.624232">
				<ele>91</ele>
				<time>2015-05-07T05:48:22Z</time>
				<extensions>
				</extensions>
			</trkpt>
			<trkpt lat="-27.936341" lon="152.624263">
				<ele>90</ele>
				<time>2015-05-07T05:48:23Z</time>
				<extensions>
				</extensions>
			</trkpt>
			<trkpt lat="-27.936160" lon="152.624299">
				<ele>87</ele>
				<time>2015-05-07T05:48:24Z</time>
				<extensions>
				</extensions>
			</trkpt>
			<trkpt lat="-27.935962" lon="152.624333">
				<ele>86</ele>
				<time>2015-05-07T05:48:25Z</time>
				<extensions>
				</extensions>
			</trkpt>
			<trkpt lat="-27.935613" lon="152.624392">
				<ele>83</ele>
				<time>2015-05-07T05:48:27Z</time>
				<extensions>
				</extensions>
			</trkpt>
			<trkpt lat="-27.935293" lon="152.624452">
				<ele>82</ele>
				<time>2015-05-07T05:48:29Z</time>
				<extensions>
				</extensions>
			</trkpt>
			<trkpt lat="-27.935058" lon="152.624495">
				<ele>77</ele>
				<time>2015-05-07T05:48:31Z</time>
				<extensions>
				</extensions>
			</trkpt>
			<trkpt lat="-27.934857" lon="152.624530">
				<ele>76</ele>
				<time>2015-05-07T05:48:33Z</time>
				<extensions>
				</extensions>
			</trkpt>
			<trkpt lat="-27.934655" lon="152.624573">
				<ele>75</ele>
				<time>2015-05-07T05:48:35Z</time>
				<extensions>
				</extensions>
			</trkpt>
			<trkpt lat="-27.934453" lon="152.624605">
				<ele>76</ele>
				<time>2015-05-07T05:48:37Z</time>
				<extensions>
				</extensions>
			</trkpt>
			<trkpt lat="-27.934220" lon="152.624610">
				<ele>77</ele>
				<time>2015-05-07T05:48:39Z</time>
				<extensions>
				</extensions>
			</trkpt>
			<trkpt lat="-27.933991" lon="152.624552">
				<ele>78</ele>
				<time>2015-05-07T05:48:41Z</time>
				<extensions>
				</extensions>
			</trkpt>
			<trkpt lat="-27.933779" lon="152.624400">
				<ele>78</ele>
				<time>2015-05-07T05:48:43Z</time>
				<extensions>
				</extensions>
			</trkpt>
			<trkpt lat="-27.933633" lon="152.624173">
				<ele>76</ele>
				<time>2015-05-07T05:48:45Z</time>
				<extensions>
				</extensions>
			</trkpt>
			<trkpt lat="-27.933545" lon="152.623886">
				<ele>77</ele>
				<time>2015-05-07T05:48:47Z</time>
				<extensions>
				</extensions>
			</trkpt>
			<trkpt lat="-27.933484" lon="152.623559">
				<ele>77</ele>
				<time>2015-05-07T05:48:49Z</time>
				<extensions>
				</extensions>
			</trkpt>
			<trkpt lat="-27.933447" lon="152.623217">
				<ele>80</ele>
				<time>2015-05-07T05:48:51Z</time>
				<extensions>
				</extensions>
			</trkpt>
			<trkpt lat="-27.933399" lon="152.622862">
				<ele>79</ele>
				<time>2015-05-07T05:48:53Z</time>
				<extensions>
				</extensions>
			</trkpt>
			<trkpt lat="-27.933344" lon="152.622493">
				<ele>78</ele>
				<time>2015-05-07T05:48:55Z</time>
				<extensions>
				</extensions>
			</trkpt>
			<trkpt lat="-27.933295" lon="152.622127">
				<ele>79</ele>
				<time>2015-05-07T05:48:57Z</time>
				<extensions>
				</extensions>
			</trkpt>
			<trkpt lat="-27.933241" lon="152.621788">
				<ele>80</ele>
				<time>2015-05-07T05:48:59Z</time>
				<extensions>
				</extensions>
			</trkpt>
			<trkpt lat="-27.933208" lon="152.621583">
				<ele>81</ele>
				<time>2015-05-07T05:49:00Z</time>
				<extensions>
				</extensions>
			</trkpt>
			<trkpt lat="-27.933146" lon="152.621170">
				<ele>82</ele>
				<time>2015-05-07T05:49:02Z</time>
				<extensions>
				</extensions>
			</trkpt>
			<trkpt lat="-27.933111" lon="152.620961">
				<ele>82</ele>
				<time>2015-05-07T05:49:03Z</time>
				<extensions>
				</extensions>
			</trkpt>
			<trkpt lat="-27.933079" lon="152.620750">
				<ele>83</ele>
				<time>2015-05-07T05:49:04Z</time>
				<extensions>
				</extensions>
			</trkpt>
			<trkpt lat="-27.933041" lon="152.620515">
				<ele>83</ele>
				<time>2015-05-07T05:49:05Z</time>
				<extensions>
				</extensions>
			</trkpt>
			<trkpt lat="-27.933006" lon="152.620310">
				<ele>82</ele>
				<time>2015-05-07T05:49:06Z</time>
				<extensions>
				</extensions>
			</trkpt>
			<trkpt lat="-27.932978" lon="152.620105">
				<ele>83</ele>
				<time>2015-05-07T05:49:07Z</time>
				<extensions>
				</extensions>
			</trkpt>
			<trkpt lat="-27.932947" lon="152.619889">
				<ele>82</ele>
				<time>2015-05-07T05:49:08Z</time>
				<extensions>
				</extensions>
			</trkpt>
			<trkpt lat="-27.932918" lon="152.619659">
				<ele>83</ele>
				<time>2015-05-07T05:49:09Z</time>
				<extensions>
				</extensions>
			</trkpt>
			<trkpt lat="-27.932879" lon="152.619435">
				<ele>83</ele>
				<time>2015-05-07T05:49:10Z</time>
				<extensions>
				</extensions>
			</trkpt>
			<trkpt lat="-27.932846" lon="152.619205">
				<ele>84</ele>
				<time>2015-05-07T05:49:11Z</time>
				<extensions>
				</extensions>
			</trkpt>
			<trkpt lat="-27.932810" lon="152.618968">
				<ele>84</ele>
				<time>2015-05-07T05:49:12Z</time>
				<extensions>
				</extensions>
			</trkpt>
			<trkpt lat="-27.932772" lon="152.618713">
				<ele>85</ele>
				<time>2015-05-07T05:49:13Z</time>
				<extensions>
				</extensions>
			</trkpt>
			<trkpt lat="-27.932740" lon="152.618464">
				<ele>84</ele>
				<time>2015-05-07T05:49:14Z</time>
				<extensions>
				</extensions>
			</trkpt>
			<trkpt lat="-27.932705" lon="152.618208">
				<ele>84</ele>
				<time>2015-05-07T05:49:15Z</time>
				<extensions>
				</extensions>
			</trkpt>
			<trkpt lat="-27.932666" lon="152.617922">
				<ele>85</ele>
				<time>2015-05-07T05:49:16Z</time>
				<extensions>
				</extensions>
			</trkpt>
			<trkpt lat="-27.932635" lon="152.617669">
				<ele>85</ele>
				<time>2015-05-07T05:49:17Z</time>
				<extensions>
				</extensions>
			</trkpt>
			<trkpt lat="-27.932587" lon="152.617402">
				<ele>86</ele>
				<time>2015-05-07T05:49:18Z</time>
				<extensions>
				</extensions>
			</trkpt>
			<trkpt lat="-27.932547" lon="152.617139">
				<ele>87</ele>
				<time>2015-05-07T05:49:19Z</time>
				<extensions>
				</extensions>
			</trkpt>
			<trkpt lat="-27.932507" lon="152.616878">
				<ele>88</ele>
				<time>2015-05-07T05:49:20Z</time>
				<extensions>
				</extensions>
			</trkpt>
			<trkpt lat="-27.932472" lon="152.616615">
				<ele>88</ele>
				<time>2015-05-07T05:49:21Z</time>
				<extensions>
				</extensions>
			</trkpt>
			<trkpt lat="-27.932438" lon="152.616352">
				<ele>88</ele>
				<time>2015-05-07T05:49:22Z</time>
				<extensions>
				</extensions>
			</trkpt>
			<trkpt lat="-27.932403" lon="152.616105">
				<ele>88</ele>
				<time>2015-05-07T05:49:23Z</time>
				<extensions>
				</extensions>
			</trkpt>
			<trkpt lat="-27.932367" lon="152.615856">
				<ele>87</ele>
				<time>2015-05-07T05:49:24Z</time>
				<extensions>
				</extensions>
			</trkpt>
			<trkpt lat="-27.932323" lon="152.615621">
				<ele>85</ele>
				<time>2015-05-07T05:49:25Z</time>
				<extensions>
				</extensions>
			</trkpt>
			<trkpt lat="-27.932286" lon="152.615419">
				<ele>86</ele>
				<time>2015-05-07T05:49:26Z</time>
				<extensions>
				</extensions>
			</trkpt>
			<trkpt lat="-27.932252" lon="152.615163">
				<ele>86</ele>
				<time>2015-05-07T05:49:27Z</time>
				<extensions>
				</extensions>
			</trkpt>
			<trkpt lat="-27.932214" lon="152.614903">
				<ele>86</ele>
				<time>2015-05-07T05:49:28Z</time>
				<extensions>
				</extensions>
			</trkpt>
			<trkpt lat="-27.932175" lon="152.614656">
				<ele>88</ele>
				<time>2015-05-07T05:49:29Z</time>
				<extensions>
				</extensions>
			</trkpt>
			<trkpt lat="-27.932122" lon="152.614388">
				<ele>88</ele>
				<time>2015-05-07T05:49:30Z</time>
				<extensions>
				</extensions>
			</trkpt>
			<trkpt lat="-27.932088" lon="152.614134">
				<ele>87</ele>
				<time>2015-05-07T05:49:31Z</time>
				<extensions>
				</extensions>
			</trkpt>
			<trkpt lat="-27.932054" lon="152.613878">
				<ele>87</ele>
				<time>2015-05-07T05:49:32Z</time>
				<extensions>
				</extensions>
			</trkpt>
			<trkpt lat="-27.932015" lon="152.613615">
				<ele>87</ele>
				<time>2015-05-07T05:49:33Z</time>
				<extensions>
				</extensions>
			</trkpt>
			<trkpt lat="-27.931977" lon="152.613346">
				<ele>88</ele>
				<time>2015-05-07T05:49:34Z</time>
				<extensions>
				</extensions>
			</trkpt>
			<trkpt lat="-27.931944" lon="152.613086">
				<ele>88</ele>
				<time>2015-05-07T05:49:35Z</time>
				<extensions>
				</extensions>
			</trkpt>
			<trkpt lat="-27.931901" lon="152.612802">
				<ele>89</ele>
				<time>2015-05-07T05:49:36Z</time>
				<extensions>
				</extensions>
			</trkpt>
			<trkpt lat="-27.931860" lon="152.612536">
				<ele>89</ele>
				<time>2015-05-07T05:49:37Z</time>
				<extensions>
				</extensions>
			</trkpt>
			<trkpt lat="-27.931824" lon="152.612293">
				<ele>87</ele>
				<time>2015-05-07T05:49:38Z</time>
				<extensions>
				</extensions>
			</trkpt>
			<trkpt lat="-27.931783" lon="152.612036">
				<ele>86</ele>
				<time>2015-05-07T05:49:39Z</time>
				<extensions>
				</extensions>
			</trkpt>
			<trkpt lat="-27.931750" lon="152.611789">
				<ele>86</ele>
				<time>2015-05-07T05:49:40Z</time>
				<extensions>
				</extensions>
			</trkpt>
			<trkpt lat="-27.931713" lon="152.611546">
				<ele>86</ele>
				<time>2015-05-07T05:49:41Z</time>
				<extensions>
				</extensions>
			</trkpt>
			<trkpt lat="-27.931681" lon="152.611312">
				<ele>85</ele>
				<time>2015-05-07T05:49:42Z</time>
				<extensions>
				</extensions>
			</trkpt>
			<trkpt lat="-27.931653" lon="152.611089">
				<ele>84</ele>
				<time>2015-05-07T05:49:43Z</time>
				<extensions>
				</extensions>
			</trkpt>
			<trkpt lat="-27.931625" lon="152.610883">
				<ele>83</ele>
				<time>2015-05-07T05:49:44Z</time>
				<extensions>
				</extensions>
			</trkpt>
			<trkpt lat="-27.931590" lon="152.610647">
				<ele>84</ele>
				<time>2015-05-07T05:49:45Z</time>
				<extensions>
				</extensions>
			</trkpt>
			<trkpt lat="-27.931554" lon="152.610428">
				<ele>83</ele>
				<time>2015-05-07T05:49:46Z</time>
				<extensions>
				</extensions>
			</trkpt>
			<trkpt lat="-27.931520" lon="152.610209">
				<ele>83</ele>
				<time>2015-05-07T05:49:47Z</time>
				<extensions>
				</extensions>
			</trkpt>
			<trkpt lat="-27.931487" lon="152.610007">
				<ele>83</ele>
				<time>2015-05-07T05:49:48Z</time>
				<extensions>
				</extensions>
			</trkpt>
			<trkpt lat="-27.931455" lon="152.609800">
				<ele>82</ele>
				<time>2015-05-07T05:49:49Z</time>
				<extensions>
				</extensions>
			</trkpt>
			<trkpt lat="-27.931425" lon="152.609578">
				<ele>81</ele>
				<time>2015-05-07T05:49:50Z</time>
				<extensions>
				</extensions>
			</trkpt>
			<trkpt lat="-27.931362" lon="152.609170">
				<ele>81</ele>
				<time>2015-05-07T05:49:52Z</time>
				<extensions>
				</extensions>
			</trkpt>
			<trkpt lat="-27.931315" lon="152.608767">
				<ele>81</ele>
				<time>2015-05-07T05:49:54Z</time>
				<extensions>
				</extensions>
			</trkpt>
			<trkpt lat="-27.931283" lon="152.608544">
				<ele>82</ele>
				<time>2015-05-07T05:49:55Z</time>
				<extensions>
				</extensions>
			</trkpt>
			<trkpt lat="-27.931252" lon="152.608336">
				<ele>82</ele>
				<time>2015-05-07T05:49:56Z</time>
				<extensions>
				</extensions>
			</trkpt>
			<trkpt lat="-27.931229" lon="152.608126">
				<ele>82</ele>
				<time>2015-05-07T05:49:57Z</time>
				<extensions>
				</extensions>
			</trkpt>
			<trkpt lat="-27.931200" lon="152.607918">
				<ele>81</ele>
				<time>2015-05-07T05:49:58Z</time>
				<extensions>
				</extensions>
			</trkpt>
			<trkpt lat="-27.931180" lon="152.607688">
				<ele>80</ele>
				<time>2015-05-07T05:49:59Z</time>
				<extensions>
				</extensions>
			</trkpt>
			<trkpt lat="-27.931155" lon="152.607304">
				<ele>82</ele>
				<time>2015-05-07T05:50:01Z</time>
				<extensions>
				</extensions>
			</trkpt>
			<trkpt lat="-27.931237" lon="152.606763">
				<ele>82</ele>
				<time>2015-05-07T05:50:03Z</time>
				<extensions>
				</extensions>
			</trkpt>
			<trkpt lat="-27.931507" lon="152.606531">
				<ele>82</ele>
				<time>2015-05-07T05:50:05Z</time>
				<extensions>
				</extensions>
			</trkpt>
			<trkpt lat="-27.931790" lon="152.606247">
				<ele>82</ele>
				<time>2015-05-07T05:50:07Z</time>
				<extensions>
				</extensions>
			</trkpt>
			<trkpt lat="-27.931939" lon="152.606099">
				<ele>82</ele>
				<time>2015-05-07T05:50:08Z</time>
				<extensions>
				</extensions>
			</trkpt>
			<trkpt lat="-27.932084" lon="152.605954">
				<ele>83</ele>
				<time>2015-05-07T05:50:09Z</time>
				<extensions>
				</extensions>
			</trkpt>
			<trkpt lat="-27.932236" lon="152.605827">
				<ele>81</ele>
				<time>2015-05-07T05:50:10Z</time>
				<extensions>
				</extensions>
			</trkpt>
			<trkpt lat="-27.932383" lon="152.605706">
				<ele>81</ele>
				<time>2015-05-07T05:50:11Z</time>
				<extensions>
				</extensions>
			</trkpt>
			<trkpt lat="-27.932531" lon="152.605587">
				<ele>82</ele>
				<time>2015-05-07T05:50:12Z</time>
				<extensions>
				</extensions>
			</trkpt>
			<trkpt lat="-27.932682" lon="152.605467">
				<ele>81</ele>
				<time>2015-05-07T05:50:13Z</time>
				<extensions>
				</extensions>
			</trkpt>
			<trkpt lat="-27.932955" lon="152.605228">
				<ele>80</ele>
				<time>2015-05-07T05:50:15Z</time>
				<extensions>
				</extensions>
			</trkpt>
			<trkpt lat="-27.933197" lon="152.605023">
				<ele>79</ele>
				<time>2015-05-07T05:50:17Z</time>
				<extensions>
				</extensions>
			</trkpt>
			<trkpt lat="-27.933394" lon="152.604586">
				<ele>80</ele>
				<time>2015-05-07T05:50:19Z</time>
				<extensions>
				</extensions>
			</trkpt>
			<trkpt lat="-27.933310" lon="152.604236">
				<ele>81</ele>
				<time>2015-05-07T05:50:21Z</time>
				<extensions>
				</extensions>
			</trkpt>
			<trkpt lat="-27.933295" lon="152.603875">
				<ele>82</ele>
				<time>2015-05-07T05:50:23Z</time>
				<extensions>
				</extensions>
			</trkpt>
			<trkpt lat="-27.933271" lon="152.603659">
				<ele>84</ele>
				<time>2015-05-07T05:50:24Z</time>
				<extensions>
				</extensions>
			</trkpt>
			<trkpt lat="-27.933215" lon="152.603223">
				<ele>85</ele>
				<time>2015-05-07T05:50:26Z</time>
				<extensions>
				</extensions>
			</trkpt>
			<trkpt lat="-27.933180" lon="152.603022">
				<ele>85</ele>
				<time>2015-05-07T05:50:27Z</time>
				<extensions>
				</extensions>
			</trkpt>
			<trkpt lat="-27.933125" lon="152.602642">
				<ele>83</ele>
				<time>2015-05-07T05:50:29Z</time>
				<extensions>
				</extensions>
			</trkpt>
			<trkpt lat="-27.933046" lon="152.602281">
				<ele>80</ele>
				<time>2015-05-07T05:50:31Z</time>
				<extensions>
				</extensions>
			</trkpt>
			<trkpt lat="-27.932961" lon="152.601961">
				<ele>80</ele>
				<time>2015-05-07T05:50:33Z</time>
				<extensions>
				</extensions>
			</trkpt>
			<trkpt lat="-27.932858" lon="152.601613">
				<ele>80</ele>
				<time>2015-05-07T05:50:35Z</time>
				<extensions>
				</extensions>
			</trkpt>
			<trkpt lat="-27.932761" lon="152.601315">
				<ele>80</ele>
				<time>2015-05-07T05:50:37Z</time>
				<extensions>
				</extensions>
			</trkpt>
			<trkpt lat="-27.932646" lon="152.601026">
				<ele>81</ele>
				<time>2015-05-07T05:50:39Z</time>
				<extensions>
				</extensions>
			</trkpt>
			<trkpt lat="-27.932519" lon="152.600736">
				<ele>81</ele>
				<time>2015-05-07T05:50:41Z</time>
				<extensions>
				</extensions>
			</trkpt>
			<trkpt lat="-27.932401" lon="152.600438">
				<ele>80</ele>
				<time>2015-05-07T05:50:43Z</time>
				<extensions>
				</extensions>
			</trkpt>
			<trkpt lat="-27.932269" lon="152.600114">
				<ele>79</ele>
				<time>2015-05-07T05:50:45Z</time>
				<extensions>
				</extensions>
			</trkpt>
			<trkpt lat="-27.932131" lon="152.599773">
				<ele>81</ele>
				<time>2015-05-07T05:50:47Z</time>
				<extensions>
				</extensions>
			</trkpt>
			<trkpt lat="-27.931982" lon="152.599409">
				<ele>83</ele>
				<time>2015-05-07T05:50:49Z</time>
				<extensions>
				</extensions>
			</trkpt>
			<trkpt lat="-27.931904" lon="152.599223">
				<ele>84</ele>
				<time>2015-05-07T05:50:50Z</time>
				<extensions>
				</extensions>
			</trkpt>
			<trkpt lat="-27.931756" lon="152.598859">
				<ele>85</ele>
				<time>2015-05-07T05:50:52Z</time>
				<extensions>
				</extensions>
			</trkpt>
			<trkpt lat="-27.931628" lon="152.598520">
				<ele>83</ele>
				<time>2015-05-07T05:50:54Z</time>
				<extensions>
				</extensions>
			</trkpt>
			<trkpt lat="-27.931513" lon="152.598167">
				<ele>83</ele>
				<time>2015-05-07T05:50:56Z</time>
				<extensions>
				</extensions>
			</trkpt>
			<trkpt lat="-27.931426" lon="152.597787">
				<ele>85</ele>
				<time>2015-05-07T05:50:58Z</time>
				<extensions>
				</extensions>
			</trkpt>
			<trkpt lat="-27.931391" lon="152.597571">
				<ele>86</ele>
				<time>2015-05-07T05:50:59Z</time>
				<extensions>
				</extensions>
			</trkpt>
			<trkpt lat="-27.931355" lon="152.597356">
				<ele>88</ele>
				<time>2015-05-07T05:51:00Z</time>
				<extensions>
				</extensions>
			</trkpt>
			<trkpt lat="-27.931327" lon="152.597154">
				<ele>90</ele>
				<time>2015-05-07T05:51:01Z</time>
				<extensions>
				</extensions>
			</trkpt>
			<trkpt lat="-27.931289" lon="152.596916">
				<ele>91</ele>
				<time>2015-05-07T05:51:02Z</time>
				<extensions>
				</extensions>
			</trkpt>
			<trkpt lat="-27.931255" lon="152.596698">
				<ele>93</ele>
				<time>2015-05-07T05:51:03Z</time>
				<extensions>
				</extensions>
			</trkpt>
			<trkpt lat="-27.931226" lon="152.596489">
				<ele>93</ele>
				<time>2015-05-07T05:51:04Z</time>
				<extensions>
				</extensions>
			</trkpt>
			<trkpt lat="-27.931178" lon="152.596124">
				<ele>93</ele>
				<time>2015-05-07T05:51:06Z</time>
				<extensions>
				</extensions>
			</trkpt>
			<trkpt lat="-27.931141" lon="152.595811">
				<ele>94</ele>
				<time>2015-05-07T05:51:08Z</time>
				<extensions>
				</extensions>
			</trkpt>
			<trkpt lat="-27.931100" lon="152.595519">
				<ele>96</ele>
				<time>2015-05-07T05:51:10Z</time>
				<extensions>
				</extensions>
			</trkpt>
			<trkpt lat="-27.931069" lon="152.595249">
				<ele>96</ele>
				<time>2015-05-07T05:51:12Z</time>
				<extensions>
				</extensions>
			</trkpt>
			<trkpt lat="-27.931025" lon="152.594992">
				<ele>94</ele>
				<time>2015-05-07T05:51:15Z</time>
				<extensions>
				</extensions>
			</trkpt>
			<trkpt lat="-27.931003" lon="152.594728">
				<ele>94</ele>
				<time>2015-05-07T05:51:19Z</time>
				<extensions>
				</extensions>
			</trkpt>
			<trkpt lat="-27.931007" lon="152.594523">
				<ele>93</ele>
				<time>2015-05-07T05:51:32Z</time>
				<extensions>
				</extensions>
			</trkpt>
			<trkpt lat="-27.930973" lon="152.594727">
				<ele>93</ele>
				<time>2015-05-07T05:53:07Z</time>
				<extensions>
				</extensions>
			</trkpt>
			<trkpt lat="-27.930992" lon="152.595001">
				<ele>93</ele>
				<time>2015-05-07T05:54:08Z</time>
				<extensions>
				</extensions>
			</trkpt>
			<trkpt lat="-27.931032" lon="152.595297">
				<ele>95</ele>
				<time>2015-05-07T05:54:10Z</time>
				<extensions>
				</extensions>
			</trkpt>
			<trkpt lat="-27.931079" lon="152.595649">
				<ele>97</ele>
				<time>2015-05-07T05:54:12Z</time>
				<extensions>
				</extensions>
			</trkpt>
			<trkpt lat="-27.931130" lon="152.596043">
				<ele>97</ele>
				<time>2015-05-07T05:54:14Z</time>
				<extensions>
				</extensions>
			</trkpt>
			<trkpt lat="-27.931157" lon="152.596259">
				<ele>98</ele>
				<time>2015-05-07T05:54:15Z</time>
				<extensions>
				</extensions>
			</trkpt>
			<trkpt lat="-27.931185" lon="152.596481">
				<ele>96</ele>
				<time>2015-05-07T05:54:16Z</time>
				<extensions>
				</extensions>
			</trkpt>
			<trkpt lat="-27.931227" lon="152.596707">
				<ele>95</ele>
				<time>2015-05-07T05:54:17Z</time>
				<extensions>
				</extensions>
			</trkpt>
			<trkpt lat="-27.931258" lon="152.596937">
				<ele>95</ele>
				<time>2015-05-07T05:54:18Z</time>
				<extensions>
				</extensions>
			</trkpt>
			<trkpt lat="-27.931294" lon="152.597184">
				<ele>93</ele>
				<time>2015-05-07T05:54:19Z</time>
				<extensions>
				</extensions>
			</trkpt>
			<trkpt lat="-27.931328" lon="152.597425">
				<ele>92</ele>
				<time>2015-05-07T05:54:20Z</time>
				<extensions>
				</extensions>
			</trkpt>
			<trkpt lat="-27.931371" lon="152.597664">
				<ele>89</ele>
				<time>2015-05-07T05:54:21Z</time>
				<extensions>
				</extensions>
			</trkpt>
			<trkpt lat="-27.931417" lon="152.597903">
				<ele>89</ele>
				<time>2015-05-07T05:54:22Z</time>
				<extensions>
				</extensions>
			</trkpt>
			<trkpt lat="-27.931471" lon="152.598137">
				<ele>87</ele>
				<time>2015-05-07T05:54:23Z</time>
				<extensions>
				</extensions>
			</trkpt>
			<trkpt lat="-27.931537" lon="152.598369">
				<ele>87</ele>
				<time>2015-05-07T05:54:24Z</time>
				<extensions>
				</extensions>
			</trkpt>
			<trkpt lat="-27.931617" lon="152.598599">
				<ele>87</ele>
				<time>2015-05-07T05:54:25Z</time>
				<extensions>
				</extensions>
			</trkpt>
			<trkpt lat="-27.931712" lon="152.598820">
				<ele>87</ele>
				<time>2015-05-07T05:54:26Z</time>
				<extensions>
				</extensions>
			</trkpt>
			<trkpt lat="-27.931798" lon="152.599041">
				<ele>85</ele>
				<time>2015-05-07T05:54:27Z</time>
				<extensions>
				</extensions>
			</trkpt>
			<trkpt lat="-27.931882" lon="152.599255">
				<ele>84</ele>
				<time>2015-05-07T05:54:28Z</time>
				<extensions>
				</extensions>
			</trkpt>
			<trkpt lat="-27.931970" lon="152.599461">
				<ele>84</ele>
				<time>2015-05-07T05:54:29Z</time>
				<extensions>
				</extensions>
			</trkpt>
			<trkpt lat="-27.932053" lon="152.599662">
				<ele>83</ele>
				<time>2015-05-07T05:54:30Z</time>
				<extensions>
				</extensions>
			</trkpt>
			<trkpt lat="-27.932137" lon="152.599862">
				<ele>83</ele>
				<time>2015-05-07T05:54:31Z</time>
				<extensions>
				</extensions>
			</trkpt>
			<trkpt lat="-27.932226" lon="152.600068">
				<ele>82</ele>
				<time>2015-05-07T05:54:32Z</time>
				<extensions>
				</extensions>
			</trkpt>
			<trkpt lat="-27.932310" lon="152.600284">
				<ele>83</ele>
				<time>2015-05-07T05:54:33Z</time>
				<extensions>
				</extensions>
			</trkpt>
			<trkpt lat="-27.932400" lon="152.600494">
				<ele>82</ele>
				<time>2015-05-07T05:54:34Z</time>
				<extensions>
				</extensions>
			</trkpt>
			<trkpt lat="-27.932487" lon="152.600706">
				<ele>85</ele>
				<time>2015-05-07T05:54:35Z</time>
				<extensions>
				</extensions>
			</trkpt>
			<trkpt lat="-27.932589" lon="152.600939">
				<ele>87</ele>
				<time>2015-05-07T05:54:36Z</time>
				<extensions>
				</extensions>
			</trkpt>
			<trkpt lat="-27.932683" lon="152.601166">
				<ele>87</ele>
				<time>2015-05-07T05:54:37Z</time>
				<extensions>
				</extensions>
			</trkpt>
			<trkpt lat="-27.932757" lon="152.601394">
				<ele>86</ele>
				<time>2015-05-07T05:54:38Z</time>
				<extensions>
				</extensions>
			</trkpt>
			<trkpt lat="-27.932829" lon="152.601599">
				<ele>85</ele>
				<time>2015-05-07T05:54:39Z</time>
				<extensions>
				</extensions>
			</trkpt>
			<trkpt lat="-27.932897" lon="152.601817">
				<ele>84</ele>
				<time>2015-05-07T05:54:40Z</time>
				<extensions>
				</extensions>
			</trkpt>
			<trkpt lat="-27.932957" lon="152.602030">
				<ele>84</ele>
				<time>2015-05-07T05:54:41Z</time>
				<extensions>
				</extensions>
			</trkpt>
			<trkpt lat="-27.933015" lon="152.602263">
				<ele>84</ele>
				<time>2015-05-07T05:54:42Z</time>
				<extensions>
				</extensions>
			</trkpt>
			<trkpt lat="-27.933060" lon="152.602490">
				<ele>84</ele>
				<time>2015-05-07T05:54:43Z</time>
				<extensions>
				</extensions>
			</trkpt>
			<trkpt lat="-27.933100" lon="152.602720">
				<ele>84</ele>
				<time>2015-05-07T05:54:44Z</time>
				<extensions>
				</extensions>
			</trkpt>
			<trkpt lat="-27.933137" lon="152.602958">
				<ele>83</ele>
				<time>2015-05-07T05:54:45Z</time>
				<extensions>
				</extensions>
			</trkpt>
			<trkpt lat="-27.933166" lon="152.603174">
				<ele>83</ele>
				<time>2015-05-07T05:54:46Z</time>
				<extensions>
				</extensions>
			</trkpt>
			<trkpt lat="-27.933196" lon="152.603390">
				<ele>82</ele>
				<time>2015-05-07T05:54:47Z</time>
				<extensions>
				</extensions>
			</trkpt>
			<trkpt lat="-27.933226" lon="152.603603">
				<ele>82</ele>
				<time>2015-05-07T05:54:48Z</time>
				<extensions>
				</extensions>
			</trkpt>
			<trkpt lat="-27.933254" lon="152.603806">
				<ele>82</ele>
				<time>2015-05-07T05:54:49Z</time>
				<extensions>
				</extensions>
			</trkpt>
			<trkpt lat="-27.933290" lon="152.604207">
				<ele>80</ele>
				<time>2015-05-07T05:54:51Z</time>
				<extensions>
				</extensions>
			</trkpt>
			<trkpt lat="-27.933344" lon="152.604557">
				<ele>81</ele>
				<time>2015-05-07T05:54:53Z</time>
				<extensions>
				</extensions>
			</trkpt>
			<trkpt lat="-27.933263" lon="152.604862">
				<ele>81</ele>
				<time>2015-05-07T05:54:54Z</time>
				<extensions>
				</extensions>
			</trkpt>
			<trkpt lat="-27.933125" lon="152.605011">
				<ele>81</ele>
				<time>2015-05-07T05:54:55Z</time>
				<extensions>
				</extensions>
			</trkpt>
			<trkpt lat="-27.932985" lon="152.605154">
				<ele>82</ele>
				<time>2015-05-07T05:54:56Z</time>
				<extensions>
				</extensions>
			</trkpt>
			<trkpt lat="-27.932823" lon="152.605317">
				<ele>82</ele>
				<time>2015-05-07T05:54:57Z</time>
				<extensions>
				</extensions>
			</trkpt>
			<trkpt lat="-27.932674" lon="152.605464">
				<ele>83</ele>
				<time>2015-05-07T05:54:58Z</time>
				<extensions>
				</extensions>
			</trkpt>
			<trkpt lat="-27.932503" lon="152.605598">
				<ele>84</ele>
				<time>2015-05-07T05:54:59Z</time>
				<extensions>
				</extensions>
			</trkpt>
			<trkpt lat="-27.932333" lon="152.605735">
				<ele>86</ele>
				<time>2015-05-07T05:55:00Z</time>
				<extensions>
				</extensions>
			</trkpt>
			<trkpt lat="-27.932161" lon="152.605871">
				<ele>86</ele>
				<time>2015-05-07T05:55:01Z</time>
				<extensions>
				</extensions>
			</trkpt>
			<trkpt lat="-27.931992" lon="152.606000">
				<ele>84</ele>
				<time>2015-05-07T05:55:02Z</time>
				<extensions>
				</extensions>
			</trkpt>
			<trkpt lat="-27.931841" lon="152.606121">
				<ele>83</ele>
				<time>2015-05-07T05:55:03Z</time>
				<extensions>
				</extensions>
			</trkpt>
			<trkpt lat="-27.931697" lon="152.606249">
				<ele>81</ele>
				<time>2015-05-07T05:55:04Z</time>
				<extensions>
				</extensions>
			</trkpt>
			<trkpt lat="-27.931426" lon="152.606496">
				<ele>79</ele>
				<time>2015-05-07T05:55:06Z</time>
				<extensions>
				</extensions>
			</trkpt>
			<trkpt lat="-27.931170" lon="152.606714">
				<ele>79</ele>
				<time>2015-05-07T05:55:08Z</time>
				<extensions>
				</extensions>
			</trkpt>
			<trkpt lat="-27.931036" lon="152.607062">
				<ele>79</ele>
				<time>2015-05-07T05:55:09Z</time>
				<extensions>
				</extensions>
			</trkpt>
			<trkpt lat="-27.931086" lon="152.607471">
				<ele>78</ele>
				<time>2015-05-07T05:55:11Z</time>
				<extensions>
				</extensions>
			</trkpt>
			<trkpt lat="-27.931116" lon="152.607679">
				<ele>79</ele>
				<time>2015-05-07T05:55:12Z</time>
				<extensions>
				</extensions>
			</trkpt>
			<trkpt lat="-27.931139" lon="152.607927">
				<ele>80</ele>
				<time>2015-05-07T05:55:13Z</time>
				<extensions>
				</extensions>
			</trkpt>
			<trkpt lat="-27.931175" lon="152.608176">
				<ele>83</ele>
				<time>2015-05-07T05:55:14Z</time>
				<extensions>
				</extensions>
			</trkpt>
			<trkpt lat="-27.931220" lon="152.608441">
				<ele>85</ele>
				<time>2015-05-07T05:55:15Z</time>
				<extensions>
				</extensions>
			</trkpt>
			<trkpt lat="-27.931259" lon="152.608717">
				<ele>87</ele>
				<time>2015-05-07T05:55:16Z</time>
				<extensions>
				</extensions>
			</trkpt>
			<trkpt lat="-27.931302" lon="152.609009">
				<ele>89</ele>
				<time>2015-05-07T05:55:17Z</time>
				<extensions>
				</extensions>
			</trkpt>
			<trkpt lat="-27.931344" lon="152.609288">
				<ele>90</ele>
				<time>2015-05-07T05:55:18Z</time>
				<extensions>
				</extensions>
			</trkpt>
			<trkpt lat="-27.931387" lon="152.609575">
				<ele>89</ele>
				<time>2015-05-07T05:55:19Z</time>
				<extensions>
				</extensions>
			</trkpt>
			<trkpt lat="-27.931434" lon="152.609857">
				<ele>89</ele>
				<time>2015-05-07T05:55:20Z</time>
				<extensions>
				</extensions>
			</trkpt>
			<trkpt lat="-27.931476" lon="152.610144">
				<ele>90</ele>
				<time>2015-05-07T05:55:21Z</time>
				<extensions>
				</extensions>
			</trkpt>
			<trkpt lat="-27.931515" lon="152.610428">
				<ele>90</ele>
				<time>2015-05-07T05:55:22Z</time>
				<extensions>
				</extensions>
			</trkpt>
			<trkpt lat="-27.931561" lon="152.610723">
				<ele>89</ele>
				<time>2015-05-07T05:55:23Z</time>
				<extensions>
				</extensions>
			</trkpt>
			<trkpt lat="-27.931604" lon="152.611008">
				<ele>89</ele>
				<time>2015-05-07T05:55:24Z</time>
				<extensions>
				</extensions>
			</trkpt>
			<trkpt lat="-27.931648" lon="152.611291">
				<ele>88</ele>
				<time>2015-05-07T05:55:25Z</time>
				<extensions>
				</extensions>
			</trkpt>
			<trkpt lat="-27.931694" lon="152.611580">
				<ele>88</ele>
				<time>2015-05-07T05:55:26Z</time>
				<extensions>
				</extensions>
			</trkpt>
			<trkpt lat="-27.931730" lon="152.611863">
				<ele>89</ele>
				<time>2015-05-07T05:55:27Z</time>
				<extensions>
				</extensions>
			</trkpt>
			<trkpt lat="-27.931769" lon="152.612148">
				<ele>88</ele>
				<time>2015-05-07T05:55:28Z</time>
				<extensions>
				</extensions>
			</trkpt>
			<trkpt lat="-27.931805" lon="152.612436">
				<ele>88</ele>
				<time>2015-05-07T05:55:29Z</time>
				<extensions>
				</extensions>
			</trkpt>
			<trkpt lat="-27.931842" lon="152.612719">
				<ele>87</ele>
				<time>2015-05-07T05:55:30Z</time>
				<extensions>
				</extensions>
			</trkpt>
			<trkpt lat="-27.931882" lon="152.613002">
				<ele>88</ele>
				<time>2015-05-07T05:55:31Z</time>
				<extensions>
				</extensions>
			</trkpt>
			<trkpt lat="-27.931927" lon="152.613266">
				<ele>86</ele>
				<time>2015-05-07T05:55:32Z</time>
				<extensions>
				</extensions>
			</trkpt>
			<trkpt lat="-27.931970" lon="152.613547">
				<ele>86</ele>
				<time>2015-05-07T05:55:33Z</time>
				<extensions>
				</extensions>
			</trkpt>
			<trkpt lat="-27.932010" lon="152.613823">
				<ele>87</ele>
				<time>2015-05-07T05:55:34Z</time>
				<extensions>
				</extensions>
			</trkpt>
			<trkpt lat="-27.932047" lon="152.614095">
				<ele>86</ele>
				<time>2015-05-07T05:55:35Z</time>
				<extensions>
				</extensions>
			</trkpt>
			<trkpt lat="-27.932087" lon="152.614361">
				<ele>86</ele>
				<time>2015-05-07T05:55:36Z</time>
				<extensions>
				</extensions>
			</trkpt>
			<trkpt lat="-27.932128" lon="152.614639">
				<ele>85</ele>
				<time>2015-05-07T05:55:37Z</time>
				<extensions>
				</extensions>
			</trkpt>
			<trkpt lat="-27.932169" lon="152.614906">
				<ele>84</ele>
				<time>2015-05-07T05:55:38Z</time>
				<extensions>
				</extensions>
			</trkpt>
			<trkpt lat="-27.932210" lon="152.615171">
				<ele>82</ele>
				<time>2015-05-07T05:55:39Z</time>
				<extensions>
				</extensions>
			</trkpt>
			<trkpt lat="-27.932247" lon="152.615428">
				<ele>83</ele>
				<time>2015-05-07T05:55:40Z</time>
				<extensions>
				</extensions>
			</trkpt>
			<trkpt lat="-27.932295" lon="152.615690">
				<ele>84</ele>
				<time>2015-05-07T05:55:41Z</time>
				<extensions>
				</extensions>
			</trkpt>
			<trkpt lat="-27.932332" lon="152.615943">
				<ele>83</ele>
				<time>2015-05-07T05:55:42Z</time>
				<extensions>
				</extensions>
			</trkpt>
			<trkpt lat="-27.932369" lon="152.616195">
				<ele>82</ele>
				<time>2015-05-07T05:55:43Z</time>
				<extensions>
				</extensions>
			</trkpt>
			<trkpt lat="-27.932408" lon="152.616443">
				<ele>83</ele>
				<time>2015-05-07T05:55:44Z</time>
				<extensions>
				</extensions>
			</trkpt>
			<trkpt lat="-27.932447" lon="152.616705">
				<ele>84</ele>
				<time>2015-05-07T05:55:45Z</time>
				<extensions>
				</extensions>
			</trkpt>
			<trkpt lat="-27.932481" lon="152.616966">
				<ele>84</ele>
				<time>2015-05-07T05:55:46Z</time>
				<extensions>
				</extensions>
			</trkpt>
			<trkpt lat="-27.932521" lon="152.617230">
				<ele>84</ele>
				<time>2015-05-07T05:55:47Z</time>
				<extensions>
				</extensions>
			</trkpt>
			<trkpt lat="-27.932562" lon="152.617494">
				<ele>85</ele>
				<time>2015-05-07T05:55:48Z</time>
				<extensions>
				</extensions>
			</trkpt>
			<trkpt lat="-27.932603" lon="152.617774">
				<ele>87</ele>
				<time>2015-05-07T05:55:49Z</time>
				<extensions>
				</extensions>
			</trkpt>
			<trkpt lat="-27.932649" lon="152.618054">
				<ele>86</ele>
				<time>2015-05-07T05:55:50Z</time>
				<extensions>
				</extensions>
			</trkpt>
			<trkpt lat="-27.932687" lon="152.618340">
				<ele>87</ele>
				<time>2015-05-07T05:55:51Z</time>
				<extensions>
				</extensions>
			</trkpt>
			<trkpt lat="-27.932724" lon="152.618626">
				<ele>86</ele>
				<time>2015-05-07T05:55:52Z</time>
				<extensions>
				</extensions>
			</trkpt>
			<trkpt lat="-27.932768" lon="152.618908">
				<ele>86</ele>
				<time>2015-05-07T05:55:53Z</time>
				<extensions>
				</extensions>
			</trkpt>
			<trkpt lat="-27.932807" lon="152.619179">
				<ele>87</ele>
				<time>2015-05-07T05:55:54Z</time>
				<extensions>
				</extensions>
			</trkpt>
			<trkpt lat="-27.932845" lon="152.619453">
				<ele>86</ele>
				<time>2015-05-07T05:55:55Z</time>
				<extensions>
				</extensions>
			</trkpt>
			<trkpt lat="-27.932888" lon="152.619723">
				<ele>86</ele>
				<time>2015-05-07T05:55:56Z</time>
				<extensions>
				</extensions>
			</trkpt>
			<trkpt lat="-27.932930" lon="152.619992">
				<ele>85</ele>
				<time>2015-05-07T05:55:57Z</time>
				<extensions>
				</extensions>
			</trkpt>
			<trkpt lat="-27.932974" lon="152.620254">
				<ele>85</ele>
				<time>2015-05-07T05:55:58Z</time>
				<extensions>
				</extensions>
			</trkpt>
			<trkpt lat="-27.933011" lon="152.620507">
				<ele>85</ele>
				<time>2015-05-07T05:55:59Z</time>
				<extensions>
				</extensions>
			</trkpt>
			<trkpt lat="-27.933049" lon="152.620743">
				<ele>84</ele>
				<time>2015-05-07T05:56:00Z</time>
				<extensions>
				</extensions>
			</trkpt>
			<trkpt lat="-27.933082" lon="152.620973">
				<ele>83</ele>
				<time>2015-05-07T05:56:01Z</time>
				<extensions>
				</extensions>
			</trkpt>
			<trkpt lat="-27.933130" lon="152.621200">
				<ele>81</ele>
				<time>2015-05-07T05:56:02Z</time>
				<extensions>
				</extensions>
			</trkpt>
			<trkpt lat="-27.933152" lon="152.621435">
				<ele>81</ele>
				<time>2015-05-07T05:56:03Z</time>
				<extensions>
				</extensions>
			</trkpt>
			<trkpt lat="-27.933192" lon="152.621665">
				<ele>82</ele>
				<time>2015-05-07T05:56:04Z</time>
				<extensions>
				</extensions>
			</trkpt>
			<trkpt lat="-27.933211" lon="152.621903">
				<ele>81</ele>
				<time>2015-05-07T05:56:05Z</time>
				<extensions>
				</extensions>
			</trkpt>
			<trkpt lat="-27.933234" lon="152.622124">
				<ele>81</ele>
				<time>2015-05-07T05:56:06Z</time>
				<extensions>
				</extensions>
			</trkpt>
			<trkpt lat="-27.933268" lon="152.622346">
				<ele>82</ele>
				<time>2015-05-07T05:56:07Z</time>
				<extensions>
				</extensions>
			</trkpt>
			<trkpt lat="-27.933304" lon="152.622566">
				<ele>81</ele>
				<time>2015-05-07T05:56:08Z</time>
				<extensions>
				</extensions>
			</trkpt>
			<trkpt lat="-27.933335" lon="152.622767">
				<ele>80</ele>
				<time>2015-05-07T05:56:09Z</time>
				<extensions>
				</extensions>
			</trkpt>
			<trkpt lat="-27.933364" lon="152.622973">
				<ele>80</ele>
				<time>2015-05-07T05:56:10Z</time>
				<extensions>
				</extensions>
			</trkpt>
			<trkpt lat="-27.933429" lon="152.623356">
				<ele>78</ele>
				<time>2015-05-07T05:56:12Z</time>
				<extensions>
				</extensions>
			</trkpt>
			<trkpt lat="-27.933477" lon="152.623695">
				<ele>76</ele>
				<time>2015-05-07T05:56:14Z</time>
				<extensions>
				</extensions>
			</trkpt>
			<trkpt lat="-27.933491" lon="152.623965">
				<ele>73</ele>
				<time>2015-05-07T05:56:16Z</time>
				<extensions>
				</extensions>
			</trkpt>
			<trkpt lat="-27.933535" lon="152.624208">
				<ele>71</ele>
				<time>2015-05-07T05:56:18Z</time>
				<extensions>
				</extensions>
			</trkpt>
			<trkpt lat="-27.933570" lon="152.624420">
				<ele>70</ele>
				<time>2015-05-07T05:56:20Z</time>
				<extensions>
				</extensions>
			</trkpt>
			<trkpt lat="-27.933599" lon="152.624635">
				<ele>68</ele>
				<time>2015-05-07T05:56:24Z</time>
				<extensions>
				</extensions>
			</trkpt>
			<trkpt lat="-27.933775" lon="152.624768">
				<ele>69</ele>
				<time>2015-05-07T05:56:41Z</time>
				<extensions>
				</extensions>
			</trkpt>
			<trkpt lat="-27.934024" lon="152.624725">
				<ele>72</ele>
				<time>2015-05-07T05:56:43Z</time>
				<extensions>
				</extensions>
			</trkpt>
			<trkpt lat="-27.934285" lon="152.624674">
				<ele>73</ele>
				<time>2015-05-07T05:56:45Z</time>
				<extensions>
				</extensions>
			</trkpt>
			<trkpt lat="-27.934469" lon="152.624639">
				<ele>76</ele>
				<time>2015-05-07T05:56:46Z</time>
				<extensions>
				</extensions>
			</trkpt>
			<trkpt lat="-27.934657" lon="152.624606">
				<ele>78</ele>
				<time>2015-05-07T05:56:47Z</time>
				<extensions>
				</extensions>
			</trkpt>
			<trkpt lat="-27.934839" lon="152.624572">
				<ele>77</ele>
				<time>2015-05-07T05:56:48Z</time>
				<extensions>
				</extensions>
			</trkpt>
			<trkpt lat="-27.935182" lon="152.624504">
				<ele>75</ele>
				<time>2015-05-07T05:56:50Z</time>
				<extensions>
				</extensions>
			</trkpt>
			<trkpt lat="-27.935499" lon="152.624455">
				<ele>74</ele>
				<time>2015-05-07T05:56:52Z</time>
				<extensions>
				</extensions>
			</trkpt>
			<trkpt lat="-27.935815" lon="152.624404">
				<ele>75</ele>
				<time>2015-05-07T05:56:54Z</time>
				<extensions>
				</extensions>
			</trkpt>
			<trkpt lat="-27.936117" lon="152.624353">
				<ele>74</ele>
				<time>2015-05-07T05:56:56Z</time>
				<extensions>
				</extensions>
			</trkpt>
			<trkpt lat="-27.936410" lon="152.624307">
				<ele>74</ele>
				<time>2015-05-07T05:56:58Z</time>
				<extensions>
				</extensions>
			</trkpt>
			<trkpt lat="-27.936708" lon="152.624261">
				<ele>75</ele>
				<time>2015-05-07T05:57:00Z</time>
				<extensions>
				</extensions>
			</trkpt>
			<trkpt lat="-27.937011" lon="152.624215">
				<ele>77</ele>
				<time>2015-05-07T05:57:02Z</time>
				<extensions>
				</extensions>
			</trkpt>
			<trkpt lat="-27.937325" lon="152.624169">
				<ele>75</ele>
				<time>2015-05-07T05:57:04Z</time>
				<extensions>
				</extensions>
			</trkpt>
			<trkpt lat="-27.937609" lon="152.624119">
				<ele>74</ele>
				<time>2015-05-07T05:57:06Z</time>
				<extensions>
				</extensions>
			</trkpt>
			<trkpt lat="-27.937818" lon="152.624082">
				<ele>75</ele>
				<time>2015-05-07T05:57:08Z</time>
				<extensions>
				</extensions>
			</trkpt>
			<trkpt lat="-27.938042" lon="152.624051">
				<ele>77</ele>
				<time>2015-05-07T05:57:10Z</time>
				<extensions>
				</extensions>
			</trkpt>
			<trkpt lat="-27.938289" lon="152.624021">
				<ele>75</ele>
				<time>2015-05-07T05:57:13Z</time>
				<extensions>
				</extensions>
			</trkpt>
			<trkpt lat="-27.938416" lon="152.624261">
				<ele>77</ele>
				<time>2015-05-07T05:57:17Z</time>
				<extensions>
				</extensions>
			</trkpt>
			<trkpt lat="-27.938456" lon="152.624510">
				<ele>79</ele>
				<time>2015-05-07T05:57:19Z</time>
				<extensions>
				</extensions>
			</trkpt>
			<trkpt lat="-27.938503" lon="152.624806">
				<ele>80</ele>
				<time>2015-05-07T05:57:21Z</time>
				<extensions>
				</extensions>
			</trkpt>
			<trkpt lat="-27.938558" lon="152.625157">
				<ele>81</ele>
				<time>2015-05-07T05:57:23Z</time>
				<extensions>
				</extensions>
			</trkpt>
			<trkpt lat="-27.938613" lon="152.625501">
				<ele>82</ele>
				<time>2015-05-07T05:57:25Z</time>
				<extensions>
				</extensions>
			</trkpt>
			<trkpt lat="-27.938634" lon="152.625834">
				<ele>80</ele>
				<time>2015-05-07T05:57:27Z</time>
				<extensions>
				</extensions>
			</trkpt>
			<trkpt lat="-27.938674" lon="152.626165">
				<ele>79</ele>
				<time>2015-05-07T05:57:29Z</time>
				<extensions>
				</extensions>
			</trkpt>
			<trkpt lat="-27.938722" lon="152.626373">
				<ele>79</ele>
				<time>2015-05-07T05:57:30Z</time>
				<extensions>
				</extensions>
			</trkpt>
			<trkpt lat="-27.938767" lon="152.626747">
				<ele>80</ele>
				<time>2015-05-07T05:57:32Z</time>
				<extensions>
				</extensions>
			</trkpt>
			<trkpt lat="-27.938808" lon="152.627074">
				<ele>79</ele>
				<time>2015-05-07T05:57:34Z</time>
				<extensions>
				</extensions>
			</trkpt>
			<trkpt lat="-27.938855" lon="152.627421">
				<ele>80</ele>
				<time>2015-05-07T05:57:36Z</time>
				<extensions>
				</extensions>
			</trkpt>
			<trkpt lat="-27.938909" lon="152.627743">
				<ele>80</ele>
				<time>2015-05-07T05:57:38Z</time>
				<extensions>
				</extensions>
			</trkpt>
			<trkpt lat="-27.938965" lon="152.628100">
				<ele>80</ele>
				<time>2015-05-07T05:57:40Z</time>
				<extensions>
				</extensions>
			</trkpt>
			<trkpt lat="-27.939022" lon="152.628481">
				<ele>80</ele>
				<time>2015-05-07T05:57:42Z</time>
				<extensions>
				</extensions>
			</trkpt>
			<trkpt lat="-27.939075" lon="152.628842">
				<ele>80</ele>
				<time>2015-05-07T05:57:44Z</time>
				<extensions>
				</extensions>
			</trkpt>
			<trkpt lat="-27.939114" lon="152.629174">
				<ele>80</ele>
				<time>2015-05-07T05:57:46Z</time>
				<extensions>
				</extensions>
			</trkpt>
			<trkpt lat="-27.939155" lon="152.629513">
				<ele>80</ele>
				<time>2015-05-07T05:57:48Z</time>
				<extensions>
				</extensions>
			</trkpt>
			<trkpt lat="-27.939215" lon="152.629873">
				<ele>81</ele>
				<time>2015-05-07T05:57:50Z</time>
				<extensions>
				</extensions>
			</trkpt>
			<trkpt lat="-27.939262" lon="152.630221">
				<ele>82</ele>
				<time>2015-05-07T05:57:52Z</time>
				<extensions>
				</extensions>
			</trkpt>
			<trkpt lat="-27.939321" lon="152.630569">
				<ele>82</ele>
				<time>2015-05-07T05:57:54Z</time>
				<extensions>
				</extensions>
			</trkpt>
			<trkpt lat="-27.939371" lon="152.630913">
				<ele>83</ele>
				<time>2015-05-07T05:57:56Z</time>
				<extensions>
				</extensions>
			</trkpt>
			<trkpt lat="-27.939390" lon="152.631268">
				<ele>84</ele>
				<time>2015-05-07T05:57:58Z</time>
				<extensions>
				</extensions>
			</trkpt>
			<trkpt lat="-27.939450" lon="152.631611">
				<ele>85</ele>
				<time>2015-05-07T05:58:00Z</time>
				<extensions>
				</extensions>
			</trkpt>
			<trkpt lat="-27.939491" lon="152.631978">
				<ele>85</ele>
				<time>2015-05-07T05:58:02Z</time>
				<extensions>
				</extensions>
			</trkpt>
			<trkpt lat="-27.939552" lon="152.632343">
				<ele>87</ele>
				<time>2015-05-07T05:58:04Z</time>
				<extensions>
				</extensions>
			</trkpt>
			<trkpt lat="-27.939601" lon="152.632705">
				<ele>90</ele>
				<time>2015-05-07T05:58:06Z</time>
				<extensions>
				</extensions>
			</trkpt>
			<trkpt lat="-27.939676" lon="152.633091">
				<ele>92</ele>
				<time>2015-05-07T05:58:08Z</time>
				<extensions>
				</extensions>
			</trkpt>
			<trkpt lat="-27.939722" lon="152.633461">
				<ele>94</ele>
				<time>2015-05-07T05:58:10Z</time>
				<extensions>
				</extensions>
			</trkpt>
			<trkpt lat="-27.939774" lon="152.633823">
				<ele>96</ele>
				<time>2015-05-07T05:58:12Z</time>
				<extensions>
				</extensions>
			</trkpt>
			<trkpt lat="-27.939824" lon="152.634168">
				<ele>98</ele>
				<time>2015-05-07T05:58:14Z</time>
				<extensions>
				</extensions>
			</trkpt>
			<trkpt lat="-27.939892" lon="152.634550">
				<ele>101</ele>
				<time>2015-05-07T05:58:16Z</time>
				<extensions>
				</extensions>
			</trkpt>
			<trkpt lat="-27.939946" lon="152.634935">
				<ele>103</ele>
				<time>2015-05-07T05:58:18Z</time>
				<extensions>
				</extensions>
			</trkpt>
			<trkpt lat="-27.939972" lon="152.635257">
				<ele>106</ele>
				<time>2015-05-07T05:58:20Z</time>
				<extensions>
				</extensions>
			</trkpt>
			<trkpt lat="-27.940013" lon="152.635611">
				<ele>108</ele>
				<time>2015-05-07T05:58:22Z</time>
				<extensions>
				</extensions>
			</trkpt>
			<trkpt lat="-27.940066" lon="152.635942">
				<ele>110</ele>
				<time>2015-05-07T05:58:24Z</time>
				<extensions>
				</extensions>
			</trkpt>
			<trkpt lat="-27.940134" lon="152.636292">
				<ele>110</ele>
				<time>2015-05-07T05:58:26Z</time>
				<extensions>
				</extensions>
			</trkpt>
			<trkpt lat="-27.940180" lon="152.636602">
				<ele>109</ele>
				<time>2015-05-07T05:58:28Z</time>
				<extensions>
				</extensions>
			</trkpt>
			<trkpt lat="-27.940219" lon="152.636946">
				<ele>111</ele>
				<time>2015-05-07T05:58:30Z</time>
				<extensions>
				</extensions>
			</trkpt>
			<trkpt lat="-27.940278" lon="152.637292">
				<ele>111</ele>
				<time>2015-05-07T05:58:32Z</time>
				<extensions>
				</extensions>
			</trkpt>
			<trkpt lat="-27.940341" lon="152.637666">
				<ele>112</ele>
				<time>2015-05-07T05:58:34Z</time>
				<extensions>
				</extensions>
			</trkpt>
			<trkpt lat="-27.940376" lon="152.637870">
				<ele>113</ele>
				<time>2015-05-07T05:58:35Z</time>
				<extensions>
				</extensions>
			</trkpt>
			<trkpt lat="-27.940408" lon="152.638078">
				<ele>114</ele>
				<time>2015-05-07T05:58:36Z</time>
				<extensions>
				</extensions>
			</trkpt>
			<trkpt lat="-27.940453" lon="152.638312">
				<ele>114</ele>
				<time>2015-05-07T05:58:37Z</time>
				<extensions>
				</extensions>
			</trkpt>
			<trkpt lat="-27.940475" lon="152.638535">
				<ele>114</ele>
				<time>2015-05-07T05:58:38Z</time>
				<extensions>
				</extensions>
			</trkpt>
			<trkpt lat="-27.940512" lon="152.638771">
				<ele>114</ele>
				<time>2015-05-07T05:58:39Z</time>
				<extensions>
				</extensions>
			</trkpt>
			<trkpt lat="-27.940545" lon="152.639018">
				<ele>114</ele>
				<time>2015-05-07T05:58:40Z</time>
				<extensions>
				</extensions>
			</trkpt>
			<trkpt lat="-27.940575" lon="152.639253">
				<ele>114</ele>
				<time>2015-05-07T05:58:41Z</time>
				<extensions>
				</extensions>
			</trkpt>
			<trkpt lat="-27.940598" lon="152.639500">
				<ele>113</ele>
				<time>2015-05-07T05:58:42Z</time>
				<extensions>
				</extensions>
			</trkpt>
			<trkpt lat="-27.940630" lon="152.639714">
				<ele>113</ele>
				<time>2015-05-07T05:58:43Z</time>
				<extensions>
				</extensions>
			</trkpt>
			<trkpt lat="-27.940657" lon="152.639943">
				<ele>113</ele>
				<time>2015-05-07T05:58:44Z</time>
				<extensions>
				</extensions>
			</trkpt>
			<trkpt lat="-27.940693" lon="152.640174">
				<ele>111</ele>
				<time>2015-05-07T05:58:45Z</time>
				<extensions>
				</extensions>
			</trkpt>
			<trkpt lat="-27.940732" lon="152.640405">
				<ele>112</ele>
				<time>2015-05-07T05:58:46Z</time>
				<extensions>
				</extensions>
			</trkpt>
			<trkpt lat="-27.940765" lon="152.640628">
				<ele>111</ele>
				<time>2015-05-07T05:58:47Z</time>
				<extensions>
				</extensions>
			</trkpt>
			<trkpt lat="-27.940806" lon="152.640874">
				<ele>110</ele>
				<time>2015-05-07T05:58:48Z</time>
				<extensions>
				</extensions>
			</trkpt>
			<trkpt lat="-27.940849" lon="152.641109">
				<ele>110</ele>
				<time>2015-05-07T05:58:49Z</time>
				<extensions>
				</extensions>
			</trkpt>
			<trkpt lat="-27.940887" lon="152.641348">
				<ele>109</ele>
				<time>2015-05-07T05:58:50Z</time>
				<extensions>
				</extensions>
			</trkpt>
			<trkpt lat="-27.940923" lon="152.641589">
				<ele>108</ele>
				<time>2015-05-07T05:58:51Z</time>
				<extensions>
				</extensions>
			</trkpt>
			<trkpt lat="-27.940953" lon="152.641843">
				<ele>107</ele>
				<time>2015-05-07T05:58:52Z</time>
				<extensions>
				</extensions>
			</trkpt>
			<trkpt lat="-27.940994" lon="152.642106">
				<ele>108</ele>
				<time>2015-05-07T05:58:53Z</time>
				<extensions>
				</extensions>
			</trkpt>
			<trkpt lat="-27.941031" lon="152.642377">
				<ele>109</ele>
				<time>2015-05-07T05:58:54Z</time>
				<extensions>
				</extensions>
			</trkpt>
			<trkpt lat="-27.941078" lon="152.642659">
				<ele>109</ele>
				<time>2015-05-07T05:58:55Z</time>
				<extensions>
				</extensions>
			</trkpt>
			<trkpt lat="-27.941123" lon="152.642940">
				<ele>110</ele>
				<time>2015-05-07T05:58:56Z</time>
				<extensions>
				</extensions>
			</trkpt>
			<trkpt lat="-27.941163" lon="152.643206">
				<ele>110</ele>
				<time>2015-05-07T05:58:57Z</time>
				<extensions>
				</extensions>
			</trkpt>
			<trkpt lat="-27.941206" lon="152.643485">
				<ele>108</ele>
				<time>2015-05-07T05:58:58Z</time>
				<extensions>
				</extensions>
			</trkpt>
			<trkpt lat="-27.941248" lon="152.643762">
				<ele>108</ele>
				<time>2015-05-07T05:58:59Z</time>
				<extensions>
				</extensions>
			</trkpt>
			<trkpt lat="-27.941298" lon="152.644040">
				<ele>108</ele>
				<time>2015-05-07T05:59:00Z</time>
				<extensions>
				</extensions>
			</trkpt>
			<trkpt lat="-27.941336" lon="152.644309">
				<ele>107</ele>
				<time>2015-05-07T05:59:01Z</time>
				<extensions>
				</extensions>
			</trkpt>
			<trkpt lat="-27.941374" lon="152.644578">
				<ele>108</ele>
				<time>2015-05-07T05:59:02Z</time>
				<extensions>
				</extensions>
			</trkpt>
			<trkpt lat="-27.941405" lon="152.644840">
				<ele>108</ele>
				<time>2015-05-07T05:59:03Z</time>
				<extensions>
				</extensions>
			</trkpt>
			<trkpt lat="-27.941453" lon="152.645123">
				<ele>107</ele>
				<time>2015-05-07T05:59:04Z</time>
				<extensions>
				</extensions>
			</trkpt>
			<trkpt lat="-27.941496" lon="152.645397">
				<ele>109</ele>
				<time>2015-05-07T05:59:05Z</time>
				<extensions>
				</extensions>
			</trkpt>
			<trkpt lat="-27.941538" lon="152.645677">
				<ele>110</ele>
				<time>2015-05-07T05:59:06Z</time>
				<extensions>
				</extensions>
			</trkpt>
			<trkpt lat="-27.941587" lon="152.645973">
				<ele>110</ele>
				<time>2015-05-07T05:59:07Z</time>
				<extensions>
				</extensions>
			</trkpt>
			<trkpt lat="-27.941629" lon="152.646282">
				<ele>112</ele>
				<time>2015-05-07T05:59:08Z</time>
				<extensions>
				</extensions>
			</trkpt>
			<trkpt lat="-27.941667" lon="152.646567">
				<ele>113</ele>
				<time>2015-05-07T05:59:09Z</time>
				<extensions>
				</extensions>
			</trkpt>
			<trkpt lat="-27.941696" lon="152.646839">
				<ele>113</ele>
				<time>2015-05-07T05:59:10Z</time>
				<extensions>
				</extensions>
			</trkpt>
			<trkpt lat="-27.941724" lon="152.647131">
				<ele>115</ele>
				<time>2015-05-07T05:59:11Z</time>
				<extensions>
				</extensions>
			</trkpt>
			<trkpt lat="-27.941781" lon="152.647396">
				<ele>117</ele>
				<time>2015-05-07T05:59:12Z</time>
				<extensions>
				</extensions>
			</trkpt>
			<trkpt lat="-27.941815" lon="152.647669">
				<ele>117</ele>
				<time>2015-05-07T05:59:13Z</time>
				<extensions>
				</extensions>
			</trkpt>
			<trkpt lat="-27.941846" lon="152.647925">
				<ele>118</ele>
				<time>2015-05-07T05:59:14Z</time>
				<extensions>
				</extensions>
			</trkpt>
			<trkpt lat="-27.941887" lon="152.648186">
				<ele>119</ele>
				<time>2015-05-07T05:59:15Z</time>
				<extensions>
				</extensions>
			</trkpt>
			<trkpt lat="-27.941934" lon="152.648438">
				<ele>123</ele>
				<time>2015-05-07T05:59:16Z</time>
				<extensions>
				</extensions>
			</trkpt>
			<trkpt lat="-27.941988" lon="152.648727">
				<ele>125</ele>
				<time>2015-05-07T05:59:17Z</time>
				<extensions>
				</extensions>
			</trkpt>
			<trkpt lat="-27.942028" lon="152.648975">
				<ele>125</ele>
				<time>2015-05-07T05:59:18Z</time>
				<extensions>
				</extensions>
			</trkpt>
			<trkpt lat="-27.942054" lon="152.649216">
				<ele>125</ele>
				<time>2015-05-07T05:59:19Z</time>
				<extensions>
				</extensions>
			</trkpt>
			<trkpt lat="-27.942095" lon="152.649459">
				<ele>126</ele>
				<time>2015-05-07T05:59:20Z</time>
				<extensions>
				</extensions>
			</trkpt>
			<trkpt lat="-27.942128" lon="152.649698">
				<ele>129</ele>
				<time>2015-05-07T05:59:21Z</time>
				<extensions>
				</extensions>
			</trkpt>
			<trkpt lat="-27.942171" lon="152.649943">
				<ele>131</ele>
				<time>2015-05-07T05:59:22Z</time>
				<extensions>
				</extensions>
			</trkpt>
			<trkpt lat="-27.942208" lon="152.650198">
				<ele>132</ele>
				<time>2015-05-07T05:59:23Z</time>
				<extensions>
				</extensions>
			</trkpt>
			<trkpt lat="-27.942247" lon="152.650451">
				<ele>133</ele>
				<time>2015-05-07T05:59:24Z</time>
				<extensions>
				</extensions>
			</trkpt>
			<trkpt lat="-27.942289" lon="152.650739">
				<ele>133</ele>
				<time>2015-05-07T05:59:25Z</time>
				<extensions>
				</extensions>
			</trkpt>
			<trkpt lat="-27.942330" lon="152.651020">
				<ele>132</ele>
				<time>2015-05-07T05:59:26Z</time>
				<extensions>
				</extensions>
			</trkpt>
			<trkpt lat="-27.942368" lon="152.651288">
				<ele>131</ele>
				<time>2015-05-07T05:59:27Z</time>
				<extensions>
				</extensions>
			</trkpt>
			<trkpt lat="-27.942408" lon="152.651556">
				<ele>129</ele>
				<time>2015-05-07T05:59:28Z</time>
				<extensions>
				</extensions>
			</trkpt>
			<trkpt lat="-27.942448" lon="152.651830">
				<ele>127</ele>
				<time>2015-05-07T05:59:29Z</time>
				<extensions>
				</extensions>
			</trkpt>
			<trkpt lat="-27.942487" lon="152.652096">
				<ele>126</ele>
				<time>2015-05-07T05:59:30Z</time>
				<extensions>
				</extensions>
			</trkpt>
			<trkpt lat="-27.942524" lon="152.652354">
				<ele>125</ele>
				<time>2015-05-07T05:59:31Z</time>
				<extensions>
				</extensions>
			</trkpt>
			<trkpt lat="-27.942567" lon="152.652647">
				<ele>125</ele>
				<time>2015-05-07T05:59:32Z</time>
				<extensions>
				</extensions>
			</trkpt>
			<trkpt lat="-27.942598" lon="152.652929">
				<ele>126</ele>
				<time>2015-05-07T05:59:33Z</time>
				<extensions>
				</extensions>
			</trkpt>
			<trkpt lat="-27.942636" lon="152.653224">
				<ele>126</ele>
				<time>2015-05-07T05:59:34Z</time>
				<extensions>
				</extensions>
			</trkpt>
			<trkpt lat="-27.942674" lon="152.653510">
				<ele>128</ele>
				<time>2015-05-07T05:59:35Z</time>
				<extensions>
				</extensions>
			</trkpt>
			<trkpt lat="-27.942706" lon="152.653754">
				<ele>130</ele>
				<time>2015-05-07T05:59:36Z</time>
				<extensions>
				</extensions>
			</trkpt>
			<trkpt lat="-27.942767" lon="152.654048">
				<ele>132</ele>
				<time>2015-05-07T05:59:37Z</time>
				<extensions>
				</extensions>
			</trkpt>
			<trkpt lat="-27.942810" lon="152.654320">
				<ele>133</ele>
				<time>2015-05-07T05:59:38Z</time>
				<extensions>
				</extensions>
			</trkpt>
			<trkpt lat="-27.942849" lon="152.654595">
				<ele>134</ele>
				<time>2015-05-07T05:59:39Z</time>
				<extensions>
				</extensions>
			</trkpt>
			<trkpt lat="-27.942885" lon="152.654878">
				<ele>134</ele>
				<time>2015-05-07T05:59:40Z</time>
				<extensions>
				</extensions>
			</trkpt>
			<trkpt lat="-27.942920" lon="152.655166">
				<ele>136</ele>
				<time>2015-05-07T05:59:41Z</time>
				<extensions>
				</extensions>
			</trkpt>
			<trkpt lat="-27.942957" lon="152.655458">
				<ele>137</ele>
				<time>2015-05-07T05:59:42Z</time>
				<extensions>
				</extensions>
			</trkpt>
			<trkpt lat="-27.942977" lon="152.655728">
				<ele>138</ele>
				<time>2015-05-07T05:59:43Z</time>
				<extensions>
				</extensions>
			</trkpt>
			<trkpt lat="-27.943022" lon="152.655995">
				<ele>138</ele>
				<time>2015-05-07T05:59:44Z</time>
				<extensions>
				</extensions>
			</trkpt>
			<trkpt lat="-27.943069" lon="152.656271">
				<ele>140</ele>
				<time>2015-05-07T05:59:45Z</time>
				<extensions>
				</extensions>
			</trkpt>
			<trkpt lat="-27.943104" lon="152.656546">
				<ele>141</ele>
				<time>2015-05-07T05:59:46Z</time>
				<extensions>
				</extensions>
			</trkpt>
			<trkpt lat="-27.943149" lon="152.656813">
				<ele>142</ele>
				<time>2015-05-07T05:59:47Z</time>
				<extensions>
				</extensions>
			</trkpt>
			<trkpt lat="-27.943189" lon="152.657080">
				<ele>142</ele>
				<time>2015-05-07T05:59:48Z</time>
				<extensions>
				</extensions>
			</trkpt>
			<trkpt lat="-27.943233" lon="152.657346">
				<ele>145</ele>
				<time>2015-05-07T05:59:49Z</time>
				<extensions>
				</extensions>
			</trkpt>
			<trkpt lat="-27.943270" lon="152.657599">
				<ele>148</ele>
				<time>2015-05-07T05:59:50Z</time>
				<extensions>
				</extensions>
			</trkpt>
			<trkpt lat="-27.943308" lon="152.657860">
				<ele>150</ele>
				<time>2015-05-07T05:59:51Z</time>
				<extensions>
				</extensions>
			</trkpt>
			<trkpt lat="-27.943352" lon="152.658108">
				<ele>150</ele>
				<time>2015-05-07T05:59:52Z</time>
				<extensions>
				</extensions>
			</trkpt>
			<trkpt lat="-27.943383" lon="152.658341">
				<ele>149</ele>
				<time>2015-05-07T05:59:53Z</time>
				<extensions>
				</extensions>
			</trkpt>
			<trkpt lat="-27.943425" lon="152.658585">
				<ele>148</ele>
				<time>2015-05-07T05:59:54Z</time>
				<extensions>
				</extensions>
			</trkpt>
			<trkpt lat="-27.943454" lon="152.658830">
				<ele>148</ele>
				<time>2015-05-07T05:59:55Z</time>
				<extensions>
				</extensions>
			</trkpt>
			<trkpt lat="-27.943495" lon="152.659069">
				<ele>149</ele>
				<time>2015-05-07T05:59:56Z</time>
				<extensions>
				</extensions>
			</trkpt>
			<trkpt lat="-27.943524" lon="152.659327">
				<ele>148</ele>
				<time>2015-05-07T05:59:57Z</time>
				<extensions>
				</extensions>
			</trkpt>
			<trkpt lat="-27.943570" lon="152.659583">
				<ele>146</ele>
				<time>2015-05-07T05:59:58Z</time>
				<extensions>
				</extensions>
			</trkpt>
			<trkpt lat="-27.943614" lon="152.659852">
				<ele>145</ele>
				<time>2015-05-07T05:59:59Z</time>
				<extensions>
				</extensions>
			</trkpt>
			<trkpt lat="-27.943657" lon="152.660111">
				<ele>145</ele>
				<time>2015-05-07T06:00:00Z</time>
				<extensions>
				</extensions>
			</trkpt>
			<trkpt lat="-27.943710" lon="152.660368">
				<ele>144</ele>
				<time>2015-05-07T06:00:01Z</time>
				<extensions>
				</extensions>
			</trkpt>
			<trkpt lat="-27.943771" lon="152.660619">
				<ele>142</ele>
				<time>2015-05-07T06:00:02Z</time>
				<extensions>
				</extensions>
			</trkpt>
			<trkpt lat="-27.943846" lon="152.660873">
				<ele>141</ele>
				<time>2015-05-07T06:00:03Z</time>
				<extensions>
				</extensions>
			</trkpt>
			<trkpt lat="-27.943912" lon="152.661123">
				<ele>139</ele>
				<time>2015-05-07T06:00:04Z</time>
				<extensions>
				</extensions>
			</trkpt>
			<trkpt lat="-27.943981" lon="152.661382">
				<ele>138</ele>
				<time>2015-05-07T06:00:05Z</time>
				<extensions>
				</extensions>
			</trkpt>
			<trkpt lat="-27.944037" lon="152.661593">
				<ele>137</ele>
				<time>2015-05-07T06:00:06Z</time>
				<extensions>
				</extensions>
			</trkpt>
			<trkpt lat="-27.944101" lon="152.661893">
				<ele>137</ele>
				<time>2015-05-07T06:00:07Z</time>
				<extensions>
				</extensions>
			</trkpt>
			<trkpt lat="-27.944157" lon="152.662150">
				<ele>135</ele>
				<time>2015-05-07T06:00:08Z</time>
				<extensions>
				</extensions>
			</trkpt>
			<trkpt lat="-27.944207" lon="152.662415">
				<ele>136</ele>
				<time>2015-05-07T06:00:09Z</time>
				<extensions>
				</extensions>
			</trkpt>
			<trkpt lat="-27.944248" lon="152.662686">
				<ele>137</ele>
				<time>2015-05-07T06:00:10Z</time>
				<extensions>
				</extensions>
			</trkpt>
			<trkpt lat="-27.944285" lon="152.662963">
				<ele>137</ele>
				<time>2015-05-07T06:00:11Z</time>
				<extensions>
				</extensions>
			</trkpt>
			<trkpt lat="-27.944328" lon="152.663243">
				<ele>137</ele>
				<time>2015-05-07T06:00:12Z</time>
				<extensions>
				</extensions>
			</trkpt>
			<trkpt lat="-27.944370" lon="152.663530">
				<ele>137</ele>
				<time>2015-05-07T06:00:13Z</time>
				<extensions>
				</extensions>
			</trkpt>
			<trkpt lat="-27.944411" lon="152.663808">
				<ele>136</ele>
				<time>2015-05-07T06:00:14Z</time>
				<extensions>
				</extensions>
			</trkpt>
			<trkpt lat="-27.944452" lon="152.664093">
				<ele>135</ele>
				<time>2015-05-07T06:00:15Z</time>
				<extensions>
				</extensions>
			</trkpt>
			<trkpt lat="-27.944479" lon="152.664374">
				<ele>134</ele>
				<time>2015-05-07T06:00:16Z</time>
				<extensions>
				</extensions>
			</trkpt>
			<trkpt lat="-27.944527" lon="152.664651">
				<ele>132</ele>
				<time>2015-05-07T06:00:17Z</time>
				<extensions>
				</extensions>
			</trkpt>
			<trkpt lat="-27.944564" lon="152.664931">
				<ele>132</ele>
				<time>2015-05-07T06:00:18Z</time>
				<extensions>
				</extensions>
			</trkpt>
			<trkpt lat="-27.944610" lon="152.665239">
				<ele>133</ele>
				<time>2015-05-07T06:00:19Z</time>
				<extensions>
				</extensions>
			</trkpt>
			<trkpt lat="-27.944657" lon="152.665539">
				<ele>134</ele>
				<time>2015-05-07T06:00:20Z</time>
				<extensions>
				</extensions>
			</trkpt>
			<trkpt lat="-27.944698" lon="152.665828">
				<ele>133</ele>
				<time>2015-05-07T06:00:21Z</time>
				<extensions>
				</extensions>
			</trkpt>
			<trkpt lat="-27.944724" lon="152.666105">
				<ele>134</ele>
				<time>2015-05-07T06:00:22Z</time>
				<extensions>
				</extensions>
			</trkpt>
			<trkpt lat="-27.944766" lon="152.666404">
				<ele>133</ele>
				<time>2015-05-07T06:00:23Z</time>
				<extensions>
				</extensions>
			</trkpt>
			<trkpt lat="-27.944804" lon="152.666689">
				<ele>133</ele>
				<time>2015-05-07T06:00:24Z</time>
				<extensions>
				</extensions>
			</trkpt>
			<trkpt lat="-27.944844" lon="152.666983">
				<ele>134</ele>
				<time>2015-05-07T06:00:25Z</time>
				<extensions>
				</extensions>
			</trkpt>
			<trkpt lat="-27.944891" lon="152.667274">
				<ele>134</ele>
				<time>2015-05-07T06:00:26Z</time>
				<extensions>
				</extensions>
			</trkpt>
			<trkpt lat="-27.944920" lon="152.667570">
				<ele>134</ele>
				<time>2015-05-07T06:00:27Z</time>
				<extensions>
				</extensions>
			</trkpt>
			<trkpt lat="-27.944957" lon="152.667848">
				<ele>135</ele>
				<time>2015-05-07T06:00:28Z</time>
				<extensions>
				</extensions>
			</trkpt>
			<trkpt lat="-27.944994" lon="152.668130">
				<ele>136</ele>
				<time>2015-05-07T06:00:29Z</time>
				<extensions>
				</extensions>
			</trkpt>
			<trkpt lat="-27.945038" lon="152.668428">
				<ele>136</ele>
				<time>2015-05-07T06:00:30Z</time>
				<extensions>
				</extensions>
			</trkpt>
			<trkpt lat="-27.945079" lon="152.668704">
				<ele>137</ele>
				<time>2015-05-07T06:00:31Z</time>
				<extensions>
				</extensions>
			</trkpt>
			<trkpt lat="-27.945115" lon="152.668990">
				<ele>137</ele>
				<time>2015-05-07T06:00:32Z</time>
				<extensions>
				</extensions>
			</trkpt>
			<trkpt lat="-27.945150" lon="152.669276">
				<ele>137</ele>
				<time>2015-05-07T06:00:33Z</time>
				<extensions>
				</extensions>
			</trkpt>
			<trkpt lat="-27.945187" lon="152.669549">
				<ele>137</ele>
				<time>2015-05-07T06:00:34Z</time>
				<extensions>
				</extensions>
			</trkpt>
			<trkpt lat="-27.945223" lon="152.669834">
				<ele>140</ele>
				<time>2015-05-07T06:00:35Z</time>
				<extensions>
				</extensions>
			</trkpt>
			<trkpt lat="-27.945266" lon="152.670114">
				<ele>139</ele>
				<time>2015-05-07T06:00:36Z</time>
				<extensions>
				</extensions>
			</trkpt>
			<trkpt lat="-27.945305" lon="152.670399">
				<ele>139</ele>
				<time>2015-05-07T06:00:37Z</time>
				<extensions>
				</extensions>
			</trkpt>
			<trkpt lat="-27.945345" lon="152.670682">
				<ele>139</ele>
				<time>2015-05-07T06:00:38Z</time>
				<extensions>
				</extensions>
			</trkpt>
			<trkpt lat="-27.945381" lon="152.670962">
				<ele>140</ele>
				<time>2015-05-07T06:00:39Z</time>
				<extensions>
				</extensions>
			</trkpt>
			<trkpt lat="-27.945421" lon="152.671241">
				<ele>140</ele>
				<time>2015-05-07T06:00:40Z</time>
				<extensions>
				</extensions>
			</trkpt>
			<trkpt lat="-27.945463" lon="152.671516">
				<ele>139</ele>
				<time>2015-05-07T06:00:41Z</time>
				<extensions>
				</extensions>
			</trkpt>
			<trkpt lat="-27.945499" lon="152.671792">
				<ele>139</ele>
				<time>2015-05-07T06:00:42Z</time>
				<extensions>
				</extensions>
			</trkpt>
			<trkpt lat="-27.945536" lon="152.672066">
				<ele>140</ele>
				<time>2015-05-07T06:00:43Z</time>
				<extensions>
				</extensions>
			</trkpt>
			<trkpt lat="-27.945575" lon="152.672334">
				<ele>140</ele>
				<time>2015-05-07T06:00:44Z</time>
				<extensions>
				</extensions>
			</trkpt>
			<trkpt lat="-27.945608" lon="152.672612">
				<ele>142</ele>
				<time>2015-05-07T06:00:45Z</time>
				<extensions>
				</extensions>
			</trkpt>
			<trkpt lat="-27.945639" lon="152.672888">
				<ele>145</ele>
				<time>2015-05-07T06:00:46Z</time>
				<extensions>
				</extensions>
			</trkpt>
			<trkpt lat="-27.945679" lon="152.673175">
				<ele>148</ele>
				<time>2015-05-07T06:00:47Z</time>
				<extensions>
				</extensions>
			</trkpt>
			<trkpt lat="-27.945723" lon="152.673452">
				<ele>151</ele>
				<time>2015-05-07T06:00:48Z</time>
				<extensions>
				</extensions>
			</trkpt>
			<trkpt lat="-27.945767" lon="152.673725">
				<ele>151</ele>
				<time>2015-05-07T06:00:49Z</time>
				<extensions>
				</extensions>
			</trkpt>
			<trkpt lat="-27.945797" lon="152.673993">
				<ele>154</ele>
				<time>2015-05-07T06:00:50Z</time>
				<extensions>
				</extensions>
			</trkpt>
			<trkpt lat="-27.945830" lon="152.674262">
				<ele>155</ele>
				<time>2015-05-07T06:00:51Z</time>
				<extensions>
				</extensions>
			</trkpt>
			<trkpt lat="-27.945866" lon="152.674544">
				<ele>159</ele>
				<time>2015-05-07T06:00:52Z</time>
				<extensions>
				</extensions>
			</trkpt>
			<trkpt lat="-27.945907" lon="152.674809">
				<ele>162</ele>
				<time>2015-05-07T06:00:53Z</time>
				<extensions>
				</extensions>
			</trkpt>
			<trkpt lat="-27.945939" lon="152.675082">
				<ele>167</ele>
				<time>2015-05-07T06:00:54Z</time>
				<extensions>
				</extensions>
			</trkpt>
			<trkpt lat="-27.945975" lon="152.675355">
				<ele>168</ele>
				<time>2015-05-07T06:00:55Z</time>
				<extensions>
				</extensions>
			</trkpt>
			<trkpt lat="-27.946015" lon="152.675610">
				<ele>171</ele>
				<time>2015-05-07T06:00:56Z</time>
				<extensions>
				</extensions>
			</trkpt>
			<trkpt lat="-27.946051" lon="152.675879">
				<ele>174</ele>
				<time>2015-05-07T06:00:57Z</time>
				<extensions>
				</extensions>
			</trkpt>
			<trkpt lat="-27.946084" lon="152.676120">
				<ele>174</ele>
				<time>2015-05-07T06:00:58Z</time>
				<extensions>
				</extensions>
			</trkpt>
			<trkpt lat="-27.946121" lon="152.676344">
				<ele>173</ele>
				<time>2015-05-07T06:00:59Z</time>
				<extensions>
				</extensions>
			</trkpt>
			<trkpt lat="-27.946171" lon="152.676737">
				<ele>174</ele>
				<time>2015-05-07T06:01:01Z</time>
				<extensions>
				</extensions>
			</trkpt>
			<trkpt lat="-27.946210" lon="152.676959">
				<ele>175</ele>
				<time>2015-05-07T06:01:02Z</time>
				<extensions>
				</extensions>
			</trkpt>
			<trkpt lat="-27.946242" lon="152.677173">
				<ele>177</ele>
				<time>2015-05-07T06:01:03Z</time>
				<extensions>
				</extensions>
			</trkpt>
			<trkpt lat="-27.946282" lon="152.677570">
				<ele>180</ele>
				<time>2015-05-07T06:01:05Z</time>
				<extensions>
				</extensions>
			</trkpt>
			<trkpt lat="-27.946310" lon="152.677797">
				<ele>180</ele>
				<time>2015-05-07T06:01:06Z</time>
				<extensions>
				</extensions>
			</trkpt>
			<trkpt lat="-27.946358" lon="152.677994">
				<ele>181</ele>
				<time>2015-05-07T06:01:07Z</time>
				<extensions>
				</extensions>
			</trkpt>
			<trkpt lat="-27.946412" lon="152.678233">
				<ele>179</ele>
				<time>2015-05-07T06:01:08Z</time>
				<extensions>
				</extensions>
			</trkpt>
			<trkpt lat="-27.946473" lon="152.678619">
				<ele>178</ele>
				<time>2015-05-07T06:01:10Z</time>
				<extensions>
				</extensions>
			</trkpt>
			<trkpt lat="-27.946509" lon="152.678860">
				<ele>179</ele>
				<time>2015-05-07T06:01:11Z</time>
				<extensions>
				</extensions>
			</trkpt>
			<trkpt lat="-27.946542" lon="152.679081">
				<ele>179</ele>
				<time>2015-05-07T06:01:12Z</time>
				<extensions>
				</extensions>
			</trkpt>
			<trkpt lat="-27.946568" lon="152.679303">
				<ele>179</ele>
				<time>2015-05-07T06:01:13Z</time>
				<extensions>
				</extensions>
			</trkpt>
			<trkpt lat="-27.946595" lon="152.679533">
				<ele>179</ele>
				<time>2015-05-07T06:01:14Z</time>
				<extensions>
				</extensions>
			</trkpt>
			<trkpt lat="-27.946627" lon="152.679764">
				<ele>180</ele>
				<time>2015-05-07T06:01:15Z</time>
				<extensions>
				</extensions>
			</trkpt>
			<trkpt lat="-27.946654" lon="152.679988">
				<ele>181</ele>
				<time>2015-05-07T06:01:16Z</time>
				<extensions>
				</extensions>
			</trkpt>
			<trkpt lat="-27.946696" lon="152.680190">
				<ele>180</ele>
				<time>2015-05-07T06:01:17Z</time>
				<extensions>
				</extensions>
			</trkpt>
			<trkpt lat="-27.946732" lon="152.680412">
				<ele>180</ele>
				<time>2015-05-07T06:01:18Z</time>
				<extensions>
				</extensions>
			</trkpt>
			<trkpt lat="-27.946749" lon="152.680630">
				<ele>179</ele>
				<time>2015-05-07T06:01:19Z</time>
				<extensions>
				</extensions>
			</trkpt>
			<trkpt lat="-27.946783" lon="152.680903">
				<ele>179</ele>
				<time>2015-05-07T06:01:20Z</time>
				<extensions>
				</extensions>
			</trkpt>
			<trkpt lat="-27.946818" lon="152.681128">
				<ele>180</ele>
				<time>2015-05-07T06:01:21Z</time>
				<extensions>
				</extensions>
			</trkpt>
			<trkpt lat="-27.946858" lon="152.681344">
				<ele>181</ele>
				<time>2015-05-07T06:01:22Z</time>
				<extensions>
				</extensions>
			</trkpt>
			<trkpt lat="-27.946900" lon="152.681562">
				<ele>183</ele>
				<time>2015-05-07T06:01:23Z</time>
				<extensions>
				</extensions>
			</trkpt>
			<trkpt lat="-27.946944" lon="152.681797">
				<ele>186</ele>
				<time>2015-05-07T06:01:24Z</time>
				<extensions>
				</extensions>
			</trkpt>
			<trkpt lat="-27.946986" lon="152.682017">
				<ele>189</ele>
				<time>2015-05-07T06:01:25Z</time>
				<extensions>
				</extensions>
			</trkpt>
			<trkpt lat="-27.947007" lon="152.682236">
				<ele>191</ele>
				<time>2015-05-07T06:01:26Z</time>
				<extensions>
				</extensions>
			</trkpt>
			<trkpt lat="-27.947030" lon="152.682455">
				<ele>191</ele>
				<time>2015-05-07T06:01:27Z</time>
				<extensions>
				</extensions>
			</trkpt>
			<trkpt lat="-27.947077" lon="152.682870">
				<ele>191</ele>
				<time>2015-05-07T06:01:29Z</time>
				<extensions>
				</extensions>
			</trkpt>
			<trkpt lat="-27.947115" lon="152.683289">
				<ele>189</ele>
				<time>2015-05-07T06:01:31Z</time>
				<extensions>
				</extensions>
			</trkpt>
			<trkpt lat="-27.947138" lon="152.683494">
				<ele>187</ele>
				<time>2015-05-07T06:01:32Z</time>
				<extensions>
				</extensions>
			</trkpt>
			<trkpt lat="-27.947169" lon="152.683713">
				<ele>185</ele>
				<time>2015-05-07T06:01:33Z</time>
				<extensions>
				</extensions>
			</trkpt>
			<trkpt lat="-27.947203" lon="152.683926">
				<ele>184</ele>
				<time>2015-05-07T06:01:34Z</time>
				<extensions>
				</extensions>
			</trkpt>
			<trkpt lat="-27.947234" lon="152.684137">
				<ele>181</ele>
				<time>2015-05-07T06:01:35Z</time>
				<extensions>
				</extensions>
			</trkpt>
			<trkpt lat="-27.947299" lon="152.684527">
				<ele>175</ele>
				<time>2015-05-07T06:01:37Z</time>
				<extensions>
				</extensions>
			</trkpt>
			<trkpt lat="-27.947425" lon="152.684849">
				<ele>171</ele>
				<time>2015-05-07T06:01:39Z</time>
				<extensions>
				</extensions>
			</trkpt>
			<trkpt lat="-27.947642" lon="152.685134">
				<ele>172</ele>
				<time>2015-05-07T06:01:41Z</time>
				<extensions>
				</extensions>
			</trkpt>
			<trkpt lat="-27.947927" lon="152.685341">
				<ele>173</ele>
				<time>2015-05-07T06:01:43Z</time>
				<extensions>
				</extensions>
			</trkpt>
			<trkpt lat="-27.948263" lon="152.685456">
				<ele>177</ele>
				<time>2015-05-07T06:01:45Z</time>
				<extensions>
				</extensions>
			</trkpt>
			<trkpt lat="-27.948612" lon="152.685445">
				<ele>181</ele>
				<time>2015-05-07T06:01:47Z</time>
				<extensions>
				</extensions>
			</trkpt>
			<trkpt lat="-27.948982" lon="152.685362">
				<ele>189</ele>
				<time>2015-05-07T06:01:49Z</time>
				<extensions>
				</extensions>
			</trkpt>
			<trkpt lat="-27.949169" lon="152.685328">
				<ele>192</ele>
				<time>2015-05-07T06:01:50Z</time>
				<extensions>
				</extensions>
			</trkpt>
			<trkpt lat="-27.949374" lon="152.685289">
				<ele>193</ele>
				<time>2015-05-07T06:01:51Z</time>
				<extensions>
				</extensions>
			</trkpt>
			<trkpt lat="-27.949564" lon="152.685258">
				<ele>194</ele>
				<time>2015-05-07T06:01:52Z</time>
				<extensions>
				</extensions>
			</trkpt>
			<trkpt lat="-27.949755" lon="152.685219">
				<ele>195</ele>
				<time>2015-05-07T06:01:53Z</time>
				<extensions>
				</extensions>
			</trkpt>
			<trkpt lat="-27.950105" lon="152.685159">
				<ele>198</ele>
				<time>2015-05-07T06:01:55Z</time>
				<extensions>
				</extensions>
			</trkpt>
			<trkpt lat="-27.950458" lon="152.685086">
				<ele>201</ele>
				<time>2015-05-07T06:01:57Z</time>
				<extensions>
				</extensions>
			</trkpt>
			<trkpt lat="-27.950640" lon="152.685051">
				<ele>203</ele>
				<time>2015-05-07T06:01:58Z</time>
				<extensions>
				</extensions>
			</trkpt>
			<trkpt lat="-27.950831" lon="152.685018">
				<ele>206</ele>
				<time>2015-05-07T06:01:59Z</time>
				<extensions>
				</extensions>
			</trkpt>
			<trkpt lat="-27.951028" lon="152.684983">
				<ele>207</ele>
				<time>2015-05-07T06:02:00Z</time>
				<extensions>
				</extensions>
			</trkpt>
			<trkpt lat="-27.951232" lon="152.684947">
				<ele>207</ele>
				<time>2015-05-07T06:02:01Z</time>
				<extensions>
				</extensions>
			</trkpt>
			<trkpt lat="-27.951425" lon="152.684911">
				<ele>207</ele>
				<time>2015-05-07T06:02:02Z</time>
				<extensions>
				</extensions>
			</trkpt>
			<trkpt lat="-27.951632" lon="152.684868">
				<ele>207</ele>
				<time>2015-05-07T06:02:03Z</time>
				<extensions>
				</extensions>
			</trkpt>
			<trkpt lat="-27.951845" lon="152.684825">
				<ele>206</ele>
				<time>2015-05-07T06:02:04Z</time>
				<extensions>
				</extensions>
			</trkpt>
			<trkpt lat="-27.952048" lon="152.684798">
				<ele>206</ele>
				<time>2015-05-07T06:02:05Z</time>
				<extensions>
				</extensions>
			</trkpt>
			<trkpt lat="-27.952240" lon="152.684760">
				<ele>205</ele>
				<time>2015-05-07T06:02:06Z</time>
				<extensions>
				</extensions>
			</trkpt>
			<trkpt lat="-27.952443" lon="152.684717">
				<ele>206</ele>
				<time>2015-05-07T06:02:07Z</time>
				<extensions>
				</extensions>
			</trkpt>
			<trkpt lat="-27.952646" lon="152.684677">
				<ele>204</ele>
				<time>2015-05-07T06:02:08Z</time>
				<extensions>
				</extensions>
			</trkpt>
			<trkpt lat="-27.952856" lon="152.684634">
				<ele>204</ele>
				<time>2015-05-07T06:02:09Z</time>
				<extensions>
				</extensions>
			</trkpt>
			<trkpt lat="-27.953062" lon="152.684604">
				<ele>204</ele>
				<time>2015-05-07T06:02:10Z</time>
				<extensions>
				</extensions>
			</trkpt>
			<trkpt lat="-27.953269" lon="152.684565">
				<ele>204</ele>
				<time>2015-05-07T06:02:11Z</time>
				<extensions>
				</extensions>
			</trkpt>
			<trkpt lat="-27.953467" lon="152.684525">
				<ele>204</ele>
				<time>2015-05-07T06:02:12Z</time>
				<extensions>
				</extensions>
			</trkpt>
			<trkpt lat="-27.953680" lon="152.684488">
				<ele>203</ele>
				<time>2015-05-07T06:02:13Z</time>
				<extensions>
				</extensions>
			</trkpt>
			<trkpt lat="-27.953874" lon="152.684454">
				<ele>203</ele>
				<time>2015-05-07T06:02:14Z</time>
				<extensions>
				</extensions>
			</trkpt>
			<trkpt lat="-27.954089" lon="152.684414">
				<ele>202</ele>
				<time>2015-05-07T06:02:15Z</time>
				<extensions>
				</extensions>
			</trkpt>
			<trkpt lat="-27.954293" lon="152.684371">
				<ele>202</ele>
				<time>2015-05-07T06:02:16Z</time>
				<extensions>
				</extensions>
			</trkpt>
			<trkpt lat="-27.954503" lon="152.684332">
				<ele>201</ele>
				<time>2015-05-07T06:02:17Z</time>
				<extensions>
				</extensions>
			</trkpt>
			<trkpt lat="-27.954708" lon="152.684296">
				<ele>201</ele>
				<time>2015-05-07T06:02:18Z</time>
				<extensions>
				</extensions>
			</trkpt>
			<trkpt lat="-27.954912" lon="152.684260">
				<ele>200</ele>
				<time>2015-05-07T06:02:19Z</time>
				<extensions>
				</extensions>
			</trkpt>
			<trkpt lat="-27.955109" lon="152.684202">
				<ele>200</ele>
				<time>2015-05-07T06:02:20Z</time>
				<extensions>
				</extensions>
			</trkpt>
			<trkpt lat="-27.955290" lon="152.684173">
				<ele>199</ele>
				<time>2015-05-07T06:02:21Z</time>
				<extensions>
				</extensions>
			</trkpt>
			<trkpt lat="-27.955477" lon="152.684147">
				<ele>198</ele>
				<time>2015-05-07T06:02:22Z</time>
				<extensions>
				</extensions>
			</trkpt>
			<trkpt lat="-27.955657" lon="152.684117">
				<ele>196</ele>
				<time>2015-05-07T06:02:23Z</time>
				<extensions>
				</extensions>
			</trkpt>
			<trkpt lat="-27.955974" lon="152.684079">
				<ele>191</ele>
				<time>2015-05-07T06:02:25Z</time>
				<extensions>
				</extensions>
			</trkpt>
			<trkpt lat="-27.956274" lon="152.684105">
				<ele>189</ele>
				<time>2015-05-07T06:02:27Z</time>
				<extensions>
				</extensions>
			</trkpt>
			<trkpt lat="-27.956579" lon="152.684220">
				<ele>188</ele>
				<time>2015-05-07T06:02:29Z</time>
				<extensions>
				</extensions>
			</trkpt>
			<trkpt lat="-27.956834" lon="152.684441">
				<ele>185</ele>
				<time>2015-05-07T06:02:31Z</time>
				<extensions>
				</extensions>
			</trkpt>
			<trkpt lat="-27.957032" lon="152.684779">
				<ele>183</ele>
				<time>2015-05-07T06:02:33Z</time>
				<extensions>
				</extensions>
			</trkpt>
			<trkpt lat="-27.957104" lon="152.684977">
				<ele>183</ele>
				<time>2015-05-07T06:02:34Z</time>
				<extensions>
				</extensions>
			</trkpt>
			<trkpt lat="-27.957156" lon="152.685187">
				<ele>184</ele>
				<time>2015-05-07T06:02:35Z</time>
				<extensions>
				</extensions>
			</trkpt>
			<trkpt lat="-27.957195" lon="152.685398">
				<ele>184</ele>
				<time>2015-05-07T06:02:36Z</time>
				<extensions>
				</extensions>
			</trkpt>
			<trkpt lat="-27.957232" lon="152.685624">
				<ele>185</ele>
				<time>2015-05-07T06:02:37Z</time>
				<extensions>
				</extensions>
			</trkpt>
			<trkpt lat="-27.957267" lon="152.685851">
				<ele>185</ele>
				<time>2015-05-07T06:02:38Z</time>
				<extensions>
				</extensions>
			</trkpt>
			<trkpt lat="-27.957304" lon="152.686091">
				<ele>184</ele>
				<time>2015-05-07T06:02:39Z</time>
				<extensions>
				</extensions>
			</trkpt>
			<trkpt lat="-27.957338" lon="152.686318">
				<ele>182</ele>
				<time>2015-05-07T06:02:40Z</time>
				<extensions>
				</extensions>
			</trkpt>
			<trkpt lat="-27.957372" lon="152.686545">
				<ele>180</ele>
				<time>2015-05-07T06:02:41Z</time>
				<extensions>
				</extensions>
			</trkpt>
			<trkpt lat="-27.957408" lon="152.686786">
				<ele>178</ele>
				<time>2015-05-07T06:02:42Z</time>
				<extensions>
				</extensions>
			</trkpt>
			<trkpt lat="-27.957442" lon="152.687015">
				<ele>177</ele>
				<time>2015-05-07T06:02:43Z</time>
				<extensions>
				</extensions>
			</trkpt>
			<trkpt lat="-27.957475" lon="152.687257">
				<ele>175</ele>
				<time>2015-05-07T06:02:44Z</time>
				<extensions>
				</extensions>
			</trkpt>
			<trkpt lat="-27.957507" lon="152.687496">
				<ele>172</ele>
				<time>2015-05-07T06:02:45Z</time>
				<extensions>
				</extensions>
			</trkpt>
			<trkpt lat="-27.957536" lon="152.687741">
				<ele>170</ele>
				<time>2015-05-07T06:02:46Z</time>
				<extensions>
				</extensions>
			</trkpt>
			<trkpt lat="-27.957570" lon="152.687990">
				<ele>169</ele>
				<time>2015-05-07T06:02:47Z</time>
				<extensions>
				</extensions>
			</trkpt>
			<trkpt lat="-27.957603" lon="152.688225">
				<ele>166</ele>
				<time>2015-05-07T06:02:48Z</time>
				<extensions>
				</extensions>
			</trkpt>
			<trkpt lat="-27.957634" lon="152.688458">
				<ele>166</ele>
				<time>2015-05-07T06:02:49Z</time>
				<extensions>
				</extensions>
			</trkpt>
			<trkpt lat="-27.957668" lon="152.688694">
				<ele>165</ele>
				<time>2015-05-07T06:02:50Z</time>
				<extensions>
				</extensions>
			</trkpt>
			<trkpt lat="-27.957700" lon="152.688913">
				<ele>163</ele>
				<time>2015-05-07T06:02:51Z</time>
				<extensions>
				</extensions>
			</trkpt>
			<trkpt lat="-27.957734" lon="152.689119">
				<ele>159</ele>
				<time>2015-05-07T06:02:52Z</time>
				<extensions>
				</extensions>
			</trkpt>
			<trkpt lat="-27.957837" lon="152.689437">
				<ele>156</ele>
				<time>2015-05-07T06:02:54Z</time>
				<extensions>
				</extensions>
			</trkpt>
			<trkpt lat="-27.958070" lon="152.689719">
				<ele>156</ele>
				<time>2015-05-07T06:02:56Z</time>
				<extensions>
				</extensions>
			</trkpt>
			<trkpt lat="-27.958227" lon="152.689853">
				<ele>156</ele>
				<time>2015-05-07T06:02:57Z</time>
				<extensions>
				</extensions>
			</trkpt>
			<trkpt lat="-27.958535" lon="152.690059">
				<ele>156</ele>
				<time>2015-05-07T06:02:59Z</time>
				<extensions>
				</extensions>
			</trkpt>
			<trkpt lat="-27.958681" lon="152.690180">
				<ele>155</ele>
				<time>2015-05-07T06:03:00Z</time>
				<extensions>
				</extensions>
			</trkpt>
			<trkpt lat="-27.958812" lon="152.690321">
				<ele>152</ele>
				<time>2015-05-07T06:03:01Z</time>
				<extensions>
				</extensions>
			</trkpt>
			<trkpt lat="-27.958906" lon="152.690498">
				<ele>150</ele>
				<time>2015-05-07T06:03:02Z</time>
				<extensions>
				</extensions>
			</trkpt>
			<trkpt lat="-27.958965" lon="152.690698">
				<ele>147</ele>
				<time>2015-05-07T06:03:03Z</time>
				<extensions>
				</extensions>
			</trkpt>
			<trkpt lat="-27.959016" lon="152.691113">
				<ele>146</ele>
				<time>2015-05-07T06:03:05Z</time>
				<extensions>
				</extensions>
			</trkpt>
			<trkpt lat="-27.959046" lon="152.691327">
				<ele>146</ele>
				<time>2015-05-07T06:03:06Z</time>
				<extensions>
				</extensions>
			</trkpt>
			<trkpt lat="-27.959079" lon="152.691544">
				<ele>144</ele>
				<time>2015-05-07T06:03:07Z</time>
				<extensions>
				</extensions>
			</trkpt>
			<trkpt lat="-27.959110" lon="152.691761">
				<ele>142</ele>
				<time>2015-05-07T06:03:08Z</time>
				<extensions>
				</extensions>
			</trkpt>
			<trkpt lat="-27.959135" lon="152.691969">
				<ele>138</ele>
				<time>2015-05-07T06:03:09Z</time>
				<extensions>
				</extensions>
			</trkpt>
			<trkpt lat="-27.959189" lon="152.692349">
				<ele>133</ele>
				<time>2015-05-07T06:03:11Z</time>
				<extensions>
				</extensions>
			</trkpt>
			<trkpt lat="-27.959247" lon="152.692724">
				<ele>130</ele>
				<time>2015-05-07T06:03:13Z</time>
				<extensions>
				</extensions>
			</trkpt>
			<trkpt lat="-27.959304" lon="152.693093">
				<ele>127</ele>
				<time>2015-05-07T06:03:15Z</time>
				<extensions>
				</extensions>
			</trkpt>
			<trkpt lat="-27.959351" lon="152.693443">
				<ele>124</ele>
				<time>2015-05-07T06:03:17Z</time>
				<extensions>
				</extensions>
			</trkpt>
			<trkpt lat="-27.959401" lon="152.693833">
				<ele>124</ele>
				<time>2015-05-07T06:03:19Z</time>
				<extensions>
				</extensions>
			</trkpt>
			<trkpt lat="-27.959431" lon="152.694059">
				<ele>123</ele>
				<time>2015-05-07T06:03:20Z</time>
				<extensions>
				</extensions>
			</trkpt>
			<trkpt lat="-27.959467" lon="152.694292">
				<ele>122</ele>
				<time>2015-05-07T06:03:21Z</time>
				<extensions>
				</extensions>
			</trkpt>
			<trkpt lat="-27.959506" lon="152.694535">
				<ele>121</ele>
				<time>2015-05-07T06:03:22Z</time>
				<extensions>
				</extensions>
			</trkpt>
			<trkpt lat="-27.959541" lon="152.694777">
				<ele>121</ele>
				<time>2015-05-07T06:03:23Z</time>
				<extensions>
				</extensions>
			</trkpt>
			<trkpt lat="-27.959580" lon="152.695019">
				<ele>120</ele>
				<time>2015-05-07T06:03:24Z</time>
				<extensions>
				</extensions>
			</trkpt>
			<trkpt lat="-27.959619" lon="152.695265">
				<ele>121</ele>
				<time>2015-05-07T06:03:25Z</time>
				<extensions>
				</extensions>
			</trkpt>
			<trkpt lat="-27.959654" lon="152.695512">
				<ele>121</ele>
				<time>2015-05-07T06:03:26Z</time>
				<extensions>
				</extensions>
			</trkpt>
			<trkpt lat="-27.959688" lon="152.695761">
				<ele>122</ele>
				<time>2015-05-07T06:03:27Z</time>
				<extensions>
				</extensions>
			</trkpt>
			<trkpt lat="-27.959719" lon="152.695979">
				<ele>122</ele>
				<time>2015-05-07T06:03:28Z</time>
				<extensions>
				</extensions>
			</trkpt>
			<trkpt lat="-27.959751" lon="152.696200">
				<ele>122</ele>
				<time>2015-05-07T06:03:29Z</time>
				<extensions>
				</extensions>
			</trkpt>
			<trkpt lat="-27.959777" lon="152.696416">
				<ele>122</ele>
				<time>2015-05-07T06:03:30Z</time>
				<extensions>
				</extensions>
			</trkpt>
			<trkpt lat="-27.959794" lon="152.696626">
				<ele>121</ele>
				<time>2015-05-07T06:03:31Z</time>
				<extensions>
				</extensions>
			</trkpt>
			<trkpt lat="-27.959847" lon="152.697012">
				<ele>119</ele>
				<time>2015-05-07T06:03:33Z</time>
				<extensions>
				</extensions>
			</trkpt>
			<trkpt lat="-27.959900" lon="152.697379">
				<ele>117</ele>
				<time>2015-05-07T06:03:35Z</time>
				<extensions>
				</extensions>
			</trkpt>
			<trkpt lat="-27.960019" lon="152.697701">
				<ele>115</ele>
				<time>2015-05-07T06:03:37Z</time>
				<extensions>
				</extensions>
			</trkpt>
			<trkpt lat="-27.960213" lon="152.697987">
				<ele>115</ele>
				<time>2015-05-07T06:03:39Z</time>
				<extensions>
				</extensions>
			</trkpt>
			<trkpt lat="-27.960355" lon="152.698242">
				<ele>115</ele>
				<time>2015-05-07T06:03:41Z</time>
				<extensions>
				</extensions>
			</trkpt>
			<trkpt lat="-27.960447" lon="152.698583">
				<ele>118</ele>
				<time>2015-05-07T06:03:43Z</time>
				<extensions>
				</extensions>
			</trkpt>
			<trkpt lat="-27.960500" lon="152.698988">
				<ele>122</ele>
				<time>2015-05-07T06:03:45Z</time>
				<extensions>
				</extensions>
			</trkpt>
			<trkpt lat="-27.960526" lon="152.699208">
				<ele>123</ele>
				<time>2015-05-07T06:03:46Z</time>
				<extensions>
				</extensions>
			</trkpt>
			<trkpt lat="-27.960559" lon="152.699441">
				<ele>124</ele>
				<time>2015-05-07T06:03:47Z</time>
				<extensions>
				</extensions>
			</trkpt>
			<trkpt lat="-27.960591" lon="152.699663">
				<ele>124</ele>
				<time>2015-05-07T06:03:48Z</time>
				<extensions>
				</extensions>
			</trkpt>
			<trkpt lat="-27.960629" lon="152.699868">
				<ele>124</ele>
				<time>2015-05-07T06:03:49Z</time>
				<extensions>
				</extensions>
			</trkpt>
			<trkpt lat="-27.960663" lon="152.700073">
				<ele>124</ele>
				<time>2015-05-07T06:03:50Z</time>
				<extensions>
				</extensions>
			</trkpt>
			<trkpt lat="-27.960689" lon="152.700288">
				<ele>124</ele>
				<time>2015-05-07T06:03:51Z</time>
				<extensions>
				</extensions>
			</trkpt>
			<trkpt lat="-27.960720" lon="152.700502">
				<ele>125</ele>
				<time>2015-05-07T06:03:52Z</time>
				<extensions>
				</extensions>
			</trkpt>
			<trkpt lat="-27.960735" lon="152.700731">
				<ele>126</ele>
				<time>2015-05-07T06:03:53Z</time>
				<extensions>
				</extensions>
			</trkpt>
			<trkpt lat="-27.960788" lon="152.701138">
				<ele>125</ele>
				<time>2015-05-07T06:03:55Z</time>
				<extensions>
				</extensions>
			</trkpt>
			<trkpt lat="-27.960849" lon="152.701519">
				<ele>125</ele>
				<time>2015-05-07T06:03:57Z</time>
				<extensions>
				</extensions>
			</trkpt>
			<trkpt lat="-27.960871" lon="152.701733">
				<ele>125</ele>
				<time>2015-05-07T06:03:58Z</time>
				<extensions>
				</extensions>
			</trkpt>
			<trkpt lat="-27.960914" lon="152.701956">
				<ele>126</ele>
				<time>2015-05-07T06:03:59Z</time>
				<extensions>
				</extensions>
			</trkpt>
			<trkpt lat="-27.960952" lon="152.702191">
				<ele>126</ele>
				<time>2015-05-07T06:04:00Z</time>
				<extensions>
				</extensions>
			</trkpt>
			<trkpt lat="-27.960981" lon="152.702439">
				<ele>126</ele>
				<time>2015-05-07T06:04:01Z</time>
				<extensions>
				</extensions>
			</trkpt>
			<trkpt lat="-27.961029" lon="152.702699">
				<ele>125</ele>
				<time>2015-05-07T06:04:02Z</time>
				<extensions>
				</extensions>
			</trkpt>
			<trkpt lat="-27.961064" lon="152.702955">
				<ele>124</ele>
				<time>2015-05-07T06:04:03Z</time>
				<extensions>
				</extensions>
			</trkpt>
			<trkpt lat="-27.961096" lon="152.703201">
				<ele>122</ele>
				<time>2015-05-07T06:04:04Z</time>
				<extensions>
				</extensions>
			</trkpt>
			<trkpt lat="-27.961131" lon="152.703443">
				<ele>120</ele>
				<time>2015-05-07T06:04:05Z</time>
				<extensions>
				</extensions>
			</trkpt>
			<trkpt lat="-27.961163" lon="152.703701">
				<ele>120</ele>
				<time>2015-05-07T06:04:06Z</time>
				<extensions>
				</extensions>
			</trkpt>
			<trkpt lat="-27.961187" lon="152.703965">
				<ele>119</ele>
				<time>2015-05-07T06:04:07Z</time>
				<extensions>
				</extensions>
			</trkpt>
			<trkpt lat="-27.961222" lon="152.704217">
				<ele>118</ele>
				<time>2015-05-07T06:04:08Z</time>
				<extensions>
				</extensions>
			</trkpt>
			<trkpt lat="-27.961257" lon="152.704472">
				<ele>118</ele>
				<time>2015-05-07T06:04:09Z</time>
				<extensions>
				</extensions>
			</trkpt>
			<trkpt lat="-27.961294" lon="152.704730">
				<ele>116</ele>
				<time>2015-05-07T06:04:10Z</time>
				<extensions>
				</extensions>
			</trkpt>
			<trkpt lat="-27.961334" lon="152.704993">
				<ele>116</ele>
				<time>2015-05-07T06:04:11Z</time>
				<extensions>
				</extensions>
			</trkpt>
			<trkpt lat="-27.961375" lon="152.705213">
				<ele>116</ele>
				<time>2015-05-07T06:04:12Z</time>
				<extensions>
				</extensions>
			</trkpt>
			<trkpt lat="-27.961413" lon="152.705484">
				<ele>116</ele>
				<time>2015-05-07T06:04:13Z</time>
				<extensions>
				</extensions>
			</trkpt>
			<trkpt lat="-27.961451" lon="152.705798">
				<ele>118</ele>
				<time>2015-05-07T06:04:14Z</time>
				<extensions>
				</extensions>
			</trkpt>
			<trkpt lat="-27.961490" lon="152.706036">
				<ele>116</ele>
				<time>2015-05-07T06:04:15Z</time>
				<extensions>
				</extensions>
			</trkpt>
			<trkpt lat="-27.961521" lon="152.706246">
				<ele>115</ele>
				<time>2015-05-07T06:04:16Z</time>
				<extensions>
				</extensions>
			</trkpt>
			<trkpt lat="-27.961552" lon="152.706501">
				<ele>115</ele>
				<time>2015-05-07T06:04:17Z</time>
				<extensions>
				</extensions>
			</trkpt>
			<trkpt lat="-27.961600" lon="152.706737">
				<ele>113</ele>
				<time>2015-05-07T06:04:18Z</time>
				<extensions>
				</extensions>
			</trkpt>
			<trkpt lat="-27.961630" lon="152.706978">
				<ele>113</ele>
				<time>2015-05-07T06:04:19Z</time>
				<extensions>
				</extensions>
			</trkpt>
			<trkpt lat="-27.961669" lon="152.707233">
				<ele>112</ele>
				<time>2015-05-07T06:04:20Z</time>
				<extensions>
				</extensions>
			</trkpt>
			<trkpt lat="-27.961716" lon="152.707488">
				<ele>111</ele>
				<time>2015-05-07T06:04:21Z</time>
				<extensions>
				</extensions>
			</trkpt>
			<trkpt lat="-27.961758" lon="152.707758">
				<ele>110</ele>
				<time>2015-05-07T06:04:22Z</time>
				<extensions>
				</extensions>
			</trkpt>
			<trkpt lat="-27.961789" lon="152.708029">
				<ele>109</ele>
				<time>2015-05-07T06:04:23Z</time>
				<extensions>
				</extensions>
			</trkpt>
			<trkpt lat="-27.961826" lon="152.708308">
				<ele>107</ele>
				<time>2015-05-07T06:04:24Z</time>
				<extensions>
				</extensions>
			</trkpt>
			<trkpt lat="-27.961864" lon="152.708587">
				<ele>107</ele>
				<time>2015-05-07T06:04:25Z</time>
				<extensions>
				</extensions>
			</trkpt>
			<trkpt lat="-27.961901" lon="152.708864">
				<ele>107</ele>
				<time>2015-05-07T06:04:26Z</time>
				<extensions>
				</extensions>
			</trkpt>
			<trkpt lat="-27.961934" lon="152.709155">
				<ele>108</ele>
				<time>2015-05-07T06:04:27Z</time>
				<extensions>
				</extensions>
			</trkpt>
			<trkpt lat="-27.961976" lon="152.709442">
				<ele>109</ele>
				<time>2015-05-07T06:04:28Z</time>
				<extensions>
				</extensions>
			</trkpt>
			<trkpt lat="-27.962009" lon="152.709751">
				<ele>110</ele>
				<time>2015-05-07T06:04:29Z</time>
				<extensions>
				</extensions>
			</trkpt>
			<trkpt lat="-27.962054" lon="152.710051">
				<ele>111</ele>
				<time>2015-05-07T06:04:30Z</time>
				<extensions>
				</extensions>
			</trkpt>
			<trkpt lat="-27.962106" lon="152.710321">
				<ele>112</ele>
				<time>2015-05-07T06:04:31Z</time>
				<extensions>
				</extensions>
			</trkpt>
			<trkpt lat="-27.962145" lon="152.710596">
				<ele>114</ele>
				<time>2015-05-07T06:04:32Z</time>
				<extensions>
				</extensions>
			</trkpt>
			<trkpt lat="-27.962180" lon="152.710870">
				<ele>117</ele>
				<time>2015-05-07T06:04:33Z</time>
				<extensions>
				</extensions>
			</trkpt>
			<trkpt lat="-27.962226" lon="152.711131">
				<ele>119</ele>
				<time>2015-05-07T06:04:34Z</time>
				<extensions>
				</extensions>
			</trkpt>
			<trkpt lat="-27.962242" lon="152.711384">
				<ele>118</ele>
				<time>2015-05-07T06:04:35Z</time>
				<extensions>
				</extensions>
			</trkpt>
			<trkpt lat="-27.962280" lon="152.711620">
				<ele>119</ele>
				<time>2015-05-07T06:04:36Z</time>
				<extensions>
				</extensions>
			</trkpt>
			<trkpt lat="-27.962311" lon="152.711845">
				<ele>119</ele>
				<time>2015-05-07T06:04:37Z</time>
				<extensions>
				</extensions>
			</trkpt>
			<trkpt lat="-27.962345" lon="152.712075">
				<ele>117</ele>
				<time>2015-05-07T06:04:38Z</time>
				<extensions>
				</extensions>
			</trkpt>
			<trkpt lat="-27.962380" lon="152.712495">
				<ele>116</ele>
				<time>2015-05-07T06:04:40Z</time>
				<extensions>
				</extensions>
			</trkpt>
			<trkpt lat="-27.962421" lon="152.712741">
				<ele>115</ele>
				<time>2015-05-07T06:04:41Z</time>
				<extensions>
				</extensions>
			</trkpt>
			<trkpt lat="-27.962454" lon="152.712980">
				<ele>114</ele>
				<time>2015-05-07T06:04:42Z</time>
				<extensions>
				</extensions>
			</trkpt>
			<trkpt lat="-27.962491" lon="152.713213">
				<ele>114</ele>
				<time>2015-05-07T06:04:43Z</time>
				<extensions>
				</extensions>
			</trkpt>
			<trkpt lat="-27.962528" lon="152.713455">
				<ele>111</ele>
				<time>2015-05-07T06:04:44Z</time>
				<extensions>
				</extensions>
			</trkpt>
			<trkpt lat="-27.962562" lon="152.713689">
				<ele>109</ele>
				<time>2015-05-07T06:04:45Z</time>
				<extensions>
				</extensions>
			</trkpt>
			<trkpt lat="-27.962599" lon="152.713929">
				<ele>107</ele>
				<time>2015-05-07T06:04:46Z</time>
				<extensions>
				</extensions>
			</trkpt>
			<trkpt lat="-27.962641" lon="152.714176">
				<ele>105</ele>
				<time>2015-05-07T06:04:47Z</time>
				<extensions>
				</extensions>
			</trkpt>
			<trkpt lat="-27.962666" lon="152.714420">
				<ele>103</ele>
				<time>2015-05-07T06:04:48Z</time>
				<extensions>
				</extensions>
			</trkpt>
			<trkpt lat="-27.962702" lon="152.714655">
				<ele>103</ele>
				<time>2015-05-07T06:04:49Z</time>
				<extensions>
				</extensions>
			</trkpt>
			<trkpt lat="-27.962746" lon="152.714919">
				<ele>103</ele>
				<time>2015-05-07T06:04:50Z</time>
				<extensions>
				</extensions>
			</trkpt>
			<trkpt lat="-27.962782" lon="152.715162">
				<ele>102</ele>
				<time>2015-05-07T06:04:51Z</time>
				<extensions>
				</extensions>
			</trkpt>
			<trkpt lat="-27.962817" lon="152.715372">
				<ele>102</ele>
				<time>2015-05-07T06:04:52Z</time>
				<extensions>
				</extensions>
			</trkpt>
			<trkpt lat="-27.962849" lon="152.715753">
				<ele>101</ele>
				<time>2015-05-07T06:04:54Z</time>
				<extensions>
				</extensions>
			</trkpt>
			<trkpt lat="-27.962911" lon="152.716143">
				<ele>103</ele>
				<time>2015-05-07T06:04:56Z</time>
				<extensions>
				</extensions>
			</trkpt>
			<trkpt lat="-27.962921" lon="152.716507">
				<ele>102</ele>
				<time>2015-05-07T06:04:58Z</time>
				<extensions>
				</extensions>
			</trkpt>
			<trkpt lat="-27.962977" lon="152.716849">
				<ele>101</ele>
				<time>2015-05-07T06:05:00Z</time>
				<extensions>
				</extensions>
			</trkpt>
			<trkpt lat="-27.963066" lon="152.717204">
				<ele>98</ele>
				<time>2015-05-07T06:05:02Z</time>
				<extensions>
				</extensions>
			</trkpt>
			<trkpt lat="-27.963115" lon="152.717575">
				<ele>94</ele>
				<time>2015-05-07T06:05:04Z</time>
				<extensions>
				</extensions>
			</trkpt>
			<trkpt lat="-27.963164" lon="152.717929">
				<ele>89</ele>
				<time>2015-05-07T06:05:06Z</time>
				<extensions>
				</extensions>
			</trkpt>
			<trkpt lat="-27.963188" lon="152.718205">
				<ele>82</ele>
				<time>2015-05-07T06:05:08Z</time>
				<extensions>
				</extensions>
			</trkpt>
			<trkpt lat="-27.963215" lon="152.718481">
				<ele>78</ele>
				<time>2015-05-07T06:05:10Z</time>
				<extensions>
				</extensions>
			</trkpt>
			<trkpt lat="-27.963256" lon="152.718687">
				<ele>71</ele>
				<time>2015-05-07T06:05:13Z</time>
				<extensions>
				</extensions>
			</trkpt>
			<trkpt lat="-27.963122" lon="152.718831">
				<ele>68</ele>
				<time>2015-05-07T06:05:17Z</time>
				<extensions>
				</extensions>
			</trkpt>
			<trkpt lat="-27.962903" lon="152.718864">
				<ele>72</ele>
				<time>2015-05-07T06:05:19Z</time>
				<extensions>
				</extensions>
			</trkpt>
			<trkpt lat="-27.962559" lon="152.718900">
				<ele>76</ele>
				<time>2015-05-07T06:05:21Z</time>
				<extensions>
				</extensions>
			</trkpt>
			<trkpt lat="-27.962377" lon="152.718926">
				<ele>79</ele>
				<time>2015-05-07T06:05:22Z</time>
				<extensions>
				</extensions>
			</trkpt>
			<trkpt lat="-27.962161" lon="152.718956">
				<ele>81</ele>
				<time>2015-05-07T06:05:23Z</time>
				<extensions>
				</extensions>
			</trkpt>
			<trkpt lat="-27.961944" lon="152.719010">
				<ele>82</ele>
				<time>2015-05-07T06:05:24Z</time>
				<extensions>
				</extensions>
			</trkpt>
			<trkpt lat="-27.961729" lon="152.719081">
				<ele>83</ele>
				<time>2015-05-07T06:05:25Z</time>
				<extensions>
				</extensions>
			</trkpt>
			<trkpt lat="-27.961498" lon="152.719159">
				<ele>86</ele>
				<time>2015-05-07T06:05:26Z</time>
				<extensions>
				</extensions>
			</trkpt>
			<trkpt lat="-27.961273" lon="152.719248">
				<ele>88</ele>
				<time>2015-05-07T06:05:27Z</time>
				<extensions>
				</extensions>
			</trkpt>
			<trkpt lat="-27.961042" lon="152.719345">
				<ele>90</ele>
				<time>2015-05-07T06:05:28Z</time>
				<extensions>
				</extensions>
			</trkpt>
			<trkpt lat="-27.960782" lon="152.719430">
				<ele>89</ele>
				<time>2015-05-07T06:05:29Z</time>
				<extensions>
				</extensions>
			</trkpt>
			<trkpt lat="-27.960535" lon="152.719517">
				<ele>90</ele>
				<time>2015-05-07T06:05:30Z</time>
				<extensions>
				</extensions>
			</trkpt>
			<trkpt lat="-27.960289" lon="152.719596">
				<ele>90</ele>
				<time>2015-05-07T06:05:31Z</time>
				<extensions>
				</extensions>
			</trkpt>
			<trkpt lat="-27.960046" lon="152.719666">
				<ele>90</ele>
				<time>2015-05-07T06:05:32Z</time>
				<extensions>
				</extensions>
			</trkpt>
			<trkpt lat="-27.959812" lon="152.719715">
				<ele>89</ele>
				<time>2015-05-07T06:05:33Z</time>
				<extensions>
				</extensions>
			</trkpt>
			<trkpt lat="-27.959571" lon="152.719773">
				<ele>88</ele>
				<time>2015-05-07T06:05:34Z</time>
				<extensions>
				</extensions>
			</trkpt>
			<trkpt lat="-27.959298" lon="152.719855">
				<ele>87</ele>
				<time>2015-05-07T06:05:35Z</time>
				<extensions>
				</extensions>
			</trkpt>
			<trkpt lat="-27.959034" lon="152.719935">
				<ele>87</ele>
				<time>2015-05-07T06:05:36Z</time>
				<extensions>
				</extensions>
			</trkpt>
			<trkpt lat="-27.958780" lon="152.720002">
				<ele>88</ele>
				<time>2015-05-07T06:05:37Z</time>
				<extensions>
				</extensions>
			</trkpt>
			<trkpt lat="-27.958522" lon="152.720061">
				<ele>86</ele>
				<time>2015-05-07T06:05:38Z</time>
				<extensions>
				</extensions>
			</trkpt>
			<trkpt lat="-27.958280" lon="152.720119">
				<ele>86</ele>
				<time>2015-05-07T06:05:39Z</time>
				<extensions>
				</extensions>
			</trkpt>
			<trkpt lat="-27.958041" lon="152.720169">
				<ele>85</ele>
				<time>2015-05-07T06:05:40Z</time>
				<extensions>
				</extensions>
			</trkpt>
			<trkpt lat="-27.957802" lon="152.720229">
				<ele>85</ele>
				<time>2015-05-07T06:05:41Z</time>
				<extensions>
				</extensions>
			</trkpt>
			<trkpt lat="-27.957561" lon="152.720295">
				<ele>90</ele>
				<time>2015-05-07T06:05:42Z</time>
				<extensions>
				</extensions>
			</trkpt>
			<trkpt lat="-27.957329" lon="152.720327">
				<ele>89</ele>
				<time>2015-05-07T06:05:43Z</time>
				<extensions>
				</extensions>
			</trkpt>
			<trkpt lat="-27.957091" lon="152.720354">
				<ele>90</ele>
				<time>2015-05-07T06:05:44Z</time>
				<extensions>
				</extensions>
			</trkpt>
			<trkpt lat="-27.956844" lon="152.720379">
				<ele>89</ele>
				<time>2015-05-07T06:05:45Z</time>
				<extensions>
				</extensions>
			</trkpt>
			<trkpt lat="-27.956581" lon="152.720391">
				<ele>88</ele>
				<time>2015-05-07T06:05:46Z</time>
				<extensions>
				</extensions>
			</trkpt>
			<trkpt lat="-27.956327" lon="152.720416">
				<ele>88</ele>
				<time>2015-05-07T06:05:47Z</time>
				<extensions>
				</extensions>
			</trkpt>
			<trkpt lat="-27.956055" lon="152.720445">
				<ele>87</ele>
				<time>2015-05-07T06:05:48Z</time>
				<extensions>
				</extensions>
			</trkpt>
			<trkpt lat="-27.955803" lon="152.720461">
				<ele>86</ele>
				<time>2015-05-07T06:05:49Z</time>
				<extensions>
				</extensions>
			</trkpt>
			<trkpt lat="-27.955540" lon="152.720499">
				<ele>86</ele>
				<time>2015-05-07T06:05:50Z</time>
				<extensions>
				</extensions>
			</trkpt>
			<trkpt lat="-27.955289" lon="152.720541">
				<ele>83</ele>
				<time>2015-05-07T06:05:51Z</time>
				<extensions>
				</extensions>
			</trkpt>
			<trkpt lat="-27.955066" lon="152.720608">
				<ele>83</ele>
				<time>2015-05-07T06:05:52Z</time>
				<extensions>
				</extensions>
			</trkpt>
			<trkpt lat="-27.954846" lon="152.720688">
				<ele>82</ele>
				<time>2015-05-07T06:05:53Z</time>
				<extensions>
				</extensions>
			</trkpt>
			<trkpt lat="-27.954665" lon="152.720803">
				<ele>83</ele>
				<time>2015-05-07T06:05:54Z</time>
				<extensions>
				</extensions>
			</trkpt>
			<trkpt lat="-27.954448" lon="152.720950">
				<ele>83</ele>
				<time>2015-05-07T06:05:55Z</time>
				<extensions>
				</extensions>
			</trkpt>
			<trkpt lat="-27.954244" lon="152.721082">
				<ele>85</ele>
				<time>2015-05-07T06:05:56Z</time>
				<extensions>
				</extensions>
			</trkpt>
			<trkpt lat="-27.954030" lon="152.721252">
				<ele>87</ele>
				<time>2015-05-07T06:05:57Z</time>
				<extensions>
				</extensions>
			</trkpt>
			<trkpt lat="-27.953809" lon="152.721415">
				<ele>88</ele>
				<time>2015-05-07T06:05:58Z</time>
				<extensions>
				</extensions>
			</trkpt>
			<trkpt lat="-27.953604" lon="152.721583">
				<ele>90</ele>
				<time>2015-05-07T06:05:59Z</time>
				<extensions>
				</extensions>
			</trkpt>
			<trkpt lat="-27.953404" lon="152.721735">
				<ele>91</ele>
				<time>2015-05-07T06:06:00Z</time>
				<extensions>
				</extensions>
			</trkpt>
			<trkpt lat="-27.953203" lon="152.721884">
				<ele>88</ele>
				<time>2015-05-07T06:06:01Z</time>
				<extensions>
				</extensions>
			</trkpt>
			<trkpt lat="-27.953024" lon="152.722020">
				<ele>85</ele>
				<time>2015-05-07T06:06:02Z</time>
				<extensions>
				</extensions>
			</trkpt>
			<trkpt lat="-27.952854" lon="152.722151">
				<ele>83</ele>
				<time>2015-05-07T06:06:03Z</time>
				<extensions>
				</extensions>
			</trkpt>
			<trkpt lat="-27.952681" lon="152.722270">
				<ele>79</ele>
				<time>2015-05-07T06:06:04Z</time>
				<extensions>
				</extensions>
			</trkpt>
			<trkpt lat="-27.952521" lon="152.722371">
				<ele>78</ele>
				<time>2015-05-07T06:06:05Z</time>
				<extensions>
				</extensions>
			</trkpt>
			<trkpt lat="-27.952213" lon="152.722539">
				<ele>75</ele>
				<time>2015-05-07T06:06:07Z</time>
				<extensions>
				</extensions>
			</trkpt>
			<trkpt lat="-27.951893" lon="152.722664">
				<ele>74</ele>
				<time>2015-05-07T06:06:09Z</time>
				<extensions>
				</extensions>
			</trkpt>
			<trkpt lat="-27.951597" lon="152.722789">
				<ele>73</ele>
				<time>2015-05-07T06:06:11Z</time>
				<extensions>
				</extensions>
			</trkpt>
			<trkpt lat="-27.951322" lon="152.722843">
				<ele>71</ele>
				<time>2015-05-07T06:06:13Z</time>
				<extensions>
				</extensions>
			</trkpt>
			<trkpt lat="-27.951026" lon="152.722870">
				<ele>71</ele>
				<time>2015-05-07T06:06:15Z</time>
				<extensions>
				</extensions>
			</trkpt>
			<trkpt lat="-27.950796" lon="152.722896">
				<ele>70</ele>
				<time>2015-05-07T06:06:17Z</time>
				<extensions>
				</extensions>
			</trkpt>
			<trkpt lat="-27.950607" lon="152.722866">
				<ele>68</ele>
				<time>2015-05-07T06:06:19Z</time>
				<extensions>
				</extensions>
			</trkpt>
			<trkpt lat="-27.950458" lon="152.722998">
				<ele>66</ele>
				<time>2015-05-07T06:06:23Z</time>
				<extensions>
				</extensions>
			</trkpt>
			<trkpt lat="-27.950432" lon="152.723239">
				<ele>65</ele>
				<time>2015-05-07T06:06:27Z</time>
				<extensions>
				</extensions>
			</trkpt>
			<trkpt lat="-27.950408" lon="152.723546">
				<ele>65</ele>
				<time>2015-05-07T06:06:31Z</time>
				<extensions>
				</extensions>
			</trkpt>
			<trkpt lat="-27.950405" lon="152.723808">
				<ele>65</ele>
				<time>2015-05-07T06:06:33Z</time>
				<extensions>
				</extensions>
			</trkpt>
			<trkpt lat="-27.950416" lon="152.724114">
				<ele>67</ele>
				<time>2015-05-07T06:06:35Z</time>
				<extensions>
				</extensions>
			</trkpt>
			<trkpt lat="-27.950444" lon="152.724482">
				<ele>69</ele>
				<time>2015-05-07T06:06:37Z</time>
				<extensions>
				</extensions>
			</trkpt>
			<trkpt lat="-27.950486" lon="152.724847">
				<ele>70</ele>
				<time>2015-05-07T06:06:39Z</time>
				<extensions>
				</extensions>
			</trkpt>
			<trkpt lat="-27.950537" lon="152.725047">
				<ele>71</ele>
				<time>2015-05-07T06:06:40Z</time>
				<extensions>
				</extensions>
			</trkpt>
			<trkpt lat="-27.950589" lon="152.725250">
				<ele>71</ele>
				<time>2015-05-07T06:06:41Z</time>
				<extensions>
				</extensions>
			</trkpt>
			<trkpt lat="-27.950661" lon="152.725465">
				<ele>71</ele>
				<time>2015-05-07T06:06:42Z</time>
				<extensions>
				</extensions>
			</trkpt>
			<trkpt lat="-27.950733" lon="152.725663">
				<ele>74</ele>
				<time>2015-05-07T06:06:43Z</time>
				<extensions>
				</extensions>
			</trkpt>
			<trkpt lat="-27.950881" lon="152.726022">
				<ele>74</ele>
				<time>2015-05-07T06:06:45Z</time>
				<extensions>
				</extensions>
			</trkpt>
			<trkpt lat="-27.951050" lon="152.726384">
				<ele>77</ele>
				<time>2015-05-07T06:06:47Z</time>
				<extensions>
				</extensions>
			</trkpt>
			<trkpt lat="-27.951165" lon="152.726562">
				<ele>76</ele>
				<time>2015-05-07T06:06:48Z</time>
				<extensions>
				</extensions>
			</trkpt>
			<trkpt lat="-27.951290" lon="152.726732">
				<ele>76</ele>
				<time>2015-05-07T06:06:49Z</time>
				<extensions>
				</extensions>
			</trkpt>
			<trkpt lat="-27.951417" lon="152.726885">
				<ele>77</ele>
				<time>2015-05-07T06:06:50Z</time>
				<extensions>
				</extensions>
			</trkpt>
			<trkpt lat="-27.951564" lon="152.727050">
				<ele>77</ele>
				<time>2015-05-07T06:06:51Z</time>
				<extensions>
				</extensions>
			</trkpt>
			<trkpt lat="-27.951708" lon="152.727181">
				<ele>77</ele>
				<time>2015-05-07T06:06:52Z</time>
				<extensions>
				</extensions>
			</trkpt>
			<trkpt lat="-27.951866" lon="152.727332">
				<ele>77</ele>
				<time>2015-05-07T06:06:53Z</time>
				<extensions>
				</extensions>
			</trkpt>
			<trkpt lat="-27.952028" lon="152.727475">
				<ele>77</ele>
				<time>2015-05-07T06:06:54Z</time>
				<extensions>
				</extensions>
			</trkpt>
			<trkpt lat="-27.952209" lon="152.727620">
				<ele>78</ele>
				<time>2015-05-07T06:06:55Z</time>
				<extensions>
				</extensions>
			</trkpt>
			<trkpt lat="-27.952389" lon="152.727750">
				<ele>79</ele>
				<time>2015-05-07T06:06:56Z</time>
				<extensions>
				</extensions>
			</trkpt>
			<trkpt lat="-27.952582" lon="152.727870">
				<ele>81</ele>
				<time>2015-05-07T06:06:57Z</time>
				<extensions>
				</extensions>
			</trkpt>
			<trkpt lat="-27.952767" lon="152.727986">
				<ele>80</ele>
				<time>2015-05-07T06:06:58Z</time>
				<extensions>
				</extensions>
			</trkpt>
			<trkpt lat="-27.952947" lon="152.728112">
				<ele>79</ele>
				<time>2015-05-07T06:06:59Z</time>
				<extensions>
				</extensions>
			</trkpt>
			<trkpt lat="-27.953133" lon="152.728237">
				<ele>79</ele>
				<time>2015-05-07T06:07:00Z</time>
				<extensions>
				</extensions>
			</trkpt>
			<trkpt lat="-27.953297" lon="152.728375">
				<ele>79</ele>
				<time>2015-05-07T06:07:01Z</time>
				<extensions>
				</extensions>
			</trkpt>
			<trkpt lat="-27.953466" lon="152.728528">
				<ele>79</ele>
				<time>2015-05-07T06:07:02Z</time>
				<extensions>
				</extensions>
			</trkpt>
			<trkpt lat="-27.953623" lon="152.728721">
				<ele>80</ele>
				<time>2015-05-07T06:07:03Z</time>
				<extensions>
				</extensions>
			</trkpt>
			<trkpt lat="-27.953768" lon="152.728924">
				<ele>80</ele>
				<time>2015-05-07T06:07:04Z</time>
				<extensions>
				</extensions>
			</trkpt>
			<trkpt lat="-27.953903" lon="152.729131">
				<ele>81</ele>
				<time>2015-05-07T06:07:05Z</time>
				<extensions>
				</extensions>
			</trkpt>
			<trkpt lat="-27.953993" lon="152.729334">
				<ele>81</ele>
				<time>2015-05-07T06:07:06Z</time>
				<extensions>
				</extensions>
			</trkpt>
			<trkpt lat="-27.954089" lon="152.729592">
				<ele>81</ele>
				<time>2015-05-07T06:07:07Z</time>
				<extensions>
				</extensions>
			</trkpt>
			<trkpt lat="-27.954174" lon="152.729848">
				<ele>82</ele>
				<time>2015-05-07T06:07:08Z</time>
				<extensions>
				</extensions>
			</trkpt>
			<trkpt lat="-27.954239" lon="152.730127">
				<ele>82</ele>
				<time>2015-05-07T06:07:09Z</time>
				<extensions>
				</extensions>
			</trkpt>
			<trkpt lat="-27.954291" lon="152.730391">
				<ele>84</ele>
				<time>2015-05-07T06:07:10Z</time>
				<extensions>
				</extensions>
			</trkpt>
			<trkpt lat="-27.954316" lon="152.730685">
				<ele>87</ele>
				<time>2015-05-07T06:07:11Z</time>
				<extensions>
				</extensions>
			</trkpt>
			<trkpt lat="-27.954297" lon="152.730956">
				<ele>88</ele>
				<time>2015-05-07T06:07:12Z</time>
				<extensions>
				</extensions>
			</trkpt>
			<trkpt lat="-27.954312" lon="152.731232">
				<ele>88</ele>
				<time>2015-05-07T06:07:13Z</time>
				<extensions>
				</extensions>
			</trkpt>
			<trkpt lat="-27.954313" lon="152.731498">
				<ele>90</ele>
				<time>2015-05-07T06:07:14Z</time>
				<extensions>
				</extensions>
			</trkpt>
			<trkpt lat="-27.954316" lon="152.731711">
				<ele>89</ele>
				<time>2015-05-07T06:07:15Z</time>
				<extensions>
				</extensions>
			</trkpt>
			<trkpt lat="-27.954321" lon="152.731943">
				<ele>88</ele>
				<time>2015-05-07T06:07:16Z</time>
				<extensions>
				</extensions>
			</trkpt>
			<trkpt lat="-27.954327" lon="152.732189">
				<ele>87</ele>
				<time>2015-05-07T06:07:17Z</time>
				<extensions>
				</extensions>
			</trkpt>
			<trkpt lat="-27.954351" lon="152.732420">
				<ele>86</ele>
				<time>2015-05-07T06:07:18Z</time>
				<extensions>
				</extensions>
			</trkpt>
			<trkpt lat="-27.954386" lon="152.732650">
				<ele>87</ele>
				<time>2015-05-07T06:07:19Z</time>
				<extensions>
				</extensions>
			</trkpt>
			<trkpt lat="-27.954422" lon="152.732880">
				<ele>85</ele>
				<time>2015-05-07T06:07:20Z</time>
				<extensions>
				</extensions>
			</trkpt>
			<trkpt lat="-27.954454" lon="152.733116">
				<ele>85</ele>
				<time>2015-05-07T06:07:21Z</time>
				<extensions>
				</extensions>
			</trkpt>
			<trkpt lat="-27.954581" lon="152.733331">
				<ele>84</ele>
				<time>2015-05-07T06:07:22Z</time>
				<extensions>
				</extensions>
			</trkpt>
			<trkpt lat="-27.954671" lon="152.733541">
				<ele>84</ele>
				<time>2015-05-07T06:07:23Z</time>
				<extensions>
				</extensions>
			</trkpt>
			<trkpt lat="-27.954792" lon="152.733764">
				<ele>83</ele>
				<time>2015-05-07T06:07:24Z</time>
				<extensions>
				</extensions>
			</trkpt>
			<trkpt lat="-27.954949" lon="152.733961">
				<ele>81</ele>
				<time>2015-05-07T06:07:25Z</time>
				<extensions>
				</extensions>
			</trkpt>
			<trkpt lat="-27.955093" lon="152.734158">
				<ele>80</ele>
				<time>2015-05-07T06:07:26Z</time>
				<extensions>
				</extensions>
			</trkpt>
			<trkpt lat="-27.955254" lon="152.734348">
				<ele>80</ele>
				<time>2015-05-07T06:07:27Z</time>
				<extensions>
				</extensions>
			</trkpt>
			<trkpt lat="-27.955434" lon="152.734522">
				<ele>81</ele>
				<time>2015-05-07T06:07:28Z</time>
				<extensions>
				</extensions>
			</trkpt>
			<trkpt lat="-27.955604" lon="152.734699">
				<ele>81</ele>
				<time>2015-05-07T06:07:29Z</time>
				<extensions>
				</extensions>
			</trkpt>
			<trkpt lat="-27.955785" lon="152.734865">
				<ele>80</ele>
				<time>2015-05-07T06:07:30Z</time>
				<extensions>
				</extensions>
			</trkpt>
			<trkpt lat="-27.955949" lon="152.735045">
				<ele>81</ele>
				<time>2015-05-07T06:07:31Z</time>
				<extensions>
				</extensions>
			</trkpt>
			<trkpt lat="-27.956111" lon="152.735233">
				<ele>80</ele>
				<time>2015-05-07T06:07:32Z</time>
				<extensions>
				</extensions>
			</trkpt>
			<trkpt lat="-27.956255" lon="152.735443">
				<ele>81</ele>
				<time>2015-05-07T06:07:33Z</time>
				<extensions>
				</extensions>
			</trkpt>
			<trkpt lat="-27.956393" lon="152.735658">
				<ele>81</ele>
				<time>2015-05-07T06:07:34Z</time>
				<extensions>
				</extensions>
			</trkpt>
			<trkpt lat="-27.956476" lon="152.735906">
				<ele>82</ele>
				<time>2015-05-07T06:07:35Z</time>
				<extensions>
				</extensions>
			</trkpt>
			<trkpt lat="-27.956546" lon="152.736166">
				<ele>82</ele>
				<time>2015-05-07T06:07:36Z</time>
				<extensions>
				</extensions>
			</trkpt>
			<trkpt lat="-27.956601" lon="152.736431">
				<ele>82</ele>
				<time>2015-05-07T06:07:37Z</time>
				<extensions>
				</extensions>
			</trkpt>
			<trkpt lat="-27.956655" lon="152.736691">
				<ele>84</ele>
				<time>2015-05-07T06:07:38Z</time>
				<extensions>
				</extensions>
			</trkpt>
			<trkpt lat="-27.956688" lon="152.736966">
				<ele>83</ele>
				<time>2015-05-07T06:07:39Z</time>
				<extensions>
				</extensions>
			</trkpt>
			<trkpt lat="-27.956694" lon="152.737220">
				<ele>83</ele>
				<time>2015-05-07T06:07:40Z</time>
				<extensions>
				</extensions>
			</trkpt>
			<trkpt lat="-27.956655" lon="152.737482">
				<ele>84</ele>
				<time>2015-05-07T06:07:41Z</time>
				<extensions>
				</extensions>
			</trkpt>
			<trkpt lat="-27.956607" lon="152.737729">
				<ele>84</ele>
				<time>2015-05-07T06:07:42Z</time>
				<extensions>
				</extensions>
			</trkpt>
			<trkpt lat="-27.956541" lon="152.737952">
				<ele>85</ele>
				<time>2015-05-07T06:07:43Z</time>
				<extensions>
				</extensions>
			</trkpt>
			<trkpt lat="-27.956441" lon="152.738201">
				<ele>85</ele>
				<time>2015-05-07T06:07:44Z</time>
				<extensions>
				</extensions>
			</trkpt>
			<trkpt lat="-27.956326" lon="152.738439">
				<ele>86</ele>
				<time>2015-05-07T06:07:45Z</time>
				<extensions>
				</extensions>
			</trkpt>
			<trkpt lat="-27.956164" lon="152.738732">
				<ele>88</ele>
				<time>2015-05-07T06:07:46Z</time>
				<extensions>
				</extensions>
			</trkpt>
			<trkpt lat="-27.956018" lon="152.738981">
				<ele>89</ele>
				<time>2015-05-07T06:07:47Z</time>
				<extensions>
				</extensions>
			</trkpt>
			<trkpt lat="-27.955863" lon="152.739245">
				<ele>90</ele>
				<time>2015-05-07T06:07:48Z</time>
				<extensions>
				</extensions>
			</trkpt>
			<trkpt lat="-27.955723" lon="152.739481">
				<ele>90</ele>
				<time>2015-05-07T06:07:49Z</time>
				<extensions>
				</extensions>
			</trkpt>
			<trkpt lat="-27.955588" lon="152.739706">
				<ele>91</ele>
				<time>2015-05-07T06:07:50Z</time>
				<extensions>
				</extensions>
			</trkpt>
			<trkpt lat="-27.955471" lon="152.739905">
				<ele>92</ele>
				<time>2015-05-07T06:07:51Z</time>
				<extensions>
				</extensions>
			</trkpt>
			<trkpt lat="-27.955352" lon="152.740120">
				<ele>94</ele>
				<time>2015-05-07T06:07:52Z</time>
				<extensions>
				</extensions>
			</trkpt>
			<trkpt lat="-27.955229" lon="152.740354">
				<ele>95</ele>
				<time>2015-05-07T06:07:53Z</time>
				<extensions>
				</extensions>
			</trkpt>
			<trkpt lat="-27.955157" lon="152.740590">
				<ele>96</ele>
				<time>2015-05-07T06:07:54Z</time>
				<extensions>
				</extensions>
			</trkpt>
			<trkpt lat="-27.955054" lon="152.740838">
				<ele>96</ele>
				<time>2015-05-07T06:07:55Z</time>
				<extensions>
				</extensions>
			</trkpt>
			<trkpt lat="-27.954971" lon="152.741098">
				<ele>98</ele>
				<time>2015-05-07T06:07:56Z</time>
				<extensions>
				</extensions>
			</trkpt>
			<trkpt lat="-27.954903" lon="152.741345">
				<ele>97</ele>
				<time>2015-05-07T06:07:57Z</time>
				<extensions>
				</extensions>
			</trkpt>
			<trkpt lat="-27.954845" lon="152.741679">
				<ele>95</ele>
				<time>2015-05-07T06:07:58Z</time>
				<extensions>
				</extensions>
			</trkpt>
			<trkpt lat="-27.954859" lon="152.741899">
				<ele>94</ele>
				<time>2015-05-07T06:07:59Z</time>
				<extensions>
				</extensions>
			</trkpt>
			<trkpt lat="-27.954852" lon="152.742127">
				<ele>93</ele>
				<time>2015-05-07T06:08:00Z</time>
				<extensions>
				</extensions>
			</trkpt>
			<trkpt lat="-27.954860" lon="152.742350">
				<ele>92</ele>
				<time>2015-05-07T06:08:01Z</time>
				<extensions>
				</extensions>
			</trkpt>
			<trkpt lat="-27.954879" lon="152.742596">
				<ele>92</ele>
				<time>2015-05-07T06:08:02Z</time>
				<extensions>
				</extensions>
			</trkpt>
			<trkpt lat="-27.954907" lon="152.742840">
				<ele>90</ele>
				<time>2015-05-07T06:08:03Z</time>
				<extensions>
				</extensions>
			</trkpt>
			<trkpt lat="-27.954971" lon="152.743071">
				<ele>90</ele>
				<time>2015-05-07T06:08:04Z</time>
				<extensions>
				</extensions>
			</trkpt>
			<trkpt lat="-27.955052" lon="152.743323">
				<ele>87</ele>
				<time>2015-05-07T06:08:05Z</time>
				<extensions>
				</extensions>
			</trkpt>
			<trkpt lat="-27.955158" lon="152.743575">
				<ele>86</ele>
				<time>2015-05-07T06:08:06Z</time>
				<extensions>
				</extensions>
			</trkpt>
			<trkpt lat="-27.955258" lon="152.743806">
				<ele>86</ele>
				<time>2015-05-07T06:08:07Z</time>
				<extensions>
				</extensions>
			</trkpt>
			<trkpt lat="-27.955365" lon="152.744062">
				<ele>84</ele>
				<time>2015-05-07T06:08:08Z</time>
				<extensions>
				</extensions>
			</trkpt>
			<trkpt lat="-27.955473" lon="152.744305">
				<ele>85</ele>
				<time>2015-05-07T06:08:09Z</time>
				<extensions>
				</extensions>
			</trkpt>
			<trkpt lat="-27.955581" lon="152.744546">
				<ele>86</ele>
				<time>2015-05-07T06:08:10Z</time>
				<extensions>
				</extensions>
			</trkpt>
			<trkpt lat="-27.955690" lon="152.744793">
				<ele>85</ele>
				<time>2015-05-07T06:08:11Z</time>
				<extensions>
				</extensions>
			</trkpt>
			<trkpt lat="-27.955793" lon="152.745025">
				<ele>84</ele>
				<time>2015-05-07T06:08:12Z</time>
				<extensions>
				</extensions>
			</trkpt>
			<trkpt lat="-27.955893" lon="152.745270">
				<ele>83</ele>
				<time>2015-05-07T06:08:13Z</time>
				<extensions>
				</extensions>
			</trkpt>
			<trkpt lat="-27.955992" lon="152.745508">
				<ele>83</ele>
				<time>2015-05-07T06:08:14Z</time>
				<extensions>
				</extensions>
			</trkpt>
			<trkpt lat="-27.956094" lon="152.745766">
				<ele>83</ele>
				<time>2015-05-07T06:08:15Z</time>
				<extensions>
				</extensions>
			</trkpt>
			<trkpt lat="-27.956190" lon="152.746028">
				<ele>83</ele>
				<time>2015-05-07T06:08:16Z</time>
				<extensions>
				</extensions>
			</trkpt>
			<trkpt lat="-27.956288" lon="152.746306">
				<ele>84</ele>
				<time>2015-05-07T06:08:17Z</time>
				<extensions>
				</extensions>
			</trkpt>
			<trkpt lat="-27.956383" lon="152.746581">
				<ele>85</ele>
				<time>2015-05-07T06:08:18Z</time>
				<extensions>
				</extensions>
			</trkpt>
			<trkpt lat="-27.956470" lon="152.746852">
				<ele>85</ele>
				<time>2015-05-07T06:08:19Z</time>
				<extensions>
				</extensions>
			</trkpt>
			<trkpt lat="-27.956555" lon="152.747116">
				<ele>83</ele>
				<time>2015-05-07T06:08:20Z</time>
				<extensions>
				</extensions>
			</trkpt>
			<trkpt lat="-27.956619" lon="152.747400">
				<ele>82</ele>
				<time>2015-05-07T06:08:21Z</time>
				<extensions>
				</extensions>
			</trkpt>
			<trkpt lat="-27.956665" lon="152.747674">
				<ele>81</ele>
				<time>2015-05-07T06:08:22Z</time>
				<extensions>
				</extensions>
			</trkpt>
			<trkpt lat="-27.956699" lon="152.747954">
				<ele>82</ele>
				<time>2015-05-07T06:08:23Z</time>
				<extensions>
				</extensions>
			</trkpt>
			<trkpt lat="-27.956720" lon="152.748242">
				<ele>82</ele>
				<time>2015-05-07T06:08:24Z</time>
				<extensions>
				</extensions>
			</trkpt>
			<trkpt lat="-27.956722" lon="152.748496">
				<ele>83</ele>
				<time>2015-05-07T06:08:25Z</time>
				<extensions>
				</extensions>
			</trkpt>
			<trkpt lat="-27.956712" lon="152.748817">
				<ele>83</ele>
				<time>2015-05-07T06:08:26Z</time>
				<extensions>
				</extensions>
			</trkpt>
			<trkpt lat="-27.956696" lon="152.749104">
				<ele>82</ele>
				<time>2015-05-07T06:08:27Z</time>
				<extensions>
				</extensions>
			</trkpt>
			<trkpt lat="-27.956669" lon="152.749384">
				<ele>83</ele>
				<time>2015-05-07T06:08:28Z</time>
				<extensions>
				</extensions>
			</trkpt>
			<trkpt lat="-27.956624" lon="152.749675">
				<ele>81</ele>
				<time>2015-05-07T06:08:29Z</time>
				<extensions>
				</extensions>
			</trkpt>
			<trkpt lat="-27.956560" lon="152.749972">
				<ele>81</ele>
				<time>2015-05-07T06:08:30Z</time>
				<extensions>
				</extensions>
			</trkpt>
			<trkpt lat="-27.956461" lon="152.750217">
				<ele>83</ele>
				<time>2015-05-07T06:08:31Z</time>
				<extensions>
				</extensions>
			</trkpt>
			<trkpt lat="-27.956368" lon="152.750443">
				<ele>85</ele>
				<time>2015-05-07T06:08:32Z</time>
				<extensions>
				</extensions>
			</trkpt>
			<trkpt lat="-27.956239" lon="152.750703">
				<ele>87</ele>
				<time>2015-05-07T06:08:33Z</time>
				<extensions>
				</extensions>
			</trkpt>
			<trkpt lat="-27.956115" lon="152.750942">
				<ele>88</ele>
				<time>2015-05-07T06:08:34Z</time>
				<extensions>
				</extensions>
			</trkpt>
			<trkpt lat="-27.955978" lon="152.751177">
				<ele>90</ele>
				<time>2015-05-07T06:08:35Z</time>
				<extensions>
				</extensions>
			</trkpt>
			<trkpt lat="-27.955818" lon="152.751400">
				<ele>91</ele>
				<time>2015-05-07T06:08:36Z</time>
				<extensions>
				</extensions>
			</trkpt>
			<trkpt lat="-27.955667" lon="152.751603">
				<ele>90</ele>
				<time>2015-05-07T06:08:37Z</time>
				<extensions>
				</extensions>
			</trkpt>
			<trkpt lat="-27.955499" lon="152.751765">
				<ele>92</ele>
				<time>2015-05-07T06:08:38Z</time>
				<extensions>
				</extensions>
			</trkpt>
			<trkpt lat="-27.955321" lon="152.751950">
				<ele>93</ele>
				<time>2015-05-07T06:08:39Z</time>
				<extensions>
				</extensions>
			</trkpt>
			<trkpt lat="-27.955129" lon="152.752120">
				<ele>95</ele>
				<time>2015-05-07T06:08:40Z</time>
				<extensions>
				</extensions>
			</trkpt>
			<trkpt lat="-27.954934" lon="152.752274">
				<ele>96</ele>
				<time>2015-05-07T06:08:41Z</time>
				<extensions>
				</extensions>
			</trkpt>
			<trkpt lat="-27.954734" lon="152.752418">
				<ele>96</ele>
				<time>2015-05-07T06:08:42Z</time>
				<extensions>
				</extensions>
			</trkpt>
			<trkpt lat="-27.954533" lon="152.752523">
				<ele>95</ele>
				<time>2015-05-07T06:08:43Z</time>
				<extensions>
				</extensions>
			</trkpt>
			<trkpt lat="-27.954321" lon="152.752637">
				<ele>94</ele>
				<time>2015-05-07T06:08:44Z</time>
				<extensions>
				</extensions>
			</trkpt>
			<trkpt lat="-27.954096" lon="152.752734">
				<ele>93</ele>
				<time>2015-05-07T06:08:45Z</time>
				<extensions>
				</extensions>
			</trkpt>
			<trkpt lat="-27.953878" lon="152.752818">
				<ele>92</ele>
				<time>2015-05-07T06:08:46Z</time>
				<extensions>
				</extensions>
			</trkpt>
			<trkpt lat="-27.953623" lon="152.752884">
				<ele>90</ele>
				<time>2015-05-07T06:08:47Z</time>
				<extensions>
				</extensions>
			</trkpt>
			<trkpt lat="-27.953366" lon="152.752953">
				<ele>90</ele>
				<time>2015-05-07T06:08:48Z</time>
				<extensions>
				</extensions>
			</trkpt>
			<trkpt lat="-27.953115" lon="152.753022">
				<ele>90</ele>
				<time>2015-05-07T06:08:49Z</time>
				<extensions>
				</extensions>
			</trkpt>
			<trkpt lat="-27.952875" lon="152.753067">
				<ele>89</ele>
				<time>2015-05-07T06:08:50Z</time>
				<extensions>
				</extensions>
			</trkpt>
			<trkpt lat="-27.952617" lon="152.753119">
				<ele>88</ele>
				<time>2015-05-07T06:08:51Z</time>
				<extensions>
				</extensions>
			</trkpt>
			<trkpt lat="-27.952351" lon="152.753171">
				<ele>87</ele>
				<time>2015-05-07T06:08:52Z</time>
				<extensions>
				</extensions>
			</trkpt>
			<trkpt lat="-27.952074" lon="152.753228">
				<ele>86</ele>
				<time>2015-05-07T06:08:53Z</time>
				<extensions>
				</extensions>
			</trkpt>
			<trkpt lat="-27.951816" lon="152.753278">
				<ele>87</ele>
				<time>2015-05-07T06:08:54Z</time>
				<extensions>
				</extensions>
			</trkpt>
			<trkpt lat="-27.951546" lon="152.753336">
				<ele>86</ele>
				<time>2015-05-07T06:08:55Z</time>
				<extensions>
				</extensions>
			</trkpt>
			<trkpt lat="-27.951282" lon="152.753394">
				<ele>87</ele>
				<time>2015-05-07T06:08:56Z</time>
				<extensions>
				</extensions>
			</trkpt>
			<trkpt lat="-27.951049" lon="152.753462">
				<ele>87</ele>
				<time>2015-05-07T06:08:57Z</time>
				<extensions>
				</extensions>
			</trkpt>
			<trkpt lat="-27.950792" lon="152.753532">
				<ele>88</ele>
				<time>2015-05-07T06:08:58Z</time>
				<extensions>
				</extensions>
			</trkpt>
			<trkpt lat="-27.950528" lon="152.753591">
				<ele>89</ele>
				<time>2015-05-07T06:08:59Z</time>
				<extensions>
				</extensions>
			</trkpt>
			<trkpt lat="-27.950287" lon="152.753645">
				<ele>90</ele>
				<time>2015-05-07T06:09:00Z</time>
				<extensions>
				</extensions>
			</trkpt>
			<trkpt lat="-27.950070" lon="152.753694">
				<ele>91</ele>
				<time>2015-05-07T06:09:01Z</time>
				<extensions>
				</extensions>
			</trkpt>
			<trkpt lat="-27.949869" lon="152.753771">
				<ele>90</ele>
				<time>2015-05-07T06:09:02Z</time>
				<extensions>
				</extensions>
			</trkpt>
			<trkpt lat="-27.949640" lon="152.753842">
				<ele>91</ele>
				<time>2015-05-07T06:09:03Z</time>
				<extensions>
				</extensions>
			</trkpt>
			<trkpt lat="-27.949406" lon="152.753926">
				<ele>91</ele>
				<time>2015-05-07T06:09:04Z</time>
				<extensions>
				</extensions>
			</trkpt>
			<trkpt lat="-27.949196" lon="152.754014">
				<ele>92</ele>
				<time>2015-05-07T06:09:05Z</time>
				<extensions>
				</extensions>
			</trkpt>
			<trkpt lat="-27.949008" lon="152.754118">
				<ele>91</ele>
				<time>2015-05-07T06:09:06Z</time>
				<extensions>
				</extensions>
			</trkpt>
			<trkpt lat="-27.948805" lon="152.754238">
				<ele>91</ele>
				<time>2015-05-07T06:09:07Z</time>
				<extensions>
				</extensions>
			</trkpt>
			<trkpt lat="-27.948597" lon="152.754401">
				<ele>91</ele>
				<time>2015-05-07T06:09:08Z</time>
				<extensions>
				</extensions>
			</trkpt>
			<trkpt lat="-27.948400" lon="152.754579">
				<ele>90</ele>
				<time>2015-05-07T06:09:09Z</time>
				<extensions>
				</extensions>
			</trkpt>
			<trkpt lat="-27.948234" lon="152.754768">
				<ele>89</ele>
				<time>2015-05-07T06:09:10Z</time>
				<extensions>
				</extensions>
			</trkpt>
			<trkpt lat="-27.948074" lon="152.754966">
				<ele>88</ele>
				<time>2015-05-07T06:09:11Z</time>
				<extensions>
				</extensions>
			</trkpt>
			<trkpt lat="-27.947945" lon="152.755200">
				<ele>88</ele>
				<time>2015-05-07T06:09:12Z</time>
				<extensions>
				</extensions>
			</trkpt>
			<trkpt lat="-27.947815" lon="152.755434">
				<ele>87</ele>
				<time>2015-05-07T06:09:13Z</time>
				<extensions>
				</extensions>
			</trkpt>
			<trkpt lat="-27.947696" lon="152.755672">
				<ele>86</ele>
				<time>2015-05-07T06:09:14Z</time>
				<extensions>
				</extensions>
			</trkpt>
			<trkpt lat="-27.947607" lon="152.755944">
				<ele>84</ele>
				<time>2015-05-07T06:09:15Z</time>
				<extensions>
				</extensions>
			</trkpt>
			<trkpt lat="-27.947518" lon="152.756204">
				<ele>84</ele>
				<time>2015-05-07T06:09:16Z</time>
				<extensions>
				</extensions>
			</trkpt>
			<trkpt lat="-27.947460" lon="152.756509">
				<ele>86</ele>
				<time>2015-05-07T06:09:17Z</time>
				<extensions>
				</extensions>
			</trkpt>
			<trkpt lat="-27.947383" lon="152.756796">
				<ele>87</ele>
				<time>2015-05-07T06:09:18Z</time>
				<extensions>
				</extensions>
			</trkpt>
			<trkpt lat="-27.947308" lon="152.757070">
				<ele>87</ele>
				<time>2015-05-07T06:09:19Z</time>
				<extensions>
				</extensions>
			</trkpt>
			<trkpt lat="-27.947238" lon="152.757355">
				<ele>86</ele>
				<time>2015-05-07T06:09:20Z</time>
				<extensions>
				</extensions>
			</trkpt>
			<trkpt lat="-27.947173" lon="152.757635">
				<ele>85</ele>
				<time>2015-05-07T06:09:21Z</time>
				<extensions>
				</extensions>
			</trkpt>
			<trkpt lat="-27.947094" lon="152.757918">
				<ele>85</ele>
				<time>2015-05-07T06:09:22Z</time>
				<extensions>
				</extensions>
			</trkpt>
			<trkpt lat="-27.947018" lon="152.758200">
				<ele>84</ele>
				<time>2015-05-07T06:09:23Z</time>
				<extensions>
				</extensions>
			</trkpt>
			<trkpt lat="-27.946952" lon="152.758513">
				<ele>84</ele>
				<time>2015-05-07T06:09:24Z</time>
				<extensions>
				</extensions>
			</trkpt>
			<trkpt lat="-27.946883" lon="152.758834">
				<ele>84</ele>
				<time>2015-05-07T06:09:25Z</time>
				<extensions>
				</extensions>
			</trkpt>
			<trkpt lat="-27.946827" lon="152.759143">
				<ele>83</ele>
				<time>2015-05-07T06:09:26Z</time>
				<extensions>
				</extensions>
			</trkpt>
			<trkpt lat="-27.946754" lon="152.759380">
				<ele>84</ele>
				<time>2015-05-07T06:09:27Z</time>
				<extensions>
				</extensions>
			</trkpt>
			<trkpt lat="-27.946685" lon="152.759595">
				<ele>84</ele>
				<time>2015-05-07T06:09:28Z</time>
				<extensions>
				</extensions>
			</trkpt>
			<trkpt lat="-27.946624" lon="152.759884">
				<ele>85</ele>
				<time>2015-05-07T06:09:29Z</time>
				<extensions>
				</extensions>
			</trkpt>
			<trkpt lat="-27.946557" lon="152.760155">
				<ele>87</ele>
				<time>2015-05-07T06:09:30Z</time>
				<extensions>
				</extensions>
			</trkpt>
			<trkpt lat="-27.946488" lon="152.760352">
				<ele>87</ele>
				<time>2015-05-07T06:09:31Z</time>
				<extensions>
				</extensions>
			</trkpt>
			<trkpt lat="-27.946416" lon="152.760580">
				<ele>87</ele>
				<time>2015-05-07T06:09:32Z</time>
				<extensions>
				</extensions>
			</trkpt>
			<trkpt lat="-27.946347" lon="152.760890">
				<ele>87</ele>
				<time>2015-05-07T06:09:33Z</time>
				<extensions>
				</extensions>
			</trkpt>
			<trkpt lat="-27.946276" lon="152.761156">
				<ele>87</ele>
				<time>2015-05-07T06:09:34Z</time>
				<extensions>
				</extensions>
			</trkpt>
			<trkpt lat="-27.946175" lon="152.761470">
				<ele>88</ele>
				<time>2015-05-07T06:09:35Z</time>
				<extensions>
				</extensions>
			</trkpt>
			<trkpt lat="-27.946095" lon="152.761755">
				<ele>87</ele>
				<time>2015-05-07T06:09:36Z</time>
				<extensions>
				</extensions>
			</trkpt>
			<trkpt lat="-27.946018" lon="152.762018">
				<ele>88</ele>
				<time>2015-05-07T06:09:37Z</time>
				<extensions>
				</extensions>
			</trkpt>
			<trkpt lat="-27.945945" lon="152.762286">
				<ele>88</ele>
				<time>2015-05-07T06:09:38Z</time>
				<extensions>
				</extensions>
			</trkpt>
			<trkpt lat="-27.945870" lon="152.762597">
				<ele>87</ele>
				<time>2015-05-07T06:09:39Z</time>
				<extensions>
				</extensions>
			</trkpt>
			<trkpt lat="-27.945802" lon="152.762867">
				<ele>87</ele>
				<time>2015-05-07T06:09:40Z</time>
				<extensions>
				</extensions>
			</trkpt>
			<trkpt lat="-27.945736" lon="152.763127">
				<ele>87</ele>
				<time>2015-05-07T06:09:41Z</time>
				<extensions>
				</extensions>
			</trkpt>
			<trkpt lat="-27.945664" lon="152.763391">
				<ele>89</ele>
				<time>2015-05-07T06:09:42Z</time>
				<extensions>
				</extensions>
			</trkpt>
			<trkpt lat="-27.945589" lon="152.763688">
				<ele>91</ele>
				<time>2015-05-07T06:09:43Z</time>
				<extensions>
				</extensions>
			</trkpt>
			<trkpt lat="-27.945521" lon="152.763954">
				<ele>92</ele>
				<time>2015-05-07T06:09:44Z</time>
				<extensions>
				</extensions>
			</trkpt>
			<trkpt lat="-27.945440" lon="152.764192">
				<ele>93</ele>
				<time>2015-05-07T06:09:45Z</time>
				<extensions>
				</extensions>
			</trkpt>
			<trkpt lat="-27.945376" lon="152.764462">
				<ele>95</ele>
				<time>2015-05-07T06:09:46Z</time>
				<extensions>
				</extensions>
			</trkpt>
			<trkpt lat="-27.945299" lon="152.764739">
				<ele>95</ele>
				<time>2015-05-07T06:09:47Z</time>
				<extensions>
				</extensions>
			</trkpt>
			<trkpt lat="-27.945246" lon="152.765007">
				<ele>97</ele>
				<time>2015-05-07T06:09:48Z</time>
				<extensions>
				</extensions>
			</trkpt>
			<trkpt lat="-27.945176" lon="152.765275">
				<ele>97</ele>
				<time>2015-05-07T06:09:49Z</time>
				<extensions>
				</extensions>
			</trkpt>
			<trkpt lat="-27.945104" lon="152.765564">
				<ele>98</ele>
				<time>2015-05-07T06:09:50Z</time>
				<extensions>
				</extensions>
			</trkpt>
			<trkpt lat="-27.945027" lon="152.765885">
				<ele>99</ele>
				<time>2015-05-07T06:09:51Z</time>
				<extensions>
				</extensions>
			</trkpt>
			<trkpt lat="-27.944950" lon="152.766169">
				<ele>99</ele>
				<time>2015-05-07T06:09:52Z</time>
				<extensions>
				</extensions>
			</trkpt>
			<trkpt lat="-27.944876" lon="152.766477">
				<ele>98</ele>
				<time>2015-05-07T06:09:53Z</time>
				<extensions>
				</extensions>
			</trkpt>
			<trkpt lat="-27.944792" lon="152.766757">
				<ele>97</ele>
				<time>2015-05-07T06:09:54Z</time>
				<extensions>
				</extensions>
			</trkpt>
			<trkpt lat="-27.944717" lon="152.767033">
				<ele>97</ele>
				<time>2015-05-07T06:09:55Z</time>
				<extensions>
				</extensions>
			</trkpt>
			<trkpt lat="-27.944638" lon="152.767333">
				<ele>97</ele>
				<time>2015-05-07T06:09:56Z</time>
				<extensions>
				</extensions>
			</trkpt>
			<trkpt lat="-27.944573" lon="152.767649">
				<ele>95</ele>
				<time>2015-05-07T06:09:57Z</time>
				<extensions>
				</extensions>
			</trkpt>
			<trkpt lat="-27.944507" lon="152.767942">
				<ele>94</ele>
				<time>2015-05-07T06:09:58Z</time>
				<extensions>
				</extensions>
			</trkpt>
			<trkpt lat="-27.944435" lon="152.768225">
				<ele>93</ele>
				<time>2015-05-07T06:09:59Z</time>
				<extensions>
				</extensions>
			</trkpt>
			<trkpt lat="-27.944338" lon="152.768449">
				<ele>90</ele>
				<time>2015-05-07T06:10:00Z</time>
				<extensions>
				</extensions>
			</trkpt>
			<trkpt lat="-27.944264" lon="152.768705">
				<ele>88</ele>
				<time>2015-05-07T06:10:01Z</time>
				<extensions>
				</extensions>
			</trkpt>
			<trkpt lat="-27.944187" lon="152.768971">
				<ele>85</ele>
				<time>2015-05-07T06:10:02Z</time>
				<extensions>
				</extensions>
			</trkpt>
			<trkpt lat="-27.944113" lon="152.769236">
				<ele>85</ele>
				<time>2015-05-07T06:10:03Z</time>
				<extensions>
				</extensions>
			</trkpt>
			<trkpt lat="-27.944033" lon="152.769456">
				<ele>84</ele>
				<time>2015-05-07T06:10:04Z</time>
				<extensions>
				</extensions>
			</trkpt>
			<trkpt lat="-27.943957" lon="152.769719">
				<ele>85</ele>
				<time>2015-05-07T06:10:05Z</time>
				<extensions>
				</extensions>
			</trkpt>
			<trkpt lat="-27.943894" lon="152.769996">
				<ele>85</ele>
				<time>2015-05-07T06:10:06Z</time>
				<extensions>
				</extensions>
			</trkpt>
			<trkpt lat="-27.943830" lon="152.770284">
				<ele>87</ele>
				<time>2015-05-07T06:10:07Z</time>
				<extensions>
				</extensions>
			</trkpt>
			<trkpt lat="-27.943758" lon="152.770559">
				<ele>87</ele>
				<time>2015-05-07T06:10:08Z</time>
				<extensions>
				</extensions>
			</trkpt>
			<trkpt lat="-27.943698" lon="152.770855">
				<ele>87</ele>
				<time>2015-05-07T06:10:09Z</time>
				<extensions>
				</extensions>
			</trkpt>
			<trkpt lat="-27.943631" lon="152.771131">
				<ele>88</ele>
				<time>2015-05-07T06:10:10Z</time>
				<extensions>
				</extensions>
			</trkpt>
			<trkpt lat="-27.943560" lon="152.771413">
				<ele>89</ele>
				<time>2015-05-07T06:10:11Z</time>
				<extensions>
				</extensions>
			</trkpt>
			<trkpt lat="-27.943491" lon="152.771673">
				<ele>90</ele>
				<time>2015-05-07T06:10:12Z</time>
				<extensions>
				</extensions>
			</trkpt>
			<trkpt lat="-27.943427" lon="152.771983">
				<ele>91</ele>
				<time>2015-05-07T06:10:13Z</time>
				<extensions>
				</extensions>
			</trkpt>
			<trkpt lat="-27.943377" lon="152.772273">
				<ele>93</ele>
				<time>2015-05-07T06:10:14Z</time>
				<extensions>
				</extensions>
			</trkpt>
			<trkpt lat="-27.943323" lon="152.772565">
				<ele>95</ele>
				<time>2015-05-07T06:10:15Z</time>
				<extensions>
				</extensions>
			</trkpt>
			<trkpt lat="-27.943284" lon="152.772845">
				<ele>96</ele>
				<time>2015-05-07T06:10:16Z</time>
				<extensions>
				</extensions>
			</trkpt>
			<trkpt lat="-27.943238" lon="152.773128">
				<ele>99</ele>
				<time>2015-05-07T06:10:17Z</time>
				<extensions>
				</extensions>
			</trkpt>
			<trkpt lat="-27.943202" lon="152.773393">
				<ele>99</ele>
				<time>2015-05-07T06:10:18Z</time>
				<extensions>
				</extensions>
			</trkpt>
			<trkpt lat="-27.943173" lon="152.773679">
				<ele>99</ele>
				<time>2015-05-07T06:10:19Z</time>
				<extensions>
				</extensions>
			</trkpt>
			<trkpt lat="-27.943152" lon="152.773974">
				<ele>101</ele>
				<time>2015-05-07T06:10:20Z</time>
				<extensions>
				</extensions>
			</trkpt>
			<trkpt lat="-27.943134" lon="152.774252">
				<ele>102</ele>
				<time>2015-05-07T06:10:21Z</time>
				<extensions>
				</extensions>
			</trkpt>
			<trkpt lat="-27.943131" lon="152.774523">
				<ele>102</ele>
				<time>2015-05-07T06:10:22Z</time>
				<extensions>
				</extensions>
			</trkpt>
			<trkpt lat="-27.943113" lon="152.774803">
				<ele>105</ele>
				<time>2015-05-07T06:10:23Z</time>
				<extensions>
				</extensions>
			</trkpt>
			<trkpt lat="-27.943088" lon="152.775073">
				<ele>105</ele>
				<time>2015-05-07T06:10:24Z</time>
				<extensions>
				</extensions>
			</trkpt>
			<trkpt lat="-27.943063" lon="152.775352">
				<ele>107</ele>
				<time>2015-05-07T06:10:25Z</time>
				<extensions>
				</extensions>
			</trkpt>
			<trkpt lat="-27.943004" lon="152.775626">
				<ele>107</ele>
				<time>2015-05-07T06:10:26Z</time>
				<extensions>
				</extensions>
			</trkpt>
			<trkpt lat="-27.942953" lon="152.775908">
				<ele>109</ele>
				<time>2015-05-07T06:10:27Z</time>
				<extensions>
				</extensions>
			</trkpt>
			<trkpt lat="-27.942898" lon="152.776181">
				<ele>109</ele>
				<time>2015-05-07T06:10:28Z</time>
				<extensions>
				</extensions>
			</trkpt>
			<trkpt lat="-27.942814" lon="152.776429">
				<ele>110</ele>
				<time>2015-05-07T06:10:29Z</time>
				<extensions>
				</extensions>
			</trkpt>
			<trkpt lat="-27.942744" lon="152.776703">
				<ele>112</ele>
				<time>2015-05-07T06:10:30Z</time>
				<extensions>
				</extensions>
			</trkpt>
			<trkpt lat="-27.942663" lon="152.776954">
				<ele>112</ele>
				<time>2015-05-07T06:10:31Z</time>
				<extensions>
				</extensions>
			</trkpt>
			<trkpt lat="-27.942563" lon="152.777219">
				<ele>114</ele>
				<time>2015-05-07T06:10:32Z</time>
				<extensions>
				</extensions>
			</trkpt>
			<trkpt lat="-27.942457" lon="152.777476">
				<ele>114</ele>
				<time>2015-05-07T06:10:33Z</time>
				<extensions>
				</extensions>
			</trkpt>
			<trkpt lat="-27.942325" lon="152.777727">
				<ele>115</ele>
				<time>2015-05-07T06:10:34Z</time>
				<extensions>
				</extensions>
			</trkpt>
			<trkpt lat="-27.942196" lon="152.777974">
				<ele>116</ele>
				<time>2015-05-07T06:10:35Z</time>
				<extensions>
				</extensions>
			</trkpt>
			<trkpt lat="-27.942060" lon="152.778220">
				<ele>116</ele>
				<time>2015-05-07T06:10:36Z</time>
				<extensions>
				</extensions>
			</trkpt>
			<trkpt lat="-27.941891" lon="152.778445">
				<ele>115</ele>
				<time>2015-05-07T06:10:37Z</time>
				<extensions>
				</extensions>
			</trkpt>
			<trkpt lat="-27.941741" lon="152.778659">
				<ele>116</ele>
				<time>2015-05-07T06:10:38Z</time>
				<extensions>
				</extensions>
			</trkpt>
			<trkpt lat="-27.941566" lon="152.778874">
				<ele>116</ele>
				<time>2015-05-07T06:10:39Z</time>
				<extensions>
				</extensions>
			</trkpt>
			<trkpt lat="-27.941389" lon="152.779079">
				<ele>116</ele>
				<time>2015-05-07T06:10:40Z</time>
				<extensions>
				</extensions>
			</trkpt>
			<trkpt lat="-27.941209" lon="152.779277">
				<ele>117</ele>
				<time>2015-05-07T06:10:41Z</time>
				<extensions>
				</extensions>
			</trkpt>
			<trkpt lat="-27.941022" lon="152.779464">
				<ele>116</ele>
				<time>2015-05-07T06:10:42Z</time>
				<extensions>
				</extensions>
			</trkpt>
			<trkpt lat="-27.940827" lon="152.779642">
				<ele>116</ele>
				<time>2015-05-07T06:10:43Z</time>
				<extensions>
				</extensions>
			</trkpt>
			<trkpt lat="-27.940623" lon="152.779814">
				<ele>115</ele>
				<time>2015-05-07T06:10:44Z</time>
				<extensions>
				</extensions>
			</trkpt>
			<trkpt lat="-27.940413" lon="152.779969">
				<ele>116</ele>
				<time>2015-05-07T06:10:45Z</time>
				<extensions>
				</extensions>
			</trkpt>
			<trkpt lat="-27.940190" lon="152.780110">
				<ele>117</ele>
				<time>2015-05-07T06:10:46Z</time>
				<extensions>
				</extensions>
			</trkpt>
			<trkpt lat="-27.939973" lon="152.780239">
				<ele>117</ele>
				<time>2015-05-07T06:10:47Z</time>
				<extensions>
				</extensions>
			</trkpt>
			<trkpt lat="-27.939742" lon="152.780360">
				<ele>118</ele>
				<time>2015-05-07T06:10:48Z</time>
				<extensions>
				</extensions>
			</trkpt>
			<trkpt lat="-27.939510" lon="152.780474">
				<ele>117</ele>
				<time>2015-05-07T06:10:49Z</time>
				<extensions>
				</extensions>
			</trkpt>
			<trkpt lat="-27.939253" lon="152.780575">
				<ele>118</ele>
				<time>2015-05-07T06:10:50Z</time>
				<extensions>
				</extensions>
			</trkpt>
			<trkpt lat="-27.939008" lon="152.780657">
				<ele>118</ele>
				<time>2015-05-07T06:10:51Z</time>
				<extensions>
				</extensions>
			</trkpt>
			<trkpt lat="-27.938752" lon="152.780728">
				<ele>119</ele>
				<time>2015-05-07T06:10:52Z</time>
				<extensions>
				</extensions>
			</trkpt>
			<trkpt lat="-27.938492" lon="152.780791">
				<ele>119</ele>
				<time>2015-05-07T06:10:53Z</time>
				<extensions>
				</extensions>
			</trkpt>
			<trkpt lat="-27.938234" lon="152.780847">
				<ele>119</ele>
				<time>2015-05-07T06:10:54Z</time>
				<extensions>
				</extensions>
			</trkpt>
			<trkpt lat="-27.937949" lon="152.780888">
				<ele>118</ele>
				<time>2015-05-07T06:10:55Z</time>
				<extensions>
				</extensions>
			</trkpt>
			<trkpt lat="-27.937679" lon="152.780928">
				<ele>118</ele>
				<time>2015-05-07T06:10:56Z</time>
				<extensions>
				</extensions>
			</trkpt>
			<trkpt lat="-27.937412" lon="152.780948">
				<ele>117</ele>
				<time>2015-05-07T06:10:57Z</time>
				<extensions>
				</extensions>
			</trkpt>
			<trkpt lat="-27.937154" lon="152.780966">
				<ele>115</ele>
				<time>2015-05-07T06:10:58Z</time>
				<extensions>
				</extensions>
			</trkpt>
			<trkpt lat="-27.936905" lon="152.780969">
				<ele>114</ele>
				<time>2015-05-07T06:10:59Z</time>
				<extensions>
				</extensions>
			</trkpt>
			<trkpt lat="-27.936639" lon="152.780989">
				<ele>113</ele>
				<time>2015-05-07T06:11:00Z</time>
				<extensions>
				</extensions>
			</trkpt>
			<trkpt lat="-27.936388" lon="152.781005">
				<ele>112</ele>
				<time>2015-05-07T06:11:01Z</time>
				<extensions>
				</extensions>
			</trkpt>
			<trkpt lat="-27.936136" lon="152.781023">
				<ele>112</ele>
				<time>2015-05-07T06:11:02Z</time>
				<extensions>
				</extensions>
			</trkpt>
			<trkpt lat="-27.935881" lon="152.781051">
				<ele>110</ele>
				<time>2015-05-07T06:11:03Z</time>
				<extensions>
				</extensions>
			</trkpt>
			<trkpt lat="-27.935632" lon="152.781092">
				<ele>107</ele>
				<time>2015-05-07T06:11:04Z</time>
				<extensions>
				</extensions>
			</trkpt>
			<trkpt lat="-27.935394" lon="152.781143">
				<ele>105</ele>
				<time>2015-05-07T06:11:05Z</time>
				<extensions>
				</extensions>
			</trkpt>
			<trkpt lat="-27.935164" lon="152.781181">
				<ele>105</ele>
				<time>2015-05-07T06:11:06Z</time>
				<extensions>
				</extensions>
			</trkpt>
			<trkpt lat="-27.934912" lon="152.781235">
				<ele>103</ele>
				<time>2015-05-07T06:11:07Z</time>
				<extensions>
				</extensions>
			</trkpt>
			<trkpt lat="-27.934675" lon="152.781295">
				<ele>103</ele>
				<time>2015-05-07T06:11:08Z</time>
				<extensions>
				</extensions>
			</trkpt>
			<trkpt lat="-27.934451" lon="152.781390">
				<ele>103</ele>
				<time>2015-05-07T06:11:09Z</time>
				<extensions>
				</extensions>
			</trkpt>
			<trkpt lat="-27.934213" lon="152.781486">
				<ele>103</ele>
				<time>2015-05-07T06:11:10Z</time>
				<extensions>
				</extensions>
			</trkpt>
			<trkpt lat="-27.933971" lon="152.781593">
				<ele>102</ele>
				<time>2015-05-07T06:11:11Z</time>
				<extensions>
				</extensions>
			</trkpt>
			<trkpt lat="-27.933744" lon="152.781705">
				<ele>101</ele>
				<time>2015-05-07T06:11:12Z</time>
				<extensions>
				</extensions>
			</trkpt>
			<trkpt lat="-27.933518" lon="152.781827">
				<ele>98</ele>
				<time>2015-05-07T06:11:13Z</time>
				<extensions>
				</extensions>
			</trkpt>
			<trkpt lat="-27.933302" lon="152.781959">
				<ele>96</ele>
				<time>2015-05-07T06:11:14Z</time>
				<extensions>
				</extensions>
			</trkpt>
			<trkpt lat="-27.933096" lon="152.782091">
				<ele>94</ele>
				<time>2015-05-07T06:11:15Z</time>
				<extensions>
				</extensions>
			</trkpt>
			<trkpt lat="-27.932896" lon="152.782220">
				<ele>94</ele>
				<time>2015-05-07T06:11:16Z</time>
				<extensions>
				</extensions>
			</trkpt>
			<trkpt lat="-27.932689" lon="152.782381">
				<ele>92</ele>
				<time>2015-05-07T06:11:17Z</time>
				<extensions>
				</extensions>
			</trkpt>
			<trkpt lat="-27.932486" lon="152.782549">
				<ele>90</ele>
				<time>2015-05-07T06:11:18Z</time>
				<extensions>
				</extensions>
			</trkpt>
			<trkpt lat="-27.932288" lon="152.782719">
				<ele>90</ele>
				<time>2015-05-07T06:11:19Z</time>
				<extensions>
				</extensions>
			</trkpt>
			<trkpt lat="-27.932095" lon="152.782912">
				<ele>89</ele>
				<time>2015-05-07T06:11:20Z</time>
				<extensions>
				</extensions>
			</trkpt>
			<trkpt lat="-27.931915" lon="152.783102">
				<ele>88</ele>
				<time>2015-05-07T06:11:21Z</time>
				<extensions>
				</extensions>
			</trkpt>
			<trkpt lat="-27.931721" lon="152.783304">
				<ele>86</ele>
				<time>2015-05-07T06:11:22Z</time>
				<extensions>
				</extensions>
			</trkpt>
			<trkpt lat="-27.931546" lon="152.783513">
				<ele>85</ele>
				<time>2015-05-07T06:11:23Z</time>
				<extensions>
				</extensions>
			</trkpt>
			<trkpt lat="-27.931359" lon="152.783734">
				<ele>84</ele>
				<time>2015-05-07T06:11:24Z</time>
				<extensions>
				</extensions>
			</trkpt>
			<trkpt lat="-27.931188" lon="152.783942">
				<ele>83</ele>
				<time>2015-05-07T06:11:25Z</time>
				<extensions>
				</extensions>
			</trkpt>
			<trkpt lat="-27.931031" lon="152.784142">
				<ele>84</ele>
				<time>2015-05-07T06:11:26Z</time>
				<extensions>
				</extensions>
			</trkpt>
			<trkpt lat="-27.930873" lon="152.784342">
				<ele>83</ele>
				<time>2015-05-07T06:11:27Z</time>
				<extensions>
				</extensions>
			</trkpt>
			<trkpt lat="-27.930707" lon="152.784557">
				<ele>81</ele>
				<time>2015-05-07T06:11:28Z</time>
				<extensions>
				</extensions>
			</trkpt>
			<trkpt lat="-27.930543" lon="152.784758">
				<ele>81</ele>
				<time>2015-05-07T06:11:29Z</time>
				<extensions>
				</extensions>
			</trkpt>
			<trkpt lat="-27.930372" lon="152.784971">
				<ele>81</ele>
				<time>2015-05-07T06:11:30Z</time>
				<extensions>
				</extensions>
			</trkpt>
			<trkpt lat="-27.930212" lon="152.785180">
				<ele>82</ele>
				<time>2015-05-07T06:11:31Z</time>
				<extensions>
				</extensions>
			</trkpt>
			<trkpt lat="-27.930048" lon="152.785396">
				<ele>82</ele>
				<time>2015-05-07T06:11:32Z</time>
				<extensions>
				</extensions>
			</trkpt>
			<trkpt lat="-27.929865" lon="152.785620">
				<ele>83</ele>
				<time>2015-05-07T06:11:33Z</time>
				<extensions>
				</extensions>
			</trkpt>
			<trkpt lat="-27.929695" lon="152.785838">
				<ele>84</ele>
				<time>2015-05-07T06:11:34Z</time>
				<extensions>
				</extensions>
			</trkpt>
			<trkpt lat="-27.929522" lon="152.786056">
				<ele>84</ele>
				<time>2015-05-07T06:11:35Z</time>
				<extensions>
				</extensions>
			</trkpt>
			<trkpt lat="-27.929368" lon="152.786266">
				<ele>83</ele>
				<time>2015-05-07T06:11:36Z</time>
				<extensions>
				</extensions>
			</trkpt>
			<trkpt lat="-27.929214" lon="152.786491">
				<ele>82</ele>
				<time>2015-05-07T06:11:37Z</time>
				<extensions>
				</extensions>
			</trkpt>
			<trkpt lat="-27.929067" lon="152.786713">
				<ele>82</ele>
				<time>2015-05-07T06:11:38Z</time>
				<extensions>
				</extensions>
			</trkpt>
			<trkpt lat="-27.928917" lon="152.786947">
				<ele>83</ele>
				<time>2015-05-07T06:11:39Z</time>
				<extensions>
				</extensions>
			</trkpt>
			<trkpt lat="-27.928789" lon="152.787198">
				<ele>84</ele>
				<time>2015-05-07T06:11:40Z</time>
				<extensions>
				</extensions>
			</trkpt>
			<trkpt lat="-27.928659" lon="152.787453">
				<ele>84</ele>
				<time>2015-05-07T06:11:41Z</time>
				<extensions>
				</extensions>
			</trkpt>
			<trkpt lat="-27.928541" lon="152.787719">
				<ele>85</ele>
				<time>2015-05-07T06:11:42Z</time>
				<extensions>
				</extensions>
			</trkpt>
			<trkpt lat="-27.928433" lon="152.787981">
				<ele>84</ele>
				<time>2015-05-07T06:11:43Z</time>
				<extensions>
				</extensions>
			</trkpt>
			<trkpt lat="-27.928332" lon="152.788245">
				<ele>86</ele>
				<time>2015-05-07T06:11:44Z</time>
				<extensions>
				</extensions>
			</trkpt>
			<trkpt lat="-27.928239" lon="152.788514">
				<ele>88</ele>
				<time>2015-05-07T06:11:45Z</time>
				<extensions>
				</extensions>
			</trkpt>
			<trkpt lat="-27.928157" lon="152.788784">
				<ele>88</ele>
				<time>2015-05-07T06:11:46Z</time>
				<extensions>
				</extensions>
			</trkpt>
			<trkpt lat="-27.928077" lon="152.789062">
				<ele>90</ele>
				<time>2015-05-07T06:11:47Z</time>
				<extensions>
				</extensions>
			</trkpt>
			<trkpt lat="-27.928017" lon="152.789345">
				<ele>90</ele>
				<time>2015-05-07T06:11:48Z</time>
				<extensions>
				</extensions>
			</trkpt>
			<trkpt lat="-27.927955" lon="152.789622">
				<ele>90</ele>
				<time>2015-05-07T06:11:49Z</time>
				<extensions>
				</extensions>
			</trkpt>
			<trkpt lat="-27.927912" lon="152.789912">
				<ele>90</ele>
				<time>2015-05-07T06:11:50Z</time>
				<extensions>
				</extensions>
			</trkpt>
			<trkpt lat="-27.927879" lon="152.790204">
				<ele>89</ele>
				<time>2015-05-07T06:11:51Z</time>
				<extensions>
				</extensions>
			</trkpt>
			<trkpt lat="-27.927847" lon="152.790491">
				<ele>88</ele>
				<time>2015-05-07T06:11:52Z</time>
				<extensions>
				</extensions>
			</trkpt>
			<trkpt lat="-27.927825" lon="152.790789">
				<ele>87</ele>
				<time>2015-05-07T06:11:53Z</time>
				<extensions>
				</extensions>
			</trkpt>
			<trkpt lat="-27.927813" lon="152.791082">
				<ele>88</ele>
				<time>2015-05-07T06:11:54Z</time>
				<extensions>
				</extensions>
			</trkpt>
			<trkpt lat="-27.927809" lon="152.791374">
				<ele>88</ele>
				<time>2015-05-07T06:11:55Z</time>
				<extensions>
				</extensions>
			</trkpt>
			<trkpt lat="-27.927820" lon="152.791685">
				<ele>87</ele>
				<time>2015-05-07T06:11:56Z</time>
				<extensions>
				</extensions>
			</trkpt>
			<trkpt lat="-27.927854" lon="152.791981">
				<ele>87</ele>
				<time>2015-05-07T06:11:57Z</time>
				<extensions>
				</extensions>
			</trkpt>
			<trkpt lat="-27.927889" lon="152.792265">
				<ele>87</ele>
				<time>2015-05-07T06:11:58Z</time>
				<extensions>
				</extensions>
			</trkpt>
			<trkpt lat="-27.927935" lon="152.792555">
				<ele>87</ele>
				<time>2015-05-07T06:11:59Z</time>
				<extensions>
				</extensions>
			</trkpt>
			<trkpt lat="-27.927990" lon="152.792843">
				<ele>85</ele>
				<time>2015-05-07T06:12:00Z</time>
				<extensions>
				</extensions>
			</trkpt>
			<trkpt lat="-27.928054" lon="152.793133">
				<ele>86</ele>
				<time>2015-05-07T06:12:01Z</time>
				<extensions>
				</extensions>
			</trkpt>
			<trkpt lat="-27.928125" lon="152.793423">
				<ele>87</ele>
				<time>2015-05-07T06:12:02Z</time>
				<extensions>
				</extensions>
			</trkpt>
			<trkpt lat="-27.928220" lon="152.793707">
				<ele>88</ele>
				<time>2015-05-07T06:12:03Z</time>
				<extensions>
				</extensions>
			</trkpt>
			<trkpt lat="-27.928300" lon="152.793997">
				<ele>89</ele>
				<time>2015-05-07T06:12:04Z</time>
				<extensions>
				</extensions>
			</trkpt>
			<trkpt lat="-27.928390" lon="152.794255">
				<ele>91</ele>
				<time>2015-05-07T06:12:05Z</time>
				<extensions>
				</extensions>
			</trkpt>
			<trkpt lat="-27.928471" lon="152.794530">
				<ele>92</ele>
				<time>2015-05-07T06:12:06Z</time>
				<extensions>
				</extensions>
			</trkpt>
			<trkpt lat="-27.928566" lon="152.794823">
				<ele>93</ele>
				<time>2015-05-07T06:12:07Z</time>
				<extensions>
				</extensions>
			</trkpt>
			<trkpt lat="-27.928667" lon="152.795094">
				<ele>93</ele>
				<time>2015-05-07T06:12:08Z</time>
				<extensions>
				</extensions>
			</trkpt>
			<trkpt lat="-27.928762" lon="152.795372">
				<ele>94</ele>
				<time>2015-05-07T06:12:09Z</time>
				<extensions>
				</extensions>
			</trkpt>
			<trkpt lat="-27.928854" lon="152.795649">
				<ele>96</ele>
				<time>2015-05-07T06:12:10Z</time>
				<extensions>
				</extensions>
			</trkpt>
			<trkpt lat="-27.928940" lon="152.795930">
				<ele>96</ele>
				<time>2015-05-07T06:12:11Z</time>
				<extensions>
				</extensions>
			</trkpt>
			<trkpt lat="-27.929024" lon="152.796204">
				<ele>96</ele>
				<time>2015-05-07T06:12:12Z</time>
				<extensions>
				</extensions>
			</trkpt>
			<trkpt lat="-27.929117" lon="152.796469">
				<ele>96</ele>
				<time>2015-05-07T06:12:13Z</time>
				<extensions>
				</extensions>
			</trkpt>
			<trkpt lat="-27.929209" lon="152.796745">
				<ele>97</ele>
				<time>2015-05-07T06:12:14Z</time>
				<extensions>
				</extensions>
			</trkpt>
			<trkpt lat="-27.929300" lon="152.796989">
				<ele>98</ele>
				<time>2015-05-07T06:12:15Z</time>
				<extensions>
				</extensions>
			</trkpt>
			<trkpt lat="-27.929384" lon="152.797244">
				<ele>99</ele>
				<time>2015-05-07T06:12:16Z</time>
				<extensions>
				</extensions>
			</trkpt>
			<trkpt lat="-27.929460" lon="152.797498">
				<ele>100</ele>
				<time>2015-05-07T06:12:17Z</time>
				<extensions>
				</extensions>
			</trkpt>
			<trkpt lat="-27.929549" lon="152.797746">
				<ele>100</ele>
				<time>2015-05-07T06:12:18Z</time>
				<extensions>
				</extensions>
			</trkpt>
			<trkpt lat="-27.929635" lon="152.798021">
				<ele>101</ele>
				<time>2015-05-07T06:12:19Z</time>
				<extensions>
				</extensions>
			</trkpt>
			<trkpt lat="-27.929715" lon="152.798288">
				<ele>101</ele>
				<time>2015-05-07T06:12:20Z</time>
				<extensions>
				</extensions>
			</trkpt>
			<trkpt lat="-27.929798" lon="152.798544">
				<ele>104</ele>
				<time>2015-05-07T06:12:21Z</time>
				<extensions>
				</extensions>
			</trkpt>
			<trkpt lat="-27.929880" lon="152.798802">
				<ele>104</ele>
				<time>2015-05-07T06:12:22Z</time>
				<extensions>
				</extensions>
			</trkpt>
			<trkpt lat="-27.929959" lon="152.799074">
				<ele>106</ele>
				<time>2015-05-07T06:12:23Z</time>
				<extensions>
				</extensions>
			</trkpt>
			<trkpt lat="-27.930032" lon="152.799349">
				<ele>107</ele>
				<time>2015-05-07T06:12:24Z</time>
				<extensions>
				</extensions>
			</trkpt>
			<trkpt lat="-27.930125" lon="152.799637">
				<ele>107</ele>
				<time>2015-05-07T06:12:25Z</time>
				<extensions>
				</extensions>
			</trkpt>
			<trkpt lat="-27.930179" lon="152.799905">
				<ele>108</ele>
				<time>2015-05-07T06:12:26Z</time>
				<extensions>
				</extensions>
			</trkpt>
			<trkpt lat="-27.930273" lon="152.800193">
				<ele>109</ele>
				<time>2015-05-07T06:12:27Z</time>
				<extensions>
				</extensions>
			</trkpt>
			<trkpt lat="-27.930345" lon="152.800476">
				<ele>109</ele>
				<time>2015-05-07T06:12:28Z</time>
				<extensions>
				</extensions>
			</trkpt>
			<trkpt lat="-27.930418" lon="152.800748">
				<ele>109</ele>
				<time>2015-05-07T06:12:29Z</time>
				<extensions>
				</extensions>
			</trkpt>
			<trkpt lat="-27.930486" lon="152.801024">
				<ele>109</ele>
				<time>2015-05-07T06:12:30Z</time>
				<extensions>
				</extensions>
			</trkpt>
			<trkpt lat="-27.930555" lon="152.801294">
				<ele>109</ele>
				<time>2015-05-07T06:12:31Z</time>
				<extensions>
				</extensions>
			</trkpt>
			<trkpt lat="-27.930628" lon="152.801553">
				<ele>109</ele>
				<time>2015-05-07T06:12:32Z</time>
				<extensions>
				</extensions>
			</trkpt>
			<trkpt lat="-27.930703" lon="152.801826">
				<ele>110</ele>
				<time>2015-05-07T06:12:33Z</time>
				<extensions>
				</extensions>
			</trkpt>
			<trkpt lat="-27.930758" lon="152.802108">
				<ele>111</ele>
				<time>2015-05-07T06:12:34Z</time>
				<extensions>
				</extensions>
			</trkpt>
			<trkpt lat="-27.930820" lon="152.802396">
				<ele>111</ele>
				<time>2015-05-07T06:12:35Z</time>
				<extensions>
				</extensions>
			</trkpt>
			<trkpt lat="-27.930881" lon="152.802705">
				<ele>113</ele>
				<time>2015-05-07T06:12:36Z</time>
				<extensions>
				</extensions>
			</trkpt>
			<trkpt lat="-27.930939" lon="152.803001">
				<ele>112</ele>
				<time>2015-05-07T06:12:37Z</time>
				<extensions>
				</extensions>
			</trkpt>
			<trkpt lat="-27.930981" lon="152.803306">
				<ele>113</ele>
				<time>2015-05-07T06:12:38Z</time>
				<extensions>
				</extensions>
			</trkpt>
			<trkpt lat="-27.931017" lon="152.803592">
				<ele>112</ele>
				<time>2015-05-07T06:12:39Z</time>
				<extensions>
				</extensions>
			</trkpt>
			<trkpt lat="-27.931070" lon="152.803890">
				<ele>111</ele>
				<time>2015-05-07T06:12:40Z</time>
				<extensions>
				</extensions>
			</trkpt>
			<trkpt lat="-27.931113" lon="152.804180">
				<ele>110</ele>
				<time>2015-05-07T06:12:41Z</time>
				<extensions>
				</extensions>
			</trkpt>
			<trkpt lat="-27.931158" lon="152.804457">
				<ele>108</ele>
				<time>2015-05-07T06:12:42Z</time>
				<extensions>
				</extensions>
			</trkpt>
			<trkpt lat="-27.931204" lon="152.804739">
				<ele>107</ele>
				<time>2015-05-07T06:12:43Z</time>
				<extensions>
				</extensions>
			</trkpt>
			<trkpt lat="-27.931242" lon="152.805033">
				<ele>106</ele>
				<time>2015-05-07T06:12:44Z</time>
				<extensions>
				</extensions>
			</trkpt>
			<trkpt lat="-27.931273" lon="152.805298">
				<ele>105</ele>
				<time>2015-05-07T06:12:45Z</time>
				<extensions>
				</extensions>
			</trkpt>
			<trkpt lat="-27.931312" lon="152.805580">
				<ele>106</ele>
				<time>2015-05-07T06:12:46Z</time>
				<extensions>
				</extensions>
			</trkpt>
			<trkpt lat="-27.931356" lon="152.805883">
				<ele>106</ele>
				<time>2015-05-07T06:12:47Z</time>
				<extensions>
				</extensions>
			</trkpt>
			<trkpt lat="-27.931400" lon="152.806181">
				<ele>107</ele>
				<time>2015-05-07T06:12:48Z</time>
				<extensions>
				</extensions>
			</trkpt>
			<trkpt lat="-27.931418" lon="152.806454">
				<ele>108</ele>
				<time>2015-05-07T06:12:49Z</time>
				<extensions>
				</extensions>
			</trkpt>
			<trkpt lat="-27.931445" lon="152.806741">
				<ele>108</ele>
				<time>2015-05-07T06:12:50Z</time>
				<extensions>
				</extensions>
			</trkpt>
			<trkpt lat="-27.931464" lon="152.807030">
				<ele>108</ele>
				<time>2015-05-07T06:12:51Z</time>
				<extensions>
				</extensions>
			</trkpt>
			<trkpt lat="-27.931478" lon="152.807328">
				<ele>108</ele>
				<time>2015-05-07T06:12:52Z</time>
				<extensions>
				</extensions>
			</trkpt>
			<trkpt lat="-27.931502" lon="152.807623">
				<ele>107</ele>
				<time>2015-05-07T06:12:53Z</time>
				<extensions>
				</extensions>
			</trkpt>
			<trkpt lat="-27.931517" lon="152.807923">
				<ele>104</ele>
				<time>2015-05-07T06:12:54Z</time>
				<extensions>
				</extensions>
			</trkpt>
			<trkpt lat="-27.931541" lon="152.808201">
				<ele>105</ele>
				<time>2015-05-07T06:12:55Z</time>
				<extensions>
				</extensions>
			</trkpt>
			<trkpt lat="-27.931561" lon="152.808494">
				<ele>105</ele>
				<time>2015-05-07T06:12:56Z</time>
				<extensions>
				</extensions>
			</trkpt>
			<trkpt lat="-27.931572" lon="152.808773">
				<ele>104</ele>
				<time>2015-05-07T06:12:57Z</time>
				<extensions>
				</extensions>
			</trkpt>
			<trkpt lat="-27.931587" lon="152.809058">
				<ele>103</ele>
				<time>2015-05-07T06:12:58Z</time>
				<extensions>
				</extensions>
			</trkpt>
			<trkpt lat="-27.931598" lon="152.809362">
				<ele>104</ele>
				<time>2015-05-07T06:12:59Z</time>
				<extensions>
				</extensions>
			</trkpt>
			<trkpt lat="-27.931603" lon="152.809635">
				<ele>105</ele>
				<time>2015-05-07T06:13:00Z</time>
				<extensions>
				</extensions>
			</trkpt>
			<trkpt lat="-27.931611" lon="152.809932">
				<ele>105</ele>
				<time>2015-05-07T06:13:01Z</time>
				<extensions>
				</extensions>
			</trkpt>
			<trkpt lat="-27.931613" lon="152.810208">
				<ele>104</ele>
				<time>2015-05-07T06:13:02Z</time>
				<extensions>
				</extensions>
			</trkpt>
			<trkpt lat="-27.931616" lon="152.810496">
				<ele>105</ele>
				<time>2015-05-07T06:13:03Z</time>
				<extensions>
				</extensions>
			</trkpt>
			<trkpt lat="-27.931615" lon="152.810766">
				<ele>105</ele>
				<time>2015-05-07T06:13:04Z</time>
				<extensions>
				</extensions>
			</trkpt>
			<trkpt lat="-27.931619" lon="152.811072">
				<ele>105</ele>
				<time>2015-05-07T06:13:05Z</time>
				<extensions>
				</extensions>
			</trkpt>
			<trkpt lat="-27.931627" lon="152.811351">
				<ele>106</ele>
				<time>2015-05-07T06:13:06Z</time>
				<extensions>
				</extensions>
			</trkpt>
			<trkpt lat="-27.931622" lon="152.811637">
				<ele>105</ele>
				<time>2015-05-07T06:13:07Z</time>
				<extensions>
				</extensions>
			</trkpt>
			<trkpt lat="-27.931618" lon="152.811929">
				<ele>106</ele>
				<time>2015-05-07T06:13:08Z</time>
				<extensions>
				</extensions>
			</trkpt>
			<trkpt lat="-27.931610" lon="152.812217">
				<ele>107</ele>
				<time>2015-05-07T06:13:09Z</time>
				<extensions>
				</extensions>
			</trkpt>
			<trkpt lat="-27.931596" lon="152.812512">
				<ele>107</ele>
				<time>2015-05-07T06:13:10Z</time>
				<extensions>
				</extensions>
			</trkpt>
			<trkpt lat="-27.931589" lon="152.812800">
				<ele>107</ele>
				<time>2015-05-07T06:13:11Z</time>
				<extensions>
				</extensions>
			</trkpt>
			<trkpt lat="-27.931573" lon="152.813086">
				<ele>107</ele>
				<time>2015-05-07T06:13:12Z</time>
				<extensions>
				</extensions>
			</trkpt>
			<trkpt lat="-27.931579" lon="152.813371">
				<ele>105</ele>
				<time>2015-05-07T06:13:13Z</time>
				<extensions>
				</extensions>
			</trkpt>
			<trkpt lat="-27.931580" lon="152.813652">
				<ele>105</ele>
				<time>2015-05-07T06:13:14Z</time>
				<extensions>
				</extensions>
			</trkpt>
			<trkpt lat="-27.931603" lon="152.813923">
				<ele>106</ele>
				<time>2015-05-07T06:13:15Z</time>
				<extensions>
				</extensions>
			</trkpt>
			<trkpt lat="-27.931610" lon="152.814201">
				<ele>107</ele>
				<time>2015-05-07T06:13:16Z</time>
				<extensions>
				</extensions>
			</trkpt>
			<trkpt lat="-27.931621" lon="152.814484">
				<ele>107</ele>
				<time>2015-05-07T06:13:17Z</time>
				<extensions>
				</extensions>
			</trkpt>
			<trkpt lat="-27.931634" lon="152.814767">
				<ele>107</ele>
				<time>2015-05-07T06:13:18Z</time>
				<extensions>
				</extensions>
			</trkpt>
			<trkpt lat="-27.931644" lon="152.815056">
				<ele>107</ele>
				<time>2015-05-07T06:13:19Z</time>
				<extensions>
				</extensions>
			</trkpt>
			<trkpt lat="-27.931686" lon="152.815350">
				<ele>107</ele>
				<time>2015-05-07T06:13:20Z</time>
				<extensions>
				</extensions>
			</trkpt>
			<trkpt lat="-27.931714" lon="152.815638">
				<ele>107</ele>
				<time>2015-05-07T06:13:21Z</time>
				<extensions>
				</extensions>
			</trkpt>
			<trkpt lat="-27.931753" lon="152.815928">
				<ele>105</ele>
				<time>2015-05-07T06:13:22Z</time>
				<extensions>
				</extensions>
			</trkpt>
			<trkpt lat="-27.931801" lon="152.816198">
				<ele>103</ele>
				<time>2015-05-07T06:13:23Z</time>
				<extensions>
				</extensions>
			</trkpt>
			<trkpt lat="-27.931846" lon="152.816475">
				<ele>103</ele>
				<time>2015-05-07T06:13:24Z</time>
				<extensions>
				</extensions>
			</trkpt>
			<trkpt lat="-27.931916" lon="152.816743">
				<ele>102</ele>
				<time>2015-05-07T06:13:25Z</time>
				<extensions>
				</extensions>
			</trkpt>
			<trkpt lat="-27.931943" lon="152.817035">
				<ele>101</ele>
				<time>2015-05-07T06:13:26Z</time>
				<extensions>
				</extensions>
			</trkpt>
			<trkpt lat="-27.931997" lon="152.817306">
				<ele>101</ele>
				<time>2015-05-07T06:13:27Z</time>
				<extensions>
				</extensions>
			</trkpt>
			<trkpt lat="-27.932051" lon="152.817584">
				<ele>99</ele>
				<time>2015-05-07T06:13:28Z</time>
				<extensions>
				</extensions>
			</trkpt>
			<trkpt lat="-27.932108" lon="152.817852">
				<ele>98</ele>
				<time>2015-05-07T06:13:29Z</time>
				<extensions>
				</extensions>
			</trkpt>
			<trkpt lat="-27.932187" lon="152.818123">
				<ele>97</ele>
				<time>2015-05-07T06:13:30Z</time>
				<extensions>
				</extensions>
			</trkpt>
			<trkpt lat="-27.932261" lon="152.818383">
				<ele>95</ele>
				<time>2015-05-07T06:13:31Z</time>
				<extensions>
				</extensions>
			</trkpt>
			<trkpt lat="-27.932330" lon="152.818659">
				<ele>94</ele>
				<time>2015-05-07T06:13:32Z</time>
				<extensions>
				</extensions>
			</trkpt>
			<trkpt lat="-27.932415" lon="152.818933">
				<ele>93</ele>
				<time>2015-05-07T06:13:33Z</time>
				<extensions>
				</extensions>
			</trkpt>
			<trkpt lat="-27.932506" lon="152.819194">
				<ele>92</ele>
				<time>2015-05-07T06:13:34Z</time>
				<extensions>
				</extensions>
			</trkpt>
			<trkpt lat="-27.932608" lon="152.819480">
				<ele>92</ele>
				<time>2015-05-07T06:13:35Z</time>
				<extensions>
				</extensions>
			</trkpt>
			<trkpt lat="-27.932711" lon="152.819733">
				<ele>92</ele>
				<time>2015-05-07T06:13:36Z</time>
				<extensions>
				</extensions>
			</trkpt>
			<trkpt lat="-27.932814" lon="152.819998">
				<ele>90</ele>
				<time>2015-05-07T06:13:37Z</time>
				<extensions>
				</extensions>
			</trkpt>
			<trkpt lat="-27.932926" lon="152.820248">
				<ele>89</ele>
				<time>2015-05-07T06:13:38Z</time>
				<extensions>
				</extensions>
			</trkpt>
			<trkpt lat="-27.933036" lon="152.820506">
				<ele>89</ele>
				<time>2015-05-07T06:13:39Z</time>
				<extensions>
				</extensions>
			</trkpt>
			<trkpt lat="-27.933150" lon="152.820755">
				<ele>89</ele>
				<time>2015-05-07T06:13:40Z</time>
				<extensions>
				</extensions>
			</trkpt>
			<trkpt lat="-27.933274" lon="152.821016">
				<ele>89</ele>
				<time>2015-05-07T06:13:41Z</time>
				<extensions>
				</extensions>
			</trkpt>
			<trkpt lat="-27.933399" lon="152.821272">
				<ele>90</ele>
				<time>2015-05-07T06:13:42Z</time>
				<extensions>
				</extensions>
			</trkpt>
			<trkpt lat="-27.933520" lon="152.821534">
				<ele>91</ele>
				<time>2015-05-07T06:13:43Z</time>
				<extensions>
				</extensions>
			</trkpt>
			<trkpt lat="-27.933656" lon="152.821765">
				<ele>92</ele>
				<time>2015-05-07T06:13:44Z</time>
				<extensions>
				</extensions>
			</trkpt>
			<trkpt lat="-27.933776" lon="152.822007">
				<ele>91</ele>
				<time>2015-05-07T06:13:45Z</time>
				<extensions>
				</extensions>
			</trkpt>
			<trkpt lat="-27.933920" lon="152.822255">
				<ele>92</ele>
				<time>2015-05-07T06:13:46Z</time>
				<extensions>
				</extensions>
			</trkpt>
			<trkpt lat="-27.934061" lon="152.822494">
				<ele>93</ele>
				<time>2015-05-07T06:13:47Z</time>
				<extensions>
				</extensions>
			</trkpt>
			<trkpt lat="-27.934210" lon="152.822759">
				<ele>94</ele>
				<time>2015-05-07T06:13:48Z</time>
				<extensions>
				</extensions>
			</trkpt>
			<trkpt lat="-27.934354" lon="152.822989">
				<ele>98</ele>
				<time>2015-05-07T06:13:49Z</time>
				<extensions>
				</extensions>
			</trkpt>
			<trkpt lat="-27.934524" lon="152.823244">
				<ele>100</ele>
				<time>2015-05-07T06:13:50Z</time>
				<extensions>
				</extensions>
			</trkpt>
			<trkpt lat="-27.934676" lon="152.823466">
				<ele>100</ele>
				<time>2015-05-07T06:13:51Z</time>
				<extensions>
				</extensions>
			</trkpt>
			<trkpt lat="-27.934840" lon="152.823681">
				<ele>100</ele>
				<time>2015-05-07T06:13:52Z</time>
				<extensions>
				</extensions>
			</trkpt>
			<trkpt lat="-27.935011" lon="152.823899">
				<ele>102</ele>
				<time>2015-05-07T06:13:53Z</time>
				<extensions>
				</extensions>
			</trkpt>
			<trkpt lat="-27.935188" lon="152.824102">
				<ele>104</ele>
				<time>2015-05-07T06:13:54Z</time>
				<extensions>
				</extensions>
			</trkpt>
			<trkpt lat="-27.935351" lon="152.824317">
				<ele>106</ele>
				<time>2015-05-07T06:13:55Z</time>
				<extensions>
				</extensions>
			</trkpt>
			<trkpt lat="-27.935536" lon="152.824528">
				<ele>109</ele>
				<time>2015-05-07T06:13:56Z</time>
				<extensions>
				</extensions>
			</trkpt>
			<trkpt lat="-27.935720" lon="152.824723">
				<ele>108</ele>
				<time>2015-05-07T06:13:57Z</time>
				<extensions>
				</extensions>
			</trkpt>
			<trkpt lat="-27.935918" lon="152.824918">
				<ele>109</ele>
				<time>2015-05-07T06:13:58Z</time>
				<extensions>
				</extensions>
			</trkpt>
			<trkpt lat="-27.936105" lon="152.825119">
				<ele>109</ele>
				<time>2015-05-07T06:13:59Z</time>
				<extensions>
				</extensions>
			</trkpt>
			<trkpt lat="-27.936285" lon="152.825294">
				<ele>110</ele>
				<time>2015-05-07T06:14:00Z</time>
				<extensions>
				</extensions>
			</trkpt>
			<trkpt lat="-27.936466" lon="152.825475">
				<ele>111</ele>
				<time>2015-05-07T06:14:01Z</time>
				<extensions>
				</extensions>
			</trkpt>
			<trkpt lat="-27.936678" lon="152.825659">
				<ele>112</ele>
				<time>2015-05-07T06:14:02Z</time>
				<extensions>
				</extensions>
			</trkpt>
			<trkpt lat="-27.936883" lon="152.825829">
				<ele>112</ele>
				<time>2015-05-07T06:14:03Z</time>
				<extensions>
				</extensions>
			</trkpt>
			<trkpt lat="-27.937086" lon="152.825997">
				<ele>114</ele>
				<time>2015-05-07T06:14:04Z</time>
				<extensions>
				</extensions>
			</trkpt>
			<trkpt lat="-27.937288" lon="152.826175">
				<ele>115</ele>
				<time>2015-05-07T06:14:05Z</time>
				<extensions>
				</extensions>
			</trkpt>
			<trkpt lat="-27.937497" lon="152.826363">
				<ele>115</ele>
				<time>2015-05-07T06:14:06Z</time>
				<extensions>
				</extensions>
			</trkpt>
			<trkpt lat="-27.937691" lon="152.826539">
				<ele>115</ele>
				<time>2015-05-07T06:14:07Z</time>
				<extensions>
				</extensions>
			</trkpt>
			<trkpt lat="-27.937893" lon="152.826725">
				<ele>116</ele>
				<time>2015-05-07T06:14:08Z</time>
				<extensions>
				</extensions>
			</trkpt>
			<trkpt lat="-27.938102" lon="152.826922">
				<ele>117</ele>
				<time>2015-05-07T06:14:09Z</time>
				<extensions>
				</extensions>
			</trkpt>
			<trkpt lat="-27.938311" lon="152.827119">
				<ele>118</ele>
				<time>2015-05-07T06:14:10Z</time>
				<extensions>
				</extensions>
			</trkpt>
			<trkpt lat="-27.938511" lon="152.827307">
				<ele>118</ele>
				<time>2015-05-07T06:14:11Z</time>
				<extensions>
				</extensions>
			</trkpt>
			<trkpt lat="-27.938708" lon="152.827499">
				<ele>119</ele>
				<time>2015-05-07T06:14:12Z</time>
				<extensions>
				</extensions>
			</trkpt>
			<trkpt lat="-27.938905" lon="152.827699">
				<ele>118</ele>
				<time>2015-05-07T06:14:13Z</time>
				<extensions>
				</extensions>
			</trkpt>
			<trkpt lat="-27.939089" lon="152.827901">
				<ele>119</ele>
				<time>2015-05-07T06:14:14Z</time>
				<extensions>
				</extensions>
			</trkpt>
			<trkpt lat="-27.939262" lon="152.828126">
				<ele>119</ele>
				<time>2015-05-07T06:14:15Z</time>
				<extensions>
				</extensions>
			</trkpt>
			<trkpt lat="-27.939425" lon="152.828359">
				<ele>119</ele>
				<time>2015-05-07T06:14:16Z</time>
				<extensions>
				</extensions>
			</trkpt>
			<trkpt lat="-27.939587" lon="152.828607">
				<ele>119</ele>
				<time>2015-05-07T06:14:17Z</time>
				<extensions>
				</extensions>
			</trkpt>
			<trkpt lat="-27.939751" lon="152.828860">
				<ele>121</ele>
				<time>2015-05-07T06:14:18Z</time>
				<extensions>
				</extensions>
			</trkpt>
			<trkpt lat="-27.939908" lon="152.829106">
				<ele>120</ele>
				<time>2015-05-07T06:14:19Z</time>
				<extensions>
				</extensions>
			</trkpt>
			<trkpt lat="-27.940062" lon="152.829359">
				<ele>120</ele>
				<time>2015-05-07T06:14:20Z</time>
				<extensions>
				</extensions>
			</trkpt>
			<trkpt lat="-27.940210" lon="152.829611">
				<ele>120</ele>
				<time>2015-05-07T06:14:21Z</time>
				<extensions>
				</extensions>
			</trkpt>
			<trkpt lat="-27.940345" lon="152.829839">
				<ele>118</ele>
				<time>2015-05-07T06:14:22Z</time>
				<extensions>
				</extensions>
			</trkpt>
			<trkpt lat="-27.940481" lon="152.830081">
				<ele>116</ele>
				<time>2015-05-07T06:14:23Z</time>
				<extensions>
				</extensions>
			</trkpt>
			<trkpt lat="-27.940606" lon="152.830336">
				<ele>116</ele>
				<time>2015-05-07T06:14:24Z</time>
				<extensions>
				</extensions>
			</trkpt>
			<trkpt lat="-27.940721" lon="152.830618">
				<ele>115</ele>
				<time>2015-05-07T06:14:25Z</time>
				<extensions>
				</extensions>
			</trkpt>
			<trkpt lat="-27.940829" lon="152.830894">
				<ele>116</ele>
				<time>2015-05-07T06:14:26Z</time>
				<extensions>
				</extensions>
			</trkpt>
			<trkpt lat="-27.940933" lon="152.831165">
				<ele>116</ele>
				<time>2015-05-07T06:14:27Z</time>
				<extensions>
				</extensions>
			</trkpt>
			<trkpt lat="-27.941033" lon="152.831436">
				<ele>116</ele>
				<time>2015-05-07T06:14:28Z</time>
				<extensions>
				</extensions>
			</trkpt>
			<trkpt lat="-27.941127" lon="152.831701">
				<ele>116</ele>
				<time>2015-05-07T06:14:29Z</time>
				<extensions>
				</extensions>
			</trkpt>
			<trkpt lat="-27.941215" lon="152.831964">
				<ele>116</ele>
				<time>2015-05-07T06:14:30Z</time>
				<extensions>
				</extensions>
			</trkpt>
			<trkpt lat="-27.941289" lon="152.832246">
				<ele>116</ele>
				<time>2015-05-07T06:14:31Z</time>
				<extensions>
				</extensions>
			</trkpt>
			<trkpt lat="-27.941352" lon="152.832534">
				<ele>116</ele>
				<time>2015-05-07T06:14:32Z</time>
				<extensions>
				</extensions>
			</trkpt>
			<trkpt lat="-27.941404" lon="152.832814">
				<ele>116</ele>
				<time>2015-05-07T06:14:33Z</time>
				<extensions>
				</extensions>
			</trkpt>
			<trkpt lat="-27.941446" lon="152.833079">
				<ele>115</ele>
				<time>2015-05-07T06:14:34Z</time>
				<extensions>
				</extensions>
			</trkpt>
			<trkpt lat="-27.941487" lon="152.833359">
				<ele>115</ele>
				<time>2015-05-07T06:14:35Z</time>
				<extensions>
				</extensions>
			</trkpt>
			<trkpt lat="-27.941523" lon="152.833648">
				<ele>115</ele>
				<time>2015-05-07T06:14:36Z</time>
				<extensions>
				</extensions>
			</trkpt>
			<trkpt lat="-27.941548" lon="152.833914">
				<ele>114</ele>
				<time>2015-05-07T06:14:37Z</time>
				<extensions>
				</extensions>
			</trkpt>
			<trkpt lat="-27.941569" lon="152.834199">
				<ele>114</ele>
				<time>2015-05-07T06:14:38Z</time>
				<extensions>
				</extensions>
			</trkpt>
			<trkpt lat="-27.941583" lon="152.834495">
				<ele>116</ele>
				<time>2015-05-07T06:14:39Z</time>
				<extensions>
				</extensions>
			</trkpt>
			<trkpt lat="-27.941590" lon="152.834783">
				<ele>117</ele>
				<time>2015-05-07T06:14:40Z</time>
				<extensions>
				</extensions>
			</trkpt>
			<trkpt lat="-27.941595" lon="152.835045">
				<ele>117</ele>
				<time>2015-05-07T06:14:41Z</time>
				<extensions>
				</extensions>
			</trkpt>
			<trkpt lat="-27.941599" lon="152.835346">
				<ele>116</ele>
				<time>2015-05-07T06:14:42Z</time>
				<extensions>
				</extensions>
			</trkpt>
			<trkpt lat="-27.941600" lon="152.835642">
				<ele>116</ele>
				<time>2015-05-07T06:14:43Z</time>
				<extensions>
				</extensions>
			</trkpt>
			<trkpt lat="-27.941581" lon="152.835945">
				<ele>115</ele>
				<time>2015-05-07T06:14:44Z</time>
				<extensions>
				</extensions>
			</trkpt>
			<trkpt lat="-27.941550" lon="152.836233">
				<ele>115</ele>
				<time>2015-05-07T06:14:45Z</time>
				<extensions>
				</extensions>
			</trkpt>
			<trkpt lat="-27.941496" lon="152.836526">
				<ele>114</ele>
				<time>2015-05-07T06:14:46Z</time>
				<extensions>
				</extensions>
			</trkpt>
			<trkpt lat="-27.941437" lon="152.836827">
				<ele>114</ele>
				<time>2015-05-07T06:14:47Z</time>
				<extensions>
				</extensions>
			</trkpt>
			<trkpt lat="-27.941380" lon="152.837118">
				<ele>114</ele>
				<time>2015-05-07T06:14:48Z</time>
				<extensions>
				</extensions>
			</trkpt>
			<trkpt lat="-27.941319" lon="152.837426">
				<ele>111</ele>
				<time>2015-05-07T06:14:49Z</time>
				<extensions>
				</extensions>
			</trkpt>
			<trkpt lat="-27.941261" lon="152.837713">
				<ele>110</ele>
				<time>2015-05-07T06:14:50Z</time>
				<extensions>
				</extensions>
			</trkpt>
			<trkpt lat="-27.941205" lon="152.837990">
				<ele>108</ele>
				<time>2015-05-07T06:14:51Z</time>
				<extensions>
				</extensions>
			</trkpt>
			<trkpt lat="-27.941147" lon="152.838262">
				<ele>106</ele>
				<time>2015-05-07T06:14:52Z</time>
				<extensions>
				</extensions>
			</trkpt>
			<trkpt lat="-27.941077" lon="152.838527">
				<ele>103</ele>
				<time>2015-05-07T06:14:53Z</time>
				<extensions>
				</extensions>
			</trkpt>
			<trkpt lat="-27.941011" lon="152.838796">
				<ele>97</ele>
				<time>2015-05-07T06:14:54Z</time>
				<extensions>
				</extensions>
			</trkpt>
			<trkpt lat="-27.940949" lon="152.839076">
				<ele>94</ele>
				<time>2015-05-07T06:14:55Z</time>
				<extensions>
				</extensions>
			</trkpt>
			<trkpt lat="-27.940897" lon="152.839349">
				<ele>92</ele>
				<time>2015-05-07T06:14:56Z</time>
				<extensions>
				</extensions>
			</trkpt>
			<trkpt lat="-27.940845" lon="152.839632">
				<ele>90</ele>
				<time>2015-05-07T06:14:57Z</time>
				<extensions>
				</extensions>
			</trkpt>
			<trkpt lat="-27.940790" lon="152.839920">
				<ele>88</ele>
				<time>2015-05-07T06:14:58Z</time>
				<extensions>
				</extensions>
			</trkpt>
			<trkpt lat="-27.940765" lon="152.840182">
				<ele>87</ele>
				<time>2015-05-07T06:14:59Z</time>
				<extensions>
				</extensions>
			</trkpt>
			<trkpt lat="-27.940723" lon="152.840468">
				<ele>87</ele>
				<time>2015-05-07T06:15:00Z</time>
				<extensions>
				</extensions>
			</trkpt>
			<trkpt lat="-27.940690" lon="152.840754">
				<ele>87</ele>
				<time>2015-05-07T06:15:01Z</time>
				<extensions>
				</extensions>
			</trkpt>
			<trkpt lat="-27.940661" lon="152.841036">
				<ele>88</ele>
				<time>2015-05-07T06:15:02Z</time>
				<extensions>
				</extensions>
			</trkpt>
			<trkpt lat="-27.940654" lon="152.841335">
				<ele>90</ele>
				<time>2015-05-07T06:15:03Z</time>
				<extensions>
				</extensions>
			</trkpt>
			<trkpt lat="-27.940647" lon="152.841659">
				<ele>87</ele>
				<time>2015-05-07T06:15:04Z</time>
				<extensions>
				</extensions>
			</trkpt>
			<trkpt lat="-27.940635" lon="152.841959">
				<ele>81</ele>
				<time>2015-05-07T06:15:05Z</time>
				<extensions>
				</extensions>
			</trkpt>
			<trkpt lat="-27.940637" lon="152.842254">
				<ele>81</ele>
				<time>2015-05-07T06:15:06Z</time>
				<extensions>
				</extensions>
			</trkpt>
			<trkpt lat="-27.940639" lon="152.842535">
				<ele>81</ele>
				<time>2015-05-07T06:15:07Z</time>
				<extensions>
				</extensions>
			</trkpt>
			<trkpt lat="-27.940668" lon="152.842815">
				<ele>80</ele>
				<time>2015-05-07T06:15:08Z</time>
				<extensions>
				</extensions>
			</trkpt>
			<trkpt lat="-27.940679" lon="152.843098">
				<ele>80</ele>
				<time>2015-05-07T06:15:09Z</time>
				<extensions>
				</extensions>
			</trkpt>
			<trkpt lat="-27.940707" lon="152.843377">
				<ele>81</ele>
				<time>2015-05-07T06:15:10Z</time>
				<extensions>
				</extensions>
			</trkpt>
			<trkpt lat="-27.940731" lon="152.843653">
				<ele>83</ele>
				<time>2015-05-07T06:15:11Z</time>
				<extensions>
				</extensions>
			</trkpt>
			<trkpt lat="-27.940782" lon="152.843930">
				<ele>83</ele>
				<time>2015-05-07T06:15:12Z</time>
				<extensions>
				</extensions>
			</trkpt>
			<trkpt lat="-27.940836" lon="152.844184">
				<ele>84</ele>
				<time>2015-05-07T06:15:13Z</time>
				<extensions>
				</extensions>
			</trkpt>
			<trkpt lat="-27.940870" lon="152.844484">
				<ele>85</ele>
				<time>2015-05-07T06:15:14Z</time>
				<extensions>
				</extensions>
			</trkpt>
			<trkpt lat="-27.940916" lon="152.844764">
				<ele>86</ele>
				<time>2015-05-07T06:15:15Z</time>
				<extensions>
				</extensions>
			</trkpt>
			<trkpt lat="-27.940972" lon="152.845048">
				<ele>86</ele>
				<time>2015-05-07T06:15:16Z</time>
				<extensions>
				</extensions>
			</trkpt>
			<trkpt lat="-27.941030" lon="152.845312">
				<ele>87</ele>
				<time>2015-05-07T06:15:17Z</time>
				<extensions>
				</extensions>
			</trkpt>
			<trkpt lat="-27.941085" lon="152.845587">
				<ele>89</ele>
				<time>2015-05-07T06:15:18Z</time>
				<extensions>
				</extensions>
			</trkpt>
			<trkpt lat="-27.941148" lon="152.845882">
				<ele>89</ele>
				<time>2015-05-07T06:15:19Z</time>
				<extensions>
				</extensions>
			</trkpt>
			<trkpt lat="-27.941230" lon="152.846151">
				<ele>89</ele>
				<time>2015-05-07T06:15:20Z</time>
				<extensions>
				</extensions>
			</trkpt>
			<trkpt lat="-27.941301" lon="152.846433">
				<ele>90</ele>
				<time>2015-05-07T06:15:21Z</time>
				<extensions>
				</extensions>
			</trkpt>
			<trkpt lat="-27.941397" lon="152.846715">
				<ele>90</ele>
				<time>2015-05-07T06:15:22Z</time>
				<extensions>
				</extensions>
			</trkpt>
			<trkpt lat="-27.941491" lon="152.846995">
				<ele>90</ele>
				<time>2015-05-07T06:15:23Z</time>
				<extensions>
				</extensions>
			</trkpt>
			<trkpt lat="-27.941583" lon="152.847282">
				<ele>90</ele>
				<time>2015-05-07T06:15:24Z</time>
				<extensions>
				</extensions>
			</trkpt>
			<trkpt lat="-27.941674" lon="152.847552">
				<ele>91</ele>
				<time>2015-05-07T06:15:25Z</time>
				<extensions>
				</extensions>
			</trkpt>
			<trkpt lat="-27.941777" lon="152.847823">
				<ele>91</ele>
				<time>2015-05-07T06:15:26Z</time>
				<extensions>
				</extensions>
			</trkpt>
			<trkpt lat="-27.941871" lon="152.848120">
				<ele>91</ele>
				<time>2015-05-07T06:15:27Z</time>
				<extensions>
				</extensions>
			</trkpt>
			<trkpt lat="-27.941959" lon="152.848403">
				<ele>91</ele>
				<time>2015-05-07T06:15:28Z</time>
				<extensions>
				</extensions>
			</trkpt>
			<trkpt lat="-27.942048" lon="152.848696">
				<ele>92</ele>
				<time>2015-05-07T06:15:29Z</time>
				<extensions>
				</extensions>
			</trkpt>
			<trkpt lat="-27.942121" lon="152.848970">
				<ele>92</ele>
				<time>2015-05-07T06:15:30Z</time>
				<extensions>
				</extensions>
			</trkpt>
			<trkpt lat="-27.942203" lon="152.849232">
				<ele>89</ele>
				<time>2015-05-07T06:15:31Z</time>
				<extensions>
				</extensions>
			</trkpt>
			<trkpt lat="-27.942259" lon="152.849499">
				<ele>86</ele>
				<time>2015-05-07T06:15:32Z</time>
				<extensions>
				</extensions>
			</trkpt>
			<trkpt lat="-27.942319" lon="152.849759">
				<ele>87</ele>
				<time>2015-05-07T06:15:33Z</time>
				<extensions>
				</extensions>
			</trkpt>
			<trkpt lat="-27.942370" lon="152.850024">
				<ele>85</ele>
				<time>2015-05-07T06:15:34Z</time>
				<extensions>
				</extensions>
			</trkpt>
			<trkpt lat="-27.942412" lon="152.850305">
				<ele>86</ele>
				<time>2015-05-07T06:15:35Z</time>
				<extensions>
				</extensions>
			</trkpt>
			<trkpt lat="-27.942460" lon="152.850585">
				<ele>85</ele>
				<time>2015-05-07T06:15:36Z</time>
				<extensions>
				</extensions>
			</trkpt>
			<trkpt lat="-27.942505" lon="152.850876">
				<ele>85</ele>
				<time>2015-05-07T06:15:37Z</time>
				<extensions>
				</extensions>
			</trkpt>
			<trkpt lat="-27.942547" lon="152.851171">
				<ele>85</ele>
				<time>2015-05-07T06:15:38Z</time>
				<extensions>
				</extensions>
			</trkpt>
			<trkpt lat="-27.942582" lon="152.851481">
				<ele>84</ele>
				<time>2015-05-07T06:15:39Z</time>
				<extensions>
				</extensions>
			</trkpt>
			<trkpt lat="-27.942611" lon="152.851769">
				<ele>82</ele>
				<time>2015-05-07T06:15:40Z</time>
				<extensions>
				</extensions>
			</trkpt>
			<trkpt lat="-27.942641" lon="152.852044">
				<ele>79</ele>
				<time>2015-05-07T06:15:41Z</time>
				<extensions>
				</extensions>
			</trkpt>
			<trkpt lat="-27.942667" lon="152.852333">
				<ele>78</ele>
				<time>2015-05-07T06:15:42Z</time>
				<extensions>
				</extensions>
			</trkpt>
			<trkpt lat="-27.942682" lon="152.852617">
				<ele>77</ele>
				<time>2015-05-07T06:15:43Z</time>
				<extensions>
				</extensions>
			</trkpt>
			<trkpt lat="-27.942669" lon="152.852895">
				<ele>74</ele>
				<time>2015-05-07T06:15:44Z</time>
				<extensions>
				</extensions>
			</trkpt>
			<trkpt lat="-27.942671" lon="152.853158">
				<ele>73</ele>
				<time>2015-05-07T06:15:45Z</time>
				<extensions>
				</extensions>
			</trkpt>
			<trkpt lat="-27.942674" lon="152.853430">
				<ele>73</ele>
				<time>2015-05-07T06:15:46Z</time>
				<extensions>
				</extensions>
			</trkpt>
			<trkpt lat="-27.942712" lon="152.853716">
				<ele>74</ele>
				<time>2015-05-07T06:15:47Z</time>
				<extensions>
				</extensions>
			</trkpt>
			<trkpt lat="-27.942732" lon="152.853994">
				<ele>76</ele>
				<time>2015-05-07T06:15:48Z</time>
				<extensions>
				</extensions>
			</trkpt>
			<trkpt lat="-27.942734" lon="152.854274">
				<ele>79</ele>
				<time>2015-05-07T06:15:49Z</time>
				<extensions>
				</extensions>
			</trkpt>
			<trkpt lat="-27.942745" lon="152.854552">
				<ele>81</ele>
				<time>2015-05-07T06:15:50Z</time>
				<extensions>
				</extensions>
			</trkpt>
			<trkpt lat="-27.942759" lon="152.854834">
				<ele>80</ele>
				<time>2015-05-07T06:15:51Z</time>
				<extensions>
				</extensions>
			</trkpt>
			<trkpt lat="-27.942766" lon="152.855110">
				<ele>80</ele>
				<time>2015-05-07T06:15:52Z</time>
				<extensions>
				</extensions>
			</trkpt>
			<trkpt lat="-27.942784" lon="152.855385">
				<ele>80</ele>
				<time>2015-05-07T06:15:53Z</time>
				<extensions>
				</extensions>
			</trkpt>
			<trkpt lat="-27.942804" lon="152.855666">
				<ele>83</ele>
				<time>2015-05-07T06:15:54Z</time>
				<extensions>
				</extensions>
			</trkpt>
			<trkpt lat="-27.942828" lon="152.855960">
				<ele>83</ele>
				<time>2015-05-07T06:15:55Z</time>
				<extensions>
				</extensions>
			</trkpt>
			<trkpt lat="-27.942858" lon="152.856249">
				<ele>84</ele>
				<time>2015-05-07T06:15:56Z</time>
				<extensions>
				</extensions>
			</trkpt>
			<trkpt lat="-27.942906" lon="152.856526">
				<ele>83</ele>
				<time>2015-05-07T06:15:57Z</time>
				<extensions>
				</extensions>
			</trkpt>
			<trkpt lat="-27.942960" lon="152.856814">
				<ele>84</ele>
				<time>2015-05-07T06:15:58Z</time>
				<extensions>
				</extensions>
			</trkpt>
			<trkpt lat="-27.943026" lon="152.857087">
				<ele>83</ele>
				<time>2015-05-07T06:15:59Z</time>
				<extensions>
				</extensions>
			</trkpt>
			<trkpt lat="-27.943110" lon="152.857355">
				<ele>83</ele>
				<time>2015-05-07T06:16:00Z</time>
				<extensions>
				</extensions>
			</trkpt>
			<trkpt lat="-27.943184" lon="152.857630">
				<ele>83</ele>
				<time>2015-05-07T06:16:01Z</time>
				<extensions>
				</extensions>
			</trkpt>
			<trkpt lat="-27.943247" lon="152.857904">
				<ele>82</ele>
				<time>2015-05-07T06:16:02Z</time>
				<extensions>
				</extensions>
			</trkpt>
			<trkpt lat="-27.943323" lon="152.858158">
				<ele>82</ele>
				<time>2015-05-07T06:16:03Z</time>
				<extensions>
				</extensions>
			</trkpt>
			<trkpt lat="-27.943403" lon="152.858424">
				<ele>81</ele>
				<time>2015-05-07T06:16:04Z</time>
				<extensions>
				</extensions>
			</trkpt>
			<trkpt lat="-27.943513" lon="152.858661">
				<ele>81</ele>
				<time>2015-05-07T06:16:05Z</time>
				<extensions>
				</extensions>
			</trkpt>
			<trkpt lat="-27.943607" lon="152.858920">
				<ele>81</ele>
				<time>2015-05-07T06:16:06Z</time>
				<extensions>
				</extensions>
			</trkpt>
			<trkpt lat="-27.943725" lon="152.859158">
				<ele>80</ele>
				<time>2015-05-07T06:16:07Z</time>
				<extensions>
				</extensions>
			</trkpt>
			<trkpt lat="-27.943848" lon="152.859411">
				<ele>79</ele>
				<time>2015-05-07T06:16:08Z</time>
				<extensions>
				</extensions>
			</trkpt>
			<trkpt lat="-27.943955" lon="152.859684">
				<ele>78</ele>
				<time>2015-05-07T06:16:09Z</time>
				<extensions>
				</extensions>
			</trkpt>
			<trkpt lat="-27.944081" lon="152.859924">
				<ele>77</ele>
				<time>2015-05-07T06:16:10Z</time>
				<extensions>
				</extensions>
			</trkpt>
			<trkpt lat="-27.944200" lon="152.860183">
				<ele>78</ele>
				<time>2015-05-07T06:16:11Z</time>
				<extensions>
				</extensions>
			</trkpt>
			<trkpt lat="-27.944343" lon="152.860420">
				<ele>79</ele>
				<time>2015-05-07T06:16:12Z</time>
				<extensions>
				</extensions>
			</trkpt>
			<trkpt lat="-27.944483" lon="152.860661">
				<ele>77</ele>
				<time>2015-05-07T06:16:13Z</time>
				<extensions>
				</extensions>
			</trkpt>
			<trkpt lat="-27.944612" lon="152.860904">
				<ele>76</ele>
				<time>2015-05-07T06:16:14Z</time>
				<extensions>
				</extensions>
			</trkpt>
			<trkpt lat="-27.944735" lon="152.861138">
				<ele>76</ele>
				<time>2015-05-07T06:16:15Z</time>
				<extensions>
				</extensions>
			</trkpt>
			<trkpt lat="-27.944863" lon="152.861384">
				<ele>74</ele>
				<time>2015-05-07T06:16:16Z</time>
				<extensions>
				</extensions>
			</trkpt>
			<trkpt lat="-27.944979" lon="152.861625">
				<ele>74</ele>
				<time>2015-05-07T06:16:17Z</time>
				<extensions>
				</extensions>
			</trkpt>
			<trkpt lat="-27.945098" lon="152.861850">
				<ele>75</ele>
				<time>2015-05-07T06:16:18Z</time>
				<extensions>
				</extensions>
			</trkpt>
			<trkpt lat="-27.945223" lon="152.862078">
				<ele>76</ele>
				<time>2015-05-07T06:16:19Z</time>
				<extensions>
				</extensions>
			</trkpt>
			<trkpt lat="-27.945344" lon="152.862312">
				<ele>76</ele>
				<time>2015-05-07T06:16:20Z</time>
				<extensions>
				</extensions>
			</trkpt>
			<trkpt lat="-27.945472" lon="152.862550">
				<ele>77</ele>
				<time>2015-05-07T06:16:21Z</time>
				<extensions>
				</extensions>
			</trkpt>
			<trkpt lat="-27.945617" lon="152.862794">
				<ele>79</ele>
				<time>2015-05-07T06:16:22Z</time>
				<extensions>
				</extensions>
			</trkpt>
			<trkpt lat="-27.945751" lon="152.863039">
				<ele>80</ele>
				<time>2015-05-07T06:16:23Z</time>
				<extensions>
				</extensions>
			</trkpt>
			<trkpt lat="-27.945879" lon="152.863287">
				<ele>80</ele>
				<time>2015-05-07T06:16:24Z</time>
				<extensions>
				</extensions>
			</trkpt>
			<trkpt lat="-27.946011" lon="152.863522">
				<ele>77</ele>
				<time>2015-05-07T06:16:25Z</time>
				<extensions>
				</extensions>
			</trkpt>
			<trkpt lat="-27.946136" lon="152.863762">
				<ele>76</ele>
				<time>2015-05-07T06:16:26Z</time>
				<extensions>
				</extensions>
			</trkpt>
			<trkpt lat="-27.946250" lon="152.864000">
				<ele>74</ele>
				<time>2015-05-07T06:16:27Z</time>
				<extensions>
				</extensions>
			</trkpt>
			<trkpt lat="-27.946357" lon="152.864244">
				<ele>74</ele>
				<time>2015-05-07T06:16:28Z</time>
				<extensions>
				</extensions>
			</trkpt>
			<trkpt lat="-27.946453" lon="152.864496">
				<ele>75</ele>
				<time>2015-05-07T06:16:29Z</time>
				<extensions>
				</extensions>
			</trkpt>
			<trkpt lat="-27.946546" lon="152.864756">
				<ele>76</ele>
				<time>2015-05-07T06:16:30Z</time>
				<extensions>
				</extensions>
			</trkpt>
			<trkpt lat="-27.946617" lon="152.865009">
				<ele>77</ele>
				<time>2015-05-07T06:16:31Z</time>
				<extensions>
				</extensions>
			</trkpt>
			<trkpt lat="-27.946682" lon="152.865297">
				<ele>77</ele>
				<time>2015-05-07T06:16:32Z</time>
				<extensions>
				</extensions>
			</trkpt>
			<trkpt lat="-27.946711" lon="152.865558">
				<ele>78</ele>
				<time>2015-05-07T06:16:33Z</time>
				<extensions>
				</extensions>
			</trkpt>
			<trkpt lat="-27.946733" lon="152.865833">
				<ele>78</ele>
				<time>2015-05-07T06:16:34Z</time>
				<extensions>
				</extensions>
			</trkpt>
			<trkpt lat="-27.946757" lon="152.866114">
				<ele>78</ele>
				<time>2015-05-07T06:16:35Z</time>
				<extensions>
				</extensions>
			</trkpt>
			<trkpt lat="-27.946767" lon="152.866374">
				<ele>78</ele>
				<time>2015-05-07T06:16:36Z</time>
				<extensions>
				</extensions>
			</trkpt>
			<trkpt lat="-27.946755" lon="152.866653">
				<ele>78</ele>
				<time>2015-05-07T06:16:37Z</time>
				<extensions>
				</extensions>
			</trkpt>
			<trkpt lat="-27.946747" lon="152.866935">
				<ele>80</ele>
				<time>2015-05-07T06:16:38Z</time>
				<extensions>
				</extensions>
			</trkpt>
			<trkpt lat="-27.946729" lon="152.867229">
				<ele>81</ele>
				<time>2015-05-07T06:16:39Z</time>
				<extensions>
				</extensions>
			</trkpt>
			<trkpt lat="-27.946717" lon="152.867515">
				<ele>79</ele>
				<time>2015-05-07T06:16:40Z</time>
				<extensions>
				</extensions>
			</trkpt>
			<trkpt lat="-27.946701" lon="152.867799">
				<ele>77</ele>
				<time>2015-05-07T06:16:41Z</time>
				<extensions>
				</extensions>
			</trkpt>
			<trkpt lat="-27.946709" lon="152.868084">
				<ele>77</ele>
				<time>2015-05-07T06:16:42Z</time>
				<extensions>
				</extensions>
			</trkpt>
			<trkpt lat="-27.946696" lon="152.868365">
				<ele>77</ele>
				<time>2015-05-07T06:16:43Z</time>
				<extensions>
				</extensions>
			</trkpt>
			<trkpt lat="-27.946683" lon="152.868675">
				<ele>76</ele>
				<time>2015-05-07T06:16:44Z</time>
				<extensions>
				</extensions>
			</trkpt>
			<trkpt lat="-27.946668" lon="152.868957">
				<ele>75</ele>
				<time>2015-05-07T06:16:45Z</time>
				<extensions>
				</extensions>
			</trkpt>
			<trkpt lat="-27.946659" lon="152.869246">
				<ele>75</ele>
				<time>2015-05-07T06:16:46Z</time>
				<extensions>
				</extensions>
			</trkpt>
			<trkpt lat="-27.946625" lon="152.869526">
				<ele>74</ele>
				<time>2015-05-07T06:16:47Z</time>
				<extensions>
				</extensions>
			</trkpt>
			<trkpt lat="-27.946620" lon="152.869807">
				<ele>74</ele>
				<time>2015-05-07T06:16:48Z</time>
				<extensions>
				</extensions>
			</trkpt>
			<trkpt lat="-27.946608" lon="152.870082">
				<ele>74</ele>
				<time>2015-05-07T06:16:49Z</time>
				<extensions>
				</extensions>
			</trkpt>
			<trkpt lat="-27.946610" lon="152.870361">
				<ele>72</ele>
				<time>2015-05-07T06:16:50Z</time>
				<extensions>
				</extensions>
			</trkpt>
			<trkpt lat="-27.946607" lon="152.870631">
				<ele>73</ele>
				<time>2015-05-07T06:16:51Z</time>
				<extensions>
				</extensions>
			</trkpt>
			<trkpt lat="-27.946606" lon="152.870903">
				<ele>73</ele>
				<time>2015-05-07T06:16:52Z</time>
				<extensions>
				</extensions>
			</trkpt>
			<trkpt lat="-27.946639" lon="152.871168">
				<ele>73</ele>
				<time>2015-05-07T06:16:53Z</time>
				<extensions>
				</extensions>
			</trkpt>
			<trkpt lat="-27.946678" lon="152.871432">
				<ele>73</ele>
				<time>2015-05-07T06:16:54Z</time>
				<extensions>
				</extensions>
			</trkpt>
			<trkpt lat="-27.946717" lon="152.871737">
				<ele>74</ele>
				<time>2015-05-07T06:16:55Z</time>
				<extensions>
				</extensions>
			</trkpt>
			<trkpt lat="-27.946786" lon="152.871990">
				<ele>76</ele>
				<time>2015-05-07T06:16:56Z</time>
				<extensions>
				</extensions>
			</trkpt>
			<trkpt lat="-27.946855" lon="152.872263">
				<ele>77</ele>
				<time>2015-05-07T06:16:57Z</time>
				<extensions>
				</extensions>
			</trkpt>
			<trkpt lat="-27.946959" lon="152.872523">
				<ele>78</ele>
				<time>2015-05-07T06:16:58Z</time>
				<extensions>
				</extensions>
			</trkpt>
			<trkpt lat="-27.947065" lon="152.872773">
				<ele>79</ele>
				<time>2015-05-07T06:16:59Z</time>
				<extensions>
				</extensions>
			</trkpt>
			<trkpt lat="-27.947174" lon="152.873016">
				<ele>79</ele>
				<time>2015-05-07T06:17:00Z</time>
				<extensions>
				</extensions>
			</trkpt>
			<trkpt lat="-27.947295" lon="152.873264">
				<ele>78</ele>
				<time>2015-05-07T06:17:01Z</time>
				<extensions>
				</extensions>
			</trkpt>
			<trkpt lat="-27.947432" lon="152.873504">
				<ele>80</ele>
				<time>2015-05-07T06:17:02Z</time>
				<extensions>
				</extensions>
			</trkpt>
			<trkpt lat="-27.947570" lon="152.873729">
				<ele>81</ele>
				<time>2015-05-07T06:17:03Z</time>
				<extensions>
				</extensions>
			</trkpt>
			<trkpt lat="-27.947717" lon="152.873974">
				<ele>82</ele>
				<time>2015-05-07T06:17:04Z</time>
				<extensions>
				</extensions>
			</trkpt>
			<trkpt lat="-27.947854" lon="152.874202">
				<ele>84</ele>
				<time>2015-05-07T06:17:05Z</time>
				<extensions>
				</extensions>
			</trkpt>
			<trkpt lat="-27.947994" lon="152.874432">
				<ele>84</ele>
				<time>2015-05-07T06:17:06Z</time>
				<extensions>
				</extensions>
			</trkpt>
			<trkpt lat="-27.948121" lon="152.874658">
				<ele>86</ele>
				<time>2015-05-07T06:17:07Z</time>
				<extensions>
				</extensions>
			</trkpt>
			<trkpt lat="-27.948221" lon="152.874880">
				<ele>87</ele>
				<time>2015-05-07T06:17:08Z</time>
				<extensions>
				</extensions>
			</trkpt>
			<trkpt lat="-27.948328" lon="152.875126">
				<ele>86</ele>
				<time>2015-05-07T06:17:09Z</time>
				<extensions>
				</extensions>
			</trkpt>
			<trkpt lat="-27.948377" lon="152.875375">
				<ele>87</ele>
				<time>2015-05-07T06:17:10Z</time>
				<extensions>
				</extensions>
			</trkpt>
			<trkpt lat="-27.948445" lon="152.875621">
				<ele>89</ele>
				<time>2015-05-07T06:17:11Z</time>
				<extensions>
				</extensions>
			</trkpt>
			<trkpt lat="-27.948491" lon="152.875877">
				<ele>91</ele>
				<time>2015-05-07T06:17:12Z</time>
				<extensions>
				</extensions>
			</trkpt>
			<trkpt lat="-27.948534" lon="152.876151">
				<ele>92</ele>
				<time>2015-05-07T06:17:13Z</time>
				<extensions>
				</extensions>
			</trkpt>
			<trkpt lat="-27.948553" lon="152.876391">
				<ele>95</ele>
				<time>2015-05-07T06:17:14Z</time>
				<extensions>
				</extensions>
			</trkpt>
			<trkpt lat="-27.948577" lon="152.876668">
				<ele>96</ele>
				<time>2015-05-07T06:17:15Z</time>
				<extensions>
				</extensions>
			</trkpt>
			<trkpt lat="-27.948631" lon="152.876934">
				<ele>97</ele>
				<time>2015-05-07T06:17:16Z</time>
				<extensions>
				</extensions>
			</trkpt>
			<trkpt lat="-27.948655" lon="152.877220">
				<ele>97</ele>
				<time>2015-05-07T06:17:17Z</time>
				<extensions>
				</extensions>
			</trkpt>
			<trkpt lat="-27.948706" lon="152.877471">
				<ele>96</ele>
				<time>2015-05-07T06:17:18Z</time>
				<extensions>
				</extensions>
			</trkpt>
			<trkpt lat="-27.948742" lon="152.877744">
				<ele>95</ele>
				<time>2015-05-07T06:17:19Z</time>
				<extensions>
				</extensions>
			</trkpt>
			<trkpt lat="-27.948779" lon="152.878031">
				<ele>96</ele>
				<time>2015-05-07T06:17:20Z</time>
				<extensions>
				</extensions>
			</trkpt>
			<trkpt lat="-27.948828" lon="152.878303">
				<ele>94</ele>
				<time>2015-05-07T06:17:21Z</time>
				<extensions>
				</extensions>
			</trkpt>
			<trkpt lat="-27.948869" lon="152.878568">
				<ele>92</ele>
				<time>2015-05-07T06:17:22Z</time>
				<extensions>
				</extensions>
			</trkpt>
			<trkpt lat="-27.948933" lon="152.878845">
				<ele>93</ele>
				<time>2015-05-07T06:17:23Z</time>
				<extensions>
				</extensions>
			</trkpt>
			<trkpt lat="-27.949004" lon="152.879121">
				<ele>92</ele>
				<time>2015-05-07T06:17:24Z</time>
				<extensions>
				</extensions>
			</trkpt>
			<trkpt lat="-27.949080" lon="152.879361">
				<ele>90</ele>
				<time>2015-05-07T06:17:25Z</time>
				<extensions>
				</extensions>
			</trkpt>
			<trkpt lat="-27.949167" lon="152.879619">
				<ele>85</ele>
				<time>2015-05-07T06:17:26Z</time>
				<extensions>
				</extensions>
			</trkpt>
			<trkpt lat="-27.949251" lon="152.879871">
				<ele>86</ele>
				<time>2015-05-07T06:17:27Z</time>
				<extensions>
				</extensions>
			</trkpt>
			<trkpt lat="-27.949351" lon="152.880081">
				<ele>84</ele>
				<time>2015-05-07T06:17:28Z</time>
				<extensions>
				</extensions>
			</trkpt>
			<trkpt lat="-27.949449" lon="152.880325">
				<ele>84</ele>
				<time>2015-05-07T06:17:29Z</time>
				<extensions>
				</extensions>
			</trkpt>
			<trkpt lat="-27.949600" lon="152.880589">
				<ele>85</ele>
				<time>2015-05-07T06:17:30Z</time>
				<extensions>
				</extensions>
			</trkpt>
			<trkpt lat="-27.949722" lon="152.880820">
				<ele>85</ele>
				<time>2015-05-07T06:17:31Z</time>
				<extensions>
				</extensions>
			</trkpt>
			<trkpt lat="-27.949848" lon="152.881025">
				<ele>84</ele>
				<time>2015-05-07T06:17:32Z</time>
				<extensions>
				</extensions>
			</trkpt>
			<trkpt lat="-27.949999" lon="152.881227">
				<ele>83</ele>
				<time>2015-05-07T06:17:33Z</time>
				<extensions>
				</extensions>
			</trkpt>
			<trkpt lat="-27.950138" lon="152.881447">
				<ele>82</ele>
				<time>2015-05-07T06:17:34Z</time>
				<extensions>
				</extensions>
			</trkpt>
			<trkpt lat="-27.950290" lon="152.881653">
				<ele>81</ele>
				<time>2015-05-07T06:17:35Z</time>
				<extensions>
				</extensions>
			</trkpt>
			<trkpt lat="-27.950485" lon="152.881882">
				<ele>80</ele>
				<time>2015-05-07T06:17:36Z</time>
				<extensions>
				</extensions>
			</trkpt>
			<trkpt lat="-27.950656" lon="152.882061">
				<ele>79</ele>
				<time>2015-05-07T06:17:37Z</time>
				<extensions>
				</extensions>
			</trkpt>
			<trkpt lat="-27.950831" lon="152.882237">
				<ele>78</ele>
				<time>2015-05-07T06:17:38Z</time>
				<extensions>
				</extensions>
			</trkpt>
			<trkpt lat="-27.951016" lon="152.882425">
				<ele>80</ele>
				<time>2015-05-07T06:17:39Z</time>
				<extensions>
				</extensions>
			</trkpt>
			<trkpt lat="-27.951223" lon="152.882604">
				<ele>81</ele>
				<time>2015-05-07T06:17:40Z</time>
				<extensions>
				</extensions>
			</trkpt>
			<trkpt lat="-27.951434" lon="152.882785">
				<ele>84</ele>
				<time>2015-05-07T06:17:41Z</time>
				<extensions>
				</extensions>
			</trkpt>
			<trkpt lat="-27.951622" lon="152.882950">
				<ele>84</ele>
				<time>2015-05-07T06:17:42Z</time>
				<extensions>
				</extensions>
			</trkpt>
			<trkpt lat="-27.951847" lon="152.883111">
				<ele>84</ele>
				<time>2015-05-07T06:17:43Z</time>
				<extensions>
				</extensions>
			</trkpt>
			<trkpt lat="-27.952067" lon="152.883227">
				<ele>85</ele>
				<time>2015-05-07T06:17:44Z</time>
				<extensions>
				</extensions>
			</trkpt>
			<trkpt lat="-27.952314" lon="152.883348">
				<ele>86</ele>
				<time>2015-05-07T06:17:45Z</time>
				<extensions>
				</extensions>
			</trkpt>
			<trkpt lat="-27.952555" lon="152.883462">
				<ele>87</ele>
				<time>2015-05-07T06:17:46Z</time>
				<extensions>
				</extensions>
			</trkpt>
			<trkpt lat="-27.952791" lon="152.883568">
				<ele>88</ele>
				<time>2015-05-07T06:17:47Z</time>
				<extensions>
				</extensions>
			</trkpt>
			<trkpt lat="-27.953056" lon="152.883671">
				<ele>91</ele>
				<time>2015-05-07T06:17:48Z</time>
				<extensions>
				</extensions>
			</trkpt>
			<trkpt lat="-27.953295" lon="152.883750">
				<ele>92</ele>
				<time>2015-05-07T06:17:49Z</time>
				<extensions>
				</extensions>
			</trkpt>
			<trkpt lat="-27.953545" lon="152.883828">
				<ele>93</ele>
				<time>2015-05-07T06:17:50Z</time>
				<extensions>
				</extensions>
			</trkpt>
			<trkpt lat="-27.953804" lon="152.883899">
				<ele>95</ele>
				<time>2015-05-07T06:17:51Z</time>
				<extensions>
				</extensions>
			</trkpt>
			<trkpt lat="-27.954063" lon="152.883941">
				<ele>95</ele>
				<time>2015-05-07T06:17:52Z</time>
				<extensions>
				</extensions>
			</trkpt>
			<trkpt lat="-27.954320" lon="152.883987">
				<ele>95</ele>
				<time>2015-05-07T06:17:53Z</time>
				<extensions>
				</extensions>
			</trkpt>
			<trkpt lat="-27.954560" lon="152.884024">
				<ele>96</ele>
				<time>2015-05-07T06:17:54Z</time>
				<extensions>
				</extensions>
			</trkpt>
			<trkpt lat="-27.954815" lon="152.884034">
				<ele>96</ele>
				<time>2015-05-07T06:17:55Z</time>
				<extensions>
				</extensions>
			</trkpt>
			<trkpt lat="-27.955075" lon="152.884047">
				<ele>96</ele>
				<time>2015-05-07T06:17:56Z</time>
				<extensions>
				</extensions>
			</trkpt>
			<trkpt lat="-27.955318" lon="152.884044">
				<ele>97</ele>
				<time>2015-05-07T06:17:57Z</time>
				<extensions>
				</extensions>
			</trkpt>
			<trkpt lat="-27.955522" lon="152.884015">
				<ele>98</ele>
				<time>2015-05-07T06:17:58Z</time>
				<extensions>
				</extensions>
			</trkpt>
			<trkpt lat="-27.955773" lon="152.883969">
				<ele>100</ele>
				<time>2015-05-07T06:17:59Z</time>
				<extensions>
				</extensions>
			</trkpt>
			<trkpt lat="-27.956016" lon="152.883951">
				<ele>102</ele>
				<time>2015-05-07T06:18:00Z</time>
				<extensions>
				</extensions>
			</trkpt>
			<trkpt lat="-27.956265" lon="152.883918">
				<ele>103</ele>
				<time>2015-05-07T06:18:01Z</time>
				<extensions>
				</extensions>
			</trkpt>
			<trkpt lat="-27.956506" lon="152.883877">
				<ele>103</ele>
				<time>2015-05-07T06:18:02Z</time>
				<extensions>
				</extensions>
			</trkpt>
			<trkpt lat="-27.956753" lon="152.883841">
				<ele>104</ele>
				<time>2015-05-07T06:18:03Z</time>
				<extensions>
				</extensions>
			</trkpt>
			<trkpt lat="-27.956990" lon="152.883779">
				<ele>103</ele>
				<time>2015-05-07T06:18:04Z</time>
				<extensions>
				</extensions>
			</trkpt>
			<trkpt lat="-27.957387" lon="152.883723">
				<ele>105</ele>
				<time>2015-05-07T06:18:06Z</time>
				<extensions>
				</extensions>
			</trkpt>
			<trkpt lat="-27.957611" lon="152.883713">
				<ele>103</ele>
				<time>2015-05-07T06:18:07Z</time>
				<extensions>
				</extensions>
			</trkpt>
			<trkpt lat="-27.957834" lon="152.883732">
				<ele>102</ele>
				<time>2015-05-07T06:18:08Z</time>
				<extensions>
				</extensions>
			</trkpt>
			<trkpt lat="-27.958040" lon="152.883768">
				<ele>101</ele>
				<time>2015-05-07T06:18:09Z</time>
				<extensions>
				</extensions>
			</trkpt>
			<trkpt lat="-27.958255" lon="152.883825">
				<ele>101</ele>
				<time>2015-05-07T06:18:10Z</time>
				<extensions>
				</extensions>
			</trkpt>
			<trkpt lat="-27.958447" lon="152.883908">
				<ele>101</ele>
				<time>2015-05-07T06:18:11Z</time>
				<extensions>
				</extensions>
			</trkpt>
			<trkpt lat="-27.958646" lon="152.884008">
				<ele>101</ele>
				<time>2015-05-07T06:18:12Z</time>
				<extensions>
				</extensions>
			</trkpt>
			<trkpt lat="-27.958848" lon="152.884127">
				<ele>100</ele>
				<time>2015-05-07T06:18:13Z</time>
				<extensions>
				</extensions>
			</trkpt>
			<trkpt lat="-27.959040" lon="152.884261">
				<ele>100</ele>
				<time>2015-05-07T06:18:14Z</time>
				<extensions>
				</extensions>
			</trkpt>
			<trkpt lat="-27.959212" lon="152.884424">
				<ele>99</ele>
				<time>2015-05-07T06:18:15Z</time>
				<extensions>
				</extensions>
			</trkpt>
			<trkpt lat="-27.959381" lon="152.884608">
				<ele>99</ele>
				<time>2015-05-07T06:18:16Z</time>
				<extensions>
				</extensions>
			</trkpt>
			<trkpt lat="-27.959542" lon="152.884798">
				<ele>99</ele>
				<time>2015-05-07T06:18:17Z</time>
				<extensions>
				</extensions>
			</trkpt>
			<trkpt lat="-27.959698" lon="152.884990">
				<ele>99</ele>
				<time>2015-05-07T06:18:18Z</time>
				<extensions>
				</extensions>
			</trkpt>
			<trkpt lat="-27.959863" lon="152.885199">
				<ele>98</ele>
				<time>2015-05-07T06:18:19Z</time>
				<extensions>
				</extensions>
			</trkpt>
			<trkpt lat="-27.960033" lon="152.885414">
				<ele>98</ele>
				<time>2015-05-07T06:18:20Z</time>
				<extensions>
				</extensions>
			</trkpt>
			<trkpt lat="-27.960194" lon="152.885618">
				<ele>96</ele>
				<time>2015-05-07T06:18:21Z</time>
				<extensions>
				</extensions>
			</trkpt>
			<trkpt lat="-27.960357" lon="152.885828">
				<ele>95</ele>
				<time>2015-05-07T06:18:22Z</time>
				<extensions>
				</extensions>
			</trkpt>
			<trkpt lat="-27.960511" lon="152.886045">
				<ele>93</ele>
				<time>2015-05-07T06:18:23Z</time>
				<extensions>
				</extensions>
			</trkpt>
			<trkpt lat="-27.960668" lon="152.886235">
				<ele>92</ele>
				<time>2015-05-07T06:18:24Z</time>
				<extensions>
				</extensions>
			</trkpt>
			<trkpt lat="-27.960819" lon="152.886422">
				<ele>90</ele>
				<time>2015-05-07T06:18:25Z</time>
				<extensions>
				</extensions>
			</trkpt>
			<trkpt lat="-27.960962" lon="152.886606">
				<ele>90</ele>
				<time>2015-05-07T06:18:26Z</time>
				<extensions>
				</extensions>
			</trkpt>
			<trkpt lat="-27.961105" lon="152.886811">
				<ele>90</ele>
				<time>2015-05-07T06:18:27Z</time>
				<extensions>
				</extensions>
			</trkpt>
			<trkpt lat="-27.961237" lon="152.887006">
				<ele>90</ele>
				<time>2015-05-07T06:18:28Z</time>
				<extensions>
				</extensions>
			</trkpt>
			<trkpt lat="-27.961358" lon="152.887204">
				<ele>90</ele>
				<time>2015-05-07T06:18:29Z</time>
				<extensions>
				</extensions>
			</trkpt>
			<trkpt lat="-27.961485" lon="152.887465">
				<ele>90</ele>
				<time>2015-05-07T06:18:30Z</time>
				<extensions>
				</extensions>
			</trkpt>
			<trkpt lat="-27.961619" lon="152.887751">
				<ele>90</ele>
				<time>2015-05-07T06:18:31Z</time>
				<extensions>
				</extensions>
			</trkpt>
			<trkpt lat="-27.961729" lon="152.887999">
				<ele>88</ele>
				<time>2015-05-07T06:18:32Z</time>
				<extensions>
				</extensions>
			</trkpt>
			<trkpt lat="-27.961832" lon="152.888252">
				<ele>85</ele>
				<time>2015-05-07T06:18:33Z</time>
				<extensions>
				</extensions>
			</trkpt>
			<trkpt lat="-27.961907" lon="152.888519">
				<ele>81</ele>
				<time>2015-05-07T06:18:34Z</time>
				<extensions>
				</extensions>
			</trkpt>
			<trkpt lat="-27.961976" lon="152.888789">
				<ele>80</ele>
				<time>2015-05-07T06:18:35Z</time>
				<extensions>
				</extensions>
			</trkpt>
			<trkpt lat="-27.962045" lon="152.889065">
				<ele>78</ele>
				<time>2015-05-07T06:18:36Z</time>
				<extensions>
				</extensions>
			</trkpt>
			<trkpt lat="-27.962102" lon="152.889343">
				<ele>77</ele>
				<time>2015-05-07T06:18:37Z</time>
				<extensions>
				</extensions>
			</trkpt>
			<trkpt lat="-27.962149" lon="152.889624">
				<ele>78</ele>
				<time>2015-05-07T06:18:38Z</time>
				<extensions>
				</extensions>
			</trkpt>
			<trkpt lat="-27.962195" lon="152.889900">
				<ele>78</ele>
				<time>2015-05-07T06:18:39Z</time>
				<extensions>
				</extensions>
			</trkpt>
			<trkpt lat="-27.962239" lon="152.890192">
				<ele>76</ele>
				<time>2015-05-07T06:18:40Z</time>
				<extensions>
				</extensions>
			</trkpt>
			<trkpt lat="-27.962286" lon="152.890451">
				<ele>75</ele>
				<time>2015-05-07T06:18:41Z</time>
				<extensions>
				</extensions>
			</trkpt>
			<trkpt lat="-27.962340" lon="152.890724">
				<ele>74</ele>
				<time>2015-05-07T06:18:42Z</time>
				<extensions>
				</extensions>
			</trkpt>
			<trkpt lat="-27.962384" lon="152.890991">
				<ele>77</ele>
				<time>2015-05-07T06:18:43Z</time>
				<extensions>
				</extensions>
			</trkpt>
			<trkpt lat="-27.962427" lon="152.891250">
				<ele>76</ele>
				<time>2015-05-07T06:18:44Z</time>
				<extensions>
				</extensions>
			</trkpt>
			<trkpt lat="-27.962473" lon="152.891545">
				<ele>75</ele>
				<time>2015-05-07T06:18:45Z</time>
				<extensions>
				</extensions>
			</trkpt>
			<trkpt lat="-27.962513" lon="152.891819">
				<ele>73</ele>
				<time>2015-05-07T06:18:46Z</time>
				<extensions>
				</extensions>
			</trkpt>
			<trkpt lat="-27.962553" lon="152.892095">
				<ele>71</ele>
				<time>2015-05-07T06:18:47Z</time>
				<extensions>
				</extensions>
			</trkpt>
			<trkpt lat="-27.962593" lon="152.892365">
				<ele>68</ele>
				<time>2015-05-07T06:18:48Z</time>
				<extensions>
				</extensions>
			</trkpt>
			<trkpt lat="-27.962634" lon="152.892643">
				<ele>65</ele>
				<time>2015-05-07T06:18:49Z</time>
				<extensions>
				</extensions>
			</trkpt>
			<trkpt lat="-27.962669" lon="152.892906">
				<ele>62</ele>
				<time>2015-05-07T06:18:50Z</time>
				<extensions>
				</extensions>
			</trkpt>
			<trkpt lat="-27.962701" lon="152.893162">
				<ele>60</ele>
				<time>2015-05-07T06:18:51Z</time>
				<extensions>
				</extensions>
			</trkpt>
			<trkpt lat="-27.962721" lon="152.893428">
				<ele>60</ele>
				<time>2015-05-07T06:18:52Z</time>
				<extensions>
				</extensions>
			</trkpt>
			<trkpt lat="-27.962726" lon="152.893705">
				<ele>60</ele>
				<time>2015-05-07T06:18:53Z</time>
				<extensions>
				</extensions>
			</trkpt>
			<trkpt lat="-27.962718" lon="152.893979">
				<ele>61</ele>
				<time>2015-05-07T06:18:54Z</time>
				<extensions>
				</extensions>
			</trkpt>
			<trkpt lat="-27.962671" lon="152.894259">
				<ele>61</ele>
				<time>2015-05-07T06:18:55Z</time>
				<extensions>
				</extensions>
			</trkpt>
			<trkpt lat="-27.962595" lon="152.894526">
				<ele>62</ele>
				<time>2015-05-07T06:18:56Z</time>
				<extensions>
				</extensions>
			</trkpt>
			<trkpt lat="-27.962508" lon="152.894801">
				<ele>62</ele>
				<time>2015-05-07T06:18:57Z</time>
				<extensions>
				</extensions>
			</trkpt>
			<trkpt lat="-27.962422" lon="152.895091">
				<ele>64</ele>
				<time>2015-05-07T06:18:58Z</time>
				<extensions>
				</extensions>
			</trkpt>
			<trkpt lat="-27.962317" lon="152.895381">
				<ele>64</ele>
				<time>2015-05-07T06:18:59Z</time>
				<extensions>
				</extensions>
			</trkpt>
			<trkpt lat="-27.962229" lon="152.895637">
				<ele>62</ele>
				<time>2015-05-07T06:19:00Z</time>
				<extensions>
				</extensions>
			</trkpt>
			<trkpt lat="-27.962131" lon="152.895885">
				<ele>62</ele>
				<time>2015-05-07T06:19:01Z</time>
				<extensions>
				</extensions>
			</trkpt>
			<trkpt lat="-27.962035" lon="152.896155">
				<ele>62</ele>
				<time>2015-05-07T06:19:02Z</time>
				<extensions>
				</extensions>
			</trkpt>
			<trkpt lat="-27.961927" lon="152.896425">
				<ele>60</ele>
				<time>2015-05-07T06:19:03Z</time>
				<extensions>
				</extensions>
			</trkpt>
			<trkpt lat="-27.961829" lon="152.896696">
				<ele>61</ele>
				<time>2015-05-07T06:19:04Z</time>
				<extensions>
				</extensions>
			</trkpt>
			<trkpt lat="-27.961740" lon="152.896992">
				<ele>62</ele>
				<time>2015-05-07T06:19:05Z</time>
				<extensions>
				</extensions>
			</trkpt>
			<trkpt lat="-27.961648" lon="152.897283">
				<ele>61</ele>
				<time>2015-05-07T06:19:06Z</time>
				<extensions>
				</extensions>
			</trkpt>
			<trkpt lat="-27.961551" lon="152.897557">
				<ele>61</ele>
				<time>2015-05-07T06:19:07Z</time>
				<extensions>
				</extensions>
			</trkpt>
			<trkpt lat="-27.961457" lon="152.897839">
				<ele>62</ele>
				<time>2015-05-07T06:19:08Z</time>
				<extensions>
				</extensions>
			</trkpt>
			<trkpt lat="-27.961368" lon="152.898115">
				<ele>61</ele>
				<time>2015-05-07T06:19:09Z</time>
				<extensions>
				</extensions>
			</trkpt>
			<trkpt lat="-27.961274" lon="152.898381">
				<ele>61</ele>
				<time>2015-05-07T06:19:10Z</time>
				<extensions>
				</extensions>
			</trkpt>
			<trkpt lat="-27.961188" lon="152.898656">
				<ele>60</ele>
				<time>2015-05-07T06:19:11Z</time>
				<extensions>
				</extensions>
			</trkpt>
			<trkpt lat="-27.961122" lon="152.898955">
				<ele>60</ele>
				<time>2015-05-07T06:19:12Z</time>
				<extensions>
				</extensions>
			</trkpt>
			<trkpt lat="-27.961063" lon="152.899236">
				<ele>61</ele>
				<time>2015-05-07T06:19:13Z</time>
				<extensions>
				</extensions>
			</trkpt>
			<trkpt lat="-27.961035" lon="152.899541">
				<ele>62</ele>
				<time>2015-05-07T06:19:14Z</time>
				<extensions>
				</extensions>
			</trkpt>
			<trkpt lat="-27.961006" lon="152.899832">
				<ele>63</ele>
				<time>2015-05-07T06:19:15Z</time>
				<extensions>
				</extensions>
			</trkpt>
			<trkpt lat="-27.961020" lon="152.900098">
				<ele>62</ele>
				<time>2015-05-07T06:19:16Z</time>
				<extensions>
				</extensions>
			</trkpt>
			<trkpt lat="-27.961031" lon="152.900409">
				<ele>62</ele>
				<time>2015-05-07T06:19:17Z</time>
				<extensions>
				</extensions>
			</trkpt>
			<trkpt lat="-27.961053" lon="152.900705">
				<ele>65</ele>
				<time>2015-05-07T06:19:18Z</time>
				<extensions>
				</extensions>
			</trkpt>
			<trkpt lat="-27.961084" lon="152.900985">
				<ele>64</ele>
				<time>2015-05-07T06:19:19Z</time>
				<extensions>
				</extensions>
			</trkpt>
			<trkpt lat="-27.961128" lon="152.901254">
				<ele>65</ele>
				<time>2015-05-07T06:19:20Z</time>
				<extensions>
				</extensions>
			</trkpt>
			<trkpt lat="-27.961194" lon="152.901519">
				<ele>65</ele>
				<time>2015-05-07T06:19:21Z</time>
				<extensions>
				</extensions>
			</trkpt>
			<trkpt lat="-27.961261" lon="152.901810">
				<ele>67</ele>
				<time>2015-05-07T06:19:22Z</time>
				<extensions>
				</extensions>
			</trkpt>
			<trkpt lat="-27.961351" lon="152.902088">
				<ele>67</ele>
				<time>2015-05-07T06:19:23Z</time>
				<extensions>
				</extensions>
			</trkpt>
			<trkpt lat="-27.961458" lon="152.902347">
				<ele>67</ele>
				<time>2015-05-07T06:19:24Z</time>
				<extensions>
				</extensions>
			</trkpt>
			<trkpt lat="-27.961569" lon="152.902602">
				<ele>71</ele>
				<time>2015-05-07T06:19:25Z</time>
				<extensions>
				</extensions>
			</trkpt>
			<trkpt lat="-27.961675" lon="152.902859">
				<ele>71</ele>
				<time>2015-05-07T06:19:26Z</time>
				<extensions>
				</extensions>
			</trkpt>
			<trkpt lat="-27.961796" lon="152.903138">
				<ele>70</ele>
				<time>2015-05-07T06:19:27Z</time>
				<extensions>
				</extensions>
			</trkpt>
			<trkpt lat="-27.961890" lon="152.903403">
				<ele>70</ele>
				<time>2015-05-07T06:19:28Z</time>
				<extensions>
				</extensions>
			</trkpt>
			<trkpt lat="-27.961978" lon="152.903681">
				<ele>70</ele>
				<time>2015-05-07T06:19:29Z</time>
				<extensions>
				</extensions>
			</trkpt>
			<trkpt lat="-27.962055" lon="152.903959">
				<ele>70</ele>
				<time>2015-05-07T06:19:30Z</time>
				<extensions>
				</extensions>
			</trkpt>
			<trkpt lat="-27.962120" lon="152.904254">
				<ele>69</ele>
				<time>2015-05-07T06:19:31Z</time>
				<extensions>
				</extensions>
			</trkpt>
			<trkpt lat="-27.962174" lon="152.904528">
				<ele>67</ele>
				<time>2015-05-07T06:19:32Z</time>
				<extensions>
				</extensions>
			</trkpt>
			<trkpt lat="-27.962229" lon="152.904817">
				<ele>67</ele>
				<time>2015-05-07T06:19:33Z</time>
				<extensions>
				</extensions>
			</trkpt>
			<trkpt lat="-27.962287" lon="152.905105">
				<ele>64</ele>
				<time>2015-05-07T06:19:34Z</time>
				<extensions>
				</extensions>
			</trkpt>
			<trkpt lat="-27.962339" lon="152.905378">
				<ele>64</ele>
				<time>2015-05-07T06:19:35Z</time>
				<extensions>
				</extensions>
			</trkpt>
			<trkpt lat="-27.962390" lon="152.905665">
				<ele>62</ele>
				<time>2015-05-07T06:19:36Z</time>
				<extensions>
				</extensions>
			</trkpt>
			<trkpt lat="-27.962441" lon="152.905948">
				<ele>60</ele>
				<time>2015-05-07T06:19:37Z</time>
				<extensions>
				</extensions>
			</trkpt>
			<trkpt lat="-27.962502" lon="152.906221">
				<ele>61</ele>
				<time>2015-05-07T06:19:38Z</time>
				<extensions>
				</extensions>
			</trkpt>
			<trkpt lat="-27.962557" lon="152.906487">
				<ele>60</ele>
				<time>2015-05-07T06:19:39Z</time>
				<extensions>
				</extensions>
			</trkpt>
			<trkpt lat="-27.962628" lon="152.906716">
				<ele>60</ele>
				<time>2015-05-07T06:19:40Z</time>
				<extensions>
				</extensions>
			</trkpt>
			<trkpt lat="-27.962714" lon="152.906966">
				<ele>58</ele>
				<time>2015-05-07T06:19:41Z</time>
				<extensions>
				</extensions>
			</trkpt>
			<trkpt lat="-27.962827" lon="152.907203">
				<ele>58</ele>
				<time>2015-05-07T06:19:42Z</time>
				<extensions>
				</extensions>
			</trkpt>
			<trkpt lat="-27.962919" lon="152.907456">
				<ele>58</ele>
				<time>2015-05-07T06:19:43Z</time>
				<extensions>
				</extensions>
			</trkpt>
			<trkpt lat="-27.963034" lon="152.907693">
				<ele>61</ele>
				<time>2015-05-07T06:19:44Z</time>
				<extensions>
				</extensions>
			</trkpt>
			<trkpt lat="-27.963225" lon="152.907962">
				<ele>61</ele>
				<time>2015-05-07T06:19:45Z</time>
				<extensions>
				</extensions>
			</trkpt>
			<trkpt lat="-27.963368" lon="152.908194">
				<ele>62</ele>
				<time>2015-05-07T06:19:46Z</time>
				<extensions>
				</extensions>
			</trkpt>
			<trkpt lat="-27.963509" lon="152.908421">
				<ele>63</ele>
				<time>2015-05-07T06:19:47Z</time>
				<extensions>
				</extensions>
			</trkpt>
			<trkpt lat="-27.963670" lon="152.908617">
				<ele>65</ele>
				<time>2015-05-07T06:19:48Z</time>
				<extensions>
				</extensions>
			</trkpt>
			<trkpt lat="-27.963895" lon="152.908775">
				<ele>67</ele>
				<time>2015-05-07T06:19:49Z</time>
				<extensions>
				</extensions>
			</trkpt>
			<trkpt lat="-27.964091" lon="152.908935">
				<ele>69</ele>
				<time>2015-05-07T06:19:50Z</time>
				<extensions>
				</extensions>
			</trkpt>
			<trkpt lat="-27.964294" lon="152.909096">
				<ele>69</ele>
				<time>2015-05-07T06:19:51Z</time>
				<extensions>
				</extensions>
			</trkpt>
			<trkpt lat="-27.964541" lon="152.909159">
				<ele>70</ele>
				<time>2015-05-07T06:19:52Z</time>
				<extensions>
				</extensions>
			</trkpt>
			<trkpt lat="-27.964770" lon="152.909249">
				<ele>70</ele>
				<time>2015-05-07T06:19:53Z</time>
				<extensions>
				</extensions>
			</trkpt>
			<trkpt lat="-27.965017" lon="152.909337">
				<ele>70</ele>
				<time>2015-05-07T06:19:54Z</time>
				<extensions>
				</extensions>
			</trkpt>
			<trkpt lat="-27.965245" lon="152.909408">
				<ele>71</ele>
				<time>2015-05-07T06:19:55Z</time>
				<extensions>
				</extensions>
			</trkpt>
			<trkpt lat="-27.965481" lon="152.909469">
				<ele>73</ele>
				<time>2015-05-07T06:19:56Z</time>
				<extensions>
				</extensions>
			</trkpt>
			<trkpt lat="-27.965703" lon="152.909534">
				<ele>74</ele>
				<time>2015-05-07T06:19:57Z</time>
				<extensions>
				</extensions>
			</trkpt>
			<trkpt lat="-27.965912" lon="152.909585">
				<ele>75</ele>
				<time>2015-05-07T06:19:58Z</time>
				<extensions>
				</extensions>
			</trkpt>
			<trkpt lat="-27.966091" lon="152.909635">
				<ele>74</ele>
				<time>2015-05-07T06:19:59Z</time>
				<extensions>
				</extensions>
			</trkpt>
			<trkpt lat="-27.966276" lon="152.909696">
				<ele>72</ele>
				<time>2015-05-07T06:20:00Z</time>
				<extensions>
				</extensions>
			</trkpt>
			<trkpt lat="-27.966460" lon="152.909766">
				<ele>71</ele>
				<time>2015-05-07T06:20:01Z</time>
				<extensions>
				</extensions>
			</trkpt>
			<trkpt lat="-27.966630" lon="152.909841">
				<ele>73</ele>
				<time>2015-05-07T06:20:02Z</time>
				<extensions>
				</extensions>
			</trkpt>
			<trkpt lat="-27.966802" lon="152.909923">
				<ele>73</ele>
				<time>2015-05-07T06:20:03Z</time>
				<extensions>
				</extensions>
			</trkpt>
			<trkpt lat="-27.967112" lon="152.910107">
				<ele>76</ele>
				<time>2015-05-07T06:20:05Z</time>
				<extensions>
				</extensions>
			</trkpt>
			<trkpt lat="-27.967384" lon="152.910304">
				<ele>78</ele>
				<time>2015-05-07T06:20:07Z</time>
				<extensions>
				</extensions>
			</trkpt>
			<trkpt lat="-27.967634" lon="152.910521">
				<ele>80</ele>
				<time>2015-05-07T06:20:09Z</time>
				<extensions>
				</extensions>
			</trkpt>
			<trkpt lat="-27.967880" lon="152.910739">
				<ele>86</ele>
				<time>2015-05-07T06:20:11Z</time>
				<extensions>
				</extensions>
			</trkpt>
			<trkpt lat="-27.968096" lon="152.910977">
				<ele>90</ele>
				<time>2015-05-07T06:20:13Z</time>
				<extensions>
				</extensions>
			</trkpt>
			<trkpt lat="-27.968295" lon="152.911228">
				<ele>90</ele>
				<time>2015-05-07T06:20:15Z</time>
				<extensions>
				</extensions>
			</trkpt>
			<trkpt lat="-27.968475" lon="152.911502">
				<ele>93</ele>
				<time>2015-05-07T06:20:17Z</time>
				<extensions>
				</extensions>
			</trkpt>
			<trkpt lat="-27.968635" lon="152.911800">
				<ele>95</ele>
				<time>2015-05-07T06:20:19Z</time>
				<extensions>
				</extensions>
			</trkpt>
			<trkpt lat="-27.968778" lon="152.912142">
				<ele>97</ele>
				<time>2015-05-07T06:20:21Z</time>
				<extensions>
				</extensions>
			</trkpt>
			<trkpt lat="-27.968894" lon="152.912459">
				<ele>98</ele>
				<time>2015-05-07T06:20:23Z</time>
				<extensions>
				</extensions>
			</trkpt>
			<trkpt lat="-27.969020" lon="152.912859">
				<ele>99</ele>
				<time>2015-05-07T06:20:25Z</time>
				<extensions>
				</extensions>
			</trkpt>
			<trkpt lat="-27.969102" lon="152.913255">
				<ele>99</ele>
				<time>2015-05-07T06:20:27Z</time>
				<extensions>
				</extensions>
			</trkpt>
			<trkpt lat="-27.969136" lon="152.913461">
				<ele>100</ele>
				<time>2015-05-07T06:20:28Z</time>
				<extensions>
				</extensions>
			</trkpt>
			<trkpt lat="-27.969174" lon="152.913865">
				<ele>99</ele>
				<time>2015-05-07T06:20:30Z</time>
				<extensions>
				</extensions>
			</trkpt>
			<trkpt lat="-27.969184" lon="152.914071">
				<ele>99</ele>
				<time>2015-05-07T06:20:31Z</time>
				<extensions>
				</extensions>
			</trkpt>
			<trkpt lat="-27.969203" lon="152.914322">
				<ele>98</ele>
				<time>2015-05-07T06:20:32Z</time>
				<extensions>
				</extensions>
			</trkpt>
			<trkpt lat="-27.969194" lon="152.914526">
				<ele>97</ele>
				<time>2015-05-07T06:20:33Z</time>
				<extensions>
				</extensions>
			</trkpt>
			<trkpt lat="-27.969193" lon="152.914736">
				<ele>95</ele>
				<time>2015-05-07T06:20:34Z</time>
				<extensions>
				</extensions>
			</trkpt>
			<trkpt lat="-27.969198" lon="152.915134">
				<ele>96</ele>
				<time>2015-05-07T06:20:36Z</time>
				<extensions>
				</extensions>
			</trkpt>
			<trkpt lat="-27.969212" lon="152.915565">
				<ele>94</ele>
				<time>2015-05-07T06:20:38Z</time>
				<extensions>
				</extensions>
			</trkpt>
			<trkpt lat="-27.969223" lon="152.915791">
				<ele>93</ele>
				<time>2015-05-07T06:20:39Z</time>
				<extensions>
				</extensions>
			</trkpt>
			<trkpt lat="-27.969246" lon="152.916006">
				<ele>92</ele>
				<time>2015-05-07T06:20:40Z</time>
				<extensions>
				</extensions>
			</trkpt>
			<trkpt lat="-27.969286" lon="152.916205">
				<ele>92</ele>
				<time>2015-05-07T06:20:41Z</time>
				<extensions>
				</extensions>
			</trkpt>
			<trkpt lat="-27.969387" lon="152.916589">
				<ele>90</ele>
				<time>2015-05-07T06:20:43Z</time>
				<extensions>
				</extensions>
			</trkpt>
			<trkpt lat="-27.969453" lon="152.916785">
				<ele>90</ele>
				<time>2015-05-07T06:20:44Z</time>
				<extensions>
				</extensions>
			</trkpt>
			<trkpt lat="-27.969548" lon="152.916973">
				<ele>90</ele>
				<time>2015-05-07T06:20:45Z</time>
				<extensions>
				</extensions>
			</trkpt>
			<trkpt lat="-27.969635" lon="152.917166">
				<ele>89</ele>
				<time>2015-05-07T06:20:46Z</time>
				<extensions>
				</extensions>
			</trkpt>
			<trkpt lat="-27.969733" lon="152.917369">
				<ele>89</ele>
				<time>2015-05-07T06:20:47Z</time>
				<extensions>
				</extensions>
			</trkpt>
			<trkpt lat="-27.969845" lon="152.917530">
				<ele>88</ele>
				<time>2015-05-07T06:20:48Z</time>
				<extensions>
				</extensions>
			</trkpt>
			<trkpt lat="-27.970085" lon="152.917866">
				<ele>87</ele>
				<time>2015-05-07T06:20:50Z</time>
				<extensions>
				</extensions>
			</trkpt>
			<trkpt lat="-27.970217" lon="152.918021">
				<ele>86</ele>
				<time>2015-05-07T06:20:51Z</time>
				<extensions>
				</extensions>
			</trkpt>
			<trkpt lat="-27.970363" lon="152.918144">
				<ele>87</ele>
				<time>2015-05-07T06:20:52Z</time>
				<extensions>
				</extensions>
			</trkpt>
			<trkpt lat="-27.970512" lon="152.918289">
				<ele>85</ele>
				<time>2015-05-07T06:20:53Z</time>
				<extensions>
				</extensions>
			</trkpt>
			<trkpt lat="-27.970685" lon="152.918425">
				<ele>86</ele>
				<time>2015-05-07T06:20:54Z</time>
				<extensions>
				</extensions>
			</trkpt>
			<trkpt lat="-27.970860" lon="152.918548">
				<ele>85</ele>
				<time>2015-05-07T06:20:55Z</time>
				<extensions>
				</extensions>
			</trkpt>
			<trkpt lat="-27.971055" lon="152.918674">
				<ele>85</ele>
				<time>2015-05-07T06:20:56Z</time>
				<extensions>
				</extensions>
			</trkpt>
			<trkpt lat="-27.971258" lon="152.918803">
				<ele>86</ele>
				<time>2015-05-07T06:20:57Z</time>
				<extensions>
				</extensions>
			</trkpt>
			<trkpt lat="-27.971478" lon="152.918925">
				<ele>87</ele>
				<time>2015-05-07T06:20:58Z</time>
				<extensions>
				</extensions>
			</trkpt>
			<trkpt lat="-27.971687" lon="152.919060">
				<ele>86</ele>
				<time>2015-05-07T06:20:59Z</time>
				<extensions>
				</extensions>
			</trkpt>
			<trkpt lat="-27.971886" lon="152.919185">
				<ele>85</ele>
				<time>2015-05-07T06:21:00Z</time>
				<extensions>
				</extensions>
			</trkpt>
			<trkpt lat="-27.972087" lon="152.919312">
				<ele>84</ele>
				<time>2015-05-07T06:21:01Z</time>
				<extensions>
				</extensions>
			</trkpt>
			<trkpt lat="-27.972277" lon="152.919440">
				<ele>84</ele>
				<time>2015-05-07T06:21:02Z</time>
				<extensions>
				</extensions>
			</trkpt>
			<trkpt lat="-27.972473" lon="152.919574">
				<ele>83</ele>
				<time>2015-05-07T06:21:03Z</time>
				<extensions>
				</extensions>
			</trkpt>
			<trkpt lat="-27.972663" lon="152.919716">
				<ele>83</ele>
				<time>2015-05-07T06:21:04Z</time>
				<extensions>
				</extensions>
			</trkpt>
			<trkpt lat="-27.972852" lon="152.919878">
				<ele>84</ele>
				<time>2015-05-07T06:21:05Z</time>
				<extensions>
				</extensions>
			</trkpt>
			<trkpt lat="-27.973037" lon="152.920060">
				<ele>83</ele>
				<time>2015-05-07T06:21:06Z</time>
				<extensions>
				</extensions>
			</trkpt>
			<trkpt lat="-27.973205" lon="152.920252">
				<ele>85</ele>
				<time>2015-05-07T06:21:07Z</time>
				<extensions>
				</extensions>
			</trkpt>
			<trkpt lat="-27.973362" lon="152.920453">
				<ele>85</ele>
				<time>2015-05-07T06:21:08Z</time>
				<extensions>
				</extensions>
			</trkpt>
			<trkpt lat="-27.973503" lon="152.920686">
				<ele>85</ele>
				<time>2015-05-07T06:21:09Z</time>
				<extensions>
				</extensions>
			</trkpt>
			<trkpt lat="-27.973640" lon="152.920934">
				<ele>85</ele>
				<time>2015-05-07T06:21:10Z</time>
				<extensions>
				</extensions>
			</trkpt>
			<trkpt lat="-27.973772" lon="152.921180">
				<ele>86</ele>
				<time>2015-05-07T06:21:11Z</time>
				<extensions>
				</extensions>
			</trkpt>
			<trkpt lat="-27.973877" lon="152.921431">
				<ele>86</ele>
				<time>2015-05-07T06:21:12Z</time>
				<extensions>
				</extensions>
			</trkpt>
			<trkpt lat="-27.973970" lon="152.921687">
				<ele>86</ele>
				<time>2015-05-07T06:21:13Z</time>
				<extensions>
				</extensions>
			</trkpt>
			<trkpt lat="-27.974031" lon="152.921951">
				<ele>84</ele>
				<time>2015-05-07T06:21:14Z</time>
				<extensions>
				</extensions>
			</trkpt>
			<trkpt lat="-27.974084" lon="152.922213">
				<ele>83</ele>
				<time>2015-05-07T06:21:15Z</time>
				<extensions>
				</extensions>
			</trkpt>
			<trkpt lat="-27.974144" lon="152.922465">
				<ele>82</ele>
				<time>2015-05-07T06:21:16Z</time>
				<extensions>
				</extensions>
			</trkpt>
			<trkpt lat="-27.974195" lon="152.922728">
				<ele>82</ele>
				<time>2015-05-07T06:21:17Z</time>
				<extensions>
				</extensions>
			</trkpt>
			<trkpt lat="-27.974251" lon="152.923003">
				<ele>81</ele>
				<time>2015-05-07T06:21:18Z</time>
				<extensions>
				</extensions>
			</trkpt>
			<trkpt lat="-27.974297" lon="152.923297">
				<ele>82</ele>
				<time>2015-05-07T06:21:19Z</time>
				<extensions>
				</extensions>
			</trkpt>
			<trkpt lat="-27.974352" lon="152.923561">
				<ele>85</ele>
				<time>2015-05-07T06:21:20Z</time>
				<extensions>
				</extensions>
			</trkpt>
			<trkpt lat="-27.974411" lon="152.923857">
				<ele>85</ele>
				<time>2015-05-07T06:21:21Z</time>
				<extensions>
				</extensions>
			</trkpt>
			<trkpt lat="-27.974471" lon="152.924132">
				<ele>86</ele>
				<time>2015-05-07T06:21:22Z</time>
				<extensions>
				</extensions>
			</trkpt>
			<trkpt lat="-27.974544" lon="152.924398">
				<ele>87</ele>
				<time>2015-05-07T06:21:23Z</time>
				<extensions>
				</extensions>
			</trkpt>
			<trkpt lat="-27.974607" lon="152.924680">
				<ele>89</ele>
				<time>2015-05-07T06:21:24Z</time>
				<extensions>
				</extensions>
			</trkpt>
			<trkpt lat="-27.974656" lon="152.924956">
				<ele>90</ele>
				<time>2015-05-07T06:21:25Z</time>
				<extensions>
				</extensions>
			</trkpt>
			<trkpt lat="-27.974709" lon="152.925229">
				<ele>90</ele>
				<time>2015-05-07T06:21:26Z</time>
				<extensions>
				</extensions>
			</trkpt>
			<trkpt lat="-27.974770" lon="152.925526">
				<ele>91</ele>
				<time>2015-05-07T06:21:27Z</time>
				<extensions>
				</extensions>
			</trkpt>
			<trkpt lat="-27.974826" lon="152.925807">
				<ele>89</ele>
				<time>2015-05-07T06:21:28Z</time>
				<extensions>
				</extensions>
			</trkpt>
			<trkpt lat="-27.974877" lon="152.926090">
				<ele>89</ele>
				<time>2015-05-07T06:21:29Z</time>
				<extensions>
				</extensions>
			</trkpt>
			<trkpt lat="-27.974929" lon="152.926369">
				<ele>89</ele>
				<time>2015-05-07T06:21:30Z</time>
				<extensions>
				</extensions>
			</trkpt>
			<trkpt lat="-27.974981" lon="152.926620">
				<ele>89</ele>
				<time>2015-05-07T06:21:31Z</time>
				<extensions>
				</extensions>
			</trkpt>
			<trkpt lat="-27.975036" lon="152.926868">
				<ele>88</ele>
				<time>2015-05-07T06:21:32Z</time>
				<extensions>
				</extensions>
			</trkpt>
			<trkpt lat="-27.975087" lon="152.927094">
				<ele>87</ele>
				<time>2015-05-07T06:21:33Z</time>
				<extensions>
				</extensions>
			</trkpt>
			<trkpt lat="-27.975125" lon="152.927331">
				<ele>87</ele>
				<time>2015-05-07T06:21:34Z</time>
				<extensions>
				</extensions>
			</trkpt>
			<trkpt lat="-27.975170" lon="152.927584">
				<ele>88</ele>
				<time>2015-05-07T06:21:35Z</time>
				<extensions>
				</extensions>
			</trkpt>
			<trkpt lat="-27.975221" lon="152.927836">
				<ele>86</ele>
				<time>2015-05-07T06:21:36Z</time>
				<extensions>
				</extensions>
			</trkpt>
			<trkpt lat="-27.975273" lon="152.928093">
				<ele>86</ele>
				<time>2015-05-07T06:21:37Z</time>
				<extensions>
				</extensions>
			</trkpt>
			<trkpt lat="-27.975330" lon="152.928355">
				<ele>84</ele>
				<time>2015-05-07T06:21:38Z</time>
				<extensions>
				</extensions>
			</trkpt>
			<trkpt lat="-27.975382" lon="152.928621">
				<ele>83</ele>
				<time>2015-05-07T06:21:39Z</time>
				<extensions>
				</extensions>
			</trkpt>
			<trkpt lat="-27.975434" lon="152.928873">
				<ele>82</ele>
				<time>2015-05-07T06:21:40Z</time>
				<extensions>
				</extensions>
			</trkpt>
			<trkpt lat="-27.975501" lon="152.929118">
				<ele>80</ele>
				<time>2015-05-07T06:21:41Z</time>
				<extensions>
				</extensions>
			</trkpt>
			<trkpt lat="-27.975552" lon="152.929359">
				<ele>81</ele>
				<time>2015-05-07T06:21:42Z</time>
				<extensions>
				</extensions>
			</trkpt>
			<trkpt lat="-27.975614" lon="152.929605">
				<ele>79</ele>
				<time>2015-05-07T06:21:43Z</time>
				<extensions>
				</extensions>
			</trkpt>
			<trkpt lat="-27.975669" lon="152.929866">
				<ele>77</ele>
				<time>2015-05-07T06:21:44Z</time>
				<extensions>
				</extensions>
			</trkpt>
			<trkpt lat="-27.975725" lon="152.930130">
				<ele>76</ele>
				<time>2015-05-07T06:21:45Z</time>
				<extensions>
				</extensions>
			</trkpt>
			<trkpt lat="-27.975782" lon="152.930421">
				<ele>74</ele>
				<time>2015-05-07T06:21:46Z</time>
				<extensions>
				</extensions>
			</trkpt>
			<trkpt lat="-27.975834" lon="152.930680">
				<ele>70</ele>
				<time>2015-05-07T06:21:47Z</time>
				<extensions>
				</extensions>
			</trkpt>
			<trkpt lat="-27.975902" lon="152.930960">
				<ele>69</ele>
				<time>2015-05-07T06:21:48Z</time>
				<extensions>
				</extensions>
			</trkpt>
			<trkpt lat="-27.975961" lon="152.931229">
				<ele>68</ele>
				<time>2015-05-07T06:21:49Z</time>
				<extensions>
				</extensions>
			</trkpt>
			<trkpt lat="-27.976017" lon="152.931491">
				<ele>68</ele>
				<time>2015-05-07T06:21:50Z</time>
				<extensions>
				</extensions>
			</trkpt>
			<trkpt lat="-27.976079" lon="152.931766">
				<ele>66</ele>
				<time>2015-05-07T06:21:51Z</time>
				<extensions>
				</extensions>
			</trkpt>
			<trkpt lat="-27.976135" lon="152.932035">
				<ele>65</ele>
				<time>2015-05-07T06:21:52Z</time>
				<extensions>
				</extensions>
			</trkpt>
			<trkpt lat="-27.976189" lon="152.932300">
				<ele>64</ele>
				<time>2015-05-07T06:21:53Z</time>
				<extensions>
				</extensions>
			</trkpt>
			<trkpt lat="-27.976232" lon="152.932557">
				<ele>64</ele>
				<time>2015-05-07T06:21:54Z</time>
				<extensions>
				</extensions>
			</trkpt>
			<trkpt lat="-27.976288" lon="152.932835">
				<ele>63</ele>
				<time>2015-05-07T06:21:55Z</time>
				<extensions>
				</extensions>
			</trkpt>
			<trkpt lat="-27.976332" lon="152.933109">
				<ele>62</ele>
				<time>2015-05-07T06:21:56Z</time>
				<extensions>
				</extensions>
			</trkpt>
			<trkpt lat="-27.976370" lon="152.933389">
				<ele>63</ele>
				<time>2015-05-07T06:21:57Z</time>
				<extensions>
				</extensions>
			</trkpt>
			<trkpt lat="-27.976405" lon="152.933674">
				<ele>64</ele>
				<time>2015-05-07T06:21:58Z</time>
				<extensions>
				</extensions>
			</trkpt>
			<trkpt lat="-27.976454" lon="152.933968">
				<ele>63</ele>
				<time>2015-05-07T06:21:59Z</time>
				<extensions>
				</extensions>
			</trkpt>
			<trkpt lat="-27.976494" lon="152.934235">
				<ele>65</ele>
				<time>2015-05-07T06:22:00Z</time>
				<extensions>
				</extensions>
			</trkpt>
			<trkpt lat="-27.976511" lon="152.934522">
				<ele>62</ele>
				<time>2015-05-07T06:22:01Z</time>
				<extensions>
				</extensions>
			</trkpt>
			<trkpt lat="-27.976549" lon="152.934801">
				<ele>62</ele>
				<time>2015-05-07T06:22:02Z</time>
				<extensions>
				</extensions>
			</trkpt>
			<trkpt lat="-27.976597" lon="152.935069">
				<ele>63</ele>
				<time>2015-05-07T06:22:03Z</time>
				<extensions>
				</extensions>
			</trkpt>
			<trkpt lat="-27.976634" lon="152.935340">
				<ele>63</ele>
				<time>2015-05-07T06:22:04Z</time>
				<extensions>
				</extensions>
			</trkpt>
			<trkpt lat="-27.976672" lon="152.935612">
				<ele>61</ele>
				<time>2015-05-07T06:22:05Z</time>
				<extensions>
				</extensions>
			</trkpt>
			<trkpt lat="-27.976708" lon="152.935882">
				<ele>60</ele>
				<time>2015-05-07T06:22:06Z</time>
				<extensions>
				</extensions>
			</trkpt>
			<trkpt lat="-27.976762" lon="152.936181">
				<ele>61</ele>
				<time>2015-05-07T06:22:07Z</time>
				<extensions>
				</extensions>
			</trkpt>
			<trkpt lat="-27.976813" lon="152.936484">
				<ele>62</ele>
				<time>2015-05-07T06:22:08Z</time>
				<extensions>
				</extensions>
			</trkpt>
			<trkpt lat="-27.976856" lon="152.936747">
				<ele>63</ele>
				<time>2015-05-07T06:22:09Z</time>
				<extensions>
				</extensions>
			</trkpt>
			<trkpt lat="-27.976889" lon="152.937028">
				<ele>66</ele>
				<time>2015-05-07T06:22:10Z</time>
				<extensions>
				</extensions>
			</trkpt>
			<trkpt lat="-27.976936" lon="152.937303">
				<ele>65</ele>
				<time>2015-05-07T06:22:11Z</time>
				<extensions>
				</extensions>
			</trkpt>
			<trkpt lat="-27.976981" lon="152.937586">
				<ele>66</ele>
				<time>2015-05-07T06:22:12Z</time>
				<extensions>
				</extensions>
			</trkpt>
			<trkpt lat="-27.977033" lon="152.937882">
				<ele>66</ele>
				<time>2015-05-07T06:22:13Z</time>
				<extensions>
				</extensions>
			</trkpt>
			<trkpt lat="-27.977086" lon="152.938198">
				<ele>65</ele>
				<time>2015-05-07T06:22:14Z</time>
				<extensions>
				</extensions>
			</trkpt>
			<trkpt lat="-27.977124" lon="152.938482">
				<ele>66</ele>
				<time>2015-05-07T06:22:15Z</time>
				<extensions>
				</extensions>
			</trkpt>
			<trkpt lat="-27.977166" lon="152.938767">
				<ele>66</ele>
				<time>2015-05-07T06:22:16Z</time>
				<extensions>
				</extensions>
			</trkpt>
			<trkpt lat="-27.977193" lon="152.939039">
				<ele>64</ele>
				<time>2015-05-07T06:22:17Z</time>
				<extensions>
				</extensions>
			</trkpt>
			<trkpt lat="-27.977212" lon="152.939376">
				<ele>64</ele>
				<time>2015-05-07T06:22:18Z</time>
				<extensions>
				</extensions>
			</trkpt>
			<trkpt lat="-27.977241" lon="152.939678">
				<ele>63</ele>
				<time>2015-05-07T06:22:19Z</time>
				<extensions>
				</extensions>
			</trkpt>
			<trkpt lat="-27.977347" lon="152.940145">
				<ele>63</ele>
				<time>2015-05-07T06:22:21Z</time>
				<extensions>
				</extensions>
			</trkpt>
			<trkpt lat="-27.977389" lon="152.940426">
				<ele>62</ele>
				<time>2015-05-07T06:22:22Z</time>
				<extensions>
				</extensions>
			</trkpt>
			<trkpt lat="-27.977434" lon="152.940712">
				<ele>63</ele>
				<time>2015-05-07T06:22:23Z</time>
				<extensions>
				</extensions>
			</trkpt>
			<trkpt lat="-27.977473" lon="152.940997">
				<ele>61</ele>
				<time>2015-05-07T06:22:24Z</time>
				<extensions>
				</extensions>
			</trkpt>
			<trkpt lat="-27.977519" lon="152.941261">
				<ele>61</ele>
				<time>2015-05-07T06:22:25Z</time>
				<extensions>
				</extensions>
			</trkpt>
			<trkpt lat="-27.977558" lon="152.941536">
				<ele>59</ele>
				<time>2015-05-07T06:22:26Z</time>
				<extensions>
				</extensions>
			</trkpt>
			<trkpt lat="-27.977596" lon="152.941799">
				<ele>58</ele>
				<time>2015-05-07T06:22:27Z</time>
				<extensions>
				</extensions>
			</trkpt>
			<trkpt lat="-27.977641" lon="152.942057">
				<ele>58</ele>
				<time>2015-05-07T06:22:28Z</time>
				<extensions>
				</extensions>
			</trkpt>
			<trkpt lat="-27.977682" lon="152.942346">
				<ele>57</ele>
				<time>2015-05-07T06:22:29Z</time>
				<extensions>
				</extensions>
			</trkpt>
			<trkpt lat="-27.977729" lon="152.942630">
				<ele>57</ele>
				<time>2015-05-07T06:22:30Z</time>
				<extensions>
				</extensions>
			</trkpt>
			<trkpt lat="-27.977779" lon="152.942941">
				<ele>57</ele>
				<time>2015-05-07T06:22:31Z</time>
				<extensions>
				</extensions>
			</trkpt>
			<trkpt lat="-27.977823" lon="152.943232">
				<ele>55</ele>
				<time>2015-05-07T06:22:32Z</time>
				<extensions>
				</extensions>
			</trkpt>
			<trkpt lat="-27.977872" lon="152.943527">
				<ele>57</ele>
				<time>2015-05-07T06:22:33Z</time>
				<extensions>
				</extensions>
			</trkpt>
			<trkpt lat="-27.977914" lon="152.943787">
				<ele>56</ele>
				<time>2015-05-07T06:22:34Z</time>
				<extensions>
				</extensions>
			</trkpt>
			<trkpt lat="-27.977966" lon="152.944050">
				<ele>57</ele>
				<time>2015-05-07T06:22:35Z</time>
				<extensions>
				</extensions>
			</trkpt>
			<trkpt lat="-27.978003" lon="152.944323">
				<ele>57</ele>
				<time>2015-05-07T06:22:36Z</time>
				<extensions>
				</extensions>
			</trkpt>
			<trkpt lat="-27.978046" lon="152.944617">
				<ele>57</ele>
				<time>2015-05-07T06:22:37Z</time>
				<extensions>
				</extensions>
			</trkpt>
			<trkpt lat="-27.978094" lon="152.944921">
				<ele>57</ele>
				<time>2015-05-07T06:22:38Z</time>
				<extensions>
				</extensions>
			</trkpt>
			<trkpt lat="-27.978137" lon="152.945209">
				<ele>55</ele>
				<time>2015-05-07T06:22:39Z</time>
				<extensions>
				</extensions>
			</trkpt>
			<trkpt lat="-27.978178" lon="152.945518">
				<ele>54</ele>
				<time>2015-05-07T06:22:40Z</time>
				<extensions>
				</extensions>
			</trkpt>
			<trkpt lat="-27.978214" lon="152.945807">
				<ele>54</ele>
				<time>2015-05-07T06:22:41Z</time>
				<extensions>
				</extensions>
			</trkpt>
			<trkpt lat="-27.978263" lon="152.946098">
				<ele>53</ele>
				<time>2015-05-07T06:22:42Z</time>
				<extensions>
				</extensions>
			</trkpt>
			<trkpt lat="-27.978298" lon="152.946377">
				<ele>55</ele>
				<time>2015-05-07T06:22:43Z</time>
				<extensions>
				</extensions>
			</trkpt>
			<trkpt lat="-27.978331" lon="152.946656">
				<ele>52</ele>
				<time>2015-05-07T06:22:44Z</time>
				<extensions>
				</extensions>
			</trkpt>
			<trkpt lat="-27.978395" lon="152.946910">
				<ele>52</ele>
				<time>2015-05-07T06:22:45Z</time>
				<extensions>
				</extensions>
			</trkpt>
			<trkpt lat="-27.978419" lon="152.947194">
				<ele>51</ele>
				<time>2015-05-07T06:22:46Z</time>
				<extensions>
				</extensions>
			</trkpt>
			<trkpt lat="-27.978457" lon="152.947459">
				<ele>50</ele>
				<time>2015-05-07T06:22:47Z</time>
				<extensions>
				</extensions>
			</trkpt>
			<trkpt lat="-27.978522" lon="152.947752">
				<ele>50</ele>
				<time>2015-05-07T06:22:48Z</time>
				<extensions>
				</extensions>
			</trkpt>
			<trkpt lat="-27.978563" lon="152.948021">
				<ele>49</ele>
				<time>2015-05-07T06:22:49Z</time>
				<extensions>
				</extensions>
			</trkpt>
			<trkpt lat="-27.978596" lon="152.948287">
				<ele>49</ele>
				<time>2015-05-07T06:22:50Z</time>
				<extensions>
				</extensions>
			</trkpt>
			<trkpt lat="-27.978628" lon="152.948549">
				<ele>50</ele>
				<time>2015-05-07T06:22:51Z</time>
				<extensions>
				</extensions>
			</trkpt>
			<trkpt lat="-27.978664" lon="152.948791">
				<ele>50</ele>
				<time>2015-05-07T06:22:52Z</time>
				<extensions>
				</extensions>
			</trkpt>
			<trkpt lat="-27.978710" lon="152.949066">
				<ele>49</ele>
				<time>2015-05-07T06:22:53Z</time>
				<extensions>
				</extensions>
			</trkpt>
			<trkpt lat="-27.978748" lon="152.949335">
				<ele>48</ele>
				<time>2015-05-07T06:22:54Z</time>
				<extensions>
				</extensions>
			</trkpt>
			<trkpt lat="-27.978778" lon="152.949610">
				<ele>48</ele>
				<time>2015-05-07T06:22:55Z</time>
				<extensions>
				</extensions>
			</trkpt>
			<trkpt lat="-27.978818" lon="152.949885">
				<ele>49</ele>
				<time>2015-05-07T06:22:56Z</time>
				<extensions>
				</extensions>
			</trkpt>
			<trkpt lat="-27.978861" lon="152.950159">
				<ele>49</ele>
				<time>2015-05-07T06:22:57Z</time>
				<extensions>
				</extensions>
			</trkpt>
			<trkpt lat="-27.978904" lon="152.950438">
				<ele>49</ele>
				<time>2015-05-07T06:22:58Z</time>
				<extensions>
				</extensions>
			</trkpt>
			<trkpt lat="-27.978942" lon="152.950709">
				<ele>49</ele>
				<time>2015-05-07T06:22:59Z</time>
				<extensions>
				</extensions>
			</trkpt>
			<trkpt lat="-27.978981" lon="152.951004">
				<ele>49</ele>
				<time>2015-05-07T06:23:00Z</time>
				<extensions>
				</extensions>
			</trkpt>
			<trkpt lat="-27.979021" lon="152.951253">
				<ele>48</ele>
				<time>2015-05-07T06:23:01Z</time>
				<extensions>
				</extensions>
			</trkpt>
			<trkpt lat="-27.979058" lon="152.951512">
				<ele>46</ele>
				<time>2015-05-07T06:23:02Z</time>
				<extensions>
				</extensions>
			</trkpt>
			<trkpt lat="-27.979104" lon="152.951766">
				<ele>46</ele>
				<time>2015-05-07T06:23:03Z</time>
				<extensions>
				</extensions>
			</trkpt>
			<trkpt lat="-27.979143" lon="152.952022">
				<ele>45</ele>
				<time>2015-05-07T06:23:04Z</time>
				<extensions>
				</extensions>
			</trkpt>
			<trkpt lat="-27.979182" lon="152.952292">
				<ele>46</ele>
				<time>2015-05-07T06:23:05Z</time>
				<extensions>
				</extensions>
			</trkpt>
			<trkpt lat="-27.979226" lon="152.952552">
				<ele>47</ele>
				<time>2015-05-07T06:23:06Z</time>
				<extensions>
				</extensions>
			</trkpt>
			<trkpt lat="-27.979261" lon="152.952818">
				<ele>48</ele>
				<time>2015-05-07T06:23:07Z</time>
				<extensions>
				</extensions>
			</trkpt>
			<trkpt lat="-27.979310" lon="152.953093">
				<ele>47</ele>
				<time>2015-05-07T06:23:08Z</time>
				<extensions>
				</extensions>
			</trkpt>
			<trkpt lat="-27.979358" lon="152.953374">
				<ele>47</ele>
				<time>2015-05-07T06:23:09Z</time>
				<extensions>
				</extensions>
			</trkpt>
			<trkpt lat="-27.979388" lon="152.953647">
				<ele>46</ele>
				<time>2015-05-07T06:23:10Z</time>
				<extensions>
				</extensions>
			</trkpt>
			<trkpt lat="-27.979421" lon="152.953909">
				<ele>46</ele>
				<time>2015-05-07T06:23:11Z</time>
				<extensions>
				</extensions>
			</trkpt>
			<trkpt lat="-27.979460" lon="152.954177">
				<ele>47</ele>
				<time>2015-05-07T06:23:12Z</time>
				<extensions>
				</extensions>
			</trkpt>
			<trkpt lat="-27.979499" lon="152.954428">
				<ele>45</ele>
				<time>2015-05-07T06:23:13Z</time>
				<extensions>
				</extensions>
			</trkpt>
			<trkpt lat="-27.979524" lon="152.954671">
				<ele>45</ele>
				<time>2015-05-07T06:23:14Z</time>
				<extensions>
				</extensions>
			</trkpt>
			<trkpt lat="-27.979558" lon="152.954921">
				<ele>42</ele>
				<time>2015-05-07T06:23:15Z</time>
				<extensions>
				</extensions>
			</trkpt>
			<trkpt lat="-27.979593" lon="152.955165">
				<ele>41</ele>
				<time>2015-05-07T06:23:16Z</time>
				<extensions>
				</extensions>
			</trkpt>
			<trkpt lat="-27.979628" lon="152.955377">
				<ele>43</ele>
				<time>2015-05-07T06:23:17Z</time>
				<extensions>
				</extensions>
			</trkpt>
			<trkpt lat="-27.979661" lon="152.955606">
				<ele>41</ele>
				<time>2015-05-07T06:23:18Z</time>
				<extensions>
				</extensions>
			</trkpt>
			<trkpt lat="-27.979687" lon="152.955821">
				<ele>41</ele>
				<time>2015-05-07T06:23:19Z</time>
				<extensions>
				</extensions>
			</trkpt>
			<trkpt lat="-27.979712" lon="152.956034">
				<ele>38</ele>
				<time>2015-05-07T06:23:20Z</time>
				<extensions>
				</extensions>
			</trkpt>
			<trkpt lat="-27.979758" lon="152.956411">
				<ele>39</ele>
				<time>2015-05-07T06:23:22Z</time>
				<extensions>
				</extensions>
			</trkpt>
			<trkpt lat="-27.979786" lon="152.956622">
				<ele>39</ele>
				<time>2015-05-07T06:23:23Z</time>
				<extensions>
				</extensions>
			</trkpt>
			<trkpt lat="-27.979862" lon="152.957022">
				<ele>38</ele>
				<time>2015-05-07T06:23:25Z</time>
				<extensions>
				</extensions>
			</trkpt>
			<trkpt lat="-27.979909" lon="152.957378">
				<ele>36</ele>
				<time>2015-05-07T06:23:27Z</time>
				<extensions>
				</extensions>
			</trkpt>
			<trkpt lat="-27.979946" lon="152.957657">
				<ele>32</ele>
				<time>2015-05-07T06:23:29Z</time>
				<extensions>
				</extensions>
			</trkpt>
			<trkpt lat="-27.980009" lon="152.957913">
				<ele>29</ele>
				<time>2015-05-07T06:23:32Z</time>
				<extensions>
				</extensions>
			</trkpt>
			<trkpt lat="-27.980200" lon="152.957932">
				<ele>29</ele>
				<time>2015-05-07T06:23:36Z</time>
				<extensions>
				</extensions>
			</trkpt>
			<trkpt lat="-27.980418" lon="152.957890">
				<ele>30</ele>
				<time>2015-05-07T06:23:39Z</time>
				<extensions>
				</extensions>
			</trkpt>
			<trkpt lat="-27.980647" lon="152.957808">
				<ele>29</ele>
				<time>2015-05-07T06:23:42Z</time>
				<extensions>
				</extensions>
			</trkpt>
			<trkpt lat="-27.980835" lon="152.957739">
				<ele>27</ele>
				<time>2015-05-07T06:23:46Z</time>
				<extensions>
				</extensions>
			</trkpt>
			<trkpt lat="-27.981021" lon="152.957775">
				<ele>41</ele>
				<time>2015-05-07T06:28:19Z</time>
				<extensions>
				</extensions>
			</trkpt>
			<trkpt lat="-27.981279" lon="152.957744">
				<ele>45</ele>
				<time>2015-05-07T06:28:22Z</time>
				<extensions>
				</extensions>
			</trkpt>
			<trkpt lat="-27.981500" lon="152.957683">
				<ele>46</ele>
				<time>2015-05-07T06:28:24Z</time>
				<extensions>
				</extensions>
			</trkpt>
			<trkpt lat="-27.981764" lon="152.957591">
				<ele>49</ele>
				<time>2015-05-07T06:28:26Z</time>
				<extensions>
				</extensions>
			</trkpt>
			<trkpt lat="-27.982033" lon="152.957446">
				<ele>51</ele>
				<time>2015-05-07T06:28:28Z</time>
				<extensions>
				</extensions>
			</trkpt>
			<trkpt lat="-27.982317" lon="152.957245">
				<ele>52</ele>
				<time>2015-05-07T06:28:30Z</time>
				<extensions>
				</extensions>
			</trkpt>
			<trkpt lat="-27.982580" lon="152.957008">
				<ele>53</ele>
				<time>2015-05-07T06:28:32Z</time>
				<extensions>
				</extensions>
			</trkpt>
			<trkpt lat="-27.982718" lon="152.956871">
				<ele>53</ele>
				<time>2015-05-07T06:28:33Z</time>
				<extensions>
				</extensions>
			</trkpt>
			<trkpt lat="-27.982847" lon="152.956716">
				<ele>53</ele>
				<time>2015-05-07T06:28:34Z</time>
				<extensions>
				</extensions>
			</trkpt>
			<trkpt lat="-27.982964" lon="152.956549">
				<ele>53</ele>
				<time>2015-05-07T06:28:35Z</time>
				<extensions>
				</extensions>
			</trkpt>
			<trkpt lat="-27.983077" lon="152.956358">
				<ele>54</ele>
				<time>2015-05-07T06:28:36Z</time>
				<extensions>
				</extensions>
			</trkpt>
			<trkpt lat="-27.983186" lon="152.956164">
				<ele>55</ele>
				<time>2015-05-07T06:28:37Z</time>
				<extensions>
				</extensions>
			</trkpt>
			<trkpt lat="-27.983293" lon="152.955966">
				<ele>57</ele>
				<time>2015-05-07T06:28:38Z</time>
				<extensions>
				</extensions>
			</trkpt>
			<trkpt lat="-27.983393" lon="152.955767">
				<ele>56</ele>
				<time>2015-05-07T06:28:39Z</time>
				<extensions>
				</extensions>
			</trkpt>
			<trkpt lat="-27.983494" lon="152.955566">
				<ele>55</ele>
				<time>2015-05-07T06:28:40Z</time>
				<extensions>
				</extensions>
			</trkpt>
			<trkpt lat="-27.983605" lon="152.955363">
				<ele>55</ele>
				<time>2015-05-07T06:28:41Z</time>
				<extensions>
				</extensions>
			</trkpt>
			<trkpt lat="-27.983705" lon="152.955176">
				<ele>54</ele>
				<time>2015-05-07T06:28:42Z</time>
				<extensions>
				</extensions>
			</trkpt>
			<trkpt lat="-27.983804" lon="152.954981">
				<ele>54</ele>
				<time>2015-05-07T06:28:43Z</time>
				<extensions>
				</extensions>
			</trkpt>
			<trkpt lat="-27.983900" lon="152.954787">
				<ele>53</ele>
				<time>2015-05-07T06:28:44Z</time>
				<extensions>
				</extensions>
			</trkpt>
			<trkpt lat="-27.983988" lon="152.954603">
				<ele>54</ele>
				<time>2015-05-07T06:28:45Z</time>
				<extensions>
				</extensions>
			</trkpt>
			<trkpt lat="-27.984078" lon="152.954407">
				<ele>53</ele>
				<time>2015-05-07T06:28:46Z</time>
				<extensions>
				</extensions>
			</trkpt>
			<trkpt lat="-27.984157" lon="152.954211">
				<ele>52</ele>
				<time>2015-05-07T06:28:47Z</time>
				<extensions>
				</extensions>
			</trkpt>
			<trkpt lat="-27.984226" lon="152.954005">
				<ele>53</ele>
				<time>2015-05-07T06:28:48Z</time>
				<extensions>
				</extensions>
			</trkpt>
			<trkpt lat="-27.984292" lon="152.953788">
				<ele>53</ele>
				<time>2015-05-07T06:28:49Z</time>
				<extensions>
				</extensions>
			</trkpt>
			<trkpt lat="-27.984351" lon="152.953558">
				<ele>55</ele>
				<time>2015-05-07T06:28:50Z</time>
				<extensions>
				</extensions>
			</trkpt>
			<trkpt lat="-27.984404" lon="152.953329">
				<ele>56</ele>
				<time>2015-05-07T06:28:51Z</time>
				<extensions>
				</extensions>
			</trkpt>
			<trkpt lat="-27.984456" lon="152.953104">
				<ele>56</ele>
				<time>2015-05-07T06:28:52Z</time>
				<extensions>
				</extensions>
			</trkpt>
			<trkpt lat="-27.984509" lon="152.952866">
				<ele>55</ele>
				<time>2015-05-07T06:28:53Z</time>
				<extensions>
				</extensions>
			</trkpt>
			<trkpt lat="-27.984560" lon="152.952618">
				<ele>56</ele>
				<time>2015-05-07T06:28:54Z</time>
				<extensions>
				</extensions>
			</trkpt>
			<trkpt lat="-27.984619" lon="152.952382">
				<ele>57</ele>
				<time>2015-05-07T06:28:55Z</time>
				<extensions>
				</extensions>
			</trkpt>
			<trkpt lat="-27.984677" lon="152.952129">
				<ele>56</ele>
				<time>2015-05-07T06:28:56Z</time>
				<extensions>
				</extensions>
			</trkpt>
			<trkpt lat="-27.984729" lon="152.951884">
				<ele>43</ele>
				<time>2015-05-07T06:28:57Z</time>
				<extensions>
				</extensions>
			</trkpt>
			<trkpt lat="-27.984778" lon="152.951641">
				<ele>43</ele>
				<time>2015-05-07T06:28:58Z</time>
				<extensions>
				</extensions>
			</trkpt>
			<trkpt lat="-27.984827" lon="152.951391">
				<ele>56</ele>
				<time>2015-05-07T06:28:59Z</time>
				<extensions>
				</extensions>
			</trkpt>
			<trkpt lat="-27.984886" lon="152.951140">
				<ele>43</ele>
				<time>2015-05-07T06:29:00Z</time>
				<extensions>
				</extensions>
			</trkpt>
			<trkpt lat="-27.984942" lon="152.950876">
				<ele>44</ele>
				<time>2015-05-07T06:29:01Z</time>
				<extensions>
				</extensions>
			</trkpt>
			<trkpt lat="-27.985002" lon="152.950615">
				<ele>43</ele>
				<time>2015-05-07T06:29:02Z</time>
				<extensions>
				</extensions>
			</trkpt>
			<trkpt lat="-27.985058" lon="152.950342">
				<ele>44</ele>
				<time>2015-05-07T06:29:03Z</time>
				<extensions>
				</extensions>
			</trkpt>
			<trkpt lat="-27.985120" lon="152.950063">
				<ele>45</ele>
				<time>2015-05-07T06:29:04Z</time>
				<extensions>
				</extensions>
			</trkpt>
			<trkpt lat="-27.985178" lon="152.949778">
				<ele>46</ele>
				<time>2015-05-07T06:29:05Z</time>
				<extensions>
				</extensions>
			</trkpt>
			<trkpt lat="-27.985241" lon="152.949491">
				<ele>46</ele>
				<time>2015-05-07T06:29:06Z</time>
				<extensions>
				</extensions>
			</trkpt>
			<trkpt lat="-27.985311" lon="152.949210">
				<ele>47</ele>
				<time>2015-05-07T06:29:07Z</time>
				<extensions>
				</extensions>
			</trkpt>
			<trkpt lat="-27.985377" lon="152.948935">
				<ele>47</ele>
				<time>2015-05-07T06:29:08Z</time>
				<extensions>
				</extensions>
			</trkpt>
			<trkpt lat="-27.985431" lon="152.948660">
				<ele>59</ele>
				<time>2015-05-07T06:29:09Z</time>
				<extensions>
				</extensions>
			</trkpt>
			<trkpt lat="-27.985492" lon="152.948379">
				<ele>58</ele>
				<time>2015-05-07T06:29:10Z</time>
				<extensions>
				</extensions>
			</trkpt>
			<trkpt lat="-27.985556" lon="152.948108">
				<ele>58</ele>
				<time>2015-05-07T06:29:11Z</time>
				<extensions>
				</extensions>
			</trkpt>
			<trkpt lat="-27.985624" lon="152.947826">
				<ele>58</ele>
				<time>2015-05-07T06:29:12Z</time>
				<extensions>
				</extensions>
			</trkpt>
			<trkpt lat="-27.985691" lon="152.947549">
				<ele>60</ele>
				<time>2015-05-07T06:29:13Z</time>
				<extensions>
				</extensions>
			</trkpt>
			<trkpt lat="-27.985760" lon="152.947258">
				<ele>60</ele>
				<time>2015-05-07T06:29:14Z</time>
				<extensions>
				</extensions>
			</trkpt>
			<trkpt lat="-27.985824" lon="152.946980">
				<ele>61</ele>
				<time>2015-05-07T06:29:15Z</time>
				<extensions>
				</extensions>
			</trkpt>
			<trkpt lat="-27.985887" lon="152.946699">
				<ele>61</ele>
				<time>2015-05-07T06:29:16Z</time>
				<extensions>
				</extensions>
			</trkpt>
			<trkpt lat="-27.985951" lon="152.946422">
				<ele>61</ele>
				<time>2015-05-07T06:29:17Z</time>
				<extensions>
				</extensions>
			</trkpt>
			<trkpt lat="-27.986021" lon="152.946151">
				<ele>60</ele>
				<time>2015-05-07T06:29:18Z</time>
				<extensions>
				</extensions>
			</trkpt>
			<trkpt lat="-27.986089" lon="152.945872">
				<ele>60</ele>
				<time>2015-05-07T06:29:19Z</time>
				<extensions>
				</extensions>
			</trkpt>
			<trkpt lat="-27.986159" lon="152.945601">
				<ele>61</ele>
				<time>2015-05-07T06:29:20Z</time>
				<extensions>
				</extensions>
			</trkpt>
			<trkpt lat="-27.986229" lon="152.945328">
				<ele>60</ele>
				<time>2015-05-07T06:29:21Z</time>
				<extensions>
				</extensions>
			</trkpt>
			<trkpt lat="-27.986294" lon="152.945055">
				<ele>60</ele>
				<time>2015-05-07T06:29:22Z</time>
				<extensions>
				</extensions>
			</trkpt>
			<trkpt lat="-27.986362" lon="152.944786">
				<ele>60</ele>
				<time>2015-05-07T06:29:23Z</time>
				<extensions>
				</extensions>
			</trkpt>
			<trkpt lat="-27.986425" lon="152.944513">
				<ele>59</ele>
				<time>2015-05-07T06:29:24Z</time>
				<extensions>
				</extensions>
			</trkpt>
			<trkpt lat="-27.986488" lon="152.944246">
				<ele>60</ele>
				<time>2015-05-07T06:29:25Z</time>
				<extensions>
				</extensions>
			</trkpt>
			<trkpt lat="-27.986552" lon="152.943978">
				<ele>60</ele>
				<time>2015-05-07T06:29:26Z</time>
				<extensions>
				</extensions>
			</trkpt>
			<trkpt lat="-27.986607" lon="152.943709">
				<ele>61</ele>
				<time>2015-05-07T06:29:27Z</time>
				<extensions>
				</extensions>
			</trkpt>
			<trkpt lat="-27.986669" lon="152.943443">
				<ele>61</ele>
				<time>2015-05-07T06:29:28Z</time>
				<extensions>
				</extensions>
			</trkpt>
			<trkpt lat="-27.986729" lon="152.943174">
				<ele>60</ele>
				<time>2015-05-07T06:29:29Z</time>
				<extensions>
				</extensions>
			</trkpt>
			<trkpt lat="-27.986786" lon="152.942904">
				<ele>60</ele>
				<time>2015-05-07T06:29:30Z</time>
				<extensions>
				</extensions>
			</trkpt>
			<trkpt lat="-27.986861" lon="152.942661">
				<ele>60</ele>
				<time>2015-05-07T06:29:31Z</time>
				<extensions>
				</extensions>
			</trkpt>
			<trkpt lat="-27.986931" lon="152.942430">
				<ele>59</ele>
				<time>2015-05-07T06:29:32Z</time>
				<extensions>
				</extensions>
			</trkpt>
			<trkpt lat="-27.987001" lon="152.942185">
				<ele>61</ele>
				<time>2015-05-07T06:29:33Z</time>
				<extensions>
				</extensions>
			</trkpt>
			<trkpt lat="-27.987075" lon="152.941920">
				<ele>62</ele>
				<time>2015-05-07T06:29:34Z</time>
				<extensions>
				</extensions>
			</trkpt>
			<trkpt lat="-27.987171" lon="152.941662">
				<ele>61</ele>
				<time>2015-05-07T06:29:35Z</time>
				<extensions>
				</extensions>
			</trkpt>
			<trkpt lat="-27.987284" lon="152.941418">
				<ele>61</ele>
				<time>2015-05-07T06:29:36Z</time>
				<extensions>
				</extensions>
			</trkpt>
			<trkpt lat="-27.987401" lon="152.941166">
				<ele>63</ele>
				<time>2015-05-07T06:29:37Z</time>
				<extensions>
				</extensions>
			</trkpt>
			<trkpt lat="-27.987519" lon="152.940912">
				<ele>65</ele>
				<time>2015-05-07T06:29:38Z</time>
				<extensions>
				</extensions>
			</trkpt>
			<trkpt lat="-27.987637" lon="152.940657">
				<ele>65</ele>
				<time>2015-05-07T06:29:39Z</time>
				<extensions>
				</extensions>
			</trkpt>
			<trkpt lat="-27.987760" lon="152.940390">
				<ele>66</ele>
				<time>2015-05-07T06:29:40Z</time>
				<extensions>
				</extensions>
			</trkpt>
			<trkpt lat="-27.987879" lon="152.940130">
				<ele>68</ele>
				<time>2015-05-07T06:29:41Z</time>
				<extensions>
				</extensions>
			</trkpt>
			<trkpt lat="-27.987990" lon="152.939864">
				<ele>67</ele>
				<time>2015-05-07T06:29:42Z</time>
				<extensions>
				</extensions>
			</trkpt>
			<trkpt lat="-27.988101" lon="152.939618">
				<ele>68</ele>
				<time>2015-05-07T06:29:43Z</time>
				<extensions>
				</extensions>
			</trkpt>
			<trkpt lat="-27.988222" lon="152.939387">
				<ele>70</ele>
				<time>2015-05-07T06:29:44Z</time>
				<extensions>
				</extensions>
			</trkpt>
			<trkpt lat="-27.988337" lon="152.939138">
				<ele>72</ele>
				<time>2015-05-07T06:29:45Z</time>
				<extensions>
				</extensions>
			</trkpt>
			<trkpt lat="-27.988455" lon="152.938888">
				<ele>69</ele>
				<time>2015-05-07T06:29:46Z</time>
				<extensions>
				</extensions>
			</trkpt>
			<trkpt lat="-27.988569" lon="152.938644">
				<ele>70</ele>
				<time>2015-05-07T06:29:47Z</time>
				<extensions>
				</extensions>
			</trkpt>
			<trkpt lat="-27.988685" lon="152.938395">
				<ele>69</ele>
				<time>2015-05-07T06:29:48Z</time>
				<extensions>
				</extensions>
			</trkpt>
			<trkpt lat="-27.988804" lon="152.938143">
				<ele>67</ele>
				<time>2015-05-07T06:29:49Z</time>
				<extensions>
				</extensions>
			</trkpt>
			<trkpt lat="-27.988918" lon="152.937884">
				<ele>66</ele>
				<time>2015-05-07T06:29:50Z</time>
				<extensions>
				</extensions>
			</trkpt>
			<trkpt lat="-27.989041" lon="152.937618">
				<ele>66</ele>
				<time>2015-05-07T06:29:51Z</time>
				<extensions>
				</extensions>
			</trkpt>
			<trkpt lat="-27.989161" lon="152.937354">
				<ele>66</ele>
				<time>2015-05-07T06:29:52Z</time>
				<extensions>
				</extensions>
			</trkpt>
			<trkpt lat="-27.989274" lon="152.937094">
				<ele>66</ele>
				<time>2015-05-07T06:29:53Z</time>
				<extensions>
				</extensions>
			</trkpt>
			<trkpt lat="-27.989390" lon="152.936839">
				<ele>65</ele>
				<time>2015-05-07T06:29:54Z</time>
				<extensions>
				</extensions>
			</trkpt>
			<trkpt lat="-27.989516" lon="152.936574">
				<ele>66</ele>
				<time>2015-05-07T06:29:55Z</time>
				<extensions>
				</extensions>
			</trkpt>
			<trkpt lat="-27.989633" lon="152.936314">
				<ele>66</ele>
				<time>2015-05-07T06:29:56Z</time>
				<extensions>
				</extensions>
			</trkpt>
			<trkpt lat="-27.989756" lon="152.936051">
				<ele>66</ele>
				<time>2015-05-07T06:29:57Z</time>
				<extensions>
				</extensions>
			</trkpt>
			<trkpt lat="-27.989874" lon="152.935806">
				<ele>68</ele>
				<time>2015-05-07T06:29:58Z</time>
				<extensions>
				</extensions>
			</trkpt>
			<trkpt lat="-27.989990" lon="152.935561">
				<ele>68</ele>
				<time>2015-05-07T06:29:59Z</time>
				<extensions>
				</extensions>
			</trkpt>
			<trkpt lat="-27.990105" lon="152.935325">
				<ele>69</ele>
				<time>2015-05-07T06:30:00Z</time>
				<extensions>
				</extensions>
			</trkpt>
			<trkpt lat="-27.990218" lon="152.935087">
				<ele>68</ele>
				<time>2015-05-07T06:30:01Z</time>
				<extensions>
				</extensions>
			</trkpt>
			<trkpt lat="-27.990330" lon="152.934846">
				<ele>68</ele>
				<time>2015-05-07T06:30:02Z</time>
				<extensions>
				</extensions>
			</trkpt>
			<trkpt lat="-27.990441" lon="152.934604">
				<ele>69</ele>
				<time>2015-05-07T06:30:03Z</time>
				<extensions>
				</extensions>
			</trkpt>
			<trkpt lat="-27.990558" lon="152.934357">
				<ele>69</ele>
				<time>2015-05-07T06:30:04Z</time>
				<extensions>
				</extensions>
			</trkpt>
			<trkpt lat="-27.990674" lon="152.934113">
				<ele>70</ele>
				<time>2015-05-07T06:30:05Z</time>
				<extensions>
				</extensions>
			</trkpt>
			<trkpt lat="-27.990791" lon="152.933863">
				<ele>70</ele>
				<time>2015-05-07T06:30:06Z</time>
				<extensions>
				</extensions>
			</trkpt>
			<trkpt lat="-27.990906" lon="152.933620">
				<ele>72</ele>
				<time>2015-05-07T06:30:07Z</time>
				<extensions>
				</extensions>
			</trkpt>
			<trkpt lat="-27.991017" lon="152.933375">
				<ele>72</ele>
				<time>2015-05-07T06:30:08Z</time>
				<extensions>
				</extensions>
			</trkpt>
			<trkpt lat="-27.991124" lon="152.933142">
				<ele>73</ele>
				<time>2015-05-07T06:30:09Z</time>
				<extensions>
				</extensions>
			</trkpt>
			<trkpt lat="-27.991232" lon="152.932893">
				<ele>73</ele>
				<time>2015-05-07T06:30:10Z</time>
				<extensions>
				</extensions>
			</trkpt>
			<trkpt lat="-27.991333" lon="152.932659">
				<ele>74</ele>
				<time>2015-05-07T06:30:11Z</time>
				<extensions>
				</extensions>
			</trkpt>
			<trkpt lat="-27.991443" lon="152.932425">
				<ele>76</ele>
				<time>2015-05-07T06:30:12Z</time>
				<extensions>
				</extensions>
			</trkpt>
			<trkpt lat="-27.991551" lon="152.932183">
				<ele>76</ele>
				<time>2015-05-07T06:30:13Z</time>
				<extensions>
				</extensions>
			</trkpt>
			<trkpt lat="-27.991658" lon="152.931950">
				<ele>75</ele>
				<time>2015-05-07T06:30:14Z</time>
				<extensions>
				</extensions>
			</trkpt>
			<trkpt lat="-27.991764" lon="152.931725">
				<ele>74</ele>
				<time>2015-05-07T06:30:15Z</time>
				<extensions>
				</extensions>
			</trkpt>
			<trkpt lat="-27.991864" lon="152.931500">
				<ele>74</ele>
				<time>2015-05-07T06:30:16Z</time>
				<extensions>
				</extensions>
			</trkpt>
			<trkpt lat="-27.991960" lon="152.931291">
				<ele>72</ele>
				<time>2015-05-07T06:30:17Z</time>
				<extensions>
				</extensions>
			</trkpt>
			<trkpt lat="-27.992059" lon="152.931083">
				<ele>72</ele>
				<time>2015-05-07T06:30:18Z</time>
				<extensions>
				</extensions>
			</trkpt>
			<trkpt lat="-27.992161" lon="152.930894">
				<ele>72</ele>
				<time>2015-05-07T06:30:19Z</time>
				<extensions>
				</extensions>
			</trkpt>
			<trkpt lat="-27.992274" lon="152.930715">
				<ele>71</ele>
				<time>2015-05-07T06:30:20Z</time>
				<extensions>
				</extensions>
			</trkpt>
			<trkpt lat="-27.992396" lon="152.930559">
				<ele>71</ele>
				<time>2015-05-07T06:30:21Z</time>
				<extensions>
				</extensions>
			</trkpt>
			<trkpt lat="-27.992651" lon="152.930270">
				<ele>71</ele>
				<time>2015-05-07T06:30:23Z</time>
				<extensions>
				</extensions>
			</trkpt>
			<trkpt lat="-27.992798" lon="152.930142">
				<ele>72</ele>
				<time>2015-05-07T06:30:24Z</time>
				<extensions>
				</extensions>
			</trkpt>
			<trkpt lat="-27.992947" lon="152.930020">
				<ele>72</ele>
				<time>2015-05-07T06:30:25Z</time>
				<extensions>
				</extensions>
			</trkpt>
			<trkpt lat="-27.993250" lon="152.929799">
				<ele>72</ele>
				<time>2015-05-07T06:30:27Z</time>
				<extensions>
				</extensions>
			</trkpt>
			<trkpt lat="-27.993553" lon="152.929566">
				<ele>74</ele>
				<time>2015-05-07T06:30:29Z</time>
				<extensions>
				</extensions>
			</trkpt>
			<trkpt lat="-27.993705" lon="152.929443">
				<ele>74</ele>
				<time>2015-05-07T06:30:30Z</time>
				<extensions>
				</extensions>
			</trkpt>
			<trkpt lat="-27.993984" lon="152.929248">
				<ele>73</ele>
				<time>2015-05-07T06:30:32Z</time>
				<extensions>
				</extensions>
			</trkpt>
			<trkpt lat="-27.994234" lon="152.929152">
				<ele>69</ele>
				<time>2015-05-07T06:30:34Z</time>
				<extensions>
				</extensions>
			</trkpt>
			<trkpt lat="-27.994459" lon="152.929116">
				<ele>68</ele>
				<time>2015-05-07T06:30:36Z</time>
				<extensions>
				</extensions>
			</trkpt>
			<trkpt lat="-27.994674" lon="152.929034">
				<ele>83</ele>
				<time>2015-05-07T06:30:38Z</time>
				<extensions>
				</extensions>
			</trkpt>
			<trkpt lat="-27.994855" lon="152.928896">
				<ele>83</ele>
				<time>2015-05-07T06:30:40Z</time>
				<extensions>
				</extensions>
			</trkpt>
			<trkpt lat="-27.994986" lon="152.928709">
				<ele>84</ele>
				<time>2015-05-07T06:30:42Z</time>
				<extensions>
				</extensions>
			</trkpt>
			<trkpt lat="-27.995077" lon="152.928510">
				<ele>85</ele>
				<time>2015-05-07T06:30:44Z</time>
				<extensions>
				</extensions>
			</trkpt>
			<trkpt lat="-27.995213" lon="152.928255">
				<ele>83</ele>
				<time>2015-05-07T06:30:47Z</time>
				<extensions>
				</extensions>
			</trkpt>
			<trkpt lat="-27.995414" lon="152.928085">
				<ele>82</ele>
				<time>2015-05-07T06:30:50Z</time>
				<extensions>
				</extensions>
			</trkpt>
			<trkpt lat="-27.995624" lon="152.927967">
				<ele>73</ele>
				<time>2015-05-07T06:30:52Z</time>
				<extensions>
				</extensions>
			</trkpt>
			<trkpt lat="-27.995856" lon="152.927818">
				<ele>73</ele>
				<time>2015-05-07T06:30:54Z</time>
				<extensions>
				</extensions>
			</trkpt>
			<trkpt lat="-27.996120" lon="152.927607">
				<ele>75</ele>
				<time>2015-05-07T06:30:56Z</time>
				<extensions>
				</extensions>
			</trkpt>
			<trkpt lat="-27.996411" lon="152.927388">
				<ele>77</ele>
				<time>2015-05-07T06:30:58Z</time>
				<extensions>
				</extensions>
			</trkpt>
			<trkpt lat="-27.996572" lon="152.927285">
				<ele>78</ele>
				<time>2015-05-07T06:30:59Z</time>
				<extensions>
				</extensions>
			</trkpt>
			<trkpt lat="-27.996746" lon="152.927201">
				<ele>78</ele>
				<time>2015-05-07T06:31:00Z</time>
				<extensions>
				</extensions>
			</trkpt>
			<trkpt lat="-27.996934" lon="152.927128">
				<ele>79</ele>
				<time>2015-05-07T06:31:01Z</time>
				<extensions>
				</extensions>
			</trkpt>
			<trkpt lat="-27.997133" lon="152.927047">
				<ele>80</ele>
				<time>2015-05-07T06:31:02Z</time>
				<extensions>
				</extensions>
			</trkpt>
			<trkpt lat="-27.997338" lon="152.926954">
				<ele>80</ele>
				<time>2015-05-07T06:31:03Z</time>
				<extensions>
				</extensions>
			</trkpt>
			<trkpt lat="-27.997536" lon="152.926884">
				<ele>80</ele>
				<time>2015-05-07T06:31:04Z</time>
				<extensions>
				</extensions>
			</trkpt>
			<trkpt lat="-27.997731" lon="152.926808">
				<ele>79</ele>
				<time>2015-05-07T06:31:05Z</time>
				<extensions>
				</extensions>
			</trkpt>
			<trkpt lat="-27.997927" lon="152.926745">
				<ele>78</ele>
				<time>2015-05-07T06:31:06Z</time>
				<extensions>
				</extensions>
			</trkpt>
			<trkpt lat="-27.998120" lon="152.926665">
				<ele>77</ele>
				<time>2015-05-07T06:31:07Z</time>
				<extensions>
				</extensions>
			</trkpt>
			<trkpt lat="-27.998314" lon="152.926586">
				<ele>78</ele>
				<time>2015-05-07T06:31:08Z</time>
				<extensions>
				</extensions>
			</trkpt>
			<trkpt lat="-27.998510" lon="152.926506">
				<ele>77</ele>
				<time>2015-05-07T06:31:09Z</time>
				<extensions>
				</extensions>
			</trkpt>
			<trkpt lat="-27.998714" lon="152.926428">
				<ele>75</ele>
				<time>2015-05-07T06:31:10Z</time>
				<extensions>
				</extensions>
			</trkpt>
			<trkpt lat="-27.998931" lon="152.926345">
				<ele>74</ele>
				<time>2015-05-07T06:31:11Z</time>
				<extensions>
				</extensions>
			</trkpt>
			<trkpt lat="-27.999123" lon="152.926258">
				<ele>72</ele>
				<time>2015-05-07T06:31:12Z</time>
				<extensions>
				</extensions>
			</trkpt>
			<trkpt lat="-27.999331" lon="152.926175">
				<ele>69</ele>
				<time>2015-05-07T06:31:13Z</time>
				<extensions>
				</extensions>
			</trkpt>
			<trkpt lat="-27.999531" lon="152.926103">
				<ele>67</ele>
				<time>2015-05-07T06:31:14Z</time>
				<extensions>
				</extensions>
			</trkpt>
			<trkpt lat="-27.999732" lon="152.926020">
				<ele>65</ele>
				<time>2015-05-07T06:31:15Z</time>
				<extensions>
				</extensions>
			</trkpt>
			<trkpt lat="-27.999929" lon="152.925925">
				<ele>62</ele>
				<time>2015-05-07T06:31:16Z</time>
				<extensions>
				</extensions>
			</trkpt>
			<trkpt lat="-28.000113" lon="152.925837">
				<ele>61</ele>
				<time>2015-05-07T06:31:17Z</time>
				<extensions>
				</extensions>
			</trkpt>
			<trkpt lat="-28.000296" lon="152.925739">
				<ele>59</ele>
				<time>2015-05-07T06:31:18Z</time>
				<extensions>
				</extensions>
			</trkpt>
			<trkpt lat="-28.000472" lon="152.925642">
				<ele>58</ele>
				<time>2015-05-07T06:31:19Z</time>
				<extensions>
				</extensions>
			</trkpt>
			<trkpt lat="-28.000644" lon="152.925548">
				<ele>57</ele>
				<time>2015-05-07T06:31:20Z</time>
				<extensions>
				</extensions>
			</trkpt>
			<trkpt lat="-28.000806" lon="152.925447">
				<ele>55</ele>
				<time>2015-05-07T06:31:21Z</time>
				<extensions>
				</extensions>
			</trkpt>
			<trkpt lat="-28.000966" lon="152.925349">
				<ele>55</ele>
				<time>2015-05-07T06:31:22Z</time>
				<extensions>
				</extensions>
			</trkpt>
			<trkpt lat="-28.001130" lon="152.925256">
				<ele>53</ele>
				<time>2015-05-07T06:31:23Z</time>
				<extensions>
				</extensions>
			</trkpt>
			<trkpt lat="-28.001430" lon="152.925079">
				<ele>51</ele>
				<time>2015-05-07T06:31:25Z</time>
				<extensions>
				</extensions>
			</trkpt>
			<trkpt lat="-28.001730" lon="152.924905">
				<ele>49</ele>
				<time>2015-05-07T06:31:27Z</time>
				<extensions>
				</extensions>
			</trkpt>
			<trkpt lat="-28.002029" lon="152.924742">
				<ele>49</ele>
				<time>2015-05-07T06:31:29Z</time>
				<extensions>
				</extensions>
			</trkpt>
			<trkpt lat="-28.002306" lon="152.924612">
				<ele>48</ele>
				<time>2015-05-07T06:31:31Z</time>
				<extensions>
				</extensions>
			</trkpt>
			<trkpt lat="-28.002601" lon="152.924520">
				<ele>49</ele>
				<time>2015-05-07T06:31:33Z</time>
				<extensions>
				</extensions>
			</trkpt>
			<trkpt lat="-28.002897" lon="152.924482">
				<ele>48</ele>
				<time>2015-05-07T06:31:35Z</time>
				<extensions>
				</extensions>
			</trkpt>
			<trkpt lat="-28.003185" lon="152.924442">
				<ele>47</ele>
				<time>2015-05-07T06:31:37Z</time>
				<extensions>
				</extensions>
			</trkpt>
			<trkpt lat="-28.003453" lon="152.924329">
				<ele>47</ele>
				<time>2015-05-07T06:31:39Z</time>
				<extensions>
				</extensions>
			</trkpt>
			<trkpt lat="-28.003728" lon="152.924169">
				<ele>47</ele>
				<time>2015-05-07T06:31:41Z</time>
				<extensions>
				</extensions>
			</trkpt>
			<trkpt lat="-28.003974" lon="152.923987">
				<ele>47</ele>
				<time>2015-05-07T06:31:43Z</time>
				<extensions>
				</extensions>
			</trkpt>
			<trkpt lat="-28.004215" lon="152.923821">
				<ele>46</ele>
				<time>2015-05-07T06:31:45Z</time>
				<extensions>
				</extensions>
			</trkpt>
			<trkpt lat="-28.004466" lon="152.923658">
				<ele>47</ele>
				<time>2015-05-07T06:31:47Z</time>
				<extensions>
				</extensions>
			</trkpt>
			<trkpt lat="-28.004715" lon="152.923495">
				<ele>50</ele>
				<time>2015-05-07T06:31:49Z</time>
				<extensions>
				</extensions>
			</trkpt>
			<trkpt lat="-28.004982" lon="152.923341">
				<ele>54</ele>
				<time>2015-05-07T06:31:51Z</time>
				<extensions>
				</extensions>
			</trkpt>
			<trkpt lat="-28.005290" lon="152.923241">
				<ele>55</ele>
				<time>2015-05-07T06:31:53Z</time>
				<extensions>
				</extensions>
			</trkpt>
			<trkpt lat="-28.005629" lon="152.923138">
				<ele>59</ele>
				<time>2015-05-07T06:31:55Z</time>
				<extensions>
				</extensions>
			</trkpt>
			<trkpt lat="-28.005981" lon="152.923029">
				<ele>63</ele>
				<time>2015-05-07T06:31:57Z</time>
				<extensions>
				</extensions>
			</trkpt>
			<trkpt lat="-28.006172" lon="152.922975">
				<ele>65</ele>
				<time>2015-05-07T06:31:58Z</time>
				<extensions>
				</extensions>
			</trkpt>
			<trkpt lat="-28.006373" lon="152.922916">
				<ele>68</ele>
				<time>2015-05-07T06:31:59Z</time>
				<extensions>
				</extensions>
			</trkpt>
			<trkpt lat="-28.006564" lon="152.922862">
				<ele>69</ele>
				<time>2015-05-07T06:32:00Z</time>
				<extensions>
				</extensions>
			</trkpt>
			<trkpt lat="-28.006758" lon="152.922803">
				<ele>71</ele>
				<time>2015-05-07T06:32:01Z</time>
				<extensions>
				</extensions>
			</trkpt>
			<trkpt lat="-28.006950" lon="152.922750">
				<ele>71</ele>
				<time>2015-05-07T06:32:02Z</time>
				<extensions>
				</extensions>
			</trkpt>
			<trkpt lat="-28.007127" lon="152.922698">
				<ele>72</ele>
				<time>2015-05-07T06:32:03Z</time>
				<extensions>
				</extensions>
			</trkpt>
			<trkpt lat="-28.007340" lon="152.922635">
				<ele>73</ele>
				<time>2015-05-07T06:32:04Z</time>
				<extensions>
				</extensions>
			</trkpt>
			<trkpt lat="-28.007522" lon="152.922592">
				<ele>73</ele>
				<time>2015-05-07T06:32:05Z</time>
				<extensions>
				</extensions>
			</trkpt>
			<trkpt lat="-28.007725" lon="152.922526">
				<ele>74</ele>
				<time>2015-05-07T06:32:06Z</time>
				<extensions>
				</extensions>
			</trkpt>
			<trkpt lat="-28.007929" lon="152.922469">
				<ele>75</ele>
				<time>2015-05-07T06:32:07Z</time>
				<extensions>
				</extensions>
			</trkpt>
			<trkpt lat="-28.008111" lon="152.922427">
				<ele>76</ele>
				<time>2015-05-07T06:32:08Z</time>
				<extensions>
				</extensions>
			</trkpt>
			<trkpt lat="-28.008306" lon="152.922367">
				<ele>77</ele>
				<time>2015-05-07T06:32:09Z</time>
				<extensions>
				</extensions>
			</trkpt>
			<trkpt lat="-28.008503" lon="152.922316">
				<ele>78</ele>
				<time>2015-05-07T06:32:10Z</time>
				<extensions>
				</extensions>
			</trkpt>
			<trkpt lat="-28.008861" lon="152.922197">
				<ele>78</ele>
				<time>2015-05-07T06:32:12Z</time>
				<extensions>
				</extensions>
			</trkpt>
			<trkpt lat="-28.009038" lon="152.922153">
				<ele>78</ele>
				<time>2015-05-07T06:32:13Z</time>
				<extensions>
				</extensions>
			</trkpt>
			<trkpt lat="-28.009235" lon="152.922114">
				<ele>78</ele>
				<time>2015-05-07T06:32:14Z</time>
				<extensions>
				</extensions>
			</trkpt>
			<trkpt lat="-28.009423" lon="152.922067">
				<ele>78</ele>
				<time>2015-05-07T06:32:15Z</time>
				<extensions>
				</extensions>
			</trkpt>
			<trkpt lat="-28.009601" lon="152.922016">
				<ele>79</ele>
				<time>2015-05-07T06:32:16Z</time>
				<extensions>
				</extensions>
			</trkpt>
			<trkpt lat="-28.009788" lon="152.921966">
				<ele>80</ele>
				<time>2015-05-07T06:32:17Z</time>
				<extensions>
				</extensions>
			</trkpt>
			<trkpt lat="-28.009976" lon="152.921931">
				<ele>81</ele>
				<time>2015-05-07T06:32:18Z</time>
				<extensions>
				</extensions>
			</trkpt>
			<trkpt lat="-28.010340" lon="152.921927">
				<ele>82</ele>
				<time>2015-05-07T06:32:20Z</time>
				<extensions>
				</extensions>
			</trkpt>
			<trkpt lat="-28.010529" lon="152.921943">
				<ele>83</ele>
				<time>2015-05-07T06:32:21Z</time>
				<extensions>
				</extensions>
			</trkpt>
			<trkpt lat="-28.010725" lon="152.921965">
				<ele>83</ele>
				<time>2015-05-07T06:32:22Z</time>
				<extensions>
				</extensions>
			</trkpt>
			<trkpt lat="-28.010921" lon="152.921988">
				<ele>85</ele>
				<time>2015-05-07T06:32:23Z</time>
				<extensions>
				</extensions>
			</trkpt>
			<trkpt lat="-28.011121" lon="152.922002">
				<ele>86</ele>
				<time>2015-05-07T06:32:24Z</time>
				<extensions>
				</extensions>
			</trkpt>
			<trkpt lat="-28.011330" lon="152.922018">
				<ele>87</ele>
				<time>2015-05-07T06:32:25Z</time>
				<extensions>
				</extensions>
			</trkpt>
			<trkpt lat="-28.011534" lon="152.922046">
				<ele>88</ele>
				<time>2015-05-07T06:32:26Z</time>
				<extensions>
				</extensions>
			</trkpt>
			<trkpt lat="-28.011737" lon="152.922069">
				<ele>90</ele>
				<time>2015-05-07T06:32:27Z</time>
				<extensions>
				</extensions>
			</trkpt>
			<trkpt lat="-28.011939" lon="152.922096">
				<ele>90</ele>
				<time>2015-05-07T06:32:28Z</time>
				<extensions>
				</extensions>
			</trkpt>
			<trkpt lat="-28.012146" lon="152.922137">
				<ele>91</ele>
				<time>2015-05-07T06:32:29Z</time>
				<extensions>
				</extensions>
			</trkpt>
			<trkpt lat="-28.012365" lon="152.922171">
				<ele>90</ele>
				<time>2015-05-07T06:32:30Z</time>
				<extensions>
				</extensions>
			</trkpt>
			<trkpt lat="-28.012570" lon="152.922210">
				<ele>90</ele>
				<time>2015-05-07T06:32:31Z</time>
				<extensions>
				</extensions>
			</trkpt>
			<trkpt lat="-28.012763" lon="152.922252">
				<ele>90</ele>
				<time>2015-05-07T06:32:32Z</time>
				<extensions>
				</extensions>
			</trkpt>
			<trkpt lat="-28.012970" lon="152.922306">
				<ele>90</ele>
				<time>2015-05-07T06:32:33Z</time>
				<extensions>
				</extensions>
			</trkpt>
			<trkpt lat="-28.013173" lon="152.922316">
				<ele>90</ele>
				<time>2015-05-07T06:32:34Z</time>
				<extensions>
				</extensions>
			</trkpt>
			<trkpt lat="-28.013378" lon="152.922320">
				<ele>91</ele>
				<time>2015-05-07T06:32:35Z</time>
				<extensions>
				</extensions>
			</trkpt>
			<trkpt lat="-28.013578" lon="152.922309">
				<ele>91</ele>
				<time>2015-05-07T06:32:36Z</time>
				<extensions>
				</extensions>
			</trkpt>
			<trkpt lat="-28.013765" lon="152.922302">
				<ele>90</ele>
				<time>2015-05-07T06:32:37Z</time>
				<extensions>
				</extensions>
			</trkpt>
			<trkpt lat="-28.013956" lon="152.922284">
				<ele>90</ele>
				<time>2015-05-07T06:32:38Z</time>
				<extensions>
				</extensions>
			</trkpt>
			<trkpt lat="-28.014151" lon="152.922263">
				<ele>90</ele>
				<time>2015-05-07T06:32:39Z</time>
				<extensions>
				</extensions>
			</trkpt>
			<trkpt lat="-28.014336" lon="152.922250">
				<ele>90</ele>
				<time>2015-05-07T06:32:40Z</time>
				<extensions>
				</extensions>
			</trkpt>
			<trkpt lat="-28.014525" lon="152.922251">
				<ele>90</ele>
				<time>2015-05-07T06:32:41Z</time>
				<extensions>
				</extensions>
			</trkpt>
			<trkpt lat="-28.014712" lon="152.922231">
				<ele>90</ele>
				<time>2015-05-07T06:32:42Z</time>
				<extensions>
				</extensions>
			</trkpt>
			<trkpt lat="-28.015062" lon="152.922152">
				<ele>90</ele>
				<time>2015-05-07T06:32:44Z</time>
				<extensions>
				</extensions>
			</trkpt>
			<trkpt lat="-28.015244" lon="152.922089">
				<ele>92</ele>
				<time>2015-05-07T06:32:45Z</time>
				<extensions>
				</extensions>
			</trkpt>
			<trkpt lat="-28.015427" lon="152.922008">
				<ele>94</ele>
				<time>2015-05-07T06:32:46Z</time>
				<extensions>
				</extensions>
			</trkpt>
			<trkpt lat="-28.015606" lon="152.921929">
				<ele>94</ele>
				<time>2015-05-07T06:32:47Z</time>
				<extensions>
				</extensions>
			</trkpt>
			<trkpt lat="-28.015788" lon="152.921856">
				<ele>92</ele>
				<time>2015-05-07T06:32:48Z</time>
				<extensions>
				</extensions>
			</trkpt>
			<trkpt lat="-28.015971" lon="152.921780">
				<ele>91</ele>
				<time>2015-05-07T06:32:49Z</time>
				<extensions>
				</extensions>
			</trkpt>
			<trkpt lat="-28.016154" lon="152.921704">
				<ele>89</ele>
				<time>2015-05-07T06:32:50Z</time>
				<extensions>
				</extensions>
			</trkpt>
			<trkpt lat="-28.016463" lon="152.921578">
				<ele>88</ele>
				<time>2015-05-07T06:32:52Z</time>
				<extensions>
				</extensions>
			</trkpt>
			<trkpt lat="-28.016820" lon="152.921545">
				<ele>85</ele>
				<time>2015-05-07T06:32:54Z</time>
				<extensions>
				</extensions>
			</trkpt>
			<trkpt lat="-28.017011" lon="152.921556">
				<ele>85</ele>
				<time>2015-05-07T06:32:55Z</time>
				<extensions>
				</extensions>
			</trkpt>
			<trkpt lat="-28.017230" lon="152.921589">
				<ele>87</ele>
				<time>2015-05-07T06:32:56Z</time>
				<extensions>
				</extensions>
			</trkpt>
			<trkpt lat="-28.017448" lon="152.921630">
				<ele>88</ele>
				<time>2015-05-07T06:32:57Z</time>
				<extensions>
				</extensions>
			</trkpt>
			<trkpt lat="-28.017672" lon="152.921679">
				<ele>88</ele>
				<time>2015-05-07T06:32:58Z</time>
				<extensions>
				</extensions>
			</trkpt>
			<trkpt lat="-28.017914" lon="152.921734">
				<ele>87</ele>
				<time>2015-05-07T06:32:59Z</time>
				<extensions>
				</extensions>
			</trkpt>
			<trkpt lat="-28.018151" lon="152.921769">
				<ele>86</ele>
				<time>2015-05-07T06:33:00Z</time>
				<extensions>
				</extensions>
			</trkpt>
			<trkpt lat="-28.018394" lon="152.921814">
				<ele>87</ele>
				<time>2015-05-07T06:33:01Z</time>
				<extensions>
				</extensions>
			</trkpt>
			<trkpt lat="-28.018620" lon="152.921873">
				<ele>86</ele>
				<time>2015-05-07T06:33:02Z</time>
				<extensions>
				</extensions>
			</trkpt>
			<trkpt lat="-28.018807" lon="152.921914">
				<ele>85</ele>
				<time>2015-05-07T06:33:03Z</time>
				<extensions>
				</extensions>
			</trkpt>
			<trkpt lat="-28.019010" lon="152.921956">
				<ele>84</ele>
				<time>2015-05-07T06:33:04Z</time>
				<extensions>
				</extensions>
			</trkpt>
			<trkpt lat="-28.019213" lon="152.921981">
				<ele>84</ele>
				<time>2015-05-07T06:33:05Z</time>
				<extensions>
				</extensions>
			</trkpt>
			<trkpt lat="-28.019429" lon="152.921988">
				<ele>85</ele>
				<time>2015-05-07T06:33:06Z</time>
				<extensions>
				</extensions>
			</trkpt>
			<trkpt lat="-28.019635" lon="152.922009">
				<ele>85</ele>
				<time>2015-05-07T06:33:07Z</time>
				<extensions>
				</extensions>
			</trkpt>
			<trkpt lat="-28.019833" lon="152.922005">
				<ele>84</ele>
				<time>2015-05-07T06:33:08Z</time>
				<extensions>
				</extensions>
			</trkpt>
			<trkpt lat="-28.020041" lon="152.922015">
				<ele>83</ele>
				<time>2015-05-07T06:33:09Z</time>
				<extensions>
				</extensions>
			</trkpt>
			<trkpt lat="-28.020235" lon="152.922003">
				<ele>81</ele>
				<time>2015-05-07T06:33:10Z</time>
				<extensions>
				</extensions>
			</trkpt>
			<trkpt lat="-28.020416" lon="152.921985">
				<ele>80</ele>
				<time>2015-05-07T06:33:11Z</time>
				<extensions>
				</extensions>
			</trkpt>
			<trkpt lat="-28.020610" lon="152.921960">
				<ele>77</ele>
				<time>2015-05-07T06:33:12Z</time>
				<extensions>
				</extensions>
			</trkpt>
			<trkpt lat="-28.020799" lon="152.921922">
				<ele>77</ele>
				<time>2015-05-07T06:33:13Z</time>
				<extensions>
				</extensions>
			</trkpt>
			<trkpt lat="-28.021004" lon="152.921857">
				<ele>75</ele>
				<time>2015-05-07T06:33:14Z</time>
				<extensions>
				</extensions>
			</trkpt>
			<trkpt lat="-28.021187" lon="152.921761">
				<ele>75</ele>
				<time>2015-05-07T06:33:15Z</time>
				<extensions>
				</extensions>
			</trkpt>
			<trkpt lat="-28.021369" lon="152.921656">
				<ele>77</ele>
				<time>2015-05-07T06:33:16Z</time>
				<extensions>
				</extensions>
			</trkpt>
			<trkpt lat="-28.021592" lon="152.921545">
				<ele>78</ele>
				<time>2015-05-07T06:33:17Z</time>
				<extensions>
				</extensions>
			</trkpt>
			<trkpt lat="-28.021814" lon="152.921433">
				<ele>79</ele>
				<time>2015-05-07T06:33:18Z</time>
				<extensions>
				</extensions>
			</trkpt>
			<trkpt lat="-28.022008" lon="152.921325">
				<ele>78</ele>
				<time>2015-05-07T06:33:19Z</time>
				<extensions>
				</extensions>
			</trkpt>
			<trkpt lat="-28.022235" lon="152.921210">
				<ele>80</ele>
				<time>2015-05-07T06:33:20Z</time>
				<extensions>
				</extensions>
			</trkpt>
			<trkpt lat="-28.022449" lon="152.921096">
				<ele>80</ele>
				<time>2015-05-07T06:33:21Z</time>
				<extensions>
				</extensions>
			</trkpt>
			<trkpt lat="-28.022665" lon="152.920970">
				<ele>81</ele>
				<time>2015-05-07T06:33:22Z</time>
				<extensions>
				</extensions>
			</trkpt>
			<trkpt lat="-28.022889" lon="152.920848">
				<ele>82</ele>
				<time>2015-05-07T06:33:23Z</time>
				<extensions>
				</extensions>
			</trkpt>
			<trkpt lat="-28.023117" lon="152.920729">
				<ele>83</ele>
				<time>2015-05-07T06:33:24Z</time>
				<extensions>
				</extensions>
			</trkpt>
			<trkpt lat="-28.023327" lon="152.920614">
				<ele>84</ele>
				<time>2015-05-07T06:33:25Z</time>
				<extensions>
				</extensions>
			</trkpt>
			<trkpt lat="-28.023542" lon="152.920503">
				<ele>86</ele>
				<time>2015-05-07T06:33:26Z</time>
				<extensions>
				</extensions>
			</trkpt>
			<trkpt lat="-28.023750" lon="152.920396">
				<ele>86</ele>
				<time>2015-05-07T06:33:27Z</time>
				<extensions>
				</extensions>
			</trkpt>
			<trkpt lat="-28.023963" lon="152.920283">
				<ele>86</ele>
				<time>2015-05-07T06:33:28Z</time>
				<extensions>
				</extensions>
			</trkpt>
			<trkpt lat="-28.024185" lon="152.920170">
				<ele>86</ele>
				<time>2015-05-07T06:33:29Z</time>
				<extensions>
				</extensions>
			</trkpt>
			<trkpt lat="-28.024411" lon="152.920056">
				<ele>87</ele>
				<time>2015-05-07T06:33:30Z</time>
				<extensions>
				</extensions>
			</trkpt>
			<trkpt lat="-28.024628" lon="152.919946">
				<ele>87</ele>
				<time>2015-05-07T06:33:31Z</time>
				<extensions>
				</extensions>
			</trkpt>
			<trkpt lat="-28.024835" lon="152.919822">
				<ele>88</ele>
				<time>2015-05-07T06:33:32Z</time>
				<extensions>
				</extensions>
			</trkpt>
			<trkpt lat="-28.025033" lon="152.919726">
				<ele>88</ele>
				<time>2015-05-07T06:33:33Z</time>
				<extensions>
				</extensions>
			</trkpt>
			<trkpt lat="-28.025222" lon="152.919625">
				<ele>86</ele>
				<time>2015-05-07T06:33:34Z</time>
				<extensions>
				</extensions>
			</trkpt>
			<trkpt lat="-28.025404" lon="152.919543">
				<ele>85</ele>
				<time>2015-05-07T06:33:35Z</time>
				<extensions>
				</extensions>
			</trkpt>
			<trkpt lat="-28.025583" lon="152.919440">
				<ele>84</ele>
				<time>2015-05-07T06:33:36Z</time>
				<extensions>
				</extensions>
			</trkpt>
			<trkpt lat="-28.025769" lon="152.919359">
				<ele>86</ele>
				<time>2015-05-07T06:33:37Z</time>
				<extensions>
				</extensions>
			</trkpt>
			<trkpt lat="-28.025946" lon="152.919287">
				<ele>86</ele>
				<time>2015-05-07T06:33:38Z</time>
				<extensions>
				</extensions>
			</trkpt>
			<trkpt lat="-28.026137" lon="152.919242">
				<ele>86</ele>
				<time>2015-05-07T06:33:39Z</time>
				<extensions>
				</extensions>
			</trkpt>
			<trkpt lat="-28.026338" lon="152.919204">
				<ele>86</ele>
				<time>2015-05-07T06:33:40Z</time>
				<extensions>
				</extensions>
			</trkpt>
			<trkpt lat="-28.026537" lon="152.919193">
				<ele>88</ele>
				<time>2015-05-07T06:33:41Z</time>
				<extensions>
				</extensions>
			</trkpt>
			<trkpt lat="-28.026751" lon="152.919194">
				<ele>89</ele>
				<time>2015-05-07T06:33:42Z</time>
				<extensions>
				</extensions>
			</trkpt>
			<trkpt lat="-28.026982" lon="152.919213">
				<ele>90</ele>
				<time>2015-05-07T06:33:43Z</time>
				<extensions>
				</extensions>
			</trkpt>
			<trkpt lat="-28.027218" lon="152.919239">
				<ele>93</ele>
				<time>2015-05-07T06:33:44Z</time>
				<extensions>
				</extensions>
			</trkpt>
			<trkpt lat="-28.027465" lon="152.919269">
				<ele>95</ele>
				<time>2015-05-07T06:33:45Z</time>
				<extensions>
				</extensions>
			</trkpt>
			<trkpt lat="-28.027700" lon="152.919292">
				<ele>97</ele>
				<time>2015-05-07T06:33:46Z</time>
				<extensions>
				</extensions>
			</trkpt>
			<trkpt lat="-28.027927" lon="152.919323">
				<ele>98</ele>
				<time>2015-05-07T06:33:47Z</time>
				<extensions>
				</extensions>
			</trkpt>
			<trkpt lat="-28.028153" lon="152.919345">
				<ele>99</ele>
				<time>2015-05-07T06:33:48Z</time>
				<extensions>
				</extensions>
			</trkpt>
			<trkpt lat="-28.028365" lon="152.919364">
				<ele>98</ele>
				<time>2015-05-07T06:33:49Z</time>
				<extensions>
				</extensions>
			</trkpt>
			<trkpt lat="-28.028587" lon="152.919383">
				<ele>97</ele>
				<time>2015-05-07T06:33:50Z</time>
				<extensions>
				</extensions>
			</trkpt>
			<trkpt lat="-28.028807" lon="152.919409">
				<ele>96</ele>
				<time>2015-05-07T06:33:51Z</time>
				<extensions>
				</extensions>
			</trkpt>
			<trkpt lat="-28.029027" lon="152.919436">
				<ele>93</ele>
				<time>2015-05-07T06:33:52Z</time>
				<extensions>
				</extensions>
			</trkpt>
			<trkpt lat="-28.029242" lon="152.919462">
				<ele>90</ele>
				<time>2015-05-07T06:33:53Z</time>
				<extensions>
				</extensions>
			</trkpt>
			<trkpt lat="-28.029441" lon="152.919513">
				<ele>89</ele>
				<time>2015-05-07T06:33:54Z</time>
				<extensions>
				</extensions>
			</trkpt>
			<trkpt lat="-28.029646" lon="152.919586">
				<ele>87</ele>
				<time>2015-05-07T06:33:55Z</time>
				<extensions>
				</extensions>
			</trkpt>
			<trkpt lat="-28.029821" lon="152.919663">
				<ele>84</ele>
				<time>2015-05-07T06:33:56Z</time>
				<extensions>
				</extensions>
			</trkpt>
			<trkpt lat="-28.030009" lon="152.919748">
				<ele>84</ele>
				<time>2015-05-07T06:33:57Z</time>
				<extensions>
				</extensions>
			</trkpt>
			<trkpt lat="-28.030195" lon="152.919834">
				<ele>83</ele>
				<time>2015-05-07T06:33:58Z</time>
				<extensions>
				</extensions>
			</trkpt>
			<trkpt lat="-28.030382" lon="152.919922">
				<ele>83</ele>
				<time>2015-05-07T06:33:59Z</time>
				<extensions>
				</extensions>
			</trkpt>
			<trkpt lat="-28.030571" lon="152.920006">
				<ele>82</ele>
				<time>2015-05-07T06:34:00Z</time>
				<extensions>
				</extensions>
			</trkpt>
			<trkpt lat="-28.030754" lon="152.920090">
				<ele>80</ele>
				<time>2015-05-07T06:34:01Z</time>
				<extensions>
				</extensions>
			</trkpt>
			<trkpt lat="-28.030937" lon="152.920157">
				<ele>79</ele>
				<time>2015-05-07T06:34:02Z</time>
				<extensions>
				</extensions>
			</trkpt>
			<trkpt lat="-28.031120" lon="152.920209">
				<ele>78</ele>
				<time>2015-05-07T06:34:03Z</time>
				<extensions>
				</extensions>
			</trkpt>
			<trkpt lat="-28.031314" lon="152.920253">
				<ele>77</ele>
				<time>2015-05-07T06:34:04Z</time>
				<extensions>
				</extensions>
			</trkpt>
			<trkpt lat="-28.031514" lon="152.920292">
				<ele>75</ele>
				<time>2015-05-07T06:34:05Z</time>
				<extensions>
				</extensions>
			</trkpt>
			<trkpt lat="-28.031722" lon="152.920323">
				<ele>73</ele>
				<time>2015-05-07T06:34:06Z</time>
				<extensions>
				</extensions>
			</trkpt>
			<trkpt lat="-28.031936" lon="152.920360">
				<ele>72</ele>
				<time>2015-05-07T06:34:07Z</time>
				<extensions>
				</extensions>
			</trkpt>
			<trkpt lat="-28.032152" lon="152.920396">
				<ele>69</ele>
				<time>2015-05-07T06:34:08Z</time>
				<extensions>
				</extensions>
			</trkpt>
			<trkpt lat="-28.032365" lon="152.920436">
				<ele>68</ele>
				<time>2015-05-07T06:34:09Z</time>
				<extensions>
				</extensions>
			</trkpt>
			<trkpt lat="-28.032576" lon="152.920481">
				<ele>65</ele>
				<time>2015-05-07T06:34:10Z</time>
				<extensions>
				</extensions>
			</trkpt>
			<trkpt lat="-28.032787" lon="152.920523">
				<ele>63</ele>
				<time>2015-05-07T06:34:11Z</time>
				<extensions>
				</extensions>
			</trkpt>
			<trkpt lat="-28.033006" lon="152.920563">
				<ele>61</ele>
				<time>2015-05-07T06:34:12Z</time>
				<extensions>
				</extensions>
			</trkpt>
			<trkpt lat="-28.033224" lon="152.920599">
				<ele>59</ele>
				<time>2015-05-07T06:34:13Z</time>
				<extensions>
				</extensions>
			</trkpt>
			<trkpt lat="-28.033439" lon="152.920643">
				<ele>57</ele>
				<time>2015-05-07T06:34:14Z</time>
				<extensions>
				</extensions>
			</trkpt>
			<trkpt lat="-28.033659" lon="152.920695">
				<ele>55</ele>
				<time>2015-05-07T06:34:15Z</time>
				<extensions>
				</extensions>
			</trkpt>
			<trkpt lat="-28.033879" lon="152.920732">
				<ele>53</ele>
				<time>2015-05-07T06:34:16Z</time>
				<extensions>
				</extensions>
			</trkpt>
			<trkpt lat="-28.034087" lon="152.920761">
				<ele>52</ele>
				<time>2015-05-07T06:34:17Z</time>
				<extensions>
				</extensions>
			</trkpt>
			<trkpt lat="-28.034287" lon="152.920782">
				<ele>51</ele>
				<time>2015-05-07T06:34:18Z</time>
				<extensions>
				</extensions>
			</trkpt>
			<trkpt lat="-28.034645" lon="152.920817">
				<ele>48</ele>
				<time>2015-05-07T06:34:20Z</time>
				<extensions>
				</extensions>
			</trkpt>
			<trkpt lat="-28.034871" lon="152.920835">
				<ele>44</ele>
				<time>2015-05-07T06:34:22Z</time>
				<extensions>
				</extensions>
			</trkpt>
			<trkpt lat="-28.035069" lon="152.920972">
				<ele>43</ele>
				<time>2015-05-07T06:34:25Z</time>
				<extensions>
				</extensions>
			</trkpt>
			<trkpt lat="-28.035167" lon="152.921201">
				<ele>41</ele>
				<time>2015-05-07T06:34:28Z</time>
				<extensions>
				</extensions>
			</trkpt>
			<trkpt lat="-28.035329" lon="152.921297">
				<ele>42</ele>
				<time>2015-05-07T06:34:30Z</time>
				<extensions>
				</extensions>
			</trkpt>
			<trkpt lat="-28.035604" lon="152.921359">
				<ele>44</ele>
				<time>2015-05-07T06:34:32Z</time>
				<extensions>
				</extensions>
			</trkpt>
			<trkpt lat="-28.035919" lon="152.921427">
				<ele>47</ele>
				<time>2015-05-07T06:34:34Z</time>
				<extensions>
				</extensions>
			</trkpt>
			<trkpt lat="-28.036215" lon="152.921530">
				<ele>49</ele>
				<time>2015-05-07T06:34:36Z</time>
				<extensions>
				</extensions>
			</trkpt>
			<trkpt lat="-28.036499" lon="152.921639">
				<ele>48</ele>
				<time>2015-05-07T06:34:38Z</time>
				<extensions>
				</extensions>
			</trkpt>
			<trkpt lat="-28.036692" lon="152.921714">
				<ele>43</ele>
				<time>2015-05-07T06:34:40Z</time>
				<extensions>
				</extensions>
			</trkpt>
			<trkpt lat="-28.036768" lon="152.921912">
				<ele>40</ele>
				<time>2015-05-07T06:34:43Z</time>
				<extensions>
				</extensions>
			</trkpt>
			<trkpt lat="-28.036712" lon="152.922134">
				<ele>42</ele>
				<time>2015-05-07T06:34:45Z</time>
				<extensions>
				</extensions>
			</trkpt>
			<trkpt lat="-28.036633" lon="152.922438">
				<ele>45</ele>
				<time>2015-05-07T06:34:47Z</time>
				<extensions>
				</extensions>
			</trkpt>
			<trkpt lat="-28.036574" lon="152.922636">
				<ele>46</ele>
				<time>2015-05-07T06:34:48Z</time>
				<extensions>
				</extensions>
			</trkpt>
			<trkpt lat="-28.036504" lon="152.923030">
				<ele>50</ele>
				<time>2015-05-07T06:34:50Z</time>
				<extensions>
				</extensions>
			</trkpt>
			<trkpt lat="-28.036460" lon="152.923246">
				<ele>51</ele>
				<time>2015-05-07T06:34:51Z</time>
				<extensions>
				</extensions>
			</trkpt>
			<trkpt lat="-28.036427" lon="152.923459">
				<ele>52</ele>
				<time>2015-05-07T06:34:52Z</time>
				<extensions>
				</extensions>
			</trkpt>
			<trkpt lat="-28.036372" lon="152.923679">
				<ele>54</ele>
				<time>2015-05-07T06:34:53Z</time>
				<extensions>
				</extensions>
			</trkpt>
			<trkpt lat="-28.036324" lon="152.923911">
				<ele>55</ele>
				<time>2015-05-07T06:34:54Z</time>
				<extensions>
				</extensions>
			</trkpt>
			<trkpt lat="-28.036267" lon="152.924140">
				<ele>55</ele>
				<time>2015-05-07T06:34:55Z</time>
				<extensions>
				</extensions>
			</trkpt>
			<trkpt lat="-28.036224" lon="152.924365">
				<ele>54</ele>
				<time>2015-05-07T06:34:56Z</time>
				<extensions>
				</extensions>
			</trkpt>
			<trkpt lat="-28.036180" lon="152.924573">
				<ele>53</ele>
				<time>2015-05-07T06:34:57Z</time>
				<extensions>
				</extensions>
			</trkpt>
			<trkpt lat="-28.036083" lon="152.924964">
				<ele>51</ele>
				<time>2015-05-07T06:34:59Z</time>
				<extensions>
				</extensions>
			</trkpt>
			<trkpt lat="-28.036013" lon="152.925318">
				<ele>47</ele>
				<time>2015-05-07T06:35:01Z</time>
				<extensions>
				</extensions>
			</trkpt>
			<trkpt lat="-28.035958" lon="152.925607">
				<ele>41</ele>
				<time>2015-05-07T06:35:03Z</time>
				<extensions>
				</extensions>
			</trkpt>
			<trkpt lat="-28.035896" lon="152.925890">
				<ele>38</ele>
				<time>2015-05-07T06:35:05Z</time>
				<extensions>
				</extensions>
			</trkpt>
			<trkpt lat="-28.035827" lon="152.926160">
				<ele>38</ele>
				<time>2015-05-07T06:35:07Z</time>
				<extensions>
				</extensions>
			</trkpt>
			<trkpt lat="-28.035756" lon="152.926451">
				<ele>40</ele>
				<time>2015-05-07T06:35:09Z</time>
				<extensions>
				</extensions>
			</trkpt>
			<trkpt lat="-28.035694" lon="152.926778">
				<ele>45</ele>
				<time>2015-05-07T06:35:11Z</time>
				<extensions>
				</extensions>
			</trkpt>
			<trkpt lat="-28.035653" lon="152.927129">
				<ele>48</ele>
				<time>2015-05-07T06:35:13Z</time>
				<extensions>
				</extensions>
			</trkpt>
			<trkpt lat="-28.035681" lon="152.927492">
				<ele>50</ele>
				<time>2015-05-07T06:35:15Z</time>
				<extensions>
				</extensions>
			</trkpt>
			<trkpt lat="-28.035758" lon="152.927826">
				<ele>50</ele>
				<time>2015-05-07T06:35:17Z</time>
				<extensions>
				</extensions>
			</trkpt>
			<trkpt lat="-28.035890" lon="152.928155">
				<ele>51</ele>
				<time>2015-05-07T06:35:19Z</time>
				<extensions>
				</extensions>
			</trkpt>
			<trkpt lat="-28.036069" lon="152.928462">
				<ele>52</ele>
				<time>2015-05-07T06:35:21Z</time>
				<extensions>
				</extensions>
			</trkpt>
			<trkpt lat="-28.036296" lon="152.928740">
				<ele>52</ele>
				<time>2015-05-07T06:35:23Z</time>
				<extensions>
				</extensions>
			</trkpt>
			<trkpt lat="-28.036550" lon="152.928984">
				<ele>52</ele>
				<time>2015-05-07T06:35:25Z</time>
				<extensions>
				</extensions>
			</trkpt>
			<trkpt lat="-28.036834" lon="152.929246">
				<ele>54</ele>
				<time>2015-05-07T06:35:27Z</time>
				<extensions>
				</extensions>
			</trkpt>
			<trkpt lat="-28.036985" lon="152.929381">
				<ele>53</ele>
				<time>2015-05-07T06:35:28Z</time>
				<extensions>
				</extensions>
			</trkpt>
			<trkpt lat="-28.037123" lon="152.929514">
				<ele>52</ele>
				<time>2015-05-07T06:35:29Z</time>
				<extensions>
				</extensions>
			</trkpt>
			<trkpt lat="-28.037394" lon="152.929779">
				<ele>50</ele>
				<time>2015-05-07T06:35:31Z</time>
				<extensions>
				</extensions>
			</trkpt>
			<trkpt lat="-28.037532" lon="152.929916">
				<ele>51</ele>
				<time>2015-05-07T06:35:32Z</time>
				<extensions>
				</extensions>
			</trkpt>
			<trkpt lat="-28.037689" lon="152.930053">
				<ele>50</ele>
				<time>2015-05-07T06:35:33Z</time>
				<extensions>
				</extensions>
			</trkpt>
			<trkpt lat="-28.037833" lon="152.930194">
				<ele>50</ele>
				<time>2015-05-07T06:35:34Z</time>
				<extensions>
				</extensions>
			</trkpt>
			<trkpt lat="-28.037977" lon="152.930334">
				<ele>50</ele>
				<time>2015-05-07T06:35:35Z</time>
				<extensions>
				</extensions>
			</trkpt>
			<trkpt lat="-28.038194" lon="152.930606">
				<ele>50</ele>
				<time>2015-05-07T06:35:37Z</time>
				<extensions>
				</extensions>
			</trkpt>
			<trkpt lat="-28.038381" lon="152.930924">
				<ele>51</ele>
				<time>2015-05-07T06:35:39Z</time>
				<extensions>
				</extensions>
			</trkpt>
			<trkpt lat="-28.038472" lon="152.931308">
				<ele>53</ele>
				<time>2015-05-07T06:35:41Z</time>
				<extensions>
				</extensions>
			</trkpt>
			<trkpt lat="-28.038526" lon="152.931713">
				<ele>55</ele>
				<time>2015-05-07T06:35:43Z</time>
				<extensions>
				</extensions>
			</trkpt>
			<trkpt lat="-28.038555" lon="152.931942">
				<ele>56</ele>
				<time>2015-05-07T06:35:44Z</time>
				<extensions>
				</extensions>
			</trkpt>
			<trkpt lat="-28.038600" lon="152.932336">
				<ele>56</ele>
				<time>2015-05-07T06:35:46Z</time>
				<extensions>
				</extensions>
			</trkpt>
			<trkpt lat="-28.038635" lon="152.932538">
				<ele>56</ele>
				<time>2015-05-07T06:35:47Z</time>
				<extensions>
				</extensions>
			</trkpt>
			<trkpt lat="-28.038666" lon="152.932745">
				<ele>56</ele>
				<time>2015-05-07T06:35:48Z</time>
				<extensions>
				</extensions>
			</trkpt>
			<trkpt lat="-28.038673" lon="152.932971">
				<ele>56</ele>
				<time>2015-05-07T06:35:49Z</time>
				<extensions>
				</extensions>
			</trkpt>
			<trkpt lat="-28.038714" lon="152.933368">
				<ele>56</ele>
				<time>2015-05-07T06:35:51Z</time>
				<extensions>
				</extensions>
			</trkpt>
			<trkpt lat="-28.038744" lon="152.933743">
				<ele>56</ele>
				<time>2015-05-07T06:35:53Z</time>
				<extensions>
				</extensions>
			</trkpt>
			<trkpt lat="-28.038774" lon="152.933946">
				<ele>56</ele>
				<time>2015-05-07T06:35:54Z</time>
				<extensions>
				</extensions>
			</trkpt>
			<trkpt lat="-28.038826" lon="152.934309">
				<ele>55</ele>
				<time>2015-05-07T06:35:56Z</time>
				<extensions>
				</extensions>
			</trkpt>
			<trkpt lat="-28.038867" lon="152.934660">
				<ele>54</ele>
				<time>2015-05-07T06:35:58Z</time>
				<extensions>
				</extensions>
			</trkpt>
			<trkpt lat="-28.038903" lon="152.934951">
				<ele>54</ele>
				<time>2015-05-07T06:36:00Z</time>
				<extensions>
				</extensions>
			</trkpt>
			<trkpt lat="-28.038940" lon="152.935189">
				<ele>53</ele>
				<time>2015-05-07T06:36:02Z</time>
				<extensions>
				</extensions>
			</trkpt>
			<trkpt lat="-28.038967" lon="152.935447">
				<ele>52</ele>
				<time>2015-05-07T06:36:05Z</time>
				<extensions>
				</extensions>
			</trkpt>
			<trkpt lat="-28.038994" lon="152.935662">
				<ele>53</ele>
				<time>2015-05-07T06:36:09Z</time>
				<extensions>
				</extensions>
			</trkpt>
			<trkpt lat="-28.039142" lon="152.935842">
				<ele>54</ele>
				<time>2015-05-07T06:36:17Z</time>
				<extensions>
				</extensions>
			</trkpt>
			<trkpt lat="-28.039342" lon="152.935759">
				<ele>55</ele>
				<time>2015-05-07T06:36:19Z</time>
				<extensions>
				</extensions>
			</trkpt>
			<trkpt lat="-28.039640" lon="152.935626">
				<ele>60</ele>
				<time>2015-05-07T06:36:21Z</time>
				<extensions>
				</extensions>
			</trkpt>
			<trkpt lat="-28.040012" lon="152.935476">
				<ele>66</ele>
				<time>2015-05-07T06:36:23Z</time>
				<extensions>
				</extensions>
			</trkpt>
			<trkpt lat="-28.040234" lon="152.935393">
				<ele>68</ele>
				<time>2015-05-07T06:36:24Z</time>
				<extensions>
				</extensions>
			</trkpt>
			<trkpt lat="-28.040465" lon="152.935313">
				<ele>69</ele>
				<time>2015-05-07T06:36:25Z</time>
				<extensions>
				</extensions>
			</trkpt>
			<trkpt lat="-28.040731" lon="152.935240">
				<ele>73</ele>
				<time>2015-05-07T06:36:26Z</time>
				<extensions>
				</extensions>
			</trkpt>
			<trkpt lat="-28.040986" lon="152.935150">
				<ele>74</ele>
				<time>2015-05-07T06:36:27Z</time>
				<extensions>
				</extensions>
			</trkpt>
			<trkpt lat="-28.041250" lon="152.935054">
				<ele>75</ele>
				<time>2015-05-07T06:36:28Z</time>
				<extensions>
				</extensions>
			</trkpt>
			<trkpt lat="-28.041511" lon="152.934965">
				<ele>74</ele>
				<time>2015-05-07T06:36:29Z</time>
				<extensions>
				</extensions>
			</trkpt>
			<trkpt lat="-28.041770" lon="152.934876">
				<ele>72</ele>
				<time>2015-05-07T06:36:30Z</time>
				<extensions>
				</extensions>
			</trkpt>
			<trkpt lat="-28.042024" lon="152.934785">
				<ele>70</ele>
				<time>2015-05-07T06:36:31Z</time>
				<extensions>
				</extensions>
			</trkpt>
			<trkpt lat="-28.042267" lon="152.934685">
				<ele>68</ele>
				<time>2015-05-07T06:36:32Z</time>
				<extensions>
				</extensions>
			</trkpt>
			<trkpt lat="-28.042504" lon="152.934608">
				<ele>67</ele>
				<time>2015-05-07T06:36:33Z</time>
				<extensions>
				</extensions>
			</trkpt>
			<trkpt lat="-28.042729" lon="152.934524">
				<ele>65</ele>
				<time>2015-05-07T06:36:34Z</time>
				<extensions>
				</extensions>
			</trkpt>
			<trkpt lat="-28.042980" lon="152.934440">
				<ele>66</ele>
				<time>2015-05-07T06:36:35Z</time>
				<extensions>
				</extensions>
			</trkpt>
			<trkpt lat="-28.043238" lon="152.934351">
				<ele>66</ele>
				<time>2015-05-07T06:36:36Z</time>
				<extensions>
				</extensions>
			</trkpt>
			<trkpt lat="-28.043477" lon="152.934277">
				<ele>67</ele>
				<time>2015-05-07T06:36:37Z</time>
				<extensions>
				</extensions>
			</trkpt>
			<trkpt lat="-28.043722" lon="152.934190">
				<ele>68</ele>
				<time>2015-05-07T06:36:38Z</time>
				<extensions>
				</extensions>
			</trkpt>
			<trkpt lat="-28.043971" lon="152.934099">
				<ele>68</ele>
				<time>2015-05-07T06:36:39Z</time>
				<extensions>
				</extensions>
			</trkpt>
			<trkpt lat="-28.044223" lon="152.934001">
				<ele>70</ele>
				<time>2015-05-07T06:36:40Z</time>
				<extensions>
				</extensions>
			</trkpt>
			<trkpt lat="-28.044479" lon="152.933916">
				<ele>70</ele>
				<time>2015-05-07T06:36:41Z</time>
				<extensions>
				</extensions>
			</trkpt>
			<trkpt lat="-28.044734" lon="152.933823">
				<ele>70</ele>
				<time>2015-05-07T06:36:42Z</time>
				<extensions>
				</extensions>
			</trkpt>
			<trkpt lat="-28.044997" lon="152.933744">
				<ele>69</ele>
				<time>2015-05-07T06:36:43Z</time>
				<extensions>
				</extensions>
			</trkpt>
			<trkpt lat="-28.045248" lon="152.933652">
				<ele>69</ele>
				<time>2015-05-07T06:36:44Z</time>
				<extensions>
				</extensions>
			</trkpt>
			<trkpt lat="-28.045502" lon="152.933566">
				<ele>69</ele>
				<time>2015-05-07T06:36:45Z</time>
				<extensions>
				</extensions>
			</trkpt>
			<trkpt lat="-28.045759" lon="152.933484">
				<ele>70</ele>
				<time>2015-05-07T06:36:46Z</time>
				<extensions>
				</extensions>
			</trkpt>
			<trkpt lat="-28.046015" lon="152.933399">
				<ele>70</ele>
				<time>2015-05-07T06:36:47Z</time>
				<extensions>
				</extensions>
			</trkpt>
			<trkpt lat="-28.046274" lon="152.933315">
				<ele>70</ele>
				<time>2015-05-07T06:36:48Z</time>
				<extensions>
				</extensions>
			</trkpt>
			<trkpt lat="-28.046532" lon="152.933240">
				<ele>70</ele>
				<time>2015-05-07T06:36:49Z</time>
				<extensions>
				</extensions>
			</trkpt>
			<trkpt lat="-28.046802" lon="152.933177">
				<ele>70</ele>
				<time>2015-05-07T06:36:50Z</time>
				<extensions>
				</extensions>
			</trkpt>
			<trkpt lat="-28.047070" lon="152.933133">
				<ele>71</ele>
				<time>2015-05-07T06:36:51Z</time>
				<extensions>
				</extensions>
			</trkpt>
			<trkpt lat="-28.047343" lon="152.933090">
				<ele>70</ele>
				<time>2015-05-07T06:36:52Z</time>
				<extensions>
				</extensions>
			</trkpt>
			<trkpt lat="-28.047611" lon="152.933053">
				<ele>70</ele>
				<time>2015-05-07T06:36:53Z</time>
				<extensions>
				</extensions>
			</trkpt>
			<trkpt lat="-28.047885" lon="152.933046">
				<ele>69</ele>
				<time>2015-05-07T06:36:54Z</time>
				<extensions>
				</extensions>
			</trkpt>
			<trkpt lat="-28.048149" lon="152.933028">
				<ele>68</ele>
				<time>2015-05-07T06:36:55Z</time>
				<extensions>
				</extensions>
			</trkpt>
			<trkpt lat="-28.048411" lon="152.933021">
				<ele>68</ele>
				<time>2015-05-07T06:36:56Z</time>
				<extensions>
				</extensions>
			</trkpt>
			<trkpt lat="-28.048688" lon="152.933035">
				<ele>71</ele>
				<time>2015-05-07T06:36:57Z</time>
				<extensions>
				</extensions>
			</trkpt>
			<trkpt lat="-28.048967" lon="152.933047">
				<ele>73</ele>
				<time>2015-05-07T06:36:58Z</time>
				<extensions>
				</extensions>
			</trkpt>
			<trkpt lat="-28.049251" lon="152.933074">
				<ele>73</ele>
				<time>2015-05-07T06:36:59Z</time>
				<extensions>
				</extensions>
			</trkpt>
			<trkpt lat="-28.049521" lon="152.933106">
				<ele>74</ele>
				<time>2015-05-07T06:37:00Z</time>
				<extensions>
				</extensions>
			</trkpt>
			<trkpt lat="-28.049803" lon="152.933147">
				<ele>73</ele>
				<time>2015-05-07T06:37:01Z</time>
				<extensions>
				</extensions>
			</trkpt>
			<trkpt lat="-28.050081" lon="152.933189">
				<ele>72</ele>
				<time>2015-05-07T06:37:02Z</time>
				<extensions>
				</extensions>
			</trkpt>
			<trkpt lat="-28.050358" lon="152.933231">
				<ele>72</ele>
				<time>2015-05-07T06:37:03Z</time>
				<extensions>
				</extensions>
			</trkpt>
			<trkpt lat="-28.050640" lon="152.933271">
				<ele>72</ele>
				<time>2015-05-07T06:37:04Z</time>
				<extensions>
				</extensions>
			</trkpt>
			<trkpt lat="-28.050927" lon="152.933317">
				<ele>71</ele>
				<time>2015-05-07T06:37:05Z</time>
				<extensions>
				</extensions>
			</trkpt>
			<trkpt lat="-28.051214" lon="152.933351">
				<ele>72</ele>
				<time>2015-05-07T06:37:06Z</time>
				<extensions>
				</extensions>
			</trkpt>
			<trkpt lat="-28.051498" lon="152.933387">
				<ele>73</ele>
				<time>2015-05-07T06:37:07Z</time>
				<extensions>
				</extensions>
			</trkpt>
			<trkpt lat="-28.051787" lon="152.933434">
				<ele>73</ele>
				<time>2015-05-07T06:37:08Z</time>
				<extensions>
				</extensions>
			</trkpt>
			<trkpt lat="-28.052074" lon="152.933485">
				<ele>75</ele>
				<time>2015-05-07T06:37:09Z</time>
				<extensions>
				</extensions>
			</trkpt>
			<trkpt lat="-28.052354" lon="152.933529">
				<ele>74</ele>
				<time>2015-05-07T06:37:10Z</time>
				<extensions>
				</extensions>
			</trkpt>
			<trkpt lat="-28.052624" lon="152.933566">
				<ele>71</ele>
				<time>2015-05-07T06:37:11Z</time>
				<extensions>
				</extensions>
			</trkpt>
			<trkpt lat="-28.052890" lon="152.933604">
				<ele>71</ele>
				<time>2015-05-07T06:37:12Z</time>
				<extensions>
				</extensions>
			</trkpt>
			<trkpt lat="-28.053148" lon="152.933643">
				<ele>69</ele>
				<time>2015-05-07T06:37:13Z</time>
				<extensions>
				</extensions>
			</trkpt>
			<trkpt lat="-28.053403" lon="152.933683">
				<ele>67</ele>
				<time>2015-05-07T06:37:14Z</time>
				<extensions>
				</extensions>
			</trkpt>
			<trkpt lat="-28.053657" lon="152.933722">
				<ele>66</ele>
				<time>2015-05-07T06:37:15Z</time>
				<extensions>
				</extensions>
			</trkpt>
			<trkpt lat="-28.053911" lon="152.933757">
				<ele>67</ele>
				<time>2015-05-07T06:37:16Z</time>
				<extensions>
				</extensions>
			</trkpt>
			<trkpt lat="-28.054160" lon="152.933791">
				<ele>66</ele>
				<time>2015-05-07T06:37:17Z</time>
				<extensions>
				</extensions>
			</trkpt>
			<trkpt lat="-28.054411" lon="152.933837">
				<ele>66</ele>
				<time>2015-05-07T06:37:18Z</time>
				<extensions>
				</extensions>
			</trkpt>
			<trkpt lat="-28.054648" lon="152.933871">
				<ele>66</ele>
				<time>2015-05-07T06:37:19Z</time>
				<extensions>
				</extensions>
			</trkpt>
			<trkpt lat="-28.054891" lon="152.933902">
				<ele>66</ele>
				<time>2015-05-07T06:37:20Z</time>
				<extensions>
				</extensions>
			</trkpt>
			<trkpt lat="-28.055130" lon="152.933937">
				<ele>65</ele>
				<time>2015-05-07T06:37:21Z</time>
				<extensions>
				</extensions>
			</trkpt>
			<trkpt lat="-28.055374" lon="152.933971">
				<ele>66</ele>
				<time>2015-05-07T06:37:22Z</time>
				<extensions>
				</extensions>
			</trkpt>
			<trkpt lat="-28.055618" lon="152.934008">
				<ele>67</ele>
				<time>2015-05-07T06:37:23Z</time>
				<extensions>
				</extensions>
			</trkpt>
			<trkpt lat="-28.055875" lon="152.934056">
				<ele>66</ele>
				<time>2015-05-07T06:37:24Z</time>
				<extensions>
				</extensions>
			</trkpt>
			<trkpt lat="-28.056118" lon="152.934091">
				<ele>66</ele>
				<time>2015-05-07T06:37:25Z</time>
				<extensions>
				</extensions>
			</trkpt>
			<trkpt lat="-28.056361" lon="152.934131">
				<ele>67</ele>
				<time>2015-05-07T06:37:26Z</time>
				<extensions>
				</extensions>
			</trkpt>
			<trkpt lat="-28.056603" lon="152.934166">
				<ele>65</ele>
				<time>2015-05-07T06:37:27Z</time>
				<extensions>
				</extensions>
			</trkpt>
			<trkpt lat="-28.056855" lon="152.934199">
				<ele>65</ele>
				<time>2015-05-07T06:37:28Z</time>
				<extensions>
				</extensions>
			</trkpt>
			<trkpt lat="-28.057093" lon="152.934235">
				<ele>65</ele>
				<time>2015-05-07T06:37:29Z</time>
				<extensions>
				</extensions>
			</trkpt>
			<trkpt lat="-28.057343" lon="152.934269">
				<ele>64</ele>
				<time>2015-05-07T06:37:30Z</time>
				<extensions>
				</extensions>
			</trkpt>
			<trkpt lat="-28.057595" lon="152.934304">
				<ele>66</ele>
				<time>2015-05-07T06:37:31Z</time>
				<extensions>
				</extensions>
			</trkpt>
			<trkpt lat="-28.057844" lon="152.934340">
				<ele>65</ele>
				<time>2015-05-07T06:37:32Z</time>
				<extensions>
				</extensions>
			</trkpt>
			<trkpt lat="-28.058090" lon="152.934367">
				<ele>63</ele>
				<time>2015-05-07T06:37:33Z</time>
				<extensions>
				</extensions>
			</trkpt>
			<trkpt lat="-28.058330" lon="152.934406">
				<ele>63</ele>
				<time>2015-05-07T06:37:34Z</time>
				<extensions>
				</extensions>
			</trkpt>
			<trkpt lat="-28.058579" lon="152.934440">
				<ele>64</ele>
				<time>2015-05-07T06:37:35Z</time>
				<extensions>
				</extensions>
			</trkpt>
			<trkpt lat="-28.058823" lon="152.934478">
				<ele>64</ele>
				<time>2015-05-07T06:37:36Z</time>
				<extensions>
				</extensions>
			</trkpt>
			<trkpt lat="-28.059072" lon="152.934526">
				<ele>64</ele>
				<time>2015-05-07T06:37:37Z</time>
				<extensions>
				</extensions>
			</trkpt>
			<trkpt lat="-28.059316" lon="152.934563">
				<ele>63</ele>
				<time>2015-05-07T06:37:38Z</time>
				<extensions>
				</extensions>
			</trkpt>
			<trkpt lat="-28.059554" lon="152.934597">
				<ele>63</ele>
				<time>2015-05-07T06:37:39Z</time>
				<extensions>
				</extensions>
			</trkpt>
			<trkpt lat="-28.059793" lon="152.934628">
				<ele>61</ele>
				<time>2015-05-07T06:37:40Z</time>
				<extensions>
				</extensions>
			</trkpt>
			<trkpt lat="-28.060026" lon="152.934662">
				<ele>60</ele>
				<time>2015-05-07T06:37:41Z</time>
				<extensions>
				</extensions>
			</trkpt>
			<trkpt lat="-28.060273" lon="152.934703">
				<ele>59</ele>
				<time>2015-05-07T06:37:42Z</time>
				<extensions>
				</extensions>
			</trkpt>
			<trkpt lat="-28.060513" lon="152.934749">
				<ele>60</ele>
				<time>2015-05-07T06:37:43Z</time>
				<extensions>
				</extensions>
			</trkpt>
			<trkpt lat="-28.060753" lon="152.934806">
				<ele>60</ele>
				<time>2015-05-07T06:37:44Z</time>
				<extensions>
				</extensions>
			</trkpt>
			<trkpt lat="-28.061000" lon="152.934877">
				<ele>60</ele>
				<time>2015-05-07T06:37:45Z</time>
				<extensions>
				</extensions>
			</trkpt>
			<trkpt lat="-28.061247" lon="152.934951">
				<ele>60</ele>
				<time>2015-05-07T06:37:46Z</time>
				<extensions>
				</extensions>
			</trkpt>
			<trkpt lat="-28.061494" lon="152.935043">
				<ele>62</ele>
				<time>2015-05-07T06:37:47Z</time>
				<extensions>
				</extensions>
			</trkpt>
			<trkpt lat="-28.061742" lon="152.935141">
				<ele>64</ele>
				<time>2015-05-07T06:37:48Z</time>
				<extensions>
				</extensions>
			</trkpt>
			<trkpt lat="-28.061999" lon="152.935253">
				<ele>65</ele>
				<time>2015-05-07T06:37:49Z</time>
				<extensions>
				</extensions>
			</trkpt>
			<trkpt lat="-28.062250" lon="152.935372">
				<ele>64</ele>
				<time>2015-05-07T06:37:50Z</time>
				<extensions>
				</extensions>
			</trkpt>
			<trkpt lat="-28.062500" lon="152.935489">
				<ele>63</ele>
				<time>2015-05-07T06:37:51Z</time>
				<extensions>
				</extensions>
			</trkpt>
			<trkpt lat="-28.062753" lon="152.935603">
				<ele>63</ele>
				<time>2015-05-07T06:37:52Z</time>
				<extensions>
				</extensions>
			</trkpt>
			<trkpt lat="-28.063007" lon="152.935718">
				<ele>62</ele>
				<time>2015-05-07T06:37:53Z</time>
				<extensions>
				</extensions>
			</trkpt>
			<trkpt lat="-28.063261" lon="152.935839">
				<ele>62</ele>
				<time>2015-05-07T06:37:54Z</time>
				<extensions>
				</extensions>
			</trkpt>
			<trkpt lat="-28.063516" lon="152.935954">
				<ele>61</ele>
				<time>2015-05-07T06:37:55Z</time>
				<extensions>
				</extensions>
			</trkpt>
			<trkpt lat="-28.063767" lon="152.936071">
				<ele>61</ele>
				<time>2015-05-07T06:37:56Z</time>
				<extensions>
				</extensions>
			</trkpt>
			<trkpt lat="-28.064024" lon="152.936179">
				<ele>60</ele>
				<time>2015-05-07T06:37:57Z</time>
				<extensions>
				</extensions>
			</trkpt>
			<trkpt lat="-28.064281" lon="152.936270">
				<ele>58</ele>
				<time>2015-05-07T06:37:58Z</time>
				<extensions>
				</extensions>
			</trkpt>
			<trkpt lat="-28.064544" lon="152.936353">
				<ele>58</ele>
				<time>2015-05-07T06:37:59Z</time>
				<extensions>
				</extensions>
			</trkpt>
			<trkpt lat="-28.064785" lon="152.936420">
				<ele>58</ele>
				<time>2015-05-07T06:38:00Z</time>
				<extensions>
				</extensions>
			</trkpt>
			<trkpt lat="-28.065056" lon="152.936489">
				<ele>59</ele>
				<time>2015-05-07T06:38:01Z</time>
				<extensions>
				</extensions>
			</trkpt>
			<trkpt lat="-28.065319" lon="152.936539">
				<ele>59</ele>
				<time>2015-05-07T06:38:02Z</time>
				<extensions>
				</extensions>
			</trkpt>
			<trkpt lat="-28.065589" lon="152.936569">
				<ele>59</ele>
				<time>2015-05-07T06:38:03Z</time>
				<extensions>
				</extensions>
			</trkpt>
			<trkpt lat="-28.065861" lon="152.936604">
				<ele>58</ele>
				<time>2015-05-07T06:38:04Z</time>
				<extensions>
				</extensions>
			</trkpt>
			<trkpt lat="-28.066128" lon="152.936614">
				<ele>59</ele>
				<time>2015-05-07T06:38:05Z</time>
				<extensions>
				</extensions>
			</trkpt>
			<trkpt lat="-28.066400" lon="152.936606">
				<ele>59</ele>
				<time>2015-05-07T06:38:06Z</time>
				<extensions>
				</extensions>
			</trkpt>
			<trkpt lat="-28.066664" lon="152.936600">
				<ele>60</ele>
				<time>2015-05-07T06:38:07Z</time>
				<extensions>
				</extensions>
			</trkpt>
			<trkpt lat="-28.066933" lon="152.936573">
				<ele>60</ele>
				<time>2015-05-07T06:38:08Z</time>
				<extensions>
				</extensions>
			</trkpt>
			<trkpt lat="-28.067201" lon="152.936534">
				<ele>60</ele>
				<time>2015-05-07T06:38:09Z</time>
				<extensions>
				</extensions>
			</trkpt>
			<trkpt lat="-28.067462" lon="152.936489">
				<ele>60</ele>
				<time>2015-05-07T06:38:10Z</time>
				<extensions>
				</extensions>
			</trkpt>
			<trkpt lat="-28.067727" lon="152.936425">
				<ele>59</ele>
				<time>2015-05-07T06:38:11Z</time>
				<extensions>
				</extensions>
			</trkpt>
			<trkpt lat="-28.067991" lon="152.936351">
				<ele>59</ele>
				<time>2015-05-07T06:38:12Z</time>
				<extensions>
				</extensions>
			</trkpt>
			<trkpt lat="-28.068251" lon="152.936266">
				<ele>59</ele>
				<time>2015-05-07T06:38:13Z</time>
				<extensions>
				</extensions>
			</trkpt>
			<trkpt lat="-28.068500" lon="152.936194">
				<ele>58</ele>
				<time>2015-05-07T06:38:14Z</time>
				<extensions>
				</extensions>
			</trkpt>
			<trkpt lat="-28.068751" lon="152.936103">
				<ele>58</ele>
				<time>2015-05-07T06:38:15Z</time>
				<extensions>
				</extensions>
			</trkpt>
			<trkpt lat="-28.069005" lon="152.936004">
				<ele>59</ele>
				<time>2015-05-07T06:38:16Z</time>
				<extensions>
				</extensions>
			</trkpt>
			<trkpt lat="-28.069256" lon="152.935915">
				<ele>59</ele>
				<time>2015-05-07T06:38:17Z</time>
				<extensions>
				</extensions>
			</trkpt>
			<trkpt lat="-28.069519" lon="152.935824">
				<ele>59</ele>
				<time>2015-05-07T06:38:18Z</time>
				<extensions>
				</extensions>
			</trkpt>
			<trkpt lat="-28.069784" lon="152.935739">
				<ele>60</ele>
				<time>2015-05-07T06:38:19Z</time>
				<extensions>
				</extensions>
			</trkpt>
			<trkpt lat="-28.070050" lon="152.935651">
				<ele>60</ele>
				<time>2015-05-07T06:38:20Z</time>
				<extensions>
				</extensions>
			</trkpt>
			<trkpt lat="-28.070308" lon="152.935582">
				<ele>61</ele>
				<time>2015-05-07T06:38:21Z</time>
				<extensions>
				</extensions>
			</trkpt>
			<trkpt lat="-28.070576" lon="152.935520">
				<ele>61</ele>
				<time>2015-05-07T06:38:22Z</time>
				<extensions>
				</extensions>
			</trkpt>
			<trkpt lat="-28.070843" lon="152.935474">
				<ele>62</ele>
				<time>2015-05-07T06:38:23Z</time>
				<extensions>
				</extensions>
			</trkpt>
			<trkpt lat="-28.071110" lon="152.935427">
				<ele>65</ele>
				<time>2015-05-07T06:38:24Z</time>
				<extensions>
				</extensions>
			</trkpt>
			<trkpt lat="-28.071383" lon="152.935395">
				<ele>61</ele>
				<time>2015-05-07T06:38:25Z</time>
				<extensions>
				</extensions>
			</trkpt>
			<trkpt lat="-28.071652" lon="152.935370">
				<ele>63</ele>
				<time>2015-05-07T06:38:26Z</time>
				<extensions>
				</extensions>
			</trkpt>
			<trkpt lat="-28.071925" lon="152.935357">
				<ele>63</ele>
				<time>2015-05-07T06:38:27Z</time>
				<extensions>
				</extensions>
			</trkpt>
			<trkpt lat="-28.072194" lon="152.935349">
				<ele>63</ele>
				<time>2015-05-07T06:38:28Z</time>
				<extensions>
				</extensions>
			</trkpt>
			<trkpt lat="-28.072461" lon="152.935371">
				<ele>61</ele>
				<time>2015-05-07T06:38:29Z</time>
				<extensions>
				</extensions>
			</trkpt>
			<trkpt lat="-28.072723" lon="152.935380">
				<ele>63</ele>
				<time>2015-05-07T06:38:30Z</time>
				<extensions>
				</extensions>
			</trkpt>
			<trkpt lat="-28.072971" lon="152.935403">
				<ele>61</ele>
				<time>2015-05-07T06:38:31Z</time>
				<extensions>
				</extensions>
			</trkpt>
			<trkpt lat="-28.073234" lon="152.935423">
				<ele>60</ele>
				<time>2015-05-07T06:38:32Z</time>
				<extensions>
				</extensions>
			</trkpt>
			<trkpt lat="-28.073490" lon="152.935432">
				<ele>60</ele>
				<time>2015-05-07T06:38:33Z</time>
				<extensions>
				</extensions>
			</trkpt>
			<trkpt lat="-28.073741" lon="152.935444">
				<ele>60</ele>
				<time>2015-05-07T06:38:34Z</time>
				<extensions>
				</extensions>
			</trkpt>
			<trkpt lat="-28.073993" lon="152.935454">
				<ele>60</ele>
				<time>2015-05-07T06:38:35Z</time>
				<extensions>
				</extensions>
			</trkpt>
			<trkpt lat="-28.074246" lon="152.935460">
				<ele>59</ele>
				<time>2015-05-07T06:38:36Z</time>
				<extensions>
				</extensions>
			</trkpt>
			<trkpt lat="-28.074496" lon="152.935471">
				<ele>59</ele>
				<time>2015-05-07T06:38:37Z</time>
				<extensions>
				</extensions>
			</trkpt>
			<trkpt lat="-28.074750" lon="152.935478">
				<ele>60</ele>
				<time>2015-05-07T06:38:38Z</time>
				<extensions>
				</extensions>
			</trkpt>
			<trkpt lat="-28.074999" lon="152.935483">
				<ele>61</ele>
				<time>2015-05-07T06:38:39Z</time>
				<extensions>
				</extensions>
			</trkpt>
			<trkpt lat="-28.075241" lon="152.935500">
				<ele>60</ele>
				<time>2015-05-07T06:38:40Z</time>
				<extensions>
				</extensions>
			</trkpt>
			<trkpt lat="-28.075486" lon="152.935513">
				<ele>59</ele>
				<time>2015-05-07T06:38:41Z</time>
				<extensions>
				</extensions>
			</trkpt>
			<trkpt lat="-28.075732" lon="152.935529">
				<ele>58</ele>
				<time>2015-05-07T06:38:42Z</time>
				<extensions>
				</extensions>
			</trkpt>
			<trkpt lat="-28.075966" lon="152.935544">
				<ele>58</ele>
				<time>2015-05-07T06:38:43Z</time>
				<extensions>
				</extensions>
			</trkpt>
			<trkpt lat="-28.076208" lon="152.935553">
				<ele>57</ele>
				<time>2015-05-07T06:38:44Z</time>
				<extensions>
				</extensions>
			</trkpt>
			<trkpt lat="-28.076452" lon="152.935568">
				<ele>57</ele>
				<time>2015-05-07T06:38:45Z</time>
				<extensions>
				</extensions>
			</trkpt>
			<trkpt lat="-28.076688" lon="152.935576">
				<ele>59</ele>
				<time>2015-05-07T06:38:46Z</time>
				<extensions>
				</extensions>
			</trkpt>
			<trkpt lat="-28.076935" lon="152.935589">
				<ele>58</ele>
				<time>2015-05-07T06:38:47Z</time>
				<extensions>
				</extensions>
			</trkpt>
			<trkpt lat="-28.077182" lon="152.935613">
				<ele>59</ele>
				<time>2015-05-07T06:38:48Z</time>
				<extensions>
				</extensions>
			</trkpt>
			<trkpt lat="-28.077437" lon="152.935629">
				<ele>60</ele>
				<time>2015-05-07T06:38:49Z</time>
				<extensions>
				</extensions>
			</trkpt>
			<trkpt lat="-28.077694" lon="152.935644">
				<ele>60</ele>
				<time>2015-05-07T06:38:50Z</time>
				<extensions>
				</extensions>
			</trkpt>
			<trkpt lat="-28.077945" lon="152.935661">
				<ele>62</ele>
				<time>2015-05-07T06:38:51Z</time>
				<extensions>
				</extensions>
			</trkpt>
			<trkpt lat="-28.078200" lon="152.935669">
				<ele>63</ele>
				<time>2015-05-07T06:38:52Z</time>
				<extensions>
				</extensions>
			</trkpt>
			<trkpt lat="-28.078455" lon="152.935677">
				<ele>63</ele>
				<time>2015-05-07T06:38:53Z</time>
				<extensions>
				</extensions>
			</trkpt>
			<trkpt lat="-28.078715" lon="152.935688">
				<ele>63</ele>
				<time>2015-05-07T06:38:54Z</time>
				<extensions>
				</extensions>
			</trkpt>
			<trkpt lat="-28.078980" lon="152.935704">
				<ele>63</ele>
				<time>2015-05-07T06:38:55Z</time>
				<extensions>
				</extensions>
			</trkpt>
			<trkpt lat="-28.079250" lon="152.935724">
				<ele>63</ele>
				<time>2015-05-07T06:38:56Z</time>
				<extensions>
				</extensions>
			</trkpt>
			<trkpt lat="-28.079518" lon="152.935738">
				<ele>64</ele>
				<time>2015-05-07T06:38:57Z</time>
				<extensions>
				</extensions>
			</trkpt>
			<trkpt lat="-28.079775" lon="152.935751">
				<ele>64</ele>
				<time>2015-05-07T06:38:58Z</time>
				<extensions>
				</extensions>
			</trkpt>
			<trkpt lat="-28.080040" lon="152.935762">
				<ele>64</ele>
				<time>2015-05-07T06:38:59Z</time>
				<extensions>
				</extensions>
			</trkpt>
			<trkpt lat="-28.080299" lon="152.935769">
				<ele>62</ele>
				<time>2015-05-07T06:39:00Z</time>
				<extensions>
				</extensions>
			</trkpt>
			<trkpt lat="-28.080564" lon="152.935779">
				<ele>62</ele>
				<time>2015-05-07T06:39:01Z</time>
				<extensions>
				</extensions>
			</trkpt>
			<trkpt lat="-28.080826" lon="152.935796">
				<ele>63</ele>
				<time>2015-05-07T06:39:02Z</time>
				<extensions>
				</extensions>
			</trkpt>
			<trkpt lat="-28.081083" lon="152.935803">
				<ele>62</ele>
				<time>2015-05-07T06:39:03Z</time>
				<extensions>
				</extensions>
			</trkpt>
			<trkpt lat="-28.081342" lon="152.935816">
				<ele>62</ele>
				<time>2015-05-07T06:39:04Z</time>
				<extensions>
				</extensions>
			</trkpt>
			<trkpt lat="-28.081591" lon="152.935838">
				<ele>62</ele>
				<time>2015-05-07T06:39:05Z</time>
				<extensions>
				</extensions>
			</trkpt>
			<trkpt lat="-28.081822" lon="152.935845">
				<ele>60</ele>
				<time>2015-05-07T06:39:06Z</time>
				<extensions>
				</extensions>
			</trkpt>
			<trkpt lat="-28.082048" lon="152.935853">
				<ele>59</ele>
				<time>2015-05-07T06:39:07Z</time>
				<extensions>
				</extensions>
			</trkpt>
			<trkpt lat="-28.082267" lon="152.935864">
				<ele>57</ele>
				<time>2015-05-07T06:39:08Z</time>
				<extensions>
				</extensions>
			</trkpt>
			<trkpt lat="-28.082466" lon="152.935879">
				<ele>55</ele>
				<time>2015-05-07T06:39:09Z</time>
				<extensions>
				</extensions>
			</trkpt>
			<trkpt lat="-28.082656" lon="152.935891">
				<ele>56</ele>
				<time>2015-05-07T06:39:10Z</time>
				<extensions>
				</extensions>
			</trkpt>
			<trkpt lat="-28.082852" lon="152.935896">
				<ele>54</ele>
				<time>2015-05-07T06:39:11Z</time>
				<extensions>
				</extensions>
			</trkpt>
			<trkpt lat="-28.083213" lon="152.935919">
				<ele>54</ele>
				<time>2015-05-07T06:39:13Z</time>
				<extensions>
				</extensions>
			</trkpt>
			<trkpt lat="-28.083585" lon="152.935932">
				<ele>56</ele>
				<time>2015-05-07T06:39:15Z</time>
				<extensions>
				</extensions>
			</trkpt>
			<trkpt lat="-28.083789" lon="152.935937">
				<ele>57</ele>
				<time>2015-05-07T06:39:16Z</time>
				<extensions>
				</extensions>
			</trkpt>
			<trkpt lat="-28.083996" lon="152.935945">
				<ele>59</ele>
				<time>2015-05-07T06:39:17Z</time>
				<extensions>
				</extensions>
			</trkpt>
			<trkpt lat="-28.084201" lon="152.935948">
				<ele>60</ele>
				<time>2015-05-07T06:39:18Z</time>
				<extensions>
				</extensions>
			</trkpt>
			<trkpt lat="-28.084396" lon="152.935974">
				<ele>60</ele>
				<time>2015-05-07T06:39:19Z</time>
				<extensions>
				</extensions>
			</trkpt>
			<trkpt lat="-28.084600" lon="152.935992">
				<ele>59</ele>
				<time>2015-05-07T06:39:20Z</time>
				<extensions>
				</extensions>
			</trkpt>
			<trkpt lat="-28.084806" lon="152.936003">
				<ele>60</ele>
				<time>2015-05-07T06:39:21Z</time>
				<extensions>
				</extensions>
			</trkpt>
			<trkpt lat="-28.085006" lon="152.936014">
				<ele>59</ele>
				<time>2015-05-07T06:39:22Z</time>
				<extensions>
				</extensions>
			</trkpt>
			<trkpt lat="-28.085193" lon="152.936025">
				<ele>59</ele>
				<time>2015-05-07T06:39:23Z</time>
				<extensions>
				</extensions>
			</trkpt>
			<trkpt lat="-28.085393" lon="152.936036">
				<ele>59</ele>
				<time>2015-05-07T06:39:24Z</time>
				<extensions>
				</extensions>
			</trkpt>
			<trkpt lat="-28.085589" lon="152.936040">
				<ele>59</ele>
				<time>2015-05-07T06:39:25Z</time>
				<extensions>
				</extensions>
			</trkpt>
			<trkpt lat="-28.085785" lon="152.936043">
				<ele>58</ele>
				<time>2015-05-07T06:39:26Z</time>
				<extensions>
				</extensions>
			</trkpt>
			<trkpt lat="-28.085988" lon="152.936061">
				<ele>56</ele>
				<time>2015-05-07T06:39:27Z</time>
				<extensions>
				</extensions>
			</trkpt>
			<trkpt lat="-28.086181" lon="152.936059">
				<ele>57</ele>
				<time>2015-05-07T06:39:28Z</time>
				<extensions>
				</extensions>
			</trkpt>
			<trkpt lat="-28.086375" lon="152.936062">
				<ele>56</ele>
				<time>2015-05-07T06:39:29Z</time>
				<extensions>
				</extensions>
			</trkpt>
			<trkpt lat="-28.086565" lon="152.936065">
				<ele>56</ele>
				<time>2015-05-07T06:39:30Z</time>
				<extensions>
				</extensions>
			</trkpt>
			<trkpt lat="-28.086930" lon="152.936082">
				<ele>54</ele>
				<time>2015-05-07T06:39:32Z</time>
				<extensions>
				</extensions>
			</trkpt>
			<trkpt lat="-28.087248" lon="152.936118">
				<ele>49</ele>
				<time>2015-05-07T06:39:34Z</time>
				<extensions>
				</extensions>
			</trkpt>
			<trkpt lat="-28.087508" lon="152.936135">
				<ele>45</ele>
				<time>2015-05-07T06:39:36Z</time>
				<extensions>
				</extensions>
			</trkpt>
			<trkpt lat="-28.087783" lon="152.936149">
				<ele>44</ele>
				<time>2015-05-07T06:39:38Z</time>
				<extensions>
				</extensions>
			</trkpt>
			<trkpt lat="-28.088097" lon="152.936159">
				<ele>46</ele>
				<time>2015-05-07T06:39:40Z</time>
				<extensions>
				</extensions>
			</trkpt>
			<trkpt lat="-28.088439" lon="152.936166">
				<ele>48</ele>
				<time>2015-05-07T06:39:42Z</time>
				<extensions>
				</extensions>
			</trkpt>
			<trkpt lat="-28.088622" lon="152.936179">
				<ele>49</ele>
				<time>2015-05-07T06:39:43Z</time>
				<extensions>
				</extensions>
			</trkpt>
			<trkpt lat="-28.088804" lon="152.936192">
				<ele>50</ele>
				<time>2015-05-07T06:39:44Z</time>
				<extensions>
				</extensions>
			</trkpt>
			<trkpt lat="-28.089001" lon="152.936201">
				<ele>50</ele>
				<time>2015-05-07T06:39:45Z</time>
				<extensions>
				</extensions>
			</trkpt>
			<trkpt lat="-28.089196" lon="152.936206">
				<ele>51</ele>
				<time>2015-05-07T06:39:46Z</time>
				<extensions>
				</extensions>
			</trkpt>
			<trkpt lat="-28.089384" lon="152.936204">
				<ele>51</ele>
				<time>2015-05-07T06:39:47Z</time>
				<extensions>
				</extensions>
			</trkpt>
			<trkpt lat="-28.089578" lon="152.936211">
				<ele>51</ele>
				<time>2015-05-07T06:39:48Z</time>
				<extensions>
				</extensions>
			</trkpt>
			<trkpt lat="-28.089778" lon="152.936219">
				<ele>52</ele>
				<time>2015-05-07T06:39:49Z</time>
				<extensions>
				</extensions>
			</trkpt>
			<trkpt lat="-28.089980" lon="152.936240">
				<ele>52</ele>
				<time>2015-05-07T06:39:50Z</time>
				<extensions>
				</extensions>
			</trkpt>
			<trkpt lat="-28.090184" lon="152.936255">
				<ele>53</ele>
				<time>2015-05-07T06:39:51Z</time>
				<extensions>
				</extensions>
			</trkpt>
			<trkpt lat="-28.090393" lon="152.936282">
				<ele>54</ele>
				<time>2015-05-07T06:39:52Z</time>
				<extensions>
				</extensions>
			</trkpt>
			<trkpt lat="-28.090601" lon="152.936303">
				<ele>54</ele>
				<time>2015-05-07T06:39:53Z</time>
				<extensions>
				</extensions>
			</trkpt>
			<trkpt lat="-28.090815" lon="152.936330">
				<ele>54</ele>
				<time>2015-05-07T06:39:54Z</time>
				<extensions>
				</extensions>
			</trkpt>
			<trkpt lat="-28.091030" lon="152.936363">
				<ele>55</ele>
				<time>2015-05-07T06:39:55Z</time>
				<extensions>
				</extensions>
			</trkpt>
			<trkpt lat="-28.091238" lon="152.936395">
				<ele>55</ele>
				<time>2015-05-07T06:39:56Z</time>
				<extensions>
				</extensions>
			</trkpt>
			<trkpt lat="-28.091449" lon="152.936429">
				<ele>54</ele>
				<time>2015-05-07T06:39:57Z</time>
				<extensions>
				</extensions>
			</trkpt>
			<trkpt lat="-28.091654" lon="152.936465">
				<ele>55</ele>
				<time>2015-05-07T06:39:58Z</time>
				<extensions>
				</extensions>
			</trkpt>
			<trkpt lat="-28.091868" lon="152.936509">
				<ele>55</ele>
				<time>2015-05-07T06:39:59Z</time>
				<extensions>
				</extensions>
			</trkpt>
			<trkpt lat="-28.092078" lon="152.936543">
				<ele>56</ele>
				<time>2015-05-07T06:40:00Z</time>
				<extensions>
				</extensions>
			</trkpt>
			<trkpt lat="-28.092280" lon="152.936582">
				<ele>55</ele>
				<time>2015-05-07T06:40:01Z</time>
				<extensions>
				</extensions>
			</trkpt>
			<trkpt lat="-28.092481" lon="152.936620">
				<ele>56</ele>
				<time>2015-05-07T06:40:02Z</time>
				<extensions>
				</extensions>
			</trkpt>
			<trkpt lat="-28.092669" lon="152.936675">
				<ele>55</ele>
				<time>2015-05-07T06:40:03Z</time>
				<extensions>
				</extensions>
			</trkpt>
			<trkpt lat="-28.092860" lon="152.936735">
				<ele>55</ele>
				<time>2015-05-07T06:40:04Z</time>
				<extensions>
				</extensions>
			</trkpt>
			<trkpt lat="-28.093050" lon="152.936817">
				<ele>55</ele>
				<time>2015-05-07T06:40:05Z</time>
				<extensions>
				</extensions>
			</trkpt>
			<trkpt lat="-28.093225" lon="152.936909">
				<ele>55</ele>
				<time>2015-05-07T06:40:06Z</time>
				<extensions>
				</extensions>
			</trkpt>
			<trkpt lat="-28.093401" lon="152.937026">
				<ele>55</ele>
				<time>2015-05-07T06:40:07Z</time>
				<extensions>
				</extensions>
			</trkpt>
			<trkpt lat="-28.093567" lon="152.937151">
				<ele>54</ele>
				<time>2015-05-07T06:40:08Z</time>
				<extensions>
				</extensions>
			</trkpt>
			<trkpt lat="-28.093729" lon="152.937287">
				<ele>54</ele>
				<time>2015-05-07T06:40:09Z</time>
				<extensions>
				</extensions>
			</trkpt>
			<trkpt lat="-28.093891" lon="152.937417">
				<ele>54</ele>
				<time>2015-05-07T06:40:10Z</time>
				<extensions>
				</extensions>
			</trkpt>
			<trkpt lat="-28.094053" lon="152.937550">
				<ele>54</ele>
				<time>2015-05-07T06:40:11Z</time>
				<extensions>
				</extensions>
			</trkpt>
			<trkpt lat="-28.094223" lon="152.937682">
				<ele>56</ele>
				<time>2015-05-07T06:40:12Z</time>
				<extensions>
				</extensions>
			</trkpt>
			<trkpt lat="-28.094392" lon="152.937821">
				<ele>56</ele>
				<time>2015-05-07T06:40:13Z</time>
				<extensions>
				</extensions>
			</trkpt>
			<trkpt lat="-28.094550" lon="152.937953">
				<ele>56</ele>
				<time>2015-05-07T06:40:14Z</time>
				<extensions>
				</extensions>
			</trkpt>
			<trkpt lat="-28.094698" lon="152.938078">
				<ele>56</ele>
				<time>2015-05-07T06:40:15Z</time>
				<extensions>
				</extensions>
			</trkpt>
			<trkpt lat="-28.094867" lon="152.938214">
				<ele>56</ele>
				<time>2015-05-07T06:40:16Z</time>
				<extensions>
				</extensions>
			</trkpt>
			<trkpt lat="-28.095038" lon="152.938353">
				<ele>56</ele>
				<time>2015-05-07T06:40:17Z</time>
				<extensions>
				</extensions>
			</trkpt>
			<trkpt lat="-28.095210" lon="152.938483">
				<ele>55</ele>
				<time>2015-05-07T06:40:18Z</time>
				<extensions>
				</extensions>
			</trkpt>
			<trkpt lat="-28.095372" lon="152.938595">
				<ele>54</ele>
				<time>2015-05-07T06:40:19Z</time>
				<extensions>
				</extensions>
			</trkpt>
			<trkpt lat="-28.095556" lon="152.938706">
				<ele>53</ele>
				<time>2015-05-07T06:40:20Z</time>
				<extensions>
				</extensions>
			</trkpt>
			<trkpt lat="-28.095751" lon="152.938808">
				<ele>53</ele>
				<time>2015-05-07T06:40:21Z</time>
				<extensions>
				</extensions>
			</trkpt>
			<trkpt lat="-28.095949" lon="152.938903">
				<ele>54</ele>
				<time>2015-05-07T06:40:22Z</time>
				<extensions>
				</extensions>
			</trkpt>
			<trkpt lat="-28.096137" lon="152.938978">
				<ele>54</ele>
				<time>2015-05-07T06:40:23Z</time>
				<extensions>
				</extensions>
			</trkpt>
			<trkpt lat="-28.096337" lon="152.939070">
				<ele>55</ele>
				<time>2015-05-07T06:40:24Z</time>
				<extensions>
				</extensions>
			</trkpt>
			<trkpt lat="-28.096535" lon="152.939153">
				<ele>55</ele>
				<time>2015-05-07T06:40:25Z</time>
				<extensions>
				</extensions>
			</trkpt>
			<trkpt lat="-28.096752" lon="152.939256">
				<ele>57</ele>
				<time>2015-05-07T06:40:26Z</time>
				<extensions>
				</extensions>
			</trkpt>
			<trkpt lat="-28.096982" lon="152.939364">
				<ele>57</ele>
				<time>2015-05-07T06:40:27Z</time>
				<extensions>
				</extensions>
			</trkpt>
			<trkpt lat="-28.097218" lon="152.939469">
				<ele>60</ele>
				<time>2015-05-07T06:40:28Z</time>
				<extensions>
				</extensions>
			</trkpt>
			<trkpt lat="-28.097450" lon="152.939581">
				<ele>61</ele>
				<time>2015-05-07T06:40:29Z</time>
				<extensions>
				</extensions>
			</trkpt>
			<trkpt lat="-28.097691" lon="152.939686">
				<ele>63</ele>
				<time>2015-05-07T06:40:30Z</time>
				<extensions>
				</extensions>
			</trkpt>
			<trkpt lat="-28.097936" lon="152.939799">
				<ele>64</ele>
				<time>2015-05-07T06:40:31Z</time>
				<extensions>
				</extensions>
			</trkpt>
			<trkpt lat="-28.098179" lon="152.939910">
				<ele>65</ele>
				<time>2015-05-07T06:40:32Z</time>
				<extensions>
				</extensions>
			</trkpt>
			<trkpt lat="-28.098423" lon="152.940028">
				<ele>65</ele>
				<time>2015-05-07T06:40:33Z</time>
				<extensions>
				</extensions>
			</trkpt>
			<trkpt lat="-28.098667" lon="152.940136">
				<ele>66</ele>
				<time>2015-05-07T06:40:34Z</time>
				<extensions>
				</extensions>
			</trkpt>
			<trkpt lat="-28.098915" lon="152.940245">
				<ele>66</ele>
				<time>2015-05-07T06:40:35Z</time>
				<extensions>
				</extensions>
			</trkpt>
			<trkpt lat="-28.099163" lon="152.940354">
				<ele>65</ele>
				<time>2015-05-07T06:40:36Z</time>
				<extensions>
				</extensions>
			</trkpt>
			<trkpt lat="-28.099411" lon="152.940468">
				<ele>65</ele>
				<time>2015-05-07T06:40:37Z</time>
				<extensions>
				</extensions>
			</trkpt>
			<trkpt lat="-28.099663" lon="152.940587">
				<ele>66</ele>
				<time>2015-05-07T06:40:38Z</time>
				<extensions>
				</extensions>
			</trkpt>
			<trkpt lat="-28.099910" lon="152.940704">
				<ele>66</ele>
				<time>2015-05-07T06:40:39Z</time>
				<extensions>
				</extensions>
			</trkpt>
			<trkpt lat="-28.100155" lon="152.940805">
				<ele>66</ele>
				<time>2015-05-07T06:40:40Z</time>
				<extensions>
				</extensions>
			</trkpt>
			<trkpt lat="-28.100410" lon="152.940916">
				<ele>66</ele>
				<time>2015-05-07T06:40:41Z</time>
				<extensions>
				</extensions>
			</trkpt>
			<trkpt lat="-28.100667" lon="152.941029">
				<ele>69</ele>
				<time>2015-05-07T06:40:42Z</time>
				<extensions>
				</extensions>
			</trkpt>
			<trkpt lat="-28.100920" lon="152.941143">
				<ele>69</ele>
				<time>2015-05-07T06:40:43Z</time>
				<extensions>
				</extensions>
			</trkpt>
			<trkpt lat="-28.101176" lon="152.941255">
				<ele>69</ele>
				<time>2015-05-07T06:40:44Z</time>
				<extensions>
				</extensions>
			</trkpt>
			<trkpt lat="-28.101440" lon="152.941368">
				<ele>69</ele>
				<time>2015-05-07T06:40:45Z</time>
				<extensions>
				</extensions>
			</trkpt>
			<trkpt lat="-28.101696" lon="152.941475">
				<ele>68</ele>
				<time>2015-05-07T06:40:46Z</time>
				<extensions>
				</extensions>
			</trkpt>
			<trkpt lat="-28.101953" lon="152.941592">
				<ele>69</ele>
				<time>2015-05-07T06:40:47Z</time>
				<extensions>
				</extensions>
			</trkpt>
			<trkpt lat="-28.102210" lon="152.941713">
				<ele>69</ele>
				<time>2015-05-07T06:40:48Z</time>
				<extensions>
				</extensions>
			</trkpt>
			<trkpt lat="-28.102459" lon="152.941827">
				<ele>68</ele>
				<time>2015-05-07T06:40:49Z</time>
				<extensions>
				</extensions>
			</trkpt>
			<trkpt lat="-28.102708" lon="152.941940">
				<ele>67</ele>
				<time>2015-05-07T06:40:50Z</time>
				<extensions>
				</extensions>
			</trkpt>
			<trkpt lat="-28.102949" lon="152.942056">
				<ele>67</ele>
				<time>2015-05-07T06:40:51Z</time>
				<extensions>
				</extensions>
			</trkpt>
			<trkpt lat="-28.103189" lon="152.942182">
				<ele>66</ele>
				<time>2015-05-07T06:40:52Z</time>
				<extensions>
				</extensions>
			</trkpt>
			<trkpt lat="-28.103428" lon="152.942312">
				<ele>67</ele>
				<time>2015-05-07T06:40:53Z</time>
				<extensions>
				</extensions>
			</trkpt>
			<trkpt lat="-28.103652" lon="152.942447">
				<ele>66</ele>
				<time>2015-05-07T06:40:54Z</time>
				<extensions>
				</extensions>
			</trkpt>
			<trkpt lat="-28.103886" lon="152.942583">
				<ele>65</ele>
				<time>2015-05-07T06:40:55Z</time>
				<extensions>
				</extensions>
			</trkpt>
			<trkpt lat="-28.104123" lon="152.942722">
				<ele>67</ele>
				<time>2015-05-07T06:40:56Z</time>
				<extensions>
				</extensions>
			</trkpt>
			<trkpt lat="-28.104354" lon="152.942855">
				<ele>66</ele>
				<time>2015-05-07T06:40:57Z</time>
				<extensions>
				</extensions>
			</trkpt>
			<trkpt lat="-28.104590" lon="152.942999">
				<ele>67</ele>
				<time>2015-05-07T06:40:58Z</time>
				<extensions>
				</extensions>
			</trkpt>
			<trkpt lat="-28.104837" lon="152.943150">
				<ele>67</ele>
				<time>2015-05-07T06:40:59Z</time>
				<extensions>
				</extensions>
			</trkpt>
			<trkpt lat="-28.105083" lon="152.943289">
				<ele>68</ele>
				<time>2015-05-07T06:41:00Z</time>
				<extensions>
				</extensions>
			</trkpt>
			<trkpt lat="-28.105320" lon="152.943436">
				<ele>69</ele>
				<time>2015-05-07T06:41:01Z</time>
				<extensions>
				</extensions>
			</trkpt>
			<trkpt lat="-28.105568" lon="152.943587">
				<ele>69</ele>
				<time>2015-05-07T06:41:02Z</time>
				<extensions>
				</extensions>
			</trkpt>
			<trkpt lat="-28.105809" lon="152.943732">
				<ele>69</ele>
				<time>2015-05-07T06:41:03Z</time>
				<extensions>
				</extensions>
			</trkpt>
			<trkpt lat="-28.106048" lon="152.943875">
				<ele>69</ele>
				<time>2015-05-07T06:41:04Z</time>
				<extensions>
				</extensions>
			</trkpt>
			<trkpt lat="-28.106295" lon="152.944019">
				<ele>69</ele>
				<time>2015-05-07T06:41:05Z</time>
				<extensions>
				</extensions>
			</trkpt>
			<trkpt lat="-28.106538" lon="152.944169">
				<ele>69</ele>
				<time>2015-05-07T06:41:06Z</time>
				<extensions>
				</extensions>
			</trkpt>
			<trkpt lat="-28.106777" lon="152.944316">
				<ele>69</ele>
				<time>2015-05-07T06:41:07Z</time>
				<extensions>
				</extensions>
			</trkpt>
			<trkpt lat="-28.107020" lon="152.944462">
				<ele>69</ele>
				<time>2015-05-07T06:41:08Z</time>
				<extensions>
				</extensions>
			</trkpt>
			<trkpt lat="-28.107257" lon="152.944605">
				<ele>68</ele>
				<time>2015-05-07T06:41:09Z</time>
				<extensions>
				</extensions>
			</trkpt>
			<trkpt lat="-28.107498" lon="152.944749">
				<ele>69</ele>
				<time>2015-05-07T06:41:10Z</time>
				<extensions>
				</extensions>
			</trkpt>
			<trkpt lat="-28.107751" lon="152.944889">
				<ele>68</ele>
				<time>2015-05-07T06:41:11Z</time>
				<extensions>
				</extensions>
			</trkpt>
			<trkpt lat="-28.107998" lon="152.945026">
				<ele>68</ele>
				<time>2015-05-07T06:41:12Z</time>
				<extensions>
				</extensions>
			</trkpt>
			<trkpt lat="-28.108247" lon="152.945143">
				<ele>67</ele>
				<time>2015-05-07T06:41:13Z</time>
				<extensions>
				</extensions>
			</trkpt>
			<trkpt lat="-28.108504" lon="152.945250">
				<ele>67</ele>
				<time>2015-05-07T06:41:14Z</time>
				<extensions>
				</extensions>
			</trkpt>
			<trkpt lat="-28.108758" lon="152.945347">
				<ele>69</ele>
				<time>2015-05-07T06:41:15Z</time>
				<extensions>
				</extensions>
			</trkpt>
			<trkpt lat="-28.109020" lon="152.945454">
				<ele>69</ele>
				<time>2015-05-07T06:41:16Z</time>
				<extensions>
				</extensions>
			</trkpt>
			<trkpt lat="-28.109284" lon="152.945561">
				<ele>70</ele>
				<time>2015-05-07T06:41:17Z</time>
				<extensions>
				</extensions>
			</trkpt>
			<trkpt lat="-28.109551" lon="152.945677">
				<ele>70</ele>
				<time>2015-05-07T06:41:18Z</time>
				<extensions>
				</extensions>
			</trkpt>
			<trkpt lat="-28.109812" lon="152.945789">
				<ele>71</ele>
				<time>2015-05-07T06:41:19Z</time>
				<extensions>
				</extensions>
			</trkpt>
			<trkpt lat="-28.110088" lon="152.945897">
				<ele>70</ele>
				<time>2015-05-07T06:41:20Z</time>
				<extensions>
				</extensions>
			</trkpt>
			<trkpt lat="-28.110323" lon="152.945999">
				<ele>69</ele>
				<time>2015-05-07T06:41:21Z</time>
				<extensions>
				</extensions>
			</trkpt>
			<trkpt lat="-28.110558" lon="152.946097">
				<ele>69</ele>
				<time>2015-05-07T06:41:22Z</time>
				<extensions>
				</extensions>
			</trkpt>
			<trkpt lat="-28.110781" lon="152.946191">
				<ele>67</ele>
				<time>2015-05-07T06:41:23Z</time>
				<extensions>
				</extensions>
			</trkpt>
			<trkpt lat="-28.111016" lon="152.946285">
				<ele>67</ele>
				<time>2015-05-07T06:41:24Z</time>
				<extensions>
				</extensions>
			</trkpt>
			<trkpt lat="-28.111238" lon="152.946387">
				<ele>65</ele>
				<time>2015-05-07T06:41:25Z</time>
				<extensions>
				</extensions>
			</trkpt>
			<trkpt lat="-28.111445" lon="152.946507">
				<ele>64</ele>
				<time>2015-05-07T06:41:26Z</time>
				<extensions>
				</extensions>
			</trkpt>
			<trkpt lat="-28.111654" lon="152.946641">
				<ele>64</ele>
				<time>2015-05-07T06:41:27Z</time>
				<extensions>
				</extensions>
			</trkpt>
			<trkpt lat="-28.111850" lon="152.946805">
				<ele>65</ele>
				<time>2015-05-07T06:41:28Z</time>
				<extensions>
				</extensions>
			</trkpt>
			<trkpt lat="-28.112062" lon="152.946986">
				<ele>65</ele>
				<time>2015-05-07T06:41:29Z</time>
				<extensions>
				</extensions>
			</trkpt>
			<trkpt lat="-28.112266" lon="152.947176">
				<ele>67</ele>
				<time>2015-05-07T06:41:30Z</time>
				<extensions>
				</extensions>
			</trkpt>
			<trkpt lat="-28.112465" lon="152.947365">
				<ele>69</ele>
				<time>2015-05-07T06:41:31Z</time>
				<extensions>
				</extensions>
			</trkpt>
			<trkpt lat="-28.112687" lon="152.947562">
				<ele>69</ele>
				<time>2015-05-07T06:41:32Z</time>
				<extensions>
				</extensions>
			</trkpt>
			<trkpt lat="-28.112898" lon="152.947748">
				<ele>69</ele>
				<time>2015-05-07T06:41:33Z</time>
				<extensions>
				</extensions>
			</trkpt>
			<trkpt lat="-28.113111" lon="152.947946">
				<ele>69</ele>
				<time>2015-05-07T06:41:34Z</time>
				<extensions>
				</extensions>
			</trkpt>
			<trkpt lat="-28.113322" lon="152.948140">
				<ele>69</ele>
				<time>2015-05-07T06:41:35Z</time>
				<extensions>
				</extensions>
			</trkpt>
			<trkpt lat="-28.113532" lon="152.948339">
				<ele>69</ele>
				<time>2015-05-07T06:41:36Z</time>
				<extensions>
				</extensions>
			</trkpt>
			<trkpt lat="-28.113721" lon="152.948521">
				<ele>69</ele>
				<time>2015-05-07T06:41:37Z</time>
				<extensions>
				</extensions>
			</trkpt>
			<trkpt lat="-28.113853" lon="152.948685">
				<ele>70</ele>
				<time>2015-05-07T06:41:38Z</time>
				<extensions>
				</extensions>
			</trkpt>
			<trkpt lat="-28.114044" lon="152.948867">
				<ele>70</ele>
				<time>2015-05-07T06:41:39Z</time>
				<extensions>
				</extensions>
			</trkpt>
			<trkpt lat="-28.114239" lon="152.949066">
				<ele>69</ele>
				<time>2015-05-07T06:41:40Z</time>
				<extensions>
				</extensions>
			</trkpt>
			<trkpt lat="-28.114444" lon="152.949253">
				<ele>70</ele>
				<time>2015-05-07T06:41:41Z</time>
				<extensions>
				</extensions>
			</trkpt>
			<trkpt lat="-28.114670" lon="152.949443">
				<ele>71</ele>
				<time>2015-05-07T06:41:42Z</time>
				<extensions>
				</extensions>
			</trkpt>
			<trkpt lat="-28.114867" lon="152.949635">
				<ele>72</ele>
				<time>2015-05-07T06:41:43Z</time>
				<extensions>
				</extensions>
			</trkpt>
			<trkpt lat="-28.115024" lon="152.949879">
				<ele>72</ele>
				<time>2015-05-07T06:41:44Z</time>
				<extensions>
				</extensions>
			</trkpt>
			<trkpt lat="-28.115168" lon="152.950085">
				<ele>73</ele>
				<time>2015-05-07T06:41:45Z</time>
				<extensions>
				</extensions>
			</trkpt>
			<trkpt lat="-28.115306" lon="152.950301">
				<ele>72</ele>
				<time>2015-05-07T06:41:46Z</time>
				<extensions>
				</extensions>
			</trkpt>
			<trkpt lat="-28.115445" lon="152.950522">
				<ele>73</ele>
				<time>2015-05-07T06:41:47Z</time>
				<extensions>
				</extensions>
			</trkpt>
			<trkpt lat="-28.115588" lon="152.950752">
				<ele>74</ele>
				<time>2015-05-07T06:41:48Z</time>
				<extensions>
				</extensions>
			</trkpt>
			<trkpt lat="-28.115740" lon="152.950982">
				<ele>75</ele>
				<time>2015-05-07T06:41:49Z</time>
				<extensions>
				</extensions>
			</trkpt>
			<trkpt lat="-28.115885" lon="152.951223">
				<ele>76</ele>
				<time>2015-05-07T06:41:50Z</time>
				<extensions>
				</extensions>
			</trkpt>
			<trkpt lat="-28.116028" lon="152.951448">
				<ele>75</ele>
				<time>2015-05-07T06:41:51Z</time>
				<extensions>
				</extensions>
			</trkpt>
			<trkpt lat="-28.116175" lon="152.951677">
				<ele>74</ele>
				<time>2015-05-07T06:41:52Z</time>
				<extensions>
				</extensions>
			</trkpt>
			<trkpt lat="-28.116325" lon="152.951891">
				<ele>74</ele>
				<time>2015-05-07T06:41:53Z</time>
				<extensions>
				</extensions>
			</trkpt>
			<trkpt lat="-28.116463" lon="152.952107">
				<ele>73</ele>
				<time>2015-05-07T06:41:54Z</time>
				<extensions>
				</extensions>
			</trkpt>
			<trkpt lat="-28.116602" lon="152.952320">
				<ele>72</ele>
				<time>2015-05-07T06:41:55Z</time>
				<extensions>
				</extensions>
			</trkpt>
			<trkpt lat="-28.116730" lon="152.952524">
				<ele>72</ele>
				<time>2015-05-07T06:41:56Z</time>
				<extensions>
				</extensions>
			</trkpt>
			<trkpt lat="-28.116850" lon="152.952719">
				<ele>70</ele>
				<time>2015-05-07T06:41:57Z</time>
				<extensions>
				</extensions>
			</trkpt>
			<trkpt lat="-28.116975" lon="152.952909">
				<ele>69</ele>
				<time>2015-05-07T06:41:58Z</time>
				<extensions>
				</extensions>
			</trkpt>
			<trkpt lat="-28.117090" lon="152.953093">
				<ele>67</ele>
				<time>2015-05-07T06:41:59Z</time>
				<extensions>
				</extensions>
			</trkpt>
			<trkpt lat="-28.117207" lon="152.953268">
				<ele>64</ele>
				<time>2015-05-07T06:42:00Z</time>
				<extensions>
				</extensions>
			</trkpt>
			<trkpt lat="-28.117330" lon="152.953457">
				<ele>62</ele>
				<time>2015-05-07T06:42:01Z</time>
				<extensions>
				</extensions>
			</trkpt>
			<trkpt lat="-28.117456" lon="152.953637">
				<ele>61</ele>
				<time>2015-05-07T06:42:02Z</time>
				<extensions>
				</extensions>
			</trkpt>
			<trkpt lat="-28.117589" lon="152.953796">
				<ele>60</ele>
				<time>2015-05-07T06:42:03Z</time>
				<extensions>
				</extensions>
			</trkpt>
			<trkpt lat="-28.117726" lon="152.953937">
				<ele>60</ele>
				<time>2015-05-07T06:42:04Z</time>
				<extensions>
				</extensions>
			</trkpt>
			<trkpt lat="-28.118021" lon="152.954163">
				<ele>61</ele>
				<time>2015-05-07T06:42:06Z</time>
				<extensions>
				</extensions>
			</trkpt>
			<trkpt lat="-28.118336" lon="152.954322">
				<ele>60</ele>
				<time>2015-05-07T06:42:08Z</time>
				<extensions>
				</extensions>
			</trkpt>
			<trkpt lat="-28.118688" lon="152.954434">
				<ele>60</ele>
				<time>2015-05-07T06:42:10Z</time>
				<extensions>
				</extensions>
			</trkpt>
			<trkpt lat="-28.118884" lon="152.954479">
				<ele>62</ele>
				<time>2015-05-07T06:42:11Z</time>
				<extensions>
				</extensions>
			</trkpt>
			<trkpt lat="-28.119084" lon="152.954524">
				<ele>64</ele>
				<time>2015-05-07T06:42:12Z</time>
				<extensions>
				</extensions>
			</trkpt>
			<trkpt lat="-28.119296" lon="152.954573">
				<ele>66</ele>
				<time>2015-05-07T06:42:13Z</time>
				<extensions>
				</extensions>
			</trkpt>
			<trkpt lat="-28.119514" lon="152.954620">
				<ele>68</ele>
				<time>2015-05-07T06:42:14Z</time>
				<extensions>
				</extensions>
			</trkpt>
			<trkpt lat="-28.119735" lon="152.954665">
				<ele>69</ele>
				<time>2015-05-07T06:42:15Z</time>
				<extensions>
				</extensions>
			</trkpt>
			<trkpt lat="-28.119957" lon="152.954719">
				<ele>72</ele>
				<time>2015-05-07T06:42:16Z</time>
				<extensions>
				</extensions>
			</trkpt>
			<trkpt lat="-28.120175" lon="152.954764">
				<ele>74</ele>
				<time>2015-05-07T06:42:17Z</time>
				<extensions>
				</extensions>
			</trkpt>
			<trkpt lat="-28.120395" lon="152.954807">
				<ele>75</ele>
				<time>2015-05-07T06:42:18Z</time>
				<extensions>
				</extensions>
			</trkpt>
			<trkpt lat="-28.120609" lon="152.954850">
				<ele>75</ele>
				<time>2015-05-07T06:42:19Z</time>
				<extensions>
				</extensions>
			</trkpt>
			<trkpt lat="-28.120810" lon="152.954895">
				<ele>76</ele>
				<time>2015-05-07T06:42:20Z</time>
				<extensions>
				</extensions>
			</trkpt>
			<trkpt lat="-28.121011" lon="152.954939">
				<ele>75</ele>
				<time>2015-05-07T06:42:21Z</time>
				<extensions>
				</extensions>
			</trkpt>
			<trkpt lat="-28.121215" lon="152.954981">
				<ele>74</ele>
				<time>2015-05-07T06:42:22Z</time>
				<extensions>
				</extensions>
			</trkpt>
			<trkpt lat="-28.121421" lon="152.955023">
				<ele>73</ele>
				<time>2015-05-07T06:42:23Z</time>
				<extensions>
				</extensions>
			</trkpt>
			<trkpt lat="-28.121632" lon="152.955066">
				<ele>72</ele>
				<time>2015-05-07T06:42:24Z</time>
				<extensions>
				</extensions>
			</trkpt>
			<trkpt lat="-28.121845" lon="152.955105">
				<ele>71</ele>
				<time>2015-05-07T06:42:25Z</time>
				<extensions>
				</extensions>
			</trkpt>
			<trkpt lat="-28.122054" lon="152.955143">
				<ele>69</ele>
				<time>2015-05-07T06:42:26Z</time>
				<extensions>
				</extensions>
			</trkpt>
			<trkpt lat="-28.122268" lon="152.955188">
				<ele>68</ele>
				<time>2015-05-07T06:42:27Z</time>
				<extensions>
				</extensions>
			</trkpt>
			<trkpt lat="-28.122483" lon="152.955244">
				<ele>68</ele>
				<time>2015-05-07T06:42:28Z</time>
				<extensions>
				</extensions>
			</trkpt>
			<trkpt lat="-28.122694" lon="152.955320">
				<ele>68</ele>
				<time>2015-05-07T06:42:29Z</time>
				<extensions>
				</extensions>
			</trkpt>
			<trkpt lat="-28.122898" lon="152.955400">
				<ele>66</ele>
				<time>2015-05-07T06:42:30Z</time>
				<extensions>
				</extensions>
			</trkpt>
			<trkpt lat="-28.123111" lon="152.955494">
				<ele>64</ele>
				<time>2015-05-07T06:42:31Z</time>
				<extensions>
				</extensions>
			</trkpt>
			<trkpt lat="-28.123324" lon="152.955598">
				<ele>64</ele>
				<time>2015-05-07T06:42:32Z</time>
				<extensions>
				</extensions>
			</trkpt>
			<trkpt lat="-28.123534" lon="152.955698">
				<ele>64</ele>
				<time>2015-05-07T06:42:33Z</time>
				<extensions>
				</extensions>
			</trkpt>
			<trkpt lat="-28.123751" lon="152.955808">
				<ele>65</ele>
				<time>2015-05-07T06:42:34Z</time>
				<extensions>
				</extensions>
			</trkpt>
			<trkpt lat="-28.123975" lon="152.955924">
				<ele>66</ele>
				<time>2015-05-07T06:42:35Z</time>
				<extensions>
				</extensions>
			</trkpt>
			<trkpt lat="-28.124196" lon="152.956038">
				<ele>68</ele>
				<time>2015-05-07T06:42:36Z</time>
				<extensions>
				</extensions>
			</trkpt>
			<trkpt lat="-28.124426" lon="152.956155">
				<ele>69</ele>
				<time>2015-05-07T06:42:37Z</time>
				<extensions>
				</extensions>
			</trkpt>
			<trkpt lat="-28.124652" lon="152.956270">
				<ele>70</ele>
				<time>2015-05-07T06:42:38Z</time>
				<extensions>
				</extensions>
			</trkpt>
			<trkpt lat="-28.124871" lon="152.956388">
				<ele>70</ele>
				<time>2015-05-07T06:42:39Z</time>
				<extensions>
				</extensions>
			</trkpt>
			<trkpt lat="-28.125087" lon="152.956495">
				<ele>68</ele>
				<time>2015-05-07T06:42:40Z</time>
				<extensions>
				</extensions>
			</trkpt>
			<trkpt lat="-28.125296" lon="152.956597">
				<ele>68</ele>
				<time>2015-05-07T06:42:41Z</time>
				<extensions>
				</extensions>
			</trkpt>
			<trkpt lat="-28.125508" lon="152.956703">
				<ele>67</ele>
				<time>2015-05-07T06:42:42Z</time>
				<extensions>
				</extensions>
			</trkpt>
			<trkpt lat="-28.125726" lon="152.956813">
				<ele>68</ele>
				<time>2015-05-07T06:42:43Z</time>
				<extensions>
				</extensions>
			</trkpt>
			<trkpt lat="-28.125924" lon="152.956918">
				<ele>67</ele>
				<time>2015-05-07T06:42:44Z</time>
				<extensions>
				</extensions>
			</trkpt>
			<trkpt lat="-28.126099" lon="152.957040">
				<ele>67</ele>
				<time>2015-05-07T06:42:45Z</time>
				<extensions>
				</extensions>
			</trkpt>
			<trkpt lat="-28.126275" lon="152.957174">
				<ele>65</ele>
				<time>2015-05-07T06:42:46Z</time>
				<extensions>
				</extensions>
			</trkpt>
			<trkpt lat="-28.126442" lon="152.957328">
				<ele>65</ele>
				<time>2015-05-07T06:42:47Z</time>
				<extensions>
				</extensions>
			</trkpt>
			<trkpt lat="-28.126602" lon="152.957497">
				<ele>66</ele>
				<time>2015-05-07T06:42:48Z</time>
				<extensions>
				</extensions>
			</trkpt>
			<trkpt lat="-28.126755" lon="152.957691">
				<ele>68</ele>
				<time>2015-05-07T06:42:49Z</time>
				<extensions>
				</extensions>
			</trkpt>
			<trkpt lat="-28.126921" lon="152.957883">
				<ele>69</ele>
				<time>2015-05-07T06:42:50Z</time>
				<extensions>
				</extensions>
			</trkpt>
			<trkpt lat="-28.127080" lon="152.958066">
				<ele>69</ele>
				<time>2015-05-07T06:42:51Z</time>
				<extensions>
				</extensions>
			</trkpt>
			<trkpt lat="-28.127248" lon="152.958252">
				<ele>68</ele>
				<time>2015-05-07T06:42:52Z</time>
				<extensions>
				</extensions>
			</trkpt>
			<trkpt lat="-28.127404" lon="152.958437">
				<ele>68</ele>
				<time>2015-05-07T06:42:53Z</time>
				<extensions>
				</extensions>
			</trkpt>
			<trkpt lat="-28.127553" lon="152.958614">
				<ele>67</ele>
				<time>2015-05-07T06:42:54Z</time>
				<extensions>
				</extensions>
			</trkpt>
			<trkpt lat="-28.127713" lon="152.958789">
				<ele>66</ele>
				<time>2015-05-07T06:42:55Z</time>
				<extensions>
				</extensions>
			</trkpt>
			<trkpt lat="-28.127870" lon="152.958945">
				<ele>66</ele>
				<time>2015-05-07T06:42:56Z</time>
				<extensions>
				</extensions>
			</trkpt>
			<trkpt lat="-28.128027" lon="152.959096">
				<ele>66</ele>
				<time>2015-05-07T06:42:57Z</time>
				<extensions>
				</extensions>
			</trkpt>
			<trkpt lat="-28.128213" lon="152.959247">
				<ele>67</ele>
				<time>2015-05-07T06:42:58Z</time>
				<extensions>
				</extensions>
			</trkpt>
			<trkpt lat="-28.128398" lon="152.959393">
				<ele>69</ele>
				<time>2015-05-07T06:42:59Z</time>
				<extensions>
				</extensions>
			</trkpt>
			<trkpt lat="-28.128601" lon="152.959543">
				<ele>69</ele>
				<time>2015-05-07T06:43:00Z</time>
				<extensions>
				</extensions>
			</trkpt>
			<trkpt lat="-28.128796" lon="152.959696">
				<ele>70</ele>
				<time>2015-05-07T06:43:01Z</time>
				<extensions>
				</extensions>
			</trkpt>
			<trkpt lat="-28.129002" lon="152.959845">
				<ele>70</ele>
				<time>2015-05-07T06:43:02Z</time>
				<extensions>
				</extensions>
			</trkpt>
			<trkpt lat="-28.129206" lon="152.959995">
				<ele>71</ele>
				<time>2015-05-07T06:43:03Z</time>
				<extensions>
				</extensions>
			</trkpt>
			<trkpt lat="-28.129408" lon="152.960141">
				<ele>71</ele>
				<time>2015-05-07T06:43:04Z</time>
				<extensions>
				</extensions>
			</trkpt>
			<trkpt lat="-28.129615" lon="152.960295">
				<ele>71</ele>
				<time>2015-05-07T06:43:05Z</time>
				<extensions>
				</extensions>
			</trkpt>
			<trkpt lat="-28.129807" lon="152.960438">
				<ele>71</ele>
				<time>2015-05-07T06:43:06Z</time>
				<extensions>
				</extensions>
			</trkpt>
			<trkpt lat="-28.130013" lon="152.960592">
				<ele>71</ele>
				<time>2015-05-07T06:43:07Z</time>
				<extensions>
				</extensions>
			</trkpt>
			<trkpt lat="-28.130217" lon="152.960734">
				<ele>71</ele>
				<time>2015-05-07T06:43:08Z</time>
				<extensions>
				</extensions>
			</trkpt>
			<trkpt lat="-28.130435" lon="152.960864">
				<ele>71</ele>
				<time>2015-05-07T06:43:09Z</time>
				<extensions>
				</extensions>
			</trkpt>
			<trkpt lat="-28.130664" lon="152.960987">
				<ele>73</ele>
				<time>2015-05-07T06:43:10Z</time>
				<extensions>
				</extensions>
			</trkpt>
			<trkpt lat="-28.130893" lon="152.961093">
				<ele>73</ele>
				<time>2015-05-07T06:43:11Z</time>
				<extensions>
				</extensions>
			</trkpt>
			<trkpt lat="-28.131121" lon="152.961191">
				<ele>72</ele>
				<time>2015-05-07T06:43:12Z</time>
				<extensions>
				</extensions>
			</trkpt>
			<trkpt lat="-28.131348" lon="152.961285">
				<ele>71</ele>
				<time>2015-05-07T06:43:13Z</time>
				<extensions>
				</extensions>
			</trkpt>
			<trkpt lat="-28.131573" lon="152.961384">
				<ele>71</ele>
				<time>2015-05-07T06:43:14Z</time>
				<extensions>
				</extensions>
			</trkpt>
			<trkpt lat="-28.131795" lon="152.961462">
				<ele>70</ele>
				<time>2015-05-07T06:43:15Z</time>
				<extensions>
				</extensions>
			</trkpt>
			<trkpt lat="-28.132010" lon="152.961521">
				<ele>69</ele>
				<time>2015-05-07T06:43:16Z</time>
				<extensions>
				</extensions>
			</trkpt>
			<trkpt lat="-28.132231" lon="152.961567">
				<ele>69</ele>
				<time>2015-05-07T06:43:17Z</time>
				<extensions>
				</extensions>
			</trkpt>
			<trkpt lat="-28.132444" lon="152.961601">
				<ele>69</ele>
				<time>2015-05-07T06:43:18Z</time>
				<extensions>
				</extensions>
			</trkpt>
			<trkpt lat="-28.132660" lon="152.961617">
				<ele>69</ele>
				<time>2015-05-07T06:43:19Z</time>
				<extensions>
				</extensions>
			</trkpt>
			<trkpt lat="-28.132885" lon="152.961620">
				<ele>69</ele>
				<time>2015-05-07T06:43:20Z</time>
				<extensions>
				</extensions>
			</trkpt>
			<trkpt lat="-28.133104" lon="152.961627">
				<ele>67</ele>
				<time>2015-05-07T06:43:21Z</time>
				<extensions>
				</extensions>
			</trkpt>
			<trkpt lat="-28.133304" lon="152.961629">
				<ele>66</ele>
				<time>2015-05-07T06:43:22Z</time>
				<extensions>
				</extensions>
			</trkpt>
			<trkpt lat="-28.133514" lon="152.961658">
				<ele>66</ele>
				<time>2015-05-07T06:43:23Z</time>
				<extensions>
				</extensions>
			</trkpt>
			<trkpt lat="-28.133699" lon="152.961701">
				<ele>65</ele>
				<time>2015-05-07T06:43:24Z</time>
				<extensions>
				</extensions>
			</trkpt>
			<trkpt lat="-28.133874" lon="152.961778">
				<ele>65</ele>
				<time>2015-05-07T06:43:25Z</time>
				<extensions>
				</extensions>
			</trkpt>
			<trkpt lat="-28.134047" lon="152.961874">
				<ele>66</ele>
				<time>2015-05-07T06:43:26Z</time>
				<extensions>
				</extensions>
			</trkpt>
			<trkpt lat="-28.134207" lon="152.961997">
				<ele>67</ele>
				<time>2015-05-07T06:43:27Z</time>
				<extensions>
				</extensions>
			</trkpt>
			<trkpt lat="-28.134362" lon="152.962144">
				<ele>68</ele>
				<time>2015-05-07T06:43:28Z</time>
				<extensions>
				</extensions>
			</trkpt>
			<trkpt lat="-28.134492" lon="152.962324">
				<ele>68</ele>
				<time>2015-05-07T06:43:29Z</time>
				<extensions>
				</extensions>
			</trkpt>
			<trkpt lat="-28.134623" lon="152.962512">
				<ele>70</ele>
				<time>2015-05-07T06:43:30Z</time>
				<extensions>
				</extensions>
			</trkpt>
			<trkpt lat="-28.134733" lon="152.962725">
				<ele>71</ele>
				<time>2015-05-07T06:43:31Z</time>
				<extensions>
				</extensions>
			</trkpt>
			<trkpt lat="-28.134853" lon="152.962950">
				<ele>71</ele>
				<time>2015-05-07T06:43:32Z</time>
				<extensions>
				</extensions>
			</trkpt>
			<trkpt lat="-28.134989" lon="152.963164">
				<ele>72</ele>
				<time>2015-05-07T06:43:33Z</time>
				<extensions>
				</extensions>
			</trkpt>
			<trkpt lat="-28.135130" lon="152.963365">
				<ele>73</ele>
				<time>2015-05-07T06:43:34Z</time>
				<extensions>
				</extensions>
			</trkpt>
			<trkpt lat="-28.135273" lon="152.963550">
				<ele>72</ele>
				<time>2015-05-07T06:43:35Z</time>
				<extensions>
				</extensions>
			</trkpt>
			<trkpt lat="-28.135432" lon="152.963737">
				<ele>73</ele>
				<time>2015-05-07T06:43:36Z</time>
				<extensions>
				</extensions>
			</trkpt>
			<trkpt lat="-28.135586" lon="152.963918">
				<ele>73</ele>
				<time>2015-05-07T06:43:37Z</time>
				<extensions>
				</extensions>
			</trkpt>
			<trkpt lat="-28.135752" lon="152.964110">
				<ele>74</ele>
				<time>2015-05-07T06:43:38Z</time>
				<extensions>
				</extensions>
			</trkpt>
			<trkpt lat="-28.135921" lon="152.964309">
				<ele>75</ele>
				<time>2015-05-07T06:43:39Z</time>
				<extensions>
				</extensions>
			</trkpt>
			<trkpt lat="-28.136084" lon="152.964513">
				<ele>75</ele>
				<time>2015-05-07T06:43:40Z</time>
				<extensions>
				</extensions>
			</trkpt>
			<trkpt lat="-28.136250" lon="152.964706">
				<ele>75</ele>
				<time>2015-05-07T06:43:41Z</time>
				<extensions>
				</extensions>
			</trkpt>
			<trkpt lat="-28.136416" lon="152.964888">
				<ele>75</ele>
				<time>2015-05-07T06:43:42Z</time>
				<extensions>
				</extensions>
			</trkpt>
			<trkpt lat="-28.136572" lon="152.965065">
				<ele>73</ele>
				<time>2015-05-07T06:43:43Z</time>
				<extensions>
				</extensions>
			</trkpt>
			<trkpt lat="-28.136732" lon="152.965242">
				<ele>73</ele>
				<time>2015-05-07T06:43:44Z</time>
				<extensions>
				</extensions>
			</trkpt>
			<trkpt lat="-28.136889" lon="152.965409">
				<ele>72</ele>
				<time>2015-05-07T06:43:45Z</time>
				<extensions>
				</extensions>
			</trkpt>
			<trkpt lat="-28.137053" lon="152.965569">
				<ele>72</ele>
				<time>2015-05-07T06:43:46Z</time>
				<extensions>
				</extensions>
			</trkpt>
			<trkpt lat="-28.137227" lon="152.965717">
				<ele>72</ele>
				<time>2015-05-07T06:43:47Z</time>
				<extensions>
				</extensions>
			</trkpt>
			<trkpt lat="-28.137415" lon="152.965859">
				<ele>73</ele>
				<time>2015-05-07T06:43:48Z</time>
				<extensions>
				</extensions>
			</trkpt>
			<trkpt lat="-28.137618" lon="152.966015">
				<ele>74</ele>
				<time>2015-05-07T06:43:49Z</time>
				<extensions>
				</extensions>
			</trkpt>
			<trkpt lat="-28.137808" lon="152.966150">
				<ele>75</ele>
				<time>2015-05-07T06:43:50Z</time>
				<extensions>
				</extensions>
			</trkpt>
			<trkpt lat="-28.138006" lon="152.966290">
				<ele>77</ele>
				<time>2015-05-07T06:43:51Z</time>
				<extensions>
				</extensions>
			</trkpt>
			<trkpt lat="-28.138213" lon="152.966438">
				<ele>77</ele>
				<time>2015-05-07T06:43:52Z</time>
				<extensions>
				</extensions>
			</trkpt>
			<trkpt lat="-28.138416" lon="152.966585">
				<ele>77</ele>
				<time>2015-05-07T06:43:53Z</time>
				<extensions>
				</extensions>
			</trkpt>
			<trkpt lat="-28.138614" lon="152.966723">
				<ele>77</ele>
				<time>2015-05-07T06:43:54Z</time>
				<extensions>
				</extensions>
			</trkpt>
			<trkpt lat="-28.138819" lon="152.966873">
				<ele>78</ele>
				<time>2015-05-07T06:43:55Z</time>
				<extensions>
				</extensions>
			</trkpt>
			<trkpt lat="-28.139031" lon="152.967027">
				<ele>78</ele>
				<time>2015-05-07T06:43:56Z</time>
				<extensions>
				</extensions>
			</trkpt>
			<trkpt lat="-28.139236" lon="152.967172">
				<ele>80</ele>
				<time>2015-05-07T06:43:57Z</time>
				<extensions>
				</extensions>
			</trkpt>
			<trkpt lat="-28.139457" lon="152.967326">
				<ele>80</ele>
				<time>2015-05-07T06:43:58Z</time>
				<extensions>
				</extensions>
			</trkpt>
			<trkpt lat="-28.139665" lon="152.967471">
				<ele>80</ele>
				<time>2015-05-07T06:43:59Z</time>
				<extensions>
				</extensions>
			</trkpt>
			<trkpt lat="-28.139873" lon="152.967626">
				<ele>79</ele>
				<time>2015-05-07T06:44:00Z</time>
				<extensions>
				</extensions>
			</trkpt>
			<trkpt lat="-28.140073" lon="152.967782">
				<ele>78</ele>
				<time>2015-05-07T06:44:01Z</time>
				<extensions>
				</extensions>
			</trkpt>
			<trkpt lat="-28.140227" lon="152.967954">
				<ele>76</ele>
				<time>2015-05-07T06:44:02Z</time>
				<extensions>
				</extensions>
			</trkpt>
			<trkpt lat="-28.140390" lon="152.968137">
				<ele>76</ele>
				<time>2015-05-07T06:44:03Z</time>
				<extensions>
				</extensions>
			</trkpt>
			<trkpt lat="-28.140557" lon="152.968333">
				<ele>77</ele>
				<time>2015-05-07T06:44:04Z</time>
				<extensions>
				</extensions>
			</trkpt>
			<trkpt lat="-28.140688" lon="152.968562">
				<ele>77</ele>
				<time>2015-05-07T06:44:05Z</time>
				<extensions>
				</extensions>
			</trkpt>
			<trkpt lat="-28.140803" lon="152.968793">
				<ele>79</ele>
				<time>2015-05-07T06:44:06Z</time>
				<extensions>
				</extensions>
			</trkpt>
			<trkpt lat="-28.140926" lon="152.969041">
				<ele>79</ele>
				<time>2015-05-07T06:44:07Z</time>
				<extensions>
				</extensions>
			</trkpt>
			<trkpt lat="-28.141042" lon="152.969298">
				<ele>79</ele>
				<time>2015-05-07T06:44:08Z</time>
				<extensions>
				</extensions>
			</trkpt>
			<trkpt lat="-28.141133" lon="152.969546">
				<ele>78</ele>
				<time>2015-05-07T06:44:09Z</time>
				<extensions>
				</extensions>
			</trkpt>
			<trkpt lat="-28.141227" lon="152.969793">
				<ele>77</ele>
				<time>2015-05-07T06:44:10Z</time>
				<extensions>
				</extensions>
			</trkpt>
			<trkpt lat="-28.141293" lon="152.970024">
				<ele>76</ele>
				<time>2015-05-07T06:44:11Z</time>
				<extensions>
				</extensions>
			</trkpt>
			<trkpt lat="-28.141375" lon="152.970244">
				<ele>74</ele>
				<time>2015-05-07T06:44:12Z</time>
				<extensions>
				</extensions>
			</trkpt>
			<trkpt lat="-28.141484" lon="152.970447">
				<ele>73</ele>
				<time>2015-05-07T06:44:13Z</time>
				<extensions>
				</extensions>
			</trkpt>
			<trkpt lat="-28.141601" lon="152.970635">
				<ele>71</ele>
				<time>2015-05-07T06:44:14Z</time>
				<extensions>
				</extensions>
			</trkpt>
			<trkpt lat="-28.141726" lon="152.970814">
				<ele>71</ele>
				<time>2015-05-07T06:44:15Z</time>
				<extensions>
				</extensions>
			</trkpt>
			<trkpt lat="-28.141868" lon="152.970991">
				<ele>71</ele>
				<time>2015-05-07T06:44:16Z</time>
				<extensions>
				</extensions>
			</trkpt>
			<trkpt lat="-28.142032" lon="152.971153">
				<ele>71</ele>
				<time>2015-05-07T06:44:17Z</time>
				<extensions>
				</extensions>
			</trkpt>
			<trkpt lat="-28.142204" lon="152.971308">
				<ele>73</ele>
				<time>2015-05-07T06:44:18Z</time>
				<extensions>
				</extensions>
			</trkpt>
			<trkpt lat="-28.142394" lon="152.971468">
				<ele>74</ele>
				<time>2015-05-07T06:44:19Z</time>
				<extensions>
				</extensions>
			</trkpt>
			<trkpt lat="-28.142602" lon="152.971613">
				<ele>77</ele>
				<time>2015-05-07T06:44:20Z</time>
				<extensions>
				</extensions>
			</trkpt>
			<trkpt lat="-28.142808" lon="152.971759">
				<ele>79</ele>
				<time>2015-05-07T06:44:21Z</time>
				<extensions>
				</extensions>
			</trkpt>
			<trkpt lat="-28.143018" lon="152.971908">
				<ele>80</ele>
				<time>2015-05-07T06:44:22Z</time>
				<extensions>
				</extensions>
			</trkpt>
			<trkpt lat="-28.143228" lon="152.972053">
				<ele>79</ele>
				<time>2015-05-07T06:44:23Z</time>
				<extensions>
				</extensions>
			</trkpt>
			<trkpt lat="-28.143438" lon="152.972200">
				<ele>79</ele>
				<time>2015-05-07T06:44:24Z</time>
				<extensions>
				</extensions>
			</trkpt>
			<trkpt lat="-28.143645" lon="152.972349">
				<ele>78</ele>
				<time>2015-05-07T06:44:25Z</time>
				<extensions>
				</extensions>
			</trkpt>
			<trkpt lat="-28.143843" lon="152.972489">
				<ele>78</ele>
				<time>2015-05-07T06:44:26Z</time>
				<extensions>
				</extensions>
			</trkpt>
			<trkpt lat="-28.144050" lon="152.972631">
				<ele>79</ele>
				<time>2015-05-07T06:44:27Z</time>
				<extensions>
				</extensions>
			</trkpt>
			<trkpt lat="-28.144258" lon="152.972782">
				<ele>80</ele>
				<time>2015-05-07T06:44:28Z</time>
				<extensions>
				</extensions>
			</trkpt>
			<trkpt lat="-28.144469" lon="152.972933">
				<ele>80</ele>
				<time>2015-05-07T06:44:29Z</time>
				<extensions>
				</extensions>
			</trkpt>
			<trkpt lat="-28.144679" lon="152.973075">
				<ele>79</ele>
				<time>2015-05-07T06:44:30Z</time>
				<extensions>
				</extensions>
			</trkpt>
			<trkpt lat="-28.144892" lon="152.973203">
				<ele>79</ele>
				<time>2015-05-07T06:44:31Z</time>
				<extensions>
				</extensions>
			</trkpt>
			<trkpt lat="-28.145114" lon="152.973323">
				<ele>79</ele>
				<time>2015-05-07T06:44:32Z</time>
				<extensions>
				</extensions>
			</trkpt>
			<trkpt lat="-28.145347" lon="152.973444">
				<ele>80</ele>
				<time>2015-05-07T06:44:33Z</time>
				<extensions>
				</extensions>
			</trkpt>
			<trkpt lat="-28.145580" lon="152.973557">
				<ele>80</ele>
				<time>2015-05-07T06:44:34Z</time>
				<extensions>
				</extensions>
			</trkpt>
			<trkpt lat="-28.145829" lon="152.973662">
				<ele>81</ele>
				<time>2015-05-07T06:44:35Z</time>
				<extensions>
				</extensions>
			</trkpt>
			<trkpt lat="-28.146074" lon="152.973760">
				<ele>83</ele>
				<time>2015-05-07T06:44:36Z</time>
				<extensions>
				</extensions>
			</trkpt>
			<trkpt lat="-28.146308" lon="152.973858">
				<ele>84</ele>
				<time>2015-05-07T06:44:37Z</time>
				<extensions>
				</extensions>
			</trkpt>
			<trkpt lat="-28.146560" lon="152.973968">
				<ele>84</ele>
				<time>2015-05-07T06:44:38Z</time>
				<extensions>
				</extensions>
			</trkpt>
			<trkpt lat="-28.146813" lon="152.974081">
				<ele>84</ele>
				<time>2015-05-07T06:44:39Z</time>
				<extensions>
				</extensions>
			</trkpt>
			<trkpt lat="-28.147053" lon="152.974200">
				<ele>83</ele>
				<time>2015-05-07T06:44:40Z</time>
				<extensions>
				</extensions>
			</trkpt>
			<trkpt lat="-28.147282" lon="152.974301">
				<ele>82</ele>
				<time>2015-05-07T06:44:41Z</time>
				<extensions>
				</extensions>
			</trkpt>
			<trkpt lat="-28.147521" lon="152.974405">
				<ele>80</ele>
				<time>2015-05-07T06:44:42Z</time>
				<extensions>
				</extensions>
			</trkpt>
			<trkpt lat="-28.147751" lon="152.974505">
				<ele>81</ele>
				<time>2015-05-07T06:44:43Z</time>
				<extensions>
				</extensions>
			</trkpt>
			<trkpt lat="-28.147979" lon="152.974606">
				<ele>81</ele>
				<time>2015-05-07T06:44:44Z</time>
				<extensions>
				</extensions>
			</trkpt>
			<trkpt lat="-28.148213" lon="152.974709">
				<ele>80</ele>
				<time>2015-05-07T06:44:45Z</time>
				<extensions>
				</extensions>
			</trkpt>
			<trkpt lat="-28.148430" lon="152.974808">
				<ele>78</ele>
				<time>2015-05-07T06:44:46Z</time>
				<extensions>
				</extensions>
			</trkpt>
			<trkpt lat="-28.148659" lon="152.974908">
				<ele>78</ele>
				<time>2015-05-07T06:44:47Z</time>
				<extensions>
				</extensions>
			</trkpt>
			<trkpt lat="-28.148882" lon="152.975013">
				<ele>79</ele>
				<time>2015-05-07T06:44:48Z</time>
				<extensions>
				</extensions>
			</trkpt>
			<trkpt lat="-28.149119" lon="152.975123">
				<ele>80</ele>
				<time>2015-05-07T06:44:49Z</time>
				<extensions>
				</extensions>
			</trkpt>
			<trkpt lat="-28.149358" lon="152.975226">
				<ele>81</ele>
				<time>2015-05-07T06:44:50Z</time>
				<extensions>
				</extensions>
			</trkpt>
			<trkpt lat="-28.149593" lon="152.975326">
				<ele>82</ele>
				<time>2015-05-07T06:44:51Z</time>
				<extensions>
				</extensions>
			</trkpt>
			<trkpt lat="-28.149828" lon="152.975427">
				<ele>83</ele>
				<time>2015-05-07T06:44:52Z</time>
				<extensions>
				</extensions>
			</trkpt>
			<trkpt lat="-28.150052" lon="152.975534">
				<ele>83</ele>
				<time>2015-05-07T06:44:53Z</time>
				<extensions>
				</extensions>
			</trkpt>
			<trkpt lat="-28.150287" lon="152.975636">
				<ele>83</ele>
				<time>2015-05-07T06:44:54Z</time>
				<extensions>
				</extensions>
			</trkpt>
			<trkpt lat="-28.150522" lon="152.975738">
				<ele>83</ele>
				<time>2015-05-07T06:44:55Z</time>
				<extensions>
				</extensions>
			</trkpt>
			<trkpt lat="-28.150761" lon="152.975842">
				<ele>83</ele>
				<time>2015-05-07T06:44:56Z</time>
				<extensions>
				</extensions>
			</trkpt>
			<trkpt lat="-28.150997" lon="152.975950">
				<ele>83</ele>
				<time>2015-05-07T06:44:57Z</time>
				<extensions>
				</extensions>
			</trkpt>
			<trkpt lat="-28.151231" lon="152.976052">
				<ele>82</ele>
				<time>2015-05-07T06:44:58Z</time>
				<extensions>
				</extensions>
			</trkpt>
			<trkpt lat="-28.151462" lon="152.976163">
				<ele>82</ele>
				<time>2015-05-07T06:44:59Z</time>
				<extensions>
				</extensions>
			</trkpt>
			<trkpt lat="-28.151699" lon="152.976270">
				<ele>83</ele>
				<time>2015-05-07T06:45:00Z</time>
				<extensions>
				</extensions>
			</trkpt>
			<trkpt lat="-28.151937" lon="152.976375">
				<ele>85</ele>
				<time>2015-05-07T06:45:01Z</time>
				<extensions>
				</extensions>
			</trkpt>
			<trkpt lat="-28.152182" lon="152.976476">
				<ele>85</ele>
				<time>2015-05-07T06:45:02Z</time>
				<extensions>
				</extensions>
			</trkpt>
			<trkpt lat="-28.152417" lon="152.976580">
				<ele>88</ele>
				<time>2015-05-07T06:45:03Z</time>
				<extensions>
				</extensions>
			</trkpt>
			<trkpt lat="-28.152645" lon="152.976681">
				<ele>88</ele>
				<time>2015-05-07T06:45:04Z</time>
				<extensions>
				</extensions>
			</trkpt>
			<trkpt lat="-28.152870" lon="152.976777">
				<ele>89</ele>
				<time>2015-05-07T06:45:05Z</time>
				<extensions>
				</extensions>
			</trkpt>
			<trkpt lat="-28.153090" lon="152.976867">
				<ele>89</ele>
				<time>2015-05-07T06:45:06Z</time>
				<extensions>
				</extensions>
			</trkpt>
			<trkpt lat="-28.153306" lon="152.976965">
				<ele>91</ele>
				<time>2015-05-07T06:45:07Z</time>
				<extensions>
				</extensions>
			</trkpt>
			<trkpt lat="-28.153516" lon="152.977076">
				<ele>91</ele>
				<time>2015-05-07T06:45:08Z</time>
				<extensions>
				</extensions>
			</trkpt>
			<trkpt lat="-28.153701" lon="152.977202">
				<ele>90</ele>
				<time>2015-05-07T06:45:09Z</time>
				<extensions>
				</extensions>
			</trkpt>
			<trkpt lat="-28.153887" lon="152.977342">
				<ele>90</ele>
				<time>2015-05-07T06:45:10Z</time>
				<extensions>
				</extensions>
			</trkpt>
			<trkpt lat="-28.154072" lon="152.977495">
				<ele>92</ele>
				<time>2015-05-07T06:45:11Z</time>
				<extensions>
				</extensions>
			</trkpt>
			<trkpt lat="-28.154252" lon="152.977655">
				<ele>93</ele>
				<time>2015-05-07T06:45:12Z</time>
				<extensions>
				</extensions>
			</trkpt>
			<trkpt lat="-28.154435" lon="152.977825">
				<ele>95</ele>
				<time>2015-05-07T06:45:13Z</time>
				<extensions>
				</extensions>
			</trkpt>
			<trkpt lat="-28.154624" lon="152.977993">
				<ele>95</ele>
				<time>2015-05-07T06:45:14Z</time>
				<extensions>
				</extensions>
			</trkpt>
			<trkpt lat="-28.154815" lon="152.978167">
				<ele>95</ele>
				<time>2015-05-07T06:45:15Z</time>
				<extensions>
				</extensions>
			</trkpt>
			<trkpt lat="-28.155018" lon="152.978342">
				<ele>95</ele>
				<time>2015-05-07T06:45:16Z</time>
				<extensions>
				</extensions>
			</trkpt>
			<trkpt lat="-28.155226" lon="152.978515">
				<ele>97</ele>
				<time>2015-05-07T06:45:17Z</time>
				<extensions>
				</extensions>
			</trkpt>
			<trkpt lat="-28.155429" lon="152.978689">
				<ele>95</ele>
				<time>2015-05-07T06:45:18Z</time>
				<extensions>
				</extensions>
			</trkpt>
			<trkpt lat="-28.155626" lon="152.978856">
				<ele>94</ele>
				<time>2015-05-07T06:45:19Z</time>
				<extensions>
				</extensions>
			</trkpt>
			<trkpt lat="-28.155825" lon="152.979023">
				<ele>94</ele>
				<time>2015-05-07T06:45:20Z</time>
				<extensions>
				</extensions>
			</trkpt>
			<trkpt lat="-28.156019" lon="152.979190">
				<ele>92</ele>
				<time>2015-05-07T06:45:21Z</time>
				<extensions>
				</extensions>
			</trkpt>
			<trkpt lat="-28.156213" lon="152.979357">
				<ele>92</ele>
				<time>2015-05-07T06:45:22Z</time>
				<extensions>
				</extensions>
			</trkpt>
			<trkpt lat="-28.156409" lon="152.979534">
				<ele>91</ele>
				<time>2015-05-07T06:45:23Z</time>
				<extensions>
				</extensions>
			</trkpt>
			<trkpt lat="-28.156601" lon="152.979702">
				<ele>90</ele>
				<time>2015-05-07T06:45:24Z</time>
				<extensions>
				</extensions>
			</trkpt>
			<trkpt lat="-28.156792" lon="152.979865">
				<ele>90</ele>
				<time>2015-05-07T06:45:25Z</time>
				<extensions>
				</extensions>
			</trkpt>
			<trkpt lat="-28.156975" lon="152.980016">
				<ele>90</ele>
				<time>2015-05-07T06:45:26Z</time>
				<extensions>
				</extensions>
			</trkpt>
			<trkpt lat="-28.157166" lon="152.980147">
				<ele>88</ele>
				<time>2015-05-07T06:45:27Z</time>
				<extensions>
				</extensions>
			</trkpt>
			<trkpt lat="-28.157376" lon="152.980263">
				<ele>89</ele>
				<time>2015-05-07T06:45:28Z</time>
				<extensions>
				</extensions>
			</trkpt>
			<trkpt lat="-28.157599" lon="152.980372">
				<ele>91</ele>
				<time>2015-05-07T06:45:29Z</time>
				<extensions>
				</extensions>
			</trkpt>
			<trkpt lat="-28.157832" lon="152.980477">
				<ele>94</ele>
				<time>2015-05-07T06:45:30Z</time>
				<extensions>
				</extensions>
			</trkpt>
			<trkpt lat="-28.158060" lon="152.980586">
				<ele>94</ele>
				<time>2015-05-07T06:45:31Z</time>
				<extensions>
				</extensions>
			</trkpt>
			<trkpt lat="-28.158294" lon="152.980694">
				<ele>96</ele>
				<time>2015-05-07T06:45:32Z</time>
				<extensions>
				</extensions>
			</trkpt>
			<trkpt lat="-28.158535" lon="152.980798">
				<ele>96</ele>
				<time>2015-05-07T06:45:33Z</time>
				<extensions>
				</extensions>
			</trkpt>
			<trkpt lat="-28.158756" lon="152.980902">
				<ele>94</ele>
				<time>2015-05-07T06:45:34Z</time>
				<extensions>
				</extensions>
			</trkpt>
			<trkpt lat="-28.158992" lon="152.981010">
				<ele>93</ele>
				<time>2015-05-07T06:45:35Z</time>
				<extensions>
				</extensions>
			</trkpt>
			<trkpt lat="-28.159220" lon="152.981118">
				<ele>92</ele>
				<time>2015-05-07T06:45:36Z</time>
				<extensions>
				</extensions>
			</trkpt>
			<trkpt lat="-28.159441" lon="152.981218">
				<ele>90</ele>
				<time>2015-05-07T06:45:37Z</time>
				<extensions>
				</extensions>
			</trkpt>
			<trkpt lat="-28.159655" lon="152.981324">
				<ele>90</ele>
				<time>2015-05-07T06:45:38Z</time>
				<extensions>
				</extensions>
			</trkpt>
			<trkpt lat="-28.159863" lon="152.981427">
				<ele>89</ele>
				<time>2015-05-07T06:45:39Z</time>
				<extensions>
				</extensions>
			</trkpt>
			<trkpt lat="-28.160077" lon="152.981537">
				<ele>87</ele>
				<time>2015-05-07T06:45:40Z</time>
				<extensions>
				</extensions>
			</trkpt>
			<trkpt lat="-28.160260" lon="152.981668">
				<ele>87</ele>
				<time>2015-05-07T06:45:41Z</time>
				<extensions>
				</extensions>
			</trkpt>
			<trkpt lat="-28.160438" lon="152.981818">
				<ele>87</ele>
				<time>2015-05-07T06:45:42Z</time>
				<extensions>
				</extensions>
			</trkpt>
			<trkpt lat="-28.160605" lon="152.981976">
				<ele>87</ele>
				<time>2015-05-07T06:45:43Z</time>
				<extensions>
				</extensions>
			</trkpt>
			<trkpt lat="-28.160767" lon="152.982159">
				<ele>88</ele>
				<time>2015-05-07T06:45:44Z</time>
				<extensions>
				</extensions>
			</trkpt>
			<trkpt lat="-28.160943" lon="152.982356">
				<ele>89</ele>
				<time>2015-05-07T06:45:45Z</time>
				<extensions>
				</extensions>
			</trkpt>
			<trkpt lat="-28.161117" lon="152.982552">
				<ele>91</ele>
				<time>2015-05-07T06:45:46Z</time>
				<extensions>
				</extensions>
			</trkpt>
			<trkpt lat="-28.161284" lon="152.982751">
				<ele>90</ele>
				<time>2015-05-07T06:45:47Z</time>
				<extensions>
				</extensions>
			</trkpt>
			<trkpt lat="-28.161461" lon="152.982952">
				<ele>90</ele>
				<time>2015-05-07T06:45:48Z</time>
				<extensions>
				</extensions>
			</trkpt>
			<trkpt lat="-28.161643" lon="152.983147">
				<ele>89</ele>
				<time>2015-05-07T06:45:49Z</time>
				<extensions>
				</extensions>
			</trkpt>
			<trkpt lat="-28.161808" lon="152.983334">
				<ele>90</ele>
				<time>2015-05-07T06:45:50Z</time>
				<extensions>
				</extensions>
			</trkpt>
			<trkpt lat="-28.161969" lon="152.983511">
				<ele>88</ele>
				<time>2015-05-07T06:45:51Z</time>
				<extensions>
				</extensions>
			</trkpt>
			<trkpt lat="-28.162127" lon="152.983689">
				<ele>88</ele>
				<time>2015-05-07T06:45:52Z</time>
				<extensions>
				</extensions>
			</trkpt>
			<trkpt lat="-28.162284" lon="152.983857">
				<ele>89</ele>
				<time>2015-05-07T06:45:53Z</time>
				<extensions>
				</extensions>
			</trkpt>
			<trkpt lat="-28.162443" lon="152.984040">
				<ele>89</ele>
				<time>2015-05-07T06:45:54Z</time>
				<extensions>
				</extensions>
			</trkpt>
			<trkpt lat="-28.162614" lon="152.984223">
				<ele>90</ele>
				<time>2015-05-07T06:45:55Z</time>
				<extensions>
				</extensions>
			</trkpt>
			<trkpt lat="-28.162781" lon="152.984410">
				<ele>91</ele>
				<time>2015-05-07T06:45:56Z</time>
				<extensions>
				</extensions>
			</trkpt>
			<trkpt lat="-28.162941" lon="152.984592">
				<ele>93</ele>
				<time>2015-05-07T06:45:57Z</time>
				<extensions>
				</extensions>
			</trkpt>
			<trkpt lat="-28.163110" lon="152.984784">
				<ele>94</ele>
				<time>2015-05-07T06:45:58Z</time>
				<extensions>
				</extensions>
			</trkpt>
			<trkpt lat="-28.163281" lon="152.984971">
				<ele>94</ele>
				<time>2015-05-07T06:45:59Z</time>
				<extensions>
				</extensions>
			</trkpt>
			<trkpt lat="-28.163447" lon="152.985150">
				<ele>92</ele>
				<time>2015-05-07T06:46:00Z</time>
				<extensions>
				</extensions>
			</trkpt>
			<trkpt lat="-28.163619" lon="152.985349">
				<ele>92</ele>
				<time>2015-05-07T06:46:01Z</time>
				<extensions>
				</extensions>
			</trkpt>
			<trkpt lat="-28.163781" lon="152.985534">
				<ele>91</ele>
				<time>2015-05-07T06:46:02Z</time>
				<extensions>
				</extensions>
			</trkpt>
			<trkpt lat="-28.163926" lon="152.985717">
				<ele>90</ele>
				<time>2015-05-07T06:46:03Z</time>
				<extensions>
				</extensions>
			</trkpt>
			<trkpt lat="-28.164083" lon="152.985892">
				<ele>88</ele>
				<time>2015-05-07T06:46:04Z</time>
				<extensions>
				</extensions>
			</trkpt>
			<trkpt lat="-28.164201" lon="152.986052">
				<ele>86</ele>
				<time>2015-05-07T06:46:05Z</time>
				<extensions>
				</extensions>
			</trkpt>
			<trkpt lat="-28.164353" lon="152.986214">
				<ele>85</ele>
				<time>2015-05-07T06:46:06Z</time>
				<extensions>
				</extensions>
			</trkpt>
			<trkpt lat="-28.164509" lon="152.986373">
				<ele>85</ele>
				<time>2015-05-07T06:46:07Z</time>
				<extensions>
				</extensions>
			</trkpt>
			<trkpt lat="-28.164799" lon="152.986628">
				<ele>84</ele>
				<time>2015-05-07T06:46:09Z</time>
				<extensions>
				</extensions>
			</trkpt>
			<trkpt lat="-28.165128" lon="152.986840">
				<ele>83</ele>
				<time>2015-05-07T06:46:11Z</time>
				<extensions>
				</extensions>
			</trkpt>
			<trkpt lat="-28.165308" lon="152.986932">
				<ele>85</ele>
				<time>2015-05-07T06:46:12Z</time>
				<extensions>
				</extensions>
			</trkpt>
			<trkpt lat="-28.165489" lon="152.987011">
				<ele>86</ele>
				<time>2015-05-07T06:46:13Z</time>
				<extensions>
				</extensions>
			</trkpt>
			<trkpt lat="-28.165691" lon="152.987101">
				<ele>87</ele>
				<time>2015-05-07T06:46:14Z</time>
				<extensions>
				</extensions>
			</trkpt>
			<trkpt lat="-28.165881" lon="152.987180">
				<ele>87</ele>
				<time>2015-05-07T06:46:15Z</time>
				<extensions>
				</extensions>
			</trkpt>
			<trkpt lat="-28.166066" lon="152.987265">
				<ele>88</ele>
				<time>2015-05-07T06:46:16Z</time>
				<extensions>
				</extensions>
			</trkpt>
			<trkpt lat="-28.166268" lon="152.987348">
				<ele>89</ele>
				<time>2015-05-07T06:46:17Z</time>
				<extensions>
				</extensions>
			</trkpt>
			<trkpt lat="-28.166464" lon="152.987426">
				<ele>91</ele>
				<time>2015-05-07T06:46:18Z</time>
				<extensions>
				</extensions>
			</trkpt>
			<trkpt lat="-28.166688" lon="152.987516">
				<ele>93</ele>
				<time>2015-05-07T06:46:19Z</time>
				<extensions>
				</extensions>
			</trkpt>
			<trkpt lat="-28.166904" lon="152.987616">
				<ele>93</ele>
				<time>2015-05-07T06:46:20Z</time>
				<extensions>
				</extensions>
			</trkpt>
			<trkpt lat="-28.167108" lon="152.987726">
				<ele>91</ele>
				<time>2015-05-07T06:46:21Z</time>
				<extensions>
				</extensions>
			</trkpt>
			<trkpt lat="-28.167302" lon="152.987823">
				<ele>90</ele>
				<time>2015-05-07T06:46:22Z</time>
				<extensions>
				</extensions>
			</trkpt>
			<trkpt lat="-28.167483" lon="152.987899">
				<ele>89</ele>
				<time>2015-05-07T06:46:23Z</time>
				<extensions>
				</extensions>
			</trkpt>
			<trkpt lat="-28.167669" lon="152.987978">
				<ele>87</ele>
				<time>2015-05-07T06:46:24Z</time>
				<extensions>
				</extensions>
			</trkpt>
			<trkpt lat="-28.167865" lon="152.988058">
				<ele>87</ele>
				<time>2015-05-07T06:46:25Z</time>
				<extensions>
				</extensions>
			</trkpt>
			<trkpt lat="-28.168062" lon="152.988132">
				<ele>89</ele>
				<time>2015-05-07T06:46:26Z</time>
				<extensions>
				</extensions>
			</trkpt>
			<trkpt lat="-28.168269" lon="152.988214">
				<ele>91</ele>
				<time>2015-05-07T06:46:27Z</time>
				<extensions>
				</extensions>
			</trkpt>
			<trkpt lat="-28.168483" lon="152.988301">
				<ele>92</ele>
				<time>2015-05-07T06:46:28Z</time>
				<extensions>
				</extensions>
			</trkpt>
			<trkpt lat="-28.168697" lon="152.988389">
				<ele>93</ele>
				<time>2015-05-07T06:46:29Z</time>
				<extensions>
				</extensions>
			</trkpt>
			<trkpt lat="-28.168929" lon="152.988483">
				<ele>95</ele>
				<time>2015-05-07T06:46:30Z</time>
				<extensions>
				</extensions>
			</trkpt>
			<trkpt lat="-28.169159" lon="152.988586">
				<ele>95</ele>
				<time>2015-05-07T06:46:31Z</time>
				<extensions>
				</extensions>
			</trkpt>
			<trkpt lat="-28.169406" lon="152.988690">
				<ele>95</ele>
				<time>2015-05-07T06:46:32Z</time>
				<extensions>
				</extensions>
			</trkpt>
			<trkpt lat="-28.169641" lon="152.988783">
				<ele>95</ele>
				<time>2015-05-07T06:46:33Z</time>
				<extensions>
				</extensions>
			</trkpt>
			<trkpt lat="-28.169887" lon="152.988890">
				<ele>98</ele>
				<time>2015-05-07T06:46:34Z</time>
				<extensions>
				</extensions>
			</trkpt>
			<trkpt lat="-28.170138" lon="152.989004">
				<ele>97</ele>
				<time>2015-05-07T06:46:35Z</time>
				<extensions>
				</extensions>
			</trkpt>
			<trkpt lat="-28.170380" lon="152.989099">
				<ele>97</ele>
				<time>2015-05-07T06:46:36Z</time>
				<extensions>
				</extensions>
			</trkpt>
			<trkpt lat="-28.170632" lon="152.989210">
				<ele>96</ele>
				<time>2015-05-07T06:46:37Z</time>
				<extensions>
				</extensions>
			</trkpt>
			<trkpt lat="-28.170883" lon="152.989319">
				<ele>96</ele>
				<time>2015-05-07T06:46:38Z</time>
				<extensions>
				</extensions>
			</trkpt>
			<trkpt lat="-28.171112" lon="152.989410">
				<ele>96</ele>
				<time>2015-05-07T06:46:39Z</time>
				<extensions>
				</extensions>
			</trkpt>
			<trkpt lat="-28.171337" lon="152.989503">
				<ele>96</ele>
				<time>2015-05-07T06:46:40Z</time>
				<extensions>
				</extensions>
			</trkpt>
			<trkpt lat="-28.171564" lon="152.989598">
				<ele>95</ele>
				<time>2015-05-07T06:46:41Z</time>
				<extensions>
				</extensions>
			</trkpt>
			<trkpt lat="-28.171793" lon="152.989686">
				<ele>96</ele>
				<time>2015-05-07T06:46:42Z</time>
				<extensions>
				</extensions>
			</trkpt>
			<trkpt lat="-28.172031" lon="152.989765">
				<ele>94</ele>
				<time>2015-05-07T06:46:43Z</time>
				<extensions>
				</extensions>
			</trkpt>
			<trkpt lat="-28.172266" lon="152.989829">
				<ele>94</ele>
				<time>2015-05-07T06:46:44Z</time>
				<extensions>
				</extensions>
			</trkpt>
			<trkpt lat="-28.172515" lon="152.989895">
				<ele>95</ele>
				<time>2015-05-07T06:46:45Z</time>
				<extensions>
				</extensions>
			</trkpt>
			<trkpt lat="-28.172782" lon="152.989967">
				<ele>97</ele>
				<time>2015-05-07T06:46:46Z</time>
				<extensions>
				</extensions>
			</trkpt>
			<trkpt lat="-28.173037" lon="152.990035">
				<ele>99</ele>
				<time>2015-05-07T06:46:47Z</time>
				<extensions>
				</extensions>
			</trkpt>
			<trkpt lat="-28.173291" lon="152.990103">
				<ele>99</ele>
				<time>2015-05-07T06:46:48Z</time>
				<extensions>
				</extensions>
			</trkpt>
			<trkpt lat="-28.173546" lon="152.990175">
				<ele>100</ele>
				<time>2015-05-07T06:46:49Z</time>
				<extensions>
				</extensions>
			</trkpt>
			<trkpt lat="-28.173797" lon="152.990240">
				<ele>100</ele>
				<time>2015-05-07T06:46:50Z</time>
				<extensions>
				</extensions>
			</trkpt>
			<trkpt lat="-28.174042" lon="152.990316">
				<ele>98</ele>
				<time>2015-05-07T06:46:51Z</time>
				<extensions>
				</extensions>
			</trkpt>
			<trkpt lat="-28.174275" lon="152.990378">
				<ele>95</ele>
				<time>2015-05-07T06:46:52Z</time>
				<extensions>
				</extensions>
			</trkpt>
			<trkpt lat="-28.174502" lon="152.990442">
				<ele>94</ele>
				<time>2015-05-07T06:46:53Z</time>
				<extensions>
				</extensions>
			</trkpt>
			<trkpt lat="-28.174737" lon="152.990502">
				<ele>96</ele>
				<time>2015-05-07T06:46:54Z</time>
				<extensions>
				</extensions>
			</trkpt>
			<trkpt lat="-28.174977" lon="152.990562">
				<ele>96</ele>
				<time>2015-05-07T06:46:55Z</time>
				<extensions>
				</extensions>
			</trkpt>
			<trkpt lat="-28.175217" lon="152.990600">
				<ele>97</ele>
				<time>2015-05-07T06:46:56Z</time>
				<extensions>
				</extensions>
			</trkpt>
			<trkpt lat="-28.175452" lon="152.990649">
				<ele>96</ele>
				<time>2015-05-07T06:46:57Z</time>
				<extensions>
				</extensions>
			</trkpt>
			<trkpt lat="-28.175698" lon="152.990693">
				<ele>96</ele>
				<time>2015-05-07T06:46:58Z</time>
				<extensions>
				</extensions>
			</trkpt>
			<trkpt lat="-28.175925" lon="152.990728">
				<ele>96</ele>
				<time>2015-05-07T06:46:59Z</time>
				<extensions>
				</extensions>
			</trkpt>
			<trkpt lat="-28.176163" lon="152.990760">
				<ele>95</ele>
				<time>2015-05-07T06:47:00Z</time>
				<extensions>
				</extensions>
			</trkpt>
			<trkpt lat="-28.176410" lon="152.990798">
				<ele>95</ele>
				<time>2015-05-07T06:47:01Z</time>
				<extensions>
				</extensions>
			</trkpt>
			<trkpt lat="-28.176660" lon="152.990835">
				<ele>96</ele>
				<time>2015-05-07T06:47:02Z</time>
				<extensions>
				</extensions>
			</trkpt>
			<trkpt lat="-28.176914" lon="152.990870">
				<ele>98</ele>
				<time>2015-05-07T06:47:03Z</time>
				<extensions>
				</extensions>
			</trkpt>
			<trkpt lat="-28.177174" lon="152.990911">
				<ele>98</ele>
				<time>2015-05-07T06:47:04Z</time>
				<extensions>
				</extensions>
			</trkpt>
			<trkpt lat="-28.177431" lon="152.990948">
				<ele>99</ele>
				<time>2015-05-07T06:47:05Z</time>
				<extensions>
				</extensions>
			</trkpt>
			<trkpt lat="-28.177697" lon="152.990987">
				<ele>99</ele>
				<time>2015-05-07T06:47:06Z</time>
				<extensions>
				</extensions>
			</trkpt>
			<trkpt lat="-28.177955" lon="152.991025">
				<ele>99</ele>
				<time>2015-05-07T06:47:07Z</time>
				<extensions>
				</extensions>
			</trkpt>
			<trkpt lat="-28.178204" lon="152.991065">
				<ele>98</ele>
				<time>2015-05-07T06:47:08Z</time>
				<extensions>
				</extensions>
			</trkpt>
			<trkpt lat="-28.178450" lon="152.991103">
				<ele>98</ele>
				<time>2015-05-07T06:47:09Z</time>
				<extensions>
				</extensions>
			</trkpt>
			<trkpt lat="-28.178706" lon="152.991130">
				<ele>98</ele>
				<time>2015-05-07T06:47:10Z</time>
				<extensions>
				</extensions>
			</trkpt>
			<trkpt lat="-28.178947" lon="152.991176">
				<ele>98</ele>
				<time>2015-05-07T06:47:11Z</time>
				<extensions>
				</extensions>
			</trkpt>
			<trkpt lat="-28.179199" lon="152.991213">
				<ele>98</ele>
				<time>2015-05-07T06:47:12Z</time>
				<extensions>
				</extensions>
			</trkpt>
			<trkpt lat="-28.179451" lon="152.991249">
				<ele>99</ele>
				<time>2015-05-07T06:47:13Z</time>
				<extensions>
				</extensions>
			</trkpt>
			<trkpt lat="-28.179697" lon="152.991290">
				<ele>100</ele>
				<time>2015-05-07T06:47:14Z</time>
				<extensions>
				</extensions>
			</trkpt>
			<trkpt lat="-28.179954" lon="152.991325">
				<ele>100</ele>
				<time>2015-05-07T06:47:15Z</time>
				<extensions>
				</extensions>
			</trkpt>
			<trkpt lat="-28.180212" lon="152.991357">
				<ele>99</ele>
				<time>2015-05-07T06:47:16Z</time>
				<extensions>
				</extensions>
			</trkpt>
			<trkpt lat="-28.180461" lon="152.991395">
				<ele>100</ele>
				<time>2015-05-07T06:47:17Z</time>
				<extensions>
				</extensions>
			</trkpt>
			<trkpt lat="-28.180724" lon="152.991433">
				<ele>101</ele>
				<time>2015-05-07T06:47:18Z</time>
				<extensions>
				</extensions>
			</trkpt>
			<trkpt lat="-28.180985" lon="152.991471">
				<ele>101</ele>
				<time>2015-05-07T06:47:19Z</time>
				<extensions>
				</extensions>
			</trkpt>
			<trkpt lat="-28.181243" lon="152.991503">
				<ele>102</ele>
				<time>2015-05-07T06:47:20Z</time>
				<extensions>
				</extensions>
			</trkpt>
			<trkpt lat="-28.181499" lon="152.991545">
				<ele>101</ele>
				<time>2015-05-07T06:47:21Z</time>
				<extensions>
				</extensions>
			</trkpt>
			<trkpt lat="-28.181755" lon="152.991589">
				<ele>102</ele>
				<time>2015-05-07T06:47:22Z</time>
				<extensions>
				</extensions>
			</trkpt>
			<trkpt lat="-28.182002" lon="152.991632">
				<ele>103</ele>
				<time>2015-05-07T06:47:23Z</time>
				<extensions>
				</extensions>
			</trkpt>
			<trkpt lat="-28.182264" lon="152.991683">
				<ele>103</ele>
				<time>2015-05-07T06:47:24Z</time>
				<extensions>
				</extensions>
			</trkpt>
			<trkpt lat="-28.182519" lon="152.991733">
				<ele>103</ele>
				<time>2015-05-07T06:47:25Z</time>
				<extensions>
				</extensions>
			</trkpt>
			<trkpt lat="-28.182780" lon="152.991805">
				<ele>103</ele>
				<time>2015-05-07T06:47:26Z</time>
				<extensions>
				</extensions>
			</trkpt>
			<trkpt lat="-28.183043" lon="152.991874">
				<ele>104</ele>
				<time>2015-05-07T06:47:27Z</time>
				<extensions>
				</extensions>
			</trkpt>
			<trkpt lat="-28.183302" lon="152.991953">
				<ele>104</ele>
				<time>2015-05-07T06:47:28Z</time>
				<extensions>
				</extensions>
			</trkpt>
			<trkpt lat="-28.183562" lon="152.992033">
				<ele>105</ele>
				<time>2015-05-07T06:47:29Z</time>
				<extensions>
				</extensions>
			</trkpt>
			<trkpt lat="-28.183816" lon="152.992105">
				<ele>105</ele>
				<time>2015-05-07T06:47:30Z</time>
				<extensions>
				</extensions>
			</trkpt>
			<trkpt lat="-28.184066" lon="152.992167">
				<ele>103</ele>
				<time>2015-05-07T06:47:31Z</time>
				<extensions>
				</extensions>
			</trkpt>
			<trkpt lat="-28.184312" lon="152.992233">
				<ele>102</ele>
				<time>2015-05-07T06:47:32Z</time>
				<extensions>
				</extensions>
			</trkpt>
			<trkpt lat="-28.184546" lon="152.992307">
				<ele>100</ele>
				<time>2015-05-07T06:47:33Z</time>
				<extensions>
				</extensions>
			</trkpt>
			<trkpt lat="-28.184770" lon="152.992367">
				<ele>100</ele>
				<time>2015-05-07T06:47:34Z</time>
				<extensions>
				</extensions>
			</trkpt>
			<trkpt lat="-28.184996" lon="152.992434">
				<ele>99</ele>
				<time>2015-05-07T06:47:35Z</time>
				<extensions>
				</extensions>
			</trkpt>
			<trkpt lat="-28.185216" lon="152.992494">
				<ele>98</ele>
				<time>2015-05-07T06:47:36Z</time>
				<extensions>
				</extensions>
			</trkpt>
			<trkpt lat="-28.185423" lon="152.992564">
				<ele>97</ele>
				<time>2015-05-07T06:47:37Z</time>
				<extensions>
				</extensions>
			</trkpt>
			<trkpt lat="-28.185633" lon="152.992637">
				<ele>97</ele>
				<time>2015-05-07T06:47:38Z</time>
				<extensions>
				</extensions>
			</trkpt>
			<trkpt lat="-28.185843" lon="152.992725">
				<ele>98</ele>
				<time>2015-05-07T06:47:39Z</time>
				<extensions>
				</extensions>
			</trkpt>
			<trkpt lat="-28.186040" lon="152.992837">
				<ele>98</ele>
				<time>2015-05-07T06:47:40Z</time>
				<extensions>
				</extensions>
			</trkpt>
			<trkpt lat="-28.186225" lon="152.992960">
				<ele>98</ele>
				<time>2015-05-07T06:47:41Z</time>
				<extensions>
				</extensions>
			</trkpt>
			<trkpt lat="-28.186410" lon="152.993104">
				<ele>99</ele>
				<time>2015-05-07T06:47:42Z</time>
				<extensions>
				</extensions>
			</trkpt>
			<trkpt lat="-28.186581" lon="152.993269">
				<ele>99</ele>
				<time>2015-05-07T06:47:43Z</time>
				<extensions>
				</extensions>
			</trkpt>
			<trkpt lat="-28.186741" lon="152.993453">
				<ele>99</ele>
				<time>2015-05-07T06:47:44Z</time>
				<extensions>
				</extensions>
			</trkpt>
			<trkpt lat="-28.186885" lon="152.993639">
				<ele>101</ele>
				<time>2015-05-07T06:47:45Z</time>
				<extensions>
				</extensions>
			</trkpt>
			<trkpt lat="-28.187036" lon="152.993866">
				<ele>102</ele>
				<time>2015-05-07T06:47:46Z</time>
				<extensions>
				</extensions>
			</trkpt>
			<trkpt lat="-28.187181" lon="152.994098">
				<ele>104</ele>
				<time>2015-05-07T06:47:47Z</time>
				<extensions>
				</extensions>
			</trkpt>
			<trkpt lat="-28.187321" lon="152.994321">
				<ele>103</ele>
				<time>2015-05-07T06:47:48Z</time>
				<extensions>
				</extensions>
			</trkpt>
			<trkpt lat="-28.187461" lon="152.994534">
				<ele>101</ele>
				<time>2015-05-07T06:47:49Z</time>
				<extensions>
				</extensions>
			</trkpt>
			<trkpt lat="-28.187592" lon="152.994733">
				<ele>101</ele>
				<time>2015-05-07T06:47:50Z</time>
				<extensions>
				</extensions>
			</trkpt>
			<trkpt lat="-28.187707" lon="152.994926">
				<ele>98</ele>
				<time>2015-05-07T06:47:51Z</time>
				<extensions>
				</extensions>
			</trkpt>
			<trkpt lat="-28.187822" lon="152.995117">
				<ele>96</ele>
				<time>2015-05-07T06:47:52Z</time>
				<extensions>
				</extensions>
			</trkpt>
			<trkpt lat="-28.187931" lon="152.995307">
				<ele>94</ele>
				<time>2015-05-07T06:47:53Z</time>
				<extensions>
				</extensions>
			</trkpt>
			<trkpt lat="-28.188137" lon="152.995640">
				<ele>92</ele>
				<time>2015-05-07T06:47:55Z</time>
				<extensions>
				</extensions>
			</trkpt>
			<trkpt lat="-28.188331" lon="152.995944">
				<ele>90</ele>
				<time>2015-05-07T06:47:57Z</time>
				<extensions>
				</extensions>
			</trkpt>
			<trkpt lat="-28.188527" lon="152.996244">
				<ele>91</ele>
				<time>2015-05-07T06:47:59Z</time>
				<extensions>
				</extensions>
			</trkpt>
			<trkpt lat="-28.188626" lon="152.996422">
				<ele>93</ele>
				<time>2015-05-07T06:48:00Z</time>
				<extensions>
				</extensions>
			</trkpt>
			<trkpt lat="-28.188731" lon="152.996601">
				<ele>95</ele>
				<time>2015-05-07T06:48:01Z</time>
				<extensions>
				</extensions>
			</trkpt>
			<trkpt lat="-28.188849" lon="152.996787">
				<ele>96</ele>
				<time>2015-05-07T06:48:02Z</time>
				<extensions>
				</extensions>
			</trkpt>
			<trkpt lat="-28.188980" lon="152.996986">
				<ele>100</ele>
				<time>2015-05-07T06:48:03Z</time>
				<extensions>
				</extensions>
			</trkpt>
			<trkpt lat="-28.189110" lon="152.997192">
				<ele>102</ele>
				<time>2015-05-07T06:48:04Z</time>
				<extensions>
				</extensions>
			</trkpt>
			<trkpt lat="-28.189243" lon="152.997416">
				<ele>102</ele>
				<time>2015-05-07T06:48:05Z</time>
				<extensions>
				</extensions>
			</trkpt>
			<trkpt lat="-28.189381" lon="152.997637">
				<ele>104</ele>
				<time>2015-05-07T06:48:06Z</time>
				<extensions>
				</extensions>
			</trkpt>
			<trkpt lat="-28.189541" lon="152.997866">
				<ele>103</ele>
				<time>2015-05-07T06:48:07Z</time>
				<extensions>
				</extensions>
			</trkpt>
			<trkpt lat="-28.189677" lon="152.998083">
				<ele>103</ele>
				<time>2015-05-07T06:48:08Z</time>
				<extensions>
				</extensions>
			</trkpt>
			<trkpt lat="-28.189824" lon="152.998296">
				<ele>103</ele>
				<time>2015-05-07T06:48:09Z</time>
				<extensions>
				</extensions>
			</trkpt>
			<trkpt lat="-28.189982" lon="152.998508">
				<ele>103</ele>
				<time>2015-05-07T06:48:10Z</time>
				<extensions>
				</extensions>
			</trkpt>
			<trkpt lat="-28.190143" lon="152.998723">
				<ele>103</ele>
				<time>2015-05-07T06:48:11Z</time>
				<extensions>
				</extensions>
			</trkpt>
			<trkpt lat="-28.190305" lon="152.998931">
				<ele>104</ele>
				<time>2015-05-07T06:48:12Z</time>
				<extensions>
				</extensions>
			</trkpt>
			<trkpt lat="-28.190480" lon="152.999144">
				<ele>104</ele>
				<time>2015-05-07T06:48:13Z</time>
				<extensions>
				</extensions>
			</trkpt>
			<trkpt lat="-28.190649" lon="152.999355">
				<ele>105</ele>
				<time>2015-05-07T06:48:14Z</time>
				<extensions>
				</extensions>
			</trkpt>
			<trkpt lat="-28.190820" lon="152.999560">
				<ele>104</ele>
				<time>2015-05-07T06:48:15Z</time>
				<extensions>
				</extensions>
			</trkpt>
			<trkpt lat="-28.190998" lon="152.999761">
				<ele>104</ele>
				<time>2015-05-07T06:48:16Z</time>
				<extensions>
				</extensions>
			</trkpt>
			<trkpt lat="-28.191155" lon="152.999963">
				<ele>104</ele>
				<time>2015-05-07T06:48:17Z</time>
				<extensions>
				</extensions>
			</trkpt>
			<trkpt lat="-28.191321" lon="153.000172">
				<ele>104</ele>
				<time>2015-05-07T06:48:18Z</time>
				<extensions>
				</extensions>
			</trkpt>
			<trkpt lat="-28.191483" lon="153.000382">
				<ele>104</ele>
				<time>2015-05-07T06:48:19Z</time>
				<extensions>
				</extensions>
			</trkpt>
			<trkpt lat="-28.191640" lon="153.000577">
				<ele>104</ele>
				<time>2015-05-07T06:48:20Z</time>
				<extensions>
				</extensions>
			</trkpt>
			<trkpt lat="-28.191809" lon="153.000797">
				<ele>106</ele>
				<time>2015-05-07T06:48:21Z</time>
				<extensions>
				</extensions>
			</trkpt>
			<trkpt lat="-28.191967" lon="153.001014">
				<ele>106</ele>
				<time>2015-05-07T06:48:22Z</time>
				<extensions>
				</extensions>
			</trkpt>
			<trkpt lat="-28.192123" lon="153.001224">
				<ele>106</ele>
				<time>2015-05-07T06:48:23Z</time>
				<extensions>
				</extensions>
			</trkpt>
			<trkpt lat="-28.192280" lon="153.001445">
				<ele>106</ele>
				<time>2015-05-07T06:48:24Z</time>
				<extensions>
				</extensions>
			</trkpt>
			<trkpt lat="-28.192440" lon="153.001669">
				<ele>104</ele>
				<time>2015-05-07T06:48:25Z</time>
				<extensions>
				</extensions>
			</trkpt>
			<trkpt lat="-28.192597" lon="153.001894">
				<ele>104</ele>
				<time>2015-05-07T06:48:26Z</time>
				<extensions>
				</extensions>
			</trkpt>
			<trkpt lat="-28.192756" lon="153.002110">
				<ele>106</ele>
				<time>2015-05-07T06:48:27Z</time>
				<extensions>
				</extensions>
			</trkpt>
			<trkpt lat="-28.192915" lon="153.002337">
				<ele>105</ele>
				<time>2015-05-07T06:48:28Z</time>
				<extensions>
				</extensions>
			</trkpt>
			<trkpt lat="-28.193075" lon="153.002552">
				<ele>106</ele>
				<time>2015-05-07T06:48:29Z</time>
				<extensions>
				</extensions>
			</trkpt>
			<trkpt lat="-28.193222" lon="153.002752">
				<ele>103</ele>
				<time>2015-05-07T06:48:30Z</time>
				<extensions>
				</extensions>
			</trkpt>
			<trkpt lat="-28.193370" lon="153.002937">
				<ele>102</ele>
				<time>2015-05-07T06:48:31Z</time>
				<extensions>
				</extensions>
			</trkpt>
			<trkpt lat="-28.193517" lon="153.003114">
				<ele>100</ele>
				<time>2015-05-07T06:48:32Z</time>
				<extensions>
				</extensions>
			</trkpt>
			<trkpt lat="-28.193663" lon="153.003272">
				<ele>98</ele>
				<time>2015-05-07T06:48:33Z</time>
				<extensions>
				</extensions>
			</trkpt>
			<trkpt lat="-28.193821" lon="153.003412">
				<ele>97</ele>
				<time>2015-05-07T06:48:34Z</time>
				<extensions>
				</extensions>
			</trkpt>
			<trkpt lat="-28.193979" lon="153.003536">
				<ele>95</ele>
				<time>2015-05-07T06:48:35Z</time>
				<extensions>
				</extensions>
			</trkpt>
			<trkpt lat="-28.194287" lon="153.003727">
				<ele>95</ele>
				<time>2015-05-07T06:48:37Z</time>
				<extensions>
				</extensions>
			</trkpt>
			<trkpt lat="-28.194446" lon="153.003825">
				<ele>97</ele>
				<time>2015-05-07T06:48:38Z</time>
				<extensions>
				</extensions>
			</trkpt>
			<trkpt lat="-28.194615" lon="153.003936">
				<ele>98</ele>
				<time>2015-05-07T06:48:39Z</time>
				<extensions>
				</extensions>
			</trkpt>
			<trkpt lat="-28.194781" lon="153.004054">
				<ele>100</ele>
				<time>2015-05-07T06:48:40Z</time>
				<extensions>
				</extensions>
			</trkpt>
			<trkpt lat="-28.194945" lon="153.004170">
				<ele>101</ele>
				<time>2015-05-07T06:48:41Z</time>
				<extensions>
				</extensions>
			</trkpt>
			<trkpt lat="-28.195112" lon="153.004290">
				<ele>102</ele>
				<time>2015-05-07T06:48:42Z</time>
				<extensions>
				</extensions>
			</trkpt>
			<trkpt lat="-28.195294" lon="153.004422">
				<ele>103</ele>
				<time>2015-05-07T06:48:43Z</time>
				<extensions>
				</extensions>
			</trkpt>
			<trkpt lat="-28.195476" lon="153.004547">
				<ele>104</ele>
				<time>2015-05-07T06:48:44Z</time>
				<extensions>
				</extensions>
			</trkpt>
			<trkpt lat="-28.195664" lon="153.004675">
				<ele>104</ele>
				<time>2015-05-07T06:48:45Z</time>
				<extensions>
				</extensions>
			</trkpt>
			<trkpt lat="-28.195860" lon="153.004788">
				<ele>104</ele>
				<time>2015-05-07T06:48:46Z</time>
				<extensions>
				</extensions>
			</trkpt>
			<trkpt lat="-28.196062" lon="153.004876">
				<ele>104</ele>
				<time>2015-05-07T06:48:47Z</time>
				<extensions>
				</extensions>
			</trkpt>
			<trkpt lat="-28.196276" lon="153.004954">
				<ele>104</ele>
				<time>2015-05-07T06:48:48Z</time>
				<extensions>
				</extensions>
			</trkpt>
			<trkpt lat="-28.196483" lon="153.005022">
				<ele>104</ele>
				<time>2015-05-07T06:48:49Z</time>
				<extensions>
				</extensions>
			</trkpt>
			<trkpt lat="-28.196702" lon="153.005086">
				<ele>105</ele>
				<time>2015-05-07T06:48:50Z</time>
				<extensions>
				</extensions>
			</trkpt>
			<trkpt lat="-28.196925" lon="153.005155">
				<ele>108</ele>
				<time>2015-05-07T06:48:51Z</time>
				<extensions>
				</extensions>
			</trkpt>
			<trkpt lat="-28.197158" lon="153.005227">
				<ele>109</ele>
				<time>2015-05-07T06:48:52Z</time>
				<extensions>
				</extensions>
			</trkpt>
			<trkpt lat="-28.197391" lon="153.005300">
				<ele>109</ele>
				<time>2015-05-07T06:48:53Z</time>
				<extensions>
				</extensions>
			</trkpt>
			<trkpt lat="-28.197615" lon="153.005369">
				<ele>108</ele>
				<time>2015-05-07T06:48:54Z</time>
				<extensions>
				</extensions>
			</trkpt>
			<trkpt lat="-28.197857" lon="153.005440">
				<ele>107</ele>
				<time>2015-05-07T06:48:55Z</time>
				<extensions>
				</extensions>
			</trkpt>
			<trkpt lat="-28.198075" lon="153.005502">
				<ele>107</ele>
				<time>2015-05-07T06:48:56Z</time>
				<extensions>
				</extensions>
			</trkpt>
			<trkpt lat="-28.198300" lon="153.005561">
				<ele>107</ele>
				<time>2015-05-07T06:48:57Z</time>
				<extensions>
				</extensions>
			</trkpt>
			<trkpt lat="-28.198532" lon="153.005616">
				<ele>108</ele>
				<time>2015-05-07T06:48:58Z</time>
				<extensions>
				</extensions>
			</trkpt>
			<trkpt lat="-28.198763" lon="153.005663">
				<ele>109</ele>
				<time>2015-05-07T06:48:59Z</time>
				<extensions>
				</extensions>
			</trkpt>
			<trkpt lat="-28.198998" lon="153.005712">
				<ele>109</ele>
				<time>2015-05-07T06:49:00Z</time>
				<extensions>
				</extensions>
			</trkpt>
			<trkpt lat="-28.199234" lon="153.005761">
				<ele>107</ele>
				<time>2015-05-07T06:49:01Z</time>
				<extensions>
				</extensions>
			</trkpt>
			<trkpt lat="-28.199455" lon="153.005810">
				<ele>108</ele>
				<time>2015-05-07T06:49:02Z</time>
				<extensions>
				</extensions>
			</trkpt>
			<trkpt lat="-28.199675" lon="153.005848">
				<ele>107</ele>
				<time>2015-05-07T06:49:03Z</time>
				<extensions>
				</extensions>
			</trkpt>
			<trkpt lat="-28.199894" lon="153.005876">
				<ele>107</ele>
				<time>2015-05-07T06:49:04Z</time>
				<extensions>
				</extensions>
			</trkpt>
			<trkpt lat="-28.200093" lon="153.005871">
				<ele>106</ele>
				<time>2015-05-07T06:49:05Z</time>
				<extensions>
				</extensions>
			</trkpt>
			<trkpt lat="-28.200303" lon="153.005845">
				<ele>104</ele>
				<time>2015-05-07T06:49:06Z</time>
				<extensions>
				</extensions>
			</trkpt>
			<trkpt lat="-28.200506" lon="153.005794">
				<ele>104</ele>
				<time>2015-05-07T06:49:07Z</time>
				<extensions>
				</extensions>
			</trkpt>
			<trkpt lat="-28.200714" lon="153.005726">
				<ele>106</ele>
				<time>2015-05-07T06:49:08Z</time>
				<extensions>
				</extensions>
			</trkpt>
			<trkpt lat="-28.200942" lon="153.005656">
				<ele>107</ele>
				<time>2015-05-07T06:49:09Z</time>
				<extensions>
				</extensions>
			</trkpt>
			<trkpt lat="-28.201176" lon="153.005585">
				<ele>110</ele>
				<time>2015-05-07T06:49:10Z</time>
				<extensions>
				</extensions>
			</trkpt>
			<trkpt lat="-28.201428" lon="153.005509">
				<ele>113</ele>
				<time>2015-05-07T06:49:11Z</time>
				<extensions>
				</extensions>
			</trkpt>
			<trkpt lat="-28.201699" lon="153.005428">
				<ele>115</ele>
				<time>2015-05-07T06:49:12Z</time>
				<extensions>
				</extensions>
			</trkpt>
			<trkpt lat="-28.201962" lon="153.005350">
				<ele>117</ele>
				<time>2015-05-07T06:49:13Z</time>
				<extensions>
				</extensions>
			</trkpt>
			<trkpt lat="-28.202227" lon="153.005272">
				<ele>114</ele>
				<time>2015-05-07T06:49:14Z</time>
				<extensions>
				</extensions>
			</trkpt>
			<trkpt lat="-28.202477" lon="153.005198">
				<ele>115</ele>
				<time>2015-05-07T06:49:15Z</time>
				<extensions>
				</extensions>
			</trkpt>
			<trkpt lat="-28.202732" lon="153.005123">
				<ele>114</ele>
				<time>2015-05-07T06:49:16Z</time>
				<extensions>
				</extensions>
			</trkpt>
			<trkpt lat="-28.202979" lon="153.005050">
				<ele>112</ele>
				<time>2015-05-07T06:49:17Z</time>
				<extensions>
				</extensions>
			</trkpt>
			<trkpt lat="-28.203230" lon="153.004985">
				<ele>111</ele>
				<time>2015-05-07T06:49:18Z</time>
				<extensions>
				</extensions>
			</trkpt>
			<trkpt lat="-28.203456" lon="153.004916">
				<ele>108</ele>
				<time>2015-05-07T06:49:19Z</time>
				<extensions>
				</extensions>
			</trkpt>
			<trkpt lat="-28.203672" lon="153.004861">
				<ele>107</ele>
				<time>2015-05-07T06:49:20Z</time>
				<extensions>
				</extensions>
			</trkpt>
			<trkpt lat="-28.203889" lon="153.004800">
				<ele>107</ele>
				<time>2015-05-07T06:49:21Z</time>
				<extensions>
				</extensions>
			</trkpt>
			<trkpt lat="-28.204099" lon="153.004736">
				<ele>106</ele>
				<time>2015-05-07T06:49:22Z</time>
				<extensions>
				</extensions>
			</trkpt>
			<trkpt lat="-28.204322" lon="153.004668">
				<ele>107</ele>
				<time>2015-05-07T06:49:23Z</time>
				<extensions>
				</extensions>
			</trkpt>
			<trkpt lat="-28.204537" lon="153.004599">
				<ele>108</ele>
				<time>2015-05-07T06:49:24Z</time>
				<extensions>
				</extensions>
			</trkpt>
			<trkpt lat="-28.204740" lon="153.004531">
				<ele>109</ele>
				<time>2015-05-07T06:49:25Z</time>
				<extensions>
				</extensions>
			</trkpt>
			<trkpt lat="-28.204944" lon="153.004466">
				<ele>107</ele>
				<time>2015-05-07T06:49:26Z</time>
				<extensions>
				</extensions>
			</trkpt>
			<trkpt lat="-28.205138" lon="153.004407">
				<ele>107</ele>
				<time>2015-05-07T06:49:27Z</time>
				<extensions>
				</extensions>
			</trkpt>
			<trkpt lat="-28.205321" lon="153.004353">
				<ele>105</ele>
				<time>2015-05-07T06:49:28Z</time>
				<extensions>
				</extensions>
			</trkpt>
			<trkpt lat="-28.205502" lon="153.004298">
				<ele>103</ele>
				<time>2015-05-07T06:49:29Z</time>
				<extensions>
				</extensions>
			</trkpt>
			<trkpt lat="-28.205829" lon="153.004201">
				<ele>101</ele>
				<time>2015-05-07T06:49:31Z</time>
				<extensions>
				</extensions>
			</trkpt>
			<trkpt lat="-28.206133" lon="153.004112">
				<ele>101</ele>
				<time>2015-05-07T06:49:33Z</time>
				<extensions>
				</extensions>
			</trkpt>
			<trkpt lat="-28.206441" lon="153.004021">
				<ele>101</ele>
				<time>2015-05-07T06:49:35Z</time>
				<extensions>
				</extensions>
			</trkpt>
			<trkpt lat="-28.206748" lon="153.003939">
				<ele>102</ele>
				<time>2015-05-07T06:49:37Z</time>
				<extensions>
				</extensions>
			</trkpt>
			<trkpt lat="-28.207057" lon="153.003910">
				<ele>102</ele>
				<time>2015-05-07T06:49:39Z</time>
				<extensions>
				</extensions>
			</trkpt>
			<trkpt lat="-28.207363" lon="153.003941">
				<ele>103</ele>
				<time>2015-05-07T06:49:41Z</time>
				<extensions>
				</extensions>
			</trkpt>
			<trkpt lat="-28.207653" lon="153.004012">
				<ele>103</ele>
				<time>2015-05-07T06:49:43Z</time>
				<extensions>
				</extensions>
			</trkpt>
			<trkpt lat="-28.207955" lon="153.004098">
				<ele>103</ele>
				<time>2015-05-07T06:49:45Z</time>
				<extensions>
				</extensions>
			</trkpt>
			<trkpt lat="-28.208244" lon="153.004186">
				<ele>103</ele>
				<time>2015-05-07T06:49:47Z</time>
				<extensions>
				</extensions>
			</trkpt>
			<trkpt lat="-28.208537" lon="153.004223">
				<ele>103</ele>
				<time>2015-05-07T06:49:49Z</time>
				<extensions>
				</extensions>
			</trkpt>
			<trkpt lat="-28.208832" lon="153.004224">
				<ele>104</ele>
				<time>2015-05-07T06:49:51Z</time>
				<extensions>
				</extensions>
			</trkpt>
			<trkpt lat="-28.209129" lon="153.004218">
				<ele>105</ele>
				<time>2015-05-07T06:49:53Z</time>
				<extensions>
				</extensions>
			</trkpt>
			<trkpt lat="-28.209445" lon="153.004233">
				<ele>105</ele>
				<time>2015-05-07T06:49:55Z</time>
				<extensions>
				</extensions>
			</trkpt>
			<trkpt lat="-28.209745" lon="153.004275">
				<ele>106</ele>
				<time>2015-05-07T06:49:57Z</time>
				<extensions>
				</extensions>
			</trkpt>
			<trkpt lat="-28.210037" lon="153.004337">
				<ele>105</ele>
				<time>2015-05-07T06:49:59Z</time>
				<extensions>
				</extensions>
			</trkpt>
			<trkpt lat="-28.210346" lon="153.004407">
				<ele>105</ele>
				<time>2015-05-07T06:50:01Z</time>
				<extensions>
				</extensions>
			</trkpt>
			<trkpt lat="-28.210636" lon="153.004477">
				<ele>106</ele>
				<time>2015-05-07T06:50:03Z</time>
				<extensions>
				</extensions>
			</trkpt>
			<trkpt lat="-28.210934" lon="153.004496">
				<ele>105</ele>
				<time>2015-05-07T06:50:05Z</time>
				<extensions>
				</extensions>
			</trkpt>
			<trkpt lat="-28.211229" lon="153.004487">
				<ele>104</ele>
				<time>2015-05-07T06:50:07Z</time>
				<extensions>
				</extensions>
			</trkpt>
			<trkpt lat="-28.211513" lon="153.004475">
				<ele>104</ele>
				<time>2015-05-07T06:50:09Z</time>
				<extensions>
				</extensions>
			</trkpt>
			<trkpt lat="-28.211809" lon="153.004459">
				<ele>104</ele>
				<time>2015-05-07T06:50:11Z</time>
				<extensions>
				</extensions>
			</trkpt>
			<trkpt lat="-28.212122" lon="153.004464">
				<ele>106</ele>
				<time>2015-05-07T06:50:13Z</time>
				<extensions>
				</extensions>
			</trkpt>
			<trkpt lat="-28.212432" lon="153.004493">
				<ele>105</ele>
				<time>2015-05-07T06:50:15Z</time>
				<extensions>
				</extensions>
			</trkpt>
			<trkpt lat="-28.212744" lon="153.004576">
				<ele>106</ele>
				<time>2015-05-07T06:50:17Z</time>
				<extensions>
				</extensions>
			</trkpt>
			<trkpt lat="-28.213025" lon="153.004739">
				<ele>106</ele>
				<time>2015-05-07T06:50:19Z</time>
				<extensions>
				</extensions>
			</trkpt>
			<trkpt lat="-28.213214" lon="153.004948">
				<ele>105</ele>
				<time>2015-05-07T06:50:21Z</time>
				<extensions>
				</extensions>
			</trkpt>
			<trkpt lat="-28.213423" lon="153.005138">
				<ele>105</ele>
				<time>2015-05-07T06:50:23Z</time>
				<extensions>
				</extensions>
			</trkpt>
			<trkpt lat="-28.213638" lon="153.005250">
				<ele>105</ele>
				<time>2015-05-07T06:50:25Z</time>
				<extensions>
				</extensions>
			</trkpt>
			<trkpt lat="-28.213866" lon="153.005278">
				<ele>103</ele>
				<time>2015-05-07T06:50:27Z</time>
				<extensions>
				</extensions>
			</trkpt>
			<trkpt lat="-28.214089" lon="153.005258">
				<ele>100</ele>
				<time>2015-05-07T06:50:30Z</time>
				<extensions>
				</extensions>
			</trkpt>
			<trkpt lat="-28.214287" lon="153.005377">
				<ele>103</ele>
				<time>2015-05-07T06:50:35Z</time>
				<extensions>
				</extensions>
			</trkpt>
			<trkpt lat="-28.214400" lon="153.005536">
				<ele>105</ele>
				<time>2015-05-07T06:50:37Z</time>
				<extensions>
				</extensions>
			</trkpt>
			<trkpt lat="-28.214529" lon="153.005764">
				<ele>107</ele>
				<time>2015-05-07T06:50:39Z</time>
				<extensions>
				</extensions>
			</trkpt>
			<trkpt lat="-28.214645" lon="153.006027">
				<ele>109</ele>
				<time>2015-05-07T06:50:41Z</time>
				<extensions>
				</extensions>
			</trkpt>
			<trkpt lat="-28.214731" lon="153.006335">
				<ele>110</ele>
				<time>2015-05-07T06:50:43Z</time>
				<extensions>
				</extensions>
			</trkpt>
			<trkpt lat="-28.214789" lon="153.006631">
				<ele>108</ele>
				<time>2015-05-07T06:50:45Z</time>
				<extensions>
				</extensions>
			</trkpt>
			<trkpt lat="-28.214853" lon="153.006882">
				<ele>108</ele>
				<time>2015-05-07T06:50:47Z</time>
				<extensions>
				</extensions>
			</trkpt>
			<trkpt lat="-28.214956" lon="153.007126">
				<ele>108</ele>
				<time>2015-05-07T06:50:49Z</time>
				<extensions>
				</extensions>
			</trkpt>
			<trkpt lat="-28.215130" lon="153.007341">
				<ele>110</ele>
				<time>2015-05-07T06:50:51Z</time>
				<extensions>
				</extensions>
			</trkpt>
			<trkpt lat="-28.215363" lon="153.007531">
				<ele>112</ele>
				<time>2015-05-07T06:50:53Z</time>
				<extensions>
				</extensions>
			</trkpt>
			<trkpt lat="-28.215599" lon="153.007717">
				<ele>112</ele>
				<time>2015-05-07T06:50:55Z</time>
				<extensions>
				</extensions>
			</trkpt>
			<trkpt lat="-28.215796" lon="153.007917">
				<ele>112</ele>
				<time>2015-05-07T06:50:57Z</time>
				<extensions>
				</extensions>
			</trkpt>
			<trkpt lat="-28.215946" lon="153.008172">
				<ele>113</ele>
				<time>2015-05-07T06:50:59Z</time>
				<extensions>
				</extensions>
			</trkpt>
			<trkpt lat="-28.216026" lon="153.008483">
				<ele>114</ele>
				<time>2015-05-07T06:51:01Z</time>
				<extensions>
				</extensions>
			</trkpt>
			<trkpt lat="-28.216084" lon="153.008850">
				<ele>116</ele>
				<time>2015-05-07T06:51:03Z</time>
				<extensions>
				</extensions>
			</trkpt>
			<trkpt lat="-28.216111" lon="153.009054">
				<ele>117</ele>
				<time>2015-05-07T06:51:04Z</time>
				<extensions>
				</extensions>
			</trkpt>
			<trkpt lat="-28.216146" lon="153.009259">
				<ele>118</ele>
				<time>2015-05-07T06:51:05Z</time>
				<extensions>
				</extensions>
			</trkpt>
			<trkpt lat="-28.216182" lon="153.009461">
				<ele>119</ele>
				<time>2015-05-07T06:51:06Z</time>
				<extensions>
				</extensions>
			</trkpt>
			<trkpt lat="-28.216223" lon="153.009675">
				<ele>120</ele>
				<time>2015-05-07T06:51:07Z</time>
				<extensions>
				</extensions>
			</trkpt>
			<trkpt lat="-28.216246" lon="153.009879">
				<ele>120</ele>
				<time>2015-05-07T06:51:08Z</time>
				<extensions>
				</extensions>
			</trkpt>
			<trkpt lat="-28.216279" lon="153.010097">
				<ele>120</ele>
				<time>2015-05-07T06:51:09Z</time>
				<extensions>
				</extensions>
			</trkpt>
			<trkpt lat="-28.216315" lon="153.010312">
				<ele>120</ele>
				<time>2015-05-07T06:51:10Z</time>
				<extensions>
				</extensions>
			</trkpt>
			<trkpt lat="-28.216351" lon="153.010527">
				<ele>120</ele>
				<time>2015-05-07T06:51:11Z</time>
				<extensions>
				</extensions>
			</trkpt>
			<trkpt lat="-28.216385" lon="153.010741">
				<ele>120</ele>
				<time>2015-05-07T06:51:12Z</time>
				<extensions>
				</extensions>
			</trkpt>
			<trkpt lat="-28.216411" lon="153.010951">
				<ele>120</ele>
				<time>2015-05-07T06:51:13Z</time>
				<extensions>
				</extensions>
			</trkpt>
			<trkpt lat="-28.216446" lon="153.011161">
				<ele>119</ele>
				<time>2015-05-07T06:51:14Z</time>
				<extensions>
				</extensions>
			</trkpt>
			<trkpt lat="-28.216474" lon="153.011370">
				<ele>120</ele>
				<time>2015-05-07T06:51:15Z</time>
				<extensions>
				</extensions>
			</trkpt>
			<trkpt lat="-28.216524" lon="153.011760">
				<ele>119</ele>
				<time>2015-05-07T06:51:17Z</time>
				<extensions>
				</extensions>
			</trkpt>
			<trkpt lat="-28.216570" lon="153.012120">
				<ele>118</ele>
				<time>2015-05-07T06:51:19Z</time>
				<extensions>
				</extensions>
			</trkpt>
			<trkpt lat="-28.216628" lon="153.012453">
				<ele>117</ele>
				<time>2015-05-07T06:51:21Z</time>
				<extensions>
				</extensions>
			</trkpt>
			<trkpt lat="-28.216726" lon="153.012789">
				<ele>116</ele>
				<time>2015-05-07T06:51:23Z</time>
				<extensions>
				</extensions>
			</trkpt>
			<trkpt lat="-28.216844" lon="153.013124">
				<ele>119</ele>
				<time>2015-05-07T06:51:25Z</time>
				<extensions>
				</extensions>
			</trkpt>
			<trkpt lat="-28.216948" lon="153.013300">
				<ele>119</ele>
				<time>2015-05-07T06:51:26Z</time>
				<extensions>
				</extensions>
			</trkpt>
			<trkpt lat="-28.217043" lon="153.013475">
				<ele>119</ele>
				<time>2015-05-07T06:51:27Z</time>
				<extensions>
				</extensions>
			</trkpt>
			<trkpt lat="-28.217148" lon="153.013652">
				<ele>120</ele>
				<time>2015-05-07T06:51:28Z</time>
				<extensions>
				</extensions>
			</trkpt>
			<trkpt lat="-28.217273" lon="153.013845">
				<ele>122</ele>
				<time>2015-05-07T06:51:29Z</time>
				<extensions>
				</extensions>
			</trkpt>
			<trkpt lat="-28.217414" lon="153.014039">
				<ele>124</ele>
				<time>2015-05-07T06:51:30Z</time>
				<extensions>
				</extensions>
			</trkpt>
			<trkpt lat="-28.217557" lon="153.014238">
				<ele>125</ele>
				<time>2015-05-07T06:51:31Z</time>
				<extensions>
				</extensions>
			</trkpt>
			<trkpt lat="-28.217696" lon="153.014444">
				<ele>127</ele>
				<time>2015-05-07T06:51:32Z</time>
				<extensions>
				</extensions>
			</trkpt>
			<trkpt lat="-28.217828" lon="153.014654">
				<ele>128</ele>
				<time>2015-05-07T06:51:33Z</time>
				<extensions>
				</extensions>
			</trkpt>
			<trkpt lat="-28.217963" lon="153.014865">
				<ele>129</ele>
				<time>2015-05-07T06:51:34Z</time>
				<extensions>
				</extensions>
			</trkpt>
			<trkpt lat="-28.218102" lon="153.015078">
				<ele>129</ele>
				<time>2015-05-07T06:51:35Z</time>
				<extensions>
				</extensions>
			</trkpt>
			<trkpt lat="-28.218244" lon="153.015301">
				<ele>129</ele>
				<time>2015-05-07T06:51:36Z</time>
				<extensions>
				</extensions>
			</trkpt>
			<trkpt lat="-28.218383" lon="153.015523">
				<ele>130</ele>
				<time>2015-05-07T06:51:37Z</time>
				<extensions>
				</extensions>
			</trkpt>
			<trkpt lat="-28.218517" lon="153.015731">
				<ele>131</ele>
				<time>2015-05-07T06:51:38Z</time>
				<extensions>
				</extensions>
			</trkpt>
			<trkpt lat="-28.218655" lon="153.015940">
				<ele>131</ele>
				<time>2015-05-07T06:51:39Z</time>
				<extensions>
				</extensions>
			</trkpt>
			<trkpt lat="-28.218797" lon="153.016153">
				<ele>132</ele>
				<time>2015-05-07T06:51:40Z</time>
				<extensions>
				</extensions>
			</trkpt>
			<trkpt lat="-28.218939" lon="153.016374">
				<ele>134</ele>
				<time>2015-05-07T06:51:41Z</time>
				<extensions>
				</extensions>
			</trkpt>
			<trkpt lat="-28.219084" lon="153.016602">
				<ele>136</ele>
				<time>2015-05-07T06:51:42Z</time>
				<extensions>
				</extensions>
			</trkpt>
			<trkpt lat="-28.219223" lon="153.016835">
				<ele>137</ele>
				<time>2015-05-07T06:51:43Z</time>
				<extensions>
				</extensions>
			</trkpt>
			<trkpt lat="-28.219365" lon="153.017056">
				<ele>137</ele>
				<time>2015-05-07T06:51:44Z</time>
				<extensions>
				</extensions>
			</trkpt>
			<trkpt lat="-28.219510" lon="153.017279">
				<ele>136</ele>
				<time>2015-05-07T06:51:45Z</time>
				<extensions>
				</extensions>
			</trkpt>
			<trkpt lat="-28.219652" lon="153.017495">
				<ele>137</ele>
				<time>2015-05-07T06:51:46Z</time>
				<extensions>
				</extensions>
			</trkpt>
			<trkpt lat="-28.219788" lon="153.017717">
				<ele>138</ele>
				<time>2015-05-07T06:51:47Z</time>
				<extensions>
				</extensions>
			</trkpt>
			<trkpt lat="-28.219930" lon="153.017940">
				<ele>138</ele>
				<time>2015-05-07T06:51:48Z</time>
				<extensions>
				</extensions>
			</trkpt>
			<trkpt lat="-28.220072" lon="153.018175">
				<ele>138</ele>
				<time>2015-05-07T06:51:49Z</time>
				<extensions>
				</extensions>
			</trkpt>
			<trkpt lat="-28.220219" lon="153.018407">
				<ele>139</ele>
				<time>2015-05-07T06:51:50Z</time>
				<extensions>
				</extensions>
			</trkpt>
			<trkpt lat="-28.220372" lon="153.018645">
				<ele>141</ele>
				<time>2015-05-07T06:51:51Z</time>
				<extensions>
				</extensions>
			</trkpt>
			<trkpt lat="-28.220524" lon="153.018874">
				<ele>143</ele>
				<time>2015-05-07T06:51:52Z</time>
				<extensions>
				</extensions>
			</trkpt>
			<trkpt lat="-28.220667" lon="153.019105">
				<ele>142</ele>
				<time>2015-05-07T06:51:53Z</time>
				<extensions>
				</extensions>
			</trkpt>
			<trkpt lat="-28.220817" lon="153.019327">
				<ele>141</ele>
				<time>2015-05-07T06:51:54Z</time>
				<extensions>
				</extensions>
			</trkpt>
			<trkpt lat="-28.220965" lon="153.019556">
				<ele>142</ele>
				<time>2015-05-07T06:51:55Z</time>
				<extensions>
				</extensions>
			</trkpt>
			<trkpt lat="-28.221118" lon="153.019790">
				<ele>143</ele>
				<time>2015-05-07T06:51:56Z</time>
				<extensions>
				</extensions>
			</trkpt>
			<trkpt lat="-28.221273" lon="153.020017">
				<ele>143</ele>
				<time>2015-05-07T06:51:57Z</time>
				<extensions>
				</extensions>
			</trkpt>
			<trkpt lat="-28.221426" lon="153.020233">
				<ele>143</ele>
				<time>2015-05-07T06:51:58Z</time>
				<extensions>
				</extensions>
			</trkpt>
			<trkpt lat="-28.221579" lon="153.020448">
				<ele>141</ele>
				<time>2015-05-07T06:51:59Z</time>
				<extensions>
				</extensions>
			</trkpt>
			<trkpt lat="-28.221731" lon="153.020679">
				<ele>143</ele>
				<time>2015-05-07T06:52:00Z</time>
				<extensions>
				</extensions>
			</trkpt>
			<trkpt lat="-28.221884" lon="153.020910">
				<ele>144</ele>
				<time>2015-05-07T06:52:01Z</time>
				<extensions>
				</extensions>
			</trkpt>
			<trkpt lat="-28.222036" lon="153.021148">
				<ele>146</ele>
				<time>2015-05-07T06:52:02Z</time>
				<extensions>
				</extensions>
			</trkpt>
			<trkpt lat="-28.222199" lon="153.021381">
				<ele>147</ele>
				<time>2015-05-07T06:52:03Z</time>
				<extensions>
				</extensions>
			</trkpt>
			<trkpt lat="-28.222357" lon="153.021610">
				<ele>146</ele>
				<time>2015-05-07T06:52:04Z</time>
				<extensions>
				</extensions>
			</trkpt>
			<trkpt lat="-28.222510" lon="153.021832">
				<ele>145</ele>
				<time>2015-05-07T06:52:05Z</time>
				<extensions>
				</extensions>
			</trkpt>
			<trkpt lat="-28.222637" lon="153.022045">
				<ele>144</ele>
				<time>2015-05-07T06:52:06Z</time>
				<extensions>
				</extensions>
			</trkpt>
			<trkpt lat="-28.222768" lon="153.022260">
				<ele>143</ele>
				<time>2015-05-07T06:52:07Z</time>
				<extensions>
				</extensions>
			</trkpt>
			<trkpt lat="-28.222873" lon="153.022479">
				<ele>143</ele>
				<time>2015-05-07T06:52:08Z</time>
				<extensions>
				</extensions>
			</trkpt>
			<trkpt lat="-28.222965" lon="153.022698">
				<ele>143</ele>
				<time>2015-05-07T06:52:09Z</time>
				<extensions>
				</extensions>
			</trkpt>
			<trkpt lat="-28.223062" lon="153.022924">
				<ele>143</ele>
				<time>2015-05-07T06:52:10Z</time>
				<extensions>
				</extensions>
			</trkpt>
			<trkpt lat="-28.223157" lon="153.023134">
				<ele>143</ele>
				<time>2015-05-07T06:52:11Z</time>
				<extensions>
				</extensions>
			</trkpt>
			<trkpt lat="-28.223242" lon="153.023350">
				<ele>144</ele>
				<time>2015-05-07T06:52:12Z</time>
				<extensions>
				</extensions>
			</trkpt>
			<trkpt lat="-28.223338" lon="153.023585">
				<ele>145</ele>
				<time>2015-05-07T06:52:13Z</time>
				<extensions>
				</extensions>
			</trkpt>
			<trkpt lat="-28.223446" lon="153.023819">
				<ele>144</ele>
				<time>2015-05-07T06:52:14Z</time>
				<extensions>
				</extensions>
			</trkpt>
			<trkpt lat="-28.223541" lon="153.024041">
				<ele>144</ele>
				<time>2015-05-07T06:52:15Z</time>
				<extensions>
				</extensions>
			</trkpt>
			<trkpt lat="-28.223641" lon="153.024275">
				<ele>143</ele>
				<time>2015-05-07T06:52:16Z</time>
				<extensions>
				</extensions>
			</trkpt>
			<trkpt lat="-28.223733" lon="153.024508">
				<ele>143</ele>
				<time>2015-05-07T06:52:17Z</time>
				<extensions>
				</extensions>
			</trkpt>
			<trkpt lat="-28.223826" lon="153.024717">
				<ele>142</ele>
				<time>2015-05-07T06:52:18Z</time>
				<extensions>
				</extensions>
			</trkpt>
			<trkpt lat="-28.223917" lon="153.024924">
				<ele>141</ele>
				<time>2015-05-07T06:52:19Z</time>
				<extensions>
				</extensions>
			</trkpt>
			<trkpt lat="-28.223999" lon="153.025125">
				<ele>140</ele>
				<time>2015-05-07T06:52:20Z</time>
				<extensions>
				</extensions>
			</trkpt>
			<trkpt lat="-28.224085" lon="153.025314">
				<ele>140</ele>
				<time>2015-05-07T06:52:21Z</time>
				<extensions>
				</extensions>
			</trkpt>
			<trkpt lat="-28.224248" lon="153.025644">
				<ele>138</ele>
				<time>2015-05-07T06:52:23Z</time>
				<extensions>
				</extensions>
			</trkpt>
			<trkpt lat="-28.224399" lon="153.025929">
				<ele>138</ele>
				<time>2015-05-07T06:52:25Z</time>
				<extensions>
				</extensions>
			</trkpt>
			<trkpt lat="-28.224554" lon="153.026168">
				<ele>138</ele>
				<time>2015-05-07T06:52:27Z</time>
				<extensions>
				</extensions>
			</trkpt>
			<trkpt lat="-28.224724" lon="153.026386">
				<ele>138</ele>
				<time>2015-05-07T06:52:29Z</time>
				<extensions>
				</extensions>
			</trkpt>
			<trkpt lat="-28.224882" lon="153.026588">
				<ele>137</ele>
				<time>2015-05-07T06:52:31Z</time>
				<extensions>
				</extensions>
			</trkpt>
			<trkpt lat="-28.225003" lon="153.026779">
				<ele>136</ele>
				<time>2015-05-07T06:52:33Z</time>
				<extensions>
				</extensions>
			</trkpt>
			<trkpt lat="-28.225074" lon="153.027022">
				<ele>135</ele>
				<time>2015-05-07T06:52:36Z</time>
				<extensions>
				</extensions>
			</trkpt>
			<trkpt lat="-28.225011" lon="153.027330">
				<ele>136</ele>
				<time>2015-05-07T06:52:39Z</time>
				<extensions>
				</extensions>
			</trkpt>
			<trkpt lat="-28.224954" lon="153.027621">
				<ele>137</ele>
				<time>2015-05-07T06:52:41Z</time>
				<extensions>
				</extensions>
			</trkpt>
			<trkpt lat="-28.224888" lon="153.027935">
				<ele>137</ele>
				<time>2015-05-07T06:52:43Z</time>
				<extensions>
				</extensions>
			</trkpt>
			<trkpt lat="-28.224823" lon="153.028253">
				<ele>135</ele>
				<time>2015-05-07T06:52:45Z</time>
				<extensions>
				</extensions>
			</trkpt>
			<trkpt lat="-28.224751" lon="153.028585">
				<ele>134</ele>
				<time>2015-05-07T06:52:47Z</time>
				<extensions>
				</extensions>
			</trkpt>
			<trkpt lat="-28.224688" lon="153.028935">
				<ele>135</ele>
				<time>2015-05-07T06:52:49Z</time>
				<extensions>
				</extensions>
			</trkpt>
			<trkpt lat="-28.224613" lon="153.029321">
				<ele>136</ele>
				<time>2015-05-07T06:52:51Z</time>
				<extensions>
				</extensions>
			</trkpt>
			<trkpt lat="-28.224527" lon="153.029703">
				<ele>138</ele>
				<time>2015-05-07T06:52:53Z</time>
				<extensions>
				</extensions>
			</trkpt>
			<trkpt lat="-28.224451" lon="153.030086">
				<ele>140</ele>
				<time>2015-05-07T06:52:55Z</time>
				<extensions>
				</extensions>
			</trkpt>
			<trkpt lat="-28.224383" lon="153.030464">
				<ele>141</ele>
				<time>2015-05-07T06:52:57Z</time>
				<extensions>
				</extensions>
			</trkpt>
			<trkpt lat="-28.224321" lon="153.030815">
				<ele>142</ele>
				<time>2015-05-07T06:52:59Z</time>
				<extensions>
				</extensions>
			</trkpt>
			<trkpt lat="-28.224260" lon="153.031156">
				<ele>143</ele>
				<time>2015-05-07T06:53:01Z</time>
				<extensions>
				</extensions>
			</trkpt>
			<trkpt lat="-28.224203" lon="153.031478">
				<ele>144</ele>
				<time>2015-05-07T06:53:03Z</time>
				<extensions>
				</extensions>
			</trkpt>
			<trkpt lat="-28.224155" lon="153.031747">
				<ele>145</ele>
				<time>2015-05-07T06:53:05Z</time>
				<extensions>
				</extensions>
			</trkpt>
			<trkpt lat="-28.224116" lon="153.031964">
				<ele>144</ele>
				<time>2015-05-07T06:53:07Z</time>
				<extensions>
				</extensions>
			</trkpt>
			<trkpt lat="-28.224089" lon="153.032217">
				<ele>144</ele>
				<time>2015-05-07T06:53:10Z</time>
				<extensions>
				</extensions>
			</trkpt>
			<trkpt lat="-28.224241" lon="153.032403">
				<ele>145</ele>
				<time>2015-05-07T06:53:13Z</time>
				<extensions>
				</extensions>
			</trkpt>
			<trkpt lat="-28.224429" lon="153.032466">
				<ele>149</ele>
				<time>2015-05-07T06:53:15Z</time>
				<extensions>
				</extensions>
			</trkpt>
			<trkpt lat="-28.224653" lon="153.032555">
				<ele>153</ele>
				<time>2015-05-07T06:53:17Z</time>
				<extensions>
				</extensions>
			</trkpt>
			<trkpt lat="-28.224896" lon="153.032653">
				<ele>157</ele>
				<time>2015-05-07T06:53:19Z</time>
				<extensions>
				</extensions>
			</trkpt>
			<trkpt lat="-28.225127" lon="153.032779">
				<ele>161</ele>
				<time>2015-05-07T06:53:21Z</time>
				<extensions>
				</extensions>
			</trkpt>
			<trkpt lat="-28.225318" lon="153.032931">
				<ele>164</ele>
				<time>2015-05-07T06:53:23Z</time>
				<extensions>
				</extensions>
			</trkpt>
			<trkpt lat="-28.225450" lon="153.033096">
				<ele>165</ele>
				<time>2015-05-07T06:53:26Z</time>
				<extensions>
				</extensions>
			</trkpt>
			<trkpt lat="-28.225437" lon="153.033351">
				<ele>169</ele>
				<time>2015-05-07T06:53:29Z</time>
				<extensions>
				</extensions>
			</trkpt>
			<trkpt lat="-28.225286" lon="153.033596">
				<ele>176</ele>
				<time>2015-05-07T06:53:32Z</time>
				<extensions>
				</extensions>
			</trkpt>
			<trkpt lat="-28.225163" lon="153.033789">
				<ele>180</ele>
				<time>2015-05-07T06:53:34Z</time>
				<extensions>
				</extensions>
			</trkpt>
			<trkpt lat="-28.224981" lon="153.034049">
				<ele>186</ele>
				<time>2015-05-07T06:53:37Z</time>
				<extensions>
				</extensions>
			</trkpt>
			<trkpt lat="-28.224839" lon="153.034175">
				<ele>190</ele>
				<time>2015-05-07T06:53:39Z</time>
				<extensions>
				</extensions>
			</trkpt>
			<trkpt lat="-28.224622" lon="153.034309">
				<ele>195</ele>
				<time>2015-05-07T06:53:41Z</time>
				<extensions>
				</extensions>
			</trkpt>
			<trkpt lat="-28.224384" lon="153.034423">
				<ele>200</ele>
				<time>2015-05-07T06:53:43Z</time>
				<extensions>
				</extensions>
			</trkpt>
			<trkpt lat="-28.224118" lon="153.034532">
				<ele>206</ele>
				<time>2015-05-07T06:53:45Z</time>
				<extensions>
				</extensions>
			</trkpt>
			<trkpt lat="-28.223858" lon="153.034619">
				<ele>211</ele>
				<time>2015-05-07T06:53:47Z</time>
				<extensions>
				</extensions>
			</trkpt>
			<trkpt lat="-28.223606" lon="153.034731">
				<ele>216</ele>
				<time>2015-05-07T06:53:49Z</time>
				<extensions>
				</extensions>
			</trkpt>
			<trkpt lat="-28.223362" lon="153.034821">
				<ele>218</ele>
				<time>2015-05-07T06:53:51Z</time>
				<extensions>
				</extensions>
			</trkpt>
			<trkpt lat="-28.223113" lon="153.034905">
				<ele>223</ele>
				<time>2015-05-07T06:53:53Z</time>
				<extensions>
				</extensions>
			</trkpt>
			<trkpt lat="-28.222881" lon="153.034972">
				<ele>228</ele>
				<time>2015-05-07T06:53:55Z</time>
				<extensions>
				</extensions>
			</trkpt>
			<trkpt lat="-28.222654" lon="153.035051">
				<ele>232</ele>
				<time>2015-05-07T06:53:57Z</time>
				<extensions>
				</extensions>
			</trkpt>
			<trkpt lat="-28.222470" lon="153.035199">
				<ele>236</ele>
				<time>2015-05-07T06:53:59Z</time>
				<extensions>
				</extensions>
			</trkpt>
			<trkpt lat="-28.222305" lon="153.035347">
				<ele>240</ele>
				<time>2015-05-07T06:54:01Z</time>
				<extensions>
				</extensions>
			</trkpt>
			<trkpt lat="-28.222146" lon="153.035493">
				<ele>243</ele>
				<time>2015-05-07T06:54:03Z</time>
				<extensions>
				</extensions>
			</trkpt>
			<trkpt lat="-28.222012" lon="153.035701">
				<ele>247</ele>
				<time>2015-05-07T06:54:05Z</time>
				<extensions>
				</extensions>
			</trkpt>
			<trkpt lat="-28.221878" lon="153.035925">
				<ele>251</ele>
				<time>2015-05-07T06:54:07Z</time>
				<extensions>
				</extensions>
			</trkpt>
			<trkpt lat="-28.221727" lon="153.036154">
				<ele>256</ele>
				<time>2015-05-07T06:54:09Z</time>
				<extensions>
				</extensions>
			</trkpt>
			<trkpt lat="-28.221600" lon="153.036317">
				<ele>257</ele>
				<time>2015-05-07T06:54:11Z</time>
				<extensions>
				</extensions>
			</trkpt>
			<trkpt lat="-28.221447" lon="153.036435">
				<ele>259</ele>
				<time>2015-05-07T06:54:13Z</time>
				<extensions>
				</extensions>
			</trkpt>
			<trkpt lat="-28.221286" lon="153.036545">
				<ele>260</ele>
				<time>2015-05-07T06:54:15Z</time>
				<extensions>
				</extensions>
			</trkpt>
			<trkpt lat="-28.221132" lon="153.036766">
				<ele>260</ele>
				<time>2015-05-07T06:54:18Z</time>
				<extensions>
				</extensions>
			</trkpt>
			<trkpt lat="-28.221085" lon="153.037037">
				<ele>261</ele>
				<time>2015-05-07T06:54:21Z</time>
				<extensions>
				</extensions>
			</trkpt>
			<trkpt lat="-28.221085" lon="153.037302">
				<ele>260</ele>
				<time>2015-05-07T06:54:24Z</time>
				<extensions>
				</extensions>
			</trkpt>
			<trkpt lat="-28.221044" lon="153.037589">
				<ele>257</ele>
				<time>2015-05-07T06:54:27Z</time>
				<extensions>
				</extensions>
			</trkpt>
			<trkpt lat="-28.220968" lon="153.037794">
				<ele>254</ele>
				<time>2015-05-07T06:54:29Z</time>
				<extensions>
				</extensions>
			</trkpt>
			<trkpt lat="-28.220854" lon="153.037968">
				<ele>251</ele>
				<time>2015-05-07T06:54:31Z</time>
				<extensions>
				</extensions>
			</trkpt>
			<trkpt lat="-28.220644" lon="153.038176">
				<ele>246</ele>
				<time>2015-05-07T06:54:33Z</time>
				<extensions>
				</extensions>
			</trkpt>
			<trkpt lat="-28.220482" lon="153.038343">
				<ele>242</ele>
				<time>2015-05-07T06:54:35Z</time>
				<extensions>
				</extensions>
			</trkpt>
			<trkpt lat="-28.220326" lon="153.038548">
				<ele>239</ele>
				<time>2015-05-07T06:54:37Z</time>
				<extensions>
				</extensions>
			</trkpt>
			<trkpt lat="-28.220162" lon="153.038783">
				<ele>236</ele>
				<time>2015-05-07T06:54:39Z</time>
				<extensions>
				</extensions>
			</trkpt>
			<trkpt lat="-28.220005" lon="153.039008">
				<ele>234</ele>
				<time>2015-05-07T06:54:41Z</time>
				<extensions>
				</extensions>
			</trkpt>
			<trkpt lat="-28.219851" lon="153.039245">
				<ele>231</ele>
				<time>2015-05-07T06:54:43Z</time>
				<extensions>
				</extensions>
			</trkpt>
			<trkpt lat="-28.219686" lon="153.039496">
				<ele>229</ele>
				<time>2015-05-07T06:54:45Z</time>
				<extensions>
				</extensions>
			</trkpt>
			<trkpt lat="-28.219518" lon="153.039742">
				<ele>226</ele>
				<time>2015-05-07T06:54:47Z</time>
				<extensions>
				</extensions>
			</trkpt>
			<trkpt lat="-28.219344" lon="153.039998">
				<ele>224</ele>
				<time>2015-05-07T06:54:49Z</time>
				<extensions>
				</extensions>
			</trkpt>
			<trkpt lat="-28.219172" lon="153.040249">
				<ele>221</ele>
				<time>2015-05-07T06:54:51Z</time>
				<extensions>
				</extensions>
			</trkpt>
			<trkpt lat="-28.219000" lon="153.040508">
				<ele>218</ele>
				<time>2015-05-07T06:54:53Z</time>
				<extensions>
				</extensions>
			</trkpt>
			<trkpt lat="-28.218845" lon="153.040751">
				<ele>216</ele>
				<time>2015-05-07T06:54:55Z</time>
				<extensions>
				</extensions>
			</trkpt>
			<trkpt lat="-28.218686" lon="153.041007">
				<ele>213</ele>
				<time>2015-05-07T06:54:57Z</time>
				<extensions>
				</extensions>
			</trkpt>
			<trkpt lat="-28.218530" lon="153.041274">
				<ele>210</ele>
				<time>2015-05-07T06:54:59Z</time>
				<extensions>
				</extensions>
			</trkpt>
			<trkpt lat="-28.218384" lon="153.041561">
				<ele>207</ele>
				<time>2015-05-07T06:55:01Z</time>
				<extensions>
				</extensions>
			</trkpt>
			<trkpt lat="-28.218263" lon="153.041841">
				<ele>205</ele>
				<time>2015-05-07T06:55:03Z</time>
				<extensions>
				</extensions>
			</trkpt>
			<trkpt lat="-28.218132" lon="153.042139">
				<ele>201</ele>
				<time>2015-05-07T06:55:05Z</time>
				<extensions>
				</extensions>
			</trkpt>
			<trkpt lat="-28.218029" lon="153.042417">
				<ele>199</ele>
				<time>2015-05-07T06:55:07Z</time>
				<extensions>
				</extensions>
			</trkpt>
			<trkpt lat="-28.217905" lon="153.042695">
				<ele>197</ele>
				<time>2015-05-07T06:55:09Z</time>
				<extensions>
				</extensions>
			</trkpt>
			<trkpt lat="-28.217797" lon="153.042954">
				<ele>195</ele>
				<time>2015-05-07T06:55:11Z</time>
				<extensions>
				</extensions>
			</trkpt>
			<trkpt lat="-28.217690" lon="153.043199">
				<ele>193</ele>
				<time>2015-05-07T06:55:13Z</time>
				<extensions>
				</extensions>
			</trkpt>
			<trkpt lat="-28.217575" lon="153.043445">
				<ele>193</ele>
				<time>2015-05-07T06:55:15Z</time>
				<extensions>
				</extensions>
			</trkpt>
			<trkpt lat="-28.217466" lon="153.043696">
				<ele>192</ele>
				<time>2015-05-07T06:55:17Z</time>
				<extensions>
				</extensions>
			</trkpt>
			<trkpt lat="-28.217367" lon="153.043936">
				<ele>191</ele>
				<time>2015-05-07T06:55:19Z</time>
				<extensions>
				</extensions>
			</trkpt>
			<trkpt lat="-28.217268" lon="153.044165">
				<ele>190</ele>
				<time>2015-05-07T06:55:21Z</time>
				<extensions>
				</extensions>
			</trkpt>
			<trkpt lat="-28.217156" lon="153.044399">
				<ele>189</ele>
				<time>2015-05-07T06:55:23Z</time>
				<extensions>
				</extensions>
			</trkpt>
			<trkpt lat="-28.217069" lon="153.044601">
				<ele>187</ele>
				<time>2015-05-07T06:55:25Z</time>
				<extensions>
				</extensions>
			</trkpt>
			<trkpt lat="-28.216980" lon="153.044827">
				<ele>184</ele>
				<time>2015-05-07T06:55:28Z</time>
				<extensions>
				</extensions>
			</trkpt>
			<trkpt lat="-28.216884" lon="153.045002">
				<ele>180</ele>
				<time>2015-05-07T06:55:33Z</time>
				<extensions>
				</extensions>
			</trkpt>
			<trkpt lat="-28.216797" lon="153.045225">
				<ele>183</ele>
				<time>2015-05-07T06:56:16Z</time>
				<extensions>
				</extensions>
			</trkpt>
			<trkpt lat="-28.216558" lon="153.045201">
				<ele>183</ele>
				<time>2015-05-07T06:56:21Z</time>
				<extensions>
				</extensions>
			</trkpt>
			<trkpt lat="-28.216385" lon="153.045073">
				<ele>185</ele>
				<time>2015-05-07T06:56:23Z</time>
				<extensions>
				</extensions>
			</trkpt>
			<trkpt lat="-28.216179" lon="153.044922">
				<ele>185</ele>
				<time>2015-05-07T06:56:25Z</time>
				<extensions>
				</extensions>
			</trkpt>
			<trkpt lat="-28.215942" lon="153.044739">
				<ele>187</ele>
				<time>2015-05-07T06:56:27Z</time>
				<extensions>
				</extensions>
			</trkpt>
			<trkpt lat="-28.215675" lon="153.044550">
				<ele>188</ele>
				<time>2015-05-07T06:56:29Z</time>
				<extensions>
				</extensions>
			</trkpt>
			<trkpt lat="-28.215399" lon="153.044351">
				<ele>189</ele>
				<time>2015-05-07T06:56:31Z</time>
				<extensions>
				</extensions>
			</trkpt>
			<trkpt lat="-28.215122" lon="153.044158">
				<ele>188</ele>
				<time>2015-05-07T06:56:33Z</time>
				<extensions>
				</extensions>
			</trkpt>
			<trkpt lat="-28.214939" lon="153.044042">
				<ele>188</ele>
				<time>2015-05-07T06:56:34Z</time>
				<extensions>
				</extensions>
			</trkpt>
			<trkpt lat="-28.214780" lon="153.043938">
				<ele>188</ele>
				<time>2015-05-07T06:56:35Z</time>
				<extensions>
				</extensions>
			</trkpt>
			<trkpt lat="-28.214623" lon="153.043823">
				<ele>188</ele>
				<time>2015-05-07T06:56:36Z</time>
				<extensions>
				</extensions>
			</trkpt>
			<trkpt lat="-28.214458" lon="153.043694">
				<ele>188</ele>
				<time>2015-05-07T06:56:37Z</time>
				<extensions>
				</extensions>
			</trkpt>
			<trkpt lat="-28.214174" lon="153.043539">
				<ele>187</ele>
				<time>2015-05-07T06:56:39Z</time>
				<extensions>
				</extensions>
			</trkpt>
			<trkpt lat="-28.213861" lon="153.043348">
				<ele>187</ele>
				<time>2015-05-07T06:56:41Z</time>
				<extensions>
				</extensions>
			</trkpt>
			<trkpt lat="-28.213561" lon="153.043188">
				<ele>186</ele>
				<time>2015-05-07T06:56:43Z</time>
				<extensions>
				</extensions>
			</trkpt>
			<trkpt lat="-28.213247" lon="153.043059">
				<ele>185</ele>
				<time>2015-05-07T06:56:45Z</time>
				<extensions>
				</extensions>
			</trkpt>
			<trkpt lat="-28.212907" lon="153.042949">
				<ele>186</ele>
				<time>2015-05-07T06:56:47Z</time>
				<extensions>
				</extensions>
			</trkpt>
			<trkpt lat="-28.212731" lon="153.042894">
				<ele>186</ele>
				<time>2015-05-07T06:56:48Z</time>
				<extensions>
				</extensions>
			</trkpt>
			<trkpt lat="-28.212543" lon="153.042836">
				<ele>187</ele>
				<time>2015-05-07T06:56:49Z</time>
				<extensions>
				</extensions>
			</trkpt>
			<trkpt lat="-28.212362" lon="153.042780">
				<ele>187</ele>
				<time>2015-05-07T06:56:50Z</time>
				<extensions>
				</extensions>
			</trkpt>
			<trkpt lat="-28.212173" lon="153.042721">
				<ele>187</ele>
				<time>2015-05-07T06:56:51Z</time>
				<extensions>
				</extensions>
			</trkpt>
			<trkpt lat="-28.211989" lon="153.042663">
				<ele>187</ele>
				<time>2015-05-07T06:56:52Z</time>
				<extensions>
				</extensions>
			</trkpt>
			<trkpt lat="-28.211785" lon="153.042600">
				<ele>188</ele>
				<time>2015-05-07T06:56:53Z</time>
				<extensions>
				</extensions>
			</trkpt>
			<trkpt lat="-28.211593" lon="153.042539">
				<ele>188</ele>
				<time>2015-05-07T06:56:54Z</time>
				<extensions>
				</extensions>
			</trkpt>
			<trkpt lat="-28.211404" lon="153.042476">
				<ele>188</ele>
				<time>2015-05-07T06:56:55Z</time>
				<extensions>
				</extensions>
			</trkpt>
			<trkpt lat="-28.211212" lon="153.042413">
				<ele>189</ele>
				<time>2015-05-07T06:56:56Z</time>
				<extensions>
				</extensions>
			</trkpt>
			<trkpt lat="-28.211022" lon="153.042352">
				<ele>188</ele>
				<time>2015-05-07T06:56:57Z</time>
				<extensions>
				</extensions>
			</trkpt>
			<trkpt lat="-28.210841" lon="153.042295">
				<ele>187</ele>
				<time>2015-05-07T06:56:58Z</time>
				<extensions>
				</extensions>
			</trkpt>
			<trkpt lat="-28.210665" lon="153.042241">
				<ele>185</ele>
				<time>2015-05-07T06:56:59Z</time>
				<extensions>
				</extensions>
			</trkpt>
			<trkpt lat="-28.210347" lon="153.042144">
				<ele>181</ele>
				<time>2015-05-07T06:57:01Z</time>
				<extensions>
				</extensions>
			</trkpt>
			<trkpt lat="-28.210091" lon="153.042065">
				<ele>178</ele>
				<time>2015-05-07T06:57:03Z</time>
				<extensions>
				</extensions>
			</trkpt>
			<trkpt lat="-28.209866" lon="153.041997">
				<ele>176</ele>
				<time>2015-05-07T06:57:05Z</time>
				<extensions>
				</extensions>
			</trkpt>
			<trkpt lat="-28.209653" lon="153.041931">
				<ele>176</ele>
				<time>2015-05-07T06:57:07Z</time>
				<extensions>
				</extensions>
			</trkpt>
			<trkpt lat="-28.209396" lon="153.041855">
				<ele>177</ele>
				<time>2015-05-07T06:57:09Z</time>
				<extensions>
				</extensions>
			</trkpt>
			<trkpt lat="-28.209108" lon="153.041770">
				<ele>179</ele>
				<time>2015-05-07T06:57:11Z</time>
				<extensions>
				</extensions>
			</trkpt>
			<trkpt lat="-28.208786" lon="153.041670">
				<ele>179</ele>
				<time>2015-05-07T06:57:13Z</time>
				<extensions>
				</extensions>
			</trkpt>
			<trkpt lat="-28.208444" lon="153.041564">
				<ele>181</ele>
				<time>2015-05-07T06:57:15Z</time>
				<extensions>
				</extensions>
			</trkpt>
			<trkpt lat="-28.208102" lon="153.041477">
				<ele>179</ele>
				<time>2015-05-07T06:57:17Z</time>
				<extensions>
				</extensions>
			</trkpt>
			<trkpt lat="-28.207771" lon="153.041372">
				<ele>178</ele>
				<time>2015-05-07T06:57:19Z</time>
				<extensions>
				</extensions>
			</trkpt>
			<trkpt lat="-28.207463" lon="153.041279">
				<ele>176</ele>
				<time>2015-05-07T06:57:21Z</time>
				<extensions>
				</extensions>
			</trkpt>
			<trkpt lat="-28.207172" lon="153.041189">
				<ele>174</ele>
				<time>2015-05-07T06:57:23Z</time>
				<extensions>
				</extensions>
			</trkpt>
			<trkpt lat="-28.206899" lon="153.041110">
				<ele>173</ele>
				<time>2015-05-07T06:57:25Z</time>
				<extensions>
				</extensions>
			</trkpt>
			<trkpt lat="-28.206639" lon="153.041049">
				<ele>171</ele>
				<time>2015-05-07T06:57:27Z</time>
				<extensions>
				</extensions>
			</trkpt>
			<trkpt lat="-28.206397" lon="153.041014">
				<ele>171</ele>
				<time>2015-05-07T06:57:29Z</time>
				<extensions>
				</extensions>
			</trkpt>
			<trkpt lat="-28.206177" lon="153.040990">
				<ele>170</ele>
				<time>2015-05-07T06:57:31Z</time>
				<extensions>
				</extensions>
			</trkpt>
			<trkpt lat="-28.205985" lon="153.040938">
				<ele>169</ele>
				<time>2015-05-07T06:57:33Z</time>
				<extensions>
				</extensions>
			</trkpt>
			<trkpt lat="-28.205818" lon="153.040837">
				<ele>169</ele>
				<time>2015-05-07T06:57:35Z</time>
				<extensions>
				</extensions>
			</trkpt>
			<trkpt lat="-28.205654" lon="153.040680">
				<ele>171</ele>
				<time>2015-05-07T06:57:37Z</time>
				<extensions>
				</extensions>
			</trkpt>
			<trkpt lat="-28.205485" lon="153.040500">
				<ele>171</ele>
				<time>2015-05-07T06:57:39Z</time>
				<extensions>
				</extensions>
			</trkpt>
			<trkpt lat="-28.205309" lon="153.040323">
				<ele>171</ele>
				<time>2015-05-07T06:57:41Z</time>
				<extensions>
				</extensions>
			</trkpt>
			<trkpt lat="-28.205116" lon="153.040190">
				<ele>170</ele>
				<time>2015-05-07T06:57:43Z</time>
				<extensions>
				</extensions>
			</trkpt>
			<trkpt lat="-28.204878" lon="153.040144">
				<ele>171</ele>
				<time>2015-05-07T06:57:45Z</time>
				<extensions>
				</extensions>
			</trkpt>
			<trkpt lat="-28.204601" lon="153.040153">
				<ele>174</ele>
				<time>2015-05-07T06:57:47Z</time>
				<extensions>
				</extensions>
			</trkpt>
			<trkpt lat="-28.204281" lon="153.040150">
				<ele>175</ele>
				<time>2015-05-07T06:57:49Z</time>
				<extensions>
				</extensions>
			</trkpt>
			<trkpt lat="-28.203933" lon="153.040113">
				<ele>177</ele>
				<time>2015-05-07T06:57:51Z</time>
				<extensions>
				</extensions>
			</trkpt>
			<trkpt lat="-28.203753" lon="153.040091">
				<ele>178</ele>
				<time>2015-05-07T06:57:52Z</time>
				<extensions>
				</extensions>
			</trkpt>
			<trkpt lat="-28.203398" lon="153.040038">
				<ele>178</ele>
				<time>2015-05-07T06:57:54Z</time>
				<extensions>
				</extensions>
			</trkpt>
			<trkpt lat="-28.203207" lon="153.040010">
				<ele>178</ele>
				<time>2015-05-07T06:57:55Z</time>
				<extensions>
				</extensions>
			</trkpt>
			<trkpt lat="-28.203014" lon="153.039981">
				<ele>179</ele>
				<time>2015-05-07T06:57:56Z</time>
				<extensions>
				</extensions>
			</trkpt>
			<trkpt lat="-28.202824" lon="153.039952">
				<ele>178</ele>
				<time>2015-05-07T06:57:57Z</time>
				<extensions>
				</extensions>
			</trkpt>
			<trkpt lat="-28.202629" lon="153.039924">
				<ele>178</ele>
				<time>2015-05-07T06:57:58Z</time>
				<extensions>
				</extensions>
			</trkpt>
			<trkpt lat="-28.202446" lon="153.039898">
				<ele>178</ele>
				<time>2015-05-07T06:57:59Z</time>
				<extensions>
				</extensions>
			</trkpt>
			<trkpt lat="-28.202261" lon="153.039874">
				<ele>179</ele>
				<time>2015-05-07T06:58:00Z</time>
				<extensions>
				</extensions>
			</trkpt>
			<trkpt lat="-28.202071" lon="153.039851">
				<ele>177</ele>
				<time>2015-05-07T06:58:01Z</time>
				<extensions>
				</extensions>
			</trkpt>
			<trkpt lat="-28.201889" lon="153.039840">
				<ele>176</ele>
				<time>2015-05-07T06:58:02Z</time>
				<extensions>
				</extensions>
			</trkpt>
			<trkpt lat="-28.201702" lon="153.039852">
				<ele>175</ele>
				<time>2015-05-07T06:58:03Z</time>
				<extensions>
				</extensions>
			</trkpt>
			<trkpt lat="-28.201520" lon="153.039890">
				<ele>175</ele>
				<time>2015-05-07T06:58:04Z</time>
				<extensions>
				</extensions>
			</trkpt>
			<trkpt lat="-28.201334" lon="153.039948">
				<ele>175</ele>
				<time>2015-05-07T06:58:05Z</time>
				<extensions>
				</extensions>
			</trkpt>
			<trkpt lat="-28.201134" lon="153.040018">
				<ele>176</ele>
				<time>2015-05-07T06:58:06Z</time>
				<extensions>
				</extensions>
			</trkpt>
			<trkpt lat="-28.200931" lon="153.040096">
				<ele>177</ele>
				<time>2015-05-07T06:58:07Z</time>
				<extensions>
				</extensions>
			</trkpt>
			<trkpt lat="-28.200548" lon="153.040220">
				<ele>179</ele>
				<time>2015-05-07T06:58:09Z</time>
				<extensions>
				</extensions>
			</trkpt>
			<trkpt lat="-28.200337" lon="153.040303">
				<ele>180</ele>
				<time>2015-05-07T06:58:10Z</time>
				<extensions>
				</extensions>
			</trkpt>
			<trkpt lat="-28.200114" lon="153.040395">
				<ele>180</ele>
				<time>2015-05-07T06:58:11Z</time>
				<extensions>
				</extensions>
			</trkpt>
			<trkpt lat="-28.199894" lon="153.040484">
				<ele>179</ele>
				<time>2015-05-07T06:58:12Z</time>
				<extensions>
				</extensions>
			</trkpt>
			<trkpt lat="-28.199672" lon="153.040580">
				<ele>179</ele>
				<time>2015-05-07T06:58:13Z</time>
				<extensions>
				</extensions>
			</trkpt>
			<trkpt lat="-28.199484" lon="153.040673">
				<ele>179</ele>
				<time>2015-05-07T06:58:14Z</time>
				<extensions>
				</extensions>
			</trkpt>
			<trkpt lat="-28.199297" lon="153.040774">
				<ele>178</ele>
				<time>2015-05-07T06:58:15Z</time>
				<extensions>
				</extensions>
			</trkpt>
			<trkpt lat="-28.199130" lon="153.040858">
				<ele>178</ele>
				<time>2015-05-07T06:58:16Z</time>
				<extensions>
				</extensions>
			</trkpt>
			<trkpt lat="-28.198951" lon="153.040958">
				<ele>176</ele>
				<time>2015-05-07T06:58:17Z</time>
				<extensions>
				</extensions>
			</trkpt>
			<trkpt lat="-28.198777" lon="153.041054">
				<ele>175</ele>
				<time>2015-05-07T06:58:18Z</time>
				<extensions>
				</extensions>
			</trkpt>
			<trkpt lat="-28.198605" lon="153.041148">
				<ele>174</ele>
				<time>2015-05-07T06:58:19Z</time>
				<extensions>
				</extensions>
			</trkpt>
			<trkpt lat="-28.198434" lon="153.041242">
				<ele>174</ele>
				<time>2015-05-07T06:58:20Z</time>
				<extensions>
				</extensions>
			</trkpt>
			<trkpt lat="-28.198257" lon="153.041341">
				<ele>175</ele>
				<time>2015-05-07T06:58:21Z</time>
				<extensions>
				</extensions>
			</trkpt>
			<trkpt lat="-28.198070" lon="153.041438">
				<ele>176</ele>
				<time>2015-05-07T06:58:22Z</time>
				<extensions>
				</extensions>
			</trkpt>
			<trkpt lat="-28.197887" lon="153.041535">
				<ele>177</ele>
				<time>2015-05-07T06:58:23Z</time>
				<extensions>
				</extensions>
			</trkpt>
			<trkpt lat="-28.197703" lon="153.041628">
				<ele>176</ele>
				<time>2015-05-07T06:58:24Z</time>
				<extensions>
				</extensions>
			</trkpt>
			<trkpt lat="-28.197526" lon="153.041721">
				<ele>174</ele>
				<time>2015-05-07T06:58:25Z</time>
				<extensions>
				</extensions>
			</trkpt>
			<trkpt lat="-28.197349" lon="153.041818">
				<ele>173</ele>
				<time>2015-05-07T06:58:26Z</time>
				<extensions>
				</extensions>
			</trkpt>
			<trkpt lat="-28.197177" lon="153.041919">
				<ele>172</ele>
				<time>2015-05-07T06:58:27Z</time>
				<extensions>
				</extensions>
			</trkpt>
			<trkpt lat="-28.197022" lon="153.042027">
				<ele>171</ele>
				<time>2015-05-07T06:58:28Z</time>
				<extensions>
				</extensions>
			</trkpt>
			<trkpt lat="-28.196868" lon="153.042135">
				<ele>170</ele>
				<time>2015-05-07T06:58:29Z</time>
				<extensions>
				</extensions>
			</trkpt>
			<trkpt lat="-28.196712" lon="153.042248">
				<ele>169</ele>
				<time>2015-05-07T06:58:30Z</time>
				<extensions>
				</extensions>
			</trkpt>
			<trkpt lat="-28.196416" lon="153.042464">
				<ele>167</ele>
				<time>2015-05-07T06:58:32Z</time>
				<extensions>
				</extensions>
			</trkpt>
			<trkpt lat="-28.196119" lon="153.042673">
				<ele>167</ele>
				<time>2015-05-07T06:58:34Z</time>
				<extensions>
				</extensions>
			</trkpt>
			<trkpt lat="-28.195824" lon="153.042849">
				<ele>165</ele>
				<time>2015-05-07T06:58:36Z</time>
				<extensions>
				</extensions>
			</trkpt>
			<trkpt lat="-28.195520" lon="153.042988">
				<ele>165</ele>
				<time>2015-05-07T06:58:38Z</time>
				<extensions>
				</extensions>
			</trkpt>
			<trkpt lat="-28.195182" lon="153.043058">
				<ele>166</ele>
				<time>2015-05-07T06:58:40Z</time>
				<extensions>
				</extensions>
			</trkpt>
			<trkpt lat="-28.194826" lon="153.043050">
				<ele>167</ele>
				<time>2015-05-07T06:58:42Z</time>
				<extensions>
				</extensions>
			</trkpt>
			<trkpt lat="-28.194486" lon="153.042971">
				<ele>165</ele>
				<time>2015-05-07T06:58:44Z</time>
				<extensions>
				</extensions>
			</trkpt>
			<trkpt lat="-28.194166" lon="153.042815">
				<ele>165</ele>
				<time>2015-05-07T06:58:46Z</time>
				<extensions>
				</extensions>
			</trkpt>
			<trkpt lat="-28.193880" lon="153.042601">
				<ele>164</ele>
				<time>2015-05-07T06:58:48Z</time>
				<extensions>
				</extensions>
			</trkpt>
			<trkpt lat="-28.193618" lon="153.042379">
				<ele>161</ele>
				<time>2015-05-07T06:58:50Z</time>
				<extensions>
				</extensions>
			</trkpt>
			<trkpt lat="-28.193369" lon="153.042156">
				<ele>158</ele>
				<time>2015-05-07T06:58:52Z</time>
				<extensions>
				</extensions>
			</trkpt>
			<trkpt lat="-28.193131" lon="153.041946">
				<ele>156</ele>
				<time>2015-05-07T06:58:54Z</time>
				<extensions>
				</extensions>
			</trkpt>
			<trkpt lat="-28.192875" lon="153.041735">
				<ele>157</ele>
				<time>2015-05-07T06:58:56Z</time>
				<extensions>
				</extensions>
			</trkpt>
			<trkpt lat="-28.192613" lon="153.041549">
				<ele>159</ele>
				<time>2015-05-07T06:58:58Z</time>
				<extensions>
				</extensions>
			</trkpt>
			<trkpt lat="-28.192304" lon="153.041377">
				<ele>161</ele>
				<time>2015-05-07T06:59:00Z</time>
				<extensions>
				</extensions>
			</trkpt>
			<trkpt lat="-28.192131" lon="153.041308">
				<ele>162</ele>
				<time>2015-05-07T06:59:01Z</time>
				<extensions>
				</extensions>
			</trkpt>
			<trkpt lat="-28.191949" lon="153.041250">
				<ele>163</ele>
				<time>2015-05-07T06:59:02Z</time>
				<extensions>
				</extensions>
			</trkpt>
			<trkpt lat="-28.191763" lon="153.041200">
				<ele>163</ele>
				<time>2015-05-07T06:59:03Z</time>
				<extensions>
				</extensions>
			</trkpt>
			<trkpt lat="-28.191573" lon="153.041154">
				<ele>165</ele>
				<time>2015-05-07T06:59:04Z</time>
				<extensions>
				</extensions>
			</trkpt>
			<trkpt lat="-28.191376" lon="153.041108">
				<ele>165</ele>
				<time>2015-05-07T06:59:05Z</time>
				<extensions>
				</extensions>
			</trkpt>
			<trkpt lat="-28.191178" lon="153.041064">
				<ele>166</ele>
				<time>2015-05-07T06:59:06Z</time>
				<extensions>
				</extensions>
			</trkpt>
			<trkpt lat="-28.190974" lon="153.041015">
				<ele>165</ele>
				<time>2015-05-07T06:59:07Z</time>
				<extensions>
				</extensions>
			</trkpt>
			<trkpt lat="-28.190774" lon="153.040969">
				<ele>166</ele>
				<time>2015-05-07T06:59:08Z</time>
				<extensions>
				</extensions>
			</trkpt>
			<trkpt lat="-28.190573" lon="153.040924">
				<ele>165</ele>
				<time>2015-05-07T06:59:09Z</time>
				<extensions>
				</extensions>
			</trkpt>
			<trkpt lat="-28.190371" lon="153.040878">
				<ele>165</ele>
				<time>2015-05-07T06:59:10Z</time>
				<extensions>
				</extensions>
			</trkpt>
			<trkpt lat="-28.190180" lon="153.040834">
				<ele>164</ele>
				<time>2015-05-07T06:59:11Z</time>
				<extensions>
				</extensions>
			</trkpt>
			<trkpt lat="-28.189987" lon="153.040791">
				<ele>164</ele>
				<time>2015-05-07T06:59:12Z</time>
				<extensions>
				</extensions>
			</trkpt>
			<trkpt lat="-28.189793" lon="153.040745">
				<ele>164</ele>
				<time>2015-05-07T06:59:13Z</time>
				<extensions>
				</extensions>
			</trkpt>
			<trkpt lat="-28.189599" lon="153.040701">
				<ele>163</ele>
				<time>2015-05-07T06:59:14Z</time>
				<extensions>
				</extensions>
			</trkpt>
			<trkpt lat="-28.189398" lon="153.040661">
				<ele>163</ele>
				<time>2015-05-07T06:59:15Z</time>
				<extensions>
				</extensions>
			</trkpt>
			<trkpt lat="-28.189197" lon="153.040627">
				<ele>163</ele>
				<time>2015-05-07T06:59:16Z</time>
				<extensions>
				</extensions>
			</trkpt>
			<trkpt lat="-28.188999" lon="153.040598">
				<ele>163</ele>
				<time>2015-05-07T06:59:17Z</time>
				<extensions>
				</extensions>
			</trkpt>
			<trkpt lat="-28.188798" lon="153.040576">
				<ele>162</ele>
				<time>2015-05-07T06:59:18Z</time>
				<extensions>
				</extensions>
			</trkpt>
			<trkpt lat="-28.188597" lon="153.040554">
				<ele>162</ele>
				<time>2015-05-07T06:59:19Z</time>
				<extensions>
				</extensions>
			</trkpt>
			<trkpt lat="-28.188396" lon="153.040535">
				<ele>162</ele>
				<time>2015-05-07T06:59:20Z</time>
				<extensions>
				</extensions>
			</trkpt>
			<trkpt lat="-28.188205" lon="153.040516">
				<ele>162</ele>
				<time>2015-05-07T06:59:21Z</time>
				<extensions>
				</extensions>
			</trkpt>
			<trkpt lat="-28.188005" lon="153.040499">
				<ele>162</ele>
				<time>2015-05-07T06:59:22Z</time>
				<extensions>
				</extensions>
			</trkpt>
			<trkpt lat="-28.187808" lon="153.040481">
				<ele>161</ele>
				<time>2015-05-07T06:59:23Z</time>
				<extensions>
				</extensions>
			</trkpt>
			<trkpt lat="-28.187615" lon="153.040464">
				<ele>161</ele>
				<time>2015-05-07T06:59:24Z</time>
				<extensions>
				</extensions>
			</trkpt>
			<trkpt lat="-28.187432" lon="153.040447">
				<ele>161</ele>
				<time>2015-05-07T06:59:25Z</time>
				<extensions>
				</extensions>
			</trkpt>
			<trkpt lat="-28.187250" lon="153.040425">
				<ele>160</ele>
				<time>2015-05-07T06:59:26Z</time>
				<extensions>
				</extensions>
			</trkpt>
			<trkpt lat="-28.187064" lon="153.040418">
				<ele>159</ele>
				<time>2015-05-07T06:59:27Z</time>
				<extensions>
				</extensions>
			</trkpt>
			<trkpt lat="-28.186876" lon="153.040401">
				<ele>159</ele>
				<time>2015-05-07T06:59:28Z</time>
				<extensions>
				</extensions>
			</trkpt>
			<trkpt lat="-28.186690" lon="153.040383">
				<ele>159</ele>
				<time>2015-05-07T06:59:29Z</time>
				<extensions>
				</extensions>
			</trkpt>
			<trkpt lat="-28.186493" lon="153.040369">
				<ele>160</ele>
				<time>2015-05-07T06:59:30Z</time>
				<extensions>
				</extensions>
			</trkpt>
			<trkpt lat="-28.186293" lon="153.040358">
				<ele>160</ele>
				<time>2015-05-07T06:59:31Z</time>
				<extensions>
				</extensions>
			</trkpt>
			<trkpt lat="-28.186104" lon="153.040356">
				<ele>159</ele>
				<time>2015-05-07T06:59:32Z</time>
				<extensions>
				</extensions>
			</trkpt>
			<trkpt lat="-28.185920" lon="153.040364">
				<ele>158</ele>
				<time>2015-05-07T06:59:33Z</time>
				<extensions>
				</extensions>
			</trkpt>
			<trkpt lat="-28.185729" lon="153.040380">
				<ele>158</ele>
				<time>2015-05-07T06:59:34Z</time>
				<extensions>
				</extensions>
			</trkpt>
			<trkpt lat="-28.185376" lon="153.040426">
				<ele>155</ele>
				<time>2015-05-07T06:59:36Z</time>
				<extensions>
				</extensions>
			</trkpt>
			<trkpt lat="-28.185041" lon="153.040473">
				<ele>153</ele>
				<time>2015-05-07T06:59:38Z</time>
				<extensions>
				</extensions>
			</trkpt>
			<trkpt lat="-28.184727" lon="153.040515">
				<ele>152</ele>
				<time>2015-05-07T06:59:40Z</time>
				<extensions>
				</extensions>
			</trkpt>
			<trkpt lat="-28.184424" lon="153.040527">
				<ele>150</ele>
				<time>2015-05-07T06:59:42Z</time>
				<extensions>
				</extensions>
			</trkpt>
			<trkpt lat="-28.184145" lon="153.040501">
				<ele>150</ele>
				<time>2015-05-07T06:59:44Z</time>
				<extensions>
				</extensions>
			</trkpt>
			<trkpt lat="-28.183850" lon="153.040469">
				<ele>151</ele>
				<time>2015-05-07T06:59:46Z</time>
				<extensions>
				</extensions>
			</trkpt>
			<trkpt lat="-28.183541" lon="153.040431">
				<ele>152</ele>
				<time>2015-05-07T06:59:48Z</time>
				<extensions>
				</extensions>
			</trkpt>
			<trkpt lat="-28.183228" lon="153.040385">
				<ele>152</ele>
				<time>2015-05-07T06:59:50Z</time>
				<extensions>
				</extensions>
			</trkpt>
			<trkpt lat="-28.182927" lon="153.040338">
				<ele>153</ele>
				<time>2015-05-07T06:59:52Z</time>
				<extensions>
				</extensions>
			</trkpt>
			<trkpt lat="-28.182601" lon="153.040371">
				<ele>152</ele>
				<time>2015-05-07T06:59:54Z</time>
				<extensions>
				</extensions>
			</trkpt>
			<trkpt lat="-28.182269" lon="153.040458">
				<ele>154</ele>
				<time>2015-05-07T06:59:56Z</time>
				<extensions>
				</extensions>
			</trkpt>
			<trkpt lat="-28.181927" lon="153.040599">
				<ele>156</ele>
				<time>2015-05-07T06:59:58Z</time>
				<extensions>
				</extensions>
			</trkpt>
			<trkpt lat="-28.181751" lon="153.040684">
				<ele>157</ele>
				<time>2015-05-07T06:59:59Z</time>
				<extensions>
				</extensions>
			</trkpt>
			<trkpt lat="-28.181575" lon="153.040759">
				<ele>157</ele>
				<time>2015-05-07T07:00:00Z</time>
				<extensions>
				</extensions>
			</trkpt>
			<trkpt lat="-28.181390" lon="153.040830">
				<ele>156</ele>
				<time>2015-05-07T07:00:01Z</time>
				<extensions>
				</extensions>
			</trkpt>
			<trkpt lat="-28.181064" lon="153.040931">
				<ele>155</ele>
				<time>2015-05-07T07:00:03Z</time>
				<extensions>
				</extensions>
			</trkpt>
			<trkpt lat="-28.180717" lon="153.040984">
				<ele>154</ele>
				<time>2015-05-07T07:00:05Z</time>
				<extensions>
				</extensions>
			</trkpt>
			<trkpt lat="-28.180376" lon="153.040991">
				<ele>153</ele>
				<time>2015-05-07T07:00:07Z</time>
				<extensions>
				</extensions>
			</trkpt>
			<trkpt lat="-28.180075" lon="153.040977">
				<ele>153</ele>
				<time>2015-05-07T07:00:09Z</time>
				<extensions>
				</extensions>
			</trkpt>
			<trkpt lat="-28.179808" lon="153.040951">
				<ele>150</ele>
				<time>2015-05-07T07:00:11Z</time>
				<extensions>
				</extensions>
			</trkpt>
			<trkpt lat="-28.179589" lon="153.040919">
				<ele>149</ele>
				<time>2015-05-07T07:00:13Z</time>
				<extensions>
				</extensions>
			</trkpt>
			<trkpt lat="-28.179360" lon="153.040877">
				<ele>148</ele>
				<time>2015-05-07T07:00:16Z</time>
				<extensions>
				</extensions>
			</trkpt>
			<trkpt lat="-28.179151" lon="153.040861">
				<ele>155</ele>
				<time>2015-05-07T07:02:54Z</time>
				<extensions>
				</extensions>
			</trkpt>
			<trkpt lat="-28.178933" lon="153.040860">
				<ele>158</ele>
				<time>2015-05-07T07:02:57Z</time>
				<extensions>
				</extensions>
			</trkpt>
			<trkpt lat="-28.178705" lon="153.040841">
				<ele>161</ele>
				<time>2015-05-07T07:02:59Z</time>
				<extensions>
				</extensions>
			</trkpt>
			<trkpt lat="-28.178455" lon="153.040823">
				<ele>165</ele>
				<time>2015-05-07T07:03:01Z</time>
				<extensions>
				</extensions>
			</trkpt>
			<trkpt lat="-28.178163" lon="153.040792">
				<ele>168</ele>
				<time>2015-05-07T07:03:03Z</time>
				<extensions>
				</extensions>
			</trkpt>
			<trkpt lat="-28.177868" lon="153.040766">
				<ele>172</ele>
				<time>2015-05-07T07:03:05Z</time>
				<extensions>
				</extensions>
			</trkpt>
			<trkpt lat="-28.177549" lon="153.040744">
				<ele>176</ele>
				<time>2015-05-07T07:03:07Z</time>
				<extensions>
				</extensions>
			</trkpt>
			<trkpt lat="-28.177219" lon="153.040751">
				<ele>178</ele>
				<time>2015-05-07T07:03:09Z</time>
				<extensions>
				</extensions>
			</trkpt>
			<trkpt lat="-28.176862" lon="153.040791">
				<ele>180</ele>
				<time>2015-05-07T07:03:11Z</time>
				<extensions>
				</extensions>
			</trkpt>
			<trkpt lat="-28.176681" lon="153.040832">
				<ele>181</ele>
				<time>2015-05-07T07:03:12Z</time>
				<extensions>
				</extensions>
			</trkpt>
			<trkpt lat="-28.176345" lon="153.040949">
				<ele>178</ele>
				<time>2015-05-07T07:03:14Z</time>
				<extensions>
				</extensions>
			</trkpt>
			<trkpt lat="-28.176053" lon="153.041075">
				<ele>175</ele>
				<time>2015-05-07T07:03:16Z</time>
				<extensions>
				</extensions>
			</trkpt>
			<trkpt lat="-28.175786" lon="153.041181">
				<ele>168</ele>
				<time>2015-05-07T07:03:18Z</time>
				<extensions>
				</extensions>
			</trkpt>
			<trkpt lat="-28.175533" lon="153.041285">
				<ele>165</ele>
				<time>2015-05-07T07:03:20Z</time>
				<extensions>
				</extensions>
			</trkpt>
			<trkpt lat="-28.175239" lon="153.041405">
				<ele>165</ele>
				<time>2015-05-07T07:03:22Z</time>
				<extensions>
				</extensions>
			</trkpt>
			<trkpt lat="-28.174920" lon="153.041547">
				<ele>165</ele>
				<time>2015-05-07T07:03:24Z</time>
				<extensions>
				</extensions>
			</trkpt>
			<trkpt lat="-28.174594" lon="153.041696">
				<ele>162</ele>
				<time>2015-05-07T07:03:26Z</time>
				<extensions>
				</extensions>
			</trkpt>
			<trkpt lat="-28.174251" lon="153.041831">
				<ele>160</ele>
				<time>2015-05-07T07:03:28Z</time>
				<extensions>
				</extensions>
			</trkpt>
			<trkpt lat="-28.174071" lon="153.041892">
				<ele>158</ele>
				<time>2015-05-07T07:03:29Z</time>
				<extensions>
				</extensions>
			</trkpt>
			<trkpt lat="-28.173891" lon="153.041946">
				<ele>158</ele>
				<time>2015-05-07T07:03:30Z</time>
				<extensions>
				</extensions>
			</trkpt>
			<trkpt lat="-28.173706" lon="153.041990">
				<ele>157</ele>
				<time>2015-05-07T07:03:31Z</time>
				<extensions>
				</extensions>
			</trkpt>
			<trkpt lat="-28.173520" lon="153.042020">
				<ele>157</ele>
				<time>2015-05-07T07:03:32Z</time>
				<extensions>
				</extensions>
			</trkpt>
			<trkpt lat="-28.173334" lon="153.042038">
				<ele>156</ele>
				<time>2015-05-07T07:03:33Z</time>
				<extensions>
				</extensions>
			</trkpt>
			<trkpt lat="-28.173139" lon="153.042036">
				<ele>156</ele>
				<time>2015-05-07T07:03:34Z</time>
				<extensions>
				</extensions>
			</trkpt>
			<trkpt lat="-28.172937" lon="153.042023">
				<ele>156</ele>
				<time>2015-05-07T07:03:35Z</time>
				<extensions>
				</extensions>
			</trkpt>
			<trkpt lat="-28.172728" lon="153.042006">
				<ele>158</ele>
				<time>2015-05-07T07:03:36Z</time>
				<extensions>
				</extensions>
			</trkpt>
			<trkpt lat="-28.172521" lon="153.041990">
				<ele>159</ele>
				<time>2015-05-07T07:03:37Z</time>
				<extensions>
				</extensions>
			</trkpt>
			<trkpt lat="-28.172325" lon="153.041973">
				<ele>158</ele>
				<time>2015-05-07T07:03:38Z</time>
				<extensions>
				</extensions>
			</trkpt>
			<trkpt lat="-28.172120" lon="153.041961">
				<ele>157</ele>
				<time>2015-05-07T07:03:39Z</time>
				<extensions>
				</extensions>
			</trkpt>
			<trkpt lat="-28.171920" lon="153.041945">
				<ele>156</ele>
				<time>2015-05-07T07:03:40Z</time>
				<extensions>
				</extensions>
			</trkpt>
			<trkpt lat="-28.171725" lon="153.041927">
				<ele>157</ele>
				<time>2015-05-07T07:03:41Z</time>
				<extensions>
				</extensions>
			</trkpt>
			<trkpt lat="-28.171512" lon="153.041903">
				<ele>157</ele>
				<time>2015-05-07T07:03:42Z</time>
				<extensions>
				</extensions>
			</trkpt>
			<trkpt lat="-28.171301" lon="153.041872">
				<ele>158</ele>
				<time>2015-05-07T07:03:43Z</time>
				<extensions>
				</extensions>
			</trkpt>
			<trkpt lat="-28.171091" lon="153.041836">
				<ele>159</ele>
				<time>2015-05-07T07:03:44Z</time>
				<extensions>
				</extensions>
			</trkpt>
			<trkpt lat="-28.170890" lon="153.041801">
				<ele>159</ele>
				<time>2015-05-07T07:03:45Z</time>
				<extensions>
				</extensions>
			</trkpt>
			<trkpt lat="-28.170690" lon="153.041764">
				<ele>158</ele>
				<time>2015-05-07T07:03:46Z</time>
				<extensions>
				</extensions>
			</trkpt>
			<trkpt lat="-28.170488" lon="153.041728">
				<ele>157</ele>
				<time>2015-05-07T07:03:47Z</time>
				<extensions>
				</extensions>
			</trkpt>
			<trkpt lat="-28.170301" lon="153.041695">
				<ele>157</ele>
				<time>2015-05-07T07:03:48Z</time>
				<extensions>
				</extensions>
			</trkpt>
			<trkpt lat="-28.170109" lon="153.041662">
				<ele>157</ele>
				<time>2015-05-07T07:03:49Z</time>
				<extensions>
				</extensions>
			</trkpt>
			<trkpt lat="-28.169922" lon="153.041639">
				<ele>156</ele>
				<time>2015-05-07T07:03:50Z</time>
				<extensions>
				</extensions>
			</trkpt>
			<trkpt lat="-28.169732" lon="153.041636">
				<ele>156</ele>
				<time>2015-05-07T07:03:51Z</time>
				<extensions>
				</extensions>
			</trkpt>
			<trkpt lat="-28.169547" lon="153.041653">
				<ele>156</ele>
				<time>2015-05-07T07:03:52Z</time>
				<extensions>
				</extensions>
			</trkpt>
			<trkpt lat="-28.169368" lon="153.041689">
				<ele>156</ele>
				<time>2015-05-07T07:03:53Z</time>
				<extensions>
				</extensions>
			</trkpt>
			<trkpt lat="-28.169191" lon="153.041745">
				<ele>156</ele>
				<time>2015-05-07T07:03:54Z</time>
				<extensions>
				</extensions>
			</trkpt>
			<trkpt lat="-28.169016" lon="153.041824">
				<ele>156</ele>
				<time>2015-05-07T07:03:55Z</time>
				<extensions>
				</extensions>
			</trkpt>
			<trkpt lat="-28.168853" lon="153.041919">
				<ele>156</ele>
				<time>2015-05-07T07:03:56Z</time>
				<extensions>
				</extensions>
			</trkpt>
			<trkpt lat="-28.168701" lon="153.042033">
				<ele>156</ele>
				<time>2015-05-07T07:03:57Z</time>
				<extensions>
				</extensions>
			</trkpt>
			<trkpt lat="-28.168548" lon="153.042160">
				<ele>156</ele>
				<time>2015-05-07T07:03:58Z</time>
				<extensions>
				</extensions>
			</trkpt>
			<trkpt lat="-28.168406" lon="153.042294">
				<ele>157</ele>
				<time>2015-05-07T07:03:59Z</time>
				<extensions>
				</extensions>
			</trkpt>
			<trkpt lat="-28.168265" lon="153.042434">
				<ele>158</ele>
				<time>2015-05-07T07:04:00Z</time>
				<extensions>
				</extensions>
			</trkpt>
			<trkpt lat="-28.168122" lon="153.042579">
				<ele>157</ele>
				<time>2015-05-07T07:04:01Z</time>
				<extensions>
				</extensions>
			</trkpt>
			<trkpt lat="-28.167982" lon="153.042722">
				<ele>157</ele>
				<time>2015-05-07T07:04:02Z</time>
				<extensions>
				</extensions>
			</trkpt>
			<trkpt lat="-28.167839" lon="153.042869">
				<ele>156</ele>
				<time>2015-05-07T07:04:03Z</time>
				<extensions>
				</extensions>
			</trkpt>
			<trkpt lat="-28.167701" lon="153.043010">
				<ele>156</ele>
				<time>2015-05-07T07:04:04Z</time>
				<extensions>
				</extensions>
			</trkpt>
			<trkpt lat="-28.167559" lon="153.043159">
				<ele>156</ele>
				<time>2015-05-07T07:04:05Z</time>
				<extensions>
				</extensions>
			</trkpt>
			<trkpt lat="-28.167422" lon="153.043319">
				<ele>156</ele>
				<time>2015-05-07T07:04:06Z</time>
				<extensions>
				</extensions>
			</trkpt>
			<trkpt lat="-28.167296" lon="153.043477">
				<ele>157</ele>
				<time>2015-05-07T07:04:07Z</time>
				<extensions>
				</extensions>
			</trkpt>
			<trkpt lat="-28.167167" lon="153.043641">
				<ele>158</ele>
				<time>2015-05-07T07:04:08Z</time>
				<extensions>
				</extensions>
			</trkpt>
			<trkpt lat="-28.167036" lon="153.043812">
				<ele>158</ele>
				<time>2015-05-07T07:04:09Z</time>
				<extensions>
				</extensions>
			</trkpt>
			<trkpt lat="-28.166910" lon="153.043982">
				<ele>158</ele>
				<time>2015-05-07T07:04:10Z</time>
				<extensions>
				</extensions>
			</trkpt>
			<trkpt lat="-28.166778" lon="153.044160">
				<ele>158</ele>
				<time>2015-05-07T07:04:11Z</time>
				<extensions>
				</extensions>
			</trkpt>
			<trkpt lat="-28.166652" lon="153.044334">
				<ele>158</ele>
				<time>2015-05-07T07:04:12Z</time>
				<extensions>
				</extensions>
			</trkpt>
			<trkpt lat="-28.166524" lon="153.044512">
				<ele>157</ele>
				<time>2015-05-07T07:04:13Z</time>
				<extensions>
				</extensions>
			</trkpt>
			<trkpt lat="-28.166399" lon="153.044689">
				<ele>156</ele>
				<time>2015-05-07T07:04:14Z</time>
				<extensions>
				</extensions>
			</trkpt>
			<trkpt lat="-28.166268" lon="153.044855">
				<ele>155</ele>
				<time>2015-05-07T07:04:15Z</time>
				<extensions>
				</extensions>
			</trkpt>
			<trkpt lat="-28.166140" lon="153.045023">
				<ele>154</ele>
				<time>2015-05-07T07:04:16Z</time>
				<extensions>
				</extensions>
			</trkpt>
			<trkpt lat="-28.166014" lon="153.045191">
				<ele>154</ele>
				<time>2015-05-07T07:04:17Z</time>
				<extensions>
				</extensions>
			</trkpt>
			<trkpt lat="-28.165886" lon="153.045362">
				<ele>154</ele>
				<time>2015-05-07T07:04:18Z</time>
				<extensions>
				</extensions>
			</trkpt>
			<trkpt lat="-28.165759" lon="153.045523">
				<ele>154</ele>
				<time>2015-05-07T07:04:19Z</time>
				<extensions>
				</extensions>
			</trkpt>
			<trkpt lat="-28.165630" lon="153.045675">
				<ele>154</ele>
				<time>2015-05-07T07:04:20Z</time>
				<extensions>
				</extensions>
			</trkpt>
			<trkpt lat="-28.165493" lon="153.045810">
				<ele>154</ele>
				<time>2015-05-07T07:04:21Z</time>
				<extensions>
				</extensions>
			</trkpt>
			<trkpt lat="-28.165194" lon="153.046021">
				<ele>154</ele>
				<time>2015-05-07T07:04:23Z</time>
				<extensions>
				</extensions>
			</trkpt>
			<trkpt lat="-28.164865" lon="153.046160">
				<ele>155</ele>
				<time>2015-05-07T07:04:25Z</time>
				<extensions>
				</extensions>
			</trkpt>
			<trkpt lat="-28.164500" lon="153.046205">
				<ele>156</ele>
				<time>2015-05-07T07:04:27Z</time>
				<extensions>
				</extensions>
			</trkpt>
			<trkpt lat="-28.164318" lon="153.046181">
				<ele>155</ele>
				<time>2015-05-07T07:04:28Z</time>
				<extensions>
				</extensions>
			</trkpt>
			<trkpt lat="-28.164131" lon="153.046140">
				<ele>157</ele>
				<time>2015-05-07T07:04:29Z</time>
				<extensions>
				</extensions>
			</trkpt>
			<trkpt lat="-28.163952" lon="153.046068">
				<ele>159</ele>
				<time>2015-05-07T07:04:30Z</time>
				<extensions>
				</extensions>
			</trkpt>
			<trkpt lat="-28.163783" lon="153.045973">
				<ele>161</ele>
				<time>2015-05-07T07:04:31Z</time>
				<extensions>
				</extensions>
			</trkpt>
			<trkpt lat="-28.163619" lon="153.045862">
				<ele>162</ele>
				<time>2015-05-07T07:04:32Z</time>
				<extensions>
				</extensions>
			</trkpt>
			<trkpt lat="-28.163457" lon="153.045738">
				<ele>164</ele>
				<time>2015-05-07T07:04:33Z</time>
				<extensions>
				</extensions>
			</trkpt>
			<trkpt lat="-28.163310" lon="153.045602">
				<ele>164</ele>
				<time>2015-05-07T07:04:34Z</time>
				<extensions>
				</extensions>
			</trkpt>
			<trkpt lat="-28.163153" lon="153.045454">
				<ele>165</ele>
				<time>2015-05-07T07:04:35Z</time>
				<extensions>
				</extensions>
			</trkpt>
			<trkpt lat="-28.163000" lon="153.045312">
				<ele>167</ele>
				<time>2015-05-07T07:04:36Z</time>
				<extensions>
				</extensions>
			</trkpt>
			<trkpt lat="-28.162853" lon="153.045168">
				<ele>169</ele>
				<time>2015-05-07T07:04:37Z</time>
				<extensions>
				</extensions>
			</trkpt>
			<trkpt lat="-28.162705" lon="153.045019">
				<ele>170</ele>
				<time>2015-05-07T07:04:38Z</time>
				<extensions>
				</extensions>
			</trkpt>
			<trkpt lat="-28.162574" lon="153.044876">
				<ele>169</ele>
				<time>2015-05-07T07:04:39Z</time>
				<extensions>
				</extensions>
			</trkpt>
			<trkpt lat="-28.162438" lon="153.044736">
				<ele>168</ele>
				<time>2015-05-07T07:04:40Z</time>
				<extensions>
				</extensions>
			</trkpt>
			<trkpt lat="-28.162307" lon="153.044594">
				<ele>167</ele>
				<time>2015-05-07T07:04:41Z</time>
				<extensions>
				</extensions>
			</trkpt>
			<trkpt lat="-28.162054" lon="153.044283">
				<ele>163</ele>
				<time>2015-05-07T07:04:43Z</time>
				<extensions>
				</extensions>
			</trkpt>
			<trkpt lat="-28.161939" lon="153.044116">
				<ele>161</ele>
				<time>2015-05-07T07:04:44Z</time>
				<extensions>
				</extensions>
			</trkpt>
			<trkpt lat="-28.161822" lon="153.043938">
				<ele>158</ele>
				<time>2015-05-07T07:04:45Z</time>
				<extensions>
				</extensions>
			</trkpt>
			<trkpt lat="-28.161705" lon="153.043759">
				<ele>156</ele>
				<time>2015-05-07T07:04:46Z</time>
				<extensions>
				</extensions>
			</trkpt>
			<trkpt lat="-28.161596" lon="153.043588">
				<ele>152</ele>
				<time>2015-05-07T07:04:47Z</time>
				<extensions>
				</extensions>
			</trkpt>
			<trkpt lat="-28.161387" lon="153.043267">
				<ele>148</ele>
				<time>2015-05-07T07:04:49Z</time>
				<extensions>
				</extensions>
			</trkpt>
			<trkpt lat="-28.161167" lon="153.042992">
				<ele>147</ele>
				<time>2015-05-07T07:04:51Z</time>
				<extensions>
				</extensions>
			</trkpt>
			<trkpt lat="-28.160925" lon="153.042765">
				<ele>145</ele>
				<time>2015-05-07T07:04:53Z</time>
				<extensions>
				</extensions>
			</trkpt>
			<trkpt lat="-28.160663" lon="153.042578">
				<ele>143</ele>
				<time>2015-05-07T07:04:55Z</time>
				<extensions>
				</extensions>
			</trkpt>
			<trkpt lat="-28.160367" lon="153.042448">
				<ele>144</ele>
				<time>2015-05-07T07:04:57Z</time>
				<extensions>
				</extensions>
			</trkpt>
			<trkpt lat="-28.160068" lon="153.042367">
				<ele>143</ele>
				<time>2015-05-07T07:04:59Z</time>
				<extensions>
				</extensions>
			</trkpt>
			<trkpt lat="-28.159827" lon="153.042341">
				<ele>140</ele>
				<time>2015-05-07T07:05:01Z</time>
				<extensions>
				</extensions>
			</trkpt>
			<trkpt lat="-28.159620" lon="153.042346">
				<ele>138</ele>
				<time>2015-05-07T07:05:03Z</time>
				<extensions>
				</extensions>
			</trkpt>
			<trkpt lat="-28.159435" lon="153.042368">
				<ele>137</ele>
				<time>2015-05-07T07:05:05Z</time>
				<extensions>
				</extensions>
			</trkpt>
			<trkpt lat="-28.159174" lon="153.042422">
				<ele>136</ele>
				<time>2015-05-07T07:05:08Z</time>
				<extensions>
				</extensions>
			</trkpt>
			<trkpt lat="-28.158990" lon="153.042462">
				<ele>135</ele>
				<time>2015-05-07T07:05:10Z</time>
				<extensions>
				</extensions>
			</trkpt>
			<trkpt lat="-28.158771" lon="153.042509">
				<ele>136</ele>
				<time>2015-05-07T07:05:12Z</time>
				<extensions>
				</extensions>
			</trkpt>
			<trkpt lat="-28.158533" lon="153.042569">
				<ele>136</ele>
				<time>2015-05-07T07:05:14Z</time>
				<extensions>
				</extensions>
			</trkpt>
			<trkpt lat="-28.158267" lon="153.042632">
				<ele>137</ele>
				<time>2015-05-07T07:05:16Z</time>
				<extensions>
				</extensions>
			</trkpt>
			<trkpt lat="-28.157977" lon="153.042694">
				<ele>138</ele>
				<time>2015-05-07T07:05:18Z</time>
				<extensions>
				</extensions>
			</trkpt>
			<trkpt lat="-28.157674" lon="153.042762">
				<ele>138</ele>
				<time>2015-05-07T07:05:20Z</time>
				<extensions>
				</extensions>
			</trkpt>
			<trkpt lat="-28.157363" lon="153.042832">
				<ele>139</ele>
				<time>2015-05-07T07:05:22Z</time>
				<extensions>
				</extensions>
			</trkpt>
			<trkpt lat="-28.157050" lon="153.042898">
				<ele>139</ele>
				<time>2015-05-07T07:05:24Z</time>
				<extensions>
				</extensions>
			</trkpt>
			<trkpt lat="-28.156731" lon="153.042944">
				<ele>139</ele>
				<time>2015-05-07T07:05:26Z</time>
				<extensions>
				</extensions>
			</trkpt>
			<trkpt lat="-28.156425" lon="153.042950">
				<ele>138</ele>
				<time>2015-05-07T07:05:28Z</time>
				<extensions>
				</extensions>
			</trkpt>
			<trkpt lat="-28.156118" lon="153.042898">
				<ele>139</ele>
				<time>2015-05-07T07:05:30Z</time>
				<extensions>
				</extensions>
			</trkpt>
			<trkpt lat="-28.155806" lon="153.042793">
				<ele>139</ele>
				<time>2015-05-07T07:05:32Z</time>
				<extensions>
				</extensions>
			</trkpt>
			<trkpt lat="-28.155501" lon="153.042660">
				<ele>140</ele>
				<time>2015-05-07T07:05:34Z</time>
				<extensions>
				</extensions>
			</trkpt>
			<trkpt lat="-28.155181" lon="153.042522">
				<ele>140</ele>
				<time>2015-05-07T07:05:36Z</time>
				<extensions>
				</extensions>
			</trkpt>
			<trkpt lat="-28.154849" lon="153.042376">
				<ele>141</ele>
				<time>2015-05-07T07:05:38Z</time>
				<extensions>
				</extensions>
			</trkpt>
			<trkpt lat="-28.154677" lon="153.042299">
				<ele>141</ele>
				<time>2015-05-07T07:05:39Z</time>
				<extensions>
				</extensions>
			</trkpt>
			<trkpt lat="-28.154508" lon="153.042223">
				<ele>141</ele>
				<time>2015-05-07T07:05:40Z</time>
				<extensions>
				</extensions>
			</trkpt>
			<trkpt lat="-28.154335" lon="153.042145">
				<ele>141</ele>
				<time>2015-05-07T07:05:41Z</time>
				<extensions>
				</extensions>
			</trkpt>
			<trkpt lat="-28.154153" lon="153.042062">
				<ele>141</ele>
				<time>2015-05-07T07:05:42Z</time>
				<extensions>
				</extensions>
			</trkpt>
			<trkpt lat="-28.153970" lon="153.041978">
				<ele>142</ele>
				<time>2015-05-07T07:05:43Z</time>
				<extensions>
				</extensions>
			</trkpt>
			<trkpt lat="-28.153779" lon="153.041890">
				<ele>143</ele>
				<time>2015-05-07T07:05:44Z</time>
				<extensions>
				</extensions>
			</trkpt>
			<trkpt lat="-28.153583" lon="153.041801">
				<ele>143</ele>
				<time>2015-05-07T07:05:45Z</time>
				<extensions>
				</extensions>
			</trkpt>
			<trkpt lat="-28.153393" lon="153.041711">
				<ele>144</ele>
				<time>2015-05-07T07:05:46Z</time>
				<extensions>
				</extensions>
			</trkpt>
			<trkpt lat="-28.153196" lon="153.041627">
				<ele>144</ele>
				<time>2015-05-07T07:05:47Z</time>
				<extensions>
				</extensions>
			</trkpt>
			<trkpt lat="-28.152990" lon="153.041537">
				<ele>144</ele>
				<time>2015-05-07T07:05:48Z</time>
				<extensions>
				</extensions>
			</trkpt>
			<trkpt lat="-28.152791" lon="153.041447">
				<ele>143</ele>
				<time>2015-05-07T07:05:49Z</time>
				<extensions>
				</extensions>
			</trkpt>
			<trkpt lat="-28.152598" lon="153.041353">
				<ele>143</ele>
				<time>2015-05-07T07:05:50Z</time>
				<extensions>
				</extensions>
			</trkpt>
			<trkpt lat="-28.152411" lon="153.041270">
				<ele>142</ele>
				<time>2015-05-07T07:05:51Z</time>
				<extensions>
				</extensions>
			</trkpt>
			<trkpt lat="-28.152234" lon="153.041192">
				<ele>141</ele>
				<time>2015-05-07T07:05:52Z</time>
				<extensions>
				</extensions>
			</trkpt>
			<trkpt lat="-28.152061" lon="153.041118">
				<ele>140</ele>
				<time>2015-05-07T07:05:53Z</time>
				<extensions>
				</extensions>
			</trkpt>
			<trkpt lat="-28.151722" lon="153.041001">
				<ele>138</ele>
				<time>2015-05-07T07:05:55Z</time>
				<extensions>
				</extensions>
			</trkpt>
			<trkpt lat="-28.151543" lon="153.040960">
				<ele>138</ele>
				<time>2015-05-07T07:05:56Z</time>
				<extensions>
				</extensions>
			</trkpt>
			<trkpt lat="-28.151360" lon="153.040937">
				<ele>138</ele>
				<time>2015-05-07T07:05:57Z</time>
				<extensions>
				</extensions>
			</trkpt>
			<trkpt lat="-28.151176" lon="153.040927">
				<ele>138</ele>
				<time>2015-05-07T07:05:58Z</time>
				<extensions>
				</extensions>
			</trkpt>
			<trkpt lat="-28.150976" lon="153.040925">
				<ele>139</ele>
				<time>2015-05-07T07:05:59Z</time>
				<extensions>
				</extensions>
			</trkpt>
			<trkpt lat="-28.150783" lon="153.040924">
				<ele>140</ele>
				<time>2015-05-07T07:06:00Z</time>
				<extensions>
				</extensions>
			</trkpt>
			<trkpt lat="-28.150586" lon="153.040926">
				<ele>140</ele>
				<time>2015-05-07T07:06:01Z</time>
				<extensions>
				</extensions>
			</trkpt>
			<trkpt lat="-28.150400" lon="153.040928">
				<ele>139</ele>
				<time>2015-05-07T07:06:02Z</time>
				<extensions>
				</extensions>
			</trkpt>
			<trkpt lat="-28.150213" lon="153.040933">
				<ele>138</ele>
				<time>2015-05-07T07:06:03Z</time>
				<extensions>
				</extensions>
			</trkpt>
			<trkpt lat="-28.149855" lon="153.040944">
				<ele>138</ele>
				<time>2015-05-07T07:06:05Z</time>
				<extensions>
				</extensions>
			</trkpt>
			<trkpt lat="-28.149663" lon="153.040949">
				<ele>138</ele>
				<time>2015-05-07T07:06:06Z</time>
				<extensions>
				</extensions>
			</trkpt>
			<trkpt lat="-28.149312" lon="153.040959">
				<ele>138</ele>
				<time>2015-05-07T07:06:08Z</time>
				<extensions>
				</extensions>
			</trkpt>
			<trkpt lat="-28.148959" lon="153.040963">
				<ele>138</ele>
				<time>2015-05-07T07:06:10Z</time>
				<extensions>
				</extensions>
			</trkpt>
			<trkpt lat="-28.148764" lon="153.040969">
				<ele>138</ele>
				<time>2015-05-07T07:06:11Z</time>
				<extensions>
				</extensions>
			</trkpt>
			<trkpt lat="-28.148569" lon="153.040972">
				<ele>139</ele>
				<time>2015-05-07T07:06:12Z</time>
				<extensions>
				</extensions>
			</trkpt>
			<trkpt lat="-28.148380" lon="153.040976">
				<ele>139</ele>
				<time>2015-05-07T07:06:13Z</time>
				<extensions>
				</extensions>
			</trkpt>
			<trkpt lat="-28.148176" lon="153.040978">
				<ele>139</ele>
				<time>2015-05-07T07:06:14Z</time>
				<extensions>
				</extensions>
			</trkpt>
			<trkpt lat="-28.147976" lon="153.040985">
				<ele>139</ele>
				<time>2015-05-07T07:06:15Z</time>
				<extensions>
				</extensions>
			</trkpt>
			<trkpt lat="-28.147787" lon="153.040996">
				<ele>138</ele>
				<time>2015-05-07T07:06:16Z</time>
				<extensions>
				</extensions>
			</trkpt>
			<trkpt lat="-28.147589" lon="153.041015">
				<ele>138</ele>
				<time>2015-05-07T07:06:17Z</time>
				<extensions>
				</extensions>
			</trkpt>
			<trkpt lat="-28.147375" lon="153.041042">
				<ele>139</ele>
				<time>2015-05-07T07:06:18Z</time>
				<extensions>
				</extensions>
			</trkpt>
			<trkpt lat="-28.147141" lon="153.041079">
				<ele>140</ele>
				<time>2015-05-07T07:06:19Z</time>
				<extensions>
				</extensions>
			</trkpt>
			<trkpt lat="-28.146907" lon="153.041118">
				<ele>142</ele>
				<time>2015-05-07T07:06:20Z</time>
				<extensions>
				</extensions>
			</trkpt>
			<trkpt lat="-28.146672" lon="153.041161">
				<ele>144</ele>
				<time>2015-05-07T07:06:21Z</time>
				<extensions>
				</extensions>
			</trkpt>
			<trkpt lat="-28.146424" lon="153.041213">
				<ele>146</ele>
				<time>2015-05-07T07:06:22Z</time>
				<extensions>
				</extensions>
			</trkpt>
			<trkpt lat="-28.146181" lon="153.041263">
				<ele>147</ele>
				<time>2015-05-07T07:06:23Z</time>
				<extensions>
				</extensions>
			</trkpt>
			<trkpt lat="-28.145948" lon="153.041309">
				<ele>148</ele>
				<time>2015-05-07T07:06:24Z</time>
				<extensions>
				</extensions>
			</trkpt>
			<trkpt lat="-28.145703" lon="153.041358">
				<ele>149</ele>
				<time>2015-05-07T07:06:25Z</time>
				<extensions>
				</extensions>
			</trkpt>
			<trkpt lat="-28.145463" lon="153.041401">
				<ele>149</ele>
				<time>2015-05-07T07:06:26Z</time>
				<extensions>
				</extensions>
			</trkpt>
			<trkpt lat="-28.145220" lon="153.041448">
				<ele>150</ele>
				<time>2015-05-07T07:06:27Z</time>
				<extensions>
				</extensions>
			</trkpt>
			<trkpt lat="-28.144985" lon="153.041493">
				<ele>150</ele>
				<time>2015-05-07T07:06:28Z</time>
				<extensions>
				</extensions>
			</trkpt>
			<trkpt lat="-28.144744" lon="153.041537">
				<ele>150</ele>
				<time>2015-05-07T07:06:29Z</time>
				<extensions>
				</extensions>
			</trkpt>
			<trkpt lat="-28.144546" lon="153.041569">
				<ele>150</ele>
				<time>2015-05-07T07:06:30Z</time>
				<extensions>
				</extensions>
			</trkpt>
			<trkpt lat="-28.144312" lon="153.041608">
				<ele>151</ele>
				<time>2015-05-07T07:06:31Z</time>
				<extensions>
				</extensions>
			</trkpt>
			<trkpt lat="-28.144072" lon="153.041659">
				<ele>151</ele>
				<time>2015-05-07T07:06:32Z</time>
				<extensions>
				</extensions>
			</trkpt>
			<trkpt lat="-28.143833" lon="153.041697">
				<ele>152</ele>
				<time>2015-05-07T07:06:33Z</time>
				<extensions>
				</extensions>
			</trkpt>
			<trkpt lat="-28.143603" lon="153.041741">
				<ele>153</ele>
				<time>2015-05-07T07:06:34Z</time>
				<extensions>
				</extensions>
			</trkpt>
			<trkpt lat="-28.143375" lon="153.041788">
				<ele>153</ele>
				<time>2015-05-07T07:06:35Z</time>
				<extensions>
				</extensions>
			</trkpt>
			<trkpt lat="-28.143134" lon="153.041824">
				<ele>154</ele>
				<time>2015-05-07T07:06:36Z</time>
				<extensions>
				</extensions>
			</trkpt>
			<trkpt lat="-28.142917" lon="153.041860">
				<ele>155</ele>
				<time>2015-05-07T07:06:37Z</time>
				<extensions>
				</extensions>
			</trkpt>
			<trkpt lat="-28.142683" lon="153.041894">
				<ele>156</ele>
				<time>2015-05-07T07:06:38Z</time>
				<extensions>
				</extensions>
			</trkpt>
			<trkpt lat="-28.142459" lon="153.041924">
				<ele>155</ele>
				<time>2015-05-07T07:06:39Z</time>
				<extensions>
				</extensions>
			</trkpt>
			<trkpt lat="-28.142228" lon="153.041954">
				<ele>156</ele>
				<time>2015-05-07T07:06:40Z</time>
				<extensions>
				</extensions>
			</trkpt>
			<trkpt lat="-28.141995" lon="153.041980">
				<ele>158</ele>
				<time>2015-05-07T07:06:41Z</time>
				<extensions>
				</extensions>
			</trkpt>
			<trkpt lat="-28.141770" lon="153.042000">
				<ele>158</ele>
				<time>2015-05-07T07:06:42Z</time>
				<extensions>
				</extensions>
			</trkpt>
			<trkpt lat="-28.141549" lon="153.042035">
				<ele>158</ele>
				<time>2015-05-07T07:06:43Z</time>
				<extensions>
				</extensions>
			</trkpt>
			<trkpt lat="-28.141323" lon="153.042065">
				<ele>155</ele>
				<time>2015-05-07T07:06:44Z</time>
				<extensions>
				</extensions>
			</trkpt>
			<trkpt lat="-28.141097" lon="153.042094">
				<ele>155</ele>
				<time>2015-05-07T07:06:45Z</time>
				<extensions>
				</extensions>
			</trkpt>
			<trkpt lat="-28.140873" lon="153.042124">
				<ele>155</ele>
				<time>2015-05-07T07:06:46Z</time>
				<extensions>
				</extensions>
			</trkpt>
			<trkpt lat="-28.140644" lon="153.042150">
				<ele>157</ele>
				<time>2015-05-07T07:06:47Z</time>
				<extensions>
				</extensions>
			</trkpt>
			<trkpt lat="-28.140407" lon="153.042179">
				<ele>158</ele>
				<time>2015-05-07T07:06:48Z</time>
				<extensions>
				</extensions>
			</trkpt>
			<trkpt lat="-28.140176" lon="153.042203">
				<ele>158</ele>
				<time>2015-05-07T07:06:49Z</time>
				<extensions>
				</extensions>
			</trkpt>
			<trkpt lat="-28.139937" lon="153.042240">
				<ele>156</ele>
				<time>2015-05-07T07:06:50Z</time>
				<extensions>
				</extensions>
			</trkpt>
			<trkpt lat="-28.139693" lon="153.042273">
				<ele>155</ele>
				<time>2015-05-07T07:06:51Z</time>
				<extensions>
				</extensions>
			</trkpt>
			<trkpt lat="-28.139455" lon="153.042312">
				<ele>154</ele>
				<time>2015-05-07T07:06:52Z</time>
				<extensions>
				</extensions>
			</trkpt>
			<trkpt lat="-28.139217" lon="153.042346">
				<ele>154</ele>
				<time>2015-05-07T07:06:53Z</time>
				<extensions>
				</extensions>
			</trkpt>
			<trkpt lat="-28.138965" lon="153.042382">
				<ele>154</ele>
				<time>2015-05-07T07:06:54Z</time>
				<extensions>
				</extensions>
			</trkpt>
			<trkpt lat="-28.138716" lon="153.042412">
				<ele>156</ele>
				<time>2015-05-07T07:06:55Z</time>
				<extensions>
				</extensions>
			</trkpt>
			<trkpt lat="-28.138461" lon="153.042439">
				<ele>156</ele>
				<time>2015-05-07T07:06:56Z</time>
				<extensions>
				</extensions>
			</trkpt>
			<trkpt lat="-28.138222" lon="153.042472">
				<ele>157</ele>
				<time>2015-05-07T07:06:57Z</time>
				<extensions>
				</extensions>
			</trkpt>
			<trkpt lat="-28.137975" lon="153.042509">
				<ele>157</ele>
				<time>2015-05-07T07:06:58Z</time>
				<extensions>
				</extensions>
			</trkpt>
			<trkpt lat="-28.137734" lon="153.042537">
				<ele>157</ele>
				<time>2015-05-07T07:06:59Z</time>
				<extensions>
				</extensions>
			</trkpt>
			<trkpt lat="-28.137494" lon="153.042571">
				<ele>156</ele>
				<time>2015-05-07T07:07:00Z</time>
				<extensions>
				</extensions>
			</trkpt>
			<trkpt lat="-28.137239" lon="153.042599">
				<ele>155</ele>
				<time>2015-05-07T07:07:01Z</time>
				<extensions>
				</extensions>
			</trkpt>
			<trkpt lat="-28.136996" lon="153.042644">
				<ele>153</ele>
				<time>2015-05-07T07:07:02Z</time>
				<extensions>
				</extensions>
			</trkpt>
			<trkpt lat="-28.136752" lon="153.042682">
				<ele>153</ele>
				<time>2015-05-07T07:07:03Z</time>
				<extensions>
				</extensions>
			</trkpt>
			<trkpt lat="-28.136501" lon="153.042719">
				<ele>152</ele>
				<time>2015-05-07T07:07:04Z</time>
				<extensions>
				</extensions>
			</trkpt>
			<trkpt lat="-28.136254" lon="153.042767">
				<ele>150</ele>
				<time>2015-05-07T07:07:05Z</time>
				<extensions>
				</extensions>
			</trkpt>
			<trkpt lat="-28.136003" lon="153.042805">
				<ele>150</ele>
				<time>2015-05-07T07:07:06Z</time>
				<extensions>
				</extensions>
			</trkpt>
			<trkpt lat="-28.135742" lon="153.042851">
				<ele>149</ele>
				<time>2015-05-07T07:07:07Z</time>
				<extensions>
				</extensions>
			</trkpt>
			<trkpt lat="-28.135501" lon="153.042893">
				<ele>148</ele>
				<time>2015-05-07T07:07:08Z</time>
				<extensions>
				</extensions>
			</trkpt>
			<trkpt lat="-28.135248" lon="153.042932">
				<ele>147</ele>
				<time>2015-05-07T07:07:09Z</time>
				<extensions>
				</extensions>
			</trkpt>
			<trkpt lat="-28.134989" lon="153.042970">
				<ele>147</ele>
				<time>2015-05-07T07:07:10Z</time>
				<extensions>
				</extensions>
			</trkpt>
			<trkpt lat="-28.134730" lon="153.043013">
				<ele>146</ele>
				<time>2015-05-07T07:07:11Z</time>
				<extensions>
				</extensions>
			</trkpt>
			<trkpt lat="-28.134485" lon="153.043044">
				<ele>145</ele>
				<time>2015-05-07T07:07:12Z</time>
				<extensions>
				</extensions>
			</trkpt>
			<trkpt lat="-28.134253" lon="153.043074">
				<ele>144</ele>
				<time>2015-05-07T07:07:13Z</time>
				<extensions>
				</extensions>
			</trkpt>
			<trkpt lat="-28.134004" lon="153.043105">
				<ele>143</ele>
				<time>2015-05-07T07:07:14Z</time>
				<extensions>
				</extensions>
			</trkpt>
			<trkpt lat="-28.133765" lon="153.043146">
				<ele>143</ele>
				<time>2015-05-07T07:07:15Z</time>
				<extensions>
				</extensions>
			</trkpt>
			<trkpt lat="-28.133527" lon="153.043164">
				<ele>142</ele>
				<time>2015-05-07T07:07:16Z</time>
				<extensions>
				</extensions>
			</trkpt>
			<trkpt lat="-28.133288" lon="153.043187">
				<ele>141</ele>
				<time>2015-05-07T07:07:17Z</time>
				<extensions>
				</extensions>
			</trkpt>
			<trkpt lat="-28.133057" lon="153.043211">
				<ele>140</ele>
				<time>2015-05-07T07:07:18Z</time>
				<extensions>
				</extensions>
			</trkpt>
			<trkpt lat="-28.132822" lon="153.043231">
				<ele>140</ele>
				<time>2015-05-07T07:07:19Z</time>
				<extensions>
				</extensions>
			</trkpt>
			<trkpt lat="-28.132595" lon="153.043254">
				<ele>138</ele>
				<time>2015-05-07T07:07:20Z</time>
				<extensions>
				</extensions>
			</trkpt>
			<trkpt lat="-28.132367" lon="153.043270">
				<ele>137</ele>
				<time>2015-05-07T07:07:21Z</time>
				<extensions>
				</extensions>
			</trkpt>
			<trkpt lat="-28.132144" lon="153.043287">
				<ele>136</ele>
				<time>2015-05-07T07:07:22Z</time>
				<extensions>
				</extensions>
			</trkpt>
			<trkpt lat="-28.131919" lon="153.043294">
				<ele>135</ele>
				<time>2015-05-07T07:07:23Z</time>
				<extensions>
				</extensions>
			</trkpt>
			<trkpt lat="-28.131702" lon="153.043309">
				<ele>134</ele>
				<time>2015-05-07T07:07:24Z</time>
				<extensions>
				</extensions>
			</trkpt>
			<trkpt lat="-28.131497" lon="153.043334">
				<ele>132</ele>
				<time>2015-05-07T07:07:25Z</time>
				<extensions>
				</extensions>
			</trkpt>
			<trkpt lat="-28.131291" lon="153.043357">
				<ele>130</ele>
				<time>2015-05-07T07:07:26Z</time>
				<extensions>
				</extensions>
			</trkpt>
			<trkpt lat="-28.131092" lon="153.043365">
				<ele>129</ele>
				<time>2015-05-07T07:07:27Z</time>
				<extensions>
				</extensions>
			</trkpt>
			<trkpt lat="-28.130890" lon="153.043353">
				<ele>128</ele>
				<time>2015-05-07T07:07:28Z</time>
				<extensions>
				</extensions>
			</trkpt>
			<trkpt lat="-28.130692" lon="153.043326">
				<ele>128</ele>
				<time>2015-05-07T07:07:29Z</time>
				<extensions>
				</extensions>
			</trkpt>
			<trkpt lat="-28.130486" lon="153.043273">
				<ele>129</ele>
				<time>2015-05-07T07:07:30Z</time>
				<extensions>
				</extensions>
			</trkpt>
			<trkpt lat="-28.130272" lon="153.043202">
				<ele>131</ele>
				<time>2015-05-07T07:07:31Z</time>
				<extensions>
				</extensions>
			</trkpt>
			<trkpt lat="-28.130058" lon="153.043133">
				<ele>133</ele>
				<time>2015-05-07T07:07:32Z</time>
				<extensions>
				</extensions>
			</trkpt>
			<trkpt lat="-28.129839" lon="153.043048">
				<ele>133</ele>
				<time>2015-05-07T07:07:33Z</time>
				<extensions>
				</extensions>
			</trkpt>
			<trkpt lat="-28.129619" lon="153.042962">
				<ele>132</ele>
				<time>2015-05-07T07:07:34Z</time>
				<extensions>
				</extensions>
			</trkpt>
			<trkpt lat="-28.129414" lon="153.042875">
				<ele>130</ele>
				<time>2015-05-07T07:07:35Z</time>
				<extensions>
				</extensions>
			</trkpt>
			<trkpt lat="-28.129202" lon="153.042795">
				<ele>130</ele>
				<time>2015-05-07T07:07:36Z</time>
				<extensions>
				</extensions>
			</trkpt>
			<trkpt lat="-28.129003" lon="153.042703">
				<ele>129</ele>
				<time>2015-05-07T07:07:37Z</time>
				<extensions>
				</extensions>
			</trkpt>
			<trkpt lat="-28.128805" lon="153.042605">
				<ele>128</ele>
				<time>2015-05-07T07:07:38Z</time>
				<extensions>
				</extensions>
			</trkpt>
			<trkpt lat="-28.128613" lon="153.042509">
				<ele>127</ele>
				<time>2015-05-07T07:07:39Z</time>
				<extensions>
				</extensions>
			</trkpt>
			<trkpt lat="-28.128432" lon="153.042420">
				<ele>125</ele>
				<time>2015-05-07T07:07:40Z</time>
				<extensions>
				</extensions>
			</trkpt>
			<trkpt lat="-28.128237" lon="153.042337">
				<ele>123</ele>
				<time>2015-05-07T07:07:41Z</time>
				<extensions>
				</extensions>
			</trkpt>
			<trkpt lat="-28.128050" lon="153.042247">
				<ele>124</ele>
				<time>2015-05-07T07:07:42Z</time>
				<extensions>
				</extensions>
			</trkpt>
			<trkpt lat="-28.127855" lon="153.042163">
				<ele>126</ele>
				<time>2015-05-07T07:07:43Z</time>
				<extensions>
				</extensions>
			</trkpt>
			<trkpt lat="-28.127659" lon="153.042086">
				<ele>126</ele>
				<time>2015-05-07T07:07:44Z</time>
				<extensions>
				</extensions>
			</trkpt>
			<trkpt lat="-28.127459" lon="153.042015">
				<ele>127</ele>
				<time>2015-05-07T07:07:45Z</time>
				<extensions>
				</extensions>
			</trkpt>
			<trkpt lat="-28.127255" lon="153.041935">
				<ele>127</ele>
				<time>2015-05-07T07:07:46Z</time>
				<extensions>
				</extensions>
			</trkpt>
			<trkpt lat="-28.127047" lon="153.041861">
				<ele>126</ele>
				<time>2015-05-07T07:07:47Z</time>
				<extensions>
				</extensions>
			</trkpt>
			<trkpt lat="-28.126850" lon="153.041787">
				<ele>125</ele>
				<time>2015-05-07T07:07:48Z</time>
				<extensions>
				</extensions>
			</trkpt>
			<trkpt lat="-28.126643" lon="153.041706">
				<ele>126</ele>
				<time>2015-05-07T07:07:49Z</time>
				<extensions>
				</extensions>
			</trkpt>
			<trkpt lat="-28.126427" lon="153.041623">
				<ele>127</ele>
				<time>2015-05-07T07:07:50Z</time>
				<extensions>
				</extensions>
			</trkpt>
			<trkpt lat="-28.126206" lon="153.041546">
				<ele>127</ele>
				<time>2015-05-07T07:07:51Z</time>
				<extensions>
				</extensions>
			</trkpt>
			<trkpt lat="-28.125989" lon="153.041459">
				<ele>128</ele>
				<time>2015-05-07T07:07:52Z</time>
				<extensions>
				</extensions>
			</trkpt>
			<trkpt lat="-28.125770" lon="153.041367">
				<ele>127</ele>
				<time>2015-05-07T07:07:53Z</time>
				<extensions>
				</extensions>
			</trkpt>
			<trkpt lat="-28.125565" lon="153.041275">
				<ele>127</ele>
				<time>2015-05-07T07:07:54Z</time>
				<extensions>
				</extensions>
			</trkpt>
			<trkpt lat="-28.125349" lon="153.041178">
				<ele>125</ele>
				<time>2015-05-07T07:07:55Z</time>
				<extensions>
				</extensions>
			</trkpt>
			<trkpt lat="-28.125137" lon="153.041085">
				<ele>123</ele>
				<time>2015-05-07T07:07:56Z</time>
				<extensions>
				</extensions>
			</trkpt>
			<trkpt lat="-28.124919" lon="153.041007">
				<ele>124</ele>
				<time>2015-05-07T07:07:57Z</time>
				<extensions>
				</extensions>
			</trkpt>
			<trkpt lat="-28.124696" lon="153.040906">
				<ele>124</ele>
				<time>2015-05-07T07:07:58Z</time>
				<extensions>
				</extensions>
			</trkpt>
			<trkpt lat="-28.124477" lon="153.040813">
				<ele>123</ele>
				<time>2015-05-07T07:07:59Z</time>
				<extensions>
				</extensions>
			</trkpt>
			<trkpt lat="-28.124278" lon="153.040725">
				<ele>123</ele>
				<time>2015-05-07T07:08:00Z</time>
				<extensions>
				</extensions>
			</trkpt>
			<trkpt lat="-28.124073" lon="153.040641">
				<ele>123</ele>
				<time>2015-05-07T07:08:01Z</time>
				<extensions>
				</extensions>
			</trkpt>
			<trkpt lat="-28.123880" lon="153.040560">
				<ele>124</ele>
				<time>2015-05-07T07:08:02Z</time>
				<extensions>
				</extensions>
			</trkpt>
			<trkpt lat="-28.123687" lon="153.040488">
				<ele>126</ele>
				<time>2015-05-07T07:08:03Z</time>
				<extensions>
				</extensions>
			</trkpt>
			<trkpt lat="-28.123501" lon="153.040418">
				<ele>125</ele>
				<time>2015-05-07T07:08:04Z</time>
				<extensions>
				</extensions>
			</trkpt>
			<trkpt lat="-28.123312" lon="153.040346">
				<ele>124</ele>
				<time>2015-05-07T07:08:05Z</time>
				<extensions>
				</extensions>
			</trkpt>
			<trkpt lat="-28.123131" lon="153.040266">
				<ele>122</ele>
				<time>2015-05-07T07:08:06Z</time>
				<extensions>
				</extensions>
			</trkpt>
			<trkpt lat="-28.122945" lon="153.040186">
				<ele>120</ele>
				<time>2015-05-07T07:08:07Z</time>
				<extensions>
				</extensions>
			</trkpt>
			<trkpt lat="-28.122760" lon="153.040117">
				<ele>118</ele>
				<time>2015-05-07T07:08:08Z</time>
				<extensions>
				</extensions>
			</trkpt>
			<trkpt lat="-28.122585" lon="153.040047">
				<ele>117</ele>
				<time>2015-05-07T07:08:09Z</time>
				<extensions>
				</extensions>
			</trkpt>
			<trkpt lat="-28.122261" lon="153.039931">
				<ele>115</ele>
				<time>2015-05-07T07:08:11Z</time>
				<extensions>
				</extensions>
			</trkpt>
			<trkpt lat="-28.121967" lon="153.039828">
				<ele>114</ele>
				<time>2015-05-07T07:08:13Z</time>
				<extensions>
				</extensions>
			</trkpt>
			<trkpt lat="-28.121719" lon="153.039763">
				<ele>113</ele>
				<time>2015-05-07T07:08:15Z</time>
				<extensions>
				</extensions>
			</trkpt>
			<trkpt lat="-28.121460" lon="153.039737">
				<ele>113</ele>
				<time>2015-05-07T07:08:17Z</time>
				<extensions>
				</extensions>
			</trkpt>
			<trkpt lat="-28.121216" lon="153.039734">
				<ele>112</ele>
				<time>2015-05-07T07:08:19Z</time>
				<extensions>
				</extensions>
			</trkpt>
			<trkpt lat="-28.120994" lon="153.039747">
				<ele>111</ele>
				<time>2015-05-07T07:08:21Z</time>
				<extensions>
				</extensions>
			</trkpt>
			<trkpt lat="-28.120776" lon="153.039739">
				<ele>111</ele>
				<time>2015-05-07T07:08:23Z</time>
				<extensions>
				</extensions>
			</trkpt>
			<trkpt lat="-28.120553" lon="153.039745">
				<ele>111</ele>
				<time>2015-05-07T07:08:25Z</time>
				<extensions>
				</extensions>
			</trkpt>
			<trkpt lat="-28.120351" lon="153.039744">
				<ele>110</ele>
				<time>2015-05-07T07:08:27Z</time>
				<extensions>
				</extensions>
			</trkpt>
			<trkpt lat="-28.120151" lon="153.039747">
				<ele>110</ele>
				<time>2015-05-07T07:08:29Z</time>
				<extensions>
				</extensions>
			</trkpt>
			<trkpt lat="-28.119952" lon="153.039745">
				<ele>110</ele>
				<time>2015-05-07T07:08:31Z</time>
				<extensions>
				</extensions>
			</trkpt>
			<trkpt lat="-28.119739" lon="153.039743">
				<ele>111</ele>
				<time>2015-05-07T07:08:33Z</time>
				<extensions>
				</extensions>
			</trkpt>
			<trkpt lat="-28.119519" lon="153.039741">
				<ele>112</ele>
				<time>2015-05-07T07:08:35Z</time>
				<extensions>
				</extensions>
			</trkpt>
			<trkpt lat="-28.119295" lon="153.039748">
				<ele>112</ele>
				<time>2015-05-07T07:08:37Z</time>
				<extensions>
				</extensions>
			</trkpt>
			<trkpt lat="-28.119088" lon="153.039741">
				<ele>111</ele>
				<time>2015-05-07T07:08:39Z</time>
				<extensions>
				</extensions>
			</trkpt>
			<trkpt lat="-28.118865" lon="153.039747">
				<ele>111</ele>
				<time>2015-05-07T07:08:41Z</time>
				<extensions>
				</extensions>
			</trkpt>
			<trkpt lat="-28.118644" lon="153.039748">
				<ele>111</ele>
				<time>2015-05-07T07:08:43Z</time>
				<extensions>
				</extensions>
			</trkpt>
			<trkpt lat="-28.118420" lon="153.039754">
				<ele>111</ele>
				<time>2015-05-07T07:08:45Z</time>
				<extensions>
				</extensions>
			</trkpt>
			<trkpt lat="-28.118195" lon="153.039757">
				<ele>111</ele>
				<time>2015-05-07T07:08:47Z</time>
				<extensions>
				</extensions>
			</trkpt>
			<trkpt lat="-28.117969" lon="153.039766">
				<ele>111</ele>
				<time>2015-05-07T07:08:49Z</time>
				<extensions>
				</extensions>
			</trkpt>
			<trkpt lat="-28.117736" lon="153.039786">
				<ele>111</ele>
				<time>2015-05-07T07:08:51Z</time>
				<extensions>
				</extensions>
			</trkpt>
			<trkpt lat="-28.117496" lon="153.039806">
				<ele>111</ele>
				<time>2015-05-07T07:08:53Z</time>
				<extensions>
				</extensions>
			</trkpt>
			<trkpt lat="-28.117248" lon="153.039823">
				<ele>111</ele>
				<time>2015-05-07T07:08:55Z</time>
				<extensions>
				</extensions>
			</trkpt>
			<trkpt lat="-28.116991" lon="153.039846">
				<ele>111</ele>
				<time>2015-05-07T07:08:57Z</time>
				<extensions>
				</extensions>
			</trkpt>
			<trkpt lat="-28.116728" lon="153.039876">
				<ele>112</ele>
				<time>2015-05-07T07:08:59Z</time>
				<extensions>
				</extensions>
			</trkpt>
			<trkpt lat="-28.116476" lon="153.039904">
				<ele>112</ele>
				<time>2015-05-07T07:09:01Z</time>
				<extensions>
				</extensions>
			</trkpt>
			<trkpt lat="-28.116216" lon="153.039924">
				<ele>112</ele>
				<time>2015-05-07T07:09:03Z</time>
				<extensions>
				</extensions>
			</trkpt>
			<trkpt lat="-28.115939" lon="153.039948">
				<ele>111</ele>
				<time>2015-05-07T07:09:05Z</time>
				<extensions>
				</extensions>
			</trkpt>
			<trkpt lat="-28.115658" lon="153.039973">
				<ele>112</ele>
				<time>2015-05-07T07:09:07Z</time>
				<extensions>
				</extensions>
			</trkpt>
			<trkpt lat="-28.115360" lon="153.040003">
				<ele>112</ele>
				<time>2015-05-07T07:09:09Z</time>
				<extensions>
				</extensions>
			</trkpt>
			<trkpt lat="-28.115055" lon="153.040027">
				<ele>112</ele>
				<time>2015-05-07T07:09:11Z</time>
				<extensions>
				</extensions>
			</trkpt>
			<trkpt lat="-28.114741" lon="153.040046">
				<ele>112</ele>
				<time>2015-05-07T07:09:13Z</time>
				<extensions>
				</extensions>
			</trkpt>
			<trkpt lat="-28.114442" lon="153.040075">
				<ele>112</ele>
				<time>2015-05-07T07:09:15Z</time>
				<extensions>
				</extensions>
			</trkpt>
			<trkpt lat="-28.114146" lon="153.040101">
				<ele>112</ele>
				<time>2015-05-07T07:09:17Z</time>
				<extensions>
				</extensions>
			</trkpt>
			<trkpt lat="-28.113854" lon="153.040124">
				<ele>112</ele>
				<time>2015-05-07T07:09:19Z</time>
				<extensions>
				</extensions>
			</trkpt>
			<trkpt lat="-28.113553" lon="153.040161">
				<ele>112</ele>
				<time>2015-05-07T07:09:21Z</time>
				<extensions>
				</extensions>
			</trkpt>
			<trkpt lat="-28.113250" lon="153.040190">
				<ele>111</ele>
				<time>2015-05-07T07:09:23Z</time>
				<extensions>
				</extensions>
			</trkpt>
			<trkpt lat="-28.112932" lon="153.040225">
				<ele>112</ele>
				<time>2015-05-07T07:09:25Z</time>
				<extensions>
				</extensions>
			</trkpt>
			<trkpt lat="-28.112628" lon="153.040246">
				<ele>111</ele>
				<time>2015-05-07T07:09:27Z</time>
				<extensions>
				</extensions>
			</trkpt>
			<trkpt lat="-28.112319" lon="153.040227">
				<ele>110</ele>
				<time>2015-05-07T07:09:29Z</time>
				<extensions>
				</extensions>
			</trkpt>
			<trkpt lat="-28.112001" lon="153.040153">
				<ele>109</ele>
				<time>2015-05-07T07:09:31Z</time>
				<extensions>
				</extensions>
			</trkpt>
			<trkpt lat="-28.111716" lon="153.040021">
				<ele>109</ele>
				<time>2015-05-07T07:09:33Z</time>
				<extensions>
				</extensions>
			</trkpt>
			<trkpt lat="-28.111483" lon="153.039794">
				<ele>109</ele>
				<time>2015-05-07T07:09:35Z</time>
				<extensions>
				</extensions>
			</trkpt>
			<trkpt lat="-28.111288" lon="153.039502">
				<ele>109</ele>
				<time>2015-05-07T07:09:37Z</time>
				<extensions>
				</extensions>
			</trkpt>
			<trkpt lat="-28.111146" lon="153.039173">
				<ele>110</ele>
				<time>2015-05-07T07:09:39Z</time>
				<extensions>
				</extensions>
			</trkpt>
			<trkpt lat="-28.111031" lon="153.038808">
				<ele>111</ele>
				<time>2015-05-07T07:09:41Z</time>
				<extensions>
				</extensions>
			</trkpt>
			<trkpt lat="-28.110927" lon="153.038425">
				<ele>111</ele>
				<time>2015-05-07T07:09:43Z</time>
				<extensions>
				</extensions>
			</trkpt>
			<trkpt lat="-28.110844" lon="153.038032">
				<ele>112</ele>
				<time>2015-05-07T07:09:45Z</time>
				<extensions>
				</extensions>
			</trkpt>
			<trkpt lat="-28.110816" lon="153.037825">
				<ele>112</ele>
				<time>2015-05-07T07:09:46Z</time>
				<extensions>
				</extensions>
			</trkpt>
			<trkpt lat="-28.110798" lon="153.037610">
				<ele>113</ele>
				<time>2015-05-07T07:09:47Z</time>
				<extensions>
				</extensions>
			</trkpt>
			<trkpt lat="-28.110791" lon="153.037398">
				<ele>112</ele>
				<time>2015-05-07T07:09:48Z</time>
				<extensions>
				</extensions>
			</trkpt>
			<trkpt lat="-28.110785" lon="153.037169">
				<ele>112</ele>
				<time>2015-05-07T07:09:49Z</time>
				<extensions>
				</extensions>
			</trkpt>
			<trkpt lat="-28.110784" lon="153.036948">
				<ele>112</ele>
				<time>2015-05-07T07:09:50Z</time>
				<extensions>
				</extensions>
			</trkpt>
			<trkpt lat="-28.110785" lon="153.036723">
				<ele>112</ele>
				<time>2015-05-07T07:09:51Z</time>
				<extensions>
				</extensions>
			</trkpt>
			<trkpt lat="-28.110788" lon="153.036498">
				<ele>112</ele>
				<time>2015-05-07T07:09:52Z</time>
				<extensions>
				</extensions>
			</trkpt>
			<trkpt lat="-28.110788" lon="153.036277">
				<ele>112</ele>
				<time>2015-05-07T07:09:53Z</time>
				<extensions>
				</extensions>
			</trkpt>
			<trkpt lat="-28.110776" lon="153.036048">
				<ele>112</ele>
				<time>2015-05-07T07:09:54Z</time>
				<extensions>
				</extensions>
			</trkpt>
			<trkpt lat="-28.110766" lon="153.035839">
				<ele>112</ele>
				<time>2015-05-07T07:09:55Z</time>
				<extensions>
				</extensions>
			</trkpt>
			<trkpt lat="-28.110707" lon="153.035430">
				<ele>110</ele>
				<time>2015-05-07T07:09:57Z</time>
				<extensions>
				</extensions>
			</trkpt>
			<trkpt lat="-28.110648" lon="153.035235">
				<ele>110</ele>
				<time>2015-05-07T07:09:58Z</time>
				<extensions>
				</extensions>
			</trkpt>
			<trkpt lat="-28.110595" lon="153.035040">
				<ele>111</ele>
				<time>2015-05-07T07:09:59Z</time>
				<extensions>
				</extensions>
			</trkpt>
			<trkpt lat="-28.110527" lon="153.034824">
				<ele>112</ele>
				<time>2015-05-07T07:10:00Z</time>
				<extensions>
				</extensions>
			</trkpt>
			<trkpt lat="-28.110454" lon="153.034600">
				<ele>114</ele>
				<time>2015-05-07T07:10:01Z</time>
				<extensions>
				</extensions>
			</trkpt>
			<trkpt lat="-28.110384" lon="153.034366">
				<ele>116</ele>
				<time>2015-05-07T07:10:02Z</time>
				<extensions>
				</extensions>
			</trkpt>
			<trkpt lat="-28.110316" lon="153.034120">
				<ele>117</ele>
				<time>2015-05-07T07:10:03Z</time>
				<extensions>
				</extensions>
			</trkpt>
			<trkpt lat="-28.110233" lon="153.033872">
				<ele>118</ele>
				<time>2015-05-07T07:10:04Z</time>
				<extensions>
				</extensions>
			</trkpt>
			<trkpt lat="-28.110152" lon="153.033618">
				<ele>120</ele>
				<time>2015-05-07T07:10:05Z</time>
				<extensions>
				</extensions>
			</trkpt>
			<trkpt lat="-28.110075" lon="153.033357">
				<ele>120</ele>
				<time>2015-05-07T07:10:06Z</time>
				<extensions>
				</extensions>
			</trkpt>
			<trkpt lat="-28.109999" lon="153.033102">
				<ele>118</ele>
				<time>2015-05-07T07:10:07Z</time>
				<extensions>
				</extensions>
			</trkpt>
			<trkpt lat="-28.109923" lon="153.032857">
				<ele>117</ele>
				<time>2015-05-07T07:10:08Z</time>
				<extensions>
				</extensions>
			</trkpt>
			<trkpt lat="-28.109852" lon="153.032627">
				<ele>114</ele>
				<time>2015-05-07T07:10:09Z</time>
				<extensions>
				</extensions>
			</trkpt>
			<trkpt lat="-28.109782" lon="153.032403">
				<ele>112</ele>
				<time>2015-05-07T07:10:10Z</time>
				<extensions>
				</extensions>
			</trkpt>
			<trkpt lat="-28.109716" lon="153.032179">
				<ele>111</ele>
				<time>2015-05-07T07:10:11Z</time>
				<extensions>
				</extensions>
			</trkpt>
			<trkpt lat="-28.109649" lon="153.031957">
				<ele>110</ele>
				<time>2015-05-07T07:10:12Z</time>
				<extensions>
				</extensions>
			</trkpt>
			<trkpt lat="-28.109578" lon="153.031748">
				<ele>110</ele>
				<time>2015-05-07T07:10:13Z</time>
				<extensions>
				</extensions>
			</trkpt>
			<trkpt lat="-28.109500" lon="153.031547">
				<ele>108</ele>
				<time>2015-05-07T07:10:14Z</time>
				<extensions>
				</extensions>
			</trkpt>
			<trkpt lat="-28.109405" lon="153.031361">
				<ele>107</ele>
				<time>2015-05-07T07:10:15Z</time>
				<extensions>
				</extensions>
			</trkpt>
			<trkpt lat="-28.109301" lon="153.031184">
				<ele>107</ele>
				<time>2015-05-07T07:10:16Z</time>
				<extensions>
				</extensions>
			</trkpt>
			<trkpt lat="-28.109178" lon="153.031011">
				<ele>107</ele>
				<time>2015-05-07T07:10:17Z</time>
				<extensions>
				</extensions>
			</trkpt>
			<trkpt lat="-28.109029" lon="153.030861">
				<ele>108</ele>
				<time>2015-05-07T07:10:18Z</time>
				<extensions>
				</extensions>
			</trkpt>
			<trkpt lat="-28.108864" lon="153.030718">
				<ele>109</ele>
				<time>2015-05-07T07:10:19Z</time>
				<extensions>
				</extensions>
			</trkpt>
			<trkpt lat="-28.108684" lon="153.030593">
				<ele>110</ele>
				<time>2015-05-07T07:10:20Z</time>
				<extensions>
				</extensions>
			</trkpt>
			<trkpt lat="-28.108494" lon="153.030467">
				<ele>112</ele>
				<time>2015-05-07T07:10:21Z</time>
				<extensions>
				</extensions>
			</trkpt>
			<trkpt lat="-28.108294" lon="153.030338">
				<ele>115</ele>
				<time>2015-05-07T07:10:22Z</time>
				<extensions>
				</extensions>
			</trkpt>
			<trkpt lat="-28.108094" lon="153.030199">
				<ele>116</ele>
				<time>2015-05-07T07:10:23Z</time>
				<extensions>
				</extensions>
			</trkpt>
			<trkpt lat="-28.107894" lon="153.030052">
				<ele>118</ele>
				<time>2015-05-07T07:10:24Z</time>
				<extensions>
				</extensions>
			</trkpt>
			<trkpt lat="-28.107688" lon="153.029908">
				<ele>119</ele>
				<time>2015-05-07T07:10:25Z</time>
				<extensions>
				</extensions>
			</trkpt>
			<trkpt lat="-28.107484" lon="153.029770">
				<ele>119</ele>
				<time>2015-05-07T07:10:26Z</time>
				<extensions>
				</extensions>
			</trkpt>
			<trkpt lat="-28.107261" lon="153.029634">
				<ele>119</ele>
				<time>2015-05-07T07:10:27Z</time>
				<extensions>
				</extensions>
			</trkpt>
			<trkpt lat="-28.107051" lon="153.029521">
				<ele>117</ele>
				<time>2015-05-07T07:10:28Z</time>
				<extensions>
				</extensions>
			</trkpt>
			<trkpt lat="-28.106835" lon="153.029424">
				<ele>117</ele>
				<time>2015-05-07T07:10:29Z</time>
				<extensions>
				</extensions>
			</trkpt>
			<trkpt lat="-28.106608" lon="153.029323">
				<ele>117</ele>
				<time>2015-05-07T07:10:30Z</time>
				<extensions>
				</extensions>
			</trkpt>
			<trkpt lat="-28.106377" lon="153.029217">
				<ele>118</ele>
				<time>2015-05-07T07:10:31Z</time>
				<extensions>
				</extensions>
			</trkpt>
			<trkpt lat="-28.106148" lon="153.029115">
				<ele>118</ele>
				<time>2015-05-07T07:10:32Z</time>
				<extensions>
				</extensions>
			</trkpt>
			<trkpt lat="-28.105918" lon="153.029013">
				<ele>117</ele>
				<time>2015-05-07T07:10:33Z</time>
				<extensions>
				</extensions>
			</trkpt>
			<trkpt lat="-28.105689" lon="153.028918">
				<ele>117</ele>
				<time>2015-05-07T07:10:34Z</time>
				<extensions>
				</extensions>
			</trkpt>
			<trkpt lat="-28.105471" lon="153.028808">
				<ele>117</ele>
				<time>2015-05-07T07:10:35Z</time>
				<extensions>
				</extensions>
			</trkpt>
			<trkpt lat="-28.105223" lon="153.028708">
				<ele>117</ele>
				<time>2015-05-07T07:10:36Z</time>
				<extensions>
				</extensions>
			</trkpt>
			<trkpt lat="-28.104986" lon="153.028602">
				<ele>117</ele>
				<time>2015-05-07T07:10:37Z</time>
				<extensions>
				</extensions>
			</trkpt>
			<trkpt lat="-28.104757" lon="153.028498">
				<ele>116</ele>
				<time>2015-05-07T07:10:38Z</time>
				<extensions>
				</extensions>
			</trkpt>
			<trkpt lat="-28.104518" lon="153.028394">
				<ele>116</ele>
				<time>2015-05-07T07:10:39Z</time>
				<extensions>
				</extensions>
			</trkpt>
			<trkpt lat="-28.104277" lon="153.028290">
				<ele>116</ele>
				<time>2015-05-07T07:10:40Z</time>
				<extensions>
				</extensions>
			</trkpt>
			<trkpt lat="-28.104036" lon="153.028188">
				<ele>115</ele>
				<time>2015-05-07T07:10:41Z</time>
				<extensions>
				</extensions>
			</trkpt>
			<trkpt lat="-28.103783" lon="153.028086">
				<ele>116</ele>
				<time>2015-05-07T07:10:42Z</time>
				<extensions>
				</extensions>
			</trkpt>
			<trkpt lat="-28.103527" lon="153.027976">
				<ele>117</ele>
				<time>2015-05-07T07:10:43Z</time>
				<extensions>
				</extensions>
			</trkpt>
			<trkpt lat="-28.103276" lon="153.027871">
				<ele>116</ele>
				<time>2015-05-07T07:10:44Z</time>
				<extensions>
				</extensions>
			</trkpt>
			<trkpt lat="-28.103034" lon="153.027762">
				<ele>116</ele>
				<time>2015-05-07T07:10:45Z</time>
				<extensions>
				</extensions>
			</trkpt>
			<trkpt lat="-28.102788" lon="153.027649">
				<ele>116</ele>
				<time>2015-05-07T07:10:46Z</time>
				<extensions>
				</extensions>
			</trkpt>
			<trkpt lat="-28.102539" lon="153.027539">
				<ele>116</ele>
				<time>2015-05-07T07:10:47Z</time>
				<extensions>
				</extensions>
			</trkpt>
			<trkpt lat="-28.102286" lon="153.027433">
				<ele>116</ele>
				<time>2015-05-07T07:10:48Z</time>
				<extensions>
				</extensions>
			</trkpt>
			<trkpt lat="-28.102045" lon="153.027321">
				<ele>116</ele>
				<time>2015-05-07T07:10:49Z</time>
				<extensions>
				</extensions>
			</trkpt>
			<trkpt lat="-28.101798" lon="153.027210">
				<ele>117</ele>
				<time>2015-05-07T07:10:50Z</time>
				<extensions>
				</extensions>
			</trkpt>
			<trkpt lat="-28.101551" lon="153.027095">
				<ele>117</ele>
				<time>2015-05-07T07:10:51Z</time>
				<extensions>
				</extensions>
			</trkpt>
			<trkpt lat="-28.101304" lon="153.026995">
				<ele>118</ele>
				<time>2015-05-07T07:10:52Z</time>
				<extensions>
				</extensions>
			</trkpt>
			<trkpt lat="-28.101064" lon="153.026880">
				<ele>118</ele>
				<time>2015-05-07T07:10:53Z</time>
				<extensions>
				</extensions>
			</trkpt>
			<trkpt lat="-28.100825" lon="153.026774">
				<ele>117</ele>
				<time>2015-05-07T07:10:54Z</time>
				<extensions>
				</extensions>
			</trkpt>
			<trkpt lat="-28.100591" lon="153.026672">
				<ele>116</ele>
				<time>2015-05-07T07:10:55Z</time>
				<extensions>
				</extensions>
			</trkpt>
			<trkpt lat="-28.100367" lon="153.026581">
				<ele>114</ele>
				<time>2015-05-07T07:10:56Z</time>
				<extensions>
				</extensions>
			</trkpt>
			<trkpt lat="-28.100145" lon="153.026519">
				<ele>113</ele>
				<time>2015-05-07T07:10:57Z</time>
				<extensions>
				</extensions>
			</trkpt>
			<trkpt lat="-28.099919" lon="153.026455">
				<ele>111</ele>
				<time>2015-05-07T07:10:58Z</time>
				<extensions>
				</extensions>
			</trkpt>
			<trkpt lat="-28.099690" lon="153.026404">
				<ele>110</ele>
				<time>2015-05-07T07:10:59Z</time>
				<extensions>
				</extensions>
			</trkpt>
			<trkpt lat="-28.099463" lon="153.026355">
				<ele>110</ele>
				<time>2015-05-07T07:11:00Z</time>
				<extensions>
				</extensions>
			</trkpt>
			<trkpt lat="-28.099237" lon="153.026299">
				<ele>109</ele>
				<time>2015-05-07T07:11:01Z</time>
				<extensions>
				</extensions>
			</trkpt>
			<trkpt lat="-28.099019" lon="153.026230">
				<ele>110</ele>
				<time>2015-05-07T07:11:02Z</time>
				<extensions>
				</extensions>
			</trkpt>
			<trkpt lat="-28.098780" lon="153.026133">
				<ele>110</ele>
				<time>2015-05-07T07:11:03Z</time>
				<extensions>
				</extensions>
			</trkpt>
			<trkpt lat="-28.098563" lon="153.026028">
				<ele>111</ele>
				<time>2015-05-07T07:11:04Z</time>
				<extensions>
				</extensions>
			</trkpt>
			<trkpt lat="-28.098357" lon="153.025917">
				<ele>111</ele>
				<time>2015-05-07T07:11:05Z</time>
				<extensions>
				</extensions>
			</trkpt>
			<trkpt lat="-28.098133" lon="153.025795">
				<ele>111</ele>
				<time>2015-05-07T07:11:06Z</time>
				<extensions>
				</extensions>
			</trkpt>
			<trkpt lat="-28.097906" lon="153.025671">
				<ele>110</ele>
				<time>2015-05-07T07:11:07Z</time>
				<extensions>
				</extensions>
			</trkpt>
			<trkpt lat="-28.097681" lon="153.025548">
				<ele>111</ele>
				<time>2015-05-07T07:11:08Z</time>
				<extensions>
				</extensions>
			</trkpt>
			<trkpt lat="-28.097457" lon="153.025426">
				<ele>110</ele>
				<time>2015-05-07T07:11:09Z</time>
				<extensions>
				</extensions>
			</trkpt>
			<trkpt lat="-28.097246" lon="153.025312">
				<ele>109</ele>
				<time>2015-05-07T07:11:10Z</time>
				<extensions>
				</extensions>
			</trkpt>
			<trkpt lat="-28.097048" lon="153.025204">
				<ele>107</ele>
				<time>2015-05-07T07:11:11Z</time>
				<extensions>
				</extensions>
			</trkpt>
			<trkpt lat="-28.096843" lon="153.025094">
				<ele>105</ele>
				<time>2015-05-07T07:11:12Z</time>
				<extensions>
				</extensions>
			</trkpt>
			<trkpt lat="-28.096643" lon="153.024986">
				<ele>104</ele>
				<time>2015-05-07T07:11:13Z</time>
				<extensions>
				</extensions>
			</trkpt>
			<trkpt lat="-28.096441" lon="153.024878">
				<ele>104</ele>
				<time>2015-05-07T07:11:14Z</time>
				<extensions>
				</extensions>
			</trkpt>
			<trkpt lat="-28.096238" lon="153.024769">
				<ele>104</ele>
				<time>2015-05-07T07:11:15Z</time>
				<extensions>
				</extensions>
			</trkpt>
			<trkpt lat="-28.096035" lon="153.024659">
				<ele>104</ele>
				<time>2015-05-07T07:11:16Z</time>
				<extensions>
				</extensions>
			</trkpt>
			<trkpt lat="-28.095839" lon="153.024552">
				<ele>103</ele>
				<time>2015-05-07T07:11:17Z</time>
				<extensions>
				</extensions>
			</trkpt>
			<trkpt lat="-28.095631" lon="153.024439">
				<ele>102</ele>
				<time>2015-05-07T07:11:18Z</time>
				<extensions>
				</extensions>
			</trkpt>
			<trkpt lat="-28.095441" lon="153.024336">
				<ele>103</ele>
				<time>2015-05-07T07:11:19Z</time>
				<extensions>
				</extensions>
			</trkpt>
			<trkpt lat="-28.095232" lon="153.024222">
				<ele>104</ele>
				<time>2015-05-07T07:11:20Z</time>
				<extensions>
				</extensions>
			</trkpt>
			<trkpt lat="-28.095046" lon="153.024121">
				<ele>103</ele>
				<time>2015-05-07T07:11:21Z</time>
				<extensions>
				</extensions>
			</trkpt>
			<trkpt lat="-28.094854" lon="153.024017">
				<ele>104</ele>
				<time>2015-05-07T07:11:22Z</time>
				<extensions>
				</extensions>
			</trkpt>
			<trkpt lat="-28.094664" lon="153.023914">
				<ele>104</ele>
				<time>2015-05-07T07:11:23Z</time>
				<extensions>
				</extensions>
			</trkpt>
			<trkpt lat="-28.094480" lon="153.023814">
				<ele>103</ele>
				<time>2015-05-07T07:11:24Z</time>
				<extensions>
				</extensions>
			</trkpt>
			<trkpt lat="-28.094292" lon="153.023712">
				<ele>103</ele>
				<time>2015-05-07T07:11:25Z</time>
				<extensions>
				</extensions>
			</trkpt>
			<trkpt lat="-28.094112" lon="153.023614">
				<ele>103</ele>
				<time>2015-05-07T07:11:26Z</time>
				<extensions>
				</extensions>
			</trkpt>
			<trkpt lat="-28.093935" lon="153.023517">
				<ele>104</ele>
				<time>2015-05-07T07:11:27Z</time>
				<extensions>
				</extensions>
			</trkpt>
			<trkpt lat="-28.093754" lon="153.023419">
				<ele>104</ele>
				<time>2015-05-07T07:11:28Z</time>
				<extensions>
				</extensions>
			</trkpt>
			<trkpt lat="-28.093570" lon="153.023320">
				<ele>104</ele>
				<time>2015-05-07T07:11:29Z</time>
				<extensions>
				</extensions>
			</trkpt>
			<trkpt lat="-28.093390" lon="153.023229">
				<ele>104</ele>
				<time>2015-05-07T07:11:30Z</time>
				<extensions>
				</extensions>
			</trkpt>
			<trkpt lat="-28.093204" lon="153.023145">
				<ele>103</ele>
				<time>2015-05-07T07:11:31Z</time>
				<extensions>
				</extensions>
			</trkpt>
			<trkpt lat="-28.092848" lon="153.023028">
				<ele>101</ele>
				<time>2015-05-07T07:11:33Z</time>
				<extensions>
				</extensions>
			</trkpt>
			<trkpt lat="-28.092669" lon="153.022979">
				<ele>101</ele>
				<time>2015-05-07T07:11:34Z</time>
				<extensions>
				</extensions>
			</trkpt>
			<trkpt lat="-28.092481" lon="153.022934">
				<ele>102</ele>
				<time>2015-05-07T07:11:35Z</time>
				<extensions>
				</extensions>
			</trkpt>
			<trkpt lat="-28.092278" lon="153.022884">
				<ele>103</ele>
				<time>2015-05-07T07:11:36Z</time>
				<extensions>
				</extensions>
			</trkpt>
			<trkpt lat="-28.092083" lon="153.022836">
				<ele>105</ele>
				<time>2015-05-07T07:11:37Z</time>
				<extensions>
				</extensions>
			</trkpt>
			<trkpt lat="-28.091865" lon="153.022782">
				<ele>105</ele>
				<time>2015-05-07T07:11:38Z</time>
				<extensions>
				</extensions>
			</trkpt>
			<trkpt lat="-28.091657" lon="153.022729">
				<ele>106</ele>
				<time>2015-05-07T07:11:39Z</time>
				<extensions>
				</extensions>
			</trkpt>
			<trkpt lat="-28.091455" lon="153.022676">
				<ele>106</ele>
				<time>2015-05-07T07:11:40Z</time>
				<extensions>
				</extensions>
			</trkpt>
			<trkpt lat="-28.091254" lon="153.022625">
				<ele>105</ele>
				<time>2015-05-07T07:11:41Z</time>
				<extensions>
				</extensions>
			</trkpt>
			<trkpt lat="-28.091063" lon="153.022575">
				<ele>104</ele>
				<time>2015-05-07T07:11:42Z</time>
				<extensions>
				</extensions>
			</trkpt>
			<trkpt lat="-28.090876" lon="153.022527">
				<ele>104</ele>
				<time>2015-05-07T07:11:43Z</time>
				<extensions>
				</extensions>
			</trkpt>
			<trkpt lat="-28.090694" lon="153.022480">
				<ele>103</ele>
				<time>2015-05-07T07:11:44Z</time>
				<extensions>
				</extensions>
			</trkpt>
			<trkpt lat="-28.090350" lon="153.022391">
				<ele>100</ele>
				<time>2015-05-07T07:11:46Z</time>
				<extensions>
				</extensions>
			</trkpt>
			<trkpt lat="-28.090010" lon="153.022303">
				<ele>99</ele>
				<time>2015-05-07T07:11:48Z</time>
				<extensions>
				</extensions>
			</trkpt>
			<trkpt lat="-28.089697" lon="153.022222">
				<ele>98</ele>
				<time>2015-05-07T07:11:50Z</time>
				<extensions>
				</extensions>
			</trkpt>
			<trkpt lat="-28.089431" lon="153.022151">
				<ele>96</ele>
				<time>2015-05-07T07:11:52Z</time>
				<extensions>
				</extensions>
			</trkpt>
			<trkpt lat="-28.089169" lon="153.022083">
				<ele>95</ele>
				<time>2015-05-07T07:11:54Z</time>
				<extensions>
				</extensions>
			</trkpt>
			<trkpt lat="-28.088888" lon="153.022012">
				<ele>96</ele>
				<time>2015-05-07T07:11:56Z</time>
				<extensions>
				</extensions>
			</trkpt>
			<trkpt lat="-28.088576" lon="153.021931">
				<ele>99</ele>
				<time>2015-05-07T07:11:58Z</time>
				<extensions>
				</extensions>
			</trkpt>
			<trkpt lat="-28.088400" lon="153.021885">
				<ele>100</ele>
				<time>2015-05-07T07:11:59Z</time>
				<extensions>
				</extensions>
			</trkpt>
			<trkpt lat="-28.088208" lon="153.021835">
				<ele>102</ele>
				<time>2015-05-07T07:12:00Z</time>
				<extensions>
				</extensions>
			</trkpt>
			<trkpt lat="-28.088024" lon="153.021785">
				<ele>102</ele>
				<time>2015-05-07T07:12:01Z</time>
				<extensions>
				</extensions>
			</trkpt>
			<trkpt lat="-28.087824" lon="153.021731">
				<ele>102</ele>
				<time>2015-05-07T07:12:02Z</time>
				<extensions>
				</extensions>
			</trkpt>
			<trkpt lat="-28.087644" lon="153.021681">
				<ele>101</ele>
				<time>2015-05-07T07:12:03Z</time>
				<extensions>
				</extensions>
			</trkpt>
			<trkpt lat="-28.087457" lon="153.021627">
				<ele>101</ele>
				<time>2015-05-07T07:12:04Z</time>
				<extensions>
				</extensions>
			</trkpt>
			<trkpt lat="-28.087269" lon="153.021573">
				<ele>101</ele>
				<time>2015-05-07T07:12:05Z</time>
				<extensions>
				</extensions>
			</trkpt>
			<trkpt lat="-28.086905" lon="153.021463">
				<ele>101</ele>
				<time>2015-05-07T07:12:07Z</time>
				<extensions>
				</extensions>
			</trkpt>
			<trkpt lat="-28.086716" lon="153.021406">
				<ele>102</ele>
				<time>2015-05-07T07:12:08Z</time>
				<extensions>
				</extensions>
			</trkpt>
			<trkpt lat="-28.086533" lon="153.021351">
				<ele>103</ele>
				<time>2015-05-07T07:12:09Z</time>
				<extensions>
				</extensions>
			</trkpt>
			<trkpt lat="-28.086344" lon="153.021295">
				<ele>103</ele>
				<time>2015-05-07T07:12:10Z</time>
				<extensions>
				</extensions>
			</trkpt>
			<trkpt lat="-28.086157" lon="153.021239">
				<ele>102</ele>
				<time>2015-05-07T07:12:11Z</time>
				<extensions>
				</extensions>
			</trkpt>
			<trkpt lat="-28.085971" lon="153.021188">
				<ele>102</ele>
				<time>2015-05-07T07:12:12Z</time>
				<extensions>
				</extensions>
			</trkpt>
			<trkpt lat="-28.085772" lon="153.021143">
				<ele>103</ele>
				<time>2015-05-07T07:12:13Z</time>
				<extensions>
				</extensions>
			</trkpt>
			<trkpt lat="-28.085571" lon="153.021106">
				<ele>103</ele>
				<time>2015-05-07T07:12:14Z</time>
				<extensions>
				</extensions>
			</trkpt>
			<trkpt lat="-28.085372" lon="153.021071">
				<ele>103</ele>
				<time>2015-05-07T07:12:15Z</time>
				<extensions>
				</extensions>
			</trkpt>
			<trkpt lat="-28.085168" lon="153.021032">
				<ele>103</ele>
				<time>2015-05-07T07:12:16Z</time>
				<extensions>
				</extensions>
			</trkpt>
			<trkpt lat="-28.084953" lon="153.020990">
				<ele>104</ele>
				<time>2015-05-07T07:12:17Z</time>
				<extensions>
				</extensions>
			</trkpt>
			<trkpt lat="-28.084747" lon="153.020960">
				<ele>104</ele>
				<time>2015-05-07T07:12:18Z</time>
				<extensions>
				</extensions>
			</trkpt>
			<trkpt lat="-28.084532" lon="153.020920">
				<ele>104</ele>
				<time>2015-05-07T07:12:19Z</time>
				<extensions>
				</extensions>
			</trkpt>
			<trkpt lat="-28.084329" lon="153.020882">
				<ele>104</ele>
				<time>2015-05-07T07:12:20Z</time>
				<extensions>
				</extensions>
			</trkpt>
			<trkpt lat="-28.084130" lon="153.020846">
				<ele>103</ele>
				<time>2015-05-07T07:12:21Z</time>
				<extensions>
				</extensions>
			</trkpt>
			<trkpt lat="-28.083935" lon="153.020811">
				<ele>102</ele>
				<time>2015-05-07T07:12:22Z</time>
				<extensions>
				</extensions>
			</trkpt>
			<trkpt lat="-28.083738" lon="153.020777">
				<ele>101</ele>
				<time>2015-05-07T07:12:23Z</time>
				<extensions>
				</extensions>
			</trkpt>
			<trkpt lat="-28.083537" lon="153.020767">
				<ele>100</ele>
				<time>2015-05-07T07:12:24Z</time>
				<extensions>
				</extensions>
			</trkpt>
			<trkpt lat="-28.083345" lon="153.020731">
				<ele>101</ele>
				<time>2015-05-07T07:12:25Z</time>
				<extensions>
				</extensions>
			</trkpt>
			<trkpt lat="-28.083148" lon="153.020696">
				<ele>100</ele>
				<time>2015-05-07T07:12:26Z</time>
				<extensions>
				</extensions>
			</trkpt>
			<trkpt lat="-28.082962" lon="153.020638">
				<ele>100</ele>
				<time>2015-05-07T07:12:27Z</time>
				<extensions>
				</extensions>
			</trkpt>
			<trkpt lat="-28.082775" lon="153.020615">
				<ele>99</ele>
				<time>2015-05-07T07:12:28Z</time>
				<extensions>
				</extensions>
			</trkpt>
			<trkpt lat="-28.082428" lon="153.020630">
				<ele>96</ele>
				<time>2015-05-07T07:12:30Z</time>
				<extensions>
				</extensions>
			</trkpt>
			<trkpt lat="-28.082098" lon="153.020769">
				<ele>96</ele>
				<time>2015-05-07T07:12:32Z</time>
				<extensions>
				</extensions>
			</trkpt>
			<trkpt lat="-28.081935" lon="153.020866">
				<ele>98</ele>
				<time>2015-05-07T07:12:33Z</time>
				<extensions>
				</extensions>
			</trkpt>
			<trkpt lat="-28.081761" lon="153.020994">
				<ele>98</ele>
				<time>2015-05-07T07:12:34Z</time>
				<extensions>
				</extensions>
			</trkpt>
			<trkpt lat="-28.081574" lon="153.021132">
				<ele>100</ele>
				<time>2015-05-07T07:12:35Z</time>
				<extensions>
				</extensions>
			</trkpt>
			<trkpt lat="-28.081383" lon="153.021281">
				<ele>103</ele>
				<time>2015-05-07T07:12:36Z</time>
				<extensions>
				</extensions>
			</trkpt>
			<trkpt lat="-28.081196" lon="153.021429">
				<ele>103</ele>
				<time>2015-05-07T07:12:37Z</time>
				<extensions>
				</extensions>
			</trkpt>
			<trkpt lat="-28.081002" lon="153.021575">
				<ele>104</ele>
				<time>2015-05-07T07:12:38Z</time>
				<extensions>
				</extensions>
			</trkpt>
			<trkpt lat="-28.080800" lon="153.021710">
				<ele>104</ele>
				<time>2015-05-07T07:12:39Z</time>
				<extensions>
				</extensions>
			</trkpt>
			<trkpt lat="-28.080609" lon="153.021855">
				<ele>104</ele>
				<time>2015-05-07T07:12:40Z</time>
				<extensions>
				</extensions>
			</trkpt>
			<trkpt lat="-28.080414" lon="153.022006">
				<ele>104</ele>
				<time>2015-05-07T07:12:41Z</time>
				<extensions>
				</extensions>
			</trkpt>
			<trkpt lat="-28.080228" lon="153.022152">
				<ele>106</ele>
				<time>2015-05-07T07:12:42Z</time>
				<extensions>
				</extensions>
			</trkpt>
			<trkpt lat="-28.080041" lon="153.022292">
				<ele>107</ele>
				<time>2015-05-07T07:12:43Z</time>
				<extensions>
				</extensions>
			</trkpt>
			<trkpt lat="-28.079858" lon="153.022446">
				<ele>108</ele>
				<time>2015-05-07T07:12:44Z</time>
				<extensions>
				</extensions>
			</trkpt>
			<trkpt lat="-28.079682" lon="153.022602">
				<ele>108</ele>
				<time>2015-05-07T07:12:45Z</time>
				<extensions>
				</extensions>
			</trkpt>
			<trkpt lat="-28.079501" lon="153.022764">
				<ele>109</ele>
				<time>2015-05-07T07:12:46Z</time>
				<extensions>
				</extensions>
			</trkpt>
			<trkpt lat="-28.079316" lon="153.022934">
				<ele>110</ele>
				<time>2015-05-07T07:12:47Z</time>
				<extensions>
				</extensions>
			</trkpt>
			<trkpt lat="-28.079134" lon="153.023111">
				<ele>112</ele>
				<time>2015-05-07T07:12:48Z</time>
				<extensions>
				</extensions>
			</trkpt>
			<trkpt lat="-28.078944" lon="153.023300">
				<ele>113</ele>
				<time>2015-05-07T07:12:49Z</time>
				<extensions>
				</extensions>
			</trkpt>
			<trkpt lat="-28.078773" lon="153.023476">
				<ele>113</ele>
				<time>2015-05-07T07:12:50Z</time>
				<extensions>
				</extensions>
			</trkpt>
			<trkpt lat="-28.078605" lon="153.023644">
				<ele>112</ele>
				<time>2015-05-07T07:12:51Z</time>
				<extensions>
				</extensions>
			</trkpt>
			<trkpt lat="-28.078439" lon="153.023817">
				<ele>112</ele>
				<time>2015-05-07T07:12:52Z</time>
				<extensions>
				</extensions>
			</trkpt>
			<trkpt lat="-28.078268" lon="153.023994">
				<ele>112</ele>
				<time>2015-05-07T07:12:53Z</time>
				<extensions>
				</extensions>
			</trkpt>
			<trkpt lat="-28.078085" lon="153.024171">
				<ele>113</ele>
				<time>2015-05-07T07:12:54Z</time>
				<extensions>
				</extensions>
			</trkpt>
			<trkpt lat="-28.077908" lon="153.024348">
				<ele>115</ele>
				<time>2015-05-07T07:12:55Z</time>
				<extensions>
				</extensions>
			</trkpt>
			<trkpt lat="-28.077736" lon="153.024519">
				<ele>114</ele>
				<time>2015-05-07T07:12:56Z</time>
				<extensions>
				</extensions>
			</trkpt>
			<trkpt lat="-28.077564" lon="153.024689">
				<ele>114</ele>
				<time>2015-05-07T07:12:57Z</time>
				<extensions>
				</extensions>
			</trkpt>
			<trkpt lat="-28.077394" lon="153.024863">
				<ele>115</ele>
				<time>2015-05-07T07:12:58Z</time>
				<extensions>
				</extensions>
			</trkpt>
			<trkpt lat="-28.077236" lon="153.025026">
				<ele>114</ele>
				<time>2015-05-07T07:12:59Z</time>
				<extensions>
				</extensions>
			</trkpt>
			<trkpt lat="-28.077084" lon="153.025172">
				<ele>114</ele>
				<time>2015-05-07T07:13:00Z</time>
				<extensions>
				</extensions>
			</trkpt>
			<trkpt lat="-28.076935" lon="153.025310">
				<ele>113</ele>
				<time>2015-05-07T07:13:01Z</time>
				<extensions>
				</extensions>
			</trkpt>
			<trkpt lat="-28.076791" lon="153.025443">
				<ele>113</ele>
				<time>2015-05-07T07:13:02Z</time>
				<extensions>
				</extensions>
			</trkpt>
			<trkpt lat="-28.076498" lon="153.025708">
				<ele>113</ele>
				<time>2015-05-07T07:13:04Z</time>
				<extensions>
				</extensions>
			</trkpt>
			<trkpt lat="-28.076346" lon="153.025848">
				<ele>113</ele>
				<time>2015-05-07T07:13:05Z</time>
				<extensions>
				</extensions>
			</trkpt>
			<trkpt lat="-28.076195" lon="153.025992">
				<ele>113</ele>
				<time>2015-05-07T07:13:06Z</time>
				<extensions>
				</extensions>
			</trkpt>
			<trkpt lat="-28.076016" lon="153.026131">
				<ele>112</ele>
				<time>2015-05-07T07:13:07Z</time>
				<extensions>
				</extensions>
			</trkpt>
			<trkpt lat="-28.075845" lon="153.026268">
				<ele>111</ele>
				<time>2015-05-07T07:13:08Z</time>
				<extensions>
				</extensions>
			</trkpt>
			<trkpt lat="-28.075646" lon="153.026423">
				<ele>110</ele>
				<time>2015-05-07T07:13:09Z</time>
				<extensions>
				</extensions>
			</trkpt>
			<trkpt lat="-28.075458" lon="153.026560">
				<ele>110</ele>
				<time>2015-05-07T07:13:10Z</time>
				<extensions>
				</extensions>
			</trkpt>
			<trkpt lat="-28.075262" lon="153.026688">
				<ele>112</ele>
				<time>2015-05-07T07:13:11Z</time>
				<extensions>
				</extensions>
			</trkpt>
			<trkpt lat="-28.075057" lon="153.026807">
				<ele>113</ele>
				<time>2015-05-07T07:13:12Z</time>
				<extensions>
				</extensions>
			</trkpt>
			<trkpt lat="-28.074846" lon="153.026918">
				<ele>114</ele>
				<time>2015-05-07T07:13:13Z</time>
				<extensions>
				</extensions>
			</trkpt>
			<trkpt lat="-28.074626" lon="153.027016">
				<ele>114</ele>
				<time>2015-05-07T07:13:14Z</time>
				<extensions>
				</extensions>
			</trkpt>
			<trkpt lat="-28.074399" lon="153.027111">
				<ele>116</ele>
				<time>2015-05-07T07:13:15Z</time>
				<extensions>
				</extensions>
			</trkpt>
			<trkpt lat="-28.074169" lon="153.027199">
				<ele>119</ele>
				<time>2015-05-07T07:13:16Z</time>
				<extensions>
				</extensions>
			</trkpt>
			<trkpt lat="-28.073946" lon="153.027268">
				<ele>120</ele>
				<time>2015-05-07T07:13:17Z</time>
				<extensions>
				</extensions>
			</trkpt>
			<trkpt lat="-28.073714" lon="153.027317">
				<ele>122</ele>
				<time>2015-05-07T07:13:18Z</time>
				<extensions>
				</extensions>
			</trkpt>
			<trkpt lat="-28.073483" lon="153.027363">
				<ele>122</ele>
				<time>2015-05-07T07:13:19Z</time>
				<extensions>
				</extensions>
			</trkpt>
			<trkpt lat="-28.073254" lon="153.027387">
				<ele>123</ele>
				<time>2015-05-07T07:13:20Z</time>
				<extensions>
				</extensions>
			</trkpt>
			<trkpt lat="-28.073044" lon="153.027391">
				<ele>123</ele>
				<time>2015-05-07T07:13:21Z</time>
				<extensions>
				</extensions>
			</trkpt>
			<trkpt lat="-28.072819" lon="153.027414">
				<ele>124</ele>
				<time>2015-05-07T07:13:22Z</time>
				<extensions>
				</extensions>
			</trkpt>
			<trkpt lat="-28.072594" lon="153.027420">
				<ele>124</ele>
				<time>2015-05-07T07:13:23Z</time>
				<extensions>
				</extensions>
			</trkpt>
			<trkpt lat="-28.072356" lon="153.027432">
				<ele>124</ele>
				<time>2015-05-07T07:13:24Z</time>
				<extensions>
				</extensions>
			</trkpt>
			<trkpt lat="-28.072130" lon="153.027432">
				<ele>124</ele>
				<time>2015-05-07T07:13:25Z</time>
				<extensions>
				</extensions>
			</trkpt>
			<trkpt lat="-28.071888" lon="153.027429">
				<ele>124</ele>
				<time>2015-05-07T07:13:26Z</time>
				<extensions>
				</extensions>
			</trkpt>
			<trkpt lat="-28.071653" lon="153.027446">
				<ele>124</ele>
				<time>2015-05-07T07:13:27Z</time>
				<extensions>
				</extensions>
			</trkpt>
			<trkpt lat="-28.071400" lon="153.027460">
				<ele>126</ele>
				<time>2015-05-07T07:13:28Z</time>
				<extensions>
				</extensions>
			</trkpt>
			<trkpt lat="-28.071145" lon="153.027474">
				<ele>127</ele>
				<time>2015-05-07T07:13:29Z</time>
				<extensions>
				</extensions>
			</trkpt>
			<trkpt lat="-28.070892" lon="153.027488">
				<ele>128</ele>
				<time>2015-05-07T07:13:30Z</time>
				<extensions>
				</extensions>
			</trkpt>
			<trkpt lat="-28.070653" lon="153.027499">
				<ele>127</ele>
				<time>2015-05-07T07:13:31Z</time>
				<extensions>
				</extensions>
			</trkpt>
			<trkpt lat="-28.070397" lon="153.027510">
				<ele>125</ele>
				<time>2015-05-07T07:13:32Z</time>
				<extensions>
				</extensions>
			</trkpt>
			<trkpt lat="-28.070138" lon="153.027522">
				<ele>125</ele>
				<time>2015-05-07T07:13:33Z</time>
				<extensions>
				</extensions>
			</trkpt>
			<trkpt lat="-28.069880" lon="153.027539">
				<ele>125</ele>
				<time>2015-05-07T07:13:34Z</time>
				<extensions>
				</extensions>
			</trkpt>
			<trkpt lat="-28.069627" lon="153.027552">
				<ele>124</ele>
				<time>2015-05-07T07:13:35Z</time>
				<extensions>
				</extensions>
			</trkpt>
			<trkpt lat="-28.069369" lon="153.027567">
				<ele>125</ele>
				<time>2015-05-07T07:13:36Z</time>
				<extensions>
				</extensions>
			</trkpt>
			<trkpt lat="-28.069111" lon="153.027591">
				<ele>125</ele>
				<time>2015-05-07T07:13:37Z</time>
				<extensions>
				</extensions>
			</trkpt>
			<trkpt lat="-28.068847" lon="153.027607">
				<ele>124</ele>
				<time>2015-05-07T07:13:38Z</time>
				<extensions>
				</extensions>
			</trkpt>
			<trkpt lat="-28.068583" lon="153.027618">
				<ele>124</ele>
				<time>2015-05-07T07:13:39Z</time>
				<extensions>
				</extensions>
			</trkpt>
			<trkpt lat="-28.068321" lon="153.027635">
				<ele>123</ele>
				<time>2015-05-07T07:13:40Z</time>
				<extensions>
				</extensions>
			</trkpt>
			<trkpt lat="-28.068066" lon="153.027646">
				<ele>123</ele>
				<time>2015-05-07T07:13:41Z</time>
				<extensions>
				</extensions>
			</trkpt>
			<trkpt lat="-28.067818" lon="153.027659">
				<ele>123</ele>
				<time>2015-05-07T07:13:42Z</time>
				<extensions>
				</extensions>
			</trkpt>
			<trkpt lat="-28.067563" lon="153.027677">
				<ele>124</ele>
				<time>2015-05-07T07:13:43Z</time>
				<extensions>
				</extensions>
			</trkpt>
			<trkpt lat="-28.067306" lon="153.027686">
				<ele>123</ele>
				<time>2015-05-07T07:13:44Z</time>
				<extensions>
				</extensions>
			</trkpt>
			<trkpt lat="-28.067050" lon="153.027695">
				<ele>123</ele>
				<time>2015-05-07T07:13:45Z</time>
				<extensions>
				</extensions>
			</trkpt>
			<trkpt lat="-28.066796" lon="153.027700">
				<ele>124</ele>
				<time>2015-05-07T07:13:46Z</time>
				<extensions>
				</extensions>
			</trkpt>
			<trkpt lat="-28.066541" lon="153.027697">
				<ele>124</ele>
				<time>2015-05-07T07:13:47Z</time>
				<extensions>
				</extensions>
			</trkpt>
			<trkpt lat="-28.066280" lon="153.027688">
				<ele>124</ele>
				<time>2015-05-07T07:13:48Z</time>
				<extensions>
				</extensions>
			</trkpt>
			<trkpt lat="-28.066025" lon="153.027674">
				<ele>124</ele>
				<time>2015-05-07T07:13:49Z</time>
				<extensions>
				</extensions>
			</trkpt>
			<trkpt lat="-28.065759" lon="153.027647">
				<ele>123</ele>
				<time>2015-05-07T07:13:50Z</time>
				<extensions>
				</extensions>
			</trkpt>
			<trkpt lat="-28.065506" lon="153.027617">
				<ele>123</ele>
				<time>2015-05-07T07:13:51Z</time>
				<extensions>
				</extensions>
			</trkpt>
			<trkpt lat="-28.065257" lon="153.027588">
				<ele>122</ele>
				<time>2015-05-07T07:13:52Z</time>
				<extensions>
				</extensions>
			</trkpt>
			<trkpt lat="-28.065010" lon="153.027556">
				<ele>122</ele>
				<time>2015-05-07T07:13:53Z</time>
				<extensions>
				</extensions>
			</trkpt>
			<trkpt lat="-28.064759" lon="153.027527">
				<ele>122</ele>
				<time>2015-05-07T07:13:54Z</time>
				<extensions>
				</extensions>
			</trkpt>
			<trkpt lat="-28.064513" lon="153.027496">
				<ele>123</ele>
				<time>2015-05-07T07:13:55Z</time>
				<extensions>
				</extensions>
			</trkpt>
			<trkpt lat="-28.064267" lon="153.027463">
				<ele>124</ele>
				<time>2015-05-07T07:13:56Z</time>
				<extensions>
				</extensions>
			</trkpt>
			<trkpt lat="-28.064029" lon="153.027424">
				<ele>123</ele>
				<time>2015-05-07T07:13:57Z</time>
				<extensions>
				</extensions>
			</trkpt>
			<trkpt lat="-28.063779" lon="153.027397">
				<ele>123</ele>
				<time>2015-05-07T07:13:58Z</time>
				<extensions>
				</extensions>
			</trkpt>
			<trkpt lat="-28.063529" lon="153.027372">
				<ele>123</ele>
				<time>2015-05-07T07:13:59Z</time>
				<extensions>
				</extensions>
			</trkpt>
			<trkpt lat="-28.063287" lon="153.027344">
				<ele>123</ele>
				<time>2015-05-07T07:14:00Z</time>
				<extensions>
				</extensions>
			</trkpt>
			<trkpt lat="-28.063049" lon="153.027318">
				<ele>123</ele>
				<time>2015-05-07T07:14:01Z</time>
				<extensions>
				</extensions>
			</trkpt>
			<trkpt lat="-28.062811" lon="153.027289">
				<ele>124</ele>
				<time>2015-05-07T07:14:02Z</time>
				<extensions>
				</extensions>
			</trkpt>
			<trkpt lat="-28.062582" lon="153.027256">
				<ele>124</ele>
				<time>2015-05-07T07:14:03Z</time>
				<extensions>
				</extensions>
			</trkpt>
			<trkpt lat="-28.062354" lon="153.027234">
				<ele>124</ele>
				<time>2015-05-07T07:14:04Z</time>
				<extensions>
				</extensions>
			</trkpt>
			<trkpt lat="-28.062131" lon="153.027202">
				<ele>124</ele>
				<time>2015-05-07T07:14:05Z</time>
				<extensions>
				</extensions>
			</trkpt>
			<trkpt lat="-28.061897" lon="153.027185">
				<ele>125</ele>
				<time>2015-05-07T07:14:06Z</time>
				<extensions>
				</extensions>
			</trkpt>
			<trkpt lat="-28.061653" lon="153.027165">
				<ele>126</ele>
				<time>2015-05-07T07:14:07Z</time>
				<extensions>
				</extensions>
			</trkpt>
			<trkpt lat="-28.061413" lon="153.027156">
				<ele>124</ele>
				<time>2015-05-07T07:14:08Z</time>
				<extensions>
				</extensions>
			</trkpt>
			<trkpt lat="-28.061169" lon="153.027166">
				<ele>124</ele>
				<time>2015-05-07T07:14:09Z</time>
				<extensions>
				</extensions>
			</trkpt>
			<trkpt lat="-28.060923" lon="153.027194">
				<ele>125</ele>
				<time>2015-05-07T07:14:10Z</time>
				<extensions>
				</extensions>
			</trkpt>
			<trkpt lat="-28.060665" lon="153.027235">
				<ele>127</ele>
				<time>2015-05-07T07:14:11Z</time>
				<extensions>
				</extensions>
			</trkpt>
			<trkpt lat="-28.060411" lon="153.027270">
				<ele>128</ele>
				<time>2015-05-07T07:14:12Z</time>
				<extensions>
				</extensions>
			</trkpt>
			<trkpt lat="-28.060141" lon="153.027319">
				<ele>130</ele>
				<time>2015-05-07T07:14:13Z</time>
				<extensions>
				</extensions>
			</trkpt>
			<trkpt lat="-28.059874" lon="153.027361">
				<ele>131</ele>
				<time>2015-05-07T07:14:14Z</time>
				<extensions>
				</extensions>
			</trkpt>
			<trkpt lat="-28.059613" lon="153.027415">
				<ele>130</ele>
				<time>2015-05-07T07:14:15Z</time>
				<extensions>
				</extensions>
			</trkpt>
			<trkpt lat="-28.059351" lon="153.027462">
				<ele>129</ele>
				<time>2015-05-07T07:14:16Z</time>
				<extensions>
				</extensions>
			</trkpt>
			<trkpt lat="-28.059094" lon="153.027503">
				<ele>127</ele>
				<time>2015-05-07T07:14:17Z</time>
				<extensions>
				</extensions>
			</trkpt>
			<trkpt lat="-28.058844" lon="153.027548">
				<ele>125</ele>
				<time>2015-05-07T07:14:18Z</time>
				<extensions>
				</extensions>
			</trkpt>
			<trkpt lat="-28.058593" lon="153.027594">
				<ele>125</ele>
				<time>2015-05-07T07:14:19Z</time>
				<extensions>
				</extensions>
			</trkpt>
			<trkpt lat="-28.058350" lon="153.027647">
				<ele>124</ele>
				<time>2015-05-07T07:14:20Z</time>
				<extensions>
				</extensions>
			</trkpt>
			<trkpt lat="-28.058109" lon="153.027686">
				<ele>123</ele>
				<time>2015-05-07T07:14:21Z</time>
				<extensions>
				</extensions>
			</trkpt>
			<trkpt lat="-28.057876" lon="153.027722">
				<ele>122</ele>
				<time>2015-05-07T07:14:22Z</time>
				<extensions>
				</extensions>
			</trkpt>
			<trkpt lat="-28.057642" lon="153.027758">
				<ele>120</ele>
				<time>2015-05-07T07:14:23Z</time>
				<extensions>
				</extensions>
			</trkpt>
			<trkpt lat="-28.057431" lon="153.027790">
				<ele>118</ele>
				<time>2015-05-07T07:14:24Z</time>
				<extensions>
				</extensions>
			</trkpt>
			<trkpt lat="-28.057220" lon="153.027820">
				<ele>118</ele>
				<time>2015-05-07T07:14:25Z</time>
				<extensions>
				</extensions>
			</trkpt>
			<trkpt lat="-28.057005" lon="153.027851">
				<ele>118</ele>
				<time>2015-05-07T07:14:26Z</time>
				<extensions>
				</extensions>
			</trkpt>
			<trkpt lat="-28.056790" lon="153.027872">
				<ele>118</ele>
				<time>2015-05-07T07:14:27Z</time>
				<extensions>
				</extensions>
			</trkpt>
			<trkpt lat="-28.056595" lon="153.027878">
				<ele>117</ele>
				<time>2015-05-07T07:14:28Z</time>
				<extensions>
				</extensions>
			</trkpt>
			<trkpt lat="-28.056392" lon="153.027856">
				<ele>117</ele>
				<time>2015-05-07T07:14:29Z</time>
				<extensions>
				</extensions>
			</trkpt>
			<trkpt lat="-28.056197" lon="153.027787">
				<ele>117</ele>
				<time>2015-05-07T07:14:30Z</time>
				<extensions>
				</extensions>
			</trkpt>
			<trkpt lat="-28.056005" lon="153.027676">
				<ele>116</ele>
				<time>2015-05-07T07:14:31Z</time>
				<extensions>
				</extensions>
			</trkpt>
			<trkpt lat="-28.055831" lon="153.027543">
				<ele>116</ele>
				<time>2015-05-07T07:14:32Z</time>
				<extensions>
				</extensions>
			</trkpt>
			<trkpt lat="-28.055655" lon="153.027376">
				<ele>118</ele>
				<time>2015-05-07T07:14:33Z</time>
				<extensions>
				</extensions>
			</trkpt>
			<trkpt lat="-28.055473" lon="153.027189">
				<ele>120</ele>
				<time>2015-05-07T07:14:34Z</time>
				<extensions>
				</extensions>
			</trkpt>
			<trkpt lat="-28.055297" lon="153.027005">
				<ele>120</ele>
				<time>2015-05-07T07:14:35Z</time>
				<extensions>
				</extensions>
			</trkpt>
			<trkpt lat="-28.055111" lon="153.026806">
				<ele>121</ele>
				<time>2015-05-07T07:14:36Z</time>
				<extensions>
				</extensions>
			</trkpt>
			<trkpt lat="-28.054928" lon="153.026611">
				<ele>121</ele>
				<time>2015-05-07T07:14:37Z</time>
				<extensions>
				</extensions>
			</trkpt>
			<trkpt lat="-28.054746" lon="153.026416">
				<ele>122</ele>
				<time>2015-05-07T07:14:38Z</time>
				<extensions>
				</extensions>
			</trkpt>
			<trkpt lat="-28.054564" lon="153.026221">
				<ele>123</ele>
				<time>2015-05-07T07:14:39Z</time>
				<extensions>
				</extensions>
			</trkpt>
			<trkpt lat="-28.054377" lon="153.026022">
				<ele>122</ele>
				<time>2015-05-07T07:14:40Z</time>
				<extensions>
				</extensions>
			</trkpt>
			<trkpt lat="-28.054188" lon="153.025820">
				<ele>122</ele>
				<time>2015-05-07T07:14:41Z</time>
				<extensions>
				</extensions>
			</trkpt>
			<trkpt lat="-28.054008" lon="153.025627">
				<ele>123</ele>
				<time>2015-05-07T07:14:42Z</time>
				<extensions>
				</extensions>
			</trkpt>
			<trkpt lat="-28.053829" lon="153.025437">
				<ele>123</ele>
				<time>2015-05-07T07:14:43Z</time>
				<extensions>
				</extensions>
			</trkpt>
			<trkpt lat="-28.053660" lon="153.025257">
				<ele>124</ele>
				<time>2015-05-07T07:14:44Z</time>
				<extensions>
				</extensions>
			</trkpt>
			<trkpt lat="-28.053495" lon="153.025087">
				<ele>123</ele>
				<time>2015-05-07T07:14:45Z</time>
				<extensions>
				</extensions>
			</trkpt>
			<trkpt lat="-28.053355" lon="153.024938">
				<ele>122</ele>
				<time>2015-05-07T07:14:46Z</time>
				<extensions>
				</extensions>
			</trkpt>
			<trkpt lat="-28.053181" lon="153.024791">
				<ele>120</ele>
				<time>2015-05-07T07:14:47Z</time>
				<extensions>
				</extensions>
			</trkpt>
			<trkpt lat="-28.053017" lon="153.024657">
				<ele>121</ele>
				<time>2015-05-07T07:14:48Z</time>
				<extensions>
				</extensions>
			</trkpt>
			<trkpt lat="-28.052851" lon="153.024522">
				<ele>121</ele>
				<time>2015-05-07T07:14:49Z</time>
				<extensions>
				</extensions>
			</trkpt>
			<trkpt lat="-28.052653" lon="153.024416">
				<ele>121</ele>
				<time>2015-05-07T07:14:50Z</time>
				<extensions>
				</extensions>
			</trkpt>
			<trkpt lat="-28.052466" lon="153.024306">
				<ele>120</ele>
				<time>2015-05-07T07:14:51Z</time>
				<extensions>
				</extensions>
			</trkpt>
			<trkpt lat="-28.052261" lon="153.024185">
				<ele>120</ele>
				<time>2015-05-07T07:14:52Z</time>
				<extensions>
				</extensions>
			</trkpt>
			<trkpt lat="-28.052046" lon="153.024079">
				<ele>121</ele>
				<time>2015-05-07T07:14:53Z</time>
				<extensions>
				</extensions>
			</trkpt>
			<trkpt lat="-28.051829" lon="153.023972">
				<ele>124</ele>
				<time>2015-05-07T07:14:54Z</time>
				<extensions>
				</extensions>
			</trkpt>
			<trkpt lat="-28.051612" lon="153.023858">
				<ele>126</ele>
				<time>2015-05-07T07:14:55Z</time>
				<extensions>
				</extensions>
			</trkpt>
			<trkpt lat="-28.051385" lon="153.023745">
				<ele>128</ele>
				<time>2015-05-07T07:14:56Z</time>
				<extensions>
				</extensions>
			</trkpt>
			<trkpt lat="-28.051163" lon="153.023630">
				<ele>130</ele>
				<time>2015-05-07T07:14:57Z</time>
				<extensions>
				</extensions>
			</trkpt>
			<trkpt lat="-28.050938" lon="153.023514">
				<ele>131</ele>
				<time>2015-05-07T07:14:58Z</time>
				<extensions>
				</extensions>
			</trkpt>
			<trkpt lat="-28.050750" lon="153.023410">
				<ele>132</ele>
				<time>2015-05-07T07:14:59Z</time>
				<extensions>
				</extensions>
			</trkpt>
			<trkpt lat="-28.050552" lon="153.023310">
				<ele>131</ele>
				<time>2015-05-07T07:15:00Z</time>
				<extensions>
				</extensions>
			</trkpt>
			<trkpt lat="-28.050369" lon="153.023220">
				<ele>131</ele>
				<time>2015-05-07T07:15:01Z</time>
				<extensions>
				</extensions>
			</trkpt>
			<trkpt lat="-28.050202" lon="153.023142">
				<ele>130</ele>
				<time>2015-05-07T07:15:02Z</time>
				<extensions>
				</extensions>
			</trkpt>
			<trkpt lat="-28.049880" lon="153.023015">
				<ele>130</ele>
				<time>2015-05-07T07:15:04Z</time>
				<extensions>
				</extensions>
			</trkpt>
			<trkpt lat="-28.049524" lon="153.022948">
				<ele>128</ele>
				<time>2015-05-07T07:15:06Z</time>
				<extensions>
				</extensions>
			</trkpt>
			<trkpt lat="-28.049336" lon="153.022938">
				<ele>127</ele>
				<time>2015-05-07T07:15:07Z</time>
				<extensions>
				</extensions>
			</trkpt>
			<trkpt lat="-28.049131" lon="153.022938">
				<ele>126</ele>
				<time>2015-05-07T07:15:08Z</time>
				<extensions>
				</extensions>
			</trkpt>
			<trkpt lat="-28.048942" lon="153.022956">
				<ele>126</ele>
				<time>2015-05-07T07:15:09Z</time>
				<extensions>
				</extensions>
			</trkpt>
			<trkpt lat="-28.048730" lon="153.022988">
				<ele>126</ele>
				<time>2015-05-07T07:15:10Z</time>
				<extensions>
				</extensions>
			</trkpt>
			<trkpt lat="-28.048518" lon="153.023034">
				<ele>127</ele>
				<time>2015-05-07T07:15:11Z</time>
				<extensions>
				</extensions>
			</trkpt>
			<trkpt lat="-28.048289" lon="153.023081">
				<ele>128</ele>
				<time>2015-05-07T07:15:12Z</time>
				<extensions>
				</extensions>
			</trkpt>
			<trkpt lat="-28.048036" lon="153.023132">
				<ele>130</ele>
				<time>2015-05-07T07:15:13Z</time>
				<extensions>
				</extensions>
			</trkpt>
			<trkpt lat="-28.047782" lon="153.023176">
				<ele>131</ele>
				<time>2015-05-07T07:15:14Z</time>
				<extensions>
				</extensions>
			</trkpt>
			<trkpt lat="-28.047523" lon="153.023234">
				<ele>130</ele>
				<time>2015-05-07T07:15:15Z</time>
				<extensions>
				</extensions>
			</trkpt>
			<trkpt lat="-28.047272" lon="153.023280">
				<ele>131</ele>
				<time>2015-05-07T07:15:16Z</time>
				<extensions>
				</extensions>
			</trkpt>
			<trkpt lat="-28.047016" lon="153.023341">
				<ele>131</ele>
				<time>2015-05-07T07:15:17Z</time>
				<extensions>
				</extensions>
			</trkpt>
			<trkpt lat="-28.046767" lon="153.023396">
				<ele>133</ele>
				<time>2015-05-07T07:15:18Z</time>
				<extensions>
				</extensions>
			</trkpt>
			<trkpt lat="-28.046514" lon="153.023450">
				<ele>134</ele>
				<time>2015-05-07T07:15:19Z</time>
				<extensions>
				</extensions>
			</trkpt>
			<trkpt lat="-28.046262" lon="153.023502">
				<ele>133</ele>
				<time>2015-05-07T07:15:20Z</time>
				<extensions>
				</extensions>
			</trkpt>
			<trkpt lat="-28.046015" lon="153.023551">
				<ele>132</ele>
				<time>2015-05-07T07:15:21Z</time>
				<extensions>
				</extensions>
			</trkpt>
			<trkpt lat="-28.045770" lon="153.023597">
				<ele>131</ele>
				<time>2015-05-07T07:15:22Z</time>
				<extensions>
				</extensions>
			</trkpt>
			<trkpt lat="-28.045541" lon="153.023643">
				<ele>129</ele>
				<time>2015-05-07T07:15:23Z</time>
				<extensions>
				</extensions>
			</trkpt>
			<trkpt lat="-28.045339" lon="153.023685">
				<ele>123</ele>
				<time>2015-05-07T07:15:24Z</time>
				<extensions>
				</extensions>
			</trkpt>
			<trkpt lat="-28.045018" lon="153.023740">
				<ele>115</ele>
				<time>2015-05-07T07:15:26Z</time>
				<extensions>
				</extensions>
			</trkpt>
			<trkpt lat="-28.044791" lon="153.023790">
				<ele>113</ele>
				<time>2015-05-07T07:15:28Z</time>
				<extensions>
				</extensions>
			</trkpt>
			<trkpt lat="-28.044571" lon="153.023810">
				<ele>128</ele>
				<time>2015-05-07T07:15:31Z</time>
				<extensions>
				</extensions>
			</trkpt>
			<trkpt lat="-28.044394" lon="153.023873">
				<ele>126</ele>
				<time>2015-05-07T07:15:42Z</time>
				<extensions>
				</extensions>
			</trkpt>
			<trkpt lat="-28.044576" lon="153.023892">
				<ele>116</ele>
				<time>2015-05-07T07:15:51Z</time>
				<extensions>
				</extensions>
			</trkpt>
			<trkpt lat="-28.044773" lon="153.023854">
				<ele>125</ele>
				<time>2015-05-07T07:17:02Z</time>
				<extensions>
				</extensions>
			</trkpt>
			<trkpt lat="-28.044564" lon="153.023850">
				<ele>130</ele>
				<time>2015-05-07T07:18:22Z</time>
				<extensions>
				</extensions>
			</trkpt>
			<trkpt lat="-28.044341" lon="153.023893">
				<ele>132</ele>
				<time>2015-05-07T07:18:24Z</time>
				<extensions>
				</extensions>
			</trkpt>
			<trkpt lat="-28.044048" lon="153.023947">
				<ele>134</ele>
				<time>2015-05-07T07:18:26Z</time>
				<extensions>
				</extensions>
			</trkpt>
			<trkpt lat="-28.043862" lon="153.023981">
				<ele>135</ele>
				<time>2015-05-07T07:18:27Z</time>
				<extensions>
				</extensions>
			</trkpt>
			<trkpt lat="-28.043508" lon="153.024047">
				<ele>137</ele>
				<time>2015-05-07T07:18:29Z</time>
				<extensions>
				</extensions>
			</trkpt>
			<trkpt lat="-28.043313" lon="153.024083">
				<ele>138</ele>
				<time>2015-05-07T07:18:30Z</time>
				<extensions>
				</extensions>
			</trkpt>
			<trkpt lat="-28.043114" lon="153.024120">
				<ele>138</ele>
				<time>2015-05-07T07:18:31Z</time>
				<extensions>
				</extensions>
			</trkpt>
			<trkpt lat="-28.042906" lon="153.024162">
				<ele>139</ele>
				<time>2015-05-07T07:18:32Z</time>
				<extensions>
				</extensions>
			</trkpt>
			<trkpt lat="-28.042692" lon="153.024205">
				<ele>140</ele>
				<time>2015-05-07T07:18:33Z</time>
				<extensions>
				</extensions>
			</trkpt>
			<trkpt lat="-28.042465" lon="153.024252">
				<ele>142</ele>
				<time>2015-05-07T07:18:34Z</time>
				<extensions>
				</extensions>
			</trkpt>
			<trkpt lat="-28.042217" lon="153.024303">
				<ele>144</ele>
				<time>2015-05-07T07:18:35Z</time>
				<extensions>
				</extensions>
			</trkpt>
			<trkpt lat="-28.041974" lon="153.024353">
				<ele>144</ele>
				<time>2015-05-07T07:18:36Z</time>
				<extensions>
				</extensions>
			</trkpt>
			<trkpt lat="-28.041729" lon="153.024404">
				<ele>127</ele>
				<time>2015-05-07T07:18:37Z</time>
				<extensions>
				</extensions>
			</trkpt>
			<trkpt lat="-28.041491" lon="153.024453">
				<ele>128</ele>
				<time>2015-05-07T07:18:38Z</time>
				<extensions>
				</extensions>
			</trkpt>
			<trkpt lat="-28.041255" lon="153.024501">
				<ele>128</ele>
				<time>2015-05-07T07:18:39Z</time>
				<extensions>
				</extensions>
			</trkpt>
			<trkpt lat="-28.041009" lon="153.024550">
				<ele>128</ele>
				<time>2015-05-07T07:18:40Z</time>
				<extensions>
				</extensions>
			</trkpt>
			<trkpt lat="-28.040769" lon="153.024600">
				<ele>129</ele>
				<time>2015-05-07T07:18:41Z</time>
				<extensions>
				</extensions>
			</trkpt>
			<trkpt lat="-28.040538" lon="153.024649">
				<ele>129</ele>
				<time>2015-05-07T07:18:42Z</time>
				<extensions>
				</extensions>
			</trkpt>
			<trkpt lat="-28.040290" lon="153.024700">
				<ele>128</ele>
				<time>2015-05-07T07:18:43Z</time>
				<extensions>
				</extensions>
			</trkpt>
			<trkpt lat="-28.040039" lon="153.024751">
				<ele>127</ele>
				<time>2015-05-07T07:18:44Z</time>
				<extensions>
				</extensions>
			</trkpt>
			<trkpt lat="-28.039786" lon="153.024804">
				<ele>125</ele>
				<time>2015-05-07T07:18:45Z</time>
				<extensions>
				</extensions>
			</trkpt>
			<trkpt lat="-28.039554" lon="153.024852">
				<ele>125</ele>
				<time>2015-05-07T07:18:46Z</time>
				<extensions>
				</extensions>
			</trkpt>
			<trkpt lat="-28.039296" lon="153.024905">
				<ele>125</ele>
				<time>2015-05-07T07:18:47Z</time>
				<extensions>
				</extensions>
			</trkpt>
			<trkpt lat="-28.039062" lon="153.024953">
				<ele>125</ele>
				<time>2015-05-07T07:18:48Z</time>
				<extensions>
				</extensions>
			</trkpt>
			<trkpt lat="-28.038814" lon="153.024998">
				<ele>125</ele>
				<time>2015-05-07T07:18:49Z</time>
				<extensions>
				</extensions>
			</trkpt>
			<trkpt lat="-28.038575" lon="153.025044">
				<ele>136</ele>
				<time>2015-05-07T07:18:50Z</time>
				<extensions>
				</extensions>
			</trkpt>
			<trkpt lat="-28.038333" lon="153.025091">
				<ele>135</ele>
				<time>2015-05-07T07:18:51Z</time>
				<extensions>
				</extensions>
			</trkpt>
			<trkpt lat="-28.038103" lon="153.025138">
				<ele>135</ele>
				<time>2015-05-07T07:18:52Z</time>
				<extensions>
				</extensions>
			</trkpt>
			<trkpt lat="-28.037874" lon="153.025193">
				<ele>135</ele>
				<time>2015-05-07T07:18:53Z</time>
				<extensions>
				</extensions>
			</trkpt>
			<trkpt lat="-28.037641" lon="153.025241">
				<ele>136</ele>
				<time>2015-05-07T07:18:54Z</time>
				<extensions>
				</extensions>
			</trkpt>
			<trkpt lat="-28.037410" lon="153.025282">
				<ele>135</ele>
				<time>2015-05-07T07:18:55Z</time>
				<extensions>
				</extensions>
			</trkpt>
			<trkpt lat="-28.037186" lon="153.025326">
				<ele>136</ele>
				<time>2015-05-07T07:18:56Z</time>
				<extensions>
				</extensions>
			</trkpt>
			<trkpt lat="-28.036976" lon="153.025345">
				<ele>135</ele>
				<time>2015-05-07T07:18:57Z</time>
				<extensions>
				</extensions>
			</trkpt>
			<trkpt lat="-28.036783" lon="153.025364">
				<ele>134</ele>
				<time>2015-05-07T07:18:58Z</time>
				<extensions>
				</extensions>
			</trkpt>
			<trkpt lat="-28.036595" lon="153.025363">
				<ele>133</ele>
				<time>2015-05-07T07:18:59Z</time>
				<extensions>
				</extensions>
			</trkpt>
			<trkpt lat="-28.036407" lon="153.025357">
				<ele>132</ele>
				<time>2015-05-07T07:19:00Z</time>
				<extensions>
				</extensions>
			</trkpt>
			<trkpt lat="-28.036081" lon="153.025350">
				<ele>131</ele>
				<time>2015-05-07T07:19:02Z</time>
				<extensions>
				</extensions>
			</trkpt>
			<trkpt lat="-28.035739" lon="153.025401">
				<ele>134</ele>
				<time>2015-05-07T07:19:04Z</time>
				<extensions>
				</extensions>
			</trkpt>
			<trkpt lat="-28.035378" lon="153.025494">
				<ele>136</ele>
				<time>2015-05-07T07:19:06Z</time>
				<extensions>
				</extensions>
			</trkpt>
			<trkpt lat="-28.035164" lon="153.025543">
				<ele>137</ele>
				<time>2015-05-07T07:19:07Z</time>
				<extensions>
				</extensions>
			</trkpt>
			<trkpt lat="-28.034953" lon="153.025596">
				<ele>138</ele>
				<time>2015-05-07T07:19:08Z</time>
				<extensions>
				</extensions>
			</trkpt>
			<trkpt lat="-28.034715" lon="153.025646">
				<ele>139</ele>
				<time>2015-05-07T07:19:09Z</time>
				<extensions>
				</extensions>
			</trkpt>
			<trkpt lat="-28.034470" lon="153.025696">
				<ele>140</ele>
				<time>2015-05-07T07:19:10Z</time>
				<extensions>
				</extensions>
			</trkpt>
			<trkpt lat="-28.034216" lon="153.025748">
				<ele>142</ele>
				<time>2015-05-07T07:19:11Z</time>
				<extensions>
				</extensions>
			</trkpt>
			<trkpt lat="-28.033977" lon="153.025797">
				<ele>143</ele>
				<time>2015-05-07T07:19:12Z</time>
				<extensions>
				</extensions>
			</trkpt>
			<trkpt lat="-28.033723" lon="153.025849">
				<ele>143</ele>
				<time>2015-05-07T07:19:13Z</time>
				<extensions>
				</extensions>
			</trkpt>
			<trkpt lat="-28.033475" lon="153.025900">
				<ele>144</ele>
				<time>2015-05-07T07:19:14Z</time>
				<extensions>
				</extensions>
			</trkpt>
			<trkpt lat="-28.033228" lon="153.025951">
				<ele>143</ele>
				<time>2015-05-07T07:19:15Z</time>
				<extensions>
				</extensions>
			</trkpt>
			<trkpt lat="-28.032980" lon="153.026002">
				<ele>143</ele>
				<time>2015-05-07T07:19:16Z</time>
				<extensions>
				</extensions>
			</trkpt>
			<trkpt lat="-28.032727" lon="153.026041">
				<ele>126</ele>
				<time>2015-05-07T07:19:17Z</time>
				<extensions>
				</extensions>
			</trkpt>
			<trkpt lat="-28.032471" lon="153.026090">
				<ele>127</ele>
				<time>2015-05-07T07:19:18Z</time>
				<extensions>
				</extensions>
			</trkpt>
			<trkpt lat="-28.032246" lon="153.026152">
				<ele>129</ele>
				<time>2015-05-07T07:19:19Z</time>
				<extensions>
				</extensions>
			</trkpt>
			<trkpt lat="-28.032000" lon="153.026198">
				<ele>130</ele>
				<time>2015-05-07T07:19:20Z</time>
				<extensions>
				</extensions>
			</trkpt>
			<trkpt lat="-28.031750" lon="153.026243">
				<ele>131</ele>
				<time>2015-05-07T07:19:21Z</time>
				<extensions>
				</extensions>
			</trkpt>
			<trkpt lat="-28.031507" lon="153.026293">
				<ele>132</ele>
				<time>2015-05-07T07:19:22Z</time>
				<extensions>
				</extensions>
			</trkpt>
			<trkpt lat="-28.031269" lon="153.026347">
				<ele>133</ele>
				<time>2015-05-07T07:19:23Z</time>
				<extensions>
				</extensions>
			</trkpt>
			<trkpt lat="-28.031017" lon="153.026386">
				<ele>144</ele>
				<time>2015-05-07T07:19:24Z</time>
				<extensions>
				</extensions>
			</trkpt>
			<trkpt lat="-28.030775" lon="153.026442">
				<ele>144</ele>
				<time>2015-05-07T07:19:25Z</time>
				<extensions>
				</extensions>
			</trkpt>
			<trkpt lat="-28.030520" lon="153.026491">
				<ele>143</ele>
				<time>2015-05-07T07:19:26Z</time>
				<extensions>
				</extensions>
			</trkpt>
			<trkpt lat="-28.030269" lon="153.026550">
				<ele>142</ele>
				<time>2015-05-07T07:19:27Z</time>
				<extensions>
				</extensions>
			</trkpt>
			<trkpt lat="-28.030015" lon="153.026604">
				<ele>142</ele>
				<time>2015-05-07T07:19:28Z</time>
				<extensions>
				</extensions>
			</trkpt>
			<trkpt lat="-28.029760" lon="153.026657">
				<ele>142</ele>
				<time>2015-05-07T07:19:29Z</time>
				<extensions>
				</extensions>
			</trkpt>
			<trkpt lat="-28.029499" lon="153.026710">
				<ele>128</ele>
				<time>2015-05-07T07:19:30Z</time>
				<extensions>
				</extensions>
			</trkpt>
			<trkpt lat="-28.029227" lon="153.026765">
				<ele>128</ele>
				<time>2015-05-07T07:19:31Z</time>
				<extensions>
				</extensions>
			</trkpt>
			<trkpt lat="-28.028956" lon="153.026819">
				<ele>129</ele>
				<time>2015-05-07T07:19:32Z</time>
				<extensions>
				</extensions>
			</trkpt>
			<trkpt lat="-28.028686" lon="153.026874">
				<ele>128</ele>
				<time>2015-05-07T07:19:33Z</time>
				<extensions>
				</extensions>
			</trkpt>
			<trkpt lat="-28.028428" lon="153.026926">
				<ele>129</ele>
				<time>2015-05-07T07:19:34Z</time>
				<extensions>
				</extensions>
			</trkpt>
			<trkpt lat="-28.028163" lon="153.026980">
				<ele>140</ele>
				<time>2015-05-07T07:19:35Z</time>
				<extensions>
				</extensions>
			</trkpt>
			<trkpt lat="-28.027897" lon="153.027033">
				<ele>139</ele>
				<time>2015-05-07T07:19:36Z</time>
				<extensions>
				</extensions>
			</trkpt>
			<trkpt lat="-28.027639" lon="153.027086">
				<ele>136</ele>
				<time>2015-05-07T07:19:37Z</time>
				<extensions>
				</extensions>
			</trkpt>
			<trkpt lat="-28.027408" lon="153.027132">
				<ele>134</ele>
				<time>2015-05-07T07:19:38Z</time>
				<extensions>
				</extensions>
			</trkpt>
			<trkpt lat="-28.027180" lon="153.027177">
				<ele>132</ele>
				<time>2015-05-07T07:19:39Z</time>
				<extensions>
				</extensions>
			</trkpt>
			<trkpt lat="-28.026957" lon="153.027221">
				<ele>130</ele>
				<time>2015-05-07T07:19:40Z</time>
				<extensions>
				</extensions>
			</trkpt>
			<trkpt lat="-28.026731" lon="153.027269">
				<ele>129</ele>
				<time>2015-05-07T07:19:41Z</time>
				<extensions>
				</extensions>
			</trkpt>
			<trkpt lat="-28.026504" lon="153.027315">
				<ele>127</ele>
				<time>2015-05-07T07:19:42Z</time>
				<extensions>
				</extensions>
			</trkpt>
			<trkpt lat="-28.026291" lon="153.027355">
				<ele>125</ele>
				<time>2015-05-07T07:19:43Z</time>
				<extensions>
				</extensions>
			</trkpt>
			<trkpt lat="-28.026103" lon="153.027386">
				<ele>123</ele>
				<time>2015-05-07T07:19:44Z</time>
				<extensions>
				</extensions>
			</trkpt>
			<trkpt lat="-28.025918" lon="153.027409">
				<ele>122</ele>
				<time>2015-05-07T07:19:45Z</time>
				<extensions>
				</extensions>
			</trkpt>
			<trkpt lat="-28.025726" lon="153.027412">
				<ele>121</ele>
				<time>2015-05-07T07:19:46Z</time>
				<extensions>
				</extensions>
			</trkpt>
			<trkpt lat="-28.025541" lon="153.027393">
				<ele>120</ele>
				<time>2015-05-07T07:19:47Z</time>
				<extensions>
				</extensions>
			</trkpt>
			<trkpt lat="-28.025343" lon="153.027333">
				<ele>122</ele>
				<time>2015-05-07T07:19:48Z</time>
				<extensions>
				</extensions>
			</trkpt>
			<trkpt lat="-28.025142" lon="153.027257">
				<ele>123</ele>
				<time>2015-05-07T07:19:49Z</time>
				<extensions>
				</extensions>
			</trkpt>
			<trkpt lat="-28.024940" lon="153.027165">
				<ele>124</ele>
				<time>2015-05-07T07:19:50Z</time>
				<extensions>
				</extensions>
			</trkpt>
			<trkpt lat="-28.024728" lon="153.027066">
				<ele>123</ele>
				<time>2015-05-07T07:19:51Z</time>
				<extensions>
				</extensions>
			</trkpt>
			<trkpt lat="-28.024524" lon="153.026972">
				<ele>123</ele>
				<time>2015-05-07T07:19:52Z</time>
				<extensions>
				</extensions>
			</trkpt>
			<trkpt lat="-28.024310" lon="153.026857">
				<ele>123</ele>
				<time>2015-05-07T07:19:53Z</time>
				<extensions>
				</extensions>
			</trkpt>
			<trkpt lat="-28.024097" lon="153.026759">
				<ele>123</ele>
				<time>2015-05-07T07:19:54Z</time>
				<extensions>
				</extensions>
			</trkpt>
			<trkpt lat="-28.023883" lon="153.026657">
				<ele>123</ele>
				<time>2015-05-07T07:19:55Z</time>
				<extensions>
				</extensions>
			</trkpt>
			<trkpt lat="-28.023646" lon="153.026554">
				<ele>123</ele>
				<time>2015-05-07T07:19:56Z</time>
				<extensions>
				</extensions>
			</trkpt>
			<trkpt lat="-28.023421" lon="153.026447">
				<ele>123</ele>
				<time>2015-05-07T07:19:57Z</time>
				<extensions>
				</extensions>
			</trkpt>
			<trkpt lat="-28.023193" lon="153.026340">
				<ele>121</ele>
				<time>2015-05-07T07:19:58Z</time>
				<extensions>
				</extensions>
			</trkpt>
			<trkpt lat="-28.022964" lon="153.026223">
				<ele>119</ele>
				<time>2015-05-07T07:19:59Z</time>
				<extensions>
				</extensions>
			</trkpt>
			<trkpt lat="-28.022742" lon="153.026121">
				<ele>118</ele>
				<time>2015-05-07T07:20:00Z</time>
				<extensions>
				</extensions>
			</trkpt>
			<trkpt lat="-28.022494" lon="153.026001">
				<ele>117</ele>
				<time>2015-05-07T07:20:01Z</time>
				<extensions>
				</extensions>
			</trkpt>
			<trkpt lat="-28.022278" lon="153.025896">
				<ele>115</ele>
				<time>2015-05-07T07:20:02Z</time>
				<extensions>
				</extensions>
			</trkpt>
			<trkpt lat="-28.022059" lon="153.025790">
				<ele>112</ele>
				<time>2015-05-07T07:20:03Z</time>
				<extensions>
				</extensions>
			</trkpt>
			<trkpt lat="-28.021849" lon="153.025690">
				<ele>112</ele>
				<time>2015-05-07T07:20:04Z</time>
				<extensions>
				</extensions>
			</trkpt>
			<trkpt lat="-28.021670" lon="153.025605">
				<ele>112</ele>
				<time>2015-05-07T07:20:05Z</time>
				<extensions>
				</extensions>
			</trkpt>
			<trkpt lat="-28.021469" lon="153.025510">
				<ele>110</ele>
				<time>2015-05-07T07:20:06Z</time>
				<extensions>
				</extensions>
			</trkpt>
			<trkpt lat="-28.021288" lon="153.025424">
				<ele>110</ele>
				<time>2015-05-07T07:20:07Z</time>
				<extensions>
				</extensions>
			</trkpt>
			<trkpt lat="-28.020960" lon="153.025268">
				<ele>108</ele>
				<time>2015-05-07T07:20:09Z</time>
				<extensions>
				</extensions>
			</trkpt>
			<trkpt lat="-28.020781" lon="153.025183">
				<ele>108</ele>
				<time>2015-05-07T07:20:10Z</time>
				<extensions>
				</extensions>
			</trkpt>
			<trkpt lat="-28.020449" lon="153.025026">
				<ele>108</ele>
				<time>2015-05-07T07:20:12Z</time>
				<extensions>
				</extensions>
			</trkpt>
			<trkpt lat="-28.020105" lon="153.024863">
				<ele>108</ele>
				<time>2015-05-07T07:20:14Z</time>
				<extensions>
				</extensions>
			</trkpt>
			<trkpt lat="-28.019780" lon="153.024709">
				<ele>109</ele>
				<time>2015-05-07T07:20:16Z</time>
				<extensions>
				</extensions>
			</trkpt>
			<trkpt lat="-28.019610" lon="153.024628">
				<ele>110</ele>
				<time>2015-05-07T07:20:17Z</time>
				<extensions>
				</extensions>
			</trkpt>
			<trkpt lat="-28.019281" lon="153.024472">
				<ele>111</ele>
				<time>2015-05-07T07:20:19Z</time>
				<extensions>
				</extensions>
			</trkpt>
			<trkpt lat="-28.019114" lon="153.024393">
				<ele>110</ele>
				<time>2015-05-07T07:20:20Z</time>
				<extensions>
				</extensions>
			</trkpt>
			<trkpt lat="-28.018948" lon="153.024314">
				<ele>110</ele>
				<time>2015-05-07T07:20:21Z</time>
				<extensions>
				</extensions>
			</trkpt>
			<trkpt lat="-28.018653" lon="153.024175">
				<ele>109</ele>
				<time>2015-05-07T07:20:23Z</time>
				<extensions>
				</extensions>
			</trkpt>
			<trkpt lat="-28.018370" lon="153.024058">
				<ele>109</ele>
				<time>2015-05-07T07:20:25Z</time>
				<extensions>
				</extensions>
			</trkpt>
			<trkpt lat="-28.018080" lon="153.023963">
				<ele>109</ele>
				<time>2015-05-07T07:20:27Z</time>
				<extensions>
				</extensions>
			</trkpt>
			<trkpt lat="-28.017782" lon="153.023898">
				<ele>112</ele>
				<time>2015-05-07T07:20:29Z</time>
				<extensions>
				</extensions>
			</trkpt>
			<trkpt lat="-28.017498" lon="153.023858">
				<ele>113</ele>
				<time>2015-05-07T07:20:31Z</time>
				<extensions>
				</extensions>
			</trkpt>
			<trkpt lat="-28.017207" lon="153.023809">
				<ele>113</ele>
				<time>2015-05-07T07:20:33Z</time>
				<extensions>
				</extensions>
			</trkpt>
			<trkpt lat="-28.016905" lon="153.023755">
				<ele>115</ele>
				<time>2015-05-07T07:20:35Z</time>
				<extensions>
				</extensions>
			</trkpt>
			<trkpt lat="-28.016613" lon="153.023658">
				<ele>116</ele>
				<time>2015-05-07T07:20:37Z</time>
				<extensions>
				</extensions>
			</trkpt>
			<trkpt lat="-28.016336" lon="153.023495">
				<ele>115</ele>
				<time>2015-05-07T07:20:39Z</time>
				<extensions>
				</extensions>
			</trkpt>
			<trkpt lat="-28.016088" lon="153.023343">
				<ele>115</ele>
				<time>2015-05-07T07:20:41Z</time>
				<extensions>
				</extensions>
			</trkpt>
			<trkpt lat="-28.015808" lon="153.023171">
				<ele>113</ele>
				<time>2015-05-07T07:20:43Z</time>
				<extensions>
				</extensions>
			</trkpt>
			<trkpt lat="-28.015548" lon="153.023011">
				<ele>112</ele>
				<time>2015-05-07T07:20:45Z</time>
				<extensions>
				</extensions>
			</trkpt>
			<trkpt lat="-28.015300" lon="153.022858">
				<ele>112</ele>
				<time>2015-05-07T07:20:47Z</time>
				<extensions>
				</extensions>
			</trkpt>
			<trkpt lat="-28.015035" lon="153.022695">
				<ele>111</ele>
				<time>2015-05-07T07:20:49Z</time>
				<extensions>
				</extensions>
			</trkpt>
			<trkpt lat="-28.014800" lon="153.022551">
				<ele>108</ele>
				<time>2015-05-07T07:20:51Z</time>
				<extensions>
				</extensions>
			</trkpt>
			<trkpt lat="-28.014531" lon="153.022386">
				<ele>106</ele>
				<time>2015-05-07T07:20:53Z</time>
				<extensions>
				</extensions>
			</trkpt>
			<trkpt lat="-28.014265" lon="153.022222">
				<ele>104</ele>
				<time>2015-05-07T07:20:55Z</time>
				<extensions>
				</extensions>
			</trkpt>
			<trkpt lat="-28.014013" lon="153.022067">
				<ele>106</ele>
				<time>2015-05-07T07:20:57Z</time>
				<extensions>
				</extensions>
			</trkpt>
			<trkpt lat="-28.013742" lon="153.021901">
				<ele>104</ele>
				<time>2015-05-07T07:20:59Z</time>
				<extensions>
				</extensions>
			</trkpt>
			<trkpt lat="-28.013467" lon="153.021732">
				<ele>103</ele>
				<time>2015-05-07T07:21:01Z</time>
				<extensions>
				</extensions>
			</trkpt>
			<trkpt lat="-28.013222" lon="153.021580">
				<ele>102</ele>
				<time>2015-05-07T07:21:03Z</time>
				<extensions>
				</extensions>
			</trkpt>
			<trkpt lat="-28.012963" lon="153.021430">
				<ele>101</ele>
				<time>2015-05-07T07:21:05Z</time>
				<extensions>
				</extensions>
			</trkpt>
			<trkpt lat="-28.012667" lon="153.021318">
				<ele>99</ele>
				<time>2015-05-07T07:21:07Z</time>
				<extensions>
				</extensions>
			</trkpt>
			<trkpt lat="-28.012370" lon="153.021216">
				<ele>98</ele>
				<time>2015-05-07T07:21:09Z</time>
				<extensions>
				</extensions>
			</trkpt>
			<trkpt lat="-28.012063" lon="153.021100">
				<ele>97</ele>
				<time>2015-05-07T07:21:11Z</time>
				<extensions>
				</extensions>
			</trkpt>
			<trkpt lat="-28.011822" lon="153.020977">
				<ele>94</ele>
				<time>2015-05-07T07:21:13Z</time>
				<extensions>
				</extensions>
			</trkpt>
			<trkpt lat="-28.011590" lon="153.020713">
				<ele>92</ele>
				<time>2015-05-07T07:21:15Z</time>
				<extensions>
				</extensions>
			</trkpt>
			<trkpt lat="-28.011439" lon="153.020427">
				<ele>91</ele>
				<time>2015-05-07T07:21:17Z</time>
				<extensions>
				</extensions>
			</trkpt>
			<trkpt lat="-28.011396" lon="153.020224">
				<ele>91</ele>
				<time>2015-05-07T07:21:18Z</time>
				<extensions>
				</extensions>
			</trkpt>
			<trkpt lat="-28.011337" lon="153.019852">
				<ele>90</ele>
				<time>2015-05-07T07:21:20Z</time>
				<extensions>
				</extensions>
			</trkpt>
			<trkpt lat="-28.011245" lon="153.019487">
				<ele>88</ele>
				<time>2015-05-07T07:21:22Z</time>
				<extensions>
				</extensions>
			</trkpt>
			<trkpt lat="-28.011163" lon="153.019287">
				<ele>89</ele>
				<time>2015-05-07T07:21:23Z</time>
				<extensions>
				</extensions>
			</trkpt>
			<trkpt lat="-28.011079" lon="153.019088">
				<ele>89</ele>
				<time>2015-05-07T07:21:24Z</time>
				<extensions>
				</extensions>
			</trkpt>
			<trkpt lat="-28.010993" lon="153.018884">
				<ele>90</ele>
				<time>2015-05-07T07:21:25Z</time>
				<extensions>
				</extensions>
			</trkpt>
			<trkpt lat="-28.010903" lon="153.018671">
				<ele>89</ele>
				<time>2015-05-07T07:21:26Z</time>
				<extensions>
				</extensions>
			</trkpt>
			<trkpt lat="-28.010812" lon="153.018456">
				<ele>89</ele>
				<time>2015-05-07T07:21:27Z</time>
				<extensions>
				</extensions>
			</trkpt>
			<trkpt lat="-28.010718" lon="153.018237">
				<ele>89</ele>
				<time>2015-05-07T07:21:28Z</time>
				<extensions>
				</extensions>
			</trkpt>
			<trkpt lat="-28.010627" lon="153.018024">
				<ele>88</ele>
				<time>2015-05-07T07:21:29Z</time>
				<extensions>
				</extensions>
			</trkpt>
			<trkpt lat="-28.010536" lon="153.017812">
				<ele>86</ele>
				<time>2015-05-07T07:21:30Z</time>
				<extensions>
				</extensions>
			</trkpt>
			<trkpt lat="-28.010447" lon="153.017603">
				<ele>86</ele>
				<time>2015-05-07T07:21:31Z</time>
				<extensions>
				</extensions>
			</trkpt>
			<trkpt lat="-28.010353" lon="153.017386">
				<ele>86</ele>
				<time>2015-05-07T07:21:32Z</time>
				<extensions>
				</extensions>
			</trkpt>
			<trkpt lat="-28.010260" lon="153.017168">
				<ele>85</ele>
				<time>2015-05-07T07:21:33Z</time>
				<extensions>
				</extensions>
			</trkpt>
			<trkpt lat="-28.010167" lon="153.016952">
				<ele>85</ele>
				<time>2015-05-07T07:21:34Z</time>
				<extensions>
				</extensions>
			</trkpt>
			<trkpt lat="-28.010083" lon="153.016756">
				<ele>83</ele>
				<time>2015-05-07T07:21:35Z</time>
				<extensions>
				</extensions>
			</trkpt>
			<trkpt lat="-28.009993" lon="153.016546">
				<ele>82</ele>
				<time>2015-05-07T07:21:36Z</time>
				<extensions>
				</extensions>
			</trkpt>
			<trkpt lat="-28.009904" lon="153.016340">
				<ele>81</ele>
				<time>2015-05-07T07:21:37Z</time>
				<extensions>
				</extensions>
			</trkpt>
			<trkpt lat="-28.009822" lon="153.016150">
				<ele>81</ele>
				<time>2015-05-07T07:21:38Z</time>
				<extensions>
				</extensions>
			</trkpt>
			<trkpt lat="-28.009735" lon="153.015945">
				<ele>81</ele>
				<time>2015-05-07T07:21:39Z</time>
				<extensions>
				</extensions>
			</trkpt>
			<trkpt lat="-28.009649" lon="153.015742">
				<ele>81</ele>
				<time>2015-05-07T07:21:40Z</time>
				<extensions>
				</extensions>
			</trkpt>
			<trkpt lat="-28.009565" lon="153.015544">
				<ele>82</ele>
				<time>2015-05-07T07:21:41Z</time>
				<extensions>
				</extensions>
			</trkpt>
			<trkpt lat="-28.009475" lon="153.015333">
				<ele>82</ele>
				<time>2015-05-07T07:21:42Z</time>
				<extensions>
				</extensions>
			</trkpt>
			<trkpt lat="-28.009393" lon="153.015139">
				<ele>82</ele>
				<time>2015-05-07T07:21:43Z</time>
				<extensions>
				</extensions>
			</trkpt>
			<trkpt lat="-28.009302" lon="153.014927">
				<ele>81</ele>
				<time>2015-05-07T07:21:44Z</time>
				<extensions>
				</extensions>
			</trkpt>
			<trkpt lat="-28.009223" lon="153.014731">
				<ele>82</ele>
				<time>2015-05-07T07:21:45Z</time>
				<extensions>
				</extensions>
			</trkpt>
			<trkpt lat="-28.009162" lon="153.014539">
				<ele>82</ele>
				<time>2015-05-07T07:21:46Z</time>
				<extensions>
				</extensions>
			</trkpt>
			<trkpt lat="-28.009125" lon="153.014326">
				<ele>81</ele>
				<time>2015-05-07T07:21:47Z</time>
				<extensions>
				</extensions>
			</trkpt>
			<trkpt lat="-28.009104" lon="153.014095">
				<ele>81</ele>
				<time>2015-05-07T07:21:48Z</time>
				<extensions>
				</extensions>
			</trkpt>
			<trkpt lat="-28.009083" lon="153.013869">
				<ele>81</ele>
				<time>2015-05-07T07:21:49Z</time>
				<extensions>
				</extensions>
			</trkpt>
			<trkpt lat="-28.009062" lon="153.013639">
				<ele>81</ele>
				<time>2015-05-07T07:21:50Z</time>
				<extensions>
				</extensions>
			</trkpt>
			<trkpt lat="-28.009041" lon="153.013409">
				<ele>80</ele>
				<time>2015-05-07T07:21:51Z</time>
				<extensions>
				</extensions>
			</trkpt>
			<trkpt lat="-28.009024" lon="153.013185">
				<ele>79</ele>
				<time>2015-05-07T07:21:52Z</time>
				<extensions>
				</extensions>
			</trkpt>
			<trkpt lat="-28.009008" lon="153.012977">
				<ele>77</ele>
				<time>2015-05-07T07:21:53Z</time>
				<extensions>
				</extensions>
			</trkpt>
			<trkpt lat="-28.008961" lon="153.012589">
				<ele>73</ele>
				<time>2015-05-07T07:21:55Z</time>
				<extensions>
				</extensions>
			</trkpt>
			<trkpt lat="-28.008860" lon="153.012222">
				<ele>72</ele>
				<time>2015-05-07T07:21:57Z</time>
				<extensions>
				</extensions>
			</trkpt>
			<trkpt lat="-28.008670" lon="153.011900">
				<ele>72</ele>
				<time>2015-05-07T07:21:59Z</time>
				<extensions>
				</extensions>
			</trkpt>
			<trkpt lat="-28.008542" lon="153.011749">
				<ele>75</ele>
				<time>2015-05-07T07:22:00Z</time>
				<extensions>
				</extensions>
			</trkpt>
			<trkpt lat="-28.008420" lon="153.011595">
				<ele>74</ele>
				<time>2015-05-07T07:22:01Z</time>
				<extensions>
				</extensions>
			</trkpt>
			<trkpt lat="-28.008272" lon="153.011440">
				<ele>75</ele>
				<time>2015-05-07T07:22:02Z</time>
				<extensions>
				</extensions>
			</trkpt>
			<trkpt lat="-28.008114" lon="153.011299">
				<ele>75</ele>
				<time>2015-05-07T07:22:03Z</time>
				<extensions>
				</extensions>
			</trkpt>
			<trkpt lat="-28.007952" lon="153.011188">
				<ele>75</ele>
				<time>2015-05-07T07:22:04Z</time>
				<extensions>
				</extensions>
			</trkpt>
			<trkpt lat="-28.007781" lon="153.011105">
				<ele>75</ele>
				<time>2015-05-07T07:22:05Z</time>
				<extensions>
				</extensions>
			</trkpt>
			<trkpt lat="-28.007602" lon="153.011024">
				<ele>75</ele>
				<time>2015-05-07T07:22:06Z</time>
				<extensions>
				</extensions>
			</trkpt>
			<trkpt lat="-28.007423" lon="153.010940">
				<ele>75</ele>
				<time>2015-05-07T07:22:07Z</time>
				<extensions>
				</extensions>
			</trkpt>
			<trkpt lat="-28.007256" lon="153.010845">
				<ele>75</ele>
				<time>2015-05-07T07:22:08Z</time>
				<extensions>
				</extensions>
			</trkpt>
			<trkpt lat="-28.007075" lon="153.010735">
				<ele>76</ele>
				<time>2015-05-07T07:22:09Z</time>
				<extensions>
				</extensions>
			</trkpt>
			<trkpt lat="-28.006918" lon="153.010611">
				<ele>75</ele>
				<time>2015-05-07T07:22:10Z</time>
				<extensions>
				</extensions>
			</trkpt>
			<trkpt lat="-28.006790" lon="153.010453">
				<ele>75</ele>
				<time>2015-05-07T07:22:11Z</time>
				<extensions>
				</extensions>
			</trkpt>
			<trkpt lat="-28.006669" lon="153.010279">
				<ele>76</ele>
				<time>2015-05-07T07:22:12Z</time>
				<extensions>
				</extensions>
			</trkpt>
			<trkpt lat="-28.006552" lon="153.010109">
				<ele>76</ele>
				<time>2015-05-07T07:22:13Z</time>
				<extensions>
				</extensions>
			</trkpt>
			<trkpt lat="-28.006305" lon="153.009779">
				<ele>77</ele>
				<time>2015-05-07T07:22:15Z</time>
				<extensions>
				</extensions>
			</trkpt>
			<trkpt lat="-28.006166" lon="153.009623">
				<ele>78</ele>
				<time>2015-05-07T07:22:16Z</time>
				<extensions>
				</extensions>
			</trkpt>
			<trkpt lat="-28.005996" lon="153.009459">
				<ele>79</ele>
				<time>2015-05-07T07:22:17Z</time>
				<extensions>
				</extensions>
			</trkpt>
			<trkpt lat="-28.005822" lon="153.009302">
				<ele>79</ele>
				<time>2015-05-07T07:22:18Z</time>
				<extensions>
				</extensions>
			</trkpt>
			<trkpt lat="-28.005669" lon="153.009150">
				<ele>78</ele>
				<time>2015-05-07T07:22:19Z</time>
				<extensions>
				</extensions>
			</trkpt>
			<trkpt lat="-28.005493" lon="153.008998">
				<ele>80</ele>
				<time>2015-05-07T07:22:20Z</time>
				<extensions>
				</extensions>
			</trkpt>
			<trkpt lat="-28.005320" lon="153.008848">
				<ele>79</ele>
				<time>2015-05-07T07:22:21Z</time>
				<extensions>
				</extensions>
			</trkpt>
			<trkpt lat="-28.005147" lon="153.008686">
				<ele>79</ele>
				<time>2015-05-07T07:22:22Z</time>
				<extensions>
				</extensions>
			</trkpt>
			<trkpt lat="-28.004989" lon="153.008534">
				<ele>77</ele>
				<time>2015-05-07T07:22:23Z</time>
				<extensions>
				</extensions>
			</trkpt>
			<trkpt lat="-28.004841" lon="153.008392">
				<ele>76</ele>
				<time>2015-05-07T07:22:24Z</time>
				<extensions>
				</extensions>
			</trkpt>
			<trkpt lat="-28.004692" lon="153.008246">
				<ele>75</ele>
				<time>2015-05-07T07:22:25Z</time>
				<extensions>
				</extensions>
			</trkpt>
			<trkpt lat="-28.004538" lon="153.008095">
				<ele>75</ele>
				<time>2015-05-07T07:22:26Z</time>
				<extensions>
				</extensions>
			</trkpt>
			<trkpt lat="-28.004391" lon="153.007948">
				<ele>74</ele>
				<time>2015-05-07T07:22:27Z</time>
				<extensions>
				</extensions>
			</trkpt>
			<trkpt lat="-28.004239" lon="153.007797">
				<ele>74</ele>
				<time>2015-05-07T07:22:28Z</time>
				<extensions>
				</extensions>
			</trkpt>
			<trkpt lat="-28.004082" lon="153.007641">
				<ele>73</ele>
				<time>2015-05-07T07:22:29Z</time>
				<extensions>
				</extensions>
			</trkpt>
			<trkpt lat="-28.003937" lon="153.007488">
				<ele>74</ele>
				<time>2015-05-07T07:22:30Z</time>
				<extensions>
				</extensions>
			</trkpt>
			<trkpt lat="-28.003786" lon="153.007323">
				<ele>75</ele>
				<time>2015-05-07T07:22:31Z</time>
				<extensions>
				</extensions>
			</trkpt>
			<trkpt lat="-28.003643" lon="153.007162">
				<ele>72</ele>
				<time>2015-05-07T07:22:32Z</time>
				<extensions>
				</extensions>
			</trkpt>
			<trkpt lat="-28.003489" lon="153.006990">
				<ele>72</ele>
				<time>2015-05-07T07:22:33Z</time>
				<extensions>
				</extensions>
			</trkpt>
			<trkpt lat="-28.003341" lon="153.006836">
				<ele>71</ele>
				<time>2015-05-07T07:22:34Z</time>
				<extensions>
				</extensions>
			</trkpt>
			<trkpt lat="-28.003187" lon="153.006669">
				<ele>70</ele>
				<time>2015-05-07T07:22:35Z</time>
				<extensions>
				</extensions>
			</trkpt>
			<trkpt lat="-28.003035" lon="153.006502">
				<ele>70</ele>
				<time>2015-05-07T07:22:36Z</time>
				<extensions>
				</extensions>
			</trkpt>
			<trkpt lat="-28.002877" lon="153.006322">
				<ele>70</ele>
				<time>2015-05-07T07:22:37Z</time>
				<extensions>
				</extensions>
			</trkpt>
			<trkpt lat="-28.002733" lon="153.006157">
				<ele>68</ele>
				<time>2015-05-07T07:22:38Z</time>
				<extensions>
				</extensions>
			</trkpt>
			<trkpt lat="-28.002570" lon="153.005986">
				<ele>68</ele>
				<time>2015-05-07T07:22:39Z</time>
				<extensions>
				</extensions>
			</trkpt>
			<trkpt lat="-28.002428" lon="153.005824">
				<ele>68</ele>
				<time>2015-05-07T07:22:40Z</time>
				<extensions>
				</extensions>
			</trkpt>
			<trkpt lat="-28.002280" lon="153.005671">
				<ele>67</ele>
				<time>2015-05-07T07:22:41Z</time>
				<extensions>
				</extensions>
			</trkpt>
			<trkpt lat="-28.002134" lon="153.005511">
				<ele>67</ele>
				<time>2015-05-07T07:22:42Z</time>
				<extensions>
				</extensions>
			</trkpt>
			<trkpt lat="-28.001987" lon="153.005349">
				<ele>66</ele>
				<time>2015-05-07T07:22:43Z</time>
				<extensions>
				</extensions>
			</trkpt>
			<trkpt lat="-28.001842" lon="153.005186">
				<ele>66</ele>
				<time>2015-05-07T07:22:44Z</time>
				<extensions>
				</extensions>
			</trkpt>
			<trkpt lat="-28.001688" lon="153.005011">
				<ele>64</ele>
				<time>2015-05-07T07:22:45Z</time>
				<extensions>
				</extensions>
			</trkpt>
			<trkpt lat="-28.001541" lon="153.004841">
				<ele>63</ele>
				<time>2015-05-07T07:22:46Z</time>
				<extensions>
				</extensions>
			</trkpt>
			<trkpt lat="-28.001404" lon="153.004675">
				<ele>63</ele>
				<time>2015-05-07T07:22:47Z</time>
				<extensions>
				</extensions>
			</trkpt>
			<trkpt lat="-28.001270" lon="153.004506">
				<ele>63</ele>
				<time>2015-05-07T07:22:48Z</time>
				<extensions>
				</extensions>
			</trkpt>
			<trkpt lat="-28.001126" lon="153.004321">
				<ele>63</ele>
				<time>2015-05-07T07:22:49Z</time>
				<extensions>
				</extensions>
			</trkpt>
			<trkpt lat="-28.000986" lon="153.004141">
				<ele>64</ele>
				<time>2015-05-07T07:22:50Z</time>
				<extensions>
				</extensions>
			</trkpt>
			<trkpt lat="-28.000847" lon="153.003957">
				<ele>64</ele>
				<time>2015-05-07T07:22:51Z</time>
				<extensions>
				</extensions>
			</trkpt>
			<trkpt lat="-28.000715" lon="153.003781">
				<ele>64</ele>
				<time>2015-05-07T07:22:52Z</time>
				<extensions>
				</extensions>
			</trkpt>
			<trkpt lat="-28.000578" lon="153.003595">
				<ele>64</ele>
				<time>2015-05-07T07:22:53Z</time>
				<extensions>
				</extensions>
			</trkpt>
			<trkpt lat="-28.000444" lon="153.003419">
				<ele>64</ele>
				<time>2015-05-07T07:22:54Z</time>
				<extensions>
				</extensions>
			</trkpt>
			<trkpt lat="-28.000315" lon="153.003241">
				<ele>64</ele>
				<time>2015-05-07T07:22:55Z</time>
				<extensions>
				</extensions>
			</trkpt>
			<trkpt lat="-28.000190" lon="153.003076">
				<ele>62</ele>
				<time>2015-05-07T07:22:56Z</time>
				<extensions>
				</extensions>
			</trkpt>
			<trkpt lat="-28.000061" lon="153.002910">
				<ele>61</ele>
				<time>2015-05-07T07:22:57Z</time>
				<extensions>
				</extensions>
			</trkpt>
			<trkpt lat="-27.999929" lon="153.002734">
				<ele>60</ele>
				<time>2015-05-07T07:22:58Z</time>
				<extensions>
				</extensions>
			</trkpt>
			<trkpt lat="-27.999812" lon="153.002572">
				<ele>59</ele>
				<time>2015-05-07T07:22:59Z</time>
				<extensions>
				</extensions>
			</trkpt>
			<trkpt lat="-27.999693" lon="153.002413">
				<ele>58</ele>
				<time>2015-05-07T07:23:00Z</time>
				<extensions>
				</extensions>
			</trkpt>
			<trkpt lat="-27.999549" lon="153.002237">
				<ele>58</ele>
				<time>2015-05-07T07:23:01Z</time>
				<extensions>
				</extensions>
			</trkpt>
			<trkpt lat="-27.999420" lon="153.002070">
				<ele>57</ele>
				<time>2015-05-07T07:23:02Z</time>
				<extensions>
				</extensions>
			</trkpt>
			<trkpt lat="-27.999298" lon="153.001902">
				<ele>55</ele>
				<time>2015-05-07T07:23:03Z</time>
				<extensions>
				</extensions>
			</trkpt>
			<trkpt lat="-27.999102" lon="153.001632">
				<ele>49</ele>
				<time>2015-05-07T07:23:05Z</time>
				<extensions>
				</extensions>
			</trkpt>
			<trkpt lat="-27.998926" lon="153.001405">
				<ele>49</ele>
				<time>2015-05-07T07:23:07Z</time>
				<extensions>
				</extensions>
			</trkpt>
			<trkpt lat="-27.998733" lon="153.001162">
				<ele>49</ele>
				<time>2015-05-07T07:23:09Z</time>
				<extensions>
				</extensions>
			</trkpt>
			<trkpt lat="-27.998552" lon="153.000917">
				<ele>49</ele>
				<time>2015-05-07T07:23:11Z</time>
				<extensions>
				</extensions>
			</trkpt>
			<trkpt lat="-27.998370" lon="153.000673">
				<ele>49</ele>
				<time>2015-05-07T07:23:13Z</time>
				<extensions>
				</extensions>
			</trkpt>
			<trkpt lat="-27.998180" lon="153.000406">
				<ele>50</ele>
				<time>2015-05-07T07:23:15Z</time>
				<extensions>
				</extensions>
			</trkpt>
			<trkpt lat="-27.998040" lon="153.000170">
				<ele>50</ele>
				<time>2015-05-07T07:23:17Z</time>
				<extensions>
				</extensions>
			</trkpt>
			<trkpt lat="-27.997882" lon="152.999895">
				<ele>47</ele>
				<time>2015-05-07T07:23:19Z</time>
				<extensions>
				</extensions>
			</trkpt>
			<trkpt lat="-27.997731" lon="152.999618">
				<ele>46</ele>
				<time>2015-05-07T07:23:21Z</time>
				<extensions>
				</extensions>
			</trkpt>
			<trkpt lat="-27.997578" lon="152.999347">
				<ele>48</ele>
				<time>2015-05-07T07:23:23Z</time>
				<extensions>
				</extensions>
			</trkpt>
			<trkpt lat="-27.997418" lon="152.999055">
				<ele>49</ele>
				<time>2015-05-07T07:23:25Z</time>
				<extensions>
				</extensions>
			</trkpt>
			<trkpt lat="-27.997276" lon="152.998783">
				<ele>47</ele>
				<time>2015-05-07T07:23:27Z</time>
				<extensions>
				</extensions>
			</trkpt>
			<trkpt lat="-27.997118" lon="152.998496">
				<ele>46</ele>
				<time>2015-05-07T07:23:29Z</time>
				<extensions>
				</extensions>
			</trkpt>
			<trkpt lat="-27.996939" lon="152.998243">
				<ele>45</ele>
				<time>2015-05-07T07:23:31Z</time>
				<extensions>
				</extensions>
			</trkpt>
			<trkpt lat="-27.996720" lon="152.998027">
				<ele>43</ele>
				<time>2015-05-07T07:23:33Z</time>
				<extensions>
				</extensions>
			</trkpt>
			<trkpt lat="-27.996506" lon="152.997888">
				<ele>43</ele>
				<time>2015-05-07T07:23:35Z</time>
				<extensions>
				</extensions>
			</trkpt>
			<trkpt lat="-27.996213" lon="152.997727">
				<ele>43</ele>
				<time>2015-05-07T07:23:37Z</time>
				<extensions>
				</extensions>
			</trkpt>
			<trkpt lat="-27.995955" lon="152.997584">
				<ele>43</ele>
				<time>2015-05-07T07:23:39Z</time>
				<extensions>
				</extensions>
			</trkpt>
			<trkpt lat="-27.995689" lon="152.997413">
				<ele>43</ele>
				<time>2015-05-07T07:23:41Z</time>
				<extensions>
				</extensions>
			</trkpt>
			<trkpt lat="-27.995420" lon="152.997246">
				<ele>43</ele>
				<time>2015-05-07T07:23:43Z</time>
				<extensions>
				</extensions>
			</trkpt>
			<trkpt lat="-27.995169" lon="152.997102">
				<ele>42</ele>
				<time>2015-05-07T07:23:45Z</time>
				<extensions>
				</extensions>
			</trkpt>
			<trkpt lat="-27.994895" lon="152.996939">
				<ele>43</ele>
				<time>2015-05-07T07:23:47Z</time>
				<extensions>
				</extensions>
			</trkpt>
			<trkpt lat="-27.994636" lon="152.996784">
				<ele>43</ele>
				<time>2015-05-07T07:23:49Z</time>
				<extensions>
				</extensions>
			</trkpt>
			<trkpt lat="-27.994366" lon="152.996666">
				<ele>42</ele>
				<time>2015-05-07T07:23:51Z</time>
				<extensions>
				</extensions>
			</trkpt>
			<trkpt lat="-27.994094" lon="152.996584">
				<ele>43</ele>
				<time>2015-05-07T07:23:53Z</time>
				<extensions>
				</extensions>
			</trkpt>
			<trkpt lat="-27.993795" lon="152.996527">
				<ele>44</ele>
				<time>2015-05-07T07:23:55Z</time>
				<extensions>
				</extensions>
			</trkpt>
			<trkpt lat="-27.993464" lon="152.996467">
				<ele>45</ele>
				<time>2015-05-07T07:23:57Z</time>
				<extensions>
				</extensions>
			</trkpt>
			<trkpt lat="-27.993155" lon="152.996419">
				<ele>43</ele>
				<time>2015-05-07T07:23:59Z</time>
				<extensions>
				</extensions>
			</trkpt>
			<trkpt lat="-27.992869" lon="152.996388">
				<ele>43</ele>
				<time>2015-05-07T07:24:01Z</time>
				<extensions>
				</extensions>
			</trkpt>
			<trkpt lat="-27.992580" lon="152.996352">
				<ele>43</ele>
				<time>2015-05-07T07:24:03Z</time>
				<extensions>
				</extensions>
			</trkpt>
			<trkpt lat="-27.992294" lon="152.996318">
				<ele>42</ele>
				<time>2015-05-07T07:24:05Z</time>
				<extensions>
				</extensions>
			</trkpt>
			<trkpt lat="-27.991998" lon="152.996270">
				<ele>42</ele>
				<time>2015-05-07T07:24:07Z</time>
				<extensions>
				</extensions>
			</trkpt>
			<trkpt lat="-27.991703" lon="152.996231">
				<ele>42</ele>
				<time>2015-05-07T07:24:09Z</time>
				<extensions>
				</extensions>
			</trkpt>
			<trkpt lat="-27.991385" lon="152.996196">
				<ele>42</ele>
				<time>2015-05-07T07:24:11Z</time>
				<extensions>
				</extensions>
			</trkpt>
			<trkpt lat="-27.991103" lon="152.996159">
				<ele>41</ele>
				<time>2015-05-07T07:24:13Z</time>
				<extensions>
				</extensions>
			</trkpt>
			<trkpt lat="-27.990827" lon="152.996134">
				<ele>40</ele>
				<time>2015-05-07T07:24:15Z</time>
				<extensions>
				</extensions>
			</trkpt>
			<trkpt lat="-27.990555" lon="152.996114">
				<ele>41</ele>
				<time>2015-05-07T07:24:17Z</time>
				<extensions>
				</extensions>
			</trkpt>
			<trkpt lat="-27.990275" lon="152.996084">
				<ele>42</ele>
				<time>2015-05-07T07:24:19Z</time>
				<extensions>
				</extensions>
			</trkpt>
			<trkpt lat="-27.989978" lon="152.996043">
				<ele>43</ele>
				<time>2015-05-07T07:24:21Z</time>
				<extensions>
				</extensions>
			</trkpt>
			<trkpt lat="-27.989673" lon="152.996015">
				<ele>42</ele>
				<time>2015-05-07T07:24:23Z</time>
				<extensions>
				</extensions>
			</trkpt>
			<trkpt lat="-27.989377" lon="152.995984">
				<ele>41</ele>
				<time>2015-05-07T07:24:25Z</time>
				<extensions>
				</extensions>
			</trkpt>
			<trkpt lat="-27.989121" lon="152.995936">
				<ele>40</ele>
				<time>2015-05-07T07:24:27Z</time>
				<extensions>
				</extensions>
			</trkpt>
			<trkpt lat="-27.988899" lon="152.995890">
				<ele>38</ele>
				<time>2015-05-07T07:24:29Z</time>
				<extensions>
				</extensions>
			</trkpt>
			<trkpt lat="-27.988708" lon="152.995867">
				<ele>35</ele>
				<time>2015-05-07T07:24:33Z</time>
				<extensions>
				</extensions>
			</trkpt>
			<trkpt lat="-27.988527" lon="152.995820">
				<ele>34</ele>
				<time>2015-05-07T07:24:38Z</time>
				<extensions>
				</extensions>
			</trkpt>
			<trkpt lat="-27.988230" lon="152.995790">
				<ele>44</ele>
				<time>2015-05-07T07:26:17Z</time>
				<extensions>
				</extensions>
			</trkpt>
			<trkpt lat="-27.988010" lon="152.995761">
				<ele>46</ele>
				<time>2015-05-07T07:26:19Z</time>
				<extensions>
				</extensions>
			</trkpt>
			<trkpt lat="-27.987751" lon="152.995753">
				<ele>48</ele>
				<time>2015-05-07T07:26:21Z</time>
				<extensions>
				</extensions>
			</trkpt>
			<trkpt lat="-27.987459" lon="152.995736">
				<ele>48</ele>
				<time>2015-05-07T07:26:23Z</time>
				<extensions>
				</extensions>
			</trkpt>
			<trkpt lat="-27.987179" lon="152.995698">
				<ele>49</ele>
				<time>2015-05-07T07:26:25Z</time>
				<extensions>
				</extensions>
			</trkpt>
			<trkpt lat="-27.986863" lon="152.995659">
				<ele>50</ele>
				<time>2015-05-07T07:26:27Z</time>
				<extensions>
				</extensions>
			</trkpt>
			<trkpt lat="-27.986581" lon="152.995635">
				<ele>50</ele>
				<time>2015-05-07T07:26:29Z</time>
				<extensions>
				</extensions>
			</trkpt>
			<trkpt lat="-27.986297" lon="152.995607">
				<ele>50</ele>
				<time>2015-05-07T07:26:31Z</time>
				<extensions>
				</extensions>
			</trkpt>
			<trkpt lat="-27.985946" lon="152.995582">
				<ele>51</ele>
				<time>2015-05-07T07:26:33Z</time>
				<extensions>
				</extensions>
			</trkpt>
			<trkpt lat="-27.985685" lon="152.995530">
				<ele>51</ele>
				<time>2015-05-07T07:26:35Z</time>
				<extensions>
				</extensions>
			</trkpt>
			<trkpt lat="-27.985453" lon="152.995499">
				<ele>47</ele>
				<time>2015-05-07T07:26:37Z</time>
				<extensions>
				</extensions>
			</trkpt>
			<trkpt lat="-27.985182" lon="152.995470">
				<ele>47</ele>
				<time>2015-05-07T07:26:40Z</time>
				<extensions>
				</extensions>
			</trkpt>
			<trkpt lat="-27.984947" lon="152.995444">
				<ele>49</ele>
				<time>2015-05-07T07:26:42Z</time>
				<extensions>
				</extensions>
			</trkpt>
			<trkpt lat="-27.984693" lon="152.995418">
				<ele>50</ele>
				<time>2015-05-07T07:26:44Z</time>
				<extensions>
				</extensions>
			</trkpt>
			<trkpt lat="-27.984434" lon="152.995383">
				<ele>49</ele>
				<time>2015-05-07T07:26:46Z</time>
				<extensions>
				</extensions>
			</trkpt>
			<trkpt lat="-27.984163" lon="152.995345">
				<ele>50</ele>
				<time>2015-05-07T07:26:48Z</time>
				<extensions>
				</extensions>
			</trkpt>
			<trkpt lat="-27.983893" lon="152.995293">
				<ele>49</ele>
				<time>2015-05-07T07:26:50Z</time>
				<extensions>
				</extensions>
			</trkpt>
			<trkpt lat="-27.983616" lon="152.995244">
				<ele>49</ele>
				<time>2015-05-07T07:26:52Z</time>
				<extensions>
				</extensions>
			</trkpt>
			<trkpt lat="-27.983349" lon="152.995197">
				<ele>48</ele>
				<time>2015-05-07T07:26:54Z</time>
				<extensions>
				</extensions>
			</trkpt>
			<trkpt lat="-27.983077" lon="152.995145">
				<ele>48</ele>
				<time>2015-05-07T07:26:56Z</time>
				<extensions>
				</extensions>
			</trkpt>
			<trkpt lat="-27.982788" lon="152.995081">
				<ele>50</ele>
				<time>2015-05-07T07:26:58Z</time>
				<extensions>
				</extensions>
			</trkpt>
			<trkpt lat="-27.982487" lon="152.995010">
				<ele>48</ele>
				<time>2015-05-07T07:27:00Z</time>
				<extensions>
				</extensions>
			</trkpt>
			<trkpt lat="-27.982198" lon="152.994943">
				<ele>49</ele>
				<time>2015-05-07T07:27:02Z</time>
				<extensions>
				</extensions>
			</trkpt>
			<trkpt lat="-27.981908" lon="152.994878">
				<ele>47</ele>
				<time>2015-05-07T07:27:04Z</time>
				<extensions>
				</extensions>
			</trkpt>
			<trkpt lat="-27.981627" lon="152.994825">
				<ele>48</ele>
				<time>2015-05-07T07:27:06Z</time>
				<extensions>
				</extensions>
			</trkpt>
			<trkpt lat="-27.981334" lon="152.994773">
				<ele>50</ele>
				<time>2015-05-07T07:27:08Z</time>
				<extensions>
				</extensions>
			</trkpt>
			<trkpt lat="-27.981023" lon="152.994714">
				<ele>50</ele>
				<time>2015-05-07T07:27:10Z</time>
				<extensions>
				</extensions>
			</trkpt>
			<trkpt lat="-27.980723" lon="152.994638">
				<ele>52</ele>
				<time>2015-05-07T07:27:12Z</time>
				<extensions>
				</extensions>
			</trkpt>
			<trkpt lat="-27.980428" lon="152.994534">
				<ele>53</ele>
				<time>2015-05-07T07:27:14Z</time>
				<extensions>
				</extensions>
			</trkpt>
			<trkpt lat="-27.980138" lon="152.994415">
				<ele>53</ele>
				<time>2015-05-07T07:27:16Z</time>
				<extensions>
				</extensions>
			</trkpt>
			<trkpt lat="-27.979859" lon="152.994288">
				<ele>53</ele>
				<time>2015-05-07T07:27:18Z</time>
				<extensions>
				</extensions>
			</trkpt>
			<trkpt lat="-27.979574" lon="152.994148">
				<ele>54</ele>
				<time>2015-05-07T07:27:20Z</time>
				<extensions>
				</extensions>
			</trkpt>
			<trkpt lat="-27.979296" lon="152.994015">
				<ele>55</ele>
				<time>2015-05-07T07:27:22Z</time>
				<extensions>
				</extensions>
			</trkpt>
			<trkpt lat="-27.979019" lon="152.993888">
				<ele>54</ele>
				<time>2015-05-07T07:27:24Z</time>
				<extensions>
				</extensions>
			</trkpt>
			<trkpt lat="-27.978745" lon="152.993780">
				<ele>53</ele>
				<time>2015-05-07T07:27:26Z</time>
				<extensions>
				</extensions>
			</trkpt>
			<trkpt lat="-27.978455" lon="152.993696">
				<ele>53</ele>
				<time>2015-05-07T07:27:28Z</time>
				<extensions>
				</extensions>
			</trkpt>
			<trkpt lat="-27.978163" lon="152.993633">
				<ele>53</ele>
				<time>2015-05-07T07:27:30Z</time>
				<extensions>
				</extensions>
			</trkpt>
			<trkpt lat="-27.977861" lon="152.993578">
				<ele>54</ele>
				<time>2015-05-07T07:27:32Z</time>
				<extensions>
				</extensions>
			</trkpt>
			<trkpt lat="-27.977545" lon="152.993559">
				<ele>53</ele>
				<time>2015-05-07T07:27:34Z</time>
				<extensions>
				</extensions>
			</trkpt>
			<trkpt lat="-27.977230" lon="152.993602">
				<ele>53</ele>
				<time>2015-05-07T07:27:36Z</time>
				<extensions>
				</extensions>
			</trkpt>
			<trkpt lat="-27.976936" lon="152.993701">
				<ele>53</ele>
				<time>2015-05-07T07:27:38Z</time>
				<extensions>
				</extensions>
			</trkpt>
			<trkpt lat="-27.976629" lon="152.993807">
				<ele>53</ele>
				<time>2015-05-07T07:27:40Z</time>
				<extensions>
				</extensions>
			</trkpt>
			<trkpt lat="-27.976335" lon="152.993919">
				<ele>54</ele>
				<time>2015-05-07T07:27:42Z</time>
				<extensions>
				</extensions>
			</trkpt>
			<trkpt lat="-27.976045" lon="152.994031">
				<ele>53</ele>
				<time>2015-05-07T07:27:44Z</time>
				<extensions>
				</extensions>
			</trkpt>
			<trkpt lat="-27.975756" lon="152.994137">
				<ele>55</ele>
				<time>2015-05-07T07:27:46Z</time>
				<extensions>
				</extensions>
			</trkpt>
			<trkpt lat="-27.975458" lon="152.994246">
				<ele>55</ele>
				<time>2015-05-07T07:27:48Z</time>
				<extensions>
				</extensions>
			</trkpt>
			<trkpt lat="-27.975170" lon="152.994351">
				<ele>55</ele>
				<time>2015-05-07T07:27:50Z</time>
				<extensions>
				</extensions>
			</trkpt>
			<trkpt lat="-27.974887" lon="152.994458">
				<ele>56</ele>
				<time>2015-05-07T07:27:52Z</time>
				<extensions>
				</extensions>
			</trkpt>
			<trkpt lat="-27.974610" lon="152.994564">
				<ele>56</ele>
				<time>2015-05-07T07:27:54Z</time>
				<extensions>
				</extensions>
			</trkpt>
			<trkpt lat="-27.974328" lon="152.994670">
				<ele>56</ele>
				<time>2015-05-07T07:27:56Z</time>
				<extensions>
				</extensions>
			</trkpt>
			<trkpt lat="-27.974056" lon="152.994772">
				<ele>56</ele>
				<time>2015-05-07T07:27:58Z</time>
				<extensions>
				</extensions>
			</trkpt>
			<trkpt lat="-27.973795" lon="152.994875">
				<ele>56</ele>
				<time>2015-05-07T07:28:00Z</time>
				<extensions>
				</extensions>
			</trkpt>
			<trkpt lat="-27.973535" lon="152.995003">
				<ele>57</ele>
				<time>2015-05-07T07:28:02Z</time>
				<extensions>
				</extensions>
			</trkpt>
			<trkpt lat="-27.973275" lon="152.995178">
				<ele>58</ele>
				<time>2015-05-07T07:28:04Z</time>
				<extensions>
				</extensions>
			</trkpt>
			<trkpt lat="-27.973032" lon="152.995375">
				<ele>59</ele>
				<time>2015-05-07T07:28:06Z</time>
				<extensions>
				</extensions>
			</trkpt>
			<trkpt lat="-27.972798" lon="152.995569">
				<ele>59</ele>
				<time>2015-05-07T07:28:08Z</time>
				<extensions>
				</extensions>
			</trkpt>
			<trkpt lat="-27.972579" lon="152.995760">
				<ele>60</ele>
				<time>2015-05-07T07:28:10Z</time>
				<extensions>
				</extensions>
			</trkpt>
			<trkpt lat="-27.972348" lon="152.995953">
				<ele>61</ele>
				<time>2015-05-07T07:28:12Z</time>
				<extensions>
				</extensions>
			</trkpt>
			<trkpt lat="-27.972115" lon="152.996112">
				<ele>62</ele>
				<time>2015-05-07T07:28:14Z</time>
				<extensions>
				</extensions>
			</trkpt>
			<trkpt lat="-27.971854" lon="152.996250">
				<ele>63</ele>
				<time>2015-05-07T07:28:16Z</time>
				<extensions>
				</extensions>
			</trkpt>
			<trkpt lat="-27.971584" lon="152.996358">
				<ele>63</ele>
				<time>2015-05-07T07:28:18Z</time>
				<extensions>
				</extensions>
			</trkpt>
			<trkpt lat="-27.971263" lon="152.996442">
				<ele>65</ele>
				<time>2015-05-07T07:28:20Z</time>
				<extensions>
				</extensions>
			</trkpt>
			<trkpt lat="-27.970953" lon="152.996508">
				<ele>65</ele>
				<time>2015-05-07T07:28:22Z</time>
				<extensions>
				</extensions>
			</trkpt>
			<trkpt lat="-27.970662" lon="152.996566">
				<ele>66</ele>
				<time>2015-05-07T07:28:24Z</time>
				<extensions>
				</extensions>
			</trkpt>
			<trkpt lat="-27.970371" lon="152.996610">
				<ele>66</ele>
				<time>2015-05-07T07:28:26Z</time>
				<extensions>
				</extensions>
			</trkpt>
			<trkpt lat="-27.970098" lon="152.996628">
				<ele>65</ele>
				<time>2015-05-07T07:28:28Z</time>
				<extensions>
				</extensions>
			</trkpt>
			<trkpt lat="-27.969832" lon="152.996619">
				<ele>65</ele>
				<time>2015-05-07T07:28:30Z</time>
				<extensions>
				</extensions>
			</trkpt>
			<trkpt lat="-27.969561" lon="152.996587">
				<ele>66</ele>
				<time>2015-05-07T07:28:32Z</time>
				<extensions>
				</extensions>
			</trkpt>
			<trkpt lat="-27.969270" lon="152.996537">
				<ele>67</ele>
				<time>2015-05-07T07:28:34Z</time>
				<extensions>
				</extensions>
			</trkpt>
			<trkpt lat="-27.968989" lon="152.996486">
				<ele>66</ele>
				<time>2015-05-07T07:28:36Z</time>
				<extensions>
				</extensions>
			</trkpt>
			<trkpt lat="-27.968698" lon="152.996439">
				<ele>65</ele>
				<time>2015-05-07T07:28:38Z</time>
				<extensions>
				</extensions>
			</trkpt>
			<trkpt lat="-27.968394" lon="152.996387">
				<ele>66</ele>
				<time>2015-05-07T07:28:40Z</time>
				<extensions>
				</extensions>
			</trkpt>
			<trkpt lat="-27.968068" lon="152.996335">
				<ele>66</ele>
				<time>2015-05-07T07:28:42Z</time>
				<extensions>
				</extensions>
			</trkpt>
			<trkpt lat="-27.967746" lon="152.996280">
				<ele>67</ele>
				<time>2015-05-07T07:28:44Z</time>
				<extensions>
				</extensions>
			</trkpt>
			<trkpt lat="-27.967436" lon="152.996227">
				<ele>66</ele>
				<time>2015-05-07T07:28:46Z</time>
				<extensions>
				</extensions>
			</trkpt>
			<trkpt lat="-27.967127" lon="152.996175">
				<ele>66</ele>
				<time>2015-05-07T07:28:48Z</time>
				<extensions>
				</extensions>
			</trkpt>
			<trkpt lat="-27.966814" lon="152.996123">
				<ele>65</ele>
				<time>2015-05-07T07:28:50Z</time>
				<extensions>
				</extensions>
			</trkpt>
			<trkpt lat="-27.966498" lon="152.996074">
				<ele>65</ele>
				<time>2015-05-07T07:28:52Z</time>
				<extensions>
				</extensions>
			</trkpt>
			<trkpt lat="-27.966155" lon="152.996014">
				<ele>65</ele>
				<time>2015-05-07T07:28:54Z</time>
				<extensions>
				</extensions>
			</trkpt>
			<trkpt lat="-27.965973" lon="152.995983">
				<ele>66</ele>
				<time>2015-05-07T07:28:55Z</time>
				<extensions>
				</extensions>
			</trkpt>
			<trkpt lat="-27.965784" lon="152.995951">
				<ele>65</ele>
				<time>2015-05-07T07:28:56Z</time>
				<extensions>
				</extensions>
			</trkpt>
			<trkpt lat="-27.965593" lon="152.995920">
				<ele>65</ele>
				<time>2015-05-07T07:28:57Z</time>
				<extensions>
				</extensions>
			</trkpt>
			<trkpt lat="-27.965409" lon="152.995888">
				<ele>64</ele>
				<time>2015-05-07T07:28:58Z</time>
				<extensions>
				</extensions>
			</trkpt>
			<trkpt lat="-27.965215" lon="152.995858">
				<ele>62</ele>
				<time>2015-05-07T07:28:59Z</time>
				<extensions>
				</extensions>
			</trkpt>
			<trkpt lat="-27.965019" lon="152.995825">
				<ele>61</ele>
				<time>2015-05-07T07:29:00Z</time>
				<extensions>
				</extensions>
			</trkpt>
			<trkpt lat="-27.964827" lon="152.995794">
				<ele>61</ele>
				<time>2015-05-07T07:29:01Z</time>
				<extensions>
				</extensions>
			</trkpt>
			<trkpt lat="-27.964634" lon="152.995759">
				<ele>59</ele>
				<time>2015-05-07T07:29:02Z</time>
				<extensions>
				</extensions>
			</trkpt>
			<trkpt lat="-27.964430" lon="152.995725">
				<ele>58</ele>
				<time>2015-05-07T07:29:03Z</time>
				<extensions>
				</extensions>
			</trkpt>
			<trkpt lat="-27.964228" lon="152.995691">
				<ele>57</ele>
				<time>2015-05-07T07:29:04Z</time>
				<extensions>
				</extensions>
			</trkpt>
			<trkpt lat="-27.964032" lon="152.995654">
				<ele>57</ele>
				<time>2015-05-07T07:29:05Z</time>
				<extensions>
				</extensions>
			</trkpt>
			<trkpt lat="-27.963827" lon="152.995612">
				<ele>56</ele>
				<time>2015-05-07T07:29:06Z</time>
				<extensions>
				</extensions>
			</trkpt>
			<trkpt lat="-27.963618" lon="152.995569">
				<ele>55</ele>
				<time>2015-05-07T07:29:07Z</time>
				<extensions>
				</extensions>
			</trkpt>
			<trkpt lat="-27.963426" lon="152.995523">
				<ele>54</ele>
				<time>2015-05-07T07:29:08Z</time>
				<extensions>
				</extensions>
			</trkpt>
			<trkpt lat="-27.963222" lon="152.995465">
				<ele>54</ele>
				<time>2015-05-07T07:29:09Z</time>
				<extensions>
				</extensions>
			</trkpt>
			<trkpt lat="-27.963005" lon="152.995394">
				<ele>54</ele>
				<time>2015-05-07T07:29:10Z</time>
				<extensions>
				</extensions>
			</trkpt>
			<trkpt lat="-27.962804" lon="152.995325">
				<ele>55</ele>
				<time>2015-05-07T07:29:11Z</time>
				<extensions>
				</extensions>
			</trkpt>
			<trkpt lat="-27.962600" lon="152.995251">
				<ele>56</ele>
				<time>2015-05-07T07:29:12Z</time>
				<extensions>
				</extensions>
			</trkpt>
			<trkpt lat="-27.962402" lon="152.995173">
				<ele>57</ele>
				<time>2015-05-07T07:29:13Z</time>
				<extensions>
				</extensions>
			</trkpt>
			<trkpt lat="-27.962201" lon="152.995084">
				<ele>56</ele>
				<time>2015-05-07T07:29:14Z</time>
				<extensions>
				</extensions>
			</trkpt>
			<trkpt lat="-27.962003" lon="152.994988">
				<ele>57</ele>
				<time>2015-05-07T07:29:15Z</time>
				<extensions>
				</extensions>
			</trkpt>
			<trkpt lat="-27.961814" lon="152.994889">
				<ele>57</ele>
				<time>2015-05-07T07:29:16Z</time>
				<extensions>
				</extensions>
			</trkpt>
			<trkpt lat="-27.961620" lon="152.994780">
				<ele>58</ele>
				<time>2015-05-07T07:29:17Z</time>
				<extensions>
				</extensions>
			</trkpt>
			<trkpt lat="-27.961436" lon="152.994667">
				<ele>58</ele>
				<time>2015-05-07T07:29:18Z</time>
				<extensions>
				</extensions>
			</trkpt>
			<trkpt lat="-27.961255" lon="152.994549">
				<ele>59</ele>
				<time>2015-05-07T07:29:19Z</time>
				<extensions>
				</extensions>
			</trkpt>
			<trkpt lat="-27.961077" lon="152.994424">
				<ele>59</ele>
				<time>2015-05-07T07:29:20Z</time>
				<extensions>
				</extensions>
			</trkpt>
			<trkpt lat="-27.960905" lon="152.994296">
				<ele>60</ele>
				<time>2015-05-07T07:29:21Z</time>
				<extensions>
				</extensions>
			</trkpt>
			<trkpt lat="-27.960730" lon="152.994160">
				<ele>61</ele>
				<time>2015-05-07T07:29:22Z</time>
				<extensions>
				</extensions>
			</trkpt>
			<trkpt lat="-27.960546" lon="152.994005">
				<ele>61</ele>
				<time>2015-05-07T07:29:23Z</time>
				<extensions>
				</extensions>
			</trkpt>
			<trkpt lat="-27.960383" lon="152.993862">
				<ele>61</ele>
				<time>2015-05-07T07:29:24Z</time>
				<extensions>
				</extensions>
			</trkpt>
			<trkpt lat="-27.960241" lon="152.993726">
				<ele>60</ele>
				<time>2015-05-07T07:29:25Z</time>
				<extensions>
				</extensions>
			</trkpt>
			<trkpt lat="-27.960098" lon="152.993580">
				<ele>60</ele>
				<time>2015-05-07T07:29:26Z</time>
				<extensions>
				</extensions>
			</trkpt>
			<trkpt lat="-27.959965" lon="152.993430">
				<ele>60</ele>
				<time>2015-05-07T07:29:27Z</time>
				<extensions>
				</extensions>
			</trkpt>
			<trkpt lat="-27.959835" lon="152.993274">
				<ele>59</ele>
				<time>2015-05-07T07:29:28Z</time>
				<extensions>
				</extensions>
			</trkpt>
			<trkpt lat="-27.959704" lon="152.993120">
				<ele>59</ele>
				<time>2015-05-07T07:29:29Z</time>
				<extensions>
				</extensions>
			</trkpt>
			<trkpt lat="-27.959579" lon="152.992967">
				<ele>59</ele>
				<time>2015-05-07T07:29:30Z</time>
				<extensions>
				</extensions>
			</trkpt>
			<trkpt lat="-27.959438" lon="152.992804">
				<ele>59</ele>
				<time>2015-05-07T07:29:31Z</time>
				<extensions>
				</extensions>
			</trkpt>
			<trkpt lat="-27.959306" lon="152.992655">
				<ele>59</ele>
				<time>2015-05-07T07:29:32Z</time>
				<extensions>
				</extensions>
			</trkpt>
			<trkpt lat="-27.959178" lon="152.992502">
				<ele>58</ele>
				<time>2015-05-07T07:29:33Z</time>
				<extensions>
				</extensions>
			</trkpt>
			<trkpt lat="-27.959048" lon="152.992348">
				<ele>58</ele>
				<time>2015-05-07T07:29:34Z</time>
				<extensions>
				</extensions>
			</trkpt>
			<trkpt lat="-27.958919" lon="152.992194">
				<ele>58</ele>
				<time>2015-05-07T07:29:35Z</time>
				<extensions>
				</extensions>
			</trkpt>
			<trkpt lat="-27.958792" lon="152.992042">
				<ele>59</ele>
				<time>2015-05-07T07:29:36Z</time>
				<extensions>
				</extensions>
			</trkpt>
			<trkpt lat="-27.958659" lon="152.991888">
				<ele>58</ele>
				<time>2015-05-07T07:29:37Z</time>
				<extensions>
				</extensions>
			</trkpt>
			<trkpt lat="-27.958526" lon="152.991737">
				<ele>58</ele>
				<time>2015-05-07T07:29:38Z</time>
				<extensions>
				</extensions>
			</trkpt>
			<trkpt lat="-27.958386" lon="152.991577">
				<ele>58</ele>
				<time>2015-05-07T07:29:39Z</time>
				<extensions>
				</extensions>
			</trkpt>
			<trkpt lat="-27.958249" lon="152.991423">
				<ele>58</ele>
				<time>2015-05-07T07:29:40Z</time>
				<extensions>
				</extensions>
			</trkpt>
			<trkpt lat="-27.958119" lon="152.991275">
				<ele>58</ele>
				<time>2015-05-07T07:29:41Z</time>
				<extensions>
				</extensions>
			</trkpt>
			<trkpt lat="-27.957991" lon="152.991131">
				<ele>57</ele>
				<time>2015-05-07T07:29:42Z</time>
				<extensions>
				</extensions>
			</trkpt>
			<trkpt lat="-27.957863" lon="152.990982">
				<ele>57</ele>
				<time>2015-05-07T07:29:43Z</time>
				<extensions>
				</extensions>
			</trkpt>
			<trkpt lat="-27.957734" lon="152.990830">
				<ele>57</ele>
				<time>2015-05-07T07:29:44Z</time>
				<extensions>
				</extensions>
			</trkpt>
			<trkpt lat="-27.957605" lon="152.990680">
				<ele>57</ele>
				<time>2015-05-07T07:29:45Z</time>
				<extensions>
				</extensions>
			</trkpt>
			<trkpt lat="-27.957475" lon="152.990531">
				<ele>58</ele>
				<time>2015-05-07T07:29:46Z</time>
				<extensions>
				</extensions>
			</trkpt>
			<trkpt lat="-27.957335" lon="152.990372">
				<ele>58</ele>
				<time>2015-05-07T07:29:47Z</time>
				<extensions>
				</extensions>
			</trkpt>
			<trkpt lat="-27.957203" lon="152.990214">
				<ele>58</ele>
				<time>2015-05-07T07:29:48Z</time>
				<extensions>
				</extensions>
			</trkpt>
			<trkpt lat="-27.957066" lon="152.990053">
				<ele>59</ele>
				<time>2015-05-07T07:29:49Z</time>
				<extensions>
				</extensions>
			</trkpt>
			<trkpt lat="-27.956922" lon="152.989883">
				<ele>58</ele>
				<time>2015-05-07T07:29:50Z</time>
				<extensions>
				</extensions>
			</trkpt>
			<trkpt lat="-27.956788" lon="152.989723">
				<ele>58</ele>
				<time>2015-05-07T07:29:51Z</time>
				<extensions>
				</extensions>
			</trkpt>
			<trkpt lat="-27.956649" lon="152.989560">
				<ele>57</ele>
				<time>2015-05-07T07:29:52Z</time>
				<extensions>
				</extensions>
			</trkpt>
			<trkpt lat="-27.956516" lon="152.989402">
				<ele>56</ele>
				<time>2015-05-07T07:29:53Z</time>
				<extensions>
				</extensions>
			</trkpt>
			<trkpt lat="-27.956373" lon="152.989236">
				<ele>57</ele>
				<time>2015-05-07T07:29:54Z</time>
				<extensions>
				</extensions>
			</trkpt>
			<trkpt lat="-27.956232" lon="152.989071">
				<ele>57</ele>
				<time>2015-05-07T07:29:55Z</time>
				<extensions>
				</extensions>
			</trkpt>
			<trkpt lat="-27.956090" lon="152.988906">
				<ele>56</ele>
				<time>2015-05-07T07:29:56Z</time>
				<extensions>
				</extensions>
			</trkpt>
			<trkpt lat="-27.955950" lon="152.988745">
				<ele>54</ele>
				<time>2015-05-07T07:29:57Z</time>
				<extensions>
				</extensions>
			</trkpt>
			<trkpt lat="-27.955803" lon="152.988572">
				<ele>54</ele>
				<time>2015-05-07T07:29:58Z</time>
				<extensions>
				</extensions>
			</trkpt>
			<trkpt lat="-27.955669" lon="152.988411">
				<ele>53</ele>
				<time>2015-05-07T07:29:59Z</time>
				<extensions>
				</extensions>
			</trkpt>
			<trkpt lat="-27.955531" lon="152.988246">
				<ele>52</ele>
				<time>2015-05-07T07:30:00Z</time>
				<extensions>
				</extensions>
			</trkpt>
			<trkpt lat="-27.955397" lon="152.988083">
				<ele>50</ele>
				<time>2015-05-07T07:30:01Z</time>
				<extensions>
				</extensions>
			</trkpt>
			<trkpt lat="-27.955258" lon="152.987922">
				<ele>50</ele>
				<time>2015-05-07T07:30:02Z</time>
				<extensions>
				</extensions>
			</trkpt>
			<trkpt lat="-27.955116" lon="152.987757">
				<ele>49</ele>
				<time>2015-05-07T07:30:03Z</time>
				<extensions>
				</extensions>
			</trkpt>
			<trkpt lat="-27.954976" lon="152.987593">
				<ele>49</ele>
				<time>2015-05-07T07:30:04Z</time>
				<extensions>
				</extensions>
			</trkpt>
			<trkpt lat="-27.954843" lon="152.987434">
				<ele>48</ele>
				<time>2015-05-07T07:30:05Z</time>
				<extensions>
				</extensions>
			</trkpt>
			<trkpt lat="-27.954688" lon="152.987264">
				<ele>47</ele>
				<time>2015-05-07T07:30:06Z</time>
				<extensions>
				</extensions>
			</trkpt>
			<trkpt lat="-27.954547" lon="152.987113">
				<ele>47</ele>
				<time>2015-05-07T07:30:07Z</time>
				<extensions>
				</extensions>
			</trkpt>
			<trkpt lat="-27.954391" lon="152.986962">
				<ele>46</ele>
				<time>2015-05-07T07:30:08Z</time>
				<extensions>
				</extensions>
			</trkpt>
			<trkpt lat="-27.954235" lon="152.986818">
				<ele>47</ele>
				<time>2015-05-07T07:30:09Z</time>
				<extensions>
				</extensions>
			</trkpt>
			<trkpt lat="-27.954080" lon="152.986684">
				<ele>47</ele>
				<time>2015-05-07T07:30:10Z</time>
				<extensions>
				</extensions>
			</trkpt>
			<trkpt lat="-27.953916" lon="152.986547">
				<ele>46</ele>
				<time>2015-05-07T07:30:11Z</time>
				<extensions>
				</extensions>
			</trkpt>
			<trkpt lat="-27.953760" lon="152.986423">
				<ele>46</ele>
				<time>2015-05-07T07:30:12Z</time>
				<extensions>
				</extensions>
			</trkpt>
			<trkpt lat="-27.953601" lon="152.986306">
				<ele>44</ele>
				<time>2015-05-07T07:30:13Z</time>
				<extensions>
				</extensions>
			</trkpt>
			<trkpt lat="-27.953432" lon="152.986191">
				<ele>44</ele>
				<time>2015-05-07T07:30:14Z</time>
				<extensions>
				</extensions>
			</trkpt>
			<trkpt lat="-27.953269" lon="152.986085">
				<ele>45</ele>
				<time>2015-05-07T07:30:15Z</time>
				<extensions>
				</extensions>
			</trkpt>
			<trkpt lat="-27.953100" lon="152.985981">
				<ele>44</ele>
				<time>2015-05-07T07:30:16Z</time>
				<extensions>
				</extensions>
			</trkpt>
			<trkpt lat="-27.952936" lon="152.985889">
				<ele>45</ele>
				<time>2015-05-07T07:30:17Z</time>
				<extensions>
				</extensions>
			</trkpt>
			<trkpt lat="-27.952765" lon="152.985795">
				<ele>45</ele>
				<time>2015-05-07T07:30:18Z</time>
				<extensions>
				</extensions>
			</trkpt>
			<trkpt lat="-27.952597" lon="152.985705">
				<ele>44</ele>
				<time>2015-05-07T07:30:19Z</time>
				<extensions>
				</extensions>
			</trkpt>
			<trkpt lat="-27.952428" lon="152.985624">
				<ele>45</ele>
				<time>2015-05-07T07:30:20Z</time>
				<extensions>
				</extensions>
			</trkpt>
			<trkpt lat="-27.952088" lon="152.985484">
				<ele>46</ele>
				<time>2015-05-07T07:30:22Z</time>
				<extensions>
				</extensions>
			</trkpt>
			<trkpt lat="-27.951909" lon="152.985420">
				<ele>47</ele>
				<time>2015-05-07T07:30:23Z</time>
				<extensions>
				</extensions>
			</trkpt>
			<trkpt lat="-27.951724" lon="152.985362">
				<ele>48</ele>
				<time>2015-05-07T07:30:24Z</time>
				<extensions>
				</extensions>
			</trkpt>
			<trkpt lat="-27.951537" lon="152.985310">
				<ele>48</ele>
				<time>2015-05-07T07:30:25Z</time>
				<extensions>
				</extensions>
			</trkpt>
			<trkpt lat="-27.951357" lon="152.985266">
				<ele>49</ele>
				<time>2015-05-07T07:30:26Z</time>
				<extensions>
				</extensions>
			</trkpt>
			<trkpt lat="-27.951170" lon="152.985223">
				<ele>50</ele>
				<time>2015-05-07T07:30:27Z</time>
				<extensions>
				</extensions>
			</trkpt>
			<trkpt lat="-27.950986" lon="152.985182">
				<ele>51</ele>
				<time>2015-05-07T07:30:28Z</time>
				<extensions>
				</extensions>
			</trkpt>
			<trkpt lat="-27.950803" lon="152.985140">
				<ele>51</ele>
				<time>2015-05-07T07:30:29Z</time>
				<extensions>
				</extensions>
			</trkpt>
			<trkpt lat="-27.950615" lon="152.985098">
				<ele>52</ele>
				<time>2015-05-07T07:30:30Z</time>
				<extensions>
				</extensions>
			</trkpt>
			<trkpt lat="-27.950434" lon="152.985057">
				<ele>52</ele>
				<time>2015-05-07T07:30:31Z</time>
				<extensions>
				</extensions>
			</trkpt>
			<trkpt lat="-27.950252" lon="152.985016">
				<ele>52</ele>
				<time>2015-05-07T07:30:32Z</time>
				<extensions>
				</extensions>
			</trkpt>
			<trkpt lat="-27.950068" lon="152.984977">
				<ele>52</ele>
				<time>2015-05-07T07:30:33Z</time>
				<extensions>
				</extensions>
			</trkpt>
			<trkpt lat="-27.949706" lon="152.984910">
				<ele>54</ele>
				<time>2015-05-07T07:30:35Z</time>
				<extensions>
				</extensions>
			</trkpt>
			<trkpt lat="-27.949521" lon="152.984878">
				<ele>53</ele>
				<time>2015-05-07T07:30:36Z</time>
				<extensions>
				</extensions>
			</trkpt>
			<trkpt lat="-27.949172" lon="152.984811">
				<ele>55</ele>
				<time>2015-05-07T07:30:38Z</time>
				<extensions>
				</extensions>
			</trkpt>
			<trkpt lat="-27.948817" lon="152.984739">
				<ele>53</ele>
				<time>2015-05-07T07:30:40Z</time>
				<extensions>
				</extensions>
			</trkpt>
			<trkpt lat="-27.948635" lon="152.984697">
				<ele>54</ele>
				<time>2015-05-07T07:30:41Z</time>
				<extensions>
				</extensions>
			</trkpt>
			<trkpt lat="-27.948455" lon="152.984655">
				<ele>55</ele>
				<time>2015-05-07T07:30:42Z</time>
				<extensions>
				</extensions>
			</trkpt>
			<trkpt lat="-27.948265" lon="152.984612">
				<ele>54</ele>
				<time>2015-05-07T07:30:43Z</time>
				<extensions>
				</extensions>
			</trkpt>
			<trkpt lat="-27.948077" lon="152.984571">
				<ele>54</ele>
				<time>2015-05-07T07:30:44Z</time>
				<extensions>
				</extensions>
			</trkpt>
			<trkpt lat="-27.947899" lon="152.984532">
				<ele>53</ele>
				<time>2015-05-07T07:30:45Z</time>
				<extensions>
				</extensions>
			</trkpt>
			<trkpt lat="-27.947705" lon="152.984487">
				<ele>53</ele>
				<time>2015-05-07T07:30:46Z</time>
				<extensions>
				</extensions>
			</trkpt>
			<trkpt lat="-27.947520" lon="152.984449">
				<ele>53</ele>
				<time>2015-05-07T07:30:47Z</time>
				<extensions>
				</extensions>
			</trkpt>
			<trkpt lat="-27.947331" lon="152.984408">
				<ele>53</ele>
				<time>2015-05-07T07:30:48Z</time>
				<extensions>
				</extensions>
			</trkpt>
			<trkpt lat="-27.947143" lon="152.984367">
				<ele>52</ele>
				<time>2015-05-07T07:30:49Z</time>
				<extensions>
				</extensions>
			</trkpt>
			<trkpt lat="-27.946954" lon="152.984323">
				<ele>52</ele>
				<time>2015-05-07T07:30:50Z</time>
				<extensions>
				</extensions>
			</trkpt>
			<trkpt lat="-27.946763" lon="152.984282">
				<ele>52</ele>
				<time>2015-05-07T07:30:51Z</time>
				<extensions>
				</extensions>
			</trkpt>
			<trkpt lat="-27.946576" lon="152.984238">
				<ele>52</ele>
				<time>2015-05-07T07:30:52Z</time>
				<extensions>
				</extensions>
			</trkpt>
			<trkpt lat="-27.946393" lon="152.984198">
				<ele>51</ele>
				<time>2015-05-07T07:30:53Z</time>
				<extensions>
				</extensions>
			</trkpt>
			<trkpt lat="-27.946205" lon="152.984155">
				<ele>50</ele>
				<time>2015-05-07T07:30:54Z</time>
				<extensions>
				</extensions>
			</trkpt>
			<trkpt lat="-27.946023" lon="152.984114">
				<ele>50</ele>
				<time>2015-05-07T07:30:55Z</time>
				<extensions>
				</extensions>
			</trkpt>
			<trkpt lat="-27.945666" lon="152.984039">
				<ele>49</ele>
				<time>2015-05-07T07:30:57Z</time>
				<extensions>
				</extensions>
			</trkpt>
			<trkpt lat="-27.945476" lon="152.983995">
				<ele>49</ele>
				<time>2015-05-07T07:30:58Z</time>
				<extensions>
				</extensions>
			</trkpt>
			<trkpt lat="-27.945288" lon="152.983953">
				<ele>50</ele>
				<time>2015-05-07T07:30:59Z</time>
				<extensions>
				</extensions>
			</trkpt>
			<trkpt lat="-27.945100" lon="152.983913">
				<ele>50</ele>
				<time>2015-05-07T07:31:00Z</time>
				<extensions>
				</extensions>
			</trkpt>
			<trkpt lat="-27.944912" lon="152.983875">
				<ele>51</ele>
				<time>2015-05-07T07:31:01Z</time>
				<extensions>
				</extensions>
			</trkpt>
			<trkpt lat="-27.944723" lon="152.983836">
				<ele>50</ele>
				<time>2015-05-07T07:31:02Z</time>
				<extensions>
				</extensions>
			</trkpt>
			<trkpt lat="-27.944538" lon="152.983795">
				<ele>50</ele>
				<time>2015-05-07T07:31:03Z</time>
				<extensions>
				</extensions>
			</trkpt>
			<trkpt lat="-27.944350" lon="152.983752">
				<ele>49</ele>
				<time>2015-05-07T07:31:04Z</time>
				<extensions>
				</extensions>
			</trkpt>
			<trkpt lat="-27.944170" lon="152.983713">
				<ele>49</ele>
				<time>2015-05-07T07:31:05Z</time>
				<extensions>
				</extensions>
			</trkpt>
			<trkpt lat="-27.943992" lon="152.983674">
				<ele>48</ele>
				<time>2015-05-07T07:31:06Z</time>
				<extensions>
				</extensions>
			</trkpt>
			<trkpt lat="-27.943809" lon="152.983634">
				<ele>48</ele>
				<time>2015-05-07T07:31:07Z</time>
				<extensions>
				</extensions>
			</trkpt>
			<trkpt lat="-27.943627" lon="152.983591">
				<ele>48</ele>
				<time>2015-05-07T07:31:08Z</time>
				<extensions>
				</extensions>
			</trkpt>
			<trkpt lat="-27.943443" lon="152.983549">
				<ele>48</ele>
				<time>2015-05-07T07:31:09Z</time>
				<extensions>
				</extensions>
			</trkpt>
			<trkpt lat="-27.943255" lon="152.983508">
				<ele>47</ele>
				<time>2015-05-07T07:31:10Z</time>
				<extensions>
				</extensions>
			</trkpt>
			<trkpt lat="-27.943077" lon="152.983468">
				<ele>46</ele>
				<time>2015-05-07T07:31:11Z</time>
				<extensions>
				</extensions>
			</trkpt>
			<trkpt lat="-27.942899" lon="152.983428">
				<ele>46</ele>
				<time>2015-05-07T07:31:12Z</time>
				<extensions>
				</extensions>
			</trkpt>
			<trkpt lat="-27.942552" lon="152.983354">
				<ele>47</ele>
				<time>2015-05-07T07:31:14Z</time>
				<extensions>
				</extensions>
			</trkpt>
			<trkpt lat="-27.942364" lon="152.983314">
				<ele>47</ele>
				<time>2015-05-07T07:31:15Z</time>
				<extensions>
				</extensions>
			</trkpt>
			<trkpt lat="-27.942186" lon="152.983277">
				<ele>47</ele>
				<time>2015-05-07T07:31:16Z</time>
				<extensions>
				</extensions>
			</trkpt>
			<trkpt lat="-27.941998" lon="152.983235">
				<ele>47</ele>
				<time>2015-05-07T07:31:17Z</time>
				<extensions>
				</extensions>
			</trkpt>
			<trkpt lat="-27.941812" lon="152.983195">
				<ele>47</ele>
				<time>2015-05-07T07:31:18Z</time>
				<extensions>
				</extensions>
			</trkpt>
			<trkpt lat="-27.941629" lon="152.983156">
				<ele>46</ele>
				<time>2015-05-07T07:31:19Z</time>
				<extensions>
				</extensions>
			</trkpt>
			<trkpt lat="-27.941441" lon="152.983114">
				<ele>46</ele>
				<time>2015-05-07T07:31:20Z</time>
				<extensions>
				</extensions>
			</trkpt>
			<trkpt lat="-27.941253" lon="152.983072">
				<ele>46</ele>
				<time>2015-05-07T07:31:21Z</time>
				<extensions>
				</extensions>
			</trkpt>
			<trkpt lat="-27.941068" lon="152.983031">
				<ele>45</ele>
				<time>2015-05-07T07:31:22Z</time>
				<extensions>
				</extensions>
			</trkpt>
			<trkpt lat="-27.940874" lon="152.982991">
				<ele>45</ele>
				<time>2015-05-07T07:31:23Z</time>
				<extensions>
				</extensions>
			</trkpt>
			<trkpt lat="-27.940684" lon="152.982952">
				<ele>46</ele>
				<time>2015-05-07T07:31:24Z</time>
				<extensions>
				</extensions>
			</trkpt>
			<trkpt lat="-27.940496" lon="152.982910">
				<ele>46</ele>
				<time>2015-05-07T07:31:25Z</time>
				<extensions>
				</extensions>
			</trkpt>
			<trkpt lat="-27.940301" lon="152.982868">
				<ele>45</ele>
				<time>2015-05-07T07:31:26Z</time>
				<extensions>
				</extensions>
			</trkpt>
			<trkpt lat="-27.940112" lon="152.982828">
				<ele>45</ele>
				<time>2015-05-07T07:31:27Z</time>
				<extensions>
				</extensions>
			</trkpt>
			<trkpt lat="-27.939919" lon="152.982785">
				<ele>45</ele>
				<time>2015-05-07T07:31:28Z</time>
				<extensions>
				</extensions>
			</trkpt>
			<trkpt lat="-27.939727" lon="152.982742">
				<ele>45</ele>
				<time>2015-05-07T07:31:29Z</time>
				<extensions>
				</extensions>
			</trkpt>
			<trkpt lat="-27.939536" lon="152.982698">
				<ele>45</ele>
				<time>2015-05-07T07:31:30Z</time>
				<extensions>
				</extensions>
			</trkpt>
			<trkpt lat="-27.939346" lon="152.982656">
				<ele>45</ele>
				<time>2015-05-07T07:31:31Z</time>
				<extensions>
				</extensions>
			</trkpt>
			<trkpt lat="-27.939162" lon="152.982614">
				<ele>44</ele>
				<time>2015-05-07T07:31:32Z</time>
				<extensions>
				</extensions>
			</trkpt>
			<trkpt lat="-27.938808" lon="152.982536">
				<ele>43</ele>
				<time>2015-05-07T07:31:34Z</time>
				<extensions>
				</extensions>
			</trkpt>
			<trkpt lat="-27.938458" lon="152.982463">
				<ele>44</ele>
				<time>2015-05-07T07:31:36Z</time>
				<extensions>
				</extensions>
			</trkpt>
			<trkpt lat="-27.938117" lon="152.982392">
				<ele>44</ele>
				<time>2015-05-07T07:31:38Z</time>
				<extensions>
				</extensions>
			</trkpt>
			<trkpt lat="-27.937765" lon="152.982309">
				<ele>44</ele>
				<time>2015-05-07T07:31:40Z</time>
				<extensions>
				</extensions>
			</trkpt>
			<trkpt lat="-27.937430" lon="152.982219">
				<ele>44</ele>
				<time>2015-05-07T07:31:42Z</time>
				<extensions>
				</extensions>
			</trkpt>
			<trkpt lat="-27.937096" lon="152.982120">
				<ele>43</ele>
				<time>2015-05-07T07:31:44Z</time>
				<extensions>
				</extensions>
			</trkpt>
			<trkpt lat="-27.936765" lon="152.982025">
				<ele>44</ele>
				<time>2015-05-07T07:31:46Z</time>
				<extensions>
				</extensions>
			</trkpt>
			<trkpt lat="-27.936419" lon="152.981939">
				<ele>45</ele>
				<time>2015-05-07T07:31:48Z</time>
				<extensions>
				</extensions>
			</trkpt>
			<trkpt lat="-27.936062" lon="152.981853">
				<ele>46</ele>
				<time>2015-05-07T07:31:50Z</time>
				<extensions>
				</extensions>
			</trkpt>
			<trkpt lat="-27.935881" lon="152.981809">
				<ele>46</ele>
				<time>2015-05-07T07:31:51Z</time>
				<extensions>
				</extensions>
			</trkpt>
			<trkpt lat="-27.935533" lon="152.981732">
				<ele>45</ele>
				<time>2015-05-07T07:31:53Z</time>
				<extensions>
				</extensions>
			</trkpt>
			<trkpt lat="-27.935170" lon="152.981672">
				<ele>45</ele>
				<time>2015-05-07T07:31:55Z</time>
				<extensions>
				</extensions>
			</trkpt>
			<trkpt lat="-27.934986" lon="152.981641">
				<ele>46</ele>
				<time>2015-05-07T07:31:56Z</time>
				<extensions>
				</extensions>
			</trkpt>
			<trkpt lat="-27.934618" lon="152.981562">
				<ele>46</ele>
				<time>2015-05-07T07:31:58Z</time>
				<extensions>
				</extensions>
			</trkpt>
			<trkpt lat="-27.934432" lon="152.981521">
				<ele>46</ele>
				<time>2015-05-07T07:31:59Z</time>
				<extensions>
				</extensions>
			</trkpt>
			<trkpt lat="-27.934246" lon="152.981478">
				<ele>47</ele>
				<time>2015-05-07T07:32:00Z</time>
				<extensions>
				</extensions>
			</trkpt>
			<trkpt lat="-27.934064" lon="152.981433">
				<ele>46</ele>
				<time>2015-05-07T07:32:01Z</time>
				<extensions>
				</extensions>
			</trkpt>
			<trkpt lat="-27.933875" lon="152.981390">
				<ele>47</ele>
				<time>2015-05-07T07:32:02Z</time>
				<extensions>
				</extensions>
			</trkpt>
			<trkpt lat="-27.933678" lon="152.981345">
				<ele>47</ele>
				<time>2015-05-07T07:32:03Z</time>
				<extensions>
				</extensions>
			</trkpt>
			<trkpt lat="-27.933484" lon="152.981301">
				<ele>49</ele>
				<time>2015-05-07T07:32:04Z</time>
				<extensions>
				</extensions>
			</trkpt>
			<trkpt lat="-27.933289" lon="152.981259">
				<ele>49</ele>
				<time>2015-05-07T07:32:05Z</time>
				<extensions>
				</extensions>
			</trkpt>
			<trkpt lat="-27.933086" lon="152.981222">
				<ele>49</ele>
				<time>2015-05-07T07:32:06Z</time>
				<extensions>
				</extensions>
			</trkpt>
			<trkpt lat="-27.932891" lon="152.981195">
				<ele>50</ele>
				<time>2015-05-07T07:32:07Z</time>
				<extensions>
				</extensions>
			</trkpt>
			<trkpt lat="-27.932684" lon="152.981170">
				<ele>50</ele>
				<time>2015-05-07T07:32:08Z</time>
				<extensions>
				</extensions>
			</trkpt>
			<trkpt lat="-27.932485" lon="152.981152">
				<ele>51</ele>
				<time>2015-05-07T07:32:09Z</time>
				<extensions>
				</extensions>
			</trkpt>
			<trkpt lat="-27.932272" lon="152.981142">
				<ele>52</ele>
				<time>2015-05-07T07:32:10Z</time>
				<extensions>
				</extensions>
			</trkpt>
			<trkpt lat="-27.932044" lon="152.981142">
				<ele>54</ele>
				<time>2015-05-07T07:32:11Z</time>
				<extensions>
				</extensions>
			</trkpt>
			<trkpt lat="-27.931817" lon="152.981154">
				<ele>55</ele>
				<time>2015-05-07T07:32:12Z</time>
				<extensions>
				</extensions>
			</trkpt>
			<trkpt lat="-27.931595" lon="152.981171">
				<ele>55</ele>
				<time>2015-05-07T07:32:13Z</time>
				<extensions>
				</extensions>
			</trkpt>
			<trkpt lat="-27.931376" lon="152.981207">
				<ele>55</ele>
				<time>2015-05-07T07:32:14Z</time>
				<extensions>
				</extensions>
			</trkpt>
			<trkpt lat="-27.931148" lon="152.981239">
				<ele>55</ele>
				<time>2015-05-07T07:32:15Z</time>
				<extensions>
				</extensions>
			</trkpt>
			<trkpt lat="-27.930925" lon="152.981273">
				<ele>55</ele>
				<time>2015-05-07T07:32:16Z</time>
				<extensions>
				</extensions>
			</trkpt>
			<trkpt lat="-27.930721" lon="152.981308">
				<ele>52</ele>
				<time>2015-05-07T07:32:17Z</time>
				<extensions>
				</extensions>
			</trkpt>
			<trkpt lat="-27.930514" lon="152.981340">
				<ele>51</ele>
				<time>2015-05-07T07:32:18Z</time>
				<extensions>
				</extensions>
			</trkpt>
			<trkpt lat="-27.930298" lon="152.981375">
				<ele>51</ele>
				<time>2015-05-07T07:32:19Z</time>
				<extensions>
				</extensions>
			</trkpt>
			<trkpt lat="-27.930087" lon="152.981409">
				<ele>51</ele>
				<time>2015-05-07T07:32:20Z</time>
				<extensions>
				</extensions>
			</trkpt>
			<trkpt lat="-27.929900" lon="152.981445">
				<ele>52</ele>
				<time>2015-05-07T07:32:21Z</time>
				<extensions>
				</extensions>
			</trkpt>
			<trkpt lat="-27.929681" lon="152.981481">
				<ele>50</ele>
				<time>2015-05-07T07:32:22Z</time>
				<extensions>
				</extensions>
			</trkpt>
			<trkpt lat="-27.929479" lon="152.981519">
				<ele>51</ele>
				<time>2015-05-07T07:32:23Z</time>
				<extensions>
				</extensions>
			</trkpt>
			<trkpt lat="-27.929277" lon="152.981557">
				<ele>51</ele>
				<time>2015-05-07T07:32:24Z</time>
				<extensions>
				</extensions>
			</trkpt>
			<trkpt lat="-27.929077" lon="152.981591">
				<ele>51</ele>
				<time>2015-05-07T07:32:25Z</time>
				<extensions>
				</extensions>
			</trkpt>
			<trkpt lat="-27.928886" lon="152.981627">
				<ele>52</ele>
				<time>2015-05-07T07:32:26Z</time>
				<extensions>
				</extensions>
			</trkpt>
			<trkpt lat="-27.928656" lon="152.981662">
				<ele>52</ele>
				<time>2015-05-07T07:32:27Z</time>
				<extensions>
				</extensions>
			</trkpt>
			<trkpt lat="-27.928446" lon="152.981703">
				<ele>52</ele>
				<time>2015-05-07T07:32:28Z</time>
				<extensions>
				</extensions>
			</trkpt>
			<trkpt lat="-27.928238" lon="152.981739">
				<ele>53</ele>
				<time>2015-05-07T07:32:29Z</time>
				<extensions>
				</extensions>
			</trkpt>
			<trkpt lat="-27.928007" lon="152.981780">
				<ele>54</ele>
				<time>2015-05-07T07:32:30Z</time>
				<extensions>
				</extensions>
			</trkpt>
			<trkpt lat="-27.927793" lon="152.981819">
				<ele>53</ele>
				<time>2015-05-07T07:32:31Z</time>
				<extensions>
				</extensions>
			</trkpt>
			<trkpt lat="-27.927571" lon="152.981857">
				<ele>53</ele>
				<time>2015-05-07T07:32:32Z</time>
				<extensions>
				</extensions>
			</trkpt>
			<trkpt lat="-27.927370" lon="152.981903">
				<ele>54</ele>
				<time>2015-05-07T07:32:33Z</time>
				<extensions>
				</extensions>
			</trkpt>
			<trkpt lat="-27.927136" lon="152.981935">
				<ele>53</ele>
				<time>2015-05-07T07:32:34Z</time>
				<extensions>
				</extensions>
			</trkpt>
			<trkpt lat="-27.926914" lon="152.981975">
				<ele>52</ele>
				<time>2015-05-07T07:32:35Z</time>
				<extensions>
				</extensions>
			</trkpt>
			<trkpt lat="-27.926683" lon="152.982019">
				<ele>52</ele>
				<time>2015-05-07T07:32:36Z</time>
				<extensions>
				</extensions>
			</trkpt>
			<trkpt lat="-27.926462" lon="152.982064">
				<ele>52</ele>
				<time>2015-05-07T07:32:37Z</time>
				<extensions>
				</extensions>
			</trkpt>
			<trkpt lat="-27.926255" lon="152.982104">
				<ele>51</ele>
				<time>2015-05-07T07:32:38Z</time>
				<extensions>
				</extensions>
			</trkpt>
			<trkpt lat="-27.926028" lon="152.982144">
				<ele>51</ele>
				<time>2015-05-07T07:32:39Z</time>
				<extensions>
				</extensions>
			</trkpt>
			<trkpt lat="-27.925798" lon="152.982181">
				<ele>50</ele>
				<time>2015-05-07T07:32:40Z</time>
				<extensions>
				</extensions>
			</trkpt>
			<trkpt lat="-27.925586" lon="152.982221">
				<ele>50</ele>
				<time>2015-05-07T07:32:41Z</time>
				<extensions>
				</extensions>
			</trkpt>
			<trkpt lat="-27.925356" lon="152.982266">
				<ele>50</ele>
				<time>2015-05-07T07:32:42Z</time>
				<extensions>
				</extensions>
			</trkpt>
			<trkpt lat="-27.925122" lon="152.982317">
				<ele>51</ele>
				<time>2015-05-07T07:32:43Z</time>
				<extensions>
				</extensions>
			</trkpt>
			<trkpt lat="-27.924886" lon="152.982350">
				<ele>51</ele>
				<time>2015-05-07T07:32:44Z</time>
				<extensions>
				</extensions>
			</trkpt>
			<trkpt lat="-27.924643" lon="152.982391">
				<ele>51</ele>
				<time>2015-05-07T07:32:45Z</time>
				<extensions>
				</extensions>
			</trkpt>
			<trkpt lat="-27.924410" lon="152.982435">
				<ele>51</ele>
				<time>2015-05-07T07:32:46Z</time>
				<extensions>
				</extensions>
			</trkpt>
			<trkpt lat="-27.924189" lon="152.982478">
				<ele>50</ele>
				<time>2015-05-07T07:32:47Z</time>
				<extensions>
				</extensions>
			</trkpt>
			<trkpt lat="-27.923941" lon="152.982507">
				<ele>50</ele>
				<time>2015-05-07T07:32:48Z</time>
				<extensions>
				</extensions>
			</trkpt>
			<trkpt lat="-27.923699" lon="152.982550">
				<ele>51</ele>
				<time>2015-05-07T07:32:49Z</time>
				<extensions>
				</extensions>
			</trkpt>
			<trkpt lat="-27.923466" lon="152.982600">
				<ele>52</ele>
				<time>2015-05-07T07:32:50Z</time>
				<extensions>
				</extensions>
			</trkpt>
			<trkpt lat="-27.923233" lon="152.982640">
				<ele>52</ele>
				<time>2015-05-07T07:32:51Z</time>
				<extensions>
				</extensions>
			</trkpt>
			<trkpt lat="-27.923003" lon="152.982686">
				<ele>51</ele>
				<time>2015-05-07T07:32:52Z</time>
				<extensions>
				</extensions>
			</trkpt>
			<trkpt lat="-27.922771" lon="152.982725">
				<ele>51</ele>
				<time>2015-05-07T07:32:53Z</time>
				<extensions>
				</extensions>
			</trkpt>
			<trkpt lat="-27.922531" lon="152.982760">
				<ele>50</ele>
				<time>2015-05-07T07:32:54Z</time>
				<extensions>
				</extensions>
			</trkpt>
			<trkpt lat="-27.922293" lon="152.982803">
				<ele>50</ele>
				<time>2015-05-07T07:32:55Z</time>
				<extensions>
				</extensions>
			</trkpt>
			<trkpt lat="-27.922066" lon="152.982847">
				<ele>48</ele>
				<time>2015-05-07T07:32:56Z</time>
				<extensions>
				</extensions>
			</trkpt>
			<trkpt lat="-27.921839" lon="152.982886">
				<ele>47</ele>
				<time>2015-05-07T07:32:57Z</time>
				<extensions>
				</extensions>
			</trkpt>
			<trkpt lat="-27.921606" lon="152.982931">
				<ele>48</ele>
				<time>2015-05-07T07:32:58Z</time>
				<extensions>
				</extensions>
			</trkpt>
			<trkpt lat="-27.921375" lon="152.982963">
				<ele>47</ele>
				<time>2015-05-07T07:32:59Z</time>
				<extensions>
				</extensions>
			</trkpt>
			<trkpt lat="-27.921147" lon="152.983003">
				<ele>45</ele>
				<time>2015-05-07T07:33:00Z</time>
				<extensions>
				</extensions>
			</trkpt>
			<trkpt lat="-27.920921" lon="152.983038">
				<ele>44</ele>
				<time>2015-05-07T07:33:01Z</time>
				<extensions>
				</extensions>
			</trkpt>
			<trkpt lat="-27.920695" lon="152.983089">
				<ele>45</ele>
				<time>2015-05-07T07:33:02Z</time>
				<extensions>
				</extensions>
			</trkpt>
			<trkpt lat="-27.920489" lon="152.983129">
				<ele>45</ele>
				<time>2015-05-07T07:33:03Z</time>
				<extensions>
				</extensions>
			</trkpt>
			<trkpt lat="-27.920251" lon="152.983175">
				<ele>46</ele>
				<time>2015-05-07T07:33:04Z</time>
				<extensions>
				</extensions>
			</trkpt>
			<trkpt lat="-27.920012" lon="152.983212">
				<ele>46</ele>
				<time>2015-05-07T07:33:05Z</time>
				<extensions>
				</extensions>
			</trkpt>
			<trkpt lat="-27.919773" lon="152.983258">
				<ele>46</ele>
				<time>2015-05-07T07:33:06Z</time>
				<extensions>
				</extensions>
			</trkpt>
			<trkpt lat="-27.919527" lon="152.983305">
				<ele>46</ele>
				<time>2015-05-07T07:33:07Z</time>
				<extensions>
				</extensions>
			</trkpt>
			<trkpt lat="-27.919309" lon="152.983354">
				<ele>47</ele>
				<time>2015-05-07T07:33:08Z</time>
				<extensions>
				</extensions>
			</trkpt>
			<trkpt lat="-27.919066" lon="152.983393">
				<ele>48</ele>
				<time>2015-05-07T07:33:09Z</time>
				<extensions>
				</extensions>
			</trkpt>
			<trkpt lat="-27.918820" lon="152.983433">
				<ele>47</ele>
				<time>2015-05-07T07:33:10Z</time>
				<extensions>
				</extensions>
			</trkpt>
			<trkpt lat="-27.918587" lon="152.983472">
				<ele>46</ele>
				<time>2015-05-07T07:33:11Z</time>
				<extensions>
				</extensions>
			</trkpt>
			<trkpt lat="-27.918346" lon="152.983506">
				<ele>45</ele>
				<time>2015-05-07T07:33:12Z</time>
				<extensions>
				</extensions>
			</trkpt>
			<trkpt lat="-27.918116" lon="152.983549">
				<ele>45</ele>
				<time>2015-05-07T07:33:13Z</time>
				<extensions>
				</extensions>
			</trkpt>
			<trkpt lat="-27.917892" lon="152.983601">
				<ele>44</ele>
				<time>2015-05-07T07:33:14Z</time>
				<extensions>
				</extensions>
			</trkpt>
			<trkpt lat="-27.917675" lon="152.983642">
				<ele>43</ele>
				<time>2015-05-07T07:33:15Z</time>
				<extensions>
				</extensions>
			</trkpt>
			<trkpt lat="-27.917461" lon="152.983690">
				<ele>42</ele>
				<time>2015-05-07T07:33:16Z</time>
				<extensions>
				</extensions>
			</trkpt>
			<trkpt lat="-27.917236" lon="152.983733">
				<ele>43</ele>
				<time>2015-05-07T07:33:17Z</time>
				<extensions>
				</extensions>
			</trkpt>
			<trkpt lat="-27.917017" lon="152.983786">
				<ele>44</ele>
				<time>2015-05-07T07:33:18Z</time>
				<extensions>
				</extensions>
			</trkpt>
			<trkpt lat="-27.916807" lon="152.983840">
				<ele>44</ele>
				<time>2015-05-07T07:33:19Z</time>
				<extensions>
				</extensions>
			</trkpt>
			<trkpt lat="-27.916575" lon="152.983890">
				<ele>45</ele>
				<time>2015-05-07T07:33:20Z</time>
				<extensions>
				</extensions>
			</trkpt>
			<trkpt lat="-27.916337" lon="152.983948">
				<ele>45</ele>
				<time>2015-05-07T07:33:21Z</time>
				<extensions>
				</extensions>
			</trkpt>
			<trkpt lat="-27.916102" lon="152.983996">
				<ele>44</ele>
				<time>2015-05-07T07:33:22Z</time>
				<extensions>
				</extensions>
			</trkpt>
			<trkpt lat="-27.915866" lon="152.984043">
				<ele>45</ele>
				<time>2015-05-07T07:33:23Z</time>
				<extensions>
				</extensions>
			</trkpt>
			<trkpt lat="-27.915624" lon="152.984106">
				<ele>45</ele>
				<time>2015-05-07T07:33:24Z</time>
				<extensions>
				</extensions>
			</trkpt>
			<trkpt lat="-27.915390" lon="152.984157">
				<ele>45</ele>
				<time>2015-05-07T07:33:25Z</time>
				<extensions>
				</extensions>
			</trkpt>
			<trkpt lat="-27.915174" lon="152.984206">
				<ele>44</ele>
				<time>2015-05-07T07:33:26Z</time>
				<extensions>
				</extensions>
			</trkpt>
			<trkpt lat="-27.914940" lon="152.984255">
				<ele>44</ele>
				<time>2015-05-07T07:33:27Z</time>
				<extensions>
				</extensions>
			</trkpt>
			<trkpt lat="-27.914708" lon="152.984304">
				<ele>42</ele>
				<time>2015-05-07T07:33:28Z</time>
				<extensions>
				</extensions>
			</trkpt>
			<trkpt lat="-27.914489" lon="152.984353">
				<ele>42</ele>
				<time>2015-05-07T07:33:29Z</time>
				<extensions>
				</extensions>
			</trkpt>
			<trkpt lat="-27.914273" lon="152.984404">
				<ele>42</ele>
				<time>2015-05-07T07:33:30Z</time>
				<extensions>
				</extensions>
			</trkpt>
			<trkpt lat="-27.914042" lon="152.984458">
				<ele>45</ele>
				<time>2015-05-07T07:33:31Z</time>
				<extensions>
				</extensions>
			</trkpt>
			<trkpt lat="-27.913814" lon="152.984503">
				<ele>44</ele>
				<time>2015-05-07T07:33:32Z</time>
				<extensions>
				</extensions>
			</trkpt>
			<trkpt lat="-27.913585" lon="152.984547">
				<ele>44</ele>
				<time>2015-05-07T07:33:33Z</time>
				<extensions>
				</extensions>
			</trkpt>
			<trkpt lat="-27.913348" lon="152.984595">
				<ele>45</ele>
				<time>2015-05-07T07:33:34Z</time>
				<extensions>
				</extensions>
			</trkpt>
			<trkpt lat="-27.913110" lon="152.984640">
				<ele>44</ele>
				<time>2015-05-07T07:33:35Z</time>
				<extensions>
				</extensions>
			</trkpt>
			<trkpt lat="-27.912891" lon="152.984645">
				<ele>45</ele>
				<time>2015-05-07T07:33:36Z</time>
				<extensions>
				</extensions>
			</trkpt>
			<trkpt lat="-27.912652" lon="152.984614">
				<ele>44</ele>
				<time>2015-05-07T07:33:37Z</time>
				<extensions>
				</extensions>
			</trkpt>
			<trkpt lat="-27.912414" lon="152.984574">
				<ele>43</ele>
				<time>2015-05-07T07:33:38Z</time>
				<extensions>
				</extensions>
			</trkpt>
			<trkpt lat="-27.912188" lon="152.984523">
				<ele>42</ele>
				<time>2015-05-07T07:33:39Z</time>
				<extensions>
				</extensions>
			</trkpt>
			<trkpt lat="-27.911971" lon="152.984456">
				<ele>44</ele>
				<time>2015-05-07T07:33:40Z</time>
				<extensions>
				</extensions>
			</trkpt>
			<trkpt lat="-27.911753" lon="152.984373">
				<ele>44</ele>
				<time>2015-05-07T07:33:41Z</time>
				<extensions>
				</extensions>
			</trkpt>
			<trkpt lat="-27.911536" lon="152.984274">
				<ele>45</ele>
				<time>2015-05-07T07:33:42Z</time>
				<extensions>
				</extensions>
			</trkpt>
			<trkpt lat="-27.911341" lon="152.984160">
				<ele>43</ele>
				<time>2015-05-07T07:33:43Z</time>
				<extensions>
				</extensions>
			</trkpt>
			<trkpt lat="-27.911140" lon="152.984028">
				<ele>44</ele>
				<time>2015-05-07T07:33:44Z</time>
				<extensions>
				</extensions>
			</trkpt>
			<trkpt lat="-27.910949" lon="152.983883">
				<ele>44</ele>
				<time>2015-05-07T07:33:45Z</time>
				<extensions>
				</extensions>
			</trkpt>
			<trkpt lat="-27.910767" lon="152.983720">
				<ele>44</ele>
				<time>2015-05-07T07:33:46Z</time>
				<extensions>
				</extensions>
			</trkpt>
			<trkpt lat="-27.910585" lon="152.983538">
				<ele>46</ele>
				<time>2015-05-07T07:33:47Z</time>
				<extensions>
				</extensions>
			</trkpt>
			<trkpt lat="-27.910422" lon="152.983347">
				<ele>47</ele>
				<time>2015-05-07T07:33:48Z</time>
				<extensions>
				</extensions>
			</trkpt>
			<trkpt lat="-27.910265" lon="152.983143">
				<ele>47</ele>
				<time>2015-05-07T07:33:49Z</time>
				<extensions>
				</extensions>
			</trkpt>
			<trkpt lat="-27.910116" lon="152.982935">
				<ele>48</ele>
				<time>2015-05-07T07:33:50Z</time>
				<extensions>
				</extensions>
			</trkpt>
			<trkpt lat="-27.909973" lon="152.982692">
				<ele>51</ele>
				<time>2015-05-07T07:33:51Z</time>
				<extensions>
				</extensions>
			</trkpt>
			<trkpt lat="-27.909848" lon="152.982458">
				<ele>52</ele>
				<time>2015-05-07T07:33:52Z</time>
				<extensions>
				</extensions>
			</trkpt>
			<trkpt lat="-27.909723" lon="152.982221">
				<ele>52</ele>
				<time>2015-05-07T07:33:53Z</time>
				<extensions>
				</extensions>
			</trkpt>
			<trkpt lat="-27.909597" lon="152.981987">
				<ele>50</ele>
				<time>2015-05-07T07:33:54Z</time>
				<extensions>
				</extensions>
			</trkpt>
			<trkpt lat="-27.909473" lon="152.981762">
				<ele>50</ele>
				<time>2015-05-07T07:33:55Z</time>
				<extensions>
				</extensions>
			</trkpt>
			<trkpt lat="-27.909352" lon="152.981554">
				<ele>48</ele>
				<time>2015-05-07T07:33:56Z</time>
				<extensions>
				</extensions>
			</trkpt>
			<trkpt lat="-27.909240" lon="152.981353">
				<ele>47</ele>
				<time>2015-05-07T07:33:57Z</time>
				<extensions>
				</extensions>
			</trkpt>
			<trkpt lat="-27.909150" lon="152.981154">
				<ele>46</ele>
				<time>2015-05-07T07:33:58Z</time>
				<extensions>
				</extensions>
			</trkpt>
			<trkpt lat="-27.909049" lon="152.980960">
				<ele>44</ele>
				<time>2015-05-07T07:33:59Z</time>
				<extensions>
				</extensions>
			</trkpt>
			<trkpt lat="-27.908954" lon="152.980780">
				<ele>43</ele>
				<time>2015-05-07T07:34:00Z</time>
				<extensions>
				</extensions>
			</trkpt>
			<trkpt lat="-27.908859" lon="152.980598">
				<ele>41</ele>
				<time>2015-05-07T07:34:01Z</time>
				<extensions>
				</extensions>
			</trkpt>
			<trkpt lat="-27.908764" lon="152.980417">
				<ele>41</ele>
				<time>2015-05-07T07:34:02Z</time>
				<extensions>
				</extensions>
			</trkpt>
			<trkpt lat="-27.908670" lon="152.980235">
				<ele>41</ele>
				<time>2015-05-07T07:34:03Z</time>
				<extensions>
				</extensions>
			</trkpt>
			<trkpt lat="-27.908582" lon="152.980057">
				<ele>40</ele>
				<time>2015-05-07T07:34:04Z</time>
				<extensions>
				</extensions>
			</trkpt>
			<trkpt lat="-27.908365" lon="152.979704">
				<ele>39</ele>
				<time>2015-05-07T07:34:06Z</time>
				<extensions>
				</extensions>
			</trkpt>
			<trkpt lat="-27.908266" lon="152.979532">
				<ele>39</ele>
				<time>2015-05-07T07:34:07Z</time>
				<extensions>
				</extensions>
			</trkpt>
			<trkpt lat="-27.908075" lon="152.979197">
				<ele>38</ele>
				<time>2015-05-07T07:34:09Z</time>
				<extensions>
				</extensions>
			</trkpt>
			<trkpt lat="-27.907972" lon="152.979028">
				<ele>38</ele>
				<time>2015-05-07T07:34:10Z</time>
				<extensions>
				</extensions>
			</trkpt>
			<trkpt lat="-27.907777" lon="152.978696">
				<ele>37</ele>
				<time>2015-05-07T07:34:12Z</time>
				<extensions>
				</extensions>
			</trkpt>
			<trkpt lat="-27.907583" lon="152.978358">
				<ele>35</ele>
				<time>2015-05-07T07:34:14Z</time>
				<extensions>
				</extensions>
			</trkpt>
			<trkpt lat="-27.907485" lon="152.978185">
				<ele>35</ele>
				<time>2015-05-07T07:34:15Z</time>
				<extensions>
				</extensions>
			</trkpt>
			<trkpt lat="-27.907383" lon="152.978011">
				<ele>35</ele>
				<time>2015-05-07T07:34:16Z</time>
				<extensions>
				</extensions>
			</trkpt>
			<trkpt lat="-27.907287" lon="152.977833">
				<ele>35</ele>
				<time>2015-05-07T07:34:17Z</time>
				<extensions>
				</extensions>
			</trkpt>
			<trkpt lat="-27.907185" lon="152.977654">
				<ele>33</ele>
				<time>2015-05-07T07:34:18Z</time>
				<extensions>
				</extensions>
			</trkpt>
			<trkpt lat="-27.906984" lon="152.977316">
				<ele>33</ele>
				<time>2015-05-07T07:34:20Z</time>
				<extensions>
				</extensions>
			</trkpt>
			<trkpt lat="-27.906768" lon="152.977000">
				<ele>32</ele>
				<time>2015-05-07T07:34:22Z</time>
				<extensions>
				</extensions>
			</trkpt>
			<trkpt lat="-27.906531" lon="152.976715">
				<ele>33</ele>
				<time>2015-05-07T07:34:24Z</time>
				<extensions>
				</extensions>
			</trkpt>
			<trkpt lat="-27.906392" lon="152.976581">
				<ele>33</ele>
				<time>2015-05-07T07:34:25Z</time>
				<extensions>
				</extensions>
			</trkpt>
			<trkpt lat="-27.906246" lon="152.976461">
				<ele>33</ele>
				<time>2015-05-07T07:34:26Z</time>
				<extensions>
				</extensions>
			</trkpt>
			<trkpt lat="-27.906094" lon="152.976349">
				<ele>33</ele>
				<time>2015-05-07T07:34:27Z</time>
				<extensions>
				</extensions>
			</trkpt>
			<trkpt lat="-27.905938" lon="152.976241">
				<ele>34</ele>
				<time>2015-05-07T07:34:28Z</time>
				<extensions>
				</extensions>
			</trkpt>
			<trkpt lat="-27.905764" lon="152.976141">
				<ele>36</ele>
				<time>2015-05-07T07:34:29Z</time>
				<extensions>
				</extensions>
			</trkpt>
			<trkpt lat="-27.905577" lon="152.976052">
				<ele>36</ele>
				<time>2015-05-07T07:34:30Z</time>
				<extensions>
				</extensions>
			</trkpt>
			<trkpt lat="-27.905373" lon="152.975991">
				<ele>36</ele>
				<time>2015-05-07T07:34:31Z</time>
				<extensions>
				</extensions>
			</trkpt>
			<trkpt lat="-27.905184" lon="152.975937">
				<ele>38</ele>
				<time>2015-05-07T07:34:32Z</time>
				<extensions>
				</extensions>
			</trkpt>
			<trkpt lat="-27.904983" lon="152.975890">
				<ele>39</ele>
				<time>2015-05-07T07:34:33Z</time>
				<extensions>
				</extensions>
			</trkpt>
			<trkpt lat="-27.904777" lon="152.975833">
				<ele>40</ele>
				<time>2015-05-07T07:34:34Z</time>
				<extensions>
				</extensions>
			</trkpt>
			<trkpt lat="-27.904578" lon="152.975781">
				<ele>40</ele>
				<time>2015-05-07T07:34:35Z</time>
				<extensions>
				</extensions>
			</trkpt>
			<trkpt lat="-27.904373" lon="152.975727">
				<ele>41</ele>
				<time>2015-05-07T07:34:36Z</time>
				<extensions>
				</extensions>
			</trkpt>
			<trkpt lat="-27.904169" lon="152.975671">
				<ele>41</ele>
				<time>2015-05-07T07:34:37Z</time>
				<extensions>
				</extensions>
			</trkpt>
			<trkpt lat="-27.903973" lon="152.975614">
				<ele>41</ele>
				<time>2015-05-07T07:34:38Z</time>
				<extensions>
				</extensions>
			</trkpt>
			<trkpt lat="-27.903775" lon="152.975559">
				<ele>41</ele>
				<time>2015-05-07T07:34:39Z</time>
				<extensions>
				</extensions>
			</trkpt>
			<trkpt lat="-27.903579" lon="152.975503">
				<ele>41</ele>
				<time>2015-05-07T07:34:40Z</time>
				<extensions>
				</extensions>
			</trkpt>
			<trkpt lat="-27.903399" lon="152.975452">
				<ele>42</ele>
				<time>2015-05-07T07:34:41Z</time>
				<extensions>
				</extensions>
			</trkpt>
			<trkpt lat="-27.903222" lon="152.975404">
				<ele>43</ele>
				<time>2015-05-07T07:34:42Z</time>
				<extensions>
				</extensions>
			</trkpt>
			<trkpt lat="-27.902879" lon="152.975316">
				<ele>45</ele>
				<time>2015-05-07T07:34:44Z</time>
				<extensions>
				</extensions>
			</trkpt>
			<trkpt lat="-27.902540" lon="152.975242">
				<ele>48</ele>
				<time>2015-05-07T07:34:46Z</time>
				<extensions>
				</extensions>
			</trkpt>
			<trkpt lat="-27.902200" lon="152.975153">
				<ele>51</ele>
				<time>2015-05-07T07:34:48Z</time>
				<extensions>
				</extensions>
			</trkpt>
			<trkpt lat="-27.901848" lon="152.975071">
				<ele>52</ele>
				<time>2015-05-07T07:34:50Z</time>
				<extensions>
				</extensions>
			</trkpt>
			<trkpt lat="-27.901499" lon="152.974993">
				<ele>53</ele>
				<time>2015-05-07T07:34:52Z</time>
				<extensions>
				</extensions>
			</trkpt>
			<trkpt lat="-27.901318" lon="152.974958">
				<ele>54</ele>
				<time>2015-05-07T07:34:53Z</time>
				<extensions>
				</extensions>
			</trkpt>
			<trkpt lat="-27.901123" lon="152.974915">
				<ele>56</ele>
				<time>2015-05-07T07:34:54Z</time>
				<extensions>
				</extensions>
			</trkpt>
			<trkpt lat="-27.900927" lon="152.974889">
				<ele>56</ele>
				<time>2015-05-07T07:34:55Z</time>
				<extensions>
				</extensions>
			</trkpt>
			<trkpt lat="-27.900740" lon="152.974854">
				<ele>55</ele>
				<time>2015-05-07T07:34:56Z</time>
				<extensions>
				</extensions>
			</trkpt>
			<trkpt lat="-27.900554" lon="152.974819">
				<ele>55</ele>
				<time>2015-05-07T07:34:57Z</time>
				<extensions>
				</extensions>
			</trkpt>
			<trkpt lat="-27.900366" lon="152.974785">
				<ele>55</ele>
				<time>2015-05-07T07:34:58Z</time>
				<extensions>
				</extensions>
			</trkpt>
			<trkpt lat="-27.900184" lon="152.974754">
				<ele>54</ele>
				<time>2015-05-07T07:34:59Z</time>
				<extensions>
				</extensions>
			</trkpt>
			<trkpt lat="-27.899981" lon="152.974721">
				<ele>54</ele>
				<time>2015-05-07T07:35:00Z</time>
				<extensions>
				</extensions>
			</trkpt>
			<trkpt lat="-27.899797" lon="152.974689">
				<ele>54</ele>
				<time>2015-05-07T07:35:01Z</time>
				<extensions>
				</extensions>
			</trkpt>
			<trkpt lat="-27.899610" lon="152.974657">
				<ele>54</ele>
				<time>2015-05-07T07:35:02Z</time>
				<extensions>
				</extensions>
			</trkpt>
			<trkpt lat="-27.899424" lon="152.974629">
				<ele>53</ele>
				<time>2015-05-07T07:35:03Z</time>
				<extensions>
				</extensions>
			</trkpt>
			<trkpt lat="-27.899233" lon="152.974590">
				<ele>52</ele>
				<time>2015-05-07T07:35:04Z</time>
				<extensions>
				</extensions>
			</trkpt>
			<trkpt lat="-27.899045" lon="152.974557">
				<ele>52</ele>
				<time>2015-05-07T07:35:05Z</time>
				<extensions>
				</extensions>
			</trkpt>
			<trkpt lat="-27.898851" lon="152.974529">
				<ele>51</ele>
				<time>2015-05-07T07:35:06Z</time>
				<extensions>
				</extensions>
			</trkpt>
			<trkpt lat="-27.898669" lon="152.974516">
				<ele>51</ele>
				<time>2015-05-07T07:35:07Z</time>
				<extensions>
				</extensions>
			</trkpt>
			<trkpt lat="-27.898479" lon="152.974495">
				<ele>50</ele>
				<time>2015-05-07T07:35:08Z</time>
				<extensions>
				</extensions>
			</trkpt>
			<trkpt lat="-27.898281" lon="152.974461">
				<ele>49</ele>
				<time>2015-05-07T07:35:09Z</time>
				<extensions>
				</extensions>
			</trkpt>
			<trkpt lat="-27.898076" lon="152.974431">
				<ele>48</ele>
				<time>2015-05-07T07:35:10Z</time>
				<extensions>
				</extensions>
			</trkpt>
			<trkpt lat="-27.897877" lon="152.974396">
				<ele>47</ele>
				<time>2015-05-07T07:35:11Z</time>
				<extensions>
				</extensions>
			</trkpt>
			<trkpt lat="-27.897679" lon="152.974366">
				<ele>47</ele>
				<time>2015-05-07T07:35:12Z</time>
				<extensions>
				</extensions>
			</trkpt>
			<trkpt lat="-27.897482" lon="152.974336">
				<ele>47</ele>
				<time>2015-05-07T07:35:13Z</time>
				<extensions>
				</extensions>
			</trkpt>
			<trkpt lat="-27.897290" lon="152.974301">
				<ele>45</ele>
				<time>2015-05-07T07:35:14Z</time>
				<extensions>
				</extensions>
			</trkpt>
			<trkpt lat="-27.897097" lon="152.974262">
				<ele>46</ele>
				<time>2015-05-07T07:35:15Z</time>
				<extensions>
				</extensions>
			</trkpt>
			<trkpt lat="-27.896904" lon="152.974228">
				<ele>47</ele>
				<time>2015-05-07T07:35:16Z</time>
				<extensions>
				</extensions>
			</trkpt>
			<trkpt lat="-27.896713" lon="152.974202">
				<ele>46</ele>
				<time>2015-05-07T07:35:17Z</time>
				<extensions>
				</extensions>
			</trkpt>
			<trkpt lat="-27.896523" lon="152.974169">
				<ele>46</ele>
				<time>2015-05-07T07:35:18Z</time>
				<extensions>
				</extensions>
			</trkpt>
			<trkpt lat="-27.896333" lon="152.974134">
				<ele>46</ele>
				<time>2015-05-07T07:35:19Z</time>
				<extensions>
				</extensions>
			</trkpt>
			<trkpt lat="-27.896143" lon="152.974101">
				<ele>47</ele>
				<time>2015-05-07T07:35:20Z</time>
				<extensions>
				</extensions>
			</trkpt>
			<trkpt lat="-27.895789" lon="152.974042">
				<ele>46</ele>
				<time>2015-05-07T07:35:22Z</time>
				<extensions>
				</extensions>
			</trkpt>
			<trkpt lat="-27.895604" lon="152.974007">
				<ele>48</ele>
				<time>2015-05-07T07:35:23Z</time>
				<extensions>
				</extensions>
			</trkpt>
			<trkpt lat="-27.895424" lon="152.973978">
				<ele>48</ele>
				<time>2015-05-07T07:35:24Z</time>
				<extensions>
				</extensions>
			</trkpt>
			<trkpt lat="-27.895072" lon="152.973915">
				<ele>49</ele>
				<time>2015-05-07T07:35:26Z</time>
				<extensions>
				</extensions>
			</trkpt>
			<trkpt lat="-27.894893" lon="152.973888">
				<ele>50</ele>
				<time>2015-05-07T07:35:27Z</time>
				<extensions>
				</extensions>
			</trkpt>
			<trkpt lat="-27.894533" lon="152.973832">
				<ele>51</ele>
				<time>2015-05-07T07:35:29Z</time>
				<extensions>
				</extensions>
			</trkpt>
			<trkpt lat="-27.894345" lon="152.973798">
				<ele>52</ele>
				<time>2015-05-07T07:35:30Z</time>
				<extensions>
				</extensions>
			</trkpt>
			<trkpt lat="-27.894162" lon="152.973770">
				<ele>53</ele>
				<time>2015-05-07T07:35:31Z</time>
				<extensions>
				</extensions>
			</trkpt>
			<trkpt lat="-27.893979" lon="152.973735">
				<ele>53</ele>
				<time>2015-05-07T07:35:32Z</time>
				<extensions>
				</extensions>
			</trkpt>
			<trkpt lat="-27.893798" lon="152.973708">
				<ele>53</ele>
				<time>2015-05-07T07:35:33Z</time>
				<extensions>
				</extensions>
			</trkpt>
			<trkpt lat="-27.893616" lon="152.973678">
				<ele>54</ele>
				<time>2015-05-07T07:35:34Z</time>
				<extensions>
				</extensions>
			</trkpt>
			<trkpt lat="-27.893428" lon="152.973645">
				<ele>54</ele>
				<time>2015-05-07T07:35:35Z</time>
				<extensions>
				</extensions>
			</trkpt>
			<trkpt lat="-27.893072" lon="152.973588">
				<ele>54</ele>
				<time>2015-05-07T07:35:37Z</time>
				<extensions>
				</extensions>
			</trkpt>
			<trkpt lat="-27.892719" lon="152.973527">
				<ele>55</ele>
				<time>2015-05-07T07:35:39Z</time>
				<extensions>
				</extensions>
			</trkpt>
			<trkpt lat="-27.892363" lon="152.973459">
				<ele>56</ele>
				<time>2015-05-07T07:35:41Z</time>
				<extensions>
				</extensions>
			</trkpt>
			<trkpt lat="-27.892182" lon="152.973431">
				<ele>56</ele>
				<time>2015-05-07T07:35:42Z</time>
				<extensions>
				</extensions>
			</trkpt>
			<trkpt lat="-27.891993" lon="152.973403">
				<ele>57</ele>
				<time>2015-05-07T07:35:43Z</time>
				<extensions>
				</extensions>
			</trkpt>
			<trkpt lat="-27.891806" lon="152.973402">
				<ele>59</ele>
				<time>2015-05-07T07:35:44Z</time>
				<extensions>
				</extensions>
			</trkpt>
			<trkpt lat="-27.891610" lon="152.973408">
				<ele>59</ele>
				<time>2015-05-07T07:35:45Z</time>
				<extensions>
				</extensions>
			</trkpt>
			<trkpt lat="-27.891421" lon="152.973425">
				<ele>60</ele>
				<time>2015-05-07T07:35:46Z</time>
				<extensions>
				</extensions>
			</trkpt>
			<trkpt lat="-27.891213" lon="152.973445">
				<ele>61</ele>
				<time>2015-05-07T07:35:47Z</time>
				<extensions>
				</extensions>
			</trkpt>
			<trkpt lat="-27.891035" lon="152.973490">
				<ele>61</ele>
				<time>2015-05-07T07:35:48Z</time>
				<extensions>
				</extensions>
			</trkpt>
			<trkpt lat="-27.890850" lon="152.973552">
				<ele>60</ele>
				<time>2015-05-07T07:35:49Z</time>
				<extensions>
				</extensions>
			</trkpt>
			<trkpt lat="-27.890683" lon="152.973634">
				<ele>60</ele>
				<time>2015-05-07T07:35:50Z</time>
				<extensions>
				</extensions>
			</trkpt>
			<trkpt lat="-27.890517" lon="152.973723">
				<ele>61</ele>
				<time>2015-05-07T07:35:51Z</time>
				<extensions>
				</extensions>
			</trkpt>
			<trkpt lat="-27.890359" lon="152.973839">
				<ele>62</ele>
				<time>2015-05-07T07:35:52Z</time>
				<extensions>
				</extensions>
			</trkpt>
			<trkpt lat="-27.890188" lon="152.973947">
				<ele>62</ele>
				<time>2015-05-07T07:35:53Z</time>
				<extensions>
				</extensions>
			</trkpt>
			<trkpt lat="-27.890028" lon="152.974064">
				<ele>62</ele>
				<time>2015-05-07T07:35:54Z</time>
				<extensions>
				</extensions>
			</trkpt>
			<trkpt lat="-27.889877" lon="152.974180">
				<ele>62</ele>
				<time>2015-05-07T07:35:55Z</time>
				<extensions>
				</extensions>
			</trkpt>
			<trkpt lat="-27.889711" lon="152.974307">
				<ele>62</ele>
				<time>2015-05-07T07:35:56Z</time>
				<extensions>
				</extensions>
			</trkpt>
			<trkpt lat="-27.889554" lon="152.974446">
				<ele>63</ele>
				<time>2015-05-07T07:35:57Z</time>
				<extensions>
				</extensions>
			</trkpt>
			<trkpt lat="-27.889263" lon="152.974704">
				<ele>66</ele>
				<time>2015-05-07T07:35:59Z</time>
				<extensions>
				</extensions>
			</trkpt>
			<trkpt lat="-27.889075" lon="152.974838">
				<ele>66</ele>
				<time>2015-05-07T07:36:00Z</time>
				<extensions>
				</extensions>
			</trkpt>
			<trkpt lat="-27.888903" lon="152.974959">
				<ele>65</ele>
				<time>2015-05-07T07:36:01Z</time>
				<extensions>
				</extensions>
			</trkpt>
			<trkpt lat="-27.888751" lon="152.975088">
				<ele>66</ele>
				<time>2015-05-07T07:36:02Z</time>
				<extensions>
				</extensions>
			</trkpt>
			<trkpt lat="-27.888597" lon="152.975232">
				<ele>66</ele>
				<time>2015-05-07T07:36:03Z</time>
				<extensions>
				</extensions>
			</trkpt>
			<trkpt lat="-27.888444" lon="152.975380">
				<ele>67</ele>
				<time>2015-05-07T07:36:04Z</time>
				<extensions>
				</extensions>
			</trkpt>
			<trkpt lat="-27.888307" lon="152.975538">
				<ele>68</ele>
				<time>2015-05-07T07:36:05Z</time>
				<extensions>
				</extensions>
			</trkpt>
			<trkpt lat="-27.888164" lon="152.975700">
				<ele>69</ele>
				<time>2015-05-07T07:36:06Z</time>
				<extensions>
				</extensions>
			</trkpt>
			<trkpt lat="-27.888020" lon="152.975873">
				<ele>69</ele>
				<time>2015-05-07T07:36:07Z</time>
				<extensions>
				</extensions>
			</trkpt>
			<trkpt lat="-27.887892" lon="152.976065">
				<ele>71</ele>
				<time>2015-05-07T07:36:08Z</time>
				<extensions>
				</extensions>
			</trkpt>
			<trkpt lat="-27.887773" lon="152.976259">
				<ele>70</ele>
				<time>2015-05-07T07:36:09Z</time>
				<extensions>
				</extensions>
			</trkpt>
			<trkpt lat="-27.887651" lon="152.976453">
				<ele>70</ele>
				<time>2015-05-07T07:36:10Z</time>
				<extensions>
				</extensions>
			</trkpt>
			<trkpt lat="-27.887539" lon="152.976639">
				<ele>70</ele>
				<time>2015-05-07T07:36:11Z</time>
				<extensions>
				</extensions>
			</trkpt>
			<trkpt lat="-27.887429" lon="152.976838">
				<ele>71</ele>
				<time>2015-05-07T07:36:12Z</time>
				<extensions>
				</extensions>
			</trkpt>
			<trkpt lat="-27.887311" lon="152.977036">
				<ele>72</ele>
				<time>2015-05-07T07:36:13Z</time>
				<extensions>
				</extensions>
			</trkpt>
			<trkpt lat="-27.887196" lon="152.977233">
				<ele>72</ele>
				<time>2015-05-07T07:36:14Z</time>
				<extensions>
				</extensions>
			</trkpt>
			<trkpt lat="-27.887074" lon="152.977436">
				<ele>72</ele>
				<time>2015-05-07T07:36:15Z</time>
				<extensions>
				</extensions>
			</trkpt>
			<trkpt lat="-27.886974" lon="152.977668">
				<ele>73</ele>
				<time>2015-05-07T07:36:16Z</time>
				<extensions>
				</extensions>
			</trkpt>
			<trkpt lat="-27.886866" lon="152.977884">
				<ele>73</ele>
				<time>2015-05-07T07:36:17Z</time>
				<extensions>
				</extensions>
			</trkpt>
			<trkpt lat="-27.886757" lon="152.978095">
				<ele>73</ele>
				<time>2015-05-07T07:36:18Z</time>
				<extensions>
				</extensions>
			</trkpt>
			<trkpt lat="-27.886654" lon="152.978312">
				<ele>73</ele>
				<time>2015-05-07T07:36:19Z</time>
				<extensions>
				</extensions>
			</trkpt>
			<trkpt lat="-27.886535" lon="152.978496">
				<ele>74</ele>
				<time>2015-05-07T07:36:20Z</time>
				<extensions>
				</extensions>
			</trkpt>
			<trkpt lat="-27.886431" lon="152.978700">
				<ele>73</ele>
				<time>2015-05-07T07:36:21Z</time>
				<extensions>
				</extensions>
			</trkpt>
			<trkpt lat="-27.886323" lon="152.978908">
				<ele>72</ele>
				<time>2015-05-07T07:36:22Z</time>
				<extensions>
				</extensions>
			</trkpt>
			<trkpt lat="-27.886224" lon="152.979106">
				<ele>72</ele>
				<time>2015-05-07T07:36:23Z</time>
				<extensions>
				</extensions>
			</trkpt>
			<trkpt lat="-27.886118" lon="152.979309">
				<ele>72</ele>
				<time>2015-05-07T07:36:24Z</time>
				<extensions>
				</extensions>
			</trkpt>
			<trkpt lat="-27.886017" lon="152.979497">
				<ele>72</ele>
				<time>2015-05-07T07:36:25Z</time>
				<extensions>
				</extensions>
			</trkpt>
			<trkpt lat="-27.885922" lon="152.979700">
				<ele>71</ele>
				<time>2015-05-07T07:36:26Z</time>
				<extensions>
				</extensions>
			</trkpt>
			<trkpt lat="-27.885819" lon="152.979901">
				<ele>72</ele>
				<time>2015-05-07T07:36:27Z</time>
				<extensions>
				</extensions>
			</trkpt>
			<trkpt lat="-27.885712" lon="152.980115">
				<ele>70</ele>
				<time>2015-05-07T07:36:28Z</time>
				<extensions>
				</extensions>
			</trkpt>
			<trkpt lat="-27.885610" lon="152.980317">
				<ele>70</ele>
				<time>2015-05-07T07:36:29Z</time>
				<extensions>
				</extensions>
			</trkpt>
			<trkpt lat="-27.885504" lon="152.980525">
				<ele>70</ele>
				<time>2015-05-07T07:36:30Z</time>
				<extensions>
				</extensions>
			</trkpt>
			<trkpt lat="-27.885419" lon="152.980757">
				<ele>69</ele>
				<time>2015-05-07T07:36:31Z</time>
				<extensions>
				</extensions>
			</trkpt>
			<trkpt lat="-27.885315" lon="152.980965">
				<ele>69</ele>
				<time>2015-05-07T07:36:32Z</time>
				<extensions>
				</extensions>
			</trkpt>
			<trkpt lat="-27.885223" lon="152.981159">
				<ele>68</ele>
				<time>2015-05-07T07:36:33Z</time>
				<extensions>
				</extensions>
			</trkpt>
			<trkpt lat="-27.885114" lon="152.981392">
				<ele>69</ele>
				<time>2015-05-07T07:36:34Z</time>
				<extensions>
				</extensions>
			</trkpt>
			<trkpt lat="-27.885001" lon="152.981622">
				<ele>70</ele>
				<time>2015-05-07T07:36:35Z</time>
				<extensions>
				</extensions>
			</trkpt>
			<trkpt lat="-27.884880" lon="152.981876">
				<ele>70</ele>
				<time>2015-05-07T07:36:36Z</time>
				<extensions>
				</extensions>
			</trkpt>
			<trkpt lat="-27.884757" lon="152.982122">
				<ele>69</ele>
				<time>2015-05-07T07:36:37Z</time>
				<extensions>
				</extensions>
			</trkpt>
			<trkpt lat="-27.884616" lon="152.982351">
				<ele>67</ele>
				<time>2015-05-07T07:36:38Z</time>
				<extensions>
				</extensions>
			</trkpt>
			<trkpt lat="-27.884466" lon="152.982580">
				<ele>66</ele>
				<time>2015-05-07T07:36:39Z</time>
				<extensions>
				</extensions>
			</trkpt>
			<trkpt lat="-27.884306" lon="152.982810">
				<ele>67</ele>
				<time>2015-05-07T07:36:40Z</time>
				<extensions>
				</extensions>
			</trkpt>
			<trkpt lat="-27.884120" lon="152.983050">
				<ele>69</ele>
				<time>2015-05-07T07:36:41Z</time>
				<extensions>
				</extensions>
			</trkpt>
			<trkpt lat="-27.883919" lon="152.983298">
				<ele>71</ele>
				<time>2015-05-07T07:36:42Z</time>
				<extensions>
				</extensions>
			</trkpt>
			<trkpt lat="-27.883726" lon="152.983538">
				<ele>72</ele>
				<time>2015-05-07T07:36:43Z</time>
				<extensions>
				</extensions>
			</trkpt>
			<trkpt lat="-27.883537" lon="152.983797">
				<ele>72</ele>
				<time>2015-05-07T07:36:44Z</time>
				<extensions>
				</extensions>
			</trkpt>
			<trkpt lat="-27.883353" lon="152.984036">
				<ele>73</ele>
				<time>2015-05-07T07:36:45Z</time>
				<extensions>
				</extensions>
			</trkpt>
			<trkpt lat="-27.883198" lon="152.984264">
				<ele>72</ele>
				<time>2015-05-07T07:36:46Z</time>
				<extensions>
				</extensions>
			</trkpt>
			<trkpt lat="-27.883023" lon="152.984485">
				<ele>72</ele>
				<time>2015-05-07T07:36:47Z</time>
				<extensions>
				</extensions>
			</trkpt>
			<trkpt lat="-27.882853" lon="152.984701">
				<ele>71</ele>
				<time>2015-05-07T07:36:48Z</time>
				<extensions>
				</extensions>
			</trkpt>
			<trkpt lat="-27.882703" lon="152.984908">
				<ele>73</ele>
				<time>2015-05-07T07:36:49Z</time>
				<extensions>
				</extensions>
			</trkpt>
			<trkpt lat="-27.882505" lon="152.985112">
				<ele>75</ele>
				<time>2015-05-07T07:36:50Z</time>
				<extensions>
				</extensions>
			</trkpt>
			<trkpt lat="-27.882331" lon="152.985340">
				<ele>77</ele>
				<time>2015-05-07T07:36:51Z</time>
				<extensions>
				</extensions>
			</trkpt>
			<trkpt lat="-27.882194" lon="152.985551">
				<ele>76</ele>
				<time>2015-05-07T07:36:52Z</time>
				<extensions>
				</extensions>
			</trkpt>
			<trkpt lat="-27.882021" lon="152.985765">
				<ele>76</ele>
				<time>2015-05-07T07:36:53Z</time>
				<extensions>
				</extensions>
			</trkpt>
			<trkpt lat="-27.881847" lon="152.985984">
				<ele>79</ele>
				<time>2015-05-07T07:36:54Z</time>
				<extensions>
				</extensions>
			</trkpt>
			<trkpt lat="-27.881672" lon="152.986199">
				<ele>81</ele>
				<time>2015-05-07T07:36:55Z</time>
				<extensions>
				</extensions>
			</trkpt>
			<trkpt lat="-27.881469" lon="152.986390">
				<ele>84</ele>
				<time>2015-05-07T07:36:56Z</time>
				<extensions>
				</extensions>
			</trkpt>
			<trkpt lat="-27.881266" lon="152.986570">
				<ele>88</ele>
				<time>2015-05-07T07:36:57Z</time>
				<extensions>
				</extensions>
			</trkpt>
			<trkpt lat="-27.881072" lon="152.986797">
				<ele>90</ele>
				<time>2015-05-07T07:36:58Z</time>
				<extensions>
				</extensions>
			</trkpt>
			<trkpt lat="-27.880882" lon="152.987020">
				<ele>97</ele>
				<time>2015-05-07T07:36:59Z</time>
				<extensions>
				</extensions>
			</trkpt>
			<trkpt lat="-27.880657" lon="152.987272">
				<ele>100</ele>
				<time>2015-05-07T07:37:00Z</time>
				<extensions>
				</extensions>
			</trkpt>
			<trkpt lat="-27.880489" lon="152.987608">
				<ele>102</ele>
				<time>2015-05-07T07:37:01Z</time>
				<extensions>
				</extensions>
			</trkpt>
			<trkpt lat="-27.880295" lon="152.987876">
				<ele>108</ele>
				<time>2015-05-07T07:37:02Z</time>
				<extensions>
				</extensions>
			</trkpt>
			<trkpt lat="-27.880078" lon="152.988143">
				<ele>110</ele>
				<time>2015-05-07T07:37:03Z</time>
				<extensions>
				</extensions>
			</trkpt>
			<trkpt lat="-27.879897" lon="152.988382">
				<ele>111</ele>
				<time>2015-05-07T07:37:04Z</time>
				<extensions>
				</extensions>
			</trkpt>
			<trkpt lat="-27.879689" lon="152.988624">
				<ele>111</ele>
				<time>2015-05-07T07:37:05Z</time>
				<extensions>
				</extensions>
			</trkpt>
			<trkpt lat="-27.879514" lon="152.988858">
				<ele>111</ele>
				<time>2015-05-07T07:37:06Z</time>
				<extensions>
				</extensions>
			</trkpt>
			<trkpt lat="-27.879298" lon="152.989078">
				<ele>111</ele>
				<time>2015-05-07T07:37:07Z</time>
				<extensions>
				</extensions>
			</trkpt>
			<trkpt lat="-27.879097" lon="152.989312">
				<ele>111</ele>
				<time>2015-05-07T07:37:08Z</time>
				<extensions>
				</extensions>
			</trkpt>
			<trkpt lat="-27.878875" lon="152.989529">
				<ele>111</ele>
				<time>2015-05-07T07:37:09Z</time>
				<extensions>
				</extensions>
			</trkpt>
			<trkpt lat="-27.878620" lon="152.989718">
				<ele>111</ele>
				<time>2015-05-07T07:37:10Z</time>
				<extensions>
				</extensions>
			</trkpt>
			<trkpt lat="-27.878386" lon="152.989913">
				<ele>109</ele>
				<time>2015-05-07T07:37:11Z</time>
				<extensions>
				</extensions>
			</trkpt>
			<trkpt lat="-27.878194" lon="152.990074">
				<ele>107</ele>
				<time>2015-05-07T07:37:12Z</time>
				<extensions>
				</extensions>
			</trkpt>
			<trkpt lat="-27.877998" lon="152.990238">
				<ele>105</ele>
				<time>2015-05-07T07:37:13Z</time>
				<extensions>
				</extensions>
			</trkpt>
			<trkpt lat="-27.877788" lon="152.990389">
				<ele>104</ele>
				<time>2015-05-07T07:37:14Z</time>
				<extensions>
				</extensions>
			</trkpt>
			<trkpt lat="-27.877603" lon="152.990535">
				<ele>101</ele>
				<time>2015-05-07T07:37:15Z</time>
				<extensions>
				</extensions>
			</trkpt>
			<trkpt lat="-27.877386" lon="152.990706">
				<ele>100</ele>
				<time>2015-05-07T07:37:16Z</time>
				<extensions>
				</extensions>
			</trkpt>
			<trkpt lat="-27.877163" lon="152.990866">
				<ele>101</ele>
				<time>2015-05-07T07:37:17Z</time>
				<extensions>
				</extensions>
			</trkpt>
			<trkpt lat="-27.876951" lon="152.991025">
				<ele>102</ele>
				<time>2015-05-07T07:37:18Z</time>
				<extensions>
				</extensions>
			</trkpt>
			<trkpt lat="-27.876746" lon="152.991190">
				<ele>102</ele>
				<time>2015-05-07T07:37:19Z</time>
				<extensions>
				</extensions>
			</trkpt>
			<trkpt lat="-27.876529" lon="152.991386">
				<ele>100</ele>
				<time>2015-05-07T07:37:20Z</time>
				<extensions>
				</extensions>
			</trkpt>
			<trkpt lat="-27.876308" lon="152.991558">
				<ele>100</ele>
				<time>2015-05-07T07:37:21Z</time>
				<extensions>
				</extensions>
			</trkpt>
			<trkpt lat="-27.876107" lon="152.991728">
				<ele>97</ele>
				<time>2015-05-07T07:37:22Z</time>
				<extensions>
				</extensions>
			</trkpt>
			<trkpt lat="-27.875919" lon="152.991896">
				<ele>94</ele>
				<time>2015-05-07T07:37:23Z</time>
				<extensions>
				</extensions>
			</trkpt>
			<trkpt lat="-27.875714" lon="152.992073">
				<ele>92</ele>
				<time>2015-05-07T07:37:24Z</time>
				<extensions>
				</extensions>
			</trkpt>
			<trkpt lat="-27.875518" lon="152.992278">
				<ele>91</ele>
				<time>2015-05-07T07:37:25Z</time>
				<extensions>
				</extensions>
			</trkpt>
			<trkpt lat="-27.875331" lon="152.992467">
				<ele>90</ele>
				<time>2015-05-07T07:37:26Z</time>
				<extensions>
				</extensions>
			</trkpt>
			<trkpt lat="-27.875155" lon="152.992642">
				<ele>89</ele>
				<time>2015-05-07T07:37:27Z</time>
				<extensions>
				</extensions>
			</trkpt>
			<trkpt lat="-27.874946" lon="152.992837">
				<ele>87</ele>
				<time>2015-05-07T07:37:28Z</time>
				<extensions>
				</extensions>
			</trkpt>
			<trkpt lat="-27.874761" lon="152.993049">
				<ele>86</ele>
				<time>2015-05-07T07:37:29Z</time>
				<extensions>
				</extensions>
			</trkpt>
			<trkpt lat="-27.874589" lon="152.993275">
				<ele>85</ele>
				<time>2015-05-07T07:37:30Z</time>
				<extensions>
				</extensions>
			</trkpt>
			<trkpt lat="-27.874428" lon="152.993496">
				<ele>85</ele>
				<time>2015-05-07T07:37:31Z</time>
				<extensions>
				</extensions>
			</trkpt>
			<trkpt lat="-27.874276" lon="152.993704">
				<ele>86</ele>
				<time>2015-05-07T07:37:32Z</time>
				<extensions>
				</extensions>
			</trkpt>
			<trkpt lat="-27.874115" lon="152.993922">
				<ele>87</ele>
				<time>2015-05-07T07:37:33Z</time>
				<extensions>
				</extensions>
			</trkpt>
			<trkpt lat="-27.873964" lon="152.994144">
				<ele>86</ele>
				<time>2015-05-07T07:37:34Z</time>
				<extensions>
				</extensions>
			</trkpt>
			<trkpt lat="-27.873799" lon="152.994362">
				<ele>86</ele>
				<time>2015-05-07T07:37:35Z</time>
				<extensions>
				</extensions>
			</trkpt>
			<trkpt lat="-27.873629" lon="152.994583">
				<ele>85</ele>
				<time>2015-05-07T07:37:36Z</time>
				<extensions>
				</extensions>
			</trkpt>
			<trkpt lat="-27.873470" lon="152.994798">
				<ele>82</ele>
				<time>2015-05-07T07:37:37Z</time>
				<extensions>
				</extensions>
			</trkpt>
			<trkpt lat="-27.873300" lon="152.995013">
				<ele>81</ele>
				<time>2015-05-07T07:37:38Z</time>
				<extensions>
				</extensions>
			</trkpt>
			<trkpt lat="-27.873136" lon="152.995226">
				<ele>81</ele>
				<time>2015-05-07T07:37:39Z</time>
				<extensions>
				</extensions>
			</trkpt>
			<trkpt lat="-27.872960" lon="152.995447">
				<ele>81</ele>
				<time>2015-05-07T07:37:40Z</time>
				<extensions>
				</extensions>
			</trkpt>
			<trkpt lat="-27.872795" lon="152.995658">
				<ele>79</ele>
				<time>2015-05-07T07:37:41Z</time>
				<extensions>
				</extensions>
			</trkpt>
			<trkpt lat="-27.872621" lon="152.995881">
				<ele>78</ele>
				<time>2015-05-07T07:37:42Z</time>
				<extensions>
				</extensions>
			</trkpt>
			<trkpt lat="-27.872484" lon="152.996116">
				<ele>80</ele>
				<time>2015-05-07T07:37:43Z</time>
				<extensions>
				</extensions>
			</trkpt>
			<trkpt lat="-27.872309" lon="152.996316">
				<ele>77</ele>
				<time>2015-05-07T07:37:44Z</time>
				<extensions>
				</extensions>
			</trkpt>
			<trkpt lat="-27.872143" lon="152.996520">
				<ele>75</ele>
				<time>2015-05-07T07:37:45Z</time>
				<extensions>
				</extensions>
			</trkpt>
			<trkpt lat="-27.871962" lon="152.996710">
				<ele>73</ele>
				<time>2015-05-07T07:37:46Z</time>
				<extensions>
				</extensions>
			</trkpt>
			<trkpt lat="-27.871790" lon="152.996899">
				<ele>73</ele>
				<time>2015-05-07T07:37:47Z</time>
				<extensions>
				</extensions>
			</trkpt>
			<trkpt lat="-27.871605" lon="152.997091">
				<ele>73</ele>
				<time>2015-05-07T07:37:48Z</time>
				<extensions>
				</extensions>
			</trkpt>
			<trkpt lat="-27.871402" lon="152.997272">
				<ele>73</ele>
				<time>2015-05-07T07:37:49Z</time>
				<extensions>
				</extensions>
			</trkpt>
			<trkpt lat="-27.871208" lon="152.997449">
				<ele>72</ele>
				<time>2015-05-07T07:37:50Z</time>
				<extensions>
				</extensions>
			</trkpt>
			<trkpt lat="-27.871017" lon="152.997622">
				<ele>72</ele>
				<time>2015-05-07T07:37:51Z</time>
				<extensions>
				</extensions>
			</trkpt>
			<trkpt lat="-27.870801" lon="152.997794">
				<ele>70</ele>
				<time>2015-05-07T07:37:52Z</time>
				<extensions>
				</extensions>
			</trkpt>
			<trkpt lat="-27.870553" lon="152.997943">
				<ele>69</ele>
				<time>2015-05-07T07:37:53Z</time>
				<extensions>
				</extensions>
			</trkpt>
			<trkpt lat="-27.870346" lon="152.998093">
				<ele>67</ele>
				<time>2015-05-07T07:37:54Z</time>
				<extensions>
				</extensions>
			</trkpt>
			<trkpt lat="-27.870111" lon="152.998237">
				<ele>66</ele>
				<time>2015-05-07T07:37:55Z</time>
				<extensions>
				</extensions>
			</trkpt>
			<trkpt lat="-27.869885" lon="152.998365">
				<ele>64</ele>
				<time>2015-05-07T07:37:56Z</time>
				<extensions>
				</extensions>
			</trkpt>
			<trkpt lat="-27.869651" lon="152.998476">
				<ele>65</ele>
				<time>2015-05-07T07:37:57Z</time>
				<extensions>
				</extensions>
			</trkpt>
			<trkpt lat="-27.869395" lon="152.998580">
				<ele>63</ele>
				<time>2015-05-07T07:37:58Z</time>
				<extensions>
				</extensions>
			</trkpt>
			<trkpt lat="-27.869142" lon="152.998666">
				<ele>61</ele>
				<time>2015-05-07T07:37:59Z</time>
				<extensions>
				</extensions>
			</trkpt>
			<trkpt lat="-27.868908" lon="152.998746">
				<ele>59</ele>
				<time>2015-05-07T07:38:00Z</time>
				<extensions>
				</extensions>
			</trkpt>
			<trkpt lat="-27.868680" lon="152.998835">
				<ele>57</ele>
				<time>2015-05-07T07:38:01Z</time>
				<extensions>
				</extensions>
			</trkpt>
			<trkpt lat="-27.868448" lon="152.998914">
				<ele>56</ele>
				<time>2015-05-07T07:38:02Z</time>
				<extensions>
				</extensions>
			</trkpt>
			<trkpt lat="-27.868194" lon="152.998956">
				<ele>53</ele>
				<time>2015-05-07T07:38:03Z</time>
				<extensions>
				</extensions>
			</trkpt>
			<trkpt lat="-27.867928" lon="152.998994">
				<ele>53</ele>
				<time>2015-05-07T07:38:04Z</time>
				<extensions>
				</extensions>
			</trkpt>
			<trkpt lat="-27.867721" lon="152.999048">
				<ele>52</ele>
				<time>2015-05-07T07:38:05Z</time>
				<extensions>
				</extensions>
			</trkpt>
			<trkpt lat="-27.867471" lon="152.999088">
				<ele>50</ele>
				<time>2015-05-07T07:38:06Z</time>
				<extensions>
				</extensions>
			</trkpt>
			<trkpt lat="-27.867241" lon="152.999138">
				<ele>50</ele>
				<time>2015-05-07T07:38:07Z</time>
				<extensions>
				</extensions>
			</trkpt>
			<trkpt lat="-27.866993" lon="152.999182">
				<ele>50</ele>
				<time>2015-05-07T07:38:08Z</time>
				<extensions>
				</extensions>
			</trkpt>
			<trkpt lat="-27.866742" lon="152.999225">
				<ele>50</ele>
				<time>2015-05-07T07:38:09Z</time>
				<extensions>
				</extensions>
			</trkpt>
			<trkpt lat="-27.866491" lon="152.999276">
				<ele>50</ele>
				<time>2015-05-07T07:38:10Z</time>
				<extensions>
				</extensions>
			</trkpt>
			<trkpt lat="-27.866237" lon="152.999331">
				<ele>50</ele>
				<time>2015-05-07T07:38:11Z</time>
				<extensions>
				</extensions>
			</trkpt>
			<trkpt lat="-27.865996" lon="152.999379">
				<ele>48</ele>
				<time>2015-05-07T07:38:12Z</time>
				<extensions>
				</extensions>
			</trkpt>
			<trkpt lat="-27.865759" lon="152.999444">
				<ele>46</ele>
				<time>2015-05-07T07:38:13Z</time>
				<extensions>
				</extensions>
			</trkpt>
			<trkpt lat="-27.865514" lon="152.999497">
				<ele>46</ele>
				<time>2015-05-07T07:38:14Z</time>
				<extensions>
				</extensions>
			</trkpt>
			<trkpt lat="-27.865296" lon="152.999512">
				<ele>46</ele>
				<time>2015-05-07T07:38:15Z</time>
				<extensions>
				</extensions>
			</trkpt>
			<trkpt lat="-27.865054" lon="152.999571">
				<ele>45</ele>
				<time>2015-05-07T07:38:16Z</time>
				<extensions>
				</extensions>
			</trkpt>
			<trkpt lat="-27.864828" lon="152.999637">
				<ele>46</ele>
				<time>2015-05-07T07:38:17Z</time>
				<extensions>
				</extensions>
			</trkpt>
			<trkpt lat="-27.864605" lon="152.999721">
				<ele>46</ele>
				<time>2015-05-07T07:38:18Z</time>
				<extensions>
				</extensions>
			</trkpt>
			<trkpt lat="-27.864357" lon="152.999802">
				<ele>46</ele>
				<time>2015-05-07T07:38:19Z</time>
				<extensions>
				</extensions>
			</trkpt>
			<trkpt lat="-27.864127" lon="152.999892">
				<ele>45</ele>
				<time>2015-05-07T07:38:20Z</time>
				<extensions>
				</extensions>
			</trkpt>
			<trkpt lat="-27.863897" lon="152.999982">
				<ele>44</ele>
				<time>2015-05-07T07:38:21Z</time>
				<extensions>
				</extensions>
			</trkpt>
			<trkpt lat="-27.863653" lon="153.000077">
				<ele>44</ele>
				<time>2015-05-07T07:38:22Z</time>
				<extensions>
				</extensions>
			</trkpt>
			<trkpt lat="-27.863428" lon="153.000192">
				<ele>43</ele>
				<time>2015-05-07T07:38:23Z</time>
				<extensions>
				</extensions>
			</trkpt>
			<trkpt lat="-27.863193" lon="153.000317">
				<ele>41</ele>
				<time>2015-05-07T07:38:24Z</time>
				<extensions>
				</extensions>
			</trkpt>
			<trkpt lat="-27.862964" lon="153.000438">
				<ele>41</ele>
				<time>2015-05-07T07:38:25Z</time>
				<extensions>
				</extensions>
			</trkpt>
			<trkpt lat="-27.862736" lon="153.000578">
				<ele>42</ele>
				<time>2015-05-07T07:38:26Z</time>
				<extensions>
				</extensions>
			</trkpt>
			<trkpt lat="-27.862517" lon="153.000714">
				<ele>40</ele>
				<time>2015-05-07T07:38:27Z</time>
				<extensions>
				</extensions>
			</trkpt>
			<trkpt lat="-27.862318" lon="153.000860">
				<ele>39</ele>
				<time>2015-05-07T07:38:28Z</time>
				<extensions>
				</extensions>
			</trkpt>
			<trkpt lat="-27.862102" lon="153.001016">
				<ele>38</ele>
				<time>2015-05-07T07:38:29Z</time>
				<extensions>
				</extensions>
			</trkpt>
			<trkpt lat="-27.861892" lon="153.001175">
				<ele>39</ele>
				<time>2015-05-07T07:38:30Z</time>
				<extensions>
				</extensions>
			</trkpt>
			<trkpt lat="-27.861689" lon="153.001349">
				<ele>39</ele>
				<time>2015-05-07T07:38:31Z</time>
				<extensions>
				</extensions>
			</trkpt>
			<trkpt lat="-27.861476" lon="153.001513">
				<ele>40</ele>
				<time>2015-05-07T07:38:32Z</time>
				<extensions>
				</extensions>
			</trkpt>
			<trkpt lat="-27.861266" lon="153.001680">
				<ele>39</ele>
				<time>2015-05-07T07:38:33Z</time>
				<extensions>
				</extensions>
			</trkpt>
			<trkpt lat="-27.861058" lon="153.001843">
				<ele>38</ele>
				<time>2015-05-07T07:38:34Z</time>
				<extensions>
				</extensions>
			</trkpt>
			<trkpt lat="-27.860845" lon="153.002014">
				<ele>39</ele>
				<time>2015-05-07T07:38:35Z</time>
				<extensions>
				</extensions>
			</trkpt>
			<trkpt lat="-27.860636" lon="153.002190">
				<ele>39</ele>
				<time>2015-05-07T07:38:36Z</time>
				<extensions>
				</extensions>
			</trkpt>
			<trkpt lat="-27.860420" lon="153.002362">
				<ele>41</ele>
				<time>2015-05-07T07:38:37Z</time>
				<extensions>
				</extensions>
			</trkpt>
			<trkpt lat="-27.860216" lon="153.002551">
				<ele>38</ele>
				<time>2015-05-07T07:38:38Z</time>
				<extensions>
				</extensions>
			</trkpt>
			<trkpt lat="-27.860029" lon="153.002717">
				<ele>37</ele>
				<time>2015-05-07T07:38:39Z</time>
				<extensions>
				</extensions>
			</trkpt>
			<trkpt lat="-27.859830" lon="153.002858">
				<ele>35</ele>
				<time>2015-05-07T07:38:40Z</time>
				<extensions>
				</extensions>
			</trkpt>
			<trkpt lat="-27.859648" lon="153.003045">
				<ele>35</ele>
				<time>2015-05-07T07:38:41Z</time>
				<extensions>
				</extensions>
			</trkpt>
			<trkpt lat="-27.859500" lon="153.003220">
				<ele>34</ele>
				<time>2015-05-07T07:38:42Z</time>
				<extensions>
				</extensions>
			</trkpt>
			<trkpt lat="-27.859348" lon="153.003389">
				<ele>33</ele>
				<time>2015-05-07T07:38:43Z</time>
				<extensions>
				</extensions>
			</trkpt>
			<trkpt lat="-27.859157" lon="153.003605">
				<ele>33</ele>
				<time>2015-05-07T07:38:44Z</time>
				<extensions>
				</extensions>
			</trkpt>
			<trkpt lat="-27.858985" lon="153.003808">
				<ele>35</ele>
				<time>2015-05-07T07:38:45Z</time>
				<extensions>
				</extensions>
			</trkpt>
			<trkpt lat="-27.858816" lon="153.004015">
				<ele>36</ele>
				<time>2015-05-07T07:38:46Z</time>
				<extensions>
				</extensions>
			</trkpt>
			<trkpt lat="-27.858652" lon="153.004237">
				<ele>34</ele>
				<time>2015-05-07T07:38:47Z</time>
				<extensions>
				</extensions>
			</trkpt>
			<trkpt lat="-27.858505" lon="153.004441">
				<ele>40</ele>
				<time>2015-05-07T07:38:48Z</time>
				<extensions>
				</extensions>
			</trkpt>
			<trkpt lat="-27.858358" lon="153.004646">
				<ele>36</ele>
				<time>2015-05-07T07:38:49Z</time>
				<extensions>
				</extensions>
			</trkpt>
			<trkpt lat="-27.858212" lon="153.004862">
				<ele>36</ele>
				<time>2015-05-07T07:38:50Z</time>
				<extensions>
				</extensions>
			</trkpt>
			<trkpt lat="-27.858054" lon="153.005085">
				<ele>34</ele>
				<time>2015-05-07T07:38:51Z</time>
				<extensions>
				</extensions>
			</trkpt>
			<trkpt lat="-27.857891" lon="153.005311">
				<ele>33</ele>
				<time>2015-05-07T07:38:52Z</time>
				<extensions>
				</extensions>
			</trkpt>
			<trkpt lat="-27.857768" lon="153.005546">
				<ele>34</ele>
				<time>2015-05-07T07:38:53Z</time>
				<extensions>
				</extensions>
			</trkpt>
			<trkpt lat="-27.857616" lon="153.005773">
				<ele>34</ele>
				<time>2015-05-07T07:38:54Z</time>
				<extensions>
				</extensions>
			</trkpt>
			<trkpt lat="-27.857486" lon="153.006004">
				<ele>36</ele>
				<time>2015-05-07T07:38:55Z</time>
				<extensions>
				</extensions>
			</trkpt>
			<trkpt lat="-27.857327" lon="153.006228">
				<ele>36</ele>
				<time>2015-05-07T07:38:56Z</time>
				<extensions>
				</extensions>
			</trkpt>
			<trkpt lat="-27.857168" lon="153.006451">
				<ele>36</ele>
				<time>2015-05-07T07:38:57Z</time>
				<extensions>
				</extensions>
			</trkpt>
			<trkpt lat="-27.857009" lon="153.006692">
				<ele>34</ele>
				<time>2015-05-07T07:38:58Z</time>
				<extensions>
				</extensions>
			</trkpt>
			<trkpt lat="-27.856851" lon="153.006917">
				<ele>33</ele>
				<time>2015-05-07T07:38:59Z</time>
				<extensions>
				</extensions>
			</trkpt>
			<trkpt lat="-27.856687" lon="153.007146">
				<ele>34</ele>
				<time>2015-05-07T07:39:00Z</time>
				<extensions>
				</extensions>
			</trkpt>
			<trkpt lat="-27.856523" lon="153.007377">
				<ele>36</ele>
				<time>2015-05-07T07:39:01Z</time>
				<extensions>
				</extensions>
			</trkpt>
			<trkpt lat="-27.856361" lon="153.007611">
				<ele>36</ele>
				<time>2015-05-07T07:39:02Z</time>
				<extensions>
				</extensions>
			</trkpt>
			<trkpt lat="-27.856201" lon="153.007839">
				<ele>37</ele>
				<time>2015-05-07T07:39:03Z</time>
				<extensions>
				</extensions>
			</trkpt>
			<trkpt lat="-27.856035" lon="153.008071">
				<ele>40</ele>
				<time>2015-05-07T07:39:04Z</time>
				<extensions>
				</extensions>
			</trkpt>
			<trkpt lat="-27.855883" lon="153.008306">
				<ele>39</ele>
				<time>2015-05-07T07:39:05Z</time>
				<extensions>
				</extensions>
			</trkpt>
			<trkpt lat="-27.855719" lon="153.008530">
				<ele>40</ele>
				<time>2015-05-07T07:39:06Z</time>
				<extensions>
				</extensions>
			</trkpt>
			<trkpt lat="-27.855544" lon="153.008735">
				<ele>40</ele>
				<time>2015-05-07T07:39:07Z</time>
				<extensions>
				</extensions>
			</trkpt>
			<trkpt lat="-27.855390" lon="153.008943">
				<ele>42</ele>
				<time>2015-05-07T07:39:08Z</time>
				<extensions>
				</extensions>
			</trkpt>
			<trkpt lat="-27.855254" lon="153.009159">
				<ele>42</ele>
				<time>2015-05-07T07:39:09Z</time>
				<extensions>
				</extensions>
			</trkpt>
			<trkpt lat="-27.855098" lon="153.009383">
				<ele>44</ele>
				<time>2015-05-07T07:39:10Z</time>
				<extensions>
				</extensions>
			</trkpt>
			<trkpt lat="-27.854921" lon="153.009643">
				<ele>45</ele>
				<time>2015-05-07T07:39:11Z</time>
				<extensions>
				</extensions>
			</trkpt>
			<trkpt lat="-27.854747" lon="153.009858">
				<ele>45</ele>
				<time>2015-05-07T07:39:12Z</time>
				<extensions>
				</extensions>
			</trkpt>
			<trkpt lat="-27.854587" lon="153.010087">
				<ele>47</ele>
				<time>2015-05-07T07:39:13Z</time>
				<extensions>
				</extensions>
			</trkpt>
			<trkpt lat="-27.854449" lon="153.010318">
				<ele>48</ele>
				<time>2015-05-07T07:39:14Z</time>
				<extensions>
				</extensions>
			</trkpt>
			<trkpt lat="-27.854332" lon="153.010534">
				<ele>49</ele>
				<time>2015-05-07T07:39:15Z</time>
				<extensions>
				</extensions>
			</trkpt>
			<trkpt lat="-27.854179" lon="153.010759">
				<ele>51</ele>
				<time>2015-05-07T07:39:16Z</time>
				<extensions>
				</extensions>
			</trkpt>
			<trkpt lat="-27.854021" lon="153.011005">
				<ele>51</ele>
				<time>2015-05-07T07:39:17Z</time>
				<extensions>
				</extensions>
			</trkpt>
			<trkpt lat="-27.853874" lon="153.011224">
				<ele>52</ele>
				<time>2015-05-07T07:39:18Z</time>
				<extensions>
				</extensions>
			</trkpt>
			<trkpt lat="-27.853717" lon="153.011449">
				<ele>54</ele>
				<time>2015-05-07T07:39:19Z</time>
				<extensions>
				</extensions>
			</trkpt>
			<trkpt lat="-27.853578" lon="153.011708">
				<ele>55</ele>
				<time>2015-05-07T07:39:20Z</time>
				<extensions>
				</extensions>
			</trkpt>
			<trkpt lat="-27.853420" lon="153.011926">
				<ele>55</ele>
				<time>2015-05-07T07:39:21Z</time>
				<extensions>
				</extensions>
			</trkpt>
			<trkpt lat="-27.853269" lon="153.012165">
				<ele>55</ele>
				<time>2015-05-07T07:39:22Z</time>
				<extensions>
				</extensions>
			</trkpt>
			<trkpt lat="-27.853094" lon="153.012407">
				<ele>56</ele>
				<time>2015-05-07T07:39:23Z</time>
				<extensions>
				</extensions>
			</trkpt>
			<trkpt lat="-27.852921" lon="153.012644">
				<ele>56</ele>
				<time>2015-05-07T07:39:24Z</time>
				<extensions>
				</extensions>
			</trkpt>
			<trkpt lat="-27.852752" lon="153.012887">
				<ele>55</ele>
				<time>2015-05-07T07:39:25Z</time>
				<extensions>
				</extensions>
			</trkpt>
			<trkpt lat="-27.852583" lon="153.013122">
				<ele>55</ele>
				<time>2015-05-07T07:39:26Z</time>
				<extensions>
				</extensions>
			</trkpt>
			<trkpt lat="-27.852416" lon="153.013362">
				<ele>55</ele>
				<time>2015-05-07T07:39:27Z</time>
				<extensions>
				</extensions>
			</trkpt>
			<trkpt lat="-27.852251" lon="153.013592">
				<ele>52</ele>
				<time>2015-05-07T07:39:28Z</time>
				<extensions>
				</extensions>
			</trkpt>
			<trkpt lat="-27.852098" lon="153.013832">
				<ele>51</ele>
				<time>2015-05-07T07:39:29Z</time>
				<extensions>
				</extensions>
			</trkpt>
			<trkpt lat="-27.851964" lon="153.014069">
				<ele>50</ele>
				<time>2015-05-07T07:39:30Z</time>
				<extensions>
				</extensions>
			</trkpt>
			<trkpt lat="-27.851806" lon="153.014296">
				<ele>47</ele>
				<time>2015-05-07T07:39:31Z</time>
				<extensions>
				</extensions>
			</trkpt>
			<trkpt lat="-27.851653" lon="153.014520">
				<ele>44</ele>
				<time>2015-05-07T07:39:32Z</time>
				<extensions>
				</extensions>
			</trkpt>
			<trkpt lat="-27.851501" lon="153.014729">
				<ele>42</ele>
				<time>2015-05-07T07:39:33Z</time>
				<extensions>
				</extensions>
			</trkpt>
			<trkpt lat="-27.851353" lon="153.014955">
				<ele>41</ele>
				<time>2015-05-07T07:39:34Z</time>
				<extensions>
				</extensions>
			</trkpt>
			<trkpt lat="-27.851189" lon="153.015177">
				<ele>40</ele>
				<time>2015-05-07T07:39:35Z</time>
				<extensions>
				</extensions>
			</trkpt>
			<trkpt lat="-27.851045" lon="153.015402">
				<ele>38</ele>
				<time>2015-05-07T07:39:36Z</time>
				<extensions>
				</extensions>
			</trkpt>
			<trkpt lat="-27.850885" lon="153.015615">
				<ele>38</ele>
				<time>2015-05-07T07:39:37Z</time>
				<extensions>
				</extensions>
			</trkpt>
			<trkpt lat="-27.850728" lon="153.015831">
				<ele>35</ele>
				<time>2015-05-07T07:39:38Z</time>
				<extensions>
				</extensions>
			</trkpt>
			<trkpt lat="-27.850569" lon="153.016034">
				<ele>34</ele>
				<time>2015-05-07T07:39:39Z</time>
				<extensions>
				</extensions>
			</trkpt>
			<trkpt lat="-27.850409" lon="153.016230">
				<ele>33</ele>
				<time>2015-05-07T07:39:40Z</time>
				<extensions>
				</extensions>
			</trkpt>
			<trkpt lat="-27.850247" lon="153.016427">
				<ele>32</ele>
				<time>2015-05-07T07:39:41Z</time>
				<extensions>
				</extensions>
			</trkpt>
			<trkpt lat="-27.850092" lon="153.016629">
				<ele>31</ele>
				<time>2015-05-07T07:39:42Z</time>
				<extensions>
				</extensions>
			</trkpt>
			<trkpt lat="-27.849929" lon="153.016833">
				<ele>30</ele>
				<time>2015-05-07T07:39:43Z</time>
				<extensions>
				</extensions>
			</trkpt>
			<trkpt lat="-27.849771" lon="153.017035">
				<ele>29</ele>
				<time>2015-05-07T07:39:44Z</time>
				<extensions>
				</extensions>
			</trkpt>
			<trkpt lat="-27.849624" lon="153.017237">
				<ele>28</ele>
				<time>2015-05-07T07:39:45Z</time>
				<extensions>
				</extensions>
			</trkpt>
			<trkpt lat="-27.849481" lon="153.017431">
				<ele>26</ele>
				<time>2015-05-07T07:39:46Z</time>
				<extensions>
				</extensions>
			</trkpt>
			<trkpt lat="-27.849336" lon="153.017613">
				<ele>24</ele>
				<time>2015-05-07T07:39:47Z</time>
				<extensions>
				</extensions>
			</trkpt>
			<trkpt lat="-27.849185" lon="153.017788">
				<ele>22</ele>
				<time>2015-05-07T07:39:48Z</time>
				<extensions>
				</extensions>
			</trkpt>
			<trkpt lat="-27.849042" lon="153.017969">
				<ele>21</ele>
				<time>2015-05-07T07:39:49Z</time>
				<extensions>
				</extensions>
			</trkpt>
			<trkpt lat="-27.848886" lon="153.018143">
				<ele>23</ele>
				<time>2015-05-07T07:39:50Z</time>
				<extensions>
				</extensions>
			</trkpt>
			<trkpt lat="-27.848741" lon="153.018318">
				<ele>21</ele>
				<time>2015-05-07T07:39:51Z</time>
				<extensions>
				</extensions>
			</trkpt>
			<trkpt lat="-27.848594" lon="153.018487">
				<ele>20</ele>
				<time>2015-05-07T07:39:52Z</time>
				<extensions>
				</extensions>
			</trkpt>
			<trkpt lat="-27.848445" lon="153.018648">
				<ele>20</ele>
				<time>2015-05-07T07:39:53Z</time>
				<extensions>
				</extensions>
			</trkpt>
			<trkpt lat="-27.848295" lon="153.018797">
				<ele>20</ele>
				<time>2015-05-07T07:39:54Z</time>
				<extensions>
				</extensions>
			</trkpt>
			<trkpt lat="-27.848133" lon="153.018953">
				<ele>20</ele>
				<time>2015-05-07T07:39:55Z</time>
				<extensions>
				</extensions>
			</trkpt>
			<trkpt lat="-27.847979" lon="153.019105">
				<ele>20</ele>
				<time>2015-05-07T07:39:56Z</time>
				<extensions>
				</extensions>
			</trkpt>
			<trkpt lat="-27.847833" lon="153.019250">
				<ele>20</ele>
				<time>2015-05-07T07:39:57Z</time>
				<extensions>
				</extensions>
			</trkpt>
			<trkpt lat="-27.847677" lon="153.019396">
				<ele>18</ele>
				<time>2015-05-07T07:39:58Z</time>
				<extensions>
				</extensions>
			</trkpt>
			<trkpt lat="-27.847361" lon="153.019633">
				<ele>17</ele>
				<time>2015-05-07T07:40:00Z</time>
				<extensions>
				</extensions>
			</trkpt>
			<trkpt lat="-27.847056" lon="153.019871">
				<ele>18</ele>
				<time>2015-05-07T07:40:02Z</time>
				<extensions>
				</extensions>
			</trkpt>
			<trkpt lat="-27.846879" lon="153.019987">
				<ele>18</ele>
				<time>2015-05-07T07:40:03Z</time>
				<extensions>
				</extensions>
			</trkpt>
			<trkpt lat="-27.846705" lon="153.020106">
				<ele>18</ele>
				<time>2015-05-07T07:40:04Z</time>
				<extensions>
				</extensions>
			</trkpt>
			<trkpt lat="-27.846536" lon="153.020233">
				<ele>18</ele>
				<time>2015-05-07T07:40:05Z</time>
				<extensions>
				</extensions>
			</trkpt>
			<trkpt lat="-27.846375" lon="153.020350">
				<ele>17</ele>
				<time>2015-05-07T07:40:06Z</time>
				<extensions>
				</extensions>
			</trkpt>
			<trkpt lat="-27.846107" lon="153.020548">
				<ele>15</ele>
				<time>2015-05-07T07:40:08Z</time>
				<extensions>
				</extensions>
			</trkpt>
			<trkpt lat="-27.845842" lon="153.020735">
				<ele>12</ele>
				<time>2015-05-07T07:40:10Z</time>
				<extensions>
				</extensions>
			</trkpt>
			<trkpt lat="-27.845622" lon="153.020915">
				<ele>11</ele>
				<time>2015-05-07T07:40:12Z</time>
				<extensions>
				</extensions>
			</trkpt>
			<trkpt lat="-27.845334" lon="153.021047">
				<ele>10</ele>
				<time>2015-05-07T07:40:14Z</time>
				<extensions>
				</extensions>
			</trkpt>
			<trkpt lat="-27.845107" lon="153.021221">
				<ele>9</ele>
				<time>2015-05-07T07:40:16Z</time>
				<extensions>
				</extensions>
			</trkpt>
			<trkpt lat="-27.844916" lon="153.021365">
				<ele>7</ele>
				<time>2015-05-07T07:40:18Z</time>
				<extensions>
				</extensions>
			</trkpt>
			<trkpt lat="-27.844742" lon="153.021479">
				<ele>6</ele>
				<time>2015-05-07T07:40:20Z</time>
				<extensions>
				</extensions>
			</trkpt>
			<trkpt lat="-27.844496" lon="153.021657">
				<ele>8</ele>
				<time>2015-05-07T07:40:23Z</time>
				<extensions>
				</extensions>
			</trkpt>
			<trkpt lat="-27.844278" lon="153.021809">
				<ele>9</ele>
				<time>2015-05-07T07:40:25Z</time>
				<extensions>
				</extensions>
			</trkpt>
			<trkpt lat="-27.844029" lon="153.021991">
				<ele>10</ele>
				<time>2015-05-07T07:40:27Z</time>
				<extensions>
				</extensions>
			</trkpt>
			<trkpt lat="-27.843790" lon="153.022157">
				<ele>9</ele>
				<time>2015-05-07T07:40:29Z</time>
				<extensions>
				</extensions>
			</trkpt>
			<trkpt lat="-27.843560" lon="153.022345">
				<ele>9</ele>
				<time>2015-05-07T07:40:31Z</time>
				<extensions>
				</extensions>
			</trkpt>
			<trkpt lat="-27.843304" lon="153.022532">
				<ele>10</ele>
				<time>2015-05-07T07:40:33Z</time>
				<extensions>
				</extensions>
			</trkpt>
			<trkpt lat="-27.843001" lon="153.022724">
				<ele>14</ele>
				<time>2015-05-07T07:40:35Z</time>
				<extensions>
				</extensions>
			</trkpt>
			<trkpt lat="-27.842840" lon="153.022829">
				<ele>17</ele>
				<time>2015-05-07T07:40:36Z</time>
				<extensions>
				</extensions>
			</trkpt>
			<trkpt lat="-27.842687" lon="153.022936">
				<ele>17</ele>
				<time>2015-05-07T07:40:37Z</time>
				<extensions>
				</extensions>
			</trkpt>
			<trkpt lat="-27.842520" lon="153.023046">
				<ele>17</ele>
				<time>2015-05-07T07:40:38Z</time>
				<extensions>
				</extensions>
			</trkpt>
			<trkpt lat="-27.842356" lon="153.023150">
				<ele>18</ele>
				<time>2015-05-07T07:40:39Z</time>
				<extensions>
				</extensions>
			</trkpt>
			<trkpt lat="-27.842172" lon="153.023263">
				<ele>21</ele>
				<time>2015-05-07T07:40:40Z</time>
				<extensions>
				</extensions>
			</trkpt>
			<trkpt lat="-27.841930" lon="153.023371">
				<ele>25</ele>
				<time>2015-05-07T07:40:41Z</time>
				<extensions>
				</extensions>
			</trkpt>
			<trkpt lat="-27.841724" lon="153.023489">
				<ele>29</ele>
				<time>2015-05-07T07:40:42Z</time>
				<extensions>
				</extensions>
			</trkpt>
			<trkpt lat="-27.841500" lon="153.023628">
				<ele>32</ele>
				<time>2015-05-07T07:40:43Z</time>
				<extensions>
				</extensions>
			</trkpt>
			<trkpt lat="-27.841271" lon="153.023757">
				<ele>34</ele>
				<time>2015-05-07T07:40:44Z</time>
				<extensions>
				</extensions>
			</trkpt>
			<trkpt lat="-27.841046" lon="153.023892">
				<ele>36</ele>
				<time>2015-05-07T07:40:45Z</time>
				<extensions>
				</extensions>
			</trkpt>
			<trkpt lat="-27.840823" lon="153.024017">
				<ele>38</ele>
				<time>2015-05-07T07:40:46Z</time>
				<extensions>
				</extensions>
			</trkpt>
			<trkpt lat="-27.840624" lon="153.024162">
				<ele>40</ele>
				<time>2015-05-07T07:40:47Z</time>
				<extensions>
				</extensions>
			</trkpt>
			<trkpt lat="-27.840400" lon="153.024291">
				<ele>40</ele>
				<time>2015-05-07T07:40:48Z</time>
				<extensions>
				</extensions>
			</trkpt>
			<trkpt lat="-27.840195" lon="153.024418">
				<ele>38</ele>
				<time>2015-05-07T07:40:49Z</time>
				<extensions>
				</extensions>
			</trkpt>
			<trkpt lat="-27.840002" lon="153.024545">
				<ele>38</ele>
				<time>2015-05-07T07:40:50Z</time>
				<extensions>
				</extensions>
			</trkpt>
			<trkpt lat="-27.839832" lon="153.024668">
				<ele>36</ele>
				<time>2015-05-07T07:40:51Z</time>
				<extensions>
				</extensions>
			</trkpt>
			<trkpt lat="-27.839643" lon="153.024779">
				<ele>33</ele>
				<time>2015-05-07T07:40:52Z</time>
				<extensions>
				</extensions>
			</trkpt>
			<trkpt lat="-27.839446" lon="153.024891">
				<ele>31</ele>
				<time>2015-05-07T07:40:53Z</time>
				<extensions>
				</extensions>
			</trkpt>
			<trkpt lat="-27.839270" lon="153.024995">
				<ele>31</ele>
				<time>2015-05-07T07:40:54Z</time>
				<extensions>
				</extensions>
			</trkpt>
			<trkpt lat="-27.839103" lon="153.025098">
				<ele>28</ele>
				<time>2015-05-07T07:40:55Z</time>
				<extensions>
				</extensions>
			</trkpt>
			<trkpt lat="-27.838774" lon="153.025278">
				<ele>25</ele>
				<time>2015-05-07T07:40:57Z</time>
				<extensions>
				</extensions>
			</trkpt>
			<trkpt lat="-27.838469" lon="153.025480">
				<ele>22</ele>
				<time>2015-05-07T07:40:59Z</time>
				<extensions>
				</extensions>
			</trkpt>
			<trkpt lat="-27.838156" lon="153.025668">
				<ele>20</ele>
				<time>2015-05-07T07:41:01Z</time>
				<extensions>
				</extensions>
			</trkpt>
			<trkpt lat="-27.837986" lon="153.025763">
				<ele>20</ele>
				<time>2015-05-07T07:41:02Z</time>
				<extensions>
				</extensions>
			</trkpt>
			<trkpt lat="-27.837817" lon="153.025861">
				<ele>19</ele>
				<time>2015-05-07T07:41:03Z</time>
				<extensions>
				</extensions>
			</trkpt>
			<trkpt lat="-27.837635" lon="153.025954">
				<ele>19</ele>
				<time>2015-05-07T07:41:04Z</time>
				<extensions>
				</extensions>
			</trkpt>
			<trkpt lat="-27.837462" lon="153.026050">
				<ele>18</ele>
				<time>2015-05-07T07:41:05Z</time>
				<extensions>
				</extensions>
			</trkpt>
			<trkpt lat="-27.837282" lon="153.026143">
				<ele>18</ele>
				<time>2015-05-07T07:41:06Z</time>
				<extensions>
				</extensions>
			</trkpt>
			<trkpt lat="-27.837115" lon="153.026229">
				<ele>18</ele>
				<time>2015-05-07T07:41:07Z</time>
				<extensions>
				</extensions>
			</trkpt>
			<trkpt lat="-27.836931" lon="153.026299">
				<ele>17</ele>
				<time>2015-05-07T07:41:08Z</time>
				<extensions>
				</extensions>
			</trkpt>
			<trkpt lat="-27.836608" lon="153.026443">
				<ele>15</ele>
				<time>2015-05-07T07:41:10Z</time>
				<extensions>
				</extensions>
			</trkpt>
			<trkpt lat="-27.836318" lon="153.026561">
				<ele>13</ele>
				<time>2015-05-07T07:41:12Z</time>
				<extensions>
				</extensions>
			</trkpt>
			<trkpt lat="-27.836063" lon="153.026647">
				<ele>10</ele>
				<time>2015-05-07T07:41:14Z</time>
				<extensions>
				</extensions>
			</trkpt>
			<trkpt lat="-27.835876" lon="153.026724">
				<ele>8</ele>
				<time>2015-05-07T07:41:16Z</time>
				<extensions>
				</extensions>
			</trkpt>
			<trkpt lat="-27.835652" lon="153.026806">
				<ele>7</ele>
				<time>2015-05-07T07:41:19Z</time>
				<extensions>
				</extensions>
			</trkpt>
			<trkpt lat="-27.835476" lon="153.026877">
				<ele>6</ele>
				<time>2015-05-07T07:41:25Z</time>
				<extensions>
				</extensions>
			</trkpt>
			<trkpt lat="-27.835273" lon="153.026970">
				<ele>12</ele>
				<time>2015-05-07T07:42:01Z</time>
				<extensions>
				</extensions>
			</trkpt>
			<trkpt lat="-27.835099" lon="153.027045">
				<ele>14</ele>
				<time>2015-05-07T07:42:03Z</time>
				<extensions>
				</extensions>
			</trkpt>
			<trkpt lat="-27.834903" lon="153.027125">
				<ele>14</ele>
				<time>2015-05-07T07:42:05Z</time>
				<extensions>
				</extensions>
			</trkpt>
			<trkpt lat="-27.834702" lon="153.027222">
				<ele>15</ele>
				<time>2015-05-07T07:42:07Z</time>
				<extensions>
				</extensions>
			</trkpt>
			<trkpt lat="-27.834478" lon="153.027313">
				<ele>16</ele>
				<time>2015-05-07T07:42:09Z</time>
				<extensions>
				</extensions>
			</trkpt>
			<trkpt lat="-27.834247" lon="153.027409">
				<ele>18</ele>
				<time>2015-05-07T07:42:11Z</time>
				<extensions>
				</extensions>
			</trkpt>
			<trkpt lat="-27.834026" lon="153.027500">
				<ele>18</ele>
				<time>2015-05-07T07:42:13Z</time>
				<extensions>
				</extensions>
			</trkpt>
			<trkpt lat="-27.833801" lon="153.027594">
				<ele>19</ele>
				<time>2015-05-07T07:42:15Z</time>
				<extensions>
				</extensions>
			</trkpt>
			<trkpt lat="-27.833568" lon="153.027699">
				<ele>19</ele>
				<time>2015-05-07T07:42:17Z</time>
				<extensions>
				</extensions>
			</trkpt>
			<trkpt lat="-27.833296" lon="153.027833">
				<ele>22</ele>
				<time>2015-05-07T07:42:19Z</time>
				<extensions>
				</extensions>
			</trkpt>
			<trkpt lat="-27.833005" lon="153.027999">
				<ele>22</ele>
				<time>2015-05-07T07:42:21Z</time>
				<extensions>
				</extensions>
			</trkpt>
			<trkpt lat="-27.832804" lon="153.028038">
				<ele>23</ele>
				<time>2015-05-07T07:42:23Z</time>
				<extensions>
				</extensions>
			</trkpt>
			<trkpt lat="-27.832572" lon="153.028135">
				<ele>25</ele>
				<time>2015-05-07T07:42:25Z</time>
				<extensions>
				</extensions>
			</trkpt>
			<trkpt lat="-27.832309" lon="153.028227">
				<ele>27</ele>
				<time>2015-05-07T07:42:27Z</time>
				<extensions>
				</extensions>
			</trkpt>
			<trkpt lat="-27.832029" lon="153.028317">
				<ele>28</ele>
				<time>2015-05-07T07:42:29Z</time>
				<extensions>
				</extensions>
			</trkpt>
			<trkpt lat="-27.831751" lon="153.028406">
				<ele>28</ele>
				<time>2015-05-07T07:42:31Z</time>
				<extensions>
				</extensions>
			</trkpt>
			<trkpt lat="-27.831452" lon="153.028485">
				<ele>30</ele>
				<time>2015-05-07T07:42:33Z</time>
				<extensions>
				</extensions>
			</trkpt>
			<trkpt lat="-27.831146" lon="153.028568">
				<ele>32</ele>
				<time>2015-05-07T07:42:35Z</time>
				<extensions>
				</extensions>
			</trkpt>
			<trkpt lat="-27.830824" lon="153.028637">
				<ele>31</ele>
				<time>2015-05-07T07:42:37Z</time>
				<extensions>
				</extensions>
			</trkpt>
			<trkpt lat="-27.830512" lon="153.028715">
				<ele>33</ele>
				<time>2015-05-07T07:42:39Z</time>
				<extensions>
				</extensions>
			</trkpt>
			<trkpt lat="-27.830204" lon="153.028773">
				<ele>32</ele>
				<time>2015-05-07T07:42:41Z</time>
				<extensions>
				</extensions>
			</trkpt>
			<trkpt lat="-27.829856" lon="153.028818">
				<ele>32</ele>
				<time>2015-05-07T07:42:43Z</time>
				<extensions>
				</extensions>
			</trkpt>
			<trkpt lat="-27.829519" lon="153.028857">
				<ele>33</ele>
				<time>2015-05-07T07:42:45Z</time>
				<extensions>
				</extensions>
			</trkpt>
			<trkpt lat="-27.829167" lon="153.028887">
				<ele>32</ele>
				<time>2015-05-07T07:42:47Z</time>
				<extensions>
				</extensions>
			</trkpt>
			<trkpt lat="-27.828851" lon="153.028921">
				<ele>30</ele>
				<time>2015-05-07T07:42:49Z</time>
				<extensions>
				</extensions>
			</trkpt>
			<trkpt lat="-27.828517" lon="153.028960">
				<ele>31</ele>
				<time>2015-05-07T07:42:51Z</time>
				<extensions>
				</extensions>
			</trkpt>
			<trkpt lat="-27.828188" lon="153.028989">
				<ele>29</ele>
				<time>2015-05-07T07:42:53Z</time>
				<extensions>
				</extensions>
			</trkpt>
			<trkpt lat="-27.827860" lon="153.029020">
				<ele>30</ele>
				<time>2015-05-07T07:42:55Z</time>
				<extensions>
				</extensions>
			</trkpt>
			<trkpt lat="-27.827552" lon="153.029042">
				<ele>31</ele>
				<time>2015-05-07T07:42:57Z</time>
				<extensions>
				</extensions>
			</trkpt>
			<trkpt lat="-27.827191" lon="153.029060">
				<ele>30</ele>
				<time>2015-05-07T07:42:59Z</time>
				<extensions>
				</extensions>
			</trkpt>
			<trkpt lat="-27.826878" lon="153.029086">
				<ele>30</ele>
				<time>2015-05-07T07:43:01Z</time>
				<extensions>
				</extensions>
			</trkpt>
			<trkpt lat="-27.826574" lon="153.029108">
				<ele>29</ele>
				<time>2015-05-07T07:43:03Z</time>
				<extensions>
				</extensions>
			</trkpt>
			<trkpt lat="-27.826258" lon="153.029125">
				<ele>29</ele>
				<time>2015-05-07T07:43:05Z</time>
				<extensions>
				</extensions>
			</trkpt>
			<trkpt lat="-27.825952" lon="153.029146">
				<ele>30</ele>
				<time>2015-05-07T07:43:07Z</time>
				<extensions>
				</extensions>
			</trkpt>
			<trkpt lat="-27.825660" lon="153.029186">
				<ele>29</ele>
				<time>2015-05-07T07:43:09Z</time>
				<extensions>
				</extensions>
			</trkpt>
			<trkpt lat="-27.825324" lon="153.029214">
				<ele>26</ele>
				<time>2015-05-07T07:43:11Z</time>
				<extensions>
				</extensions>
			</trkpt>
			<trkpt lat="-27.825042" lon="153.029251">
				<ele>26</ele>
				<time>2015-05-07T07:43:13Z</time>
				<extensions>
				</extensions>
			</trkpt>
			<trkpt lat="-27.824764" lon="153.029286">
				<ele>25</ele>
				<time>2015-05-07T07:43:15Z</time>
				<extensions>
				</extensions>
			</trkpt>
			<trkpt lat="-27.824463" lon="153.029314">
				<ele>23</ele>
				<time>2015-05-07T07:43:17Z</time>
				<extensions>
				</extensions>
			</trkpt>
			<trkpt lat="-27.824177" lon="153.029329">
				<ele>21</ele>
				<time>2015-05-07T07:43:19Z</time>
				<extensions>
				</extensions>
			</trkpt>
			<trkpt lat="-27.823905" lon="153.029370">
				<ele>19</ele>
				<time>2015-05-07T07:43:21Z</time>
				<extensions>
				</extensions>
			</trkpt>
			<trkpt lat="-27.823612" lon="153.029397">
				<ele>17</ele>
				<time>2015-05-07T07:43:23Z</time>
				<extensions>
				</extensions>
			</trkpt>
			<trkpt lat="-27.823329" lon="153.029414">
				<ele>17</ele>
				<time>2015-05-07T07:43:25Z</time>
				<extensions>
				</extensions>
			</trkpt>
			<trkpt lat="-27.823069" lon="153.029433">
				<ele>16</ele>
				<time>2015-05-07T07:43:27Z</time>
				<extensions>
				</extensions>
			</trkpt>
			<trkpt lat="-27.822844" lon="153.029465">
				<ele>15</ele>
				<time>2015-05-07T07:43:29Z</time>
				<extensions>
				</extensions>
			</trkpt>
			<trkpt lat="-27.822626" lon="153.029487">
				<ele>14</ele>
				<time>2015-05-07T07:43:31Z</time>
				<extensions>
				</extensions>
			</trkpt>
			<trkpt lat="-27.822407" lon="153.029514">
				<ele>12</ele>
				<time>2015-05-07T07:43:34Z</time>
				<extensions>
				</extensions>
			</trkpt>
			<trkpt lat="-27.822207" lon="153.029546">
				<ele>10</ele>
				<time>2015-05-07T07:43:39Z</time>
				<extensions>
				</extensions>
			</trkpt>
			<trkpt lat="-27.821948" lon="153.029555">
				<ele>11</ele>
				<time>2015-05-07T07:43:44Z</time>
				<extensions>
				</extensions>
			</trkpt>
			<trkpt lat="-27.821733" lon="153.029580">
				<ele>12</ele>
				<time>2015-05-07T07:43:46Z</time>
				<extensions>
				</extensions>
			</trkpt>
			<trkpt lat="-27.821505" lon="153.029609">
				<ele>12</ele>
				<time>2015-05-07T07:43:48Z</time>
				<extensions>
				</extensions>
			</trkpt>
			<trkpt lat="-27.821230" lon="153.029630">
				<ele>12</ele>
				<time>2015-05-07T07:43:50Z</time>
				<extensions>
				</extensions>
			</trkpt>
			<trkpt lat="-27.820973" lon="153.029678">
				<ele>13</ele>
				<time>2015-05-07T07:43:52Z</time>
				<extensions>
				</extensions>
			</trkpt>
			<trkpt lat="-27.820696" lon="153.029707">
				<ele>13</ele>
				<time>2015-05-07T07:43:54Z</time>
				<extensions>
				</extensions>
			</trkpt>
			<trkpt lat="-27.820383" lon="153.029737">
				<ele>12</ele>
				<time>2015-05-07T07:43:56Z</time>
				<extensions>
				</extensions>
			</trkpt>
			<trkpt lat="-27.820070" lon="153.029762">
				<ele>12</ele>
				<time>2015-05-07T07:43:58Z</time>
				<extensions>
				</extensions>
			</trkpt>
			<trkpt lat="-27.819797" lon="153.029776">
				<ele>10</ele>
				<time>2015-05-07T07:44:00Z</time>
				<extensions>
				</extensions>
			</trkpt>
			<trkpt lat="-27.819482" lon="153.029789">
				<ele>11</ele>
				<time>2015-05-07T07:44:02Z</time>
				<extensions>
				</extensions>
			</trkpt>
			<trkpt lat="-27.819173" lon="153.029785">
				<ele>10</ele>
				<time>2015-05-07T07:44:04Z</time>
				<extensions>
				</extensions>
			</trkpt>
			<trkpt lat="-27.818840" lon="153.029769">
				<ele>11</ele>
				<time>2015-05-07T07:44:06Z</time>
				<extensions>
				</extensions>
			</trkpt>
			<trkpt lat="-27.818511" lon="153.029721">
				<ele>12</ele>
				<time>2015-05-07T07:44:08Z</time>
				<extensions>
				</extensions>
			</trkpt>
			<trkpt lat="-27.818187" lon="153.029674">
				<ele>12</ele>
				<time>2015-05-07T07:44:10Z</time>
				<extensions>
				</extensions>
			</trkpt>
			<trkpt lat="-27.817837" lon="153.029596">
				<ele>13</ele>
				<time>2015-05-07T07:44:12Z</time>
				<extensions>
				</extensions>
			</trkpt>
			<trkpt lat="-27.817472" lon="153.029526">
				<ele>13</ele>
				<time>2015-05-07T07:44:14Z</time>
				<extensions>
				</extensions>
			</trkpt>
			<trkpt lat="-27.817288" lon="153.029490">
				<ele>15</ele>
				<time>2015-05-07T07:44:15Z</time>
				<extensions>
				</extensions>
			</trkpt>
			<trkpt lat="-27.817104" lon="153.029457">
				<ele>15</ele>
				<time>2015-05-07T07:44:16Z</time>
				<extensions>
				</extensions>
			</trkpt>
			<trkpt lat="-27.816737" lon="153.029392">
				<ele>14</ele>
				<time>2015-05-07T07:44:18Z</time>
				<extensions>
				</extensions>
			</trkpt>
			<trkpt lat="-27.816389" lon="153.029336">
				<ele>12</ele>
				<time>2015-05-07T07:44:20Z</time>
				<extensions>
				</extensions>
			</trkpt>
			<trkpt lat="-27.816209" lon="153.029300">
				<ele>13</ele>
				<time>2015-05-07T07:44:21Z</time>
				<extensions>
				</extensions>
			</trkpt>
			<trkpt lat="-27.816027" lon="153.029267">
				<ele>12</ele>
				<time>2015-05-07T07:44:22Z</time>
				<extensions>
				</extensions>
			</trkpt>
			<trkpt lat="-27.815839" lon="153.029230">
				<ele>12</ele>
				<time>2015-05-07T07:44:23Z</time>
				<extensions>
				</extensions>
			</trkpt>
			<trkpt lat="-27.815652" lon="153.029202">
				<ele>13</ele>
				<time>2015-05-07T07:44:24Z</time>
				<extensions>
				</extensions>
			</trkpt>
			<trkpt lat="-27.815460" lon="153.029169">
				<ele>14</ele>
				<time>2015-05-07T07:44:25Z</time>
				<extensions>
				</extensions>
			</trkpt>
			<trkpt lat="-27.815265" lon="153.029133">
				<ele>15</ele>
				<time>2015-05-07T07:44:26Z</time>
				<extensions>
				</extensions>
			</trkpt>
			<trkpt lat="-27.815058" lon="153.029094">
				<ele>14</ele>
				<time>2015-05-07T07:44:27Z</time>
				<extensions>
				</extensions>
			</trkpt>
			<trkpt lat="-27.814862" lon="153.029054">
				<ele>14</ele>
				<time>2015-05-07T07:44:28Z</time>
				<extensions>
				</extensions>
			</trkpt>
			<trkpt lat="-27.814676" lon="153.029027">
				<ele>14</ele>
				<time>2015-05-07T07:44:29Z</time>
				<extensions>
				</extensions>
			</trkpt>
			<trkpt lat="-27.814335" lon="153.028975">
				<ele>13</ele>
				<time>2015-05-07T07:44:31Z</time>
				<extensions>
				</extensions>
			</trkpt>
			<trkpt lat="-27.814013" lon="153.028939">
				<ele>12</ele>
				<time>2015-05-07T07:44:33Z</time>
				<extensions>
				</extensions>
			</trkpt>
			<trkpt lat="-27.813649" lon="153.028918">
				<ele>13</ele>
				<time>2015-05-07T07:44:35Z</time>
				<extensions>
				</extensions>
			</trkpt>
			<trkpt lat="-27.813318" lon="153.028922">
				<ele>13</ele>
				<time>2015-05-07T07:44:37Z</time>
				<extensions>
				</extensions>
			</trkpt>
			<trkpt lat="-27.813136" lon="153.028914">
				<ele>12</ele>
				<time>2015-05-07T07:44:38Z</time>
				<extensions>
				</extensions>
			</trkpt>
			<trkpt lat="-27.812954" lon="153.028910">
				<ele>13</ele>
				<time>2015-05-07T07:44:39Z</time>
				<extensions>
				</extensions>
			</trkpt>
			<trkpt lat="-27.812756" lon="153.028899">
				<ele>14</ele>
				<time>2015-05-07T07:44:40Z</time>
				<extensions>
				</extensions>
			</trkpt>
			<trkpt lat="-27.812557" lon="153.028894">
				<ele>15</ele>
				<time>2015-05-07T07:44:41Z</time>
				<extensions>
				</extensions>
			</trkpt>
			<trkpt lat="-27.812358" lon="153.028884">
				<ele>16</ele>
				<time>2015-05-07T07:44:42Z</time>
				<extensions>
				</extensions>
			</trkpt>
			<trkpt lat="-27.812158" lon="153.028863">
				<ele>17</ele>
				<time>2015-05-07T07:44:43Z</time>
				<extensions>
				</extensions>
			</trkpt>
			<trkpt lat="-27.811961" lon="153.028844">
				<ele>17</ele>
				<time>2015-05-07T07:44:44Z</time>
				<extensions>
				</extensions>
			</trkpt>
			<trkpt lat="-27.811757" lon="153.028817">
				<ele>17</ele>
				<time>2015-05-07T07:44:45Z</time>
				<extensions>
				</extensions>
			</trkpt>
			<trkpt lat="-27.811562" lon="153.028781">
				<ele>17</ele>
				<time>2015-05-07T07:44:46Z</time>
				<extensions>
				</extensions>
			</trkpt>
			<trkpt lat="-27.811365" lon="153.028739">
				<ele>17</ele>
				<time>2015-05-07T07:44:47Z</time>
				<extensions>
				</extensions>
			</trkpt>
			<trkpt lat="-27.811150" lon="153.028687">
				<ele>16</ele>
				<time>2015-05-07T07:44:48Z</time>
				<extensions>
				</extensions>
			</trkpt>
			<trkpt lat="-27.810949" lon="153.028642">
				<ele>17</ele>
				<time>2015-05-07T07:44:49Z</time>
				<extensions>
				</extensions>
			</trkpt>
			<trkpt lat="-27.810755" lon="153.028590">
				<ele>18</ele>
				<time>2015-05-07T07:44:50Z</time>
				<extensions>
				</extensions>
			</trkpt>
			<trkpt lat="-27.810554" lon="153.028527">
				<ele>19</ele>
				<time>2015-05-07T07:44:51Z</time>
				<extensions>
				</extensions>
			</trkpt>
			<trkpt lat="-27.810357" lon="153.028456">
				<ele>21</ele>
				<time>2015-05-07T07:44:52Z</time>
				<extensions>
				</extensions>
			</trkpt>
			<trkpt lat="-27.810157" lon="153.028383">
				<ele>21</ele>
				<time>2015-05-07T07:44:53Z</time>
				<extensions>
				</extensions>
			</trkpt>
			<trkpt lat="-27.809963" lon="153.028306">
				<ele>19</ele>
				<time>2015-05-07T07:44:54Z</time>
				<extensions>
				</extensions>
			</trkpt>
			<trkpt lat="-27.809765" lon="153.028228">
				<ele>20</ele>
				<time>2015-05-07T07:44:55Z</time>
				<extensions>
				</extensions>
			</trkpt>
			<trkpt lat="-27.809574" lon="153.028151">
				<ele>21</ele>
				<time>2015-05-07T07:44:56Z</time>
				<extensions>
				</extensions>
			</trkpt>
			<trkpt lat="-27.809370" lon="153.028072">
				<ele>22</ele>
				<time>2015-05-07T07:44:57Z</time>
				<extensions>
				</extensions>
			</trkpt>
			<trkpt lat="-27.809162" lon="153.027982">
				<ele>24</ele>
				<time>2015-05-07T07:44:58Z</time>
				<extensions>
				</extensions>
			</trkpt>
			<trkpt lat="-27.808955" lon="153.027890">
				<ele>23</ele>
				<time>2015-05-07T07:44:59Z</time>
				<extensions>
				</extensions>
			</trkpt>
			<trkpt lat="-27.808777" lon="153.027818">
				<ele>22</ele>
				<time>2015-05-07T07:45:00Z</time>
				<extensions>
				</extensions>
			</trkpt>
			<trkpt lat="-27.808588" lon="153.027742">
				<ele>24</ele>
				<time>2015-05-07T07:45:01Z</time>
				<extensions>
				</extensions>
			</trkpt>
			<trkpt lat="-27.808391" lon="153.027649">
				<ele>23</ele>
				<time>2015-05-07T07:45:02Z</time>
				<extensions>
				</extensions>
			</trkpt>
			<trkpt lat="-27.808193" lon="153.027561">
				<ele>23</ele>
				<time>2015-05-07T07:45:03Z</time>
				<extensions>
				</extensions>
			</trkpt>
			<trkpt lat="-27.808017" lon="153.027486">
				<ele>22</ele>
				<time>2015-05-07T07:45:04Z</time>
				<extensions>
				</extensions>
			</trkpt>
			<trkpt lat="-27.807825" lon="153.027398">
				<ele>24</ele>
				<time>2015-05-07T07:45:05Z</time>
				<extensions>
				</extensions>
			</trkpt>
			<trkpt lat="-27.807638" lon="153.027310">
				<ele>24</ele>
				<time>2015-05-07T07:45:06Z</time>
				<extensions>
				</extensions>
			</trkpt>
			<trkpt lat="-27.807454" lon="153.027223">
				<ele>23</ele>
				<time>2015-05-07T07:45:07Z</time>
				<extensions>
				</extensions>
			</trkpt>
			<trkpt lat="-27.807262" lon="153.027144">
				<ele>23</ele>
				<time>2015-05-07T07:45:08Z</time>
				<extensions>
				</extensions>
			</trkpt>
			<trkpt lat="-27.807073" lon="153.027062">
				<ele>23</ele>
				<time>2015-05-07T07:45:09Z</time>
				<extensions>
				</extensions>
			</trkpt>
			<trkpt lat="-27.806886" lon="153.026984">
				<ele>23</ele>
				<time>2015-05-07T07:45:10Z</time>
				<extensions>
				</extensions>
			</trkpt>
			<trkpt lat="-27.806691" lon="153.026899">
				<ele>25</ele>
				<time>2015-05-07T07:45:11Z</time>
				<extensions>
				</extensions>
			</trkpt>
			<trkpt lat="-27.806496" lon="153.026812">
				<ele>26</ele>
				<time>2015-05-07T07:45:12Z</time>
				<extensions>
				</extensions>
			</trkpt>
			<trkpt lat="-27.806312" lon="153.026728">
				<ele>26</ele>
				<time>2015-05-07T07:45:13Z</time>
				<extensions>
				</extensions>
			</trkpt>
			<trkpt lat="-27.806124" lon="153.026648">
				<ele>27</ele>
				<time>2015-05-07T07:45:14Z</time>
				<extensions>
				</extensions>
			</trkpt>
			<trkpt lat="-27.805931" lon="153.026562">
				<ele>27</ele>
				<time>2015-05-07T07:45:15Z</time>
				<extensions>
				</extensions>
			</trkpt>
			<trkpt lat="-27.805752" lon="153.026471">
				<ele>29</ele>
				<time>2015-05-07T07:45:16Z</time>
				<extensions>
				</extensions>
			</trkpt>
			<trkpt lat="-27.805564" lon="153.026370">
				<ele>29</ele>
				<time>2015-05-07T07:45:17Z</time>
				<extensions>
				</extensions>
			</trkpt>
			<trkpt lat="-27.805368" lon="153.026259">
				<ele>29</ele>
				<time>2015-05-07T07:45:18Z</time>
				<extensions>
				</extensions>
			</trkpt>
			<trkpt lat="-27.805136" lon="153.026126">
				<ele>30</ele>
				<time>2015-05-07T07:45:19Z</time>
				<extensions>
				</extensions>
			</trkpt>
			<trkpt lat="-27.804930" lon="153.025997">
				<ele>30</ele>
				<time>2015-05-07T07:45:20Z</time>
				<extensions>
				</extensions>
			</trkpt>
			<trkpt lat="-27.804747" lon="153.025863">
				<ele>30</ele>
				<time>2015-05-07T07:45:21Z</time>
				<extensions>
				</extensions>
			</trkpt>
			<trkpt lat="-27.804539" lon="153.025714">
				<ele>30</ele>
				<time>2015-05-07T07:45:22Z</time>
				<extensions>
				</extensions>
			</trkpt>
			<trkpt lat="-27.804363" lon="153.025572">
				<ele>31</ele>
				<time>2015-05-07T07:45:23Z</time>
				<extensions>
				</extensions>
			</trkpt>
			<trkpt lat="-27.804176" lon="153.025425">
				<ele>31</ele>
				<time>2015-05-07T07:45:24Z</time>
				<extensions>
				</extensions>
			</trkpt>
			<trkpt lat="-27.804004" lon="153.025283">
				<ele>32</ele>
				<time>2015-05-07T07:45:25Z</time>
				<extensions>
				</extensions>
			</trkpt>
			<trkpt lat="-27.803845" lon="153.025153">
				<ele>31</ele>
				<time>2015-05-07T07:45:26Z</time>
				<extensions>
				</extensions>
			</trkpt>
			<trkpt lat="-27.803638" lon="153.024980">
				<ele>31</ele>
				<time>2015-05-07T07:45:27Z</time>
				<extensions>
				</extensions>
			</trkpt>
			<trkpt lat="-27.803459" lon="153.024842">
				<ele>31</ele>
				<time>2015-05-07T07:45:28Z</time>
				<extensions>
				</extensions>
			</trkpt>
			<trkpt lat="-27.803245" lon="153.024662">
				<ele>30</ele>
				<time>2015-05-07T07:45:29Z</time>
				<extensions>
				</extensions>
			</trkpt>
			<trkpt lat="-27.803092" lon="153.024545">
				<ele>29</ele>
				<time>2015-05-07T07:45:30Z</time>
				<extensions>
				</extensions>
			</trkpt>
			<trkpt lat="-27.802920" lon="153.024419">
				<ele>29</ele>
				<time>2015-05-07T07:45:31Z</time>
				<extensions>
				</extensions>
			</trkpt>
			<trkpt lat="-27.802743" lon="153.024311">
				<ele>28</ele>
				<time>2015-05-07T07:45:32Z</time>
				<extensions>
				</extensions>
			</trkpt>
			<trkpt lat="-27.802563" lon="153.024196">
				<ele>28</ele>
				<time>2015-05-07T07:45:33Z</time>
				<extensions>
				</extensions>
			</trkpt>
			<trkpt lat="-27.802383" lon="153.024074">
				<ele>28</ele>
				<time>2015-05-07T07:45:34Z</time>
				<extensions>
				</extensions>
			</trkpt>
			<trkpt lat="-27.802158" lon="153.023914">
				<ele>28</ele>
				<time>2015-05-07T07:45:35Z</time>
				<extensions>
				</extensions>
			</trkpt>
			<trkpt lat="-27.801981" lon="153.023785">
				<ele>27</ele>
				<time>2015-05-07T07:45:36Z</time>
				<extensions>
				</extensions>
			</trkpt>
			<trkpt lat="-27.801807" lon="153.023661">
				<ele>26</ele>
				<time>2015-05-07T07:45:37Z</time>
				<extensions>
				</extensions>
			</trkpt>
			<trkpt lat="-27.801638" lon="153.023549">
				<ele>26</ele>
				<time>2015-05-07T07:45:38Z</time>
				<extensions>
				</extensions>
			</trkpt>
			<trkpt lat="-27.801449" lon="153.023443">
				<ele>26</ele>
				<time>2015-05-07T07:45:39Z</time>
				<extensions>
				</extensions>
			</trkpt>
			<trkpt lat="-27.801268" lon="153.023330">
				<ele>25</ele>
				<time>2015-05-07T07:45:40Z</time>
				<extensions>
				</extensions>
			</trkpt>
			<trkpt lat="-27.801076" lon="153.023227">
				<ele>25</ele>
				<time>2015-05-07T07:45:41Z</time>
				<extensions>
				</extensions>
			</trkpt>
			<trkpt lat="-27.800882" lon="153.023112">
				<ele>25</ele>
				<time>2015-05-07T07:45:42Z</time>
				<extensions>
				</extensions>
			</trkpt>
			<trkpt lat="-27.800680" lon="153.023005">
				<ele>24</ele>
				<time>2015-05-07T07:45:43Z</time>
				<extensions>
				</extensions>
			</trkpt>
			<trkpt lat="-27.800469" lon="153.022886">
				<ele>25</ele>
				<time>2015-05-07T07:45:44Z</time>
				<extensions>
				</extensions>
			</trkpt>
			<trkpt lat="-27.800254" lon="153.022775">
				<ele>24</ele>
				<time>2015-05-07T07:45:45Z</time>
				<extensions>
				</extensions>
			</trkpt>
			<trkpt lat="-27.800046" lon="153.022650">
				<ele>25</ele>
				<time>2015-05-07T07:45:46Z</time>
				<extensions>
				</extensions>
			</trkpt>
			<trkpt lat="-27.799836" lon="153.022523">
				<ele>24</ele>
				<time>2015-05-07T07:45:47Z</time>
				<extensions>
				</extensions>
			</trkpt>
			<trkpt lat="-27.799639" lon="153.022408">
				<ele>24</ele>
				<time>2015-05-07T07:45:48Z</time>
				<extensions>
				</extensions>
			</trkpt>
			<trkpt lat="-27.799428" lon="153.022289">
				<ele>23</ele>
				<time>2015-05-07T07:45:49Z</time>
				<extensions>
				</extensions>
			</trkpt>
			<trkpt lat="-27.799230" lon="153.022169">
				<ele>24</ele>
				<time>2015-05-07T07:45:50Z</time>
				<extensions>
				</extensions>
			</trkpt>
			<trkpt lat="-27.798998" lon="153.022039">
				<ele>23</ele>
				<time>2015-05-07T07:45:51Z</time>
				<extensions>
				</extensions>
			</trkpt>
			<trkpt lat="-27.798809" lon="153.021921">
				<ele>22</ele>
				<time>2015-05-07T07:45:52Z</time>
				<extensions>
				</extensions>
			</trkpt>
			<trkpt lat="-27.798613" lon="153.021797">
				<ele>24</ele>
				<time>2015-05-07T07:45:53Z</time>
				<extensions>
				</extensions>
			</trkpt>
			<trkpt lat="-27.798440" lon="153.021671">
				<ele>24</ele>
				<time>2015-05-07T07:45:54Z</time>
				<extensions>
				</extensions>
			</trkpt>
			<trkpt lat="-27.798246" lon="153.021537">
				<ele>24</ele>
				<time>2015-05-07T07:45:55Z</time>
				<extensions>
				</extensions>
			</trkpt>
			<trkpt lat="-27.798067" lon="153.021401">
				<ele>23</ele>
				<time>2015-05-07T07:45:56Z</time>
				<extensions>
				</extensions>
			</trkpt>
			<trkpt lat="-27.797883" lon="153.021275">
				<ele>21</ele>
				<time>2015-05-07T07:45:57Z</time>
				<extensions>
				</extensions>
			</trkpt>
			<trkpt lat="-27.797719" lon="153.021152">
				<ele>23</ele>
				<time>2015-05-07T07:45:58Z</time>
				<extensions>
				</extensions>
			</trkpt>
			<trkpt lat="-27.797555" lon="153.021027">
				<ele>24</ele>
				<time>2015-05-07T07:45:59Z</time>
				<extensions>
				</extensions>
			</trkpt>
			<trkpt lat="-27.797388" lon="153.020901">
				<ele>22</ele>
				<time>2015-05-07T07:46:00Z</time>
				<extensions>
				</extensions>
			</trkpt>
			<trkpt lat="-27.797233" lon="153.020770">
				<ele>23</ele>
				<time>2015-05-07T07:46:01Z</time>
				<extensions>
				</extensions>
			</trkpt>
			<trkpt lat="-27.797081" lon="153.020638">
				<ele>24</ele>
				<time>2015-05-07T07:46:02Z</time>
				<extensions>
				</extensions>
			</trkpt>
			<trkpt lat="-27.796908" lon="153.020504">
				<ele>25</ele>
				<time>2015-05-07T07:46:03Z</time>
				<extensions>
				</extensions>
			</trkpt>
			<trkpt lat="-27.796759" lon="153.020375">
				<ele>28</ele>
				<time>2015-05-07T07:46:04Z</time>
				<extensions>
				</extensions>
			</trkpt>
			<trkpt lat="-27.796608" lon="153.020232">
				<ele>27</ele>
				<time>2015-05-07T07:46:05Z</time>
				<extensions>
				</extensions>
			</trkpt>
			<trkpt lat="-27.796456" lon="153.020105">
				<ele>28</ele>
				<time>2015-05-07T07:46:06Z</time>
				<extensions>
				</extensions>
			</trkpt>
			<trkpt lat="-27.796308" lon="153.019953">
				<ele>29</ele>
				<time>2015-05-07T07:46:07Z</time>
				<extensions>
				</extensions>
			</trkpt>
			<trkpt lat="-27.796169" lon="153.019809">
				<ele>30</ele>
				<time>2015-05-07T07:46:08Z</time>
				<extensions>
				</extensions>
			</trkpt>
			<trkpt lat="-27.796015" lon="153.019662">
				<ele>29</ele>
				<time>2015-05-07T07:46:09Z</time>
				<extensions>
				</extensions>
			</trkpt>
			<trkpt lat="-27.795868" lon="153.019505">
				<ele>29</ele>
				<time>2015-05-07T07:46:10Z</time>
				<extensions>
				</extensions>
			</trkpt>
			<trkpt lat="-27.795726" lon="153.019346">
				<ele>30</ele>
				<time>2015-05-07T07:46:11Z</time>
				<extensions>
				</extensions>
			</trkpt>
			<trkpt lat="-27.795586" lon="153.019199">
				<ele>30</ele>
				<time>2015-05-07T07:46:12Z</time>
				<extensions>
				</extensions>
			</trkpt>
			<trkpt lat="-27.795439" lon="153.019045">
				<ele>32</ele>
				<time>2015-05-07T07:46:13Z</time>
				<extensions>
				</extensions>
			</trkpt>
			<trkpt lat="-27.795287" lon="153.018884">
				<ele>32</ele>
				<time>2015-05-07T07:46:14Z</time>
				<extensions>
				</extensions>
			</trkpt>
			<trkpt lat="-27.795117" lon="153.018711">
				<ele>33</ele>
				<time>2015-05-07T07:46:15Z</time>
				<extensions>
				</extensions>
			</trkpt>
			<trkpt lat="-27.794968" lon="153.018568">
				<ele>33</ele>
				<time>2015-05-07T07:46:16Z</time>
				<extensions>
				</extensions>
			</trkpt>
			<trkpt lat="-27.794824" lon="153.018432">
				<ele>33</ele>
				<time>2015-05-07T07:46:17Z</time>
				<extensions>
				</extensions>
			</trkpt>
			<trkpt lat="-27.794649" lon="153.018289">
				<ele>32</ele>
				<time>2015-05-07T07:46:18Z</time>
				<extensions>
				</extensions>
			</trkpt>
			<trkpt lat="-27.794492" lon="153.018162">
				<ele>34</ele>
				<time>2015-05-07T07:46:19Z</time>
				<extensions>
				</extensions>
			</trkpt>
			<trkpt lat="-27.794330" lon="153.018033">
				<ele>36</ele>
				<time>2015-05-07T07:46:20Z</time>
				<extensions>
				</extensions>
			</trkpt>
			<trkpt lat="-27.794164" lon="153.017905">
				<ele>33</ele>
				<time>2015-05-07T07:46:21Z</time>
				<extensions>
				</extensions>
			</trkpt>
			<trkpt lat="-27.794003" lon="153.017786">
				<ele>33</ele>
				<time>2015-05-07T07:46:22Z</time>
				<extensions>
				</extensions>
			</trkpt>
			<trkpt lat="-27.793837" lon="153.017660">
				<ele>32</ele>
				<time>2015-05-07T07:46:23Z</time>
				<extensions>
				</extensions>
			</trkpt>
			<trkpt lat="-27.793670" lon="153.017530">
				<ele>30</ele>
				<time>2015-05-07T07:46:24Z</time>
				<extensions>
				</extensions>
			</trkpt>
			<trkpt lat="-27.793502" lon="153.017407">
				<ele>30</ele>
				<time>2015-05-07T07:46:25Z</time>
				<extensions>
				</extensions>
			</trkpt>
			<trkpt lat="-27.793333" lon="153.017276">
				<ele>29</ele>
				<time>2015-05-07T07:46:26Z</time>
				<extensions>
				</extensions>
			</trkpt>
			<trkpt lat="-27.793164" lon="153.017130">
				<ele>28</ele>
				<time>2015-05-07T07:46:27Z</time>
				<extensions>
				</extensions>
			</trkpt>
			<trkpt lat="-27.792993" lon="153.016993">
				<ele>28</ele>
				<time>2015-05-07T07:46:28Z</time>
				<extensions>
				</extensions>
			</trkpt>
			<trkpt lat="-27.792818" lon="153.016867">
				<ele>28</ele>
				<time>2015-05-07T07:46:29Z</time>
				<extensions>
				</extensions>
			</trkpt>
			<trkpt lat="-27.792655" lon="153.016752">
				<ele>27</ele>
				<time>2015-05-07T07:46:30Z</time>
				<extensions>
				</extensions>
			</trkpt>
			<trkpt lat="-27.792491" lon="153.016631">
				<ele>25</ele>
				<time>2015-05-07T07:46:31Z</time>
				<extensions>
				</extensions>
			</trkpt>
			<trkpt lat="-27.792328" lon="153.016505">
				<ele>24</ele>
				<time>2015-05-07T07:46:32Z</time>
				<extensions>
				</extensions>
			</trkpt>
			<trkpt lat="-27.792164" lon="153.016384">
				<ele>23</ele>
				<time>2015-05-07T07:46:33Z</time>
				<extensions>
				</extensions>
			</trkpt>
			<trkpt lat="-27.791989" lon="153.016253">
				<ele>22</ele>
				<time>2015-05-07T07:46:34Z</time>
				<extensions>
				</extensions>
			</trkpt>
			<trkpt lat="-27.791823" lon="153.016145">
				<ele>21</ele>
				<time>2015-05-07T07:46:35Z</time>
				<extensions>
				</extensions>
			</trkpt>
			<trkpt lat="-27.791654" lon="153.016035">
				<ele>20</ele>
				<time>2015-05-07T07:46:36Z</time>
				<extensions>
				</extensions>
			</trkpt>
			<trkpt lat="-27.791485" lon="153.015920">
				<ele>20</ele>
				<time>2015-05-07T07:46:37Z</time>
				<extensions>
				</extensions>
			</trkpt>
			<trkpt lat="-27.791303" lon="153.015807">
				<ele>18</ele>
				<time>2015-05-07T07:46:38Z</time>
				<extensions>
				</extensions>
			</trkpt>
			<trkpt lat="-27.791121" lon="153.015704">
				<ele>19</ele>
				<time>2015-05-07T07:46:39Z</time>
				<extensions>
				</extensions>
			</trkpt>
			<trkpt lat="-27.790937" lon="153.015611">
				<ele>19</ele>
				<time>2015-05-07T07:46:40Z</time>
				<extensions>
				</extensions>
			</trkpt>
			<trkpt lat="-27.790742" lon="153.015520">
				<ele>18</ele>
				<time>2015-05-07T07:46:41Z</time>
				<extensions>
				</extensions>
			</trkpt>
			<trkpt lat="-27.790541" lon="153.015426">
				<ele>16</ele>
				<time>2015-05-07T07:46:42Z</time>
				<extensions>
				</extensions>
			</trkpt>
			<trkpt lat="-27.790344" lon="153.015337">
				<ele>16</ele>
				<time>2015-05-07T07:46:43Z</time>
				<extensions>
				</extensions>
			</trkpt>
			<trkpt lat="-27.790137" lon="153.015238">
				<ele>15</ele>
				<time>2015-05-07T07:46:44Z</time>
				<extensions>
				</extensions>
			</trkpt>
			<trkpt lat="-27.789943" lon="153.015134">
				<ele>14</ele>
				<time>2015-05-07T07:46:45Z</time>
				<extensions>
				</extensions>
			</trkpt>
			<trkpt lat="-27.789750" lon="153.015027">
				<ele>14</ele>
				<time>2015-05-07T07:46:46Z</time>
				<extensions>
				</extensions>
			</trkpt>
			<trkpt lat="-27.789559" lon="153.014915">
				<ele>12</ele>
				<time>2015-05-07T07:46:47Z</time>
				<extensions>
				</extensions>
			</trkpt>
			<trkpt lat="-27.789379" lon="153.014804">
				<ele>12</ele>
				<time>2015-05-07T07:46:48Z</time>
				<extensions>
				</extensions>
			</trkpt>
			<trkpt lat="-27.789199" lon="153.014690">
				<ele>13</ele>
				<time>2015-05-07T07:46:49Z</time>
				<extensions>
				</extensions>
			</trkpt>
			<trkpt lat="-27.789019" lon="153.014569">
				<ele>14</ele>
				<time>2015-05-07T07:46:50Z</time>
				<extensions>
				</extensions>
			</trkpt>
			<trkpt lat="-27.788834" lon="153.014435">
				<ele>13</ele>
				<time>2015-05-07T07:46:51Z</time>
				<extensions>
				</extensions>
			</trkpt>
			<trkpt lat="-27.788665" lon="153.014316">
				<ele>13</ele>
				<time>2015-05-07T07:46:52Z</time>
				<extensions>
				</extensions>
			</trkpt>
			<trkpt lat="-27.788480" lon="153.014185">
				<ele>12</ele>
				<time>2015-05-07T07:46:53Z</time>
				<extensions>
				</extensions>
			</trkpt>
			<trkpt lat="-27.788323" lon="153.014057">
				<ele>13</ele>
				<time>2015-05-07T07:46:54Z</time>
				<extensions>
				</extensions>
			</trkpt>
			<trkpt lat="-27.788161" lon="153.013923">
				<ele>13</ele>
				<time>2015-05-07T07:46:55Z</time>
				<extensions>
				</extensions>
			</trkpt>
			<trkpt lat="-27.788017" lon="153.013801">
				<ele>13</ele>
				<time>2015-05-07T07:46:56Z</time>
				<extensions>
				</extensions>
			</trkpt>
			<trkpt lat="-27.787738" lon="153.013576">
				<ele>16</ele>
				<time>2015-05-07T07:46:58Z</time>
				<extensions>
				</extensions>
			</trkpt>
			<trkpt lat="-27.787581" lon="153.013460">
				<ele>14</ele>
				<time>2015-05-07T07:46:59Z</time>
				<extensions>
				</extensions>
			</trkpt>
			<trkpt lat="-27.787420" lon="153.013349">
				<ele>13</ele>
				<time>2015-05-07T07:47:00Z</time>
				<extensions>
				</extensions>
			</trkpt>
			<trkpt lat="-27.787252" lon="153.013235">
				<ele>14</ele>
				<time>2015-05-07T07:47:01Z</time>
				<extensions>
				</extensions>
			</trkpt>
			<trkpt lat="-27.787091" lon="153.013132">
				<ele>13</ele>
				<time>2015-05-07T07:47:02Z</time>
				<extensions>
				</extensions>
			</trkpt>
			<trkpt lat="-27.786924" lon="153.013033">
				<ele>16</ele>
				<time>2015-05-07T07:47:03Z</time>
				<extensions>
				</extensions>
			</trkpt>
			<trkpt lat="-27.786757" lon="153.012935">
				<ele>16</ele>
				<time>2015-05-07T07:47:04Z</time>
				<extensions>
				</extensions>
			</trkpt>
			<trkpt lat="-27.786567" lon="153.012832">
				<ele>16</ele>
				<time>2015-05-07T07:47:05Z</time>
				<extensions>
				</extensions>
			</trkpt>
			<trkpt lat="-27.786380" lon="153.012730">
				<ele>16</ele>
				<time>2015-05-07T07:47:06Z</time>
				<extensions>
				</extensions>
			</trkpt>
			<trkpt lat="-27.786187" lon="153.012635">
				<ele>16</ele>
				<time>2015-05-07T07:47:07Z</time>
				<extensions>
				</extensions>
			</trkpt>
			<trkpt lat="-27.785992" lon="153.012545">
				<ele>15</ele>
				<time>2015-05-07T07:47:08Z</time>
				<extensions>
				</extensions>
			</trkpt>
			<trkpt lat="-27.785794" lon="153.012468">
				<ele>14</ele>
				<time>2015-05-07T07:47:09Z</time>
				<extensions>
				</extensions>
			</trkpt>
			<trkpt lat="-27.785589" lon="153.012393">
				<ele>15</ele>
				<time>2015-05-07T07:47:10Z</time>
				<extensions>
				</extensions>
			</trkpt>
			<trkpt lat="-27.785392" lon="153.012315">
				<ele>14</ele>
				<time>2015-05-07T07:47:11Z</time>
				<extensions>
				</extensions>
			</trkpt>
			<trkpt lat="-27.785196" lon="153.012236">
				<ele>13</ele>
				<time>2015-05-07T07:47:12Z</time>
				<extensions>
				</extensions>
			</trkpt>
			<trkpt lat="-27.784991" lon="153.012164">
				<ele>13</ele>
				<time>2015-05-07T07:47:13Z</time>
				<extensions>
				</extensions>
			</trkpt>
			<trkpt lat="-27.784799" lon="153.012083">
				<ele>13</ele>
				<time>2015-05-07T07:47:14Z</time>
				<extensions>
				</extensions>
			</trkpt>
			<trkpt lat="-27.784607" lon="153.012025">
				<ele>11</ele>
				<time>2015-05-07T07:47:15Z</time>
				<extensions>
				</extensions>
			</trkpt>
			<trkpt lat="-27.784419" lon="153.011948">
				<ele>12</ele>
				<time>2015-05-07T07:47:16Z</time>
				<extensions>
				</extensions>
			</trkpt>
			<trkpt lat="-27.784234" lon="153.011873">
				<ele>13</ele>
				<time>2015-05-07T07:47:17Z</time>
				<extensions>
				</extensions>
			</trkpt>
			<trkpt lat="-27.784042" lon="153.011807">
				<ele>12</ele>
				<time>2015-05-07T07:47:18Z</time>
				<extensions>
				</extensions>
			</trkpt>
			<trkpt lat="-27.783857" lon="153.011739">
				<ele>12</ele>
				<time>2015-05-07T07:47:19Z</time>
				<extensions>
				</extensions>
			</trkpt>
			<trkpt lat="-27.783667" lon="153.011682">
				<ele>12</ele>
				<time>2015-05-07T07:47:20Z</time>
				<extensions>
				</extensions>
			</trkpt>
			<trkpt lat="-27.783465" lon="153.011640">
				<ele>13</ele>
				<time>2015-05-07T07:47:21Z</time>
				<extensions>
				</extensions>
			</trkpt>
			<trkpt lat="-27.783284" lon="153.011623">
				<ele>13</ele>
				<time>2015-05-07T07:47:22Z</time>
				<extensions>
				</extensions>
			</trkpt>
			<trkpt lat="-27.783097" lon="153.011612">
				<ele>14</ele>
				<time>2015-05-07T07:47:23Z</time>
				<extensions>
				</extensions>
			</trkpt>
			<trkpt lat="-27.782893" lon="153.011603">
				<ele>13</ele>
				<time>2015-05-07T07:47:24Z</time>
				<extensions>
				</extensions>
			</trkpt>
			<trkpt lat="-27.782687" lon="153.011607">
				<ele>15</ele>
				<time>2015-05-07T07:47:25Z</time>
				<extensions>
				</extensions>
			</trkpt>
			<trkpt lat="-27.782489" lon="153.011626">
				<ele>14</ele>
				<time>2015-05-07T07:47:26Z</time>
				<extensions>
				</extensions>
			</trkpt>
			<trkpt lat="-27.782298" lon="153.011655">
				<ele>17</ele>
				<time>2015-05-07T07:47:27Z</time>
				<extensions>
				</extensions>
			</trkpt>
			<trkpt lat="-27.782115" lon="153.011702">
				<ele>16</ele>
				<time>2015-05-07T07:47:28Z</time>
				<extensions>
				</extensions>
			</trkpt>
			<trkpt lat="-27.781929" lon="153.011739">
				<ele>18</ele>
				<time>2015-05-07T07:47:29Z</time>
				<extensions>
				</extensions>
			</trkpt>
			<trkpt lat="-27.781738" lon="153.011776">
				<ele>17</ele>
				<time>2015-05-07T07:47:30Z</time>
				<extensions>
				</extensions>
			</trkpt>
			<trkpt lat="-27.781558" lon="153.011807">
				<ele>17</ele>
				<time>2015-05-07T07:47:31Z</time>
				<extensions>
				</extensions>
			</trkpt>
			<trkpt lat="-27.781375" lon="153.011844">
				<ele>17</ele>
				<time>2015-05-07T07:47:32Z</time>
				<extensions>
				</extensions>
			</trkpt>
			<trkpt lat="-27.781182" lon="153.011882">
				<ele>16</ele>
				<time>2015-05-07T07:47:33Z</time>
				<extensions>
				</extensions>
			</trkpt>
			<trkpt lat="-27.780999" lon="153.011923">
				<ele>16</ele>
				<time>2015-05-07T07:47:34Z</time>
				<extensions>
				</extensions>
			</trkpt>
			<trkpt lat="-27.780669" lon="153.012007">
				<ele>15</ele>
				<time>2015-05-07T07:47:36Z</time>
				<extensions>
				</extensions>
			</trkpt>
			<trkpt lat="-27.780332" lon="153.012083">
				<ele>14</ele>
				<time>2015-05-07T07:47:38Z</time>
				<extensions>
				</extensions>
			</trkpt>
			<trkpt lat="-27.780144" lon="153.012118">
				<ele>15</ele>
				<time>2015-05-07T07:47:39Z</time>
				<extensions>
				</extensions>
			</trkpt>
			<trkpt lat="-27.779964" lon="153.012152">
				<ele>15</ele>
				<time>2015-05-07T07:47:40Z</time>
				<extensions>
				</extensions>
			</trkpt>
			<trkpt lat="-27.779777" lon="153.012187">
				<ele>15</ele>
				<time>2015-05-07T07:47:41Z</time>
				<extensions>
				</extensions>
			</trkpt>
			<trkpt lat="-27.779574" lon="153.012228">
				<ele>14</ele>
				<time>2015-05-07T07:47:42Z</time>
				<extensions>
				</extensions>
			</trkpt>
			<trkpt lat="-27.779331" lon="153.012243">
				<ele>14</ele>
				<time>2015-05-07T07:47:43Z</time>
				<extensions>
				</extensions>
			</trkpt>
			<trkpt lat="-27.779132" lon="153.012281">
				<ele>14</ele>
				<time>2015-05-07T07:47:44Z</time>
				<extensions>
				</extensions>
			</trkpt>
			<trkpt lat="-27.778938" lon="153.012325">
				<ele>16</ele>
				<time>2015-05-07T07:47:45Z</time>
				<extensions>
				</extensions>
			</trkpt>
			<trkpt lat="-27.778731" lon="153.012361">
				<ele>17</ele>
				<time>2015-05-07T07:47:46Z</time>
				<extensions>
				</extensions>
			</trkpt>
			<trkpt lat="-27.778524" lon="153.012400">
				<ele>16</ele>
				<time>2015-05-07T07:47:47Z</time>
				<extensions>
				</extensions>
			</trkpt>
			<trkpt lat="-27.778325" lon="153.012431">
				<ele>17</ele>
				<time>2015-05-07T07:47:48Z</time>
				<extensions>
				</extensions>
			</trkpt>
			<trkpt lat="-27.778147" lon="153.012465">
				<ele>17</ele>
				<time>2015-05-07T07:47:49Z</time>
				<extensions>
				</extensions>
			</trkpt>
			<trkpt lat="-27.777951" lon="153.012509">
				<ele>16</ele>
				<time>2015-05-07T07:47:50Z</time>
				<extensions>
				</extensions>
			</trkpt>
			<trkpt lat="-27.777769" lon="153.012558">
				<ele>16</ele>
				<time>2015-05-07T07:47:51Z</time>
				<extensions>
				</extensions>
			</trkpt>
			<trkpt lat="-27.777583" lon="153.012604">
				<ele>17</ele>
				<time>2015-05-07T07:47:52Z</time>
				<extensions>
				</extensions>
			</trkpt>
			<trkpt lat="-27.777257" lon="153.012712">
				<ele>17</ele>
				<time>2015-05-07T07:47:54Z</time>
				<extensions>
				</extensions>
			</trkpt>
			<trkpt lat="-27.777083" lon="153.012774">
				<ele>16</ele>
				<time>2015-05-07T07:47:55Z</time>
				<extensions>
				</extensions>
			</trkpt>
			<trkpt lat="-27.776909" lon="153.012840">
				<ele>16</ele>
				<time>2015-05-07T07:47:56Z</time>
				<extensions>
				</extensions>
			</trkpt>
			<trkpt lat="-27.776563" lon="153.012999">
				<ele>15</ele>
				<time>2015-05-07T07:47:58Z</time>
				<extensions>
				</extensions>
			</trkpt>
			<trkpt lat="-27.776385" lon="153.013095">
				<ele>15</ele>
				<time>2015-05-07T07:47:59Z</time>
				<extensions>
				</extensions>
			</trkpt>
			<trkpt lat="-27.776180" lon="153.013196">
				<ele>16</ele>
				<time>2015-05-07T07:48:00Z</time>
				<extensions>
				</extensions>
			</trkpt>
			<trkpt lat="-27.776002" lon="153.013303">
				<ele>18</ele>
				<time>2015-05-07T07:48:01Z</time>
				<extensions>
				</extensions>
			</trkpt>
			<trkpt lat="-27.775824" lon="153.013416">
				<ele>18</ele>
				<time>2015-05-07T07:48:02Z</time>
				<extensions>
				</extensions>
			</trkpt>
			<trkpt lat="-27.775640" lon="153.013522">
				<ele>17</ele>
				<time>2015-05-07T07:48:03Z</time>
				<extensions>
				</extensions>
			</trkpt>
			<trkpt lat="-27.775446" lon="153.013631">
				<ele>16</ele>
				<time>2015-05-07T07:48:04Z</time>
				<extensions>
				</extensions>
			</trkpt>
			<trkpt lat="-27.775268" lon="153.013735">
				<ele>17</ele>
				<time>2015-05-07T07:48:05Z</time>
				<extensions>
				</extensions>
			</trkpt>
			<trkpt lat="-27.775092" lon="153.013843">
				<ele>17</ele>
				<time>2015-05-07T07:48:06Z</time>
				<extensions>
				</extensions>
			</trkpt>
			<trkpt lat="-27.774913" lon="153.013963">
				<ele>17</ele>
				<time>2015-05-07T07:48:07Z</time>
				<extensions>
				</extensions>
			</trkpt>
			<trkpt lat="-27.774728" lon="153.014067">
				<ele>17</ele>
				<time>2015-05-07T07:48:08Z</time>
				<extensions>
				</extensions>
			</trkpt>
			<trkpt lat="-27.774549" lon="153.014162">
				<ele>18</ele>
				<time>2015-05-07T07:48:09Z</time>
				<extensions>
				</extensions>
			</trkpt>
			<trkpt lat="-27.774366" lon="153.014250">
				<ele>18</ele>
				<time>2015-05-07T07:48:10Z</time>
				<extensions>
				</extensions>
			</trkpt>
			<trkpt lat="-27.774180" lon="153.014329">
				<ele>19</ele>
				<time>2015-05-07T07:48:11Z</time>
				<extensions>
				</extensions>
			</trkpt>
			<trkpt lat="-27.773977" lon="153.014403">
				<ele>20</ele>
				<time>2015-05-07T07:48:12Z</time>
				<extensions>
				</extensions>
			</trkpt>
			<trkpt lat="-27.773776" lon="153.014474">
				<ele>21</ele>
				<time>2015-05-07T07:48:13Z</time>
				<extensions>
				</extensions>
			</trkpt>
			<trkpt lat="-27.773593" lon="153.014541">
				<ele>20</ele>
				<time>2015-05-07T07:48:14Z</time>
				<extensions>
				</extensions>
			</trkpt>
			<trkpt lat="-27.773405" lon="153.014604">
				<ele>19</ele>
				<time>2015-05-07T07:48:15Z</time>
				<extensions>
				</extensions>
			</trkpt>
			<trkpt lat="-27.773215" lon="153.014668">
				<ele>19</ele>
				<time>2015-05-07T07:48:16Z</time>
				<extensions>
				</extensions>
			</trkpt>
			<trkpt lat="-27.772897" lon="153.014799">
				<ele>21</ele>
				<time>2015-05-07T07:48:18Z</time>
				<extensions>
				</extensions>
			</trkpt>
			<trkpt lat="-27.772568" lon="153.014934">
				<ele>21</ele>
				<time>2015-05-07T07:48:20Z</time>
				<extensions>
				</extensions>
			</trkpt>
			<trkpt lat="-27.772390" lon="153.015000">
				<ele>21</ele>
				<time>2015-05-07T07:48:21Z</time>
				<extensions>
				</extensions>
			</trkpt>
			<trkpt lat="-27.772210" lon="153.015072">
				<ele>21</ele>
				<time>2015-05-07T07:48:22Z</time>
				<extensions>
				</extensions>
			</trkpt>
			<trkpt lat="-27.772036" lon="153.015137">
				<ele>22</ele>
				<time>2015-05-07T07:48:23Z</time>
				<extensions>
				</extensions>
			</trkpt>
			<trkpt lat="-27.771861" lon="153.015194">
				<ele>22</ele>
				<time>2015-05-07T07:48:24Z</time>
				<extensions>
				</extensions>
			</trkpt>
			<trkpt lat="-27.771684" lon="153.015262">
				<ele>22</ele>
				<time>2015-05-07T07:48:25Z</time>
				<extensions>
				</extensions>
			</trkpt>
			<trkpt lat="-27.771517" lon="153.015340">
				<ele>22</ele>
				<time>2015-05-07T07:48:26Z</time>
				<extensions>
				</extensions>
			</trkpt>
			<trkpt lat="-27.771171" lon="153.015496">
				<ele>19</ele>
				<time>2015-05-07T07:48:28Z</time>
				<extensions>
				</extensions>
			</trkpt>
			<trkpt lat="-27.770848" lon="153.015652">
				<ele>19</ele>
				<time>2015-05-07T07:48:30Z</time>
				<extensions>
				</extensions>
			</trkpt>
			<trkpt lat="-27.770677" lon="153.015742">
				<ele>20</ele>
				<time>2015-05-07T07:48:31Z</time>
				<extensions>
				</extensions>
			</trkpt>
			<trkpt lat="-27.770503" lon="153.015823">
				<ele>19</ele>
				<time>2015-05-07T07:48:32Z</time>
				<extensions>
				</extensions>
			</trkpt>
			<trkpt lat="-27.770301" lon="153.015899">
				<ele>19</ele>
				<time>2015-05-07T07:48:33Z</time>
				<extensions>
				</extensions>
			</trkpt>
			<trkpt lat="-27.769976" lon="153.016069">
				<ele>21</ele>
				<time>2015-05-07T07:48:35Z</time>
				<extensions>
				</extensions>
			</trkpt>
			<trkpt lat="-27.769798" lon="153.016161">
				<ele>21</ele>
				<time>2015-05-07T07:48:36Z</time>
				<extensions>
				</extensions>
			</trkpt>
			<trkpt lat="-27.769619" lon="153.016244">
				<ele>20</ele>
				<time>2015-05-07T07:48:37Z</time>
				<extensions>
				</extensions>
			</trkpt>
			<trkpt lat="-27.769416" lon="153.016320">
				<ele>21</ele>
				<time>2015-05-07T07:48:38Z</time>
				<extensions>
				</extensions>
			</trkpt>
			<trkpt lat="-27.769223" lon="153.016409">
				<ele>22</ele>
				<time>2015-05-07T07:48:39Z</time>
				<extensions>
				</extensions>
			</trkpt>
			<trkpt lat="-27.769058" lon="153.016507">
				<ele>21</ele>
				<time>2015-05-07T07:48:40Z</time>
				<extensions>
				</extensions>
			</trkpt>
			<trkpt lat="-27.768863" lon="153.016608">
				<ele>23</ele>
				<time>2015-05-07T07:48:41Z</time>
				<extensions>
				</extensions>
			</trkpt>
			<trkpt lat="-27.768667" lon="153.016700">
				<ele>25</ele>
				<time>2015-05-07T07:48:42Z</time>
				<extensions>
				</extensions>
			</trkpt>
			<trkpt lat="-27.768477" lon="153.016785">
				<ele>25</ele>
				<time>2015-05-07T07:48:43Z</time>
				<extensions>
				</extensions>
			</trkpt>
			<trkpt lat="-27.768277" lon="153.016865">
				<ele>24</ele>
				<time>2015-05-07T07:48:44Z</time>
				<extensions>
				</extensions>
			</trkpt>
			<trkpt lat="-27.768101" lon="153.016958">
				<ele>25</ele>
				<time>2015-05-07T07:48:45Z</time>
				<extensions>
				</extensions>
			</trkpt>
			<trkpt lat="-27.767915" lon="153.017057">
				<ele>26</ele>
				<time>2015-05-07T07:48:46Z</time>
				<extensions>
				</extensions>
			</trkpt>
			<trkpt lat="-27.767715" lon="153.017150">
				<ele>26</ele>
				<time>2015-05-07T07:48:47Z</time>
				<extensions>
				</extensions>
			</trkpt>
			<trkpt lat="-27.767507" lon="153.017247">
				<ele>25</ele>
				<time>2015-05-07T07:48:48Z</time>
				<extensions>
				</extensions>
			</trkpt>
			<trkpt lat="-27.767258" lon="153.017337">
				<ele>24</ele>
				<time>2015-05-07T07:48:49Z</time>
				<extensions>
				</extensions>
			</trkpt>
			<trkpt lat="-27.767064" lon="153.017439">
				<ele>22</ele>
				<time>2015-05-07T07:48:50Z</time>
				<extensions>
				</extensions>
			</trkpt>
			<trkpt lat="-27.766871" lon="153.017533">
				<ele>22</ele>
				<time>2015-05-07T07:48:51Z</time>
				<extensions>
				</extensions>
			</trkpt>
			<trkpt lat="-27.766673" lon="153.017613">
				<ele>23</ele>
				<time>2015-05-07T07:48:52Z</time>
				<extensions>
				</extensions>
			</trkpt>
			<trkpt lat="-27.766451" lon="153.017689">
				<ele>23</ele>
				<time>2015-05-07T07:48:53Z</time>
				<extensions>
				</extensions>
			</trkpt>
			<trkpt lat="-27.766232" lon="153.017772">
				<ele>23</ele>
				<time>2015-05-07T07:48:54Z</time>
				<extensions>
				</extensions>
			</trkpt>
			<trkpt lat="-27.766015" lon="153.017836">
				<ele>25</ele>
				<time>2015-05-07T07:48:55Z</time>
				<extensions>
				</extensions>
			</trkpt>
			<trkpt lat="-27.765801" lon="153.017888">
				<ele>25</ele>
				<time>2015-05-07T07:48:56Z</time>
				<extensions>
				</extensions>
			</trkpt>
			<trkpt lat="-27.765585" lon="153.017932">
				<ele>24</ele>
				<time>2015-05-07T07:48:57Z</time>
				<extensions>
				</extensions>
			</trkpt>
			<trkpt lat="-27.765374" lon="153.017979">
				<ele>23</ele>
				<time>2015-05-07T07:48:58Z</time>
				<extensions>
				</extensions>
			</trkpt>
			<trkpt lat="-27.765161" lon="153.018024">
				<ele>22</ele>
				<time>2015-05-07T07:48:59Z</time>
				<extensions>
				</extensions>
			</trkpt>
			<trkpt lat="-27.764942" lon="153.018065">
				<ele>20</ele>
				<time>2015-05-07T07:49:00Z</time>
				<extensions>
				</extensions>
			</trkpt>
			<trkpt lat="-27.764736" lon="153.018114">
				<ele>20</ele>
				<time>2015-05-07T07:49:01Z</time>
				<extensions>
				</extensions>
			</trkpt>
			<trkpt lat="-27.764527" lon="153.018169">
				<ele>20</ele>
				<time>2015-05-07T07:49:02Z</time>
				<extensions>
				</extensions>
			</trkpt>
			<trkpt lat="-27.764321" lon="153.018236">
				<ele>21</ele>
				<time>2015-05-07T07:49:03Z</time>
				<extensions>
				</extensions>
			</trkpt>
			<trkpt lat="-27.764136" lon="153.018316">
				<ele>21</ele>
				<time>2015-05-07T07:49:04Z</time>
				<extensions>
				</extensions>
			</trkpt>
			<trkpt lat="-27.763926" lon="153.018403">
				<ele>21</ele>
				<time>2015-05-07T07:49:05Z</time>
				<extensions>
				</extensions>
			</trkpt>
			<trkpt lat="-27.763723" lon="153.018479">
				<ele>21</ele>
				<time>2015-05-07T07:49:06Z</time>
				<extensions>
				</extensions>
			</trkpt>
			<trkpt lat="-27.763510" lon="153.018572">
				<ele>20</ele>
				<time>2015-05-07T07:49:07Z</time>
				<extensions>
				</extensions>
			</trkpt>
			<trkpt lat="-27.763323" lon="153.018665">
				<ele>20</ele>
				<time>2015-05-07T07:49:08Z</time>
				<extensions>
				</extensions>
			</trkpt>
			<trkpt lat="-27.763123" lon="153.018769">
				<ele>21</ele>
				<time>2015-05-07T07:49:09Z</time>
				<extensions>
				</extensions>
			</trkpt>
			<trkpt lat="-27.762913" lon="153.018885">
				<ele>21</ele>
				<time>2015-05-07T07:49:10Z</time>
				<extensions>
				</extensions>
			</trkpt>
			<trkpt lat="-27.762701" lon="153.019004">
				<ele>21</ele>
				<time>2015-05-07T07:49:11Z</time>
				<extensions>
				</extensions>
			</trkpt>
			<trkpt lat="-27.762488" lon="153.019119">
				<ele>21</ele>
				<time>2015-05-07T07:49:12Z</time>
				<extensions>
				</extensions>
			</trkpt>
			<trkpt lat="-27.762293" lon="153.019245">
				<ele>20</ele>
				<time>2015-05-07T07:49:13Z</time>
				<extensions>
				</extensions>
			</trkpt>
			<trkpt lat="-27.762108" lon="153.019378">
				<ele>20</ele>
				<time>2015-05-07T07:49:14Z</time>
				<extensions>
				</extensions>
			</trkpt>
			<trkpt lat="-27.761931" lon="153.019513">
				<ele>18</ele>
				<time>2015-05-07T07:49:15Z</time>
				<extensions>
				</extensions>
			</trkpt>
			<trkpt lat="-27.761759" lon="153.019650">
				<ele>18</ele>
				<time>2015-05-07T07:49:16Z</time>
				<extensions>
				</extensions>
			</trkpt>
			<trkpt lat="-27.761609" lon="153.019807">
				<ele>18</ele>
				<time>2015-05-07T07:49:17Z</time>
				<extensions>
				</extensions>
			</trkpt>
			<trkpt lat="-27.761440" lon="153.019947">
				<ele>17</ele>
				<time>2015-05-07T07:49:18Z</time>
				<extensions>
				</extensions>
			</trkpt>
			<trkpt lat="-27.761275" lon="153.020093">
				<ele>17</ele>
				<time>2015-05-07T07:49:19Z</time>
				<extensions>
				</extensions>
			</trkpt>
			<trkpt lat="-27.761115" lon="153.020248">
				<ele>18</ele>
				<time>2015-05-07T07:49:20Z</time>
				<extensions>
				</extensions>
			</trkpt>
			<trkpt lat="-27.760945" lon="153.020396">
				<ele>18</ele>
				<time>2015-05-07T07:49:21Z</time>
				<extensions>
				</extensions>
			</trkpt>
			<trkpt lat="-27.760771" lon="153.020560">
				<ele>19</ele>
				<time>2015-05-07T07:49:22Z</time>
				<extensions>
				</extensions>
			</trkpt>
			<trkpt lat="-27.760593" lon="153.020730">
				<ele>19</ele>
				<time>2015-05-07T07:49:23Z</time>
				<extensions>
				</extensions>
			</trkpt>
			<trkpt lat="-27.760426" lon="153.020892">
				<ele>18</ele>
				<time>2015-05-07T07:49:24Z</time>
				<extensions>
				</extensions>
			</trkpt>
			<trkpt lat="-27.760242" lon="153.021053">
				<ele>19</ele>
				<time>2015-05-07T07:49:25Z</time>
				<extensions>
				</extensions>
			</trkpt>
			<trkpt lat="-27.760070" lon="153.021203">
				<ele>19</ele>
				<time>2015-05-07T07:49:26Z</time>
				<extensions>
				</extensions>
			</trkpt>
			<trkpt lat="-27.759907" lon="153.021362">
				<ele>19</ele>
				<time>2015-05-07T07:49:27Z</time>
				<extensions>
				</extensions>
			</trkpt>
			<trkpt lat="-27.759731" lon="153.021509">
				<ele>20</ele>
				<time>2015-05-07T07:49:28Z</time>
				<extensions>
				</extensions>
			</trkpt>
			<trkpt lat="-27.759558" lon="153.021658">
				<ele>22</ele>
				<time>2015-05-07T07:49:29Z</time>
				<extensions>
				</extensions>
			</trkpt>
			<trkpt lat="-27.759374" lon="153.021797">
				<ele>23</ele>
				<time>2015-05-07T07:49:30Z</time>
				<extensions>
				</extensions>
			</trkpt>
			<trkpt lat="-27.759191" lon="153.021939">
				<ele>24</ele>
				<time>2015-05-07T07:49:31Z</time>
				<extensions>
				</extensions>
			</trkpt>
			<trkpt lat="-27.758996" lon="153.022071">
				<ele>24</ele>
				<time>2015-05-07T07:49:32Z</time>
				<extensions>
				</extensions>
			</trkpt>
			<trkpt lat="-27.758800" lon="153.022200">
				<ele>25</ele>
				<time>2015-05-07T07:49:33Z</time>
				<extensions>
				</extensions>
			</trkpt>
			<trkpt lat="-27.758602" lon="153.022330">
				<ele>25</ele>
				<time>2015-05-07T07:49:34Z</time>
				<extensions>
				</extensions>
			</trkpt>
			<trkpt lat="-27.758420" lon="153.022457">
				<ele>25</ele>
				<time>2015-05-07T07:49:35Z</time>
				<extensions>
				</extensions>
			</trkpt>
			<trkpt lat="-27.758218" lon="153.022571">
				<ele>25</ele>
				<time>2015-05-07T07:49:36Z</time>
				<extensions>
				</extensions>
			</trkpt>
			<trkpt lat="-27.758013" lon="153.022681">
				<ele>26</ele>
				<time>2015-05-07T07:49:37Z</time>
				<extensions>
				</extensions>
			</trkpt>
			<trkpt lat="-27.757810" lon="153.022791">
				<ele>25</ele>
				<time>2015-05-07T07:49:38Z</time>
				<extensions>
				</extensions>
			</trkpt>
			<trkpt lat="-27.757619" lon="153.022897">
				<ele>25</ele>
				<time>2015-05-07T07:49:39Z</time>
				<extensions>
				</extensions>
			</trkpt>
			<trkpt lat="-27.757412" lon="153.022994">
				<ele>26</ele>
				<time>2015-05-07T07:49:40Z</time>
				<extensions>
				</extensions>
			</trkpt>
			<trkpt lat="-27.757204" lon="153.023089">
				<ele>26</ele>
				<time>2015-05-07T07:49:41Z</time>
				<extensions>
				</extensions>
			</trkpt>
			<trkpt lat="-27.756998" lon="153.023191">
				<ele>25</ele>
				<time>2015-05-07T07:49:42Z</time>
				<extensions>
				</extensions>
			</trkpt>
			<trkpt lat="-27.756787" lon="153.023289">
				<ele>26</ele>
				<time>2015-05-07T07:49:43Z</time>
				<extensions>
				</extensions>
			</trkpt>
			<trkpt lat="-27.756580" lon="153.023383">
				<ele>25</ele>
				<time>2015-05-07T07:49:44Z</time>
				<extensions>
				</extensions>
			</trkpt>
			<trkpt lat="-27.756360" lon="153.023473">
				<ele>25</ele>
				<time>2015-05-07T07:49:45Z</time>
				<extensions>
				</extensions>
			</trkpt>
			<trkpt lat="-27.756129" lon="153.023556">
				<ele>24</ele>
				<time>2015-05-07T07:49:46Z</time>
				<extensions>
				</extensions>
			</trkpt>
			<trkpt lat="-27.755927" lon="153.023650">
				<ele>24</ele>
				<time>2015-05-07T07:49:47Z</time>
				<extensions>
				</extensions>
			</trkpt>
			<trkpt lat="-27.755714" lon="153.023737">
				<ele>24</ele>
				<time>2015-05-07T07:49:48Z</time>
				<extensions>
				</extensions>
			</trkpt>
			<trkpt lat="-27.755527" lon="153.023834">
				<ele>24</ele>
				<time>2015-05-07T07:49:49Z</time>
				<extensions>
				</extensions>
			</trkpt>
			<trkpt lat="-27.755316" lon="153.023920">
				<ele>22</ele>
				<time>2015-05-07T07:49:50Z</time>
				<extensions>
				</extensions>
			</trkpt>
			<trkpt lat="-27.755120" lon="153.024008">
				<ele>20</ele>
				<time>2015-05-07T07:49:51Z</time>
				<extensions>
				</extensions>
			</trkpt>
			<trkpt lat="-27.754914" lon="153.024094">
				<ele>20</ele>
				<time>2015-05-07T07:49:52Z</time>
				<extensions>
				</extensions>
			</trkpt>
			<trkpt lat="-27.754729" lon="153.024189">
				<ele>20</ele>
				<time>2015-05-07T07:49:53Z</time>
				<extensions>
				</extensions>
			</trkpt>
			<trkpt lat="-27.754548" lon="153.024284">
				<ele>19</ele>
				<time>2015-05-07T07:49:54Z</time>
				<extensions>
				</extensions>
			</trkpt>
			<trkpt lat="-27.754380" lon="153.024382">
				<ele>18</ele>
				<time>2015-05-07T07:49:55Z</time>
				<extensions>
				</extensions>
			</trkpt>
			<trkpt lat="-27.754192" lon="153.024488">
				<ele>18</ele>
				<time>2015-05-07T07:49:56Z</time>
				<extensions>
				</extensions>
			</trkpt>
			<trkpt lat="-27.753992" lon="153.024589">
				<ele>17</ele>
				<time>2015-05-07T07:49:57Z</time>
				<extensions>
				</extensions>
			</trkpt>
			<trkpt lat="-27.753799" lon="153.024693">
				<ele>17</ele>
				<time>2015-05-07T07:49:58Z</time>
				<extensions>
				</extensions>
			</trkpt>
			<trkpt lat="-27.753607" lon="153.024794">
				<ele>15</ele>
				<time>2015-05-07T07:49:59Z</time>
				<extensions>
				</extensions>
			</trkpt>
			<trkpt lat="-27.753412" lon="153.024895">
				<ele>15</ele>
				<time>2015-05-07T07:50:00Z</time>
				<extensions>
				</extensions>
			</trkpt>
			<trkpt lat="-27.753234" lon="153.025004">
				<ele>15</ele>
				<time>2015-05-07T07:50:01Z</time>
				<extensions>
				</extensions>
			</trkpt>
			<trkpt lat="-27.753019" lon="153.025101">
				<ele>14</ele>
				<time>2015-05-07T07:50:02Z</time>
				<extensions>
				</extensions>
			</trkpt>
			<trkpt lat="-27.752789" lon="153.025188">
				<ele>13</ele>
				<time>2015-05-07T07:50:03Z</time>
				<extensions>
				</extensions>
			</trkpt>
			<trkpt lat="-27.752589" lon="153.025287">
				<ele>15</ele>
				<time>2015-05-07T07:50:04Z</time>
				<extensions>
				</extensions>
			</trkpt>
			<trkpt lat="-27.752387" lon="153.025369">
				<ele>15</ele>
				<time>2015-05-07T07:50:05Z</time>
				<extensions>
				</extensions>
			</trkpt>
			<trkpt lat="-27.752188" lon="153.025436">
				<ele>16</ele>
				<time>2015-05-07T07:50:06Z</time>
				<extensions>
				</extensions>
			</trkpt>
			<trkpt lat="-27.751976" lon="153.025505">
				<ele>15</ele>
				<time>2015-05-07T07:50:07Z</time>
				<extensions>
				</extensions>
			</trkpt>
			<trkpt lat="-27.751779" lon="153.025561">
				<ele>16</ele>
				<time>2015-05-07T07:50:08Z</time>
				<extensions>
				</extensions>
			</trkpt>
			<trkpt lat="-27.751577" lon="153.025620">
				<ele>16</ele>
				<time>2015-05-07T07:50:09Z</time>
				<extensions>
				</extensions>
			</trkpt>
			<trkpt lat="-27.751387" lon="153.025631">
				<ele>15</ele>
				<time>2015-05-07T07:50:10Z</time>
				<extensions>
				</extensions>
			</trkpt>
			<trkpt lat="-27.751181" lon="153.025667">
				<ele>16</ele>
				<time>2015-05-07T07:50:11Z</time>
				<extensions>
				</extensions>
			</trkpt>
			<trkpt lat="-27.750967" lon="153.025699">
				<ele>17</ele>
				<time>2015-05-07T07:50:12Z</time>
				<extensions>
				</extensions>
			</trkpt>
			<trkpt lat="-27.750747" lon="153.025722">
				<ele>18</ele>
				<time>2015-05-07T07:50:13Z</time>
				<extensions>
				</extensions>
			</trkpt>
			<trkpt lat="-27.750373" lon="153.025755">
				<ele>18</ele>
				<time>2015-05-07T07:50:15Z</time>
				<extensions>
				</extensions>
			</trkpt>
			<trkpt lat="-27.750170" lon="153.025765">
				<ele>18</ele>
				<time>2015-05-07T07:50:16Z</time>
				<extensions>
				</extensions>
			</trkpt>
			<trkpt lat="-27.749965" lon="153.025776">
				<ele>18</ele>
				<time>2015-05-07T07:50:17Z</time>
				<extensions>
				</extensions>
			</trkpt>
			<trkpt lat="-27.749760" lon="153.025782">
				<ele>19</ele>
				<time>2015-05-07T07:50:18Z</time>
				<extensions>
				</extensions>
			</trkpt>
			<trkpt lat="-27.749547" lon="153.025788">
				<ele>19</ele>
				<time>2015-05-07T07:50:19Z</time>
				<extensions>
				</extensions>
			</trkpt>
			<trkpt lat="-27.749342" lon="153.025786">
				<ele>19</ele>
				<time>2015-05-07T07:50:20Z</time>
				<extensions>
				</extensions>
			</trkpt>
			<trkpt lat="-27.749150" lon="153.025796">
				<ele>20</ele>
				<time>2015-05-07T07:50:21Z</time>
				<extensions>
				</extensions>
			</trkpt>
			<trkpt lat="-27.748942" lon="153.025802">
				<ele>22</ele>
				<time>2015-05-07T07:50:22Z</time>
				<extensions>
				</extensions>
			</trkpt>
			<trkpt lat="-27.748721" lon="153.025807">
				<ele>24</ele>
				<time>2015-05-07T07:50:23Z</time>
				<extensions>
				</extensions>
			</trkpt>
			<trkpt lat="-27.748488" lon="153.025807">
				<ele>24</ele>
				<time>2015-05-07T07:50:24Z</time>
				<extensions>
				</extensions>
			</trkpt>
			<trkpt lat="-27.748266" lon="153.025817">
				<ele>28</ele>
				<time>2015-05-07T07:50:25Z</time>
				<extensions>
				</extensions>
			</trkpt>
			<trkpt lat="-27.748040" lon="153.025822">
				<ele>30</ele>
				<time>2015-05-07T07:50:26Z</time>
				<extensions>
				</extensions>
			</trkpt>
			<trkpt lat="-27.747827" lon="153.025831">
				<ele>31</ele>
				<time>2015-05-07T07:50:27Z</time>
				<extensions>
				</extensions>
			</trkpt>
			<trkpt lat="-27.747608" lon="153.025842">
				<ele>30</ele>
				<time>2015-05-07T07:50:28Z</time>
				<extensions>
				</extensions>
			</trkpt>
			<trkpt lat="-27.747398" lon="153.025846">
				<ele>28</ele>
				<time>2015-05-07T07:50:29Z</time>
				<extensions>
				</extensions>
			</trkpt>
			<trkpt lat="-27.747196" lon="153.025849">
				<ele>29</ele>
				<time>2015-05-07T07:50:30Z</time>
				<extensions>
				</extensions>
			</trkpt>
			<trkpt lat="-27.746984" lon="153.025854">
				<ele>29</ele>
				<time>2015-05-07T07:50:31Z</time>
				<extensions>
				</extensions>
			</trkpt>
			<trkpt lat="-27.746775" lon="153.025856">
				<ele>31</ele>
				<time>2015-05-07T07:50:32Z</time>
				<extensions>
				</extensions>
			</trkpt>
			<trkpt lat="-27.746548" lon="153.025866">
				<ele>33</ele>
				<time>2015-05-07T07:50:33Z</time>
				<extensions>
				</extensions>
			</trkpt>
			<trkpt lat="-27.746330" lon="153.025884">
				<ele>34</ele>
				<time>2015-05-07T07:50:34Z</time>
				<extensions>
				</extensions>
			</trkpt>
			<trkpt lat="-27.746130" lon="153.025902">
				<ele>34</ele>
				<time>2015-05-07T07:50:35Z</time>
				<extensions>
				</extensions>
			</trkpt>
			<trkpt lat="-27.745929" lon="153.025921">
				<ele>36</ele>
				<time>2015-05-07T07:50:36Z</time>
				<extensions>
				</extensions>
			</trkpt>
			<trkpt lat="-27.745722" lon="153.025931">
				<ele>35</ele>
				<time>2015-05-07T07:50:37Z</time>
				<extensions>
				</extensions>
			</trkpt>
			<trkpt lat="-27.745506" lon="153.025971">
				<ele>35</ele>
				<time>2015-05-07T07:50:38Z</time>
				<extensions>
				</extensions>
			</trkpt>
			<trkpt lat="-27.745304" lon="153.025983">
				<ele>35</ele>
				<time>2015-05-07T07:50:39Z</time>
				<extensions>
				</extensions>
			</trkpt>
			<trkpt lat="-27.745103" lon="153.025994">
				<ele>33</ele>
				<time>2015-05-07T07:50:40Z</time>
				<extensions>
				</extensions>
			</trkpt>
			<trkpt lat="-27.744899" lon="153.026008">
				<ele>33</ele>
				<time>2015-05-07T07:50:41Z</time>
				<extensions>
				</extensions>
			</trkpt>
			<trkpt lat="-27.744710" lon="153.026021">
				<ele>34</ele>
				<time>2015-05-07T07:50:42Z</time>
				<extensions>
				</extensions>
			</trkpt>
			<trkpt lat="-27.744478" lon="153.026021">
				<ele>34</ele>
				<time>2015-05-07T07:50:43Z</time>
				<extensions>
				</extensions>
			</trkpt>
			<trkpt lat="-27.744252" lon="153.026035">
				<ele>36</ele>
				<time>2015-05-07T07:50:44Z</time>
				<extensions>
				</extensions>
			</trkpt>
			<trkpt lat="-27.744030" lon="153.026061">
				<ele>35</ele>
				<time>2015-05-07T07:50:45Z</time>
				<extensions>
				</extensions>
			</trkpt>
			<trkpt lat="-27.743835" lon="153.026071">
				<ele>35</ele>
				<time>2015-05-07T07:50:46Z</time>
				<extensions>
				</extensions>
			</trkpt>
			<trkpt lat="-27.743618" lon="153.026087">
				<ele>35</ele>
				<time>2015-05-07T07:50:47Z</time>
				<extensions>
				</extensions>
			</trkpt>
			<trkpt lat="-27.743404" lon="153.026103">
				<ele>34</ele>
				<time>2015-05-07T07:50:48Z</time>
				<extensions>
				</extensions>
			</trkpt>
			<trkpt lat="-27.743024" lon="153.026159">
				<ele>33</ele>
				<time>2015-05-07T07:50:50Z</time>
				<extensions>
				</extensions>
			</trkpt>
			<trkpt lat="-27.742804" lon="153.026173">
				<ele>34</ele>
				<time>2015-05-07T07:50:51Z</time>
				<extensions>
				</extensions>
			</trkpt>
			<trkpt lat="-27.742586" lon="153.026190">
				<ele>33</ele>
				<time>2015-05-07T07:50:52Z</time>
				<extensions>
				</extensions>
			</trkpt>
			<trkpt lat="-27.742405" lon="153.026227">
				<ele>32</ele>
				<time>2015-05-07T07:50:53Z</time>
				<extensions>
				</extensions>
			</trkpt>
			<trkpt lat="-27.742198" lon="153.026243">
				<ele>30</ele>
				<time>2015-05-07T07:50:54Z</time>
				<extensions>
				</extensions>
			</trkpt>
			<trkpt lat="-27.741991" lon="153.026262">
				<ele>30</ele>
				<time>2015-05-07T07:50:55Z</time>
				<extensions>
				</extensions>
			</trkpt>
			<trkpt lat="-27.741782" lon="153.026276">
				<ele>30</ele>
				<time>2015-05-07T07:50:56Z</time>
				<extensions>
				</extensions>
			</trkpt>
			<trkpt lat="-27.741577" lon="153.026289">
				<ele>31</ele>
				<time>2015-05-07T07:50:57Z</time>
				<extensions>
				</extensions>
			</trkpt>
			<trkpt lat="-27.741355" lon="153.026311">
				<ele>30</ele>
				<time>2015-05-07T07:50:58Z</time>
				<extensions>
				</extensions>
			</trkpt>
			<trkpt lat="-27.741118" lon="153.026329">
				<ele>31</ele>
				<time>2015-05-07T07:50:59Z</time>
				<extensions>
				</extensions>
			</trkpt>
			<trkpt lat="-27.740896" lon="153.026348">
				<ele>31</ele>
				<time>2015-05-07T07:51:00Z</time>
				<extensions>
				</extensions>
			</trkpt>
			<trkpt lat="-27.740655" lon="153.026369">
				<ele>31</ele>
				<time>2015-05-07T07:51:01Z</time>
				<extensions>
				</extensions>
			</trkpt>
			<trkpt lat="-27.740425" lon="153.026406">
				<ele>30</ele>
				<time>2015-05-07T07:51:02Z</time>
				<extensions>
				</extensions>
			</trkpt>
			<trkpt lat="-27.740199" lon="153.026444">
				<ele>30</ele>
				<time>2015-05-07T07:51:03Z</time>
				<extensions>
				</extensions>
			</trkpt>
			<trkpt lat="-27.739968" lon="153.026485">
				<ele>31</ele>
				<time>2015-05-07T07:51:04Z</time>
				<extensions>
				</extensions>
			</trkpt>
			<trkpt lat="-27.739738" lon="153.026543">
				<ele>31</ele>
				<time>2015-05-07T07:51:05Z</time>
				<extensions>
				</extensions>
			</trkpt>
			<trkpt lat="-27.739501" lon="153.026602">
				<ele>33</ele>
				<time>2015-05-07T07:51:06Z</time>
				<extensions>
				</extensions>
			</trkpt>
			<trkpt lat="-27.739274" lon="153.026652">
				<ele>32</ele>
				<time>2015-05-07T07:51:07Z</time>
				<extensions>
				</extensions>
			</trkpt>
			<trkpt lat="-27.739049" lon="153.026714">
				<ele>31</ele>
				<time>2015-05-07T07:51:08Z</time>
				<extensions>
				</extensions>
			</trkpt>
			<trkpt lat="-27.738836" lon="153.026787">
				<ele>33</ele>
				<time>2015-05-07T07:51:09Z</time>
				<extensions>
				</extensions>
			</trkpt>
			<trkpt lat="-27.738612" lon="153.026854">
				<ele>34</ele>
				<time>2015-05-07T07:51:10Z</time>
				<extensions>
				</extensions>
			</trkpt>
			<trkpt lat="-27.738406" lon="153.026911">
				<ele>34</ele>
				<time>2015-05-07T07:51:11Z</time>
				<extensions>
				</extensions>
			</trkpt>
			<trkpt lat="-27.738169" lon="153.026976">
				<ele>33</ele>
				<time>2015-05-07T07:51:12Z</time>
				<extensions>
				</extensions>
			</trkpt>
			<trkpt lat="-27.737946" lon="153.027056">
				<ele>34</ele>
				<time>2015-05-07T07:51:13Z</time>
				<extensions>
				</extensions>
			</trkpt>
			<trkpt lat="-27.737741" lon="153.027129">
				<ele>33</ele>
				<time>2015-05-07T07:51:14Z</time>
				<extensions>
				</extensions>
			</trkpt>
			<trkpt lat="-27.737538" lon="153.027208">
				<ele>34</ele>
				<time>2015-05-07T07:51:15Z</time>
				<extensions>
				</extensions>
			</trkpt>
			<trkpt lat="-27.737334" lon="153.027289">
				<ele>33</ele>
				<time>2015-05-07T07:51:16Z</time>
				<extensions>
				</extensions>
			</trkpt>
			<trkpt lat="-27.737101" lon="153.027373">
				<ele>33</ele>
				<time>2015-05-07T07:51:17Z</time>
				<extensions>
				</extensions>
			</trkpt>
			<trkpt lat="-27.736912" lon="153.027435">
				<ele>33</ele>
				<time>2015-05-07T07:51:18Z</time>
				<extensions>
				</extensions>
			</trkpt>
			<trkpt lat="-27.736701" lon="153.027504">
				<ele>33</ele>
				<time>2015-05-07T07:51:19Z</time>
				<extensions>
				</extensions>
			</trkpt>
			<trkpt lat="-27.736476" lon="153.027574">
				<ele>32</ele>
				<time>2015-05-07T07:51:20Z</time>
				<extensions>
				</extensions>
			</trkpt>
			<trkpt lat="-27.736227" lon="153.027615">
				<ele>32</ele>
				<time>2015-05-07T07:51:21Z</time>
				<extensions>
				</extensions>
			</trkpt>
			<trkpt lat="-27.736005" lon="153.027683">
				<ele>32</ele>
				<time>2015-05-07T07:51:22Z</time>
				<extensions>
				</extensions>
			</trkpt>
			<trkpt lat="-27.735797" lon="153.027744">
				<ele>31</ele>
				<time>2015-05-07T07:51:23Z</time>
				<extensions>
				</extensions>
			</trkpt>
			<trkpt lat="-27.735586" lon="153.027794">
				<ele>32</ele>
				<time>2015-05-07T07:51:24Z</time>
				<extensions>
				</extensions>
			</trkpt>
			<trkpt lat="-27.735205" lon="153.027931">
				<ele>29</ele>
				<time>2015-05-07T07:51:26Z</time>
				<extensions>
				</extensions>
			</trkpt>
			<trkpt lat="-27.735001" lon="153.027991">
				<ele>29</ele>
				<time>2015-05-07T07:51:27Z</time>
				<extensions>
				</extensions>
			</trkpt>
			<trkpt lat="-27.734797" lon="153.028049">
				<ele>27</ele>
				<time>2015-05-07T07:51:28Z</time>
				<extensions>
				</extensions>
			</trkpt>
			<trkpt lat="-27.734589" lon="153.028107">
				<ele>26</ele>
				<time>2015-05-07T07:51:29Z</time>
				<extensions>
				</extensions>
			</trkpt>
			<trkpt lat="-27.734385" lon="153.028168">
				<ele>26</ele>
				<time>2015-05-07T07:51:30Z</time>
				<extensions>
				</extensions>
			</trkpt>
			<trkpt lat="-27.734176" lon="153.028225">
				<ele>27</ele>
				<time>2015-05-07T07:51:31Z</time>
				<extensions>
				</extensions>
			</trkpt>
			<trkpt lat="-27.734002" lon="153.028310">
				<ele>26</ele>
				<time>2015-05-07T07:51:32Z</time>
				<extensions>
				</extensions>
			</trkpt>
			<trkpt lat="-27.733787" lon="153.028360">
				<ele>23</ele>
				<time>2015-05-07T07:51:33Z</time>
				<extensions>
				</extensions>
			</trkpt>
			<trkpt lat="-27.733581" lon="153.028418">
				<ele>23</ele>
				<time>2015-05-07T07:51:34Z</time>
				<extensions>
				</extensions>
			</trkpt>
			<trkpt lat="-27.733227" lon="153.028497">
				<ele>20</ele>
				<time>2015-05-07T07:51:36Z</time>
				<extensions>
				</extensions>
			</trkpt>
			<trkpt lat="-27.732843" lon="153.028604">
				<ele>20</ele>
				<time>2015-05-07T07:51:38Z</time>
				<extensions>
				</extensions>
			</trkpt>
			<trkpt lat="-27.732653" lon="153.028647">
				<ele>18</ele>
				<time>2015-05-07T07:51:39Z</time>
				<extensions>
				</extensions>
			</trkpt>
			<trkpt lat="-27.732464" lon="153.028698">
				<ele>17</ele>
				<time>2015-05-07T07:51:40Z</time>
				<extensions>
				</extensions>
			</trkpt>
			<trkpt lat="-27.732268" lon="153.028749">
				<ele>16</ele>
				<time>2015-05-07T07:51:41Z</time>
				<extensions>
				</extensions>
			</trkpt>
			<trkpt lat="-27.732054" lon="153.028790">
				<ele>18</ele>
				<time>2015-05-07T07:51:42Z</time>
				<extensions>
				</extensions>
			</trkpt>
			<trkpt lat="-27.731847" lon="153.028838">
				<ele>18</ele>
				<time>2015-05-07T07:51:43Z</time>
				<extensions>
				</extensions>
			</trkpt>
			<trkpt lat="-27.731627" lon="153.028884">
				<ele>17</ele>
				<time>2015-05-07T07:51:44Z</time>
				<extensions>
				</extensions>
			</trkpt>
			<trkpt lat="-27.731401" lon="153.028920">
				<ele>17</ele>
				<time>2015-05-07T07:51:45Z</time>
				<extensions>
				</extensions>
			</trkpt>
			<trkpt lat="-27.731216" lon="153.028964">
				<ele>18</ele>
				<time>2015-05-07T07:51:46Z</time>
				<extensions>
				</extensions>
			</trkpt>
			<trkpt lat="-27.731015" lon="153.029010">
				<ele>19</ele>
				<time>2015-05-07T07:51:47Z</time>
				<extensions>
				</extensions>
			</trkpt>
			<trkpt lat="-27.730822" lon="153.029054">
				<ele>20</ele>
				<time>2015-05-07T07:51:48Z</time>
				<extensions>
				</extensions>
			</trkpt>
			<trkpt lat="-27.730629" lon="153.029100">
				<ele>20</ele>
				<time>2015-05-07T07:51:49Z</time>
				<extensions>
				</extensions>
			</trkpt>
			<trkpt lat="-27.730435" lon="153.029147">
				<ele>20</ele>
				<time>2015-05-07T07:51:50Z</time>
				<extensions>
				</extensions>
			</trkpt>
			<trkpt lat="-27.730227" lon="153.029191">
				<ele>20</ele>
				<time>2015-05-07T07:51:51Z</time>
				<extensions>
				</extensions>
			</trkpt>
			<trkpt lat="-27.730034" lon="153.029235">
				<ele>21</ele>
				<time>2015-05-07T07:51:52Z</time>
				<extensions>
				</extensions>
			</trkpt>
			<trkpt lat="-27.729816" lon="153.029282">
				<ele>22</ele>
				<time>2015-05-07T07:51:53Z</time>
				<extensions>
				</extensions>
			</trkpt>
			<trkpt lat="-27.729608" lon="153.029331">
				<ele>23</ele>
				<time>2015-05-07T07:51:54Z</time>
				<extensions>
				</extensions>
			</trkpt>
			<trkpt lat="-27.729390" lon="153.029373">
				<ele>23</ele>
				<time>2015-05-07T07:51:55Z</time>
				<extensions>
				</extensions>
			</trkpt>
			<trkpt lat="-27.729177" lon="153.029418">
				<ele>23</ele>
				<time>2015-05-07T07:51:56Z</time>
				<extensions>
				</extensions>
			</trkpt>
			<trkpt lat="-27.728954" lon="153.029459">
				<ele>24</ele>
				<time>2015-05-07T07:51:57Z</time>
				<extensions>
				</extensions>
			</trkpt>
			<trkpt lat="-27.728736" lon="153.029501">
				<ele>24</ele>
				<time>2015-05-07T07:51:58Z</time>
				<extensions>
				</extensions>
			</trkpt>
			<trkpt lat="-27.728525" lon="153.029538">
				<ele>24</ele>
				<time>2015-05-07T07:51:59Z</time>
				<extensions>
				</extensions>
			</trkpt>
			<trkpt lat="-27.728320" lon="153.029579">
				<ele>24</ele>
				<time>2015-05-07T07:52:00Z</time>
				<extensions>
				</extensions>
			</trkpt>
			<trkpt lat="-27.728123" lon="153.029620">
				<ele>24</ele>
				<time>2015-05-07T07:52:01Z</time>
				<extensions>
				</extensions>
			</trkpt>
			<trkpt lat="-27.727919" lon="153.029656">
				<ele>24</ele>
				<time>2015-05-07T07:52:02Z</time>
				<extensions>
				</extensions>
			</trkpt>
			<trkpt lat="-27.727730" lon="153.029686">
				<ele>24</ele>
				<time>2015-05-07T07:52:03Z</time>
				<extensions>
				</extensions>
			</trkpt>
			<trkpt lat="-27.727543" lon="153.029720">
				<ele>23</ele>
				<time>2015-05-07T07:52:04Z</time>
				<extensions>
				</extensions>
			</trkpt>
			<trkpt lat="-27.727193" lon="153.029812">
				<ele>23</ele>
				<time>2015-05-07T07:52:06Z</time>
				<extensions>
				</extensions>
			</trkpt>
			<trkpt lat="-27.727000" lon="153.029850">
				<ele>24</ele>
				<time>2015-05-07T07:52:07Z</time>
				<extensions>
				</extensions>
			</trkpt>
			<trkpt lat="-27.726795" lon="153.029886">
				<ele>26</ele>
				<time>2015-05-07T07:52:08Z</time>
				<extensions>
				</extensions>
			</trkpt>
			<trkpt lat="-27.726600" lon="153.029924">
				<ele>26</ele>
				<time>2015-05-07T07:52:09Z</time>
				<extensions>
				</extensions>
			</trkpt>
			<trkpt lat="-27.726405" lon="153.029977">
				<ele>25</ele>
				<time>2015-05-07T07:52:10Z</time>
				<extensions>
				</extensions>
			</trkpt>
			<trkpt lat="-27.726203" lon="153.030028">
				<ele>26</ele>
				<time>2015-05-07T07:52:11Z</time>
				<extensions>
				</extensions>
			</trkpt>
			<trkpt lat="-27.726023" lon="153.030076">
				<ele>26</ele>
				<time>2015-05-07T07:52:12Z</time>
				<extensions>
				</extensions>
			</trkpt>
			<trkpt lat="-27.725805" lon="153.030113">
				<ele>26</ele>
				<time>2015-05-07T07:52:13Z</time>
				<extensions>
				</extensions>
			</trkpt>
			<trkpt lat="-27.725626" lon="153.030164">
				<ele>26</ele>
				<time>2015-05-07T07:52:14Z</time>
				<extensions>
				</extensions>
			</trkpt>
			<trkpt lat="-27.725430" lon="153.030209">
				<ele>25</ele>
				<time>2015-05-07T07:52:15Z</time>
				<extensions>
				</extensions>
			</trkpt>
			<trkpt lat="-27.725162" lon="153.030236">
				<ele>26</ele>
				<time>2015-05-07T07:52:16Z</time>
				<extensions>
				</extensions>
			</trkpt>
			<trkpt lat="-27.724953" lon="153.030277">
				<ele>27</ele>
				<time>2015-05-07T07:52:17Z</time>
				<extensions>
				</extensions>
			</trkpt>
			<trkpt lat="-27.724747" lon="153.030333">
				<ele>27</ele>
				<time>2015-05-07T07:52:18Z</time>
				<extensions>
				</extensions>
			</trkpt>
			<trkpt lat="-27.724547" lon="153.030386">
				<ele>27</ele>
				<time>2015-05-07T07:52:19Z</time>
				<extensions>
				</extensions>
			</trkpt>
			<trkpt lat="-27.724365" lon="153.030430">
				<ele>27</ele>
				<time>2015-05-07T07:52:20Z</time>
				<extensions>
				</extensions>
			</trkpt>
			<trkpt lat="-27.724172" lon="153.030474">
				<ele>26</ele>
				<time>2015-05-07T07:52:21Z</time>
				<extensions>
				</extensions>
			</trkpt>
			<trkpt lat="-27.723984" lon="153.030521">
				<ele>25</ele>
				<time>2015-05-07T07:52:22Z</time>
				<extensions>
				</extensions>
			</trkpt>
			<trkpt lat="-27.723784" lon="153.030569">
				<ele>25</ele>
				<time>2015-05-07T07:52:23Z</time>
				<extensions>
				</extensions>
			</trkpt>
			<trkpt lat="-27.723575" lon="153.030623">
				<ele>25</ele>
				<time>2015-05-07T07:52:24Z</time>
				<extensions>
				</extensions>
			</trkpt>
			<trkpt lat="-27.723392" lon="153.030680">
				<ele>25</ele>
				<time>2015-05-07T07:52:25Z</time>
				<extensions>
				</extensions>
			</trkpt>
			<trkpt lat="-27.723204" lon="153.030733">
				<ele>25</ele>
				<time>2015-05-07T07:52:26Z</time>
				<extensions>
				</extensions>
			</trkpt>
			<trkpt lat="-27.722997" lon="153.030787">
				<ele>24</ele>
				<time>2015-05-07T07:52:27Z</time>
				<extensions>
				</extensions>
			</trkpt>
			<trkpt lat="-27.722787" lon="153.030835">
				<ele>24</ele>
				<time>2015-05-07T07:52:28Z</time>
				<extensions>
				</extensions>
			</trkpt>
			<trkpt lat="-27.722590" lon="153.030884">
				<ele>24</ele>
				<time>2015-05-07T07:52:29Z</time>
				<extensions>
				</extensions>
			</trkpt>
			<trkpt lat="-27.722396" lon="153.030939">
				<ele>24</ele>
				<time>2015-05-07T07:52:30Z</time>
				<extensions>
				</extensions>
			</trkpt>
			<trkpt lat="-27.722211" lon="153.031009">
				<ele>24</ele>
				<time>2015-05-07T07:52:31Z</time>
				<extensions>
				</extensions>
			</trkpt>
			<trkpt lat="-27.722023" lon="153.031069">
				<ele>26</ele>
				<time>2015-05-07T07:52:32Z</time>
				<extensions>
				</extensions>
			</trkpt>
			<trkpt lat="-27.721815" lon="153.031130">
				<ele>26</ele>
				<time>2015-05-07T07:52:33Z</time>
				<extensions>
				</extensions>
			</trkpt>
			<trkpt lat="-27.721615" lon="153.031189">
				<ele>27</ele>
				<time>2015-05-07T07:52:34Z</time>
				<extensions>
				</extensions>
			</trkpt>
			<trkpt lat="-27.721427" lon="153.031251">
				<ele>26</ele>
				<time>2015-05-07T07:52:35Z</time>
				<extensions>
				</extensions>
			</trkpt>
			<trkpt lat="-27.721223" lon="153.031325">
				<ele>27</ele>
				<time>2015-05-07T07:52:36Z</time>
				<extensions>
				</extensions>
			</trkpt>
			<trkpt lat="-27.721038" lon="153.031406">
				<ele>28</ele>
				<time>2015-05-07T07:52:37Z</time>
				<extensions>
				</extensions>
			</trkpt>
			<trkpt lat="-27.720677" lon="153.031554">
				<ele>29</ele>
				<time>2015-05-07T07:52:39Z</time>
				<extensions>
				</extensions>
			</trkpt>
			<trkpt lat="-27.720493" lon="153.031621">
				<ele>29</ele>
				<time>2015-05-07T07:52:40Z</time>
				<extensions>
				</extensions>
			</trkpt>
			<trkpt lat="-27.720300" lon="153.031695">
				<ele>30</ele>
				<time>2015-05-07T07:52:41Z</time>
				<extensions>
				</extensions>
			</trkpt>
			<trkpt lat="-27.720111" lon="153.031764">
				<ele>30</ele>
				<time>2015-05-07T07:52:42Z</time>
				<extensions>
				</extensions>
			</trkpt>
			<trkpt lat="-27.719917" lon="153.031828">
				<ele>30</ele>
				<time>2015-05-07T07:52:43Z</time>
				<extensions>
				</extensions>
			</trkpt>
			<trkpt lat="-27.719738" lon="153.031897">
				<ele>30</ele>
				<time>2015-05-07T07:52:44Z</time>
				<extensions>
				</extensions>
			</trkpt>
			<trkpt lat="-27.719384" lon="153.032037">
				<ele>30</ele>
				<time>2015-05-07T07:52:46Z</time>
				<extensions>
				</extensions>
			</trkpt>
			<trkpt lat="-27.719200" lon="153.032106">
				<ele>30</ele>
				<time>2015-05-07T07:52:47Z</time>
				<extensions>
				</extensions>
			</trkpt>
			<trkpt lat="-27.719028" lon="153.032176">
				<ele>32</ele>
				<time>2015-05-07T07:52:48Z</time>
				<extensions>
				</extensions>
			</trkpt>
			<trkpt lat="-27.718832" lon="153.032257">
				<ele>34</ele>
				<time>2015-05-07T07:52:49Z</time>
				<extensions>
				</extensions>
			</trkpt>
			<trkpt lat="-27.718653" lon="153.032333">
				<ele>36</ele>
				<time>2015-05-07T07:52:50Z</time>
				<extensions>
				</extensions>
			</trkpt>
			<trkpt lat="-27.718462" lon="153.032407">
				<ele>37</ele>
				<time>2015-05-07T07:52:51Z</time>
				<extensions>
				</extensions>
			</trkpt>
			<trkpt lat="-27.718267" lon="153.032479">
				<ele>36</ele>
				<time>2015-05-07T07:52:52Z</time>
				<extensions>
				</extensions>
			</trkpt>
			<trkpt lat="-27.718071" lon="153.032548">
				<ele>36</ele>
				<time>2015-05-07T07:52:53Z</time>
				<extensions>
				</extensions>
			</trkpt>
			<trkpt lat="-27.717863" lon="153.032607">
				<ele>36</ele>
				<time>2015-05-07T07:52:54Z</time>
				<extensions>
				</extensions>
			</trkpt>
			<trkpt lat="-27.717668" lon="153.032682">
				<ele>36</ele>
				<time>2015-05-07T07:52:55Z</time>
				<extensions>
				</extensions>
			</trkpt>
			<trkpt lat="-27.717474" lon="153.032755">
				<ele>37</ele>
				<time>2015-05-07T07:52:56Z</time>
				<extensions>
				</extensions>
			</trkpt>
			<trkpt lat="-27.717243" lon="153.032806">
				<ele>39</ele>
				<time>2015-05-07T07:52:57Z</time>
				<extensions>
				</extensions>
			</trkpt>
			<trkpt lat="-27.717044" lon="153.032871">
				<ele>40</ele>
				<time>2015-05-07T07:52:58Z</time>
				<extensions>
				</extensions>
			</trkpt>
			<trkpt lat="-27.716828" lon="153.032954">
				<ele>40</ele>
				<time>2015-05-07T07:52:59Z</time>
				<extensions>
				</extensions>
			</trkpt>
			<trkpt lat="-27.716623" lon="153.033040">
				<ele>41</ele>
				<time>2015-05-07T07:53:00Z</time>
				<extensions>
				</extensions>
			</trkpt>
			<trkpt lat="-27.716421" lon="153.033129">
				<ele>41</ele>
				<time>2015-05-07T07:53:01Z</time>
				<extensions>
				</extensions>
			</trkpt>
			<trkpt lat="-27.716220" lon="153.033206">
				<ele>43</ele>
				<time>2015-05-07T07:53:02Z</time>
				<extensions>
				</extensions>
			</trkpt>
			<trkpt lat="-27.716024" lon="153.033288">
				<ele>44</ele>
				<time>2015-05-07T07:53:03Z</time>
				<extensions>
				</extensions>
			</trkpt>
			<trkpt lat="-27.715820" lon="153.033367">
				<ele>44</ele>
				<time>2015-05-07T07:53:04Z</time>
				<extensions>
				</extensions>
			</trkpt>
			<trkpt lat="-27.715610" lon="153.033449">
				<ele>45</ele>
				<time>2015-05-07T07:53:05Z</time>
				<extensions>
				</extensions>
			</trkpt>
			<trkpt lat="-27.715412" lon="153.033527">
				<ele>45</ele>
				<time>2015-05-07T07:53:06Z</time>
				<extensions>
				</extensions>
			</trkpt>
			<trkpt lat="-27.715213" lon="153.033606">
				<ele>44</ele>
				<time>2015-05-07T07:53:07Z</time>
				<extensions>
				</extensions>
			</trkpt>
			<trkpt lat="-27.715021" lon="153.033689">
				<ele>45</ele>
				<time>2015-05-07T07:53:08Z</time>
				<extensions>
				</extensions>
			</trkpt>
			<trkpt lat="-27.714826" lon="153.033777">
				<ele>44</ele>
				<time>2015-05-07T07:53:09Z</time>
				<extensions>
				</extensions>
			</trkpt>
			<trkpt lat="-27.714657" lon="153.033883">
				<ele>44</ele>
				<time>2015-05-07T07:53:10Z</time>
				<extensions>
				</extensions>
			</trkpt>
			<trkpt lat="-27.714482" lon="153.033986">
				<ele>44</ele>
				<time>2015-05-07T07:53:11Z</time>
				<extensions>
				</extensions>
			</trkpt>
			<trkpt lat="-27.714307" lon="153.034100">
				<ele>45</ele>
				<time>2015-05-07T07:53:12Z</time>
				<extensions>
				</extensions>
			</trkpt>
			<trkpt lat="-27.714142" lon="153.034217">
				<ele>45</ele>
				<time>2015-05-07T07:53:13Z</time>
				<extensions>
				</extensions>
			</trkpt>
			<trkpt lat="-27.713970" lon="153.034346">
				<ele>46</ele>
				<time>2015-05-07T07:53:14Z</time>
				<extensions>
				</extensions>
			</trkpt>
			<trkpt lat="-27.713790" lon="153.034483">
				<ele>46</ele>
				<time>2015-05-07T07:53:15Z</time>
				<extensions>
				</extensions>
			</trkpt>
			<trkpt lat="-27.713618" lon="153.034616">
				<ele>46</ele>
				<time>2015-05-07T07:53:16Z</time>
				<extensions>
				</extensions>
			</trkpt>
			<trkpt lat="-27.713463" lon="153.034765">
				<ele>46</ele>
				<time>2015-05-07T07:53:17Z</time>
				<extensions>
				</extensions>
			</trkpt>
			<trkpt lat="-27.713304" lon="153.034924">
				<ele>46</ele>
				<time>2015-05-07T07:53:18Z</time>
				<extensions>
				</extensions>
			</trkpt>
			<trkpt lat="-27.713149" lon="153.035085">
				<ele>46</ele>
				<time>2015-05-07T07:53:19Z</time>
				<extensions>
				</extensions>
			</trkpt>
			<trkpt lat="-27.713004" lon="153.035253">
				<ele>45</ele>
				<time>2015-05-07T07:53:20Z</time>
				<extensions>
				</extensions>
			</trkpt>
			<trkpt lat="-27.712861" lon="153.035424">
				<ele>44</ele>
				<time>2015-05-07T07:53:21Z</time>
				<extensions>
				</extensions>
			</trkpt>
			<trkpt lat="-27.712736" lon="153.035610">
				<ele>43</ele>
				<time>2015-05-07T07:53:22Z</time>
				<extensions>
				</extensions>
			</trkpt>
			<trkpt lat="-27.712611" lon="153.035801">
				<ele>44</ele>
				<time>2015-05-07T07:53:23Z</time>
				<extensions>
				</extensions>
			</trkpt>
			<trkpt lat="-27.712481" lon="153.035983">
				<ele>45</ele>
				<time>2015-05-07T07:53:24Z</time>
				<extensions>
				</extensions>
			</trkpt>
			<trkpt lat="-27.712354" lon="153.036157">
				<ele>44</ele>
				<time>2015-05-07T07:53:25Z</time>
				<extensions>
				</extensions>
			</trkpt>
			<trkpt lat="-27.712204" lon="153.036322">
				<ele>43</ele>
				<time>2015-05-07T07:53:26Z</time>
				<extensions>
				</extensions>
			</trkpt>
			<trkpt lat="-27.712045" lon="153.036493">
				<ele>44</ele>
				<time>2015-05-07T07:53:27Z</time>
				<extensions>
				</extensions>
			</trkpt>
			<trkpt lat="-27.711887" lon="153.036651">
				<ele>45</ele>
				<time>2015-05-07T07:53:28Z</time>
				<extensions>
				</extensions>
			</trkpt>
			<trkpt lat="-27.711712" lon="153.036797">
				<ele>45</ele>
				<time>2015-05-07T07:53:29Z</time>
				<extensions>
				</extensions>
			</trkpt>
			<trkpt lat="-27.711525" lon="153.036939">
				<ele>46</ele>
				<time>2015-05-07T07:53:30Z</time>
				<extensions>
				</extensions>
			</trkpt>
			<trkpt lat="-27.711346" lon="153.037068">
				<ele>46</ele>
				<time>2015-05-07T07:53:31Z</time>
				<extensions>
				</extensions>
			</trkpt>
			<trkpt lat="-27.711151" lon="153.037194">
				<ele>46</ele>
				<time>2015-05-07T07:53:32Z</time>
				<extensions>
				</extensions>
			</trkpt>
			<trkpt lat="-27.710960" lon="153.037314">
				<ele>47</ele>
				<time>2015-05-07T07:53:33Z</time>
				<extensions>
				</extensions>
			</trkpt>
			<trkpt lat="-27.710762" lon="153.037418">
				<ele>48</ele>
				<time>2015-05-07T07:53:34Z</time>
				<extensions>
				</extensions>
			</trkpt>
			<trkpt lat="-27.710547" lon="153.037501">
				<ele>48</ele>
				<time>2015-05-07T07:53:35Z</time>
				<extensions>
				</extensions>
			</trkpt>
			<trkpt lat="-27.710340" lon="153.037584">
				<ele>49</ele>
				<time>2015-05-07T07:53:36Z</time>
				<extensions>
				</extensions>
			</trkpt>
			<trkpt lat="-27.710142" lon="153.037661">
				<ele>49</ele>
				<time>2015-05-07T07:53:37Z</time>
				<extensions>
				</extensions>
			</trkpt>
			<trkpt lat="-27.709938" lon="153.037722">
				<ele>50</ele>
				<time>2015-05-07T07:53:38Z</time>
				<extensions>
				</extensions>
			</trkpt>
			<trkpt lat="-27.709728" lon="153.037778">
				<ele>51</ele>
				<time>2015-05-07T07:53:39Z</time>
				<extensions>
				</extensions>
			</trkpt>
			<trkpt lat="-27.709518" lon="153.037825">
				<ele>52</ele>
				<time>2015-05-07T07:53:40Z</time>
				<extensions>
				</extensions>
			</trkpt>
			<trkpt lat="-27.709306" lon="153.037861">
				<ele>54</ele>
				<time>2015-05-07T07:53:41Z</time>
				<extensions>
				</extensions>
			</trkpt>
			<trkpt lat="-27.709096" lon="153.037892">
				<ele>55</ele>
				<time>2015-05-07T07:53:42Z</time>
				<extensions>
				</extensions>
			</trkpt>
			<trkpt lat="-27.708882" lon="153.037918">
				<ele>57</ele>
				<time>2015-05-07T07:53:43Z</time>
				<extensions>
				</extensions>
			</trkpt>
			<trkpt lat="-27.708664" lon="153.037932">
				<ele>59</ele>
				<time>2015-05-07T07:53:44Z</time>
				<extensions>
				</extensions>
			</trkpt>
			<trkpt lat="-27.708456" lon="153.037943">
				<ele>60</ele>
				<time>2015-05-07T07:53:45Z</time>
				<extensions>
				</extensions>
			</trkpt>
			<trkpt lat="-27.708249" lon="153.037948">
				<ele>60</ele>
				<time>2015-05-07T07:53:46Z</time>
				<extensions>
				</extensions>
			</trkpt>
			<trkpt lat="-27.708051" lon="153.037955">
				<ele>59</ele>
				<time>2015-05-07T07:53:47Z</time>
				<extensions>
				</extensions>
			</trkpt>
			<trkpt lat="-27.707851" lon="153.037959">
				<ele>60</ele>
				<time>2015-05-07T07:53:48Z</time>
				<extensions>
				</extensions>
			</trkpt>
			<trkpt lat="-27.707632" lon="153.037958">
				<ele>60</ele>
				<time>2015-05-07T07:53:49Z</time>
				<extensions>
				</extensions>
			</trkpt>
			<trkpt lat="-27.707419" lon="153.037968">
				<ele>61</ele>
				<time>2015-05-07T07:53:50Z</time>
				<extensions>
				</extensions>
			</trkpt>
			<trkpt lat="-27.707218" lon="153.037979">
				<ele>62</ele>
				<time>2015-05-07T07:53:51Z</time>
				<extensions>
				</extensions>
			</trkpt>
			<trkpt lat="-27.707001" lon="153.037986">
				<ele>63</ele>
				<time>2015-05-07T07:53:52Z</time>
				<extensions>
				</extensions>
			</trkpt>
			<trkpt lat="-27.706804" lon="153.037998">
				<ele>64</ele>
				<time>2015-05-07T07:53:53Z</time>
				<extensions>
				</extensions>
			</trkpt>
			<trkpt lat="-27.706603" lon="153.038011">
				<ele>65</ele>
				<time>2015-05-07T07:53:54Z</time>
				<extensions>
				</extensions>
			</trkpt>
			<trkpt lat="-27.706402" lon="153.038022">
				<ele>66</ele>
				<time>2015-05-07T07:53:55Z</time>
				<extensions>
				</extensions>
			</trkpt>
			<trkpt lat="-27.706188" lon="153.038034">
				<ele>67</ele>
				<time>2015-05-07T07:53:56Z</time>
				<extensions>
				</extensions>
			</trkpt>
			<trkpt lat="-27.705982" lon="153.038045">
				<ele>67</ele>
				<time>2015-05-07T07:53:57Z</time>
				<extensions>
				</extensions>
			</trkpt>
			<trkpt lat="-27.705774" lon="153.038058">
				<ele>68</ele>
				<time>2015-05-07T07:53:58Z</time>
				<extensions>
				</extensions>
			</trkpt>
			<trkpt lat="-27.705584" lon="153.038078">
				<ele>67</ele>
				<time>2015-05-07T07:53:59Z</time>
				<extensions>
				</extensions>
			</trkpt>
			<trkpt lat="-27.705376" lon="153.038090">
				<ele>68</ele>
				<time>2015-05-07T07:54:00Z</time>
				<extensions>
				</extensions>
			</trkpt>
			<trkpt lat="-27.705175" lon="153.038115">
				<ele>68</ele>
				<time>2015-05-07T07:54:01Z</time>
				<extensions>
				</extensions>
			</trkpt>
			<trkpt lat="-27.704971" lon="153.038128">
				<ele>69</ele>
				<time>2015-05-07T07:54:02Z</time>
				<extensions>
				</extensions>
			</trkpt>
			<trkpt lat="-27.704768" lon="153.038148">
				<ele>69</ele>
				<time>2015-05-07T07:54:03Z</time>
				<extensions>
				</extensions>
			</trkpt>
			<trkpt lat="-27.704567" lon="153.038170">
				<ele>69</ele>
				<time>2015-05-07T07:54:04Z</time>
				<extensions>
				</extensions>
			</trkpt>
			<trkpt lat="-27.704359" lon="153.038186">
				<ele>68</ele>
				<time>2015-05-07T07:54:05Z</time>
				<extensions>
				</extensions>
			</trkpt>
			<trkpt lat="-27.704145" lon="153.038200">
				<ele>68</ele>
				<time>2015-05-07T07:54:06Z</time>
				<extensions>
				</extensions>
			</trkpt>
			<trkpt lat="-27.703938" lon="153.038219">
				<ele>68</ele>
				<time>2015-05-07T07:54:07Z</time>
				<extensions>
				</extensions>
			</trkpt>
			<trkpt lat="-27.703739" lon="153.038234">
				<ele>67</ele>
				<time>2015-05-07T07:54:08Z</time>
				<extensions>
				</extensions>
			</trkpt>
			<trkpt lat="-27.703533" lon="153.038243">
				<ele>66</ele>
				<time>2015-05-07T07:54:09Z</time>
				<extensions>
				</extensions>
			</trkpt>
			<trkpt lat="-27.703312" lon="153.038256">
				<ele>67</ele>
				<time>2015-05-07T07:54:10Z</time>
				<extensions>
				</extensions>
			</trkpt>
			<trkpt lat="-27.703089" lon="153.038262">
				<ele>65</ele>
				<time>2015-05-07T07:54:11Z</time>
				<extensions>
				</extensions>
			</trkpt>
			<trkpt lat="-27.702857" lon="153.038266">
				<ele>64</ele>
				<time>2015-05-07T07:54:12Z</time>
				<extensions>
				</extensions>
			</trkpt>
			<trkpt lat="-27.702630" lon="153.038269">
				<ele>65</ele>
				<time>2015-05-07T07:54:13Z</time>
				<extensions>
				</extensions>
			</trkpt>
			<trkpt lat="-27.702413" lon="153.038276">
				<ele>64</ele>
				<time>2015-05-07T07:54:14Z</time>
				<extensions>
				</extensions>
			</trkpt>
			<trkpt lat="-27.702192" lon="153.038278">
				<ele>64</ele>
				<time>2015-05-07T07:54:15Z</time>
				<extensions>
				</extensions>
			</trkpt>
			<trkpt lat="-27.701977" lon="153.038290">
				<ele>62</ele>
				<time>2015-05-07T07:54:16Z</time>
				<extensions>
				</extensions>
			</trkpt>
			<trkpt lat="-27.701766" lon="153.038290">
				<ele>61</ele>
				<time>2015-05-07T07:54:17Z</time>
				<extensions>
				</extensions>
			</trkpt>
			<trkpt lat="-27.701562" lon="153.038294">
				<ele>59</ele>
				<time>2015-05-07T07:54:18Z</time>
				<extensions>
				</extensions>
			</trkpt>
			<trkpt lat="-27.701359" lon="153.038300">
				<ele>58</ele>
				<time>2015-05-07T07:54:19Z</time>
				<extensions>
				</extensions>
			</trkpt>
			<trkpt lat="-27.701154" lon="153.038303">
				<ele>58</ele>
				<time>2015-05-07T07:54:20Z</time>
				<extensions>
				</extensions>
			</trkpt>
			<trkpt lat="-27.700947" lon="153.038306">
				<ele>57</ele>
				<time>2015-05-07T07:54:21Z</time>
				<extensions>
				</extensions>
			</trkpt>
			<trkpt lat="-27.700738" lon="153.038299">
				<ele>56</ele>
				<time>2015-05-07T07:54:22Z</time>
				<extensions>
				</extensions>
			</trkpt>
			<trkpt lat="-27.700526" lon="153.038292">
				<ele>56</ele>
				<time>2015-05-07T07:54:23Z</time>
				<extensions>
				</extensions>
			</trkpt>
			<trkpt lat="-27.700313" lon="153.038278">
				<ele>56</ele>
				<time>2015-05-07T07:54:24Z</time>
				<extensions>
				</extensions>
			</trkpt>
			<trkpt lat="-27.700094" lon="153.038255">
				<ele>55</ele>
				<time>2015-05-07T07:54:25Z</time>
				<extensions>
				</extensions>
			</trkpt>
			<trkpt lat="-27.699895" lon="153.038233">
				<ele>53</ele>
				<time>2015-05-07T07:54:26Z</time>
				<extensions>
				</extensions>
			</trkpt>
			<trkpt lat="-27.699679" lon="153.038201">
				<ele>51</ele>
				<time>2015-05-07T07:54:27Z</time>
				<extensions>
				</extensions>
			</trkpt>
			<trkpt lat="-27.699486" lon="153.038177">
				<ele>50</ele>
				<time>2015-05-07T07:54:28Z</time>
				<extensions>
				</extensions>
			</trkpt>
			<trkpt lat="-27.699283" lon="153.038144">
				<ele>49</ele>
				<time>2015-05-07T07:54:29Z</time>
				<extensions>
				</extensions>
			</trkpt>
			<trkpt lat="-27.699072" lon="153.038104">
				<ele>49</ele>
				<time>2015-05-07T07:54:30Z</time>
				<extensions>
				</extensions>
			</trkpt>
			<trkpt lat="-27.698862" lon="153.038056">
				<ele>49</ele>
				<time>2015-05-07T07:54:31Z</time>
				<extensions>
				</extensions>
			</trkpt>
			<trkpt lat="-27.698652" lon="153.038005">
				<ele>47</ele>
				<time>2015-05-07T07:54:32Z</time>
				<extensions>
				</extensions>
			</trkpt>
			<trkpt lat="-27.698470" lon="153.037965">
				<ele>47</ele>
				<time>2015-05-07T07:54:33Z</time>
				<extensions>
				</extensions>
			</trkpt>
			<trkpt lat="-27.698261" lon="153.037905">
				<ele>46</ele>
				<time>2015-05-07T07:54:34Z</time>
				<extensions>
				</extensions>
			</trkpt>
			<trkpt lat="-27.698074" lon="153.037846">
				<ele>45</ele>
				<time>2015-05-07T07:54:35Z</time>
				<extensions>
				</extensions>
			</trkpt>
			<trkpt lat="-27.697881" lon="153.037780">
				<ele>43</ele>
				<time>2015-05-07T07:54:36Z</time>
				<extensions>
				</extensions>
			</trkpt>
			<trkpt lat="-27.697683" lon="153.037708">
				<ele>43</ele>
				<time>2015-05-07T07:54:37Z</time>
				<extensions>
				</extensions>
			</trkpt>
			<trkpt lat="-27.697488" lon="153.037634">
				<ele>43</ele>
				<time>2015-05-07T07:54:38Z</time>
				<extensions>
				</extensions>
			</trkpt>
			<trkpt lat="-27.697282" lon="153.037553">
				<ele>42</ele>
				<time>2015-05-07T07:54:39Z</time>
				<extensions>
				</extensions>
			</trkpt>
			<trkpt lat="-27.697077" lon="153.037477">
				<ele>41</ele>
				<time>2015-05-07T07:54:40Z</time>
				<extensions>
				</extensions>
			</trkpt>
			<trkpt lat="-27.696868" lon="153.037387">
				<ele>41</ele>
				<time>2015-05-07T07:54:41Z</time>
				<extensions>
				</extensions>
			</trkpt>
			<trkpt lat="-27.696681" lon="153.037300">
				<ele>41</ele>
				<time>2015-05-07T07:54:42Z</time>
				<extensions>
				</extensions>
			</trkpt>
			<trkpt lat="-27.696491" lon="153.037208">
				<ele>40</ele>
				<time>2015-05-07T07:54:43Z</time>
				<extensions>
				</extensions>
			</trkpt>
			<trkpt lat="-27.696306" lon="153.037114">
				<ele>39</ele>
				<time>2015-05-07T07:54:44Z</time>
				<extensions>
				</extensions>
			</trkpt>
			<trkpt lat="-27.696117" lon="153.037020">
				<ele>39</ele>
				<time>2015-05-07T07:54:45Z</time>
				<extensions>
				</extensions>
			</trkpt>
			<trkpt lat="-27.695935" lon="153.036914">
				<ele>40</ele>
				<time>2015-05-07T07:54:46Z</time>
				<extensions>
				</extensions>
			</trkpt>
			<trkpt lat="-27.695763" lon="153.036815">
				<ele>39</ele>
				<time>2015-05-07T07:54:47Z</time>
				<extensions>
				</extensions>
			</trkpt>
			<trkpt lat="-27.695583" lon="153.036713">
				<ele>38</ele>
				<time>2015-05-07T07:54:48Z</time>
				<extensions>
				</extensions>
			</trkpt>
			<trkpt lat="-27.695402" lon="153.036599">
				<ele>39</ele>
				<time>2015-05-07T07:54:49Z</time>
				<extensions>
				</extensions>
			</trkpt>
			<trkpt lat="-27.695211" lon="153.036500">
				<ele>39</ele>
				<time>2015-05-07T07:54:50Z</time>
				<extensions>
				</extensions>
			</trkpt>
			<trkpt lat="-27.695028" lon="153.036378">
				<ele>40</ele>
				<time>2015-05-07T07:54:51Z</time>
				<extensions>
				</extensions>
			</trkpt>
			<trkpt lat="-27.694818" lon="153.036257">
				<ele>40</ele>
				<time>2015-05-07T07:54:52Z</time>
				<extensions>
				</extensions>
			</trkpt>
			<trkpt lat="-27.694641" lon="153.036152">
				<ele>39</ele>
				<time>2015-05-07T07:54:53Z</time>
				<extensions>
				</extensions>
			</trkpt>
			<trkpt lat="-27.694482" lon="153.036052">
				<ele>39</ele>
				<time>2015-05-07T07:54:54Z</time>
				<extensions>
				</extensions>
			</trkpt>
			<trkpt lat="-27.694299" lon="153.035937">
				<ele>40</ele>
				<time>2015-05-07T07:54:55Z</time>
				<extensions>
				</extensions>
			</trkpt>
			<trkpt lat="-27.694124" lon="153.035822">
				<ele>41</ele>
				<time>2015-05-07T07:54:56Z</time>
				<extensions>
				</extensions>
			</trkpt>
			<trkpt lat="-27.693926" lon="153.035700">
				<ele>41</ele>
				<time>2015-05-07T07:54:57Z</time>
				<extensions>
				</extensions>
			</trkpt>
			<trkpt lat="-27.693749" lon="153.035599">
				<ele>41</ele>
				<time>2015-05-07T07:54:58Z</time>
				<extensions>
				</extensions>
			</trkpt>
			<trkpt lat="-27.693571" lon="153.035484">
				<ele>41</ele>
				<time>2015-05-07T07:54:59Z</time>
				<extensions>
				</extensions>
			</trkpt>
			<trkpt lat="-27.693391" lon="153.035371">
				<ele>41</ele>
				<time>2015-05-07T07:55:00Z</time>
				<extensions>
				</extensions>
			</trkpt>
			<trkpt lat="-27.693205" lon="153.035272">
				<ele>41</ele>
				<time>2015-05-07T07:55:01Z</time>
				<extensions>
				</extensions>
			</trkpt>
			<trkpt lat="-27.693006" lon="153.035148">
				<ele>42</ele>
				<time>2015-05-07T07:55:02Z</time>
				<extensions>
				</extensions>
			</trkpt>
			<trkpt lat="-27.692835" lon="153.035049">
				<ele>42</ele>
				<time>2015-05-07T07:55:03Z</time>
				<extensions>
				</extensions>
			</trkpt>
			<trkpt lat="-27.692649" lon="153.034934">
				<ele>42</ele>
				<time>2015-05-07T07:55:04Z</time>
				<extensions>
				</extensions>
			</trkpt>
			<trkpt lat="-27.692460" lon="153.034831">
				<ele>41</ele>
				<time>2015-05-07T07:55:05Z</time>
				<extensions>
				</extensions>
			</trkpt>
			<trkpt lat="-27.692268" lon="153.034710">
				<ele>42</ele>
				<time>2015-05-07T07:55:06Z</time>
				<extensions>
				</extensions>
			</trkpt>
			<trkpt lat="-27.692087" lon="153.034598">
				<ele>42</ele>
				<time>2015-05-07T07:55:07Z</time>
				<extensions>
				</extensions>
			</trkpt>
			<trkpt lat="-27.691898" lon="153.034486">
				<ele>42</ele>
				<time>2015-05-07T07:55:08Z</time>
				<extensions>
				</extensions>
			</trkpt>
			<trkpt lat="-27.691714" lon="153.034373">
				<ele>41</ele>
				<time>2015-05-07T07:55:09Z</time>
				<extensions>
				</extensions>
			</trkpt>
			<trkpt lat="-27.691526" lon="153.034260">
				<ele>41</ele>
				<time>2015-05-07T07:55:10Z</time>
				<extensions>
				</extensions>
			</trkpt>
			<trkpt lat="-27.691337" lon="153.034146">
				<ele>40</ele>
				<time>2015-05-07T07:55:11Z</time>
				<extensions>
				</extensions>
			</trkpt>
			<trkpt lat="-27.691150" lon="153.034022">
				<ele>39</ele>
				<time>2015-05-07T07:55:12Z</time>
				<extensions>
				</extensions>
			</trkpt>
			<trkpt lat="-27.690965" lon="153.033915">
				<ele>39</ele>
				<time>2015-05-07T07:55:13Z</time>
				<extensions>
				</extensions>
			</trkpt>
			<trkpt lat="-27.690779" lon="153.033798">
				<ele>38</ele>
				<time>2015-05-07T07:55:14Z</time>
				<extensions>
				</extensions>
			</trkpt>
			<trkpt lat="-27.690594" lon="153.033690">
				<ele>37</ele>
				<time>2015-05-07T07:55:15Z</time>
				<extensions>
				</extensions>
			</trkpt>
			<trkpt lat="-27.690429" lon="153.033588">
				<ele>36</ele>
				<time>2015-05-07T07:55:16Z</time>
				<extensions>
				</extensions>
			</trkpt>
			<trkpt lat="-27.690245" lon="153.033480">
				<ele>35</ele>
				<time>2015-05-07T07:55:17Z</time>
				<extensions>
				</extensions>
			</trkpt>
			<trkpt lat="-27.690080" lon="153.033392">
				<ele>34</ele>
				<time>2015-05-07T07:55:18Z</time>
				<extensions>
				</extensions>
			</trkpt>
			<trkpt lat="-27.689900" lon="153.033293">
				<ele>34</ele>
				<time>2015-05-07T07:55:19Z</time>
				<extensions>
				</extensions>
			</trkpt>
			<trkpt lat="-27.689723" lon="153.033187">
				<ele>32</ele>
				<time>2015-05-07T07:55:20Z</time>
				<extensions>
				</extensions>
			</trkpt>
			<trkpt lat="-27.689552" lon="153.033080">
				<ele>32</ele>
				<time>2015-05-07T07:55:21Z</time>
				<extensions>
				</extensions>
			</trkpt>
			<trkpt lat="-27.689376" lon="153.032970">
				<ele>31</ele>
				<time>2015-05-07T07:55:22Z</time>
				<extensions>
				</extensions>
			</trkpt>
			<trkpt lat="-27.689204" lon="153.032874">
				<ele>31</ele>
				<time>2015-05-07T07:55:23Z</time>
				<extensions>
				</extensions>
			</trkpt>
			<trkpt lat="-27.689037" lon="153.032778">
				<ele>30</ele>
				<time>2015-05-07T07:55:24Z</time>
				<extensions>
				</extensions>
			</trkpt>
			<trkpt lat="-27.688730" lon="153.032611">
				<ele>29</ele>
				<time>2015-05-07T07:55:26Z</time>
				<extensions>
				</extensions>
			</trkpt>
			<trkpt lat="-27.688431" lon="153.032408">
				<ele>29</ele>
				<time>2015-05-07T07:55:28Z</time>
				<extensions>
				</extensions>
			</trkpt>
			<trkpt lat="-27.688149" lon="153.032249">
				<ele>28</ele>
				<time>2015-05-07T07:55:30Z</time>
				<extensions>
				</extensions>
			</trkpt>
			<trkpt lat="-27.687900" lon="153.032121">
				<ele>26</ele>
				<time>2015-05-07T07:55:32Z</time>
				<extensions>
				</extensions>
			</trkpt>
			<trkpt lat="-27.687725" lon="153.032030">
				<ele>25</ele>
				<time>2015-05-07T07:55:34Z</time>
				<extensions>
				</extensions>
			</trkpt>
			<trkpt lat="-27.687549" lon="153.031965">
				<ele>26</ele>
				<time>2015-05-07T07:55:38Z</time>
				<extensions>
				</extensions>
			</trkpt>
			<trkpt lat="-27.687346" lon="153.031903">
				<ele>33</ele>
				<time>2015-05-07T07:55:59Z</time>
				<extensions>
				</extensions>
			</trkpt>
			<trkpt lat="-27.687170" lon="153.031848">
				<ele>35</ele>
				<time>2015-05-07T07:56:01Z</time>
				<extensions>
				</extensions>
			</trkpt>
			<trkpt lat="-27.686969" lon="153.031801">
				<ele>37</ele>
				<time>2015-05-07T07:56:03Z</time>
				<extensions>
				</extensions>
			</trkpt>
			<trkpt lat="-27.686740" lon="153.031742">
				<ele>38</ele>
				<time>2015-05-07T07:56:05Z</time>
				<extensions>
				</extensions>
			</trkpt>
			<trkpt lat="-27.686478" lon="153.031707">
				<ele>40</ele>
				<time>2015-05-07T07:56:07Z</time>
				<extensions>
				</extensions>
			</trkpt>
			<trkpt lat="-27.686190" lon="153.031666">
				<ele>43</ele>
				<time>2015-05-07T07:56:09Z</time>
				<extensions>
				</extensions>
			</trkpt>
			<trkpt lat="-27.685891" lon="153.031640">
				<ele>44</ele>
				<time>2015-05-07T07:56:11Z</time>
				<extensions>
				</extensions>
			</trkpt>
			<trkpt lat="-27.685564" lon="153.031608">
				<ele>46</ele>
				<time>2015-05-07T07:56:13Z</time>
				<extensions>
				</extensions>
			</trkpt>
			<trkpt lat="-27.685377" lon="153.031585">
				<ele>48</ele>
				<time>2015-05-07T07:56:14Z</time>
				<extensions>
				</extensions>
			</trkpt>
			<trkpt lat="-27.685191" lon="153.031566">
				<ele>47</ele>
				<time>2015-05-07T07:56:15Z</time>
				<extensions>
				</extensions>
			</trkpt>
			<trkpt lat="-27.684995" lon="153.031544">
				<ele>47</ele>
				<time>2015-05-07T07:56:16Z</time>
				<extensions>
				</extensions>
			</trkpt>
			<trkpt lat="-27.684792" lon="153.031524">
				<ele>50</ele>
				<time>2015-05-07T07:56:17Z</time>
				<extensions>
				</extensions>
			</trkpt>
			<trkpt lat="-27.684601" lon="153.031510">
				<ele>50</ele>
				<time>2015-05-07T07:56:18Z</time>
				<extensions>
				</extensions>
			</trkpt>
			<trkpt lat="-27.684385" lon="153.031487">
				<ele>50</ele>
				<time>2015-05-07T07:56:19Z</time>
				<extensions>
				</extensions>
			</trkpt>
			<trkpt lat="-27.684178" lon="153.031472">
				<ele>50</ele>
				<time>2015-05-07T07:56:20Z</time>
				<extensions>
				</extensions>
			</trkpt>
			<trkpt lat="-27.683977" lon="153.031451">
				<ele>50</ele>
				<time>2015-05-07T07:56:21Z</time>
				<extensions>
				</extensions>
			</trkpt>
			<trkpt lat="-27.683776" lon="153.031429">
				<ele>49</ele>
				<time>2015-05-07T07:56:22Z</time>
				<extensions>
				</extensions>
			</trkpt>
			<trkpt lat="-27.683564" lon="153.031410">
				<ele>47</ele>
				<time>2015-05-07T07:56:23Z</time>
				<extensions>
				</extensions>
			</trkpt>
			<trkpt lat="-27.683357" lon="153.031389">
				<ele>46</ele>
				<time>2015-05-07T07:56:24Z</time>
				<extensions>
				</extensions>
			</trkpt>
			<trkpt lat="-27.683153" lon="153.031372">
				<ele>46</ele>
				<time>2015-05-07T07:56:25Z</time>
				<extensions>
				</extensions>
			</trkpt>
			<trkpt lat="-27.682947" lon="153.031351">
				<ele>44</ele>
				<time>2015-05-07T07:56:26Z</time>
				<extensions>
				</extensions>
			</trkpt>
			<trkpt lat="-27.682725" lon="153.031331">
				<ele>44</ele>
				<time>2015-05-07T07:56:27Z</time>
				<extensions>
				</extensions>
			</trkpt>
			<trkpt lat="-27.682506" lon="153.031309">
				<ele>43</ele>
				<time>2015-05-07T07:56:28Z</time>
				<extensions>
				</extensions>
			</trkpt>
			<trkpt lat="-27.682294" lon="153.031287">
				<ele>43</ele>
				<time>2015-05-07T07:56:29Z</time>
				<extensions>
				</extensions>
			</trkpt>
			<trkpt lat="-27.682082" lon="153.031265">
				<ele>42</ele>
				<time>2015-05-07T07:56:30Z</time>
				<extensions>
				</extensions>
			</trkpt>
			<trkpt lat="-27.681866" lon="153.031243">
				<ele>41</ele>
				<time>2015-05-07T07:56:31Z</time>
				<extensions>
				</extensions>
			</trkpt>
			<trkpt lat="-27.681656" lon="153.031219">
				<ele>42</ele>
				<time>2015-05-07T07:56:32Z</time>
				<extensions>
				</extensions>
			</trkpt>
			<trkpt lat="-27.681449" lon="153.031202">
				<ele>40</ele>
				<time>2015-05-07T07:56:33Z</time>
				<extensions>
				</extensions>
			</trkpt>
			<trkpt lat="-27.681244" lon="153.031184">
				<ele>42</ele>
				<time>2015-05-07T07:56:34Z</time>
				<extensions>
				</extensions>
			</trkpt>
			<trkpt lat="-27.681027" lon="153.031166">
				<ele>42</ele>
				<time>2015-05-07T07:56:35Z</time>
				<extensions>
				</extensions>
			</trkpt>
			<trkpt lat="-27.680813" lon="153.031151">
				<ele>43</ele>
				<time>2015-05-07T07:56:36Z</time>
				<extensions>
				</extensions>
			</trkpt>
			<trkpt lat="-27.680604" lon="153.031139">
				<ele>43</ele>
				<time>2015-05-07T07:56:37Z</time>
				<extensions>
				</extensions>
			</trkpt>
			<trkpt lat="-27.680390" lon="153.031127">
				<ele>44</ele>
				<time>2015-05-07T07:56:38Z</time>
				<extensions>
				</extensions>
			</trkpt>
			<trkpt lat="-27.680180" lon="153.031118">
				<ele>45</ele>
				<time>2015-05-07T07:56:39Z</time>
				<extensions>
				</extensions>
			</trkpt>
			<trkpt lat="-27.679966" lon="153.031110">
				<ele>47</ele>
				<time>2015-05-07T07:56:40Z</time>
				<extensions>
				</extensions>
			</trkpt>
			<trkpt lat="-27.679755" lon="153.031105">
				<ele>47</ele>
				<time>2015-05-07T07:56:41Z</time>
				<extensions>
				</extensions>
			</trkpt>
			<trkpt lat="-27.679550" lon="153.031100">
				<ele>48</ele>
				<time>2015-05-07T07:56:42Z</time>
				<extensions>
				</extensions>
			</trkpt>
			<trkpt lat="-27.679348" lon="153.031095">
				<ele>46</ele>
				<time>2015-05-07T07:56:43Z</time>
				<extensions>
				</extensions>
			</trkpt>
			<trkpt lat="-27.679137" lon="153.031088">
				<ele>47</ele>
				<time>2015-05-07T07:56:44Z</time>
				<extensions>
				</extensions>
			</trkpt>
			<trkpt lat="-27.678931" lon="153.031084">
				<ele>47</ele>
				<time>2015-05-07T07:56:45Z</time>
				<extensions>
				</extensions>
			</trkpt>
			<trkpt lat="-27.678700" lon="153.031066">
				<ele>49</ele>
				<time>2015-05-07T07:56:46Z</time>
				<extensions>
				</extensions>
			</trkpt>
			<trkpt lat="-27.678507" lon="153.031062">
				<ele>50</ele>
				<time>2015-05-07T07:56:47Z</time>
				<extensions>
				</extensions>
			</trkpt>
			<trkpt lat="-27.678297" lon="153.031057">
				<ele>51</ele>
				<time>2015-05-07T07:56:48Z</time>
				<extensions>
				</extensions>
			</trkpt>
			<trkpt lat="-27.678087" lon="153.031050">
				<ele>53</ele>
				<time>2015-05-07T07:56:49Z</time>
				<extensions>
				</extensions>
			</trkpt>
			<trkpt lat="-27.677885" lon="153.031046">
				<ele>54</ele>
				<time>2015-05-07T07:56:50Z</time>
				<extensions>
				</extensions>
			</trkpt>
			<trkpt lat="-27.677681" lon="153.031040">
				<ele>54</ele>
				<time>2015-05-07T07:56:51Z</time>
				<extensions>
				</extensions>
			</trkpt>
			<trkpt lat="-27.677483" lon="153.031033">
				<ele>55</ele>
				<time>2015-05-07T07:56:52Z</time>
				<extensions>
				</extensions>
			</trkpt>
			<trkpt lat="-27.677284" lon="153.031027">
				<ele>55</ele>
				<time>2015-05-07T07:56:53Z</time>
				<extensions>
				</extensions>
			</trkpt>
			<trkpt lat="-27.677078" lon="153.031021">
				<ele>56</ele>
				<time>2015-05-07T07:56:54Z</time>
				<extensions>
				</extensions>
			</trkpt>
			<trkpt lat="-27.676879" lon="153.031015">
				<ele>57</ele>
				<time>2015-05-07T07:56:55Z</time>
				<extensions>
				</extensions>
			</trkpt>
			<trkpt lat="-27.676681" lon="153.031011">
				<ele>58</ele>
				<time>2015-05-07T07:56:56Z</time>
				<extensions>
				</extensions>
			</trkpt>
			<trkpt lat="-27.676487" lon="153.031008">
				<ele>58</ele>
				<time>2015-05-07T07:56:57Z</time>
				<extensions>
				</extensions>
			</trkpt>
			<trkpt lat="-27.676283" lon="153.031001">
				<ele>59</ele>
				<time>2015-05-07T07:56:58Z</time>
				<extensions>
				</extensions>
			</trkpt>
			<trkpt lat="-27.676073" lon="153.030996">
				<ele>60</ele>
				<time>2015-05-07T07:56:59Z</time>
				<extensions>
				</extensions>
			</trkpt>
			<trkpt lat="-27.675859" lon="153.030990">
				<ele>61</ele>
				<time>2015-05-07T07:57:00Z</time>
				<extensions>
				</extensions>
			</trkpt>
			<trkpt lat="-27.675654" lon="153.030982">
				<ele>60</ele>
				<time>2015-05-07T07:57:01Z</time>
				<extensions>
				</extensions>
			</trkpt>
			<trkpt lat="-27.675447" lon="153.030975">
				<ele>59</ele>
				<time>2015-05-07T07:57:02Z</time>
				<extensions>
				</extensions>
			</trkpt>
			<trkpt lat="-27.675242" lon="153.030968">
				<ele>60</ele>
				<time>2015-05-07T07:57:03Z</time>
				<extensions>
				</extensions>
			</trkpt>
			<trkpt lat="-27.675035" lon="153.030961">
				<ele>60</ele>
				<time>2015-05-07T07:57:04Z</time>
				<extensions>
				</extensions>
			</trkpt>
			<trkpt lat="-27.674839" lon="153.030955">
				<ele>59</ele>
				<time>2015-05-07T07:57:05Z</time>
				<extensions>
				</extensions>
			</trkpt>
			<trkpt lat="-27.674633" lon="153.030949">
				<ele>59</ele>
				<time>2015-05-07T07:57:06Z</time>
				<extensions>
				</extensions>
			</trkpt>
			<trkpt lat="-27.674428" lon="153.030941">
				<ele>58</ele>
				<time>2015-05-07T07:57:07Z</time>
				<extensions>
				</extensions>
			</trkpt>
			<trkpt lat="-27.674218" lon="153.030935">
				<ele>59</ele>
				<time>2015-05-07T07:57:08Z</time>
				<extensions>
				</extensions>
			</trkpt>
			<trkpt lat="-27.674021" lon="153.030935">
				<ele>57</ele>
				<time>2015-05-07T07:57:09Z</time>
				<extensions>
				</extensions>
			</trkpt>
			<trkpt lat="-27.673822" lon="153.030944">
				<ele>57</ele>
				<time>2015-05-07T07:57:10Z</time>
				<extensions>
				</extensions>
			</trkpt>
			<trkpt lat="-27.673625" lon="153.030961">
				<ele>59</ele>
				<time>2015-05-07T07:57:11Z</time>
				<extensions>
				</extensions>
			</trkpt>
			<trkpt lat="-27.673421" lon="153.030988">
				<ele>58</ele>
				<time>2015-05-07T07:57:12Z</time>
				<extensions>
				</extensions>
			</trkpt>
			<trkpt lat="-27.673224" lon="153.031025">
				<ele>58</ele>
				<time>2015-05-07T07:57:13Z</time>
				<extensions>
				</extensions>
			</trkpt>
			<trkpt lat="-27.673018" lon="153.031071">
				<ele>58</ele>
				<time>2015-05-07T07:57:14Z</time>
				<extensions>
				</extensions>
			</trkpt>
			<trkpt lat="-27.672816" lon="153.031128">
				<ele>58</ele>
				<time>2015-05-07T07:57:15Z</time>
				<extensions>
				</extensions>
			</trkpt>
			<trkpt lat="-27.672616" lon="153.031195">
				<ele>58</ele>
				<time>2015-05-07T07:57:16Z</time>
				<extensions>
				</extensions>
			</trkpt>
			<trkpt lat="-27.672415" lon="153.031267">
				<ele>58</ele>
				<time>2015-05-07T07:57:17Z</time>
				<extensions>
				</extensions>
			</trkpt>
			<trkpt lat="-27.672215" lon="153.031347">
				<ele>59</ele>
				<time>2015-05-07T07:57:18Z</time>
				<extensions>
				</extensions>
			</trkpt>
			<trkpt lat="-27.672018" lon="153.031427">
				<ele>59</ele>
				<time>2015-05-07T07:57:19Z</time>
				<extensions>
				</extensions>
			</trkpt>
			<trkpt lat="-27.671818" lon="153.031508">
				<ele>59</ele>
				<time>2015-05-07T07:57:20Z</time>
				<extensions>
				</extensions>
			</trkpt>
			<trkpt lat="-27.671618" lon="153.031587">
				<ele>58</ele>
				<time>2015-05-07T07:57:21Z</time>
				<extensions>
				</extensions>
			</trkpt>
			<trkpt lat="-27.671424" lon="153.031663">
				<ele>56</ele>
				<time>2015-05-07T07:57:22Z</time>
				<extensions>
				</extensions>
			</trkpt>
			<trkpt lat="-27.671218" lon="153.031741">
				<ele>56</ele>
				<time>2015-05-07T07:57:23Z</time>
				<extensions>
				</extensions>
			</trkpt>
			<trkpt lat="-27.671038" lon="153.031821">
				<ele>55</ele>
				<time>2015-05-07T07:57:24Z</time>
				<extensions>
				</extensions>
			</trkpt>
			<trkpt lat="-27.670839" lon="153.031900">
				<ele>56</ele>
				<time>2015-05-07T07:57:25Z</time>
				<extensions>
				</extensions>
			</trkpt>
			<trkpt lat="-27.670642" lon="153.031981">
				<ele>56</ele>
				<time>2015-05-07T07:57:26Z</time>
				<extensions>
				</extensions>
			</trkpt>
			<trkpt lat="-27.670459" lon="153.032057">
				<ele>54</ele>
				<time>2015-05-07T07:57:27Z</time>
				<extensions>
				</extensions>
			</trkpt>
			<trkpt lat="-27.670263" lon="153.032139">
				<ele>53</ele>
				<time>2015-05-07T07:57:28Z</time>
				<extensions>
				</extensions>
			</trkpt>
			<trkpt lat="-27.670075" lon="153.032224">
				<ele>53</ele>
				<time>2015-05-07T07:57:29Z</time>
				<extensions>
				</extensions>
			</trkpt>
			<trkpt lat="-27.669877" lon="153.032309">
				<ele>53</ele>
				<time>2015-05-07T07:57:30Z</time>
				<extensions>
				</extensions>
			</trkpt>
			<trkpt lat="-27.669676" lon="153.032396">
				<ele>53</ele>
				<time>2015-05-07T07:57:31Z</time>
				<extensions>
				</extensions>
			</trkpt>
			<trkpt lat="-27.669475" lon="153.032481">
				<ele>52</ele>
				<time>2015-05-07T07:57:32Z</time>
				<extensions>
				</extensions>
			</trkpt>
			<trkpt lat="-27.669274" lon="153.032559">
				<ele>51</ele>
				<time>2015-05-07T07:57:33Z</time>
				<extensions>
				</extensions>
			</trkpt>
			<trkpt lat="-27.669068" lon="153.032639">
				<ele>51</ele>
				<time>2015-05-07T07:57:34Z</time>
				<extensions>
				</extensions>
			</trkpt>
			<trkpt lat="-27.668862" lon="153.032714">
				<ele>50</ele>
				<time>2015-05-07T07:57:35Z</time>
				<extensions>
				</extensions>
			</trkpt>
			<trkpt lat="-27.668668" lon="153.032785">
				<ele>49</ele>
				<time>2015-05-07T07:57:36Z</time>
				<extensions>
				</extensions>
			</trkpt>
			<trkpt lat="-27.668468" lon="153.032855">
				<ele>49</ele>
				<time>2015-05-07T07:57:37Z</time>
				<extensions>
				</extensions>
			</trkpt>
			<trkpt lat="-27.668276" lon="153.032921">
				<ele>47</ele>
				<time>2015-05-07T07:57:38Z</time>
				<extensions>
				</extensions>
			</trkpt>
			<trkpt lat="-27.668070" lon="153.032991">
				<ele>46</ele>
				<time>2015-05-07T07:57:39Z</time>
				<extensions>
				</extensions>
			</trkpt>
			<trkpt lat="-27.667870" lon="153.033067">
				<ele>45</ele>
				<time>2015-05-07T07:57:40Z</time>
				<extensions>
				</extensions>
			</trkpt>
			<trkpt lat="-27.667669" lon="153.033146">
				<ele>45</ele>
				<time>2015-05-07T07:57:41Z</time>
				<extensions>
				</extensions>
			</trkpt>
			<trkpt lat="-27.667462" lon="153.033230">
				<ele>43</ele>
				<time>2015-05-07T07:57:42Z</time>
				<extensions>
				</extensions>
			</trkpt>
			<trkpt lat="-27.667263" lon="153.033311">
				<ele>43</ele>
				<time>2015-05-07T07:57:43Z</time>
				<extensions>
				</extensions>
			</trkpt>
			<trkpt lat="-27.667067" lon="153.033387">
				<ele>42</ele>
				<time>2015-05-07T07:57:44Z</time>
				<extensions>
				</extensions>
			</trkpt>
			<trkpt lat="-27.666871" lon="153.033474">
				<ele>41</ele>
				<time>2015-05-07T07:57:45Z</time>
				<extensions>
				</extensions>
			</trkpt>
			<trkpt lat="-27.666673" lon="153.033566">
				<ele>39</ele>
				<time>2015-05-07T07:57:46Z</time>
				<extensions>
				</extensions>
			</trkpt>
			<trkpt lat="-27.666470" lon="153.033659">
				<ele>39</ele>
				<time>2015-05-07T07:57:47Z</time>
				<extensions>
				</extensions>
			</trkpt>
			<trkpt lat="-27.666276" lon="153.033754">
				<ele>40</ele>
				<time>2015-05-07T07:57:48Z</time>
				<extensions>
				</extensions>
			</trkpt>
			<trkpt lat="-27.666088" lon="153.033850">
				<ele>39</ele>
				<time>2015-05-07T07:57:49Z</time>
				<extensions>
				</extensions>
			</trkpt>
			<trkpt lat="-27.665893" lon="153.033952">
				<ele>39</ele>
				<time>2015-05-07T07:57:50Z</time>
				<extensions>
				</extensions>
			</trkpt>
			<trkpt lat="-27.665712" lon="153.034054">
				<ele>38</ele>
				<time>2015-05-07T07:57:51Z</time>
				<extensions>
				</extensions>
			</trkpt>
			<trkpt lat="-27.665537" lon="153.034160">
				<ele>38</ele>
				<time>2015-05-07T07:57:52Z</time>
				<extensions>
				</extensions>
			</trkpt>
			<trkpt lat="-27.665352" lon="153.034274">
				<ele>39</ele>
				<time>2015-05-07T07:57:53Z</time>
				<extensions>
				</extensions>
			</trkpt>
			<trkpt lat="-27.665179" lon="153.034394">
				<ele>38</ele>
				<time>2015-05-07T07:57:54Z</time>
				<extensions>
				</extensions>
			</trkpt>
			<trkpt lat="-27.664998" lon="153.034530">
				<ele>38</ele>
				<time>2015-05-07T07:57:55Z</time>
				<extensions>
				</extensions>
			</trkpt>
			<trkpt lat="-27.664830" lon="153.034667">
				<ele>38</ele>
				<time>2015-05-07T07:57:56Z</time>
				<extensions>
				</extensions>
			</trkpt>
			<trkpt lat="-27.664661" lon="153.034808">
				<ele>39</ele>
				<time>2015-05-07T07:57:57Z</time>
				<extensions>
				</extensions>
			</trkpt>
			<trkpt lat="-27.664498" lon="153.034952">
				<ele>40</ele>
				<time>2015-05-07T07:57:58Z</time>
				<extensions>
				</extensions>
			</trkpt>
			<trkpt lat="-27.664333" lon="153.035091">
				<ele>40</ele>
				<time>2015-05-07T07:57:59Z</time>
				<extensions>
				</extensions>
			</trkpt>
			<trkpt lat="-27.664167" lon="153.035237">
				<ele>39</ele>
				<time>2015-05-07T07:58:00Z</time>
				<extensions>
				</extensions>
			</trkpt>
			<trkpt lat="-27.664001" lon="153.035379">
				<ele>39</ele>
				<time>2015-05-07T07:58:01Z</time>
				<extensions>
				</extensions>
			</trkpt>
			<trkpt lat="-27.663835" lon="153.035521">
				<ele>40</ele>
				<time>2015-05-07T07:58:02Z</time>
				<extensions>
				</extensions>
			</trkpt>
			<trkpt lat="-27.663664" lon="153.035663">
				<ele>40</ele>
				<time>2015-05-07T07:58:03Z</time>
				<extensions>
				</extensions>
			</trkpt>
			<trkpt lat="-27.663494" lon="153.035799">
				<ele>40</ele>
				<time>2015-05-07T07:58:04Z</time>
				<extensions>
				</extensions>
			</trkpt>
			<trkpt lat="-27.663331" lon="153.035934">
				<ele>40</ele>
				<time>2015-05-07T07:58:05Z</time>
				<extensions>
				</extensions>
			</trkpt>
			<trkpt lat="-27.663156" lon="153.036076">
				<ele>40</ele>
				<time>2015-05-07T07:58:06Z</time>
				<extensions>
				</extensions>
			</trkpt>
			<trkpt lat="-27.662985" lon="153.036213">
				<ele>41</ele>
				<time>2015-05-07T07:58:07Z</time>
				<extensions>
				</extensions>
			</trkpt>
			<trkpt lat="-27.662808" lon="153.036350">
				<ele>40</ele>
				<time>2015-05-07T07:58:08Z</time>
				<extensions>
				</extensions>
			</trkpt>
			<trkpt lat="-27.662631" lon="153.036483">
				<ele>39</ele>
				<time>2015-05-07T07:58:09Z</time>
				<extensions>
				</extensions>
			</trkpt>
			<trkpt lat="-27.662456" lon="153.036611">
				<ele>37</ele>
				<time>2015-05-07T07:58:10Z</time>
				<extensions>
				</extensions>
			</trkpt>
			<trkpt lat="-27.662263" lon="153.036742">
				<ele>38</ele>
				<time>2015-05-07T07:58:11Z</time>
				<extensions>
				</extensions>
			</trkpt>
			<trkpt lat="-27.662081" lon="153.036864">
				<ele>38</ele>
				<time>2015-05-07T07:58:12Z</time>
				<extensions>
				</extensions>
			</trkpt>
			<trkpt lat="-27.661890" lon="153.036979">
				<ele>38</ele>
				<time>2015-05-07T07:58:13Z</time>
				<extensions>
				</extensions>
			</trkpt>
			<trkpt lat="-27.661699" lon="153.037086">
				<ele>37</ele>
				<time>2015-05-07T07:58:14Z</time>
				<extensions>
				</extensions>
			</trkpt>
			<trkpt lat="-27.661510" lon="153.037178">
				<ele>37</ele>
				<time>2015-05-07T07:58:15Z</time>
				<extensions>
				</extensions>
			</trkpt>
			<trkpt lat="-27.661312" lon="153.037259">
				<ele>36</ele>
				<time>2015-05-07T07:58:16Z</time>
				<extensions>
				</extensions>
			</trkpt>
			<trkpt lat="-27.661115" lon="153.037333">
				<ele>37</ele>
				<time>2015-05-07T07:58:17Z</time>
				<extensions>
				</extensions>
			</trkpt>
			<trkpt lat="-27.660915" lon="153.037400">
				<ele>37</ele>
				<time>2015-05-07T07:58:18Z</time>
				<extensions>
				</extensions>
			</trkpt>
			<trkpt lat="-27.660705" lon="153.037466">
				<ele>37</ele>
				<time>2015-05-07T07:58:19Z</time>
				<extensions>
				</extensions>
			</trkpt>
			<trkpt lat="-27.660506" lon="153.037529">
				<ele>38</ele>
				<time>2015-05-07T07:58:20Z</time>
				<extensions>
				</extensions>
			</trkpt>
			<trkpt lat="-27.660302" lon="153.037593">
				<ele>38</ele>
				<time>2015-05-07T07:58:21Z</time>
				<extensions>
				</extensions>
			</trkpt>
			<trkpt lat="-27.660096" lon="153.037658">
				<ele>38</ele>
				<time>2015-05-07T07:58:22Z</time>
				<extensions>
				</extensions>
			</trkpt>
			<trkpt lat="-27.659898" lon="153.037718">
				<ele>39</ele>
				<time>2015-05-07T07:58:23Z</time>
				<extensions>
				</extensions>
			</trkpt>
			<trkpt lat="-27.659704" lon="153.037779">
				<ele>38</ele>
				<time>2015-05-07T07:58:24Z</time>
				<extensions>
				</extensions>
			</trkpt>
			<trkpt lat="-27.659510" lon="153.037836">
				<ele>38</ele>
				<time>2015-05-07T07:58:25Z</time>
				<extensions>
				</extensions>
			</trkpt>
			<trkpt lat="-27.659314" lon="153.037896">
				<ele>38</ele>
				<time>2015-05-07T07:58:26Z</time>
				<extensions>
				</extensions>
			</trkpt>
			<trkpt lat="-27.659113" lon="153.037958">
				<ele>37</ele>
				<time>2015-05-07T07:58:27Z</time>
				<extensions>
				</extensions>
			</trkpt>
			<trkpt lat="-27.658908" lon="153.038020">
				<ele>38</ele>
				<time>2015-05-07T07:58:28Z</time>
				<extensions>
				</extensions>
			</trkpt>
			<trkpt lat="-27.658706" lon="153.038079">
				<ele>38</ele>
				<time>2015-05-07T07:58:29Z</time>
				<extensions>
				</extensions>
			</trkpt>
			<trkpt lat="-27.658504" lon="153.038140">
				<ele>38</ele>
				<time>2015-05-07T07:58:30Z</time>
				<extensions>
				</extensions>
			</trkpt>
			<trkpt lat="-27.658312" lon="153.038200">
				<ele>37</ele>
				<time>2015-05-07T07:58:31Z</time>
				<extensions>
				</extensions>
			</trkpt>
			<trkpt lat="-27.658116" lon="153.038261">
				<ele>37</ele>
				<time>2015-05-07T07:58:32Z</time>
				<extensions>
				</extensions>
			</trkpt>
			<trkpt lat="-27.657925" lon="153.038323">
				<ele>36</ele>
				<time>2015-05-07T07:58:33Z</time>
				<extensions>
				</extensions>
			</trkpt>
			<trkpt lat="-27.657729" lon="153.038393">
				<ele>36</ele>
				<time>2015-05-07T07:58:34Z</time>
				<extensions>
				</extensions>
			</trkpt>
			<trkpt lat="-27.657529" lon="153.038479">
				<ele>36</ele>
				<time>2015-05-07T07:58:35Z</time>
				<extensions>
				</extensions>
			</trkpt>
			<trkpt lat="-27.657339" lon="153.038569">
				<ele>36</ele>
				<time>2015-05-07T07:58:36Z</time>
				<extensions>
				</extensions>
			</trkpt>
			<trkpt lat="-27.657150" lon="153.038667">
				<ele>34</ele>
				<time>2015-05-07T07:58:37Z</time>
				<extensions>
				</extensions>
			</trkpt>
			<trkpt lat="-27.656970" lon="153.038772">
				<ele>33</ele>
				<time>2015-05-07T07:58:38Z</time>
				<extensions>
				</extensions>
			</trkpt>
			<trkpt lat="-27.656791" lon="153.038885">
				<ele>33</ele>
				<time>2015-05-07T07:58:39Z</time>
				<extensions>
				</extensions>
			</trkpt>
			<trkpt lat="-27.656614" lon="153.039005">
				<ele>33</ele>
				<time>2015-05-07T07:58:40Z</time>
				<extensions>
				</extensions>
			</trkpt>
			<trkpt lat="-27.656438" lon="153.039130">
				<ele>33</ele>
				<time>2015-05-07T07:58:41Z</time>
				<extensions>
				</extensions>
			</trkpt>
			<trkpt lat="-27.656273" lon="153.039252">
				<ele>33</ele>
				<time>2015-05-07T07:58:42Z</time>
				<extensions>
				</extensions>
			</trkpt>
			<trkpt lat="-27.656102" lon="153.039377">
				<ele>33</ele>
				<time>2015-05-07T07:58:43Z</time>
				<extensions>
				</extensions>
			</trkpt>
			<trkpt lat="-27.655931" lon="153.039496">
				<ele>33</ele>
				<time>2015-05-07T07:58:44Z</time>
				<extensions>
				</extensions>
			</trkpt>
			<trkpt lat="-27.655758" lon="153.039612">
				<ele>34</ele>
				<time>2015-05-07T07:58:45Z</time>
				<extensions>
				</extensions>
			</trkpt>
			<trkpt lat="-27.655575" lon="153.039724">
				<ele>33</ele>
				<time>2015-05-07T07:58:46Z</time>
				<extensions>
				</extensions>
			</trkpt>
			<trkpt lat="-27.655388" lon="153.039824">
				<ele>36</ele>
				<time>2015-05-07T07:58:47Z</time>
				<extensions>
				</extensions>
			</trkpt>
			<trkpt lat="-27.655199" lon="153.039919">
				<ele>37</ele>
				<time>2015-05-07T07:58:48Z</time>
				<extensions>
				</extensions>
			</trkpt>
			<trkpt lat="-27.655009" lon="153.040006">
				<ele>38</ele>
				<time>2015-05-07T07:58:49Z</time>
				<extensions>
				</extensions>
			</trkpt>
			<trkpt lat="-27.654821" lon="153.040083">
				<ele>39</ele>
				<time>2015-05-07T07:58:50Z</time>
				<extensions>
				</extensions>
			</trkpt>
			<trkpt lat="-27.654621" lon="153.040157">
				<ele>40</ele>
				<time>2015-05-07T07:58:51Z</time>
				<extensions>
				</extensions>
			</trkpt>
			<trkpt lat="-27.654421" lon="153.040217">
				<ele>42</ele>
				<time>2015-05-07T07:58:52Z</time>
				<extensions>
				</extensions>
			</trkpt>
			<trkpt lat="-27.654220" lon="153.040271">
				<ele>44</ele>
				<time>2015-05-07T07:58:53Z</time>
				<extensions>
				</extensions>
			</trkpt>
			<trkpt lat="-27.654012" lon="153.040312">
				<ele>46</ele>
				<time>2015-05-07T07:58:54Z</time>
				<extensions>
				</extensions>
			</trkpt>
			<trkpt lat="-27.653800" lon="153.040345">
				<ele>47</ele>
				<time>2015-05-07T07:58:55Z</time>
				<extensions>
				</extensions>
			</trkpt>
			<trkpt lat="-27.653592" lon="153.040371">
				<ele>48</ele>
				<time>2015-05-07T07:58:56Z</time>
				<extensions>
				</extensions>
			</trkpt>
			<trkpt lat="-27.653398" lon="153.040392">
				<ele>48</ele>
				<time>2015-05-07T07:58:57Z</time>
				<extensions>
				</extensions>
			</trkpt>
			<trkpt lat="-27.653198" lon="153.040414">
				<ele>49</ele>
				<time>2015-05-07T07:58:58Z</time>
				<extensions>
				</extensions>
			</trkpt>
			<trkpt lat="-27.652986" lon="153.040436">
				<ele>50</ele>
				<time>2015-05-07T07:58:59Z</time>
				<extensions>
				</extensions>
			</trkpt>
			<trkpt lat="-27.652783" lon="153.040459">
				<ele>51</ele>
				<time>2015-05-07T07:59:00Z</time>
				<extensions>
				</extensions>
			</trkpt>
			<trkpt lat="-27.652579" lon="153.040484">
				<ele>52</ele>
				<time>2015-05-07T07:59:01Z</time>
				<extensions>
				</extensions>
			</trkpt>
			<trkpt lat="-27.652371" lon="153.040510">
				<ele>52</ele>
				<time>2015-05-07T07:59:02Z</time>
				<extensions>
				</extensions>
			</trkpt>
			<trkpt lat="-27.652174" lon="153.040533">
				<ele>53</ele>
				<time>2015-05-07T07:59:03Z</time>
				<extensions>
				</extensions>
			</trkpt>
			<trkpt lat="-27.651961" lon="153.040554">
				<ele>56</ele>
				<time>2015-05-07T07:59:04Z</time>
				<extensions>
				</extensions>
			</trkpt>
			<trkpt lat="-27.651755" lon="153.040579">
				<ele>56</ele>
				<time>2015-05-07T07:59:05Z</time>
				<extensions>
				</extensions>
			</trkpt>
			<trkpt lat="-27.651548" lon="153.040601">
				<ele>54</ele>
				<time>2015-05-07T07:59:06Z</time>
				<extensions>
				</extensions>
			</trkpt>
			<trkpt lat="-27.651336" lon="153.040624">
				<ele>54</ele>
				<time>2015-05-07T07:59:07Z</time>
				<extensions>
				</extensions>
			</trkpt>
			<trkpt lat="-27.651132" lon="153.040648">
				<ele>54</ele>
				<time>2015-05-07T07:59:08Z</time>
				<extensions>
				</extensions>
			</trkpt>
			<trkpt lat="-27.650914" lon="153.040670">
				<ele>56</ele>
				<time>2015-05-07T07:59:09Z</time>
				<extensions>
				</extensions>
			</trkpt>
			<trkpt lat="-27.650708" lon="153.040693">
				<ele>56</ele>
				<time>2015-05-07T07:59:10Z</time>
				<extensions>
				</extensions>
			</trkpt>
			<trkpt lat="-27.650499" lon="153.040716">
				<ele>55</ele>
				<time>2015-05-07T07:59:11Z</time>
				<extensions>
				</extensions>
			</trkpt>
			<trkpt lat="-27.650296" lon="153.040739">
				<ele>54</ele>
				<time>2015-05-07T07:59:12Z</time>
				<extensions>
				</extensions>
			</trkpt>
			<trkpt lat="-27.650093" lon="153.040763">
				<ele>52</ele>
				<time>2015-05-07T07:59:13Z</time>
				<extensions>
				</extensions>
			</trkpt>
			<trkpt lat="-27.649891" lon="153.040791">
				<ele>51</ele>
				<time>2015-05-07T07:59:14Z</time>
				<extensions>
				</extensions>
			</trkpt>
			<trkpt lat="-27.649677" lon="153.040825">
				<ele>52</ele>
				<time>2015-05-07T07:59:15Z</time>
				<extensions>
				</extensions>
			</trkpt>
			<trkpt lat="-27.649474" lon="153.040863">
				<ele>50</ele>
				<time>2015-05-07T07:59:16Z</time>
				<extensions>
				</extensions>
			</trkpt>
			<trkpt lat="-27.649278" lon="153.040902">
				<ele>48</ele>
				<time>2015-05-07T07:59:17Z</time>
				<extensions>
				</extensions>
			</trkpt>
			<trkpt lat="-27.649073" lon="153.040948">
				<ele>49</ele>
				<time>2015-05-07T07:59:18Z</time>
				<extensions>
				</extensions>
			</trkpt>
			<trkpt lat="-27.648872" lon="153.040995">
				<ele>47</ele>
				<time>2015-05-07T07:59:19Z</time>
				<extensions>
				</extensions>
			</trkpt>
			<trkpt lat="-27.648684" lon="153.041045">
				<ele>47</ele>
				<time>2015-05-07T07:59:20Z</time>
				<extensions>
				</extensions>
			</trkpt>
			<trkpt lat="-27.648493" lon="153.041096">
				<ele>48</ele>
				<time>2015-05-07T07:59:21Z</time>
				<extensions>
				</extensions>
			</trkpt>
			<trkpt lat="-27.648305" lon="153.041150">
				<ele>49</ele>
				<time>2015-05-07T07:59:22Z</time>
				<extensions>
				</extensions>
			</trkpt>
			<trkpt lat="-27.648119" lon="153.041209">
				<ele>48</ele>
				<time>2015-05-07T07:59:23Z</time>
				<extensions>
				</extensions>
			</trkpt>
			<trkpt lat="-27.647934" lon="153.041271">
				<ele>47</ele>
				<time>2015-05-07T07:59:24Z</time>
				<extensions>
				</extensions>
			</trkpt>
			<trkpt lat="-27.647746" lon="153.041331">
				<ele>49</ele>
				<time>2015-05-07T07:59:25Z</time>
				<extensions>
				</extensions>
			</trkpt>
			<trkpt lat="-27.647544" lon="153.041393">
				<ele>48</ele>
				<time>2015-05-07T07:59:26Z</time>
				<extensions>
				</extensions>
			</trkpt>
			<trkpt lat="-27.647345" lon="153.041457">
				<ele>50</ele>
				<time>2015-05-07T07:59:27Z</time>
				<extensions>
				</extensions>
			</trkpt>
			<trkpt lat="-27.647136" lon="153.041517">
				<ele>51</ele>
				<time>2015-05-07T07:59:28Z</time>
				<extensions>
				</extensions>
			</trkpt>
			<trkpt lat="-27.646935" lon="153.041582">
				<ele>54</ele>
				<time>2015-05-07T07:59:29Z</time>
				<extensions>
				</extensions>
			</trkpt>
			<trkpt lat="-27.646735" lon="153.041647">
				<ele>55</ele>
				<time>2015-05-07T07:59:30Z</time>
				<extensions>
				</extensions>
			</trkpt>
			<trkpt lat="-27.646535" lon="153.041711">
				<ele>55</ele>
				<time>2015-05-07T07:59:31Z</time>
				<extensions>
				</extensions>
			</trkpt>
			<trkpt lat="-27.646340" lon="153.041777">
				<ele>58</ele>
				<time>2015-05-07T07:59:32Z</time>
				<extensions>
				</extensions>
			</trkpt>
			<trkpt lat="-27.646136" lon="153.041841">
				<ele>58</ele>
				<time>2015-05-07T07:59:33Z</time>
				<extensions>
				</extensions>
			</trkpt>
			<trkpt lat="-27.645926" lon="153.041906">
				<ele>58</ele>
				<time>2015-05-07T07:59:34Z</time>
				<extensions>
				</extensions>
			</trkpt>
			<trkpt lat="-27.645723" lon="153.041970">
				<ele>60</ele>
				<time>2015-05-07T07:59:35Z</time>
				<extensions>
				</extensions>
			</trkpt>
			<trkpt lat="-27.645524" lon="153.042034">
				<ele>63</ele>
				<time>2015-05-07T07:59:36Z</time>
				<extensions>
				</extensions>
			</trkpt>
			<trkpt lat="-27.645323" lon="153.042099">
				<ele>63</ele>
				<time>2015-05-07T07:59:37Z</time>
				<extensions>
				</extensions>
			</trkpt>
			<trkpt lat="-27.645122" lon="153.042163">
				<ele>62</ele>
				<time>2015-05-07T07:59:38Z</time>
				<extensions>
				</extensions>
			</trkpt>
			<trkpt lat="-27.644927" lon="153.042224">
				<ele>62</ele>
				<time>2015-05-07T07:59:39Z</time>
				<extensions>
				</extensions>
			</trkpt>
			<trkpt lat="-27.644732" lon="153.042288">
				<ele>63</ele>
				<time>2015-05-07T07:59:40Z</time>
				<extensions>
				</extensions>
			</trkpt>
			<trkpt lat="-27.644542" lon="153.042351">
				<ele>64</ele>
				<time>2015-05-07T07:59:41Z</time>
				<extensions>
				</extensions>
			</trkpt>
			<trkpt lat="-27.644345" lon="153.042415">
				<ele>64</ele>
				<time>2015-05-07T07:59:42Z</time>
				<extensions>
				</extensions>
			</trkpt>
			<trkpt lat="-27.644144" lon="153.042475">
				<ele>63</ele>
				<time>2015-05-07T07:59:43Z</time>
				<extensions>
				</extensions>
			</trkpt>
			<trkpt lat="-27.643953" lon="153.042538">
				<ele>62</ele>
				<time>2015-05-07T07:59:44Z</time>
				<extensions>
				</extensions>
			</trkpt>
			<trkpt lat="-27.643756" lon="153.042602">
				<ele>61</ele>
				<time>2015-05-07T07:59:45Z</time>
				<extensions>
				</extensions>
			</trkpt>
			<trkpt lat="-27.643557" lon="153.042666">
				<ele>62</ele>
				<time>2015-05-07T07:59:46Z</time>
				<extensions>
				</extensions>
			</trkpt>
			<trkpt lat="-27.643362" lon="153.042735">
				<ele>61</ele>
				<time>2015-05-07T07:59:47Z</time>
				<extensions>
				</extensions>
			</trkpt>
			<trkpt lat="-27.643169" lon="153.042810">
				<ele>60</ele>
				<time>2015-05-07T07:59:48Z</time>
				<extensions>
				</extensions>
			</trkpt>
			<trkpt lat="-27.642986" lon="153.042889">
				<ele>60</ele>
				<time>2015-05-07T07:59:49Z</time>
				<extensions>
				</extensions>
			</trkpt>
			<trkpt lat="-27.642801" lon="153.042978">
				<ele>58</ele>
				<time>2015-05-07T07:59:50Z</time>
				<extensions>
				</extensions>
			</trkpt>
			<trkpt lat="-27.642625" lon="153.043072">
				<ele>57</ele>
				<time>2015-05-07T07:59:51Z</time>
				<extensions>
				</extensions>
			</trkpt>
			<trkpt lat="-27.642451" lon="153.043177">
				<ele>58</ele>
				<time>2015-05-07T07:59:52Z</time>
				<extensions>
				</extensions>
			</trkpt>
			<trkpt lat="-27.642284" lon="153.043288">
				<ele>58</ele>
				<time>2015-05-07T07:59:53Z</time>
				<extensions>
				</extensions>
			</trkpt>
			<trkpt lat="-27.642122" lon="153.043411">
				<ele>59</ele>
				<time>2015-05-07T07:59:54Z</time>
				<extensions>
				</extensions>
			</trkpt>
			<trkpt lat="-27.641950" lon="153.043541">
				<ele>58</ele>
				<time>2015-05-07T07:59:55Z</time>
				<extensions>
				</extensions>
			</trkpt>
			<trkpt lat="-27.641790" lon="153.043665">
				<ele>56</ele>
				<time>2015-05-07T07:59:56Z</time>
				<extensions>
				</extensions>
			</trkpt>
			<trkpt lat="-27.641624" lon="153.043792">
				<ele>55</ele>
				<time>2015-05-07T07:59:57Z</time>
				<extensions>
				</extensions>
			</trkpt>
			<trkpt lat="-27.641455" lon="153.043918">
				<ele>55</ele>
				<time>2015-05-07T07:59:58Z</time>
				<extensions>
				</extensions>
			</trkpt>
			<trkpt lat="-27.641289" lon="153.044033">
				<ele>57</ele>
				<time>2015-05-07T07:59:59Z</time>
				<extensions>
				</extensions>
			</trkpt>
			<trkpt lat="-27.641117" lon="153.044139">
				<ele>55</ele>
				<time>2015-05-07T08:00:00Z</time>
				<extensions>
				</extensions>
			</trkpt>
			<trkpt lat="-27.640942" lon="153.044234">
				<ele>57</ele>
				<time>2015-05-07T08:00:01Z</time>
				<extensions>
				</extensions>
			</trkpt>
			<trkpt lat="-27.640759" lon="153.044323">
				<ele>56</ele>
				<time>2015-05-07T08:00:02Z</time>
				<extensions>
				</extensions>
			</trkpt>
			<trkpt lat="-27.640578" lon="153.044406">
				<ele>55</ele>
				<time>2015-05-07T08:00:03Z</time>
				<extensions>
				</extensions>
			</trkpt>
			<trkpt lat="-27.640391" lon="153.044473">
				<ele>55</ele>
				<time>2015-05-07T08:00:04Z</time>
				<extensions>
				</extensions>
			</trkpt>
			<trkpt lat="-27.640203" lon="153.044548">
				<ele>54</ele>
				<time>2015-05-07T08:00:05Z</time>
				<extensions>
				</extensions>
			</trkpt>
			<trkpt lat="-27.640005" lon="153.044605">
				<ele>54</ele>
				<time>2015-05-07T08:00:06Z</time>
				<extensions>
				</extensions>
			</trkpt>
			<trkpt lat="-27.639813" lon="153.044648">
				<ele>54</ele>
				<time>2015-05-07T08:00:07Z</time>
				<extensions>
				</extensions>
			</trkpt>
			<trkpt lat="-27.639619" lon="153.044679">
				<ele>54</ele>
				<time>2015-05-07T08:00:08Z</time>
				<extensions>
				</extensions>
			</trkpt>
			<trkpt lat="-27.639431" lon="153.044700">
				<ele>51</ele>
				<time>2015-05-07T08:00:09Z</time>
				<extensions>
				</extensions>
			</trkpt>
			<trkpt lat="-27.639245" lon="153.044715">
				<ele>50</ele>
				<time>2015-05-07T08:00:10Z</time>
				<extensions>
				</extensions>
			</trkpt>
			<trkpt lat="-27.639047" lon="153.044725">
				<ele>50</ele>
				<time>2015-05-07T08:00:11Z</time>
				<extensions>
				</extensions>
			</trkpt>
			<trkpt lat="-27.638858" lon="153.044735">
				<ele>49</ele>
				<time>2015-05-07T08:00:12Z</time>
				<extensions>
				</extensions>
			</trkpt>
			<trkpt lat="-27.638674" lon="153.044746">
				<ele>51</ele>
				<time>2015-05-07T08:00:13Z</time>
				<extensions>
				</extensions>
			</trkpt>
			<trkpt lat="-27.638468" lon="153.044760">
				<ele>52</ele>
				<time>2015-05-07T08:00:14Z</time>
				<extensions>
				</extensions>
			</trkpt>
			<trkpt lat="-27.638110" lon="153.044803">
				<ele>52</ele>
				<time>2015-05-07T08:00:16Z</time>
				<extensions>
				</extensions>
			</trkpt>
			<trkpt lat="-27.637749" lon="153.044863">
				<ele>54</ele>
				<time>2015-05-07T08:00:18Z</time>
				<extensions>
				</extensions>
			</trkpt>
			<trkpt lat="-27.637555" lon="153.044906">
				<ele>53</ele>
				<time>2015-05-07T08:00:19Z</time>
				<extensions>
				</extensions>
			</trkpt>
			<trkpt lat="-27.637365" lon="153.044959">
				<ele>54</ele>
				<time>2015-05-07T08:00:20Z</time>
				<extensions>
				</extensions>
			</trkpt>
			<trkpt lat="-27.637173" lon="153.045019">
				<ele>54</ele>
				<time>2015-05-07T08:00:21Z</time>
				<extensions>
				</extensions>
			</trkpt>
			<trkpt lat="-27.636979" lon="153.045082">
				<ele>54</ele>
				<time>2015-05-07T08:00:22Z</time>
				<extensions>
				</extensions>
			</trkpt>
			<trkpt lat="-27.636789" lon="153.045152">
				<ele>53</ele>
				<time>2015-05-07T08:00:23Z</time>
				<extensions>
				</extensions>
			</trkpt>
			<trkpt lat="-27.636594" lon="153.045216">
				<ele>53</ele>
				<time>2015-05-07T08:00:24Z</time>
				<extensions>
				</extensions>
			</trkpt>
			<trkpt lat="-27.636399" lon="153.045283">
				<ele>53</ele>
				<time>2015-05-07T08:00:25Z</time>
				<extensions>
				</extensions>
			</trkpt>
			<trkpt lat="-27.636201" lon="153.045353">
				<ele>51</ele>
				<time>2015-05-07T08:00:26Z</time>
				<extensions>
				</extensions>
			</trkpt>
			<trkpt lat="-27.636000" lon="153.045425">
				<ele>51</ele>
				<time>2015-05-07T08:00:27Z</time>
				<extensions>
				</extensions>
			</trkpt>
			<trkpt lat="-27.635800" lon="153.045498">
				<ele>51</ele>
				<time>2015-05-07T08:00:28Z</time>
				<extensions>
				</extensions>
			</trkpt>
			<trkpt lat="-27.635606" lon="153.045563">
				<ele>51</ele>
				<time>2015-05-07T08:00:29Z</time>
				<extensions>
				</extensions>
			</trkpt>
			<trkpt lat="-27.635408" lon="153.045633">
				<ele>50</ele>
				<time>2015-05-07T08:00:30Z</time>
				<extensions>
				</extensions>
			</trkpt>
			<trkpt lat="-27.635218" lon="153.045694">
				<ele>49</ele>
				<time>2015-05-07T08:00:31Z</time>
				<extensions>
				</extensions>
			</trkpt>
			<trkpt lat="-27.635025" lon="153.045759">
				<ele>49</ele>
				<time>2015-05-07T08:00:32Z</time>
				<extensions>
				</extensions>
			</trkpt>
			<trkpt lat="-27.634837" lon="153.045825">
				<ele>48</ele>
				<time>2015-05-07T08:00:33Z</time>
				<extensions>
				</extensions>
			</trkpt>
			<trkpt lat="-27.634644" lon="153.045891">
				<ele>47</ele>
				<time>2015-05-07T08:00:34Z</time>
				<extensions>
				</extensions>
			</trkpt>
			<trkpt lat="-27.634447" lon="153.045960">
				<ele>47</ele>
				<time>2015-05-07T08:00:35Z</time>
				<extensions>
				</extensions>
			</trkpt>
			<trkpt lat="-27.634254" lon="153.046027">
				<ele>47</ele>
				<time>2015-05-07T08:00:36Z</time>
				<extensions>
				</extensions>
			</trkpt>
			<trkpt lat="-27.634064" lon="153.046094">
				<ele>47</ele>
				<time>2015-05-07T08:00:37Z</time>
				<extensions>
				</extensions>
			</trkpt>
			<trkpt lat="-27.633876" lon="153.046159">
				<ele>47</ele>
				<time>2015-05-07T08:00:38Z</time>
				<extensions>
				</extensions>
			</trkpt>
			<trkpt lat="-27.633694" lon="153.046220">
				<ele>45</ele>
				<time>2015-05-07T08:00:39Z</time>
				<extensions>
				</extensions>
			</trkpt>
			<trkpt lat="-27.633360" lon="153.046329">
				<ele>43</ele>
				<time>2015-05-07T08:00:41Z</time>
				<extensions>
				</extensions>
			</trkpt>
			<trkpt lat="-27.633051" lon="153.046418">
				<ele>43</ele>
				<time>2015-05-07T08:00:43Z</time>
				<extensions>
				</extensions>
			</trkpt>
			<trkpt lat="-27.632786" lon="153.046485">
				<ele>42</ele>
				<time>2015-05-07T08:00:45Z</time>
				<extensions>
				</extensions>
			</trkpt>
			<trkpt lat="-27.632549" lon="153.046532">
				<ele>42</ele>
				<time>2015-05-07T08:00:47Z</time>
				<extensions>
				</extensions>
			</trkpt>
			<trkpt lat="-27.632357" lon="153.046559">
				<ele>40</ele>
				<time>2015-05-07T08:00:49Z</time>
				<extensions>
				</extensions>
			</trkpt>
			<trkpt lat="-27.632122" lon="153.046590">
				<ele>40</ele>
				<time>2015-05-07T08:00:52Z</time>
				<extensions>
				</extensions>
			</trkpt>
			<trkpt lat="-27.631922" lon="153.046610">
				<ele>41</ele>
				<time>2015-05-07T08:00:57Z</time>
				<extensions>
				</extensions>
			</trkpt>
			<trkpt lat="-27.631728" lon="153.046614">
				<ele>48</ele>
				<time>2015-05-07T08:01:37Z</time>
				<extensions>
				</extensions>
			</trkpt>
			<trkpt lat="-27.631515" lon="153.046621">
				<ele>48</ele>
				<time>2015-05-07T08:01:41Z</time>
				<extensions>
				</extensions>
			</trkpt>
			<trkpt lat="-27.631266" lon="153.046618">
				<ele>49</ele>
				<time>2015-05-07T08:01:44Z</time>
				<extensions>
				</extensions>
			</trkpt>
			<trkpt lat="-27.631081" lon="153.046605">
				<ele>50</ele>
				<time>2015-05-07T08:01:46Z</time>
				<extensions>
				</extensions>
			</trkpt>
			<trkpt lat="-27.630868" lon="153.046586">
				<ele>51</ele>
				<time>2015-05-07T08:01:48Z</time>
				<extensions>
				</extensions>
			</trkpt>
			<trkpt lat="-27.630649" lon="153.046566">
				<ele>51</ele>
				<time>2015-05-07T08:01:50Z</time>
				<extensions>
				</extensions>
			</trkpt>
			<trkpt lat="-27.630373" lon="153.046523">
				<ele>53</ele>
				<time>2015-05-07T08:01:52Z</time>
				<extensions>
				</extensions>
			</trkpt>
			<trkpt lat="-27.630074" lon="153.046485">
				<ele>54</ele>
				<time>2015-05-07T08:01:54Z</time>
				<extensions>
				</extensions>
			</trkpt>
			<trkpt lat="-27.629785" lon="153.046445">
				<ele>55</ele>
				<time>2015-05-07T08:01:56Z</time>
				<extensions>
				</extensions>
			</trkpt>
			<trkpt lat="-27.629477" lon="153.046407">
				<ele>56</ele>
				<time>2015-05-07T08:01:58Z</time>
				<extensions>
				</extensions>
			</trkpt>
			<trkpt lat="-27.629165" lon="153.046370">
				<ele>56</ele>
				<time>2015-05-07T08:02:00Z</time>
				<extensions>
				</extensions>
			</trkpt>
			<trkpt lat="-27.628855" lon="153.046347">
				<ele>56</ele>
				<time>2015-05-07T08:02:02Z</time>
				<extensions>
				</extensions>
			</trkpt>
			<trkpt lat="-27.628527" lon="153.046336">
				<ele>56</ele>
				<time>2015-05-07T08:02:04Z</time>
				<extensions>
				</extensions>
			</trkpt>
			<trkpt lat="-27.628206" lon="153.046345">
				<ele>56</ele>
				<time>2015-05-07T08:02:06Z</time>
				<extensions>
				</extensions>
			</trkpt>
			<trkpt lat="-27.627895" lon="153.046370">
				<ele>55</ele>
				<time>2015-05-07T08:02:08Z</time>
				<extensions>
				</extensions>
			</trkpt>
			<trkpt lat="-27.627590" lon="153.046412">
				<ele>54</ele>
				<time>2015-05-07T08:02:10Z</time>
				<extensions>
				</extensions>
			</trkpt>
			<trkpt lat="-27.627290" lon="153.046467">
				<ele>53</ele>
				<time>2015-05-07T08:02:12Z</time>
				<extensions>
				</extensions>
			</trkpt>
			<trkpt lat="-27.626993" lon="153.046537">
				<ele>54</ele>
				<time>2015-05-07T08:02:14Z</time>
				<extensions>
				</extensions>
			</trkpt>
			<trkpt lat="-27.626705" lon="153.046622">
				<ele>53</ele>
				<time>2015-05-07T08:02:16Z</time>
				<extensions>
				</extensions>
			</trkpt>
			<trkpt lat="-27.626438" lon="153.046709">
				<ele>52</ele>
				<time>2015-05-07T08:02:18Z</time>
				<extensions>
				</extensions>
			</trkpt>
			<trkpt lat="-27.626180" lon="153.046803">
				<ele>51</ele>
				<time>2015-05-07T08:02:20Z</time>
				<extensions>
				</extensions>
			</trkpt>
			<trkpt lat="-27.625931" lon="153.046906">
				<ele>50</ele>
				<time>2015-05-07T08:02:22Z</time>
				<extensions>
				</extensions>
			</trkpt>
			<trkpt lat="-27.625704" lon="153.047013">
				<ele>50</ele>
				<time>2015-05-07T08:02:24Z</time>
				<extensions>
				</extensions>
			</trkpt>
			<trkpt lat="-27.625471" lon="153.047129">
				<ele>47</ele>
				<time>2015-05-07T08:02:27Z</time>
				<extensions>
				</extensions>
			</trkpt>
			<trkpt lat="-27.625295" lon="153.047219">
				<ele>45</ele>
				<time>2015-05-07T08:02:31Z</time>
				<extensions>
				</extensions>
			</trkpt>
			<trkpt lat="-27.625117" lon="153.047330">
				<ele>45</ele>
				<time>2015-05-07T08:02:36Z</time>
				<extensions>
				</extensions>
			</trkpt>
			<trkpt lat="-27.624962" lon="153.047440">
				<ele>45</ele>
				<time>2015-05-07T08:02:44Z</time>
				<extensions>
				</extensions>
			</trkpt>
			<trkpt lat="-27.624808" lon="153.047549">
				<ele>45</ele>
				<time>2015-05-07T08:02:53Z</time>
				<extensions>
				</extensions>
			</trkpt>
			<trkpt lat="-27.624646" lon="153.047673">
				<ele>45</ele>
				<time>2015-05-07T08:03:32Z</time>
				<extensions>
				</extensions>
			</trkpt>
			<trkpt lat="-27.624488" lon="153.047780">
				<ele>46</ele>
				<time>2015-05-07T08:03:35Z</time>
				<extensions>
				</extensions>
			</trkpt>
			<trkpt lat="-27.624256" lon="153.047948">
				<ele>47</ele>
				<time>2015-05-07T08:03:38Z</time>
				<extensions>
				</extensions>
			</trkpt>
			<trkpt lat="-27.624036" lon="153.048104">
				<ele>46</ele>
				<time>2015-05-07T08:03:41Z</time>
				<extensions>
				</extensions>
			</trkpt>
			<trkpt lat="-27.623862" lon="153.048219">
				<ele>46</ele>
				<time>2015-05-07T08:03:43Z</time>
				<extensions>
				</extensions>
			</trkpt>
			<trkpt lat="-27.623657" lon="153.048346">
				<ele>47</ele>
				<time>2015-05-07T08:03:45Z</time>
				<extensions>
				</extensions>
			</trkpt>
			<trkpt lat="-27.623434" lon="153.048480">
				<ele>47</ele>
				<time>2015-05-07T08:03:47Z</time>
				<extensions>
				</extensions>
			</trkpt>
			<trkpt lat="-27.623204" lon="153.048619">
				<ele>47</ele>
				<time>2015-05-07T08:03:49Z</time>
				<extensions>
				</extensions>
			</trkpt>
			<trkpt lat="-27.622975" lon="153.048748">
				<ele>47</ele>
				<time>2015-05-07T08:03:51Z</time>
				<extensions>
				</extensions>
			</trkpt>
			<trkpt lat="-27.622771" lon="153.048858">
				<ele>47</ele>
				<time>2015-05-07T08:03:53Z</time>
				<extensions>
				</extensions>
			</trkpt>
			<trkpt lat="-27.622544" lon="153.048969">
				<ele>47</ele>
				<time>2015-05-07T08:03:55Z</time>
				<extensions>
				</extensions>
			</trkpt>
			<trkpt lat="-27.622310" lon="153.049076">
				<ele>47</ele>
				<time>2015-05-07T08:03:57Z</time>
				<extensions>
				</extensions>
			</trkpt>
			<trkpt lat="-27.622067" lon="153.049187">
				<ele>48</ele>
				<time>2015-05-07T08:03:59Z</time>
				<extensions>
				</extensions>
			</trkpt>
			<trkpt lat="-27.621815" lon="153.049302">
				<ele>49</ele>
				<time>2015-05-07T08:04:01Z</time>
				<extensions>
				</extensions>
			</trkpt>
			<trkpt lat="-27.621577" lon="153.049413">
				<ele>48</ele>
				<time>2015-05-07T08:04:03Z</time>
				<extensions>
				</extensions>
			</trkpt>
			<trkpt lat="-27.621365" lon="153.049510">
				<ele>49</ele>
				<time>2015-05-07T08:04:05Z</time>
				<extensions>
				</extensions>
			</trkpt>
			<trkpt lat="-27.621164" lon="153.049598">
				<ele>48</ele>
				<time>2015-05-07T08:04:07Z</time>
				<extensions>
				</extensions>
			</trkpt>
			<trkpt lat="-27.620985" lon="153.049681">
				<ele>49</ele>
				<time>2015-05-07T08:04:09Z</time>
				<extensions>
				</extensions>
			</trkpt>
			<trkpt lat="-27.620798" lon="153.049763">
				<ele>50</ele>
				<time>2015-05-07T08:04:11Z</time>
				<extensions>
				</extensions>
			</trkpt>
			<trkpt lat="-27.620559" lon="153.049870">
				<ele>50</ele>
				<time>2015-05-07T08:04:14Z</time>
				<extensions>
				</extensions>
			</trkpt>
			<trkpt lat="-27.620368" lon="153.049957">
				<ele>49</ele>
				<time>2015-05-07T08:04:18Z</time>
				<extensions>
				</extensions>
			</trkpt>
			<trkpt lat="-27.620147" lon="153.050066">
				<ele>52</ele>
				<time>2015-05-07T08:04:54Z</time>
				<extensions>
				</extensions>
			</trkpt>
			<trkpt lat="-27.619923" lon="153.050166">
				<ele>53</ele>
				<time>2015-05-07T08:04:57Z</time>
				<extensions>
				</extensions>
			</trkpt>
			<trkpt lat="-27.619741" lon="153.050248">
				<ele>53</ele>
				<time>2015-05-07T08:04:59Z</time>
				<extensions>
				</extensions>
			</trkpt>
			<trkpt lat="-27.619535" lon="153.050339">
				<ele>54</ele>
				<time>2015-05-07T08:05:01Z</time>
				<extensions>
				</extensions>
			</trkpt>
			<trkpt lat="-27.619314" lon="153.050438">
				<ele>55</ele>
				<time>2015-05-07T08:05:03Z</time>
				<extensions>
				</extensions>
			</trkpt>
			<trkpt lat="-27.619077" lon="153.050543">
				<ele>56</ele>
				<time>2015-05-07T08:05:05Z</time>
				<extensions>
				</extensions>
			</trkpt>
			<trkpt lat="-27.618818" lon="153.050654">
				<ele>57</ele>
				<time>2015-05-07T08:05:07Z</time>
				<extensions>
				</extensions>
			</trkpt>
			<trkpt lat="-27.618534" lon="153.050766">
				<ele>59</ele>
				<time>2015-05-07T08:05:09Z</time>
				<extensions>
				</extensions>
			</trkpt>
			<trkpt lat="-27.618236" lon="153.050874">
				<ele>60</ele>
				<time>2015-05-07T08:05:11Z</time>
				<extensions>
				</extensions>
			</trkpt>
			<trkpt lat="-27.617963" lon="153.050965">
				<ele>59</ele>
				<time>2015-05-07T08:05:13Z</time>
				<extensions>
				</extensions>
			</trkpt>
			<trkpt lat="-27.617676" lon="153.051051">
				<ele>60</ele>
				<time>2015-05-07T08:05:15Z</time>
				<extensions>
				</extensions>
			</trkpt>
			<trkpt lat="-27.617386" lon="153.051126">
				<ele>60</ele>
				<time>2015-05-07T08:05:17Z</time>
				<extensions>
				</extensions>
			</trkpt>
			<trkpt lat="-27.617113" lon="153.051192">
				<ele>59</ele>
				<time>2015-05-07T08:05:19Z</time>
				<extensions>
				</extensions>
			</trkpt>
			<trkpt lat="-27.616873" lon="153.051242">
				<ele>59</ele>
				<time>2015-05-07T08:05:21Z</time>
				<extensions>
				</extensions>
			</trkpt>
			<trkpt lat="-27.616649" lon="153.051285">
				<ele>59</ele>
				<time>2015-05-07T08:05:23Z</time>
				<extensions>
				</extensions>
			</trkpt>
			<trkpt lat="-27.616446" lon="153.051316">
				<ele>60</ele>
				<time>2015-05-07T08:05:25Z</time>
				<extensions>
				</extensions>
			</trkpt>
			<trkpt lat="-27.616198" lon="153.051349">
				<ele>58</ele>
				<time>2015-05-07T08:05:28Z</time>
				<extensions>
				</extensions>
			</trkpt>
			<trkpt lat="-27.615992" lon="153.051375">
				<ele>59</ele>
				<time>2015-05-07T08:05:32Z</time>
				<extensions>
				</extensions>
			</trkpt>
			<trkpt lat="-27.615813" lon="153.051403">
				<ele>61</ele>
				<time>2015-05-07T08:05:42Z</time>
				<extensions>
				</extensions>
			</trkpt>
			<trkpt lat="-27.615627" lon="153.051428">
				<ele>63</ele>
				<time>2015-05-07T08:05:51Z</time>
				<extensions>
				</extensions>
			</trkpt>
			<trkpt lat="-27.615436" lon="153.051452">
				<ele>65</ele>
				<time>2015-05-07T08:05:55Z</time>
				<extensions>
				</extensions>
			</trkpt>
			<trkpt lat="-27.615212" lon="153.051476">
				<ele>67</ele>
				<time>2015-05-07T08:05:59Z</time>
				<extensions>
				</extensions>
			</trkpt>
			<trkpt lat="-27.614956" lon="153.051506">
				<ele>70</ele>
				<time>2015-05-07T08:06:02Z</time>
				<extensions>
				</extensions>
			</trkpt>
			<trkpt lat="-27.614766" lon="153.051527">
				<ele>70</ele>
				<time>2015-05-07T08:06:07Z</time>
				<extensions>
				</extensions>
			</trkpt>
			<trkpt lat="-27.614521" lon="153.051548">
				<ele>73</ele>
				<time>2015-05-07T08:06:13Z</time>
				<extensions>
				</extensions>
			</trkpt>
			<trkpt lat="-27.614262" lon="153.051577">
				<ele>76</ele>
				<time>2015-05-07T08:06:16Z</time>
				<extensions>
				</extensions>
			</trkpt>
			<trkpt lat="-27.614020" lon="153.051610">
				<ele>77</ele>
				<time>2015-05-07T08:06:19Z</time>
				<extensions>
				</extensions>
			</trkpt>
			<trkpt lat="-27.613831" lon="153.051612">
				<ele>76</ele>
				<time>2015-05-07T08:06:24Z</time>
				<extensions>
				</extensions>
			</trkpt>
			<trkpt lat="-27.613616" lon="153.051628">
				<ele>78</ele>
				<time>2015-05-07T08:06:33Z</time>
				<extensions>
				</extensions>
			</trkpt>
			<trkpt lat="-27.613432" lon="153.051638">
				<ele>79</ele>
				<time>2015-05-07T08:06:45Z</time>
				<extensions>
				</extensions>
			</trkpt>
			<trkpt lat="-27.613248" lon="153.051643">
				<ele>81</ele>
				<time>2015-05-07T08:07:57Z</time>
				<extensions>
				</extensions>
			</trkpt>
			<trkpt lat="-27.612993" lon="153.051630">
				<ele>84</ele>
				<time>2015-05-07T08:08:02Z</time>
				<extensions>
				</extensions>
			</trkpt>
			<trkpt lat="-27.612750" lon="153.051603">
				<ele>85</ele>
				<time>2015-05-07T08:08:05Z</time>
				<extensions>
				</extensions>
			</trkpt>
			<trkpt lat="-27.612486" lon="153.051555">
				<ele>87</ele>
				<time>2015-05-07T08:08:08Z</time>
				<extensions>
				</extensions>
			</trkpt>
			<trkpt lat="-27.612282" lon="153.051519">
				<ele>88</ele>
				<time>2015-05-07T08:08:10Z</time>
				<extensions>
				</extensions>
			</trkpt>
			<trkpt lat="-27.612054" lon="153.051481">
				<ele>88</ele>
				<time>2015-05-07T08:08:12Z</time>
				<extensions>
				</extensions>
			</trkpt>
			<trkpt lat="-27.611824" lon="153.051425">
				<ele>90</ele>
				<time>2015-05-07T08:08:14Z</time>
				<extensions>
				</extensions>
			</trkpt>
			<trkpt lat="-27.611649" lon="153.051366">
				<ele>88</ele>
				<time>2015-05-07T08:08:16Z</time>
				<extensions>
				</extensions>
			</trkpt>
			<trkpt lat="-27.611456" lon="153.051297">
				<ele>85</ele>
				<time>2015-05-07T08:08:21Z</time>
				<extensions>
				</extensions>
			</trkpt>
			<trkpt lat="-27.611244" lon="153.051213">
				<ele>89</ele>
				<time>2015-05-07T08:10:27Z</time>
				<extensions>
				</extensions>
			</trkpt>
			<trkpt lat="-27.611100" lon="153.051341">
				<ele>90</ele>
				<time>2015-05-07T08:10:30Z</time>
				<extensions>
				</extensions>
			</trkpt>
			<trkpt lat="-27.611061" lon="153.051629">
				<ele>92</ele>
				<time>2015-05-07T08:10:33Z</time>
				<extensions>
				</extensions>
			</trkpt>
			<trkpt lat="-27.611090" lon="153.051919">
				<ele>95</ele>
				<time>2015-05-07T08:10:35Z</time>
				<extensions>
				</extensions>
			</trkpt>
			<trkpt lat="-27.611155" lon="153.052251">
				<ele>98</ele>
				<time>2015-05-07T08:10:37Z</time>
				<extensions>
				</extensions>
			</trkpt>
			<trkpt lat="-27.611224" lon="153.052583">
				<ele>97</ele>
				<time>2015-05-07T08:10:39Z</time>
				<extensions>
				</extensions>
			</trkpt>
			<trkpt lat="-27.611280" lon="153.052884">
				<ele>95</ele>
				<time>2015-05-07T08:10:41Z</time>
				<extensions>
				</extensions>
			</trkpt>
			<trkpt lat="-27.611317" lon="153.053188">
				<ele>94</ele>
				<time>2015-05-07T08:10:43Z</time>
				<extensions>
				</extensions>
			</trkpt>
			<trkpt lat="-27.611339" lon="153.053461">
				<ele>91</ele>
				<time>2015-05-07T08:10:45Z</time>
				<extensions>
				</extensions>
			</trkpt>
			<trkpt lat="-27.611359" lon="153.053673">
				<ele>88</ele>
				<time>2015-05-07T08:10:47Z</time>
				<extensions>
				</extensions>
			</trkpt>
			<trkpt lat="-27.611377" lon="153.053909">
				<ele>86</ele>
				<time>2015-05-07T08:10:50Z</time>
				<extensions>
				</extensions>
			</trkpt>
			<trkpt lat="-27.611389" lon="153.054112">
				<ele>84</ele>
				<time>2015-05-07T08:10:58Z</time>
				<extensions>
				</extensions>
			</trkpt>
			<trkpt lat="-27.611194" lon="153.054284">
				<ele>89</ele>
				<time>2015-05-07T08:11:39Z</time>
				<extensions>
				</extensions>
			</trkpt>
			<trkpt lat="-27.610989" lon="153.054335">
				<ele>90</ele>
				<time>2015-05-07T08:11:41Z</time>
				<extensions>
				</extensions>
			</trkpt>
			<trkpt lat="-27.610730" lon="153.054390">
				<ele>90</ele>
				<time>2015-05-07T08:11:43Z</time>
				<extensions>
				</extensions>
			</trkpt>
			<trkpt lat="-27.610449" lon="153.054444">
				<ele>89</ele>
				<time>2015-05-07T08:11:45Z</time>
				<extensions>
				</extensions>
			</trkpt>
			<trkpt lat="-27.610168" lon="153.054494">
				<ele>86</ele>
				<time>2015-05-07T08:11:47Z</time>
				<extensions>
				</extensions>
			</trkpt>
			<trkpt lat="-27.609866" lon="153.054546">
				<ele>87</ele>
				<time>2015-05-07T08:11:49Z</time>
				<extensions>
				</extensions>
			</trkpt>
			<trkpt lat="-27.609566" lon="153.054610">
				<ele>86</ele>
				<time>2015-05-07T08:11:51Z</time>
				<extensions>
				</extensions>
			</trkpt>
			<trkpt lat="-27.609267" lon="153.054670">
				<ele>86</ele>
				<time>2015-05-07T08:11:53Z</time>
				<extensions>
				</extensions>
			</trkpt>
			<trkpt lat="-27.608958" lon="153.054724">
				<ele>87</ele>
				<time>2015-05-07T08:11:55Z</time>
				<extensions>
				</extensions>
			</trkpt>
			<trkpt lat="-27.608650" lon="153.054785">
				<ele>86</ele>
				<time>2015-05-07T08:11:57Z</time>
				<extensions>
				</extensions>
			</trkpt>
			<trkpt lat="-27.608333" lon="153.054846">
				<ele>86</ele>
				<time>2015-05-07T08:11:59Z</time>
				<extensions>
				</extensions>
			</trkpt>
			<trkpt lat="-27.608008" lon="153.054909">
				<ele>87</ele>
				<time>2015-05-07T08:12:01Z</time>
				<extensions>
				</extensions>
			</trkpt>
			<trkpt lat="-27.607675" lon="153.054975">
				<ele>90</ele>
				<time>2015-05-07T08:12:03Z</time>
				<extensions>
				</extensions>
			</trkpt>
			<trkpt lat="-27.607340" lon="153.055036">
				<ele>91</ele>
				<time>2015-05-07T08:12:05Z</time>
				<extensions>
				</extensions>
			</trkpt>
			<trkpt lat="-27.607007" lon="153.055101">
				<ele>93</ele>
				<time>2015-05-07T08:12:07Z</time>
				<extensions>
				</extensions>
			</trkpt>
			<trkpt lat="-27.606666" lon="153.055164">
				<ele>93</ele>
				<time>2015-05-07T08:12:09Z</time>
				<extensions>
				</extensions>
			</trkpt>
			<trkpt lat="-27.606331" lon="153.055227">
				<ele>93</ele>
				<time>2015-05-07T08:12:11Z</time>
				<extensions>
				</extensions>
			</trkpt>
			<trkpt lat="-27.605993" lon="153.055291">
				<ele>94</ele>
				<time>2015-05-07T08:12:13Z</time>
				<extensions>
				</extensions>
			</trkpt>
			<trkpt lat="-27.605659" lon="153.055353">
				<ele>94</ele>
				<time>2015-05-07T08:12:15Z</time>
				<extensions>
				</extensions>
			</trkpt>
			<trkpt lat="-27.605330" lon="153.055415">
				<ele>93</ele>
				<time>2015-05-07T08:12:17Z</time>
				<extensions>
				</extensions>
			</trkpt>
			<trkpt lat="-27.604990" lon="153.055479">
				<ele>92</ele>
				<time>2015-05-07T08:12:19Z</time>
				<extensions>
				</extensions>
			</trkpt>
			<trkpt lat="-27.604658" lon="153.055545">
				<ele>91</ele>
				<time>2015-05-07T08:12:21Z</time>
				<extensions>
				</extensions>
			</trkpt>
			<trkpt lat="-27.604478" lon="153.055578">
				<ele>91</ele>
				<time>2015-05-07T08:12:22Z</time>
				<extensions>
				</extensions>
			</trkpt>
			<trkpt lat="-27.604153" lon="153.055639">
				<ele>89</ele>
				<time>2015-05-07T08:12:24Z</time>
				<extensions>
				</extensions>
			</trkpt>
			<trkpt lat="-27.603834" lon="153.055702">
				<ele>88</ele>
				<time>2015-05-07T08:12:26Z</time>
				<extensions>
				</extensions>
			</trkpt>
			<trkpt lat="-27.603522" lon="153.055803">
				<ele>86</ele>
				<time>2015-05-07T08:12:28Z</time>
				<extensions>
				</extensions>
			</trkpt>
			<trkpt lat="-27.603240" lon="153.055945">
				<ele>86</ele>
				<time>2015-05-07T08:12:30Z</time>
				<extensions>
				</extensions>
			</trkpt>
			<trkpt lat="-27.602980" lon="153.056140">
				<ele>85</ele>
				<time>2015-05-07T08:12:32Z</time>
				<extensions>
				</extensions>
			</trkpt>
			<trkpt lat="-27.602721" lon="153.056372">
				<ele>87</ele>
				<time>2015-05-07T08:12:34Z</time>
				<extensions>
				</extensions>
			</trkpt>
			<trkpt lat="-27.602454" lon="153.056625">
				<ele>87</ele>
				<time>2015-05-07T08:12:36Z</time>
				<extensions>
				</extensions>
			</trkpt>
			<trkpt lat="-27.602181" lon="153.056884">
				<ele>87</ele>
				<time>2015-05-07T08:12:38Z</time>
				<extensions>
				</extensions>
			</trkpt>
			<trkpt lat="-27.601926" lon="153.057141">
				<ele>88</ele>
				<time>2015-05-07T08:12:40Z</time>
				<extensions>
				</extensions>
			</trkpt>
			<trkpt lat="-27.601665" lon="153.057391">
				<ele>87</ele>
				<time>2015-05-07T08:12:42Z</time>
				<extensions>
				</extensions>
			</trkpt>
			<trkpt lat="-27.601402" lon="153.057648">
				<ele>87</ele>
				<time>2015-05-07T08:12:44Z</time>
				<extensions>
				</extensions>
			</trkpt>
			<trkpt lat="-27.601137" lon="153.057882">
				<ele>87</ele>
				<time>2015-05-07T08:12:46Z</time>
				<extensions>
				</extensions>
			</trkpt>
			<trkpt lat="-27.600860" lon="153.058076">
				<ele>86</ele>
				<time>2015-05-07T08:12:48Z</time>
				<extensions>
				</extensions>
			</trkpt>
			<trkpt lat="-27.600583" lon="153.058221">
				<ele>86</ele>
				<time>2015-05-07T08:12:50Z</time>
				<extensions>
				</extensions>
			</trkpt>
			<trkpt lat="-27.600304" lon="153.058325">
				<ele>85</ele>
				<time>2015-05-07T08:12:52Z</time>
				<extensions>
				</extensions>
			</trkpt>
			<trkpt lat="-27.600075" lon="153.058380">
				<ele>82</ele>
				<time>2015-05-07T08:12:54Z</time>
				<extensions>
				</extensions>
			</trkpt>
			<trkpt lat="-27.599860" lon="153.058418">
				<ele>78</ele>
				<time>2015-05-07T08:12:57Z</time>
				<extensions>
				</extensions>
			</trkpt>
			<trkpt lat="-27.599680" lon="153.058444">
				<ele>78</ele>
				<time>2015-05-07T08:13:23Z</time>
				<extensions>
				</extensions>
			</trkpt>
			<trkpt lat="-27.599475" lon="153.058459">
				<ele>79</ele>
				<time>2015-05-07T08:14:15Z</time>
				<extensions>
				</extensions>
			</trkpt>
			<trkpt lat="-27.599251" lon="153.058491">
				<ele>82</ele>
				<time>2015-05-07T08:14:17Z</time>
				<extensions>
				</extensions>
			</trkpt>
			<trkpt lat="-27.598968" lon="153.058547">
				<ele>84</ele>
				<time>2015-05-07T08:14:19Z</time>
				<extensions>
				</extensions>
			</trkpt>
			<trkpt lat="-27.598634" lon="153.058597">
				<ele>85</ele>
				<time>2015-05-07T08:14:21Z</time>
				<extensions>
				</extensions>
			</trkpt>
			<trkpt lat="-27.598290" lon="153.058656">
				<ele>84</ele>
				<time>2015-05-07T08:14:23Z</time>
				<extensions>
				</extensions>
			</trkpt>
			<trkpt lat="-27.597959" lon="153.058716">
				<ele>85</ele>
				<time>2015-05-07T08:14:25Z</time>
				<extensions>
				</extensions>
			</trkpt>
			<trkpt lat="-27.597600" lon="153.058779">
				<ele>86</ele>
				<time>2015-05-07T08:14:27Z</time>
				<extensions>
				</extensions>
			</trkpt>
			<trkpt lat="-27.597253" lon="153.058841">
				<ele>83</ele>
				<time>2015-05-07T08:14:29Z</time>
				<extensions>
				</extensions>
			</trkpt>
			<trkpt lat="-27.597073" lon="153.058873">
				<ele>84</ele>
				<time>2015-05-07T08:14:30Z</time>
				<extensions>
				</extensions>
			</trkpt>
			<trkpt lat="-27.596740" lon="153.058932">
				<ele>82</ele>
				<time>2015-05-07T08:14:32Z</time>
				<extensions>
				</extensions>
			</trkpt>
			<trkpt lat="-27.596403" lon="153.058994">
				<ele>81</ele>
				<time>2015-05-07T08:14:34Z</time>
				<extensions>
				</extensions>
			</trkpt>
			<trkpt lat="-27.596224" lon="153.059025">
				<ele>82</ele>
				<time>2015-05-07T08:14:35Z</time>
				<extensions>
				</extensions>
			</trkpt>
			<trkpt lat="-27.595870" lon="153.059087">
				<ele>79</ele>
				<time>2015-05-07T08:14:37Z</time>
				<extensions>
				</extensions>
			</trkpt>
			<trkpt lat="-27.595686" lon="153.059119">
				<ele>77</ele>
				<time>2015-05-07T08:14:38Z</time>
				<extensions>
				</extensions>
			</trkpt>
			<trkpt lat="-27.595317" lon="153.059186">
				<ele>76</ele>
				<time>2015-05-07T08:14:40Z</time>
				<extensions>
				</extensions>
			</trkpt>
			<trkpt lat="-27.595134" lon="153.059219">
				<ele>76</ele>
				<time>2015-05-07T08:14:41Z</time>
				<extensions>
				</extensions>
			</trkpt>
			<trkpt lat="-27.594944" lon="153.059251">
				<ele>75</ele>
				<time>2015-05-07T08:14:42Z</time>
				<extensions>
				</extensions>
			</trkpt>
			<trkpt lat="-27.594750" lon="153.059283">
				<ele>76</ele>
				<time>2015-05-07T08:14:43Z</time>
				<extensions>
				</extensions>
			</trkpt>
			<trkpt lat="-27.594570" lon="153.059315">
				<ele>76</ele>
				<time>2015-05-07T08:14:44Z</time>
				<extensions>
				</extensions>
			</trkpt>
			<trkpt lat="-27.594390" lon="153.059348">
				<ele>76</ele>
				<time>2015-05-07T08:14:45Z</time>
				<extensions>
				</extensions>
			</trkpt>
			<trkpt lat="-27.594204" lon="153.059378">
				<ele>76</ele>
				<time>2015-05-07T08:14:46Z</time>
				<extensions>
				</extensions>
			</trkpt>
			<trkpt lat="-27.594025" lon="153.059410">
				<ele>76</ele>
				<time>2015-05-07T08:14:47Z</time>
				<extensions>
				</extensions>
			</trkpt>
			<trkpt lat="-27.593843" lon="153.059441">
				<ele>77</ele>
				<time>2015-05-07T08:14:48Z</time>
				<extensions>
				</extensions>
			</trkpt>
			<trkpt lat="-27.593505" lon="153.059501">
				<ele>76</ele>
				<time>2015-05-07T08:14:50Z</time>
				<extensions>
				</extensions>
			</trkpt>
			<trkpt lat="-27.593326" lon="153.059535">
				<ele>76</ele>
				<time>2015-05-07T08:14:51Z</time>
				<extensions>
				</extensions>
			</trkpt>
			<trkpt lat="-27.592969" lon="153.059597">
				<ele>75</ele>
				<time>2015-05-07T08:14:53Z</time>
				<extensions>
				</extensions>
			</trkpt>
			<trkpt lat="-27.592790" lon="153.059630">
				<ele>75</ele>
				<time>2015-05-07T08:14:54Z</time>
				<extensions>
				</extensions>
			</trkpt>
			<trkpt lat="-27.592611" lon="153.059664">
				<ele>75</ele>
				<time>2015-05-07T08:14:55Z</time>
				<extensions>
				</extensions>
			</trkpt>
			<trkpt lat="-27.592430" lon="153.059699">
				<ele>74</ele>
				<time>2015-05-07T08:14:56Z</time>
				<extensions>
				</extensions>
			</trkpt>
			<trkpt lat="-27.592080" lon="153.059775">
				<ele>73</ele>
				<time>2015-05-07T08:14:58Z</time>
				<extensions>
				</extensions>
			</trkpt>
			<trkpt lat="-27.591898" lon="153.059814">
				<ele>72</ele>
				<time>2015-05-07T08:14:59Z</time>
				<extensions>
				</extensions>
			</trkpt>
			<trkpt lat="-27.591713" lon="153.059850">
				<ele>72</ele>
				<time>2015-05-07T08:15:00Z</time>
				<extensions>
				</extensions>
			</trkpt>
			<trkpt lat="-27.591528" lon="153.059884">
				<ele>73</ele>
				<time>2015-05-07T08:15:01Z</time>
				<extensions>
				</extensions>
			</trkpt>
			<trkpt lat="-27.591341" lon="153.059918">
				<ele>74</ele>
				<time>2015-05-07T08:15:02Z</time>
				<extensions>
				</extensions>
			</trkpt>
			<trkpt lat="-27.591156" lon="153.059952">
				<ele>72</ele>
				<time>2015-05-07T08:15:03Z</time>
				<extensions>
				</extensions>
			</trkpt>
			<trkpt lat="-27.590804" lon="153.060019">
				<ele>70</ele>
				<time>2015-05-07T08:15:05Z</time>
				<extensions>
				</extensions>
			</trkpt>
			<trkpt lat="-27.590464" lon="153.060082">
				<ele>68</ele>
				<time>2015-05-07T08:15:07Z</time>
				<extensions>
				</extensions>
			</trkpt>
			<trkpt lat="-27.590140" lon="153.060141">
				<ele>67</ele>
				<time>2015-05-07T08:15:09Z</time>
				<extensions>
				</extensions>
			</trkpt>
			<trkpt lat="-27.589822" lon="153.060202">
				<ele>66</ele>
				<time>2015-05-07T08:15:11Z</time>
				<extensions>
				</extensions>
			</trkpt>
			<trkpt lat="-27.589523" lon="153.060256">
				<ele>65</ele>
				<time>2015-05-07T08:15:13Z</time>
				<extensions>
				</extensions>
			</trkpt>
			<trkpt lat="-27.589211" lon="153.060302">
				<ele>62</ele>
				<time>2015-05-07T08:15:15Z</time>
				<extensions>
				</extensions>
			</trkpt>
			<trkpt lat="-27.588935" lon="153.060347">
				<ele>61</ele>
				<time>2015-05-07T08:15:17Z</time>
				<extensions>
				</extensions>
			</trkpt>
			<trkpt lat="-27.588725" lon="153.060389">
				<ele>59</ele>
				<time>2015-05-07T08:15:19Z</time>
				<extensions>
				</extensions>
			</trkpt>
			<trkpt lat="-27.588497" lon="153.060429">
				<ele>56</ele>
				<time>2015-05-07T08:15:22Z</time>
				<extensions>
				</extensions>
			</trkpt>
			<trkpt lat="-27.588316" lon="153.060477">
				<ele>54</ele>
				<time>2015-05-07T08:15:28Z</time>
				<extensions>
				</extensions>
			</trkpt>
			<trkpt lat="-27.588133" lon="153.060554">
				<ele>57</ele>
				<time>2015-05-07T08:15:41Z</time>
				<extensions>
				</extensions>
			</trkpt>
			<trkpt lat="-27.587959" lon="153.060627">
				<ele>57</ele>
				<time>2015-05-07T08:15:43Z</time>
				<extensions>
				</extensions>
			</trkpt>
			<trkpt lat="-27.587776" lon="153.060716">
				<ele>58</ele>
				<time>2015-05-07T08:15:45Z</time>
				<extensions>
				</extensions>
			</trkpt>
			<trkpt lat="-27.587532" lon="153.060820">
				<ele>59</ele>
				<time>2015-05-07T08:15:47Z</time>
				<extensions>
				</extensions>
			</trkpt>
			<trkpt lat="-27.587270" lon="153.060941">
				<ele>59</ele>
				<time>2015-05-07T08:15:49Z</time>
				<extensions>
				</extensions>
			</trkpt>
			<trkpt lat="-27.587020" lon="153.061052">
				<ele>58</ele>
				<time>2015-05-07T08:15:51Z</time>
				<extensions>
				</extensions>
			</trkpt>
			<trkpt lat="-27.586785" lon="153.061153">
				<ele>58</ele>
				<time>2015-05-07T08:15:53Z</time>
				<extensions>
				</extensions>
			</trkpt>
			<trkpt lat="-27.586535" lon="153.061241">
				<ele>57</ele>
				<time>2015-05-07T08:15:55Z</time>
				<extensions>
				</extensions>
			</trkpt>
			<trkpt lat="-27.586292" lon="153.061293">
				<ele>56</ele>
				<time>2015-05-07T08:15:57Z</time>
				<extensions>
				</extensions>
			</trkpt>
			<trkpt lat="-27.586046" lon="153.061339">
				<ele>54</ele>
				<time>2015-05-07T08:15:59Z</time>
				<extensions>
				</extensions>
			</trkpt>
			<trkpt lat="-27.585790" lon="153.061387">
				<ele>56</ele>
				<time>2015-05-07T08:16:01Z</time>
				<extensions>
				</extensions>
			</trkpt>
			<trkpt lat="-27.585510" lon="153.061435">
				<ele>56</ele>
				<time>2015-05-07T08:16:03Z</time>
				<extensions>
				</extensions>
			</trkpt>
			<trkpt lat="-27.585244" lon="153.061485">
				<ele>55</ele>
				<time>2015-05-07T08:16:05Z</time>
				<extensions>
				</extensions>
			</trkpt>
			<trkpt lat="-27.584984" lon="153.061533">
				<ele>54</ele>
				<time>2015-05-07T08:16:07Z</time>
				<extensions>
				</extensions>
			</trkpt>
			<trkpt lat="-27.584730" lon="153.061581">
				<ele>53</ele>
				<time>2015-05-07T08:16:09Z</time>
				<extensions>
				</extensions>
			</trkpt>
			<trkpt lat="-27.584479" lon="153.061628">
				<ele>51</ele>
				<time>2015-05-07T08:16:11Z</time>
				<extensions>
				</extensions>
			</trkpt>
			<trkpt lat="-27.584235" lon="153.061672">
				<ele>52</ele>
				<time>2015-05-07T08:16:13Z</time>
				<extensions>
				</extensions>
			</trkpt>
			<trkpt lat="-27.583992" lon="153.061714">
				<ele>51</ele>
				<time>2015-05-07T08:16:15Z</time>
				<extensions>
				</extensions>
			</trkpt>
			<trkpt lat="-27.583759" lon="153.061758">
				<ele>50</ele>
				<time>2015-05-07T08:16:17Z</time>
				<extensions>
				</extensions>
			</trkpt>
			<trkpt lat="-27.583510" lon="153.061807">
				<ele>52</ele>
				<time>2015-05-07T08:16:19Z</time>
				<extensions>
				</extensions>
			</trkpt>
			<trkpt lat="-27.583247" lon="153.061858">
				<ele>51</ele>
				<time>2015-05-07T08:16:21Z</time>
				<extensions>
				</extensions>
			</trkpt>
			<trkpt lat="-27.582986" lon="153.061906">
				<ele>51</ele>
				<time>2015-05-07T08:16:23Z</time>
				<extensions>
				</extensions>
			</trkpt>
			<trkpt lat="-27.582718" lon="153.061954">
				<ele>51</ele>
				<time>2015-05-07T08:16:25Z</time>
				<extensions>
				</extensions>
			</trkpt>
			<trkpt lat="-27.582434" lon="153.062009">
				<ele>51</ele>
				<time>2015-05-07T08:16:27Z</time>
				<extensions>
				</extensions>
			</trkpt>
			<trkpt lat="-27.582138" lon="153.062071">
				<ele>51</ele>
				<time>2015-05-07T08:16:29Z</time>
				<extensions>
				</extensions>
			</trkpt>
			<trkpt lat="-27.581808" lon="153.062134">
				<ele>53</ele>
				<time>2015-05-07T08:16:31Z</time>
				<extensions>
				</extensions>
			</trkpt>
			<trkpt lat="-27.581497" lon="153.062196">
				<ele>53</ele>
				<time>2015-05-07T08:16:33Z</time>
				<extensions>
				</extensions>
			</trkpt>
			<trkpt lat="-27.581202" lon="153.062254">
				<ele>54</ele>
				<time>2015-05-07T08:16:35Z</time>
				<extensions>
				</extensions>
			</trkpt>
			<trkpt lat="-27.580923" lon="153.062307">
				<ele>55</ele>
				<time>2015-05-07T08:16:37Z</time>
				<extensions>
				</extensions>
			</trkpt>
			<trkpt lat="-27.580641" lon="153.062355">
				<ele>55</ele>
				<time>2015-05-07T08:16:39Z</time>
				<extensions>
				</extensions>
			</trkpt>
			<trkpt lat="-27.580369" lon="153.062406">
				<ele>53</ele>
				<time>2015-05-07T08:16:41Z</time>
				<extensions>
				</extensions>
			</trkpt>
			<trkpt lat="-27.580091" lon="153.062461">
				<ele>51</ele>
				<time>2015-05-07T08:16:43Z</time>
				<extensions>
				</extensions>
			</trkpt>
			<trkpt lat="-27.579805" lon="153.062516">
				<ele>49</ele>
				<time>2015-05-07T08:16:45Z</time>
				<extensions>
				</extensions>
			</trkpt>
			<trkpt lat="-27.579480" lon="153.062574">
				<ele>48</ele>
				<time>2015-05-07T08:16:47Z</time>
				<extensions>
				</extensions>
			</trkpt>
			<trkpt lat="-27.579142" lon="153.062639">
				<ele>49</ele>
				<time>2015-05-07T08:16:49Z</time>
				<extensions>
				</extensions>
			</trkpt>
			<trkpt lat="-27.578820" lon="153.062706">
				<ele>47</ele>
				<time>2015-05-07T08:16:51Z</time>
				<extensions>
				</extensions>
			</trkpt>
			<trkpt lat="-27.578519" lon="153.062765">
				<ele>45</ele>
				<time>2015-05-07T08:16:53Z</time>
				<extensions>
				</extensions>
			</trkpt>
			<trkpt lat="-27.578200" lon="153.062829">
				<ele>43</ele>
				<time>2015-05-07T08:16:55Z</time>
				<extensions>
				</extensions>
			</trkpt>
			<trkpt lat="-27.577891" lon="153.062888">
				<ele>44</ele>
				<time>2015-05-07T08:16:57Z</time>
				<extensions>
				</extensions>
			</trkpt>
			<trkpt lat="-27.577575" lon="153.062944">
				<ele>44</ele>
				<time>2015-05-07T08:16:59Z</time>
				<extensions>
				</extensions>
			</trkpt>
			<trkpt lat="-27.577262" lon="153.062998">
				<ele>45</ele>
				<time>2015-05-07T08:17:01Z</time>
				<extensions>
				</extensions>
			</trkpt>
			<trkpt lat="-27.576944" lon="153.063047">
				<ele>44</ele>
				<time>2015-05-07T08:17:03Z</time>
				<extensions>
				</extensions>
			</trkpt>
			<trkpt lat="-27.576633" lon="153.063093">
				<ele>44</ele>
				<time>2015-05-07T08:17:05Z</time>
				<extensions>
				</extensions>
			</trkpt>
			<trkpt lat="-27.576324" lon="153.063139">
				<ele>42</ele>
				<time>2015-05-07T08:17:07Z</time>
				<extensions>
				</extensions>
			</trkpt>
			<trkpt lat="-27.576016" lon="153.063182">
				<ele>41</ele>
				<time>2015-05-07T08:17:09Z</time>
				<extensions>
				</extensions>
			</trkpt>
			<trkpt lat="-27.575713" lon="153.063234">
				<ele>44</ele>
				<time>2015-05-07T08:17:11Z</time>
				<extensions>
				</extensions>
			</trkpt>
			<trkpt lat="-27.575413" lon="153.063285">
				<ele>44</ele>
				<time>2015-05-07T08:17:13Z</time>
				<extensions>
				</extensions>
			</trkpt>
			<trkpt lat="-27.575116" lon="153.063343">
				<ele>45</ele>
				<time>2015-05-07T08:17:15Z</time>
				<extensions>
				</extensions>
			</trkpt>
			<trkpt lat="-27.574833" lon="153.063395">
				<ele>45</ele>
				<time>2015-05-07T08:17:17Z</time>
				<extensions>
				</extensions>
			</trkpt>
			<trkpt lat="-27.574571" lon="153.063448">
				<ele>44</ele>
				<time>2015-05-07T08:17:19Z</time>
				<extensions>
				</extensions>
			</trkpt>
			<trkpt lat="-27.574316" lon="153.063493">
				<ele>45</ele>
				<time>2015-05-07T08:17:21Z</time>
				<extensions>
				</extensions>
			</trkpt>
			<trkpt lat="-27.574076" lon="153.063537">
				<ele>47</ele>
				<time>2015-05-07T08:17:23Z</time>
				<extensions>
				</extensions>
			</trkpt>
			<trkpt lat="-27.573863" lon="153.063577">
				<ele>46</ele>
				<time>2015-05-07T08:17:25Z</time>
				<extensions>
				</extensions>
			</trkpt>
			<trkpt lat="-27.573675" lon="153.063613">
				<ele>47</ele>
				<time>2015-05-07T08:17:27Z</time>
				<extensions>
				</extensions>
			</trkpt>
			<trkpt lat="-27.573418" lon="153.063672">
				<ele>47</ele>
				<time>2015-05-07T08:17:30Z</time>
				<extensions>
				</extensions>
			</trkpt>
			<trkpt lat="-27.573196" lon="153.063721">
				<ele>47</ele>
				<time>2015-05-07T08:17:33Z</time>
				<extensions>
				</extensions>
			</trkpt>
			<trkpt lat="-27.572994" lon="153.063776">
				<ele>47</ele>
				<time>2015-05-07T08:17:37Z</time>
				<extensions>
				</extensions>
			</trkpt>
			<trkpt lat="-27.572804" lon="153.063821">
				<ele>48</ele>
				<time>2015-05-07T08:18:01Z</time>
				<extensions>
				</extensions>
			</trkpt>
			<trkpt lat="-27.572550" lon="153.063869">
				<ele>50</ele>
				<time>2015-05-07T08:18:04Z</time>
				<extensions>
				</extensions>
			</trkpt>
			<trkpt lat="-27.572340" lon="153.063900">
				<ele>51</ele>
				<time>2015-05-07T08:18:06Z</time>
				<extensions>
				</extensions>
			</trkpt>
			<trkpt lat="-27.572130" lon="153.063924">
				<ele>51</ele>
				<time>2015-05-07T08:18:08Z</time>
				<extensions>
				</extensions>
			</trkpt>
			<trkpt lat="-27.571942" lon="153.063956">
				<ele>51</ele>
				<time>2015-05-07T08:18:10Z</time>
				<extensions>
				</extensions>
			</trkpt>
			<trkpt lat="-27.571731" lon="153.064000">
				<ele>53</ele>
				<time>2015-05-07T08:18:12Z</time>
				<extensions>
				</extensions>
			</trkpt>
			<trkpt lat="-27.571531" lon="153.064051">
				<ele>52</ele>
				<time>2015-05-07T08:18:14Z</time>
				<extensions>
				</extensions>
			</trkpt>
			<trkpt lat="-27.571320" lon="153.064102">
				<ele>53</ele>
				<time>2015-05-07T08:18:16Z</time>
				<extensions>
				</extensions>
			</trkpt>
			<trkpt lat="-27.571113" lon="153.064150">
				<ele>54</ele>
				<time>2015-05-07T08:18:18Z</time>
				<extensions>
				</extensions>
			</trkpt>
			<trkpt lat="-27.570905" lon="153.064198">
				<ele>53</ele>
				<time>2015-05-07T08:18:20Z</time>
				<extensions>
				</extensions>
			</trkpt>
			<trkpt lat="-27.570709" lon="153.064245">
				<ele>53</ele>
				<time>2015-05-07T08:18:22Z</time>
				<extensions>
				</extensions>
			</trkpt>
			<trkpt lat="-27.570503" lon="153.064289">
				<ele>54</ele>
				<time>2015-05-07T08:18:24Z</time>
				<extensions>
				</extensions>
			</trkpt>
			<trkpt lat="-27.570303" lon="153.064328">
				<ele>53</ele>
				<time>2015-05-07T08:18:26Z</time>
				<extensions>
				</extensions>
			</trkpt>
			<trkpt lat="-27.570088" lon="153.064369">
				<ele>53</ele>
				<time>2015-05-07T08:18:28Z</time>
				<extensions>
				</extensions>
			</trkpt>
			<trkpt lat="-27.569864" lon="153.064411">
				<ele>54</ele>
				<time>2015-05-07T08:18:30Z</time>
				<extensions>
				</extensions>
			</trkpt>
			<trkpt lat="-27.569653" lon="153.064449">
				<ele>54</ele>
				<time>2015-05-07T08:18:32Z</time>
				<extensions>
				</extensions>
			</trkpt>
			<trkpt lat="-27.569471" lon="153.064484">
				<ele>54</ele>
				<time>2015-05-07T08:18:34Z</time>
				<extensions>
				</extensions>
			</trkpt>
			<trkpt lat="-27.569256" lon="153.064524">
				<ele>55</ele>
				<time>2015-05-07T08:18:36Z</time>
				<extensions>
				</extensions>
			</trkpt>
			<trkpt lat="-27.569012" lon="153.064568">
				<ele>56</ele>
				<time>2015-05-07T08:18:38Z</time>
				<extensions>
				</extensions>
			</trkpt>
			<trkpt lat="-27.568744" lon="153.064621">
				<ele>58</ele>
				<time>2015-05-07T08:18:40Z</time>
				<extensions>
				</extensions>
			</trkpt>
			<trkpt lat="-27.568477" lon="153.064670">
				<ele>58</ele>
				<time>2015-05-07T08:18:42Z</time>
				<extensions>
				</extensions>
			</trkpt>
			<trkpt lat="-27.568200" lon="153.064722">
				<ele>59</ele>
				<time>2015-05-07T08:18:44Z</time>
				<extensions>
				</extensions>
			</trkpt>
			<trkpt lat="-27.567924" lon="153.064775">
				<ele>58</ele>
				<time>2015-05-07T08:18:46Z</time>
				<extensions>
				</extensions>
			</trkpt>
			<trkpt lat="-27.567646" lon="153.064832">
				<ele>60</ele>
				<time>2015-05-07T08:18:48Z</time>
				<extensions>
				</extensions>
			</trkpt>
			<trkpt lat="-27.567356" lon="153.064881">
				<ele>59</ele>
				<time>2015-05-07T08:18:50Z</time>
				<extensions>
				</extensions>
			</trkpt>
			<trkpt lat="-27.567077" lon="153.064933">
				<ele>60</ele>
				<time>2015-05-07T08:18:52Z</time>
				<extensions>
				</extensions>
			</trkpt>
			<trkpt lat="-27.566774" lon="153.064992">
				<ele>62</ele>
				<time>2015-05-07T08:18:54Z</time>
				<extensions>
				</extensions>
			</trkpt>
			<trkpt lat="-27.566487" lon="153.065041">
				<ele>62</ele>
				<time>2015-05-07T08:18:56Z</time>
				<extensions>
				</extensions>
			</trkpt>
			<trkpt lat="-27.566212" lon="153.065093">
				<ele>62</ele>
				<time>2015-05-07T08:18:58Z</time>
				<extensions>
				</extensions>
			</trkpt>
			<trkpt lat="-27.565948" lon="153.065142">
				<ele>61</ele>
				<time>2015-05-07T08:19:00Z</time>
				<extensions>
				</extensions>
			</trkpt>
			<trkpt lat="-27.565757" lon="153.065176">
				<ele>58</ele>
				<time>2015-05-07T08:19:02Z</time>
				<extensions>
				</extensions>
			</trkpt>
			<trkpt lat="-27.565544" lon="153.065215">
				<ele>57</ele>
				<time>2015-05-07T08:19:06Z</time>
				<extensions>
				</extensions>
			</trkpt>
			<trkpt lat="-27.565360" lon="153.065234">
				<ele>57</ele>
				<time>2015-05-07T08:19:21Z</time>
				<extensions>
				</extensions>
			</trkpt>
			<trkpt lat="-27.565113" lon="153.065275">
				<ele>59</ele>
				<time>2015-05-07T08:19:25Z</time>
				<extensions>
				</extensions>
			</trkpt>
			<trkpt lat="-27.564921" lon="153.065318">
				<ele>60</ele>
				<time>2015-05-07T08:19:27Z</time>
				<extensions>
				</extensions>
			</trkpt>
			<trkpt lat="-27.564701" lon="153.065350">
				<ele>60</ele>
				<time>2015-05-07T08:19:29Z</time>
				<extensions>
				</extensions>
			</trkpt>
			<trkpt lat="-27.564460" lon="153.065394">
				<ele>61</ele>
				<time>2015-05-07T08:19:31Z</time>
				<extensions>
				</extensions>
			</trkpt>
			<trkpt lat="-27.564224" lon="153.065432">
				<ele>61</ele>
				<time>2015-05-07T08:19:33Z</time>
				<extensions>
				</extensions>
			</trkpt>
			<trkpt lat="-27.563978" lon="153.065481">
				<ele>61</ele>
				<time>2015-05-07T08:19:35Z</time>
				<extensions>
				</extensions>
			</trkpt>
			<trkpt lat="-27.563752" lon="153.065525">
				<ele>60</ele>
				<time>2015-05-07T08:19:37Z</time>
				<extensions>
				</extensions>
			</trkpt>
			<trkpt lat="-27.563506" lon="153.065573">
				<ele>61</ele>
				<time>2015-05-07T08:19:39Z</time>
				<extensions>
				</extensions>
			</trkpt>
			<trkpt lat="-27.563250" lon="153.065618">
				<ele>62</ele>
				<time>2015-05-07T08:19:41Z</time>
				<extensions>
				</extensions>
			</trkpt>
			<trkpt lat="-27.562977" lon="153.065667">
				<ele>63</ele>
				<time>2015-05-07T08:19:43Z</time>
				<extensions>
				</extensions>
			</trkpt>
			<trkpt lat="-27.562708" lon="153.065715">
				<ele>64</ele>
				<time>2015-05-07T08:19:45Z</time>
				<extensions>
				</extensions>
			</trkpt>
			<trkpt lat="-27.562399" lon="153.065770">
				<ele>64</ele>
				<time>2015-05-07T08:19:47Z</time>
				<extensions>
				</extensions>
			</trkpt>
			<trkpt lat="-27.562089" lon="153.065803">
				<ele>67</ele>
				<time>2015-05-07T08:19:49Z</time>
				<extensions>
				</extensions>
			</trkpt>
			<trkpt lat="-27.561779" lon="153.065815">
				<ele>66</ele>
				<time>2015-05-07T08:19:51Z</time>
				<extensions>
				</extensions>
			</trkpt>
			<trkpt lat="-27.561549" lon="153.065828">
				<ele>62</ele>
				<time>2015-05-07T08:19:53Z</time>
				<extensions>
				</extensions>
			</trkpt>
			<trkpt lat="-27.561354" lon="153.065854">
				<ele>60</ele>
				<time>2015-05-07T08:19:56Z</time>
				<extensions>
				</extensions>
			</trkpt>
			<trkpt lat="-27.561148" lon="153.065903">
				<ele>68</ele>
				<time>2015-05-07T08:22:03Z</time>
				<extensions>
				</extensions>
			</trkpt>
			<trkpt lat="-27.560881" lon="153.065956">
				<ele>69</ele>
				<time>2015-05-07T08:22:06Z</time>
				<extensions>
				</extensions>
			</trkpt>
			<trkpt lat="-27.560651" lon="153.065993">
				<ele>71</ele>
				<time>2015-05-07T08:22:08Z</time>
				<extensions>
				</extensions>
			</trkpt>
			<trkpt lat="-27.560399" lon="153.066035">
				<ele>71</ele>
				<time>2015-05-07T08:22:10Z</time>
				<extensions>
				</extensions>
			</trkpt>
			<trkpt lat="-27.560162" lon="153.066088">
				<ele>70</ele>
				<time>2015-05-07T08:22:12Z</time>
				<extensions>
				</extensions>
			</trkpt>
			<trkpt lat="-27.559926" lon="153.066158">
				<ele>69</ele>
				<time>2015-05-07T08:22:14Z</time>
				<extensions>
				</extensions>
			</trkpt>
			<trkpt lat="-27.559701" lon="153.066233">
				<ele>67</ele>
				<time>2015-05-07T08:22:16Z</time>
				<extensions>
				</extensions>
			</trkpt>
			<trkpt lat="-27.559497" lon="153.066296">
				<ele>63</ele>
				<time>2015-05-07T08:22:18Z</time>
				<extensions>
				</extensions>
			</trkpt>
			<trkpt lat="-27.559309" lon="153.066351">
				<ele>60</ele>
				<time>2015-05-07T08:22:20Z</time>
				<extensions>
				</extensions>
			</trkpt>
			<trkpt lat="-27.559112" lon="153.066394">
				<ele>57</ele>
				<time>2015-05-07T08:22:23Z</time>
				<extensions>
				</extensions>
			</trkpt>
			<trkpt lat="-27.558879" lon="153.066442">
				<ele>58</ele>
				<time>2015-05-07T08:22:26Z</time>
				<extensions>
				</extensions>
			</trkpt>
			<trkpt lat="-27.558668" lon="153.066482">
				<ele>59</ele>
				<time>2015-05-07T08:22:28Z</time>
				<extensions>
				</extensions>
			</trkpt>
			<trkpt lat="-27.558466" lon="153.066519">
				<ele>59</ele>
				<time>2015-05-07T08:22:30Z</time>
				<extensions>
				</extensions>
			</trkpt>
			<trkpt lat="-27.558240" lon="153.066563">
				<ele>61</ele>
				<time>2015-05-07T08:22:32Z</time>
				<extensions>
				</extensions>
			</trkpt>
			<trkpt lat="-27.557987" lon="153.066605">
				<ele>62</ele>
				<time>2015-05-07T08:22:34Z</time>
				<extensions>
				</extensions>
			</trkpt>
			<trkpt lat="-27.557750" lon="153.066641">
				<ele>63</ele>
				<time>2015-05-07T08:22:36Z</time>
				<extensions>
				</extensions>
			</trkpt>
			<trkpt lat="-27.557456" lon="153.066671">
				<ele>64</ele>
				<time>2015-05-07T08:22:38Z</time>
				<extensions>
				</extensions>
			</trkpt>
			<trkpt lat="-27.557157" lon="153.066710">
				<ele>67</ele>
				<time>2015-05-07T08:22:40Z</time>
				<extensions>
				</extensions>
			</trkpt>
			<trkpt lat="-27.556869" lon="153.066756">
				<ele>68</ele>
				<time>2015-05-07T08:22:42Z</time>
				<extensions>
				</extensions>
			</trkpt>
			<trkpt lat="-27.556581" lon="153.066810">
				<ele>70</ele>
				<time>2015-05-07T08:22:44Z</time>
				<extensions>
				</extensions>
			</trkpt>
			<trkpt lat="-27.556288" lon="153.066865">
				<ele>75</ele>
				<time>2015-05-07T08:22:46Z</time>
				<extensions>
				</extensions>
			</trkpt>
			<trkpt lat="-27.556004" lon="153.066922">
				<ele>76</ele>
				<time>2015-05-07T08:22:48Z</time>
				<extensions>
				</extensions>
			</trkpt>
			<trkpt lat="-27.555735" lon="153.066978">
				<ele>76</ele>
				<time>2015-05-07T08:22:50Z</time>
				<extensions>
				</extensions>
			</trkpt>
			<trkpt lat="-27.555462" lon="153.067028">
				<ele>76</ele>
				<time>2015-05-07T08:22:52Z</time>
				<extensions>
				</extensions>
			</trkpt>
			<trkpt lat="-27.555201" lon="153.067081">
				<ele>77</ele>
				<time>2015-05-07T08:22:54Z</time>
				<extensions>
				</extensions>
			</trkpt>
			<trkpt lat="-27.554928" lon="153.067143">
				<ele>75</ele>
				<time>2015-05-07T08:22:56Z</time>
				<extensions>
				</extensions>
			</trkpt>
			<trkpt lat="-27.554657" lon="153.067209">
				<ele>73</ele>
				<time>2015-05-07T08:22:58Z</time>
				<extensions>
				</extensions>
			</trkpt>
			<trkpt lat="-27.554370" lon="153.067278">
				<ele>69</ele>
				<time>2015-05-07T08:23:00Z</time>
				<extensions>
				</extensions>
			</trkpt>
			<trkpt lat="-27.554080" lon="153.067345">
				<ele>68</ele>
				<time>2015-05-07T08:23:02Z</time>
				<extensions>
				</extensions>
			</trkpt>
			<trkpt lat="-27.553787" lon="153.067405">
				<ele>66</ele>
				<time>2015-05-07T08:23:04Z</time>
				<extensions>
				</extensions>
			</trkpt>
			<trkpt lat="-27.553500" lon="153.067459">
				<ele>64</ele>
				<time>2015-05-07T08:23:06Z</time>
				<extensions>
				</extensions>
			</trkpt>
			<trkpt lat="-27.553209" lon="153.067518">
				<ele>61</ele>
				<time>2015-05-07T08:23:08Z</time>
				<extensions>
				</extensions>
			</trkpt>
			<trkpt lat="-27.552905" lon="153.067579">
				<ele>60</ele>
				<time>2015-05-07T08:23:10Z</time>
				<extensions>
				</extensions>
			</trkpt>
			<trkpt lat="-27.552605" lon="153.067627">
				<ele>59</ele>
				<time>2015-05-07T08:23:12Z</time>
				<extensions>
				</extensions>
			</trkpt>
			<trkpt lat="-27.552293" lon="153.067624">
				<ele>58</ele>
				<time>2015-05-07T08:23:14Z</time>
				<extensions>
				</extensions>
			</trkpt>
			<trkpt lat="-27.551987" lon="153.067545">
				<ele>56</ele>
				<time>2015-05-07T08:23:16Z</time>
				<extensions>
				</extensions>
			</trkpt>
			<trkpt lat="-27.551694" lon="153.067396">
				<ele>55</ele>
				<time>2015-05-07T08:23:18Z</time>
				<extensions>
				</extensions>
			</trkpt>
			<trkpt lat="-27.551464" lon="153.067218">
				<ele>53</ele>
				<time>2015-05-07T08:23:20Z</time>
				<extensions>
				</extensions>
			</trkpt>
			<trkpt lat="-27.551264" lon="153.067018">
				<ele>52</ele>
				<time>2015-05-07T08:23:22Z</time>
				<extensions>
				</extensions>
			</trkpt>
			<trkpt lat="-27.551058" lon="153.066800">
				<ele>52</ele>
				<time>2015-05-07T08:23:24Z</time>
				<extensions>
				</extensions>
			</trkpt>
			<trkpt lat="-27.550873" lon="153.066594">
				<ele>54</ele>
				<time>2015-05-07T08:23:26Z</time>
				<extensions>
				</extensions>
			</trkpt>
			<trkpt lat="-27.550678" lon="153.066401">
				<ele>53</ele>
				<time>2015-05-07T08:23:28Z</time>
				<extensions>
				</extensions>
			</trkpt>
			<trkpt lat="-27.550474" lon="153.066205">
				<ele>53</ele>
				<time>2015-05-07T08:23:30Z</time>
				<extensions>
				</extensions>
			</trkpt>
			<trkpt lat="-27.550294" lon="153.066038">
				<ele>56</ele>
				<time>2015-05-07T08:23:32Z</time>
				<extensions>
				</extensions>
			</trkpt>
			<trkpt lat="-27.550119" lon="153.065902">
				<ele>56</ele>
				<time>2015-05-07T08:23:33Z</time>
				<extensions>
				</extensions>
			</trkpt>
			<trkpt lat="-27.549866" lon="153.065730">
				<ele>57</ele>
				<time>2015-05-07T08:23:35Z</time>
				<extensions>
				</extensions>
			</trkpt>
			<trkpt lat="-27.549622" lon="153.065571">
				<ele>59</ele>
				<time>2015-05-07T08:23:37Z</time>
				<extensions>
				</extensions>
			</trkpt>
			<trkpt lat="-27.549373" lon="153.065416">
				<ele>59</ele>
				<time>2015-05-07T08:23:39Z</time>
				<extensions>
				</extensions>
			</trkpt>
			<trkpt lat="-27.549105" lon="153.065254">
				<ele>61</ele>
				<time>2015-05-07T08:23:41Z</time>
				<extensions>
				</extensions>
			</trkpt>
			<trkpt lat="-27.548822" lon="153.065076">
				<ele>63</ele>
				<time>2015-05-07T08:23:43Z</time>
				<extensions>
				</extensions>
			</trkpt>
			<trkpt lat="-27.548531" lon="153.064900">
				<ele>65</ele>
				<time>2015-05-07T08:23:45Z</time>
				<extensions>
				</extensions>
			</trkpt>
			<trkpt lat="-27.548249" lon="153.064730">
				<ele>66</ele>
				<time>2015-05-07T08:23:47Z</time>
				<extensions>
				</extensions>
			</trkpt>
			<trkpt lat="-27.547974" lon="153.064559">
				<ele>68</ele>
				<time>2015-05-07T08:23:49Z</time>
				<extensions>
				</extensions>
			</trkpt>
			<trkpt lat="-27.547708" lon="153.064390">
				<ele>69</ele>
				<time>2015-05-07T08:23:51Z</time>
				<extensions>
				</extensions>
			</trkpt>
			<trkpt lat="-27.547460" lon="153.064215">
				<ele>69</ele>
				<time>2015-05-07T08:23:53Z</time>
				<extensions>
				</extensions>
			</trkpt>
			<trkpt lat="-27.547202" lon="153.064022">
				<ele>71</ele>
				<time>2015-05-07T08:23:55Z</time>
				<extensions>
				</extensions>
			</trkpt>
			<trkpt lat="-27.546937" lon="153.063817">
				<ele>72</ele>
				<time>2015-05-07T08:23:57Z</time>
				<extensions>
				</extensions>
			</trkpt>
			<trkpt lat="-27.546661" lon="153.063594">
				<ele>74</ele>
				<time>2015-05-07T08:23:59Z</time>
				<extensions>
				</extensions>
			</trkpt>
			<trkpt lat="-27.546383" lon="153.063370">
				<ele>75</ele>
				<time>2015-05-07T08:24:01Z</time>
				<extensions>
				</extensions>
			</trkpt>
			<trkpt lat="-27.546103" lon="153.063142">
				<ele>75</ele>
				<time>2015-05-07T08:24:03Z</time>
				<extensions>
				</extensions>
			</trkpt>
			<trkpt lat="-27.545956" lon="153.063023">
				<ele>77</ele>
				<time>2015-05-07T08:24:04Z</time>
				<extensions>
				</extensions>
			</trkpt>
			<trkpt lat="-27.545662" lon="153.062788">
				<ele>76</ele>
				<time>2015-05-07T08:24:06Z</time>
				<extensions>
				</extensions>
			</trkpt>
			<trkpt lat="-27.545503" lon="153.062661">
				<ele>78</ele>
				<time>2015-05-07T08:24:07Z</time>
				<extensions>
				</extensions>
			</trkpt>
			<trkpt lat="-27.545345" lon="153.062538">
				<ele>77</ele>
				<time>2015-05-07T08:24:08Z</time>
				<extensions>
				</extensions>
			</trkpt>
			<trkpt lat="-27.545184" lon="153.062412">
				<ele>78</ele>
				<time>2015-05-07T08:24:09Z</time>
				<extensions>
				</extensions>
			</trkpt>
			<trkpt lat="-27.545016" lon="153.062287">
				<ele>77</ele>
				<time>2015-05-07T08:24:10Z</time>
				<extensions>
				</extensions>
			</trkpt>
			<trkpt lat="-27.544859" lon="153.062162">
				<ele>77</ele>
				<time>2015-05-07T08:24:11Z</time>
				<extensions>
				</extensions>
			</trkpt>
			<trkpt lat="-27.544687" lon="153.062038">
				<ele>77</ele>
				<time>2015-05-07T08:24:12Z</time>
				<extensions>
				</extensions>
			</trkpt>
			<trkpt lat="-27.544518" lon="153.061917">
				<ele>77</ele>
				<time>2015-05-07T08:24:13Z</time>
				<extensions>
				</extensions>
			</trkpt>
			<trkpt lat="-27.544346" lon="153.061799">
				<ele>78</ele>
				<time>2015-05-07T08:24:14Z</time>
				<extensions>
				</extensions>
			</trkpt>
			<trkpt lat="-27.544170" lon="153.061676">
				<ele>78</ele>
				<time>2015-05-07T08:24:15Z</time>
				<extensions>
				</extensions>
			</trkpt>
			<trkpt lat="-27.543986" lon="153.061545">
				<ele>77</ele>
				<time>2015-05-07T08:24:16Z</time>
				<extensions>
				</extensions>
			</trkpt>
			<trkpt lat="-27.543787" lon="153.061413">
				<ele>78</ele>
				<time>2015-05-07T08:24:17Z</time>
				<extensions>
				</extensions>
			</trkpt>
			<trkpt lat="-27.543582" lon="153.061283">
				<ele>79</ele>
				<time>2015-05-07T08:24:18Z</time>
				<extensions>
				</extensions>
			</trkpt>
			<trkpt lat="-27.543369" lon="153.061152">
				<ele>83</ele>
				<time>2015-05-07T08:24:19Z</time>
				<extensions>
				</extensions>
			</trkpt>
			<trkpt lat="-27.543159" lon="153.061015">
				<ele>84</ele>
				<time>2015-05-07T08:24:20Z</time>
				<extensions>
				</extensions>
			</trkpt>
			<trkpt lat="-27.542946" lon="153.060877">
				<ele>80</ele>
				<time>2015-05-07T08:24:21Z</time>
				<extensions>
				</extensions>
			</trkpt>
			<trkpt lat="-27.542736" lon="153.060744">
				<ele>80</ele>
				<time>2015-05-07T08:24:22Z</time>
				<extensions>
				</extensions>
			</trkpt>
			<trkpt lat="-27.542519" lon="153.060616">
				<ele>80</ele>
				<time>2015-05-07T08:24:23Z</time>
				<extensions>
				</extensions>
			</trkpt>
			<trkpt lat="-27.542293" lon="153.060494">
				<ele>80</ele>
				<time>2015-05-07T08:24:24Z</time>
				<extensions>
				</extensions>
			</trkpt>
			<trkpt lat="-27.542059" lon="153.060370">
				<ele>78</ele>
				<time>2015-05-07T08:24:25Z</time>
				<extensions>
				</extensions>
			</trkpt>
			<trkpt lat="-27.541828" lon="153.060250">
				<ele>79</ele>
				<time>2015-05-07T08:24:26Z</time>
				<extensions>
				</extensions>
			</trkpt>
			<trkpt lat="-27.541597" lon="153.060125">
				<ele>77</ele>
				<time>2015-05-07T08:24:27Z</time>
				<extensions>
				</extensions>
			</trkpt>
			<trkpt lat="-27.541373" lon="153.060005">
				<ele>76</ele>
				<time>2015-05-07T08:24:28Z</time>
				<extensions>
				</extensions>
			</trkpt>
			<trkpt lat="-27.541128" lon="153.059932">
				<ele>76</ele>
				<time>2015-05-07T08:24:29Z</time>
				<extensions>
				</extensions>
			</trkpt>
			<trkpt lat="-27.540891" lon="153.059828">
				<ele>76</ele>
				<time>2015-05-07T08:24:30Z</time>
				<extensions>
				</extensions>
			</trkpt>
			<trkpt lat="-27.540655" lon="153.059726">
				<ele>73</ele>
				<time>2015-05-07T08:24:31Z</time>
				<extensions>
				</extensions>
			</trkpt>
			<trkpt lat="-27.540441" lon="153.059640">
				<ele>53</ele>
				<time>2015-05-07T08:24:32Z</time>
				<extensions>
				</extensions>
			</trkpt>
			<trkpt lat="-27.540212" lon="153.059545">
				<ele>53</ele>
				<time>2015-05-07T08:24:33Z</time>
				<extensions>
				</extensions>
			</trkpt>
			<trkpt lat="-27.539977" lon="153.059475">
				<ele>55</ele>
				<time>2015-05-07T08:24:34Z</time>
				<extensions>
				</extensions>
			</trkpt>
			<trkpt lat="-27.539731" lon="153.059389">
				<ele>52</ele>
				<time>2015-05-07T08:24:35Z</time>
				<extensions>
				</extensions>
			</trkpt>
			<trkpt lat="-27.539477" lon="153.059318">
				<ele>51</ele>
				<time>2015-05-07T08:24:36Z</time>
				<extensions>
				</extensions>
			</trkpt>
			<trkpt lat="-27.539237" lon="153.059240">
				<ele>50</ele>
				<time>2015-05-07T08:24:37Z</time>
				<extensions>
				</extensions>
			</trkpt>
			<trkpt lat="-27.538995" lon="153.059166">
				<ele>58</ele>
				<time>2015-05-07T08:24:38Z</time>
				<extensions>
				</extensions>
			</trkpt>
			<trkpt lat="-27.538748" lon="153.059095">
				<ele>59</ele>
				<time>2015-05-07T08:24:39Z</time>
				<extensions>
				</extensions>
			</trkpt>
			<trkpt lat="-27.538495" lon="153.059024">
				<ele>57</ele>
				<time>2015-05-07T08:24:40Z</time>
				<extensions>
				</extensions>
			</trkpt>
			<trkpt lat="-27.538262" lon="153.058957">
				<ele>55</ele>
				<time>2015-05-07T08:24:41Z</time>
				<extensions>
				</extensions>
			</trkpt>
			<trkpt lat="-27.538016" lon="153.058898">
				<ele>54</ele>
				<time>2015-05-07T08:24:42Z</time>
				<extensions>
				</extensions>
			</trkpt>
			<trkpt lat="-27.537772" lon="153.058830">
				<ele>52</ele>
				<time>2015-05-07T08:24:43Z</time>
				<extensions>
				</extensions>
			</trkpt>
			<trkpt lat="-27.537525" lon="153.058774">
				<ele>52</ele>
				<time>2015-05-07T08:24:44Z</time>
				<extensions>
				</extensions>
			</trkpt>
			<trkpt lat="-27.537277" lon="153.058718">
				<ele>37</ele>
				<time>2015-05-07T08:24:45Z</time>
				<extensions>
				</extensions>
			</trkpt>
			<trkpt lat="-27.537036" lon="153.058660">
				<ele>49</ele>
				<time>2015-05-07T08:24:46Z</time>
				<extensions>
				</extensions>
			</trkpt>
			<trkpt lat="-27.536783" lon="153.058608">
				<ele>46</ele>
				<time>2015-05-07T08:24:47Z</time>
				<extensions>
				</extensions>
			</trkpt>
			<trkpt lat="-27.536530" lon="153.058552">
				<ele>47</ele>
				<time>2015-05-07T08:24:48Z</time>
				<extensions>
				</extensions>
			</trkpt>
			<trkpt lat="-27.536278" lon="153.058501">
				<ele>45</ele>
				<time>2015-05-07T08:24:49Z</time>
				<extensions>
				</extensions>
			</trkpt>
			<trkpt lat="-27.536029" lon="153.058445">
				<ele>41</ele>
				<time>2015-05-07T08:24:50Z</time>
				<extensions>
				</extensions>
			</trkpt>
			<trkpt lat="-27.535779" lon="153.058391">
				<ele>40</ele>
				<time>2015-05-07T08:24:51Z</time>
				<extensions>
				</extensions>
			</trkpt>
			<trkpt lat="-27.535524" lon="153.058335">
				<ele>41</ele>
				<time>2015-05-07T08:24:52Z</time>
				<extensions>
				</extensions>
			</trkpt>
			<trkpt lat="-27.535270" lon="153.058281">
				<ele>40</ele>
				<time>2015-05-07T08:24:53Z</time>
				<extensions>
				</extensions>
			</trkpt>
			<trkpt lat="-27.535029" lon="153.058237">
				<ele>39</ele>
				<time>2015-05-07T08:24:54Z</time>
				<extensions>
				</extensions>
			</trkpt>
			<trkpt lat="-27.534774" lon="153.058184">
				<ele>37</ele>
				<time>2015-05-07T08:24:55Z</time>
				<extensions>
				</extensions>
			</trkpt>
			<trkpt lat="-27.534517" lon="153.058131">
				<ele>37</ele>
				<time>2015-05-07T08:24:56Z</time>
				<extensions>
				</extensions>
			</trkpt>
			<trkpt lat="-27.534273" lon="153.058086">
				<ele>36</ele>
				<time>2015-05-07T08:24:57Z</time>
				<extensions>
				</extensions>
			</trkpt>
			<trkpt lat="-27.534021" lon="153.058028">
				<ele>39</ele>
				<time>2015-05-07T08:24:58Z</time>
				<extensions>
				</extensions>
			</trkpt>
			<trkpt lat="-27.533759" lon="153.057971">
				<ele>35</ele>
				<time>2015-05-07T08:24:59Z</time>
				<extensions>
				</extensions>
			</trkpt>
			<trkpt lat="-27.533505" lon="153.057913">
				<ele>35</ele>
				<time>2015-05-07T08:25:00Z</time>
				<extensions>
				</extensions>
			</trkpt>
			<trkpt lat="-27.533246" lon="153.057855">
				<ele>33</ele>
				<time>2015-05-07T08:25:01Z</time>
				<extensions>
				</extensions>
			</trkpt>
			<trkpt lat="-27.532996" lon="153.057804">
				<ele>32</ele>
				<time>2015-05-07T08:25:02Z</time>
				<extensions>
				</extensions>
			</trkpt>
			<trkpt lat="-27.532742" lon="153.057751">
				<ele>32</ele>
				<time>2015-05-07T08:25:03Z</time>
				<extensions>
				</extensions>
			</trkpt>
			<trkpt lat="-27.532494" lon="153.057699">
				<ele>30</ele>
				<time>2015-05-07T08:25:04Z</time>
				<extensions>
				</extensions>
			</trkpt>
			<trkpt lat="-27.532240" lon="153.057645">
				<ele>30</ele>
				<time>2015-05-07T08:25:05Z</time>
				<extensions>
				</extensions>
			</trkpt>
			<trkpt lat="-27.531990" lon="153.057593">
				<ele>30</ele>
				<time>2015-05-07T08:25:06Z</time>
				<extensions>
				</extensions>
			</trkpt>
			<trkpt lat="-27.531743" lon="153.057537">
				<ele>30</ele>
				<time>2015-05-07T08:25:07Z</time>
				<extensions>
				</extensions>
			</trkpt>
			<trkpt lat="-27.531494" lon="153.057479">
				<ele>29</ele>
				<time>2015-05-07T08:25:08Z</time>
				<extensions>
				</extensions>
			</trkpt>
			<trkpt lat="-27.531254" lon="153.057429">
				<ele>27</ele>
				<time>2015-05-07T08:25:09Z</time>
				<extensions>
				</extensions>
			</trkpt>
			<trkpt lat="-27.531006" lon="153.057373">
				<ele>25</ele>
				<time>2015-05-07T08:25:10Z</time>
				<extensions>
				</extensions>
			</trkpt>
			<trkpt lat="-27.530762" lon="153.057322">
				<ele>26</ele>
				<time>2015-05-07T08:25:11Z</time>
				<extensions>
				</extensions>
			</trkpt>
			<trkpt lat="-27.530515" lon="153.057264">
				<ele>26</ele>
				<time>2015-05-07T08:25:12Z</time>
				<extensions>
				</extensions>
			</trkpt>
			<trkpt lat="-27.530264" lon="153.057208">
				<ele>26</ele>
				<time>2015-05-07T08:25:13Z</time>
				<extensions>
				</extensions>
			</trkpt>
			<trkpt lat="-27.530021" lon="153.057157">
				<ele>26</ele>
				<time>2015-05-07T08:25:14Z</time>
				<extensions>
				</extensions>
			</trkpt>
			<trkpt lat="-27.529781" lon="153.057115">
				<ele>26</ele>
				<time>2015-05-07T08:25:15Z</time>
				<extensions>
				</extensions>
			</trkpt>
			<trkpt lat="-27.529533" lon="153.057066">
				<ele>27</ele>
				<time>2015-05-07T08:25:16Z</time>
				<extensions>
				</extensions>
			</trkpt>
			<trkpt lat="-27.529280" lon="153.057012">
				<ele>25</ele>
				<time>2015-05-07T08:25:17Z</time>
				<extensions>
				</extensions>
			</trkpt>
			<trkpt lat="-27.529029" lon="153.056957">
				<ele>24</ele>
				<time>2015-05-07T08:25:18Z</time>
				<extensions>
				</extensions>
			</trkpt>
			<trkpt lat="-27.528783" lon="153.056906">
				<ele>24</ele>
				<time>2015-05-07T08:25:19Z</time>
				<extensions>
				</extensions>
			</trkpt>
			<trkpt lat="-27.528539" lon="153.056851">
				<ele>23</ele>
				<time>2015-05-07T08:25:20Z</time>
				<extensions>
				</extensions>
			</trkpt>
			<trkpt lat="-27.528295" lon="153.056790">
				<ele>24</ele>
				<time>2015-05-07T08:25:21Z</time>
				<extensions>
				</extensions>
			</trkpt>
			<trkpt lat="-27.528052" lon="153.056723">
				<ele>24</ele>
				<time>2015-05-07T08:25:22Z</time>
				<extensions>
				</extensions>
			</trkpt>
			<trkpt lat="-27.527818" lon="153.056653">
				<ele>26</ele>
				<time>2015-05-07T08:25:23Z</time>
				<extensions>
				</extensions>
			</trkpt>
			<trkpt lat="-27.527586" lon="153.056575">
				<ele>26</ele>
				<time>2015-05-07T08:25:24Z</time>
				<extensions>
				</extensions>
			</trkpt>
			<trkpt lat="-27.527353" lon="153.056498">
				<ele>25</ele>
				<time>2015-05-07T08:25:25Z</time>
				<extensions>
				</extensions>
			</trkpt>
			<trkpt lat="-27.527118" lon="153.056421">
				<ele>23</ele>
				<time>2015-05-07T08:25:26Z</time>
				<extensions>
				</extensions>
			</trkpt>
			<trkpt lat="-27.526883" lon="153.056331">
				<ele>24</ele>
				<time>2015-05-07T08:25:27Z</time>
				<extensions>
				</extensions>
			</trkpt>
			<trkpt lat="-27.526657" lon="153.056238">
				<ele>26</ele>
				<time>2015-05-07T08:25:28Z</time>
				<extensions>
				</extensions>
			</trkpt>
			<trkpt lat="-27.526426" lon="153.056151">
				<ele>25</ele>
				<time>2015-05-07T08:25:29Z</time>
				<extensions>
				</extensions>
			</trkpt>
			<trkpt lat="-27.526172" lon="153.056057">
				<ele>23</ele>
				<time>2015-05-07T08:25:30Z</time>
				<extensions>
				</extensions>
			</trkpt>
			<trkpt lat="-27.525944" lon="153.055955">
				<ele>24</ele>
				<time>2015-05-07T08:25:31Z</time>
				<extensions>
				</extensions>
			</trkpt>
			<trkpt lat="-27.525733" lon="153.055863">
				<ele>23</ele>
				<time>2015-05-07T08:25:32Z</time>
				<extensions>
				</extensions>
			</trkpt>
			<trkpt lat="-27.525502" lon="153.055756">
				<ele>22</ele>
				<time>2015-05-07T08:25:33Z</time>
				<extensions>
				</extensions>
			</trkpt>
			<trkpt lat="-27.525279" lon="153.055647">
				<ele>24</ele>
				<time>2015-05-07T08:25:34Z</time>
				<extensions>
				</extensions>
			</trkpt>
			<trkpt lat="-27.525050" lon="153.055526">
				<ele>22</ele>
				<time>2015-05-07T08:25:35Z</time>
				<extensions>
				</extensions>
			</trkpt>
			<trkpt lat="-27.524822" lon="153.055401">
				<ele>22</ele>
				<time>2015-05-07T08:25:36Z</time>
				<extensions>
				</extensions>
			</trkpt>
			<trkpt lat="-27.524602" lon="153.055273">
				<ele>23</ele>
				<time>2015-05-07T08:25:37Z</time>
				<extensions>
				</extensions>
			</trkpt>
			<trkpt lat="-27.524389" lon="153.055138">
				<ele>22</ele>
				<time>2015-05-07T08:25:38Z</time>
				<extensions>
				</extensions>
			</trkpt>
			<trkpt lat="-27.524170" lon="153.054994">
				<ele>22</ele>
				<time>2015-05-07T08:25:39Z</time>
				<extensions>
				</extensions>
			</trkpt>
			<trkpt lat="-27.523954" lon="153.054843">
				<ele>22</ele>
				<time>2015-05-07T08:25:40Z</time>
				<extensions>
				</extensions>
			</trkpt>
			<trkpt lat="-27.523742" lon="153.054691">
				<ele>20</ele>
				<time>2015-05-07T08:25:41Z</time>
				<extensions>
				</extensions>
			</trkpt>
			<trkpt lat="-27.523536" lon="153.054538">
				<ele>21</ele>
				<time>2015-05-07T08:25:42Z</time>
				<extensions>
				</extensions>
			</trkpt>
			<trkpt lat="-27.523336" lon="153.054380">
				<ele>20</ele>
				<time>2015-05-07T08:25:43Z</time>
				<extensions>
				</extensions>
			</trkpt>
			<trkpt lat="-27.523137" lon="153.054225">
				<ele>20</ele>
				<time>2015-05-07T08:25:44Z</time>
				<extensions>
				</extensions>
			</trkpt>
			<trkpt lat="-27.522951" lon="153.054076">
				<ele>20</ele>
				<time>2015-05-07T08:25:45Z</time>
				<extensions>
				</extensions>
			</trkpt>
			<trkpt lat="-27.522753" lon="153.053925">
				<ele>20</ele>
				<time>2015-05-07T08:25:46Z</time>
				<extensions>
				</extensions>
			</trkpt>
			<trkpt lat="-27.522564" lon="153.053775">
				<ele>19</ele>
				<time>2015-05-07T08:25:47Z</time>
				<extensions>
				</extensions>
			</trkpt>
			<trkpt lat="-27.522368" lon="153.053624">
				<ele>20</ele>
				<time>2015-05-07T08:25:48Z</time>
				<extensions>
				</extensions>
			</trkpt>
			<trkpt lat="-27.522162" lon="153.053466">
				<ele>20</ele>
				<time>2015-05-07T08:25:49Z</time>
				<extensions>
				</extensions>
			</trkpt>
			<trkpt lat="-27.521962" lon="153.053303">
				<ele>20</ele>
				<time>2015-05-07T08:25:50Z</time>
				<extensions>
				</extensions>
			</trkpt>
			<trkpt lat="-27.521770" lon="153.053144">
				<ele>19</ele>
				<time>2015-05-07T08:25:51Z</time>
				<extensions>
				</extensions>
			</trkpt>
			<trkpt lat="-27.521571" lon="153.052983">
				<ele>20</ele>
				<time>2015-05-07T08:25:52Z</time>
				<extensions>
				</extensions>
			</trkpt>
			<trkpt lat="-27.521381" lon="153.052826">
				<ele>19</ele>
				<time>2015-05-07T08:25:53Z</time>
				<extensions>
				</extensions>
			</trkpt>
			<trkpt lat="-27.521184" lon="153.052668">
				<ele>17</ele>
				<time>2015-05-07T08:25:54Z</time>
				<extensions>
				</extensions>
			</trkpt>
			<trkpt lat="-27.521024" lon="153.052543">
				<ele>17</ele>
				<time>2015-05-07T08:25:55Z</time>
				<extensions>
				</extensions>
			</trkpt>
			<trkpt lat="-27.520836" lon="153.052400">
				<ele>17</ele>
				<time>2015-05-07T08:25:56Z</time>
				<extensions>
				</extensions>
			</trkpt>
			<trkpt lat="-27.520639" lon="153.052250">
				<ele>16</ele>
				<time>2015-05-07T08:25:57Z</time>
				<extensions>
				</extensions>
			</trkpt>
			<trkpt lat="-27.520438" lon="153.052087">
				<ele>17</ele>
				<time>2015-05-07T08:25:58Z</time>
				<extensions>
				</extensions>
			</trkpt>
			<trkpt lat="-27.520243" lon="153.051931">
				<ele>17</ele>
				<time>2015-05-07T08:25:59Z</time>
				<extensions>
				</extensions>
			</trkpt>
			<trkpt lat="-27.520044" lon="153.051774">
				<ele>17</ele>
				<time>2015-05-07T08:26:00Z</time>
				<extensions>
				</extensions>
			</trkpt>
			<trkpt lat="-27.519823" lon="153.051593">
				<ele>16</ele>
				<time>2015-05-07T08:26:01Z</time>
				<extensions>
				</extensions>
			</trkpt>
			<trkpt lat="-27.519618" lon="153.051425">
				<ele>15</ele>
				<time>2015-05-07T08:26:02Z</time>
				<extensions>
				</extensions>
			</trkpt>
			<trkpt lat="-27.519411" lon="153.051254">
				<ele>14</ele>
				<time>2015-05-07T08:26:03Z</time>
				<extensions>
				</extensions>
			</trkpt>
			<trkpt lat="-27.519201" lon="153.051077">
				<ele>13</ele>
				<time>2015-05-07T08:26:04Z</time>
				<extensions>
				</extensions>
			</trkpt>
			<trkpt lat="-27.518995" lon="153.050900">
				<ele>13</ele>
				<time>2015-05-07T08:26:05Z</time>
				<extensions>
				</extensions>
			</trkpt>
			<trkpt lat="-27.518804" lon="153.050717">
				<ele>13</ele>
				<time>2015-05-07T08:26:06Z</time>
				<extensions>
				</extensions>
			</trkpt>
			<trkpt lat="-27.518618" lon="153.050525">
				<ele>14</ele>
				<time>2015-05-07T08:26:07Z</time>
				<extensions>
				</extensions>
			</trkpt>
			<trkpt lat="-27.518442" lon="153.050329">
				<ele>11</ele>
				<time>2015-05-07T08:26:08Z</time>
				<extensions>
				</extensions>
			</trkpt>
			<trkpt lat="-27.518271" lon="153.050136">
				<ele>10</ele>
				<time>2015-05-07T08:26:09Z</time>
				<extensions>
				</extensions>
			</trkpt>
			<trkpt lat="-27.518100" lon="153.049930">
				<ele>12</ele>
				<time>2015-05-07T08:26:10Z</time>
				<extensions>
				</extensions>
			</trkpt>
			<trkpt lat="-27.517944" lon="153.049728">
				<ele>11</ele>
				<time>2015-05-07T08:26:11Z</time>
				<extensions>
				</extensions>
			</trkpt>
			<trkpt lat="-27.517786" lon="153.049517">
				<ele>9</ele>
				<time>2015-05-07T08:26:12Z</time>
				<extensions>
				</extensions>
			</trkpt>
			<trkpt lat="-27.517623" lon="153.049301">
				<ele>9</ele>
				<time>2015-05-07T08:26:13Z</time>
				<extensions>
				</extensions>
			</trkpt>
			<trkpt lat="-27.517475" lon="153.049066">
				<ele>11</ele>
				<time>2015-05-07T08:26:14Z</time>
				<extensions>
				</extensions>
			</trkpt>
			<trkpt lat="-27.517329" lon="153.048829">
				<ele>10</ele>
				<time>2015-05-07T08:26:15Z</time>
				<extensions>
				</extensions>
			</trkpt>
			<trkpt lat="-27.517194" lon="153.048584">
				<ele>8</ele>
				<time>2015-05-07T08:26:16Z</time>
				<extensions>
				</extensions>
			</trkpt>
			<trkpt lat="-27.517068" lon="153.048335">
				<ele>10</ele>
				<time>2015-05-07T08:26:17Z</time>
				<extensions>
				</extensions>
			</trkpt>
			<trkpt lat="-27.516937" lon="153.048087">
				<ele>10</ele>
				<time>2015-05-07T08:26:18Z</time>
				<extensions>
				</extensions>
			</trkpt>
			<trkpt lat="-27.516813" lon="153.047839">
				<ele>9</ele>
				<time>2015-05-07T08:26:19Z</time>
				<extensions>
				</extensions>
			</trkpt>
			<trkpt lat="-27.516693" lon="153.047604">
				<ele>6</ele>
				<time>2015-05-07T08:26:20Z</time>
				<extensions>
				</extensions>
			</trkpt>
			<trkpt lat="-27.516574" lon="153.047359">
				<ele>6</ele>
				<time>2015-05-07T08:26:21Z</time>
				<extensions>
				</extensions>
			</trkpt>
			<trkpt lat="-27.516446" lon="153.047111">
				<ele>7</ele>
				<time>2015-05-07T08:26:22Z</time>
				<extensions>
				</extensions>
			</trkpt>
			<trkpt lat="-27.516327" lon="153.046860">
				<ele>6</ele>
				<time>2015-05-07T08:26:23Z</time>
				<extensions>
				</extensions>
			</trkpt>
			<trkpt lat="-27.516211" lon="153.046619">
				<ele>5</ele>
				<time>2015-05-07T08:26:24Z</time>
				<extensions>
				</extensions>
			</trkpt>
			<trkpt lat="-27.516085" lon="153.046374">
				<ele>5</ele>
				<time>2015-05-07T08:26:25Z</time>
				<extensions>
				</extensions>
			</trkpt>
			<trkpt lat="-27.515964" lon="153.046114">
				<ele>6</ele>
				<time>2015-05-07T08:26:26Z</time>
				<extensions>
				</extensions>
			</trkpt>
			<trkpt lat="-27.515837" lon="153.045857">
				<ele>6</ele>
				<time>2015-05-07T08:26:27Z</time>
				<extensions>
				</extensions>
			</trkpt>
			<trkpt lat="-27.515711" lon="153.045608">
				<ele>7</ele>
				<time>2015-05-07T08:26:28Z</time>
				<extensions>
				</extensions>
			</trkpt>
			<trkpt lat="-27.515594" lon="153.045360">
				<ele>6</ele>
				<time>2015-05-07T08:26:29Z</time>
				<extensions>
				</extensions>
			</trkpt>
			<trkpt lat="-27.515475" lon="153.045109">
				<ele>5</ele>
				<time>2015-05-07T08:26:30Z</time>
				<extensions>
				</extensions>
			</trkpt>
			<trkpt lat="-27.515350" lon="153.044860">
				<ele>5</ele>
				<time>2015-05-07T08:26:31Z</time>
				<extensions>
				</extensions>
			</trkpt>
			<trkpt lat="-27.515233" lon="153.044611">
				<ele>4</ele>
				<time>2015-05-07T08:26:32Z</time>
				<extensions>
				</extensions>
			</trkpt>
			<trkpt lat="-27.515114" lon="153.044365">
				<ele>5</ele>
				<time>2015-05-07T08:26:33Z</time>
				<extensions>
				</extensions>
			</trkpt>
			<trkpt lat="-27.514986" lon="153.044129">
				<ele>5</ele>
				<time>2015-05-07T08:26:34Z</time>
				<extensions>
				</extensions>
			</trkpt>
			<trkpt lat="-27.514864" lon="153.043893">
				<ele>7</ele>
				<time>2015-05-07T08:26:35Z</time>
				<extensions>
				</extensions>
			</trkpt>
			<trkpt lat="-27.514740" lon="153.043648">
				<ele>6</ele>
				<time>2015-05-07T08:26:36Z</time>
				<extensions>
				</extensions>
			</trkpt>
			<trkpt lat="-27.514620" lon="153.043402">
				<ele>5</ele>
				<time>2015-05-07T08:26:37Z</time>
				<extensions>
				</extensions>
			</trkpt>
			<trkpt lat="-27.514504" lon="153.043157">
				<ele>6</ele>
				<time>2015-05-07T08:26:38Z</time>
				<extensions>
				</extensions>
			</trkpt>
			<trkpt lat="-27.514388" lon="153.042912">
				<ele>5</ele>
				<time>2015-05-07T08:26:39Z</time>
				<extensions>
				</extensions>
			</trkpt>
			<trkpt lat="-27.514268" lon="153.042667">
				<ele>7</ele>
				<time>2015-05-07T08:26:40Z</time>
				<extensions>
				</extensions>
			</trkpt>
			<trkpt lat="-27.514144" lon="153.042428">
				<ele>7</ele>
				<time>2015-05-07T08:26:41Z</time>
				<extensions>
				</extensions>
			</trkpt>
			<trkpt lat="-27.514018" lon="153.042194">
				<ele>5</ele>
				<time>2015-05-07T08:26:42Z</time>
				<extensions>
				</extensions>
			</trkpt>
			<trkpt lat="-27.513898" lon="153.041970">
				<ele>5</ele>
				<time>2015-05-07T08:26:43Z</time>
				<extensions>
				</extensions>
			</trkpt>
			<trkpt lat="-27.513733" lon="153.041742">
				<ele>5</ele>
				<time>2015-05-07T08:26:44Z</time>
				<extensions>
				</extensions>
			</trkpt>
			<trkpt lat="-27.513566" lon="153.041555">
				<ele>4</ele>
				<time>2015-05-07T08:26:45Z</time>
				<extensions>
				</extensions>
			</trkpt>
			<trkpt lat="-27.513389" lon="153.041347">
				<ele>4</ele>
				<time>2015-05-07T08:26:46Z</time>
				<extensions>
				</extensions>
			</trkpt>
			<trkpt lat="-27.513223" lon="153.041158">
				<ele>4</ele>
				<time>2015-05-07T08:26:47Z</time>
				<extensions>
				</extensions>
			</trkpt>
			<trkpt lat="-27.513051" lon="153.040978">
				<ele>4</ele>
				<time>2015-05-07T08:26:48Z</time>
				<extensions>
				</extensions>
			</trkpt>
			<trkpt lat="-27.512864" lon="153.040817">
				<ele>4</ele>
				<time>2015-05-07T08:26:49Z</time>
				<extensions>
				</extensions>
			</trkpt>
			<trkpt lat="-27.512681" lon="153.040666">
				<ele>6</ele>
				<time>2015-05-07T08:26:50Z</time>
				<extensions>
				</extensions>
			</trkpt>
			<trkpt lat="-27.512485" lon="153.040519">
				<ele>5</ele>
				<time>2015-05-07T08:26:51Z</time>
				<extensions>
				</extensions>
			</trkpt>
			<trkpt lat="-27.512285" lon="153.040386">
				<ele>6</ele>
				<time>2015-05-07T08:26:52Z</time>
				<extensions>
				</extensions>
			</trkpt>
			<trkpt lat="-27.512068" lon="153.040250">
				<ele>6</ele>
				<time>2015-05-07T08:26:53Z</time>
				<extensions>
				</extensions>
			</trkpt>
			<trkpt lat="-27.511855" lon="153.040135">
				<ele>7</ele>
				<time>2015-05-07T08:26:54Z</time>
				<extensions>
				</extensions>
			</trkpt>
			<trkpt lat="-27.511644" lon="153.040017">
				<ele>8</ele>
				<time>2015-05-07T08:26:55Z</time>
				<extensions>
				</extensions>
			</trkpt>
			<trkpt lat="-27.511415" lon="153.039886">
				<ele>6</ele>
				<time>2015-05-07T08:26:56Z</time>
				<extensions>
				</extensions>
			</trkpt>
			<trkpt lat="-27.511200" lon="153.039769">
				<ele>6</ele>
				<time>2015-05-07T08:26:57Z</time>
				<extensions>
				</extensions>
			</trkpt>
			<trkpt lat="-27.510985" lon="153.039658">
				<ele>10</ele>
				<time>2015-05-07T08:26:58Z</time>
				<extensions>
				</extensions>
			</trkpt>
			<trkpt lat="-27.510760" lon="153.039540">
				<ele>9</ele>
				<time>2015-05-07T08:26:59Z</time>
				<extensions>
				</extensions>
			</trkpt>
			<trkpt lat="-27.510537" lon="153.039428">
				<ele>8</ele>
				<time>2015-05-07T08:27:00Z</time>
				<extensions>
				</extensions>
			</trkpt>
			<trkpt lat="-27.510309" lon="153.039307">
				<ele>7</ele>
				<time>2015-05-07T08:27:01Z</time>
				<extensions>
				</extensions>
			</trkpt>
			<trkpt lat="-27.510097" lon="153.039191">
				<ele>8</ele>
				<time>2015-05-07T08:27:02Z</time>
				<extensions>
				</extensions>
			</trkpt>
			<trkpt lat="-27.509871" lon="153.039077">
				<ele>6</ele>
				<time>2015-05-07T08:27:03Z</time>
				<extensions>
				</extensions>
			</trkpt>
			<trkpt lat="-27.509646" lon="153.038960">
				<ele>6</ele>
				<time>2015-05-07T08:27:04Z</time>
				<extensions>
				</extensions>
			</trkpt>
			<trkpt lat="-27.509416" lon="153.038860">
				<ele>8</ele>
				<time>2015-05-07T08:27:05Z</time>
				<extensions>
				</extensions>
			</trkpt>
			<trkpt lat="-27.509186" lon="153.038776">
				<ele>7</ele>
				<time>2015-05-07T08:27:06Z</time>
				<extensions>
				</extensions>
			</trkpt>
			<trkpt lat="-27.508946" lon="153.038710">
				<ele>6</ele>
				<time>2015-05-07T08:27:07Z</time>
				<extensions>
				</extensions>
			</trkpt>
			<trkpt lat="-27.508709" lon="153.038664">
				<ele>5</ele>
				<time>2015-05-07T08:27:08Z</time>
				<extensions>
				</extensions>
			</trkpt>
			<trkpt lat="-27.508478" lon="153.038620">
				<ele>5</ele>
				<time>2015-05-07T08:27:09Z</time>
				<extensions>
				</extensions>
			</trkpt>
			<trkpt lat="-27.508235" lon="153.038590">
				<ele>5</ele>
				<time>2015-05-07T08:27:10Z</time>
				<extensions>
				</extensions>
			</trkpt>
			<trkpt lat="-27.507991" lon="153.038570">
				<ele>7</ele>
				<time>2015-05-07T08:27:11Z</time>
				<extensions>
				</extensions>
			</trkpt>
			<trkpt lat="-27.507748" lon="153.038564">
				<ele>7</ele>
				<time>2015-05-07T08:27:12Z</time>
				<extensions>
				</extensions>
			</trkpt>
			<trkpt lat="-27.507501" lon="153.038570">
				<ele>7</ele>
				<time>2015-05-07T08:27:13Z</time>
				<extensions>
				</extensions>
			</trkpt>
			<trkpt lat="-27.507262" lon="153.038600">
				<ele>10</ele>
				<time>2015-05-07T08:27:14Z</time>
				<extensions>
				</extensions>
			</trkpt>
			<trkpt lat="-27.507017" lon="153.038638">
				<ele>10</ele>
				<time>2015-05-07T08:27:15Z</time>
				<extensions>
				</extensions>
			</trkpt>
			<trkpt lat="-27.506773" lon="153.038679">
				<ele>11</ele>
				<time>2015-05-07T08:27:16Z</time>
				<extensions>
				</extensions>
			</trkpt>
			<trkpt lat="-27.506534" lon="153.038717">
				<ele>10</ele>
				<time>2015-05-07T08:27:17Z</time>
				<extensions>
				</extensions>
			</trkpt>
			<trkpt lat="-27.506290" lon="153.038759">
				<ele>9</ele>
				<time>2015-05-07T08:27:18Z</time>
				<extensions>
				</extensions>
			</trkpt>
			<trkpt lat="-27.506050" lon="153.038804">
				<ele>9</ele>
				<time>2015-05-07T08:27:19Z</time>
				<extensions>
				</extensions>
			</trkpt>
			<trkpt lat="-27.505810" lon="153.038852">
				<ele>9</ele>
				<time>2015-05-07T08:27:20Z</time>
				<extensions>
				</extensions>
			</trkpt>
			<trkpt lat="-27.505563" lon="153.038892">
				<ele>10</ele>
				<time>2015-05-07T08:27:21Z</time>
				<extensions>
				</extensions>
			</trkpt>
			<trkpt lat="-27.505323" lon="153.038936">
				<ele>8</ele>
				<time>2015-05-07T08:27:22Z</time>
				<extensions>
				</extensions>
			</trkpt>
			<trkpt lat="-27.505079" lon="153.038985">
				<ele>8</ele>
				<time>2015-05-07T08:27:23Z</time>
				<extensions>
				</extensions>
			</trkpt>
			<trkpt lat="-27.504840" lon="153.039031">
				<ele>8</ele>
				<time>2015-05-07T08:27:24Z</time>
				<extensions>
				</extensions>
			</trkpt>
			<trkpt lat="-27.504595" lon="153.039082">
				<ele>8</ele>
				<time>2015-05-07T08:27:25Z</time>
				<extensions>
				</extensions>
			</trkpt>
			<trkpt lat="-27.504348" lon="153.039129">
				<ele>7</ele>
				<time>2015-05-07T08:27:26Z</time>
				<extensions>
				</extensions>
			</trkpt>
			<trkpt lat="-27.504101" lon="153.039176">
				<ele>8</ele>
				<time>2015-05-07T08:27:27Z</time>
				<extensions>
				</extensions>
			</trkpt>
			<trkpt lat="-27.503859" lon="153.039213">
				<ele>8</ele>
				<time>2015-05-07T08:27:28Z</time>
				<extensions>
				</extensions>
			</trkpt>
			<trkpt lat="-27.503620" lon="153.039256">
				<ele>6</ele>
				<time>2015-05-07T08:27:29Z</time>
				<extensions>
				</extensions>
			</trkpt>
			<trkpt lat="-27.503381" lon="153.039294">
				<ele>7</ele>
				<time>2015-05-07T08:27:30Z</time>
				<extensions>
				</extensions>
			</trkpt>
			<trkpt lat="-27.503148" lon="153.039337">
				<ele>8</ele>
				<time>2015-05-07T08:27:31Z</time>
				<extensions>
				</extensions>
			</trkpt>
			<trkpt lat="-27.502917" lon="153.039376">
				<ele>7</ele>
				<time>2015-05-07T08:27:32Z</time>
				<extensions>
				</extensions>
			</trkpt>
			<trkpt lat="-27.502689" lon="153.039416">
				<ele>6</ele>
				<time>2015-05-07T08:27:33Z</time>
				<extensions>
				</extensions>
			</trkpt>
			<trkpt lat="-27.502462" lon="153.039459">
				<ele>4</ele>
				<time>2015-05-07T08:27:34Z</time>
				<extensions>
				</extensions>
			</trkpt>
			<trkpt lat="-27.502232" lon="153.039496">
				<ele>4</ele>
				<time>2015-05-07T08:27:35Z</time>
				<extensions>
				</extensions>
			</trkpt>
			<trkpt lat="-27.502009" lon="153.039531">
				<ele>4</ele>
				<time>2015-05-07T08:27:36Z</time>
				<extensions>
				</extensions>
			</trkpt>
			<trkpt lat="-27.501807" lon="153.039584">
				<ele>5</ele>
				<time>2015-05-07T08:27:37Z</time>
				<extensions>
				</extensions>
			</trkpt>
			<trkpt lat="-27.501578" lon="153.039626">
				<ele>8</ele>
				<time>2015-05-07T08:27:38Z</time>
				<extensions>
				</extensions>
			</trkpt>
			<trkpt lat="-27.501368" lon="153.039678">
				<ele>6</ele>
				<time>2015-05-07T08:27:39Z</time>
				<extensions>
				</extensions>
			</trkpt>
			<trkpt lat="-27.501141" lon="153.039721">
				<ele>7</ele>
				<time>2015-05-07T08:27:40Z</time>
				<extensions>
				</extensions>
			</trkpt>
			<trkpt lat="-27.500904" lon="153.039749">
				<ele>7</ele>
				<time>2015-05-07T08:27:41Z</time>
				<extensions>
				</extensions>
			</trkpt>
			<trkpt lat="-27.500682" lon="153.039768">
				<ele>6</ele>
				<time>2015-05-07T08:27:42Z</time>
				<extensions>
				</extensions>
			</trkpt>
			<trkpt lat="-27.500472" lon="153.039782">
				<ele>4</ele>
				<time>2015-05-07T08:27:43Z</time>
				<extensions>
				</extensions>
			</trkpt>
			<trkpt lat="-27.500256" lon="153.039789">
				<ele>3</ele>
				<time>2015-05-07T08:27:44Z</time>
				<extensions>
				</extensions>
			</trkpt>
			<trkpt lat="-27.500025" lon="153.039781">
				<ele>4</ele>
				<time>2015-05-07T08:27:45Z</time>
				<extensions>
				</extensions>
			</trkpt>
			<trkpt lat="-27.499805" lon="153.039764">
				<ele>3</ele>
				<time>2015-05-07T08:27:46Z</time>
				<extensions>
				</extensions>
			</trkpt>
			<trkpt lat="-27.499585" lon="153.039739">
				<ele>6</ele>
				<time>2015-05-07T08:27:47Z</time>
				<extensions>
				</extensions>
			</trkpt>
			<trkpt lat="-27.499364" lon="153.039712">
				<ele>7</ele>
				<time>2015-05-07T08:27:48Z</time>
				<extensions>
				</extensions>
			</trkpt>
			<trkpt lat="-27.499146" lon="153.039671">
				<ele>6</ele>
				<time>2015-05-07T08:27:49Z</time>
				<extensions>
				</extensions>
			</trkpt>
			<trkpt lat="-27.498929" lon="153.039625">
				<ele>6</ele>
				<time>2015-05-07T08:27:50Z</time>
				<extensions>
				</extensions>
			</trkpt>
			<trkpt lat="-27.498721" lon="153.039566">
				<ele>7</ele>
				<time>2015-05-07T08:27:51Z</time>
				<extensions>
				</extensions>
			</trkpt>
			<trkpt lat="-27.498523" lon="153.039492">
				<ele>7</ele>
				<time>2015-05-07T08:27:52Z</time>
				<extensions>
				</extensions>
			</trkpt>
			<trkpt lat="-27.498330" lon="153.039413">
				<ele>7</ele>
				<time>2015-05-07T08:27:53Z</time>
				<extensions>
				</extensions>
			</trkpt>
			<trkpt lat="-27.498136" lon="153.039325">
				<ele>7</ele>
				<time>2015-05-07T08:27:54Z</time>
				<extensions>
				</extensions>
			</trkpt>
			<trkpt lat="-27.497956" lon="153.039232">
				<ele>9</ele>
				<time>2015-05-07T08:27:55Z</time>
				<extensions>
				</extensions>
			</trkpt>
			<trkpt lat="-27.497746" lon="153.039131">
				<ele>9</ele>
				<time>2015-05-07T08:27:56Z</time>
				<extensions>
				</extensions>
			</trkpt>
			<trkpt lat="-27.497423" lon="153.038934">
				<ele>11</ele>
				<time>2015-05-07T08:27:58Z</time>
				<extensions>
				</extensions>
			</trkpt>
			<trkpt lat="-27.497236" lon="153.038802">
				<ele>13</ele>
				<time>2015-05-07T08:27:59Z</time>
				<extensions>
				</extensions>
			</trkpt>
			<trkpt lat="-27.496925" lon="153.038589">
				<ele>13</ele>
				<time>2015-05-07T08:28:01Z</time>
				<extensions>
				</extensions>
			</trkpt>
			<trkpt lat="-27.496770" lon="153.038478">
				<ele>12</ele>
				<time>2015-05-07T08:28:02Z</time>
				<extensions>
				</extensions>
			</trkpt>
			<trkpt lat="-27.496618" lon="153.038362">
				<ele>12</ele>
				<time>2015-05-07T08:28:03Z</time>
				<extensions>
				</extensions>
			</trkpt>
			<trkpt lat="-27.496447" lon="153.038243">
				<ele>11</ele>
				<time>2015-05-07T08:28:04Z</time>
				<extensions>
				</extensions>
			</trkpt>
			<trkpt lat="-27.496184" lon="153.038059">
				<ele>10</ele>
				<time>2015-05-07T08:28:06Z</time>
				<extensions>
				</extensions>
			</trkpt>
			<trkpt lat="-27.496016" lon="153.037935">
				<ele>10</ele>
				<time>2015-05-07T08:28:07Z</time>
				<extensions>
				</extensions>
			</trkpt>
			<trkpt lat="-27.495856" lon="153.037813">
				<ele>10</ele>
				<time>2015-05-07T08:28:08Z</time>
				<extensions>
				</extensions>
			</trkpt>
			<trkpt lat="-27.495547" lon="153.037569">
				<ele>9</ele>
				<time>2015-05-07T08:28:10Z</time>
				<extensions>
				</extensions>
			</trkpt>
			<trkpt lat="-27.495372" lon="153.037437">
				<ele>9</ele>
				<time>2015-05-07T08:28:11Z</time>
				<extensions>
				</extensions>
			</trkpt>
			<trkpt lat="-27.495200" lon="153.037310">
				<ele>8</ele>
				<time>2015-05-07T08:28:12Z</time>
				<extensions>
				</extensions>
			</trkpt>
			<trkpt lat="-27.495038" lon="153.037190">
				<ele>7</ele>
				<time>2015-05-07T08:28:13Z</time>
				<extensions>
				</extensions>
			</trkpt>
			<trkpt lat="-27.494874" lon="153.037069">
				<ele>7</ele>
				<time>2015-05-07T08:28:14Z</time>
				<extensions>
				</extensions>
			</trkpt>
			<trkpt lat="-27.494713" lon="153.036947">
				<ele>7</ele>
				<time>2015-05-07T08:28:15Z</time>
				<extensions>
				</extensions>
			</trkpt>
			<trkpt lat="-27.494549" lon="153.036803">
				<ele>6</ele>
				<time>2015-05-07T08:28:16Z</time>
				<extensions>
				</extensions>
			</trkpt>
			<trkpt lat="-27.494374" lon="153.036645">
				<ele>6</ele>
				<time>2015-05-07T08:28:17Z</time>
				<extensions>
				</extensions>
			</trkpt>
			<trkpt lat="-27.494204" lon="153.036481">
				<ele>5</ele>
				<time>2015-05-07T08:28:18Z</time>
				<extensions>
				</extensions>
			</trkpt>
			<trkpt lat="-27.494047" lon="153.036325">
				<ele>3</ele>
				<time>2015-05-07T08:28:19Z</time>
				<extensions>
				</extensions>
			</trkpt>
			<trkpt lat="-27.493899" lon="153.036172">
				<ele>3</ele>
				<time>2015-05-07T08:28:20Z</time>
				<extensions>
				</extensions>
			</trkpt>
			<trkpt lat="-27.493758" lon="153.036003">
				<ele>2</ele>
				<time>2015-05-07T08:28:21Z</time>
				<extensions>
				</extensions>
			</trkpt>
			<trkpt lat="-27.493615" lon="153.035836">
				<ele>3</ele>
				<time>2015-05-07T08:28:22Z</time>
				<extensions>
				</extensions>
			</trkpt>
			<trkpt lat="-27.493500" lon="153.035680">
				<ele>3</ele>
				<time>2015-05-07T08:28:23Z</time>
				<extensions>
				</extensions>
			</trkpt>
			<trkpt lat="-27.493382" lon="153.035520">
				<ele>1</ele>
				<time>2015-05-07T08:28:24Z</time>
				<extensions>
				</extensions>
			</trkpt>
			<trkpt lat="-27.493167" lon="153.035216">
				<ele>1</ele>
				<time>2015-05-07T08:28:26Z</time>
				<extensions>
				</extensions>
			</trkpt>
			<trkpt lat="-27.493053" lon="153.035047">
				<ele>2</ele>
				<time>2015-05-07T08:28:27Z</time>
				<extensions>
				</extensions>
			</trkpt>
			<trkpt lat="-27.492947" lon="153.034871">
				<ele>1</ele>
				<time>2015-05-07T08:28:28Z</time>
				<extensions>
				</extensions>
			</trkpt>
			<trkpt lat="-27.492832" lon="153.034709">
				<ele>1</ele>
				<time>2015-05-07T08:28:29Z</time>
				<extensions>
				</extensions>
			</trkpt>
			<trkpt lat="-27.492716" lon="153.034544">
				<ele>0</ele>
				<time>2015-05-07T08:28:30Z</time>
				<extensions>
				</extensions>
			</trkpt>
			<trkpt lat="-27.492496" lon="153.034239">
				<ele>-1</ele>
				<time>2015-05-07T08:28:32Z</time>
				<extensions>
				</extensions>
			</trkpt>
			<trkpt lat="-27.492368" lon="153.034081">
				<ele>-1</ele>
				<time>2015-05-07T08:28:33Z</time>
				<extensions>
				</extensions>
			</trkpt>
			<trkpt lat="-27.492235" lon="153.033942">
				<ele>-1</ele>
				<time>2015-05-07T08:28:34Z</time>
				<extensions>
				</extensions>
			</trkpt>
			<trkpt lat="-27.492097" lon="153.033803">
				<ele>-1</ele>
				<time>2015-05-07T08:28:35Z</time>
				<extensions>
				</extensions>
			</trkpt>
			<trkpt lat="-27.491950" lon="153.033680">
				<ele>1</ele>
				<time>2015-05-07T08:28:36Z</time>
				<extensions>
				</extensions>
			</trkpt>
			<trkpt lat="-27.491791" lon="153.033571">
				<ele>1</ele>
				<time>2015-05-07T08:28:37Z</time>
				<extensions>
				</extensions>
			</trkpt>
			<trkpt lat="-27.491623" lon="153.033474">
				<ele>-0</ele>
				<time>2015-05-07T08:28:38Z</time>
				<extensions>
				</extensions>
			</trkpt>
			<trkpt lat="-27.491456" lon="153.033390">
				<ele>-0</ele>
				<time>2015-05-07T08:28:39Z</time>
				<extensions>
				</extensions>
			</trkpt>
			<trkpt lat="-27.491139" lon="153.033282">
				<ele>-3</ele>
				<time>2015-05-07T08:28:41Z</time>
				<extensions>
				</extensions>
			</trkpt>
			<trkpt lat="-27.490792" lon="153.033217">
				<ele>-4</ele>
				<time>2015-05-07T08:28:43Z</time>
				<extensions>
				</extensions>
			</trkpt>
			<trkpt lat="-27.490447" lon="153.033222">
				<ele>-5</ele>
				<time>2015-05-07T08:28:45Z</time>
				<extensions>
				</extensions>
			</trkpt>
			<trkpt lat="-27.489941" lon="153.033236">
				<ele>-8</ele>
				<time>2015-05-07T08:28:48Z</time>
				<extensions>
				</extensions>
			</trkpt>
			<trkpt lat="-27.447291" lon="153.032603">
				<ele>-9</ele>
				<time>2015-05-07T08:32:22Z</time>
				<extensions>
				</extensions>
			</trkpt>
			<trkpt lat="-27.447101" lon="153.032659">
				<ele>-8</ele>
				<time>2015-05-07T08:32:23Z</time>
				<extensions>
				</extensions>
			</trkpt>
			<trkpt lat="-27.446901" lon="153.032707">
				<ele>-8</ele>
				<time>2015-05-07T08:32:24Z</time>
				<extensions>
				</extensions>
			</trkpt>
			<trkpt lat="-27.446699" lon="153.032712">
				<ele>-6</ele>
				<time>2015-05-07T08:32:25Z</time>
				<extensions>
				</extensions>
			</trkpt>
			<trkpt lat="-27.446502" lon="153.032725">
				<ele>-7</ele>
				<time>2015-05-07T08:32:26Z</time>
				<extensions>
				</extensions>
			</trkpt>
			<trkpt lat="-27.446319" lon="153.032720">
				<ele>-6</ele>
				<time>2015-05-07T08:32:27Z</time>
				<extensions>
				</extensions>
			</trkpt>
			<trkpt lat="-27.445986" lon="153.032648">
				<ele>-6</ele>
				<time>2015-05-07T08:32:29Z</time>
				<extensions>
				</extensions>
			</trkpt>
			<trkpt lat="-27.445794" lon="153.032603">
				<ele>-5</ele>
				<time>2015-05-07T08:32:30Z</time>
				<extensions>
				</extensions>
			</trkpt>
			<trkpt lat="-27.445608" lon="153.032536">
				<ele>-7</ele>
				<time>2015-05-07T08:32:31Z</time>
				<extensions>
				</extensions>
			</trkpt>
			<trkpt lat="-27.445431" lon="153.032463">
				<ele>-7</ele>
				<time>2015-05-07T08:32:32Z</time>
				<extensions>
				</extensions>
			</trkpt>
			<trkpt lat="-27.445254" lon="153.032372">
				<ele>-6</ele>
				<time>2015-05-07T08:32:33Z</time>
				<extensions>
				</extensions>
			</trkpt>
			<trkpt lat="-27.445078" lon="153.032302">
				<ele>-5</ele>
				<time>2015-05-07T08:32:34Z</time>
				<extensions>
				</extensions>
			</trkpt>
			<trkpt lat="-27.444897" lon="153.032229">
				<ele>-4</ele>
				<time>2015-05-07T08:32:35Z</time>
				<extensions>
				</extensions>
			</trkpt>
			<trkpt lat="-27.444715" lon="153.032157">
				<ele>-4</ele>
				<time>2015-05-07T08:32:36Z</time>
				<extensions>
				</extensions>
			</trkpt>
			<trkpt lat="-27.444542" lon="153.032093">
				<ele>-4</ele>
				<time>2015-05-07T08:32:37Z</time>
				<extensions>
				</extensions>
			</trkpt>
			<trkpt lat="-27.444361" lon="153.032018">
				<ele>-4</ele>
				<time>2015-05-07T08:32:38Z</time>
				<extensions>
				</extensions>
			</trkpt>
			<trkpt lat="-27.444171" lon="153.031948">
				<ele>-4</ele>
				<time>2015-05-07T08:32:39Z</time>
				<extensions>
				</extensions>
			</trkpt>
			<trkpt lat="-27.443990" lon="153.031884">
				<ele>-5</ele>
				<time>2015-05-07T08:32:40Z</time>
				<extensions>
				</extensions>
			</trkpt>
			<trkpt lat="-27.443800" lon="153.031821">
				<ele>-4</ele>
				<time>2015-05-07T08:32:41Z</time>
				<extensions>
				</extensions>
			</trkpt>
			<trkpt lat="-27.443607" lon="153.031768">
				<ele>-4</ele>
				<time>2015-05-07T08:32:42Z</time>
				<extensions>
				</extensions>
			</trkpt>
			<trkpt lat="-27.443405" lon="153.031733">
				<ele>-4</ele>
				<time>2015-05-07T08:32:43Z</time>
				<extensions>
				</extensions>
			</trkpt>
			<trkpt lat="-27.443207" lon="153.031700">
				<ele>-3</ele>
				<time>2015-05-07T08:32:44Z</time>
				<extensions>
				</extensions>
			</trkpt>
			<trkpt lat="-27.443000" lon="153.031680">
				<ele>-3</ele>
				<time>2015-05-07T08:32:45Z</time>
				<extensions>
				</extensions>
			</trkpt>
			<trkpt lat="-27.442788" lon="153.031669">
				<ele>-3</ele>
				<time>2015-05-07T08:32:46Z</time>
				<extensions>
				</extensions>
			</trkpt>
			<trkpt lat="-27.442591" lon="153.031670">
				<ele>-4</ele>
				<time>2015-05-07T08:32:47Z</time>
				<extensions>
				</extensions>
			</trkpt>
			<trkpt lat="-27.442393" lon="153.031680">
				<ele>-4</ele>
				<time>2015-05-07T08:32:48Z</time>
				<extensions>
				</extensions>
			</trkpt>
			<trkpt lat="-27.442203" lon="153.031690">
				<ele>-5</ele>
				<time>2015-05-07T08:32:49Z</time>
				<extensions>
				</extensions>
			</trkpt>
			<trkpt lat="-27.442000" lon="153.031694">
				<ele>-5</ele>
				<time>2015-05-07T08:32:50Z</time>
				<extensions>
				</extensions>
			</trkpt>
			<trkpt lat="-27.441799" lon="153.031685">
				<ele>-7</ele>
				<time>2015-05-07T08:32:51Z</time>
				<extensions>
				</extensions>
			</trkpt>
			<trkpt lat="-27.441597" lon="153.031678">
				<ele>-9</ele>
				<time>2015-05-07T08:32:52Z</time>
				<extensions>
				</extensions>
			</trkpt>
			<trkpt lat="-27.441397" lon="153.031664">
				<ele>-11</ele>
				<time>2015-05-07T08:32:53Z</time>
				<extensions>
				</extensions>
			</trkpt>
			<trkpt lat="-27.416585" lon="153.036155">
				<ele>-2</ele>
				<time>2015-05-07T08:35:05Z</time>
				<extensions>
				</extensions>
			</trkpt>
			<trkpt lat="-27.416368" lon="153.036270">
				<ele>-1</ele>
				<time>2015-05-07T08:35:06Z</time>
				<extensions>
				</extensions>
			</trkpt>
			<trkpt lat="-27.416070" lon="153.036264">
				<ele>-0</ele>
				<time>2015-05-07T08:35:08Z</time>
				<extensions>
				</extensions>
			</trkpt>
			<trkpt lat="-27.415776" lon="153.036230">
				<ele>-1</ele>
				<time>2015-05-07T08:35:10Z</time>
				<extensions>
				</extensions>
			</trkpt>
			<trkpt lat="-27.415490" lon="153.036152">
				<ele>-0</ele>
				<time>2015-05-07T08:35:12Z</time>
				<extensions>
				</extensions>
			</trkpt>
			<trkpt lat="-27.415223" lon="153.036034">
				<ele>-2</ele>
				<time>2015-05-07T08:35:14Z</time>
				<extensions>
				</extensions>
			</trkpt>
			<trkpt lat="-27.414943" lon="153.035872">
				<ele>-2</ele>
				<time>2015-05-07T08:35:16Z</time>
				<extensions>
				</extensions>
			</trkpt>
			<trkpt lat="-27.414670" lon="153.035680">
				<ele>-4</ele>
				<time>2015-05-07T08:35:18Z</time>
				<extensions>
				</extensions>
			</trkpt>
			<trkpt lat="-27.414401" lon="153.035470">
				<ele>-5</ele>
				<time>2015-05-07T08:35:20Z</time>
				<extensions>
				</extensions>
			</trkpt>
			<trkpt lat="-27.414140" lon="153.035243">
				<ele>-4</ele>
				<time>2015-05-07T08:35:22Z</time>
				<extensions>
				</extensions>
			</trkpt>
			<trkpt lat="-27.413908" lon="153.035012">
				<ele>-3</ele>
				<time>2015-05-07T08:35:24Z</time>
				<extensions>
				</extensions>
			</trkpt>
			<trkpt lat="-27.413684" lon="153.034772">
				<ele>-1</ele>
				<time>2015-05-07T08:35:26Z</time>
				<extensions>
				</extensions>
			</trkpt>
			<trkpt lat="-27.413453" lon="153.034527">
				<ele>2</ele>
				<time>2015-05-07T08:35:28Z</time>
				<extensions>
				</extensions>
			</trkpt>
			<trkpt lat="-27.413228" lon="153.034287">
				<ele>5</ele>
				<time>2015-05-07T08:35:30Z</time>
				<extensions>
				</extensions>
			</trkpt>
			<trkpt lat="-27.413007" lon="153.034043">
				<ele>8</ele>
				<time>2015-05-07T08:35:32Z</time>
				<extensions>
				</extensions>
			</trkpt>
			<trkpt lat="-27.412828" lon="153.033791">
				<ele>10</ele>
				<time>2015-05-07T08:35:34Z</time>
				<extensions>
				</extensions>
			</trkpt>
			<trkpt lat="-27.412666" lon="153.033516">
				<ele>12</ele>
				<time>2015-05-07T08:35:36Z</time>
				<extensions>
				</extensions>
			</trkpt>
			<trkpt lat="-27.412537" lon="153.033208">
				<ele>13</ele>
				<time>2015-05-07T08:35:38Z</time>
				<extensions>
				</extensions>
			</trkpt>
			<trkpt lat="-27.412460" lon="153.032867">
				<ele>11</ele>
				<time>2015-05-07T08:35:40Z</time>
				<extensions>
				</extensions>
			</trkpt>
			<trkpt lat="-27.412441" lon="153.032553">
				<ele>10</ele>
				<time>2015-05-07T08:35:42Z</time>
				<extensions>
				</extensions>
			</trkpt>
			<trkpt lat="-27.412408" lon="153.032204">
				<ele>7</ele>
				<time>2015-05-07T08:35:44Z</time>
				<extensions>
				</extensions>
			</trkpt>
			<trkpt lat="-27.412377" lon="153.031868">
				<ele>5</ele>
				<time>2015-05-07T08:35:46Z</time>
				<extensions>
				</extensions>
			</trkpt>
			<trkpt lat="-27.412353" lon="153.031521">
				<ele>3</ele>
				<time>2015-05-07T08:35:48Z</time>
				<extensions>
				</extensions>
			</trkpt>
			<trkpt lat="-27.412339" lon="153.031163">
				<ele>2</ele>
				<time>2015-05-07T08:35:50Z</time>
				<extensions>
				</extensions>
			</trkpt>
			<trkpt lat="-27.412324" lon="153.030833">
				<ele>2</ele>
				<time>2015-05-07T08:35:52Z</time>
				<extensions>
				</extensions>
			</trkpt>
			<trkpt lat="-27.412293" lon="153.030505">
				<ele>3</ele>
				<time>2015-05-07T08:35:54Z</time>
				<extensions>
				</extensions>
			</trkpt>
			<trkpt lat="-27.412258" lon="153.030166">
				<ele>6</ele>
				<time>2015-05-07T08:35:56Z</time>
				<extensions>
				</extensions>
			</trkpt>
			<trkpt lat="-27.412225" lon="153.029846">
				<ele>8</ele>
				<time>2015-05-07T08:35:58Z</time>
				<extensions>
				</extensions>
			</trkpt>
			<trkpt lat="-27.412177" lon="153.029524">
				<ele>8</ele>
				<time>2015-05-07T08:36:00Z</time>
				<extensions>
				</extensions>
			</trkpt>
			<trkpt lat="-27.412132" lon="153.029182">
				<ele>12</ele>
				<time>2015-05-07T08:36:02Z</time>
				<extensions>
				</extensions>
			</trkpt>
			<trkpt lat="-27.412089" lon="153.028867">
				<ele>11</ele>
				<time>2015-05-07T08:36:04Z</time>
				<extensions>
				</extensions>
			</trkpt>
			<trkpt lat="-27.412059" lon="153.028598">
				<ele>12</ele>
				<time>2015-05-07T08:36:06Z</time>
				<extensions>
				</extensions>
			</trkpt>
			<trkpt lat="-27.412011" lon="153.028262">
				<ele>12</ele>
				<time>2015-05-07T08:36:09Z</time>
				<extensions>
				</extensions>
			</trkpt>
			<trkpt lat="-27.411975" lon="153.028005">
				<ele>12</ele>
				<time>2015-05-07T08:36:12Z</time>
				<extensions>
				</extensions>
			</trkpt>
			<trkpt lat="-27.411954" lon="153.027792">
				<ele>13</ele>
				<time>2015-05-07T08:36:17Z</time>
				<extensions>
				</extensions>
			</trkpt>
			<trkpt lat="-27.411908" lon="153.027549">
				<ele>17</ele>
				<time>2015-05-07T08:36:40Z</time>
				<extensions>
				</extensions>
			</trkpt>
			<trkpt lat="-27.411858" lon="153.027257">
				<ele>20</ele>
				<time>2015-05-07T08:36:43Z</time>
				<extensions>
				</extensions>
			</trkpt>
			<trkpt lat="-27.411828" lon="153.027031">
				<ele>20</ele>
				<time>2015-05-07T08:36:45Z</time>
				<extensions>
				</extensions>
			</trkpt>
			<trkpt lat="-27.411794" lon="153.026798">
				<ele>21</ele>
				<time>2015-05-07T08:36:47Z</time>
				<extensions>
				</extensions>
			</trkpt>
			<trkpt lat="-27.411756" lon="153.026597">
				<ele>20</ele>
				<time>2015-05-07T08:36:49Z</time>
				<extensions>
				</extensions>
			</trkpt>
			<trkpt lat="-27.411722" lon="153.026398">
				<ele>21</ele>
				<time>2015-05-07T08:36:51Z</time>
				<extensions>
				</extensions>
			</trkpt>
			<trkpt lat="-27.411679" lon="153.026099">
				<ele>20</ele>
				<time>2015-05-07T08:36:54Z</time>
				<extensions>
				</extensions>
			</trkpt>
			<trkpt lat="-27.411633" lon="153.025781">
				<ele>22</ele>
				<time>2015-05-07T08:36:56Z</time>
				<extensions>
				</extensions>
			</trkpt>
			<trkpt lat="-27.411587" lon="153.025444">
				<ele>24</ele>
				<time>2015-05-07T08:36:58Z</time>
				<extensions>
				</extensions>
			</trkpt>
			<trkpt lat="-27.411549" lon="153.025086">
				<ele>23</ele>
				<time>2015-05-07T08:37:00Z</time>
				<extensions>
				</extensions>
			</trkpt>
			<trkpt lat="-27.411511" lon="153.024749">
				<ele>20</ele>
				<time>2015-05-07T08:37:02Z</time>
				<extensions>
				</extensions>
			</trkpt>
			<trkpt lat="-27.411471" lon="153.024429">
				<ele>19</ele>
				<time>2015-05-07T08:37:04Z</time>
				<extensions>
				</extensions>
			</trkpt>
			<trkpt lat="-27.411425" lon="153.024103">
				<ele>18</ele>
				<time>2015-05-07T08:37:06Z</time>
				<extensions>
				</extensions>
			</trkpt>
			<trkpt lat="-27.411382" lon="153.023767">
				<ele>17</ele>
				<time>2015-05-07T08:37:08Z</time>
				<extensions>
				</extensions>
			</trkpt>
			<trkpt lat="-27.411339" lon="153.023433">
				<ele>16</ele>
				<time>2015-05-07T08:37:10Z</time>
				<extensions>
				</extensions>
			</trkpt>
			<trkpt lat="-27.411294" lon="153.023093">
				<ele>16</ele>
				<time>2015-05-07T08:37:12Z</time>
				<extensions>
				</extensions>
			</trkpt>
			<trkpt lat="-27.411253" lon="153.022747">
				<ele>16</ele>
				<time>2015-05-07T08:37:14Z</time>
				<extensions>
				</extensions>
			</trkpt>
			<trkpt lat="-27.411207" lon="153.022409">
				<ele>15</ele>
				<time>2015-05-07T08:37:16Z</time>
				<extensions>
				</extensions>
			</trkpt>
			<trkpt lat="-27.411164" lon="153.022072">
				<ele>14</ele>
				<time>2015-05-07T08:37:18Z</time>
				<extensions>
				</extensions>
			</trkpt>
			<trkpt lat="-27.411126" lon="153.021744">
				<ele>13</ele>
				<time>2015-05-07T08:37:20Z</time>
				<extensions>
				</extensions>
			</trkpt>
			<trkpt lat="-27.411090" lon="153.021419">
				<ele>12</ele>
				<time>2015-05-07T08:37:22Z</time>
				<extensions>
				</extensions>
			</trkpt>
			<trkpt lat="-27.411058" lon="153.021066">
				<ele>11</ele>
				<time>2015-05-07T08:37:24Z</time>
				<extensions>
				</extensions>
			</trkpt>
			<trkpt lat="-27.411009" lon="153.020717">
				<ele>11</ele>
				<time>2015-05-07T08:37:26Z</time>
				<extensions>
				</extensions>
			</trkpt>
			<trkpt lat="-27.410961" lon="153.020369">
				<ele>11</ele>
				<time>2015-05-07T08:37:28Z</time>
				<extensions>
				</extensions>
			</trkpt>
			<trkpt lat="-27.410908" lon="153.020012">
				<ele>12</ele>
				<time>2015-05-07T08:37:30Z</time>
				<extensions>
				</extensions>
			</trkpt>
			<trkpt lat="-27.410859" lon="153.019675">
				<ele>12</ele>
				<time>2015-05-07T08:37:32Z</time>
				<extensions>
				</extensions>
			</trkpt>
			<trkpt lat="-27.410813" lon="153.019377">
				<ele>11</ele>
				<time>2015-05-07T08:37:34Z</time>
				<extensions>
				</extensions>
			</trkpt>
			<trkpt lat="-27.410778" lon="153.019111">
				<ele>11</ele>
				<time>2015-05-07T08:37:36Z</time>
				<extensions>
				</extensions>
			</trkpt>
			<trkpt lat="-27.410744" lon="153.018870">
				<ele>10</ele>
				<time>2015-05-07T08:37:38Z</time>
				<extensions>
				</extensions>
			</trkpt>
			<trkpt lat="-27.410725" lon="153.018643">
				<ele>9</ele>
				<time>2015-05-07T08:37:40Z</time>
				<extensions>
				</extensions>
			</trkpt>
			<trkpt lat="-27.410704" lon="153.018432">
				<ele>8</ele>
				<time>2015-05-07T08:37:42Z</time>
				<extensions>
				</extensions>
			</trkpt>
			<trkpt lat="-27.410683" lon="153.018228">
				<ele>7</ele>
				<time>2015-05-07T08:37:44Z</time>
				<extensions>
				</extensions>
			</trkpt>
			<trkpt lat="-27.410648" lon="153.017941">
				<ele>6</ele>
				<time>2015-05-07T08:37:47Z</time>
				<extensions>
				</extensions>
			</trkpt>
			<trkpt lat="-27.410614" lon="153.017703">
				<ele>3</ele>
				<time>2015-05-07T08:37:51Z</time>
				<extensions>
				</extensions>
			</trkpt>
			<trkpt lat="-27.410585" lon="153.017501">
				<ele>4</ele>
				<time>2015-05-07T08:37:57Z</time>
				<extensions>
				</extensions>
			</trkpt>
			<trkpt lat="-27.410544" lon="153.017232">
				<ele>7</ele>
				<time>2015-05-07T08:38:00Z</time>
				<extensions>
				</extensions>
			</trkpt>
			<trkpt lat="-27.410505" lon="153.016948">
				<ele>8</ele>
				<time>2015-05-07T08:38:03Z</time>
				<extensions>
				</extensions>
			</trkpt>
			<trkpt lat="-27.410476" lon="153.016712">
				<ele>9</ele>
				<time>2015-05-07T08:38:05Z</time>
				<extensions>
				</extensions>
			</trkpt>
			<trkpt lat="-27.410445" lon="153.016447">
				<ele>9</ele>
				<time>2015-05-07T08:38:07Z</time>
				<extensions>
				</extensions>
			</trkpt>
			<trkpt lat="-27.410414" lon="153.016185">
				<ele>8</ele>
				<time>2015-05-07T08:38:09Z</time>
				<extensions>
				</extensions>
			</trkpt>
			<trkpt lat="-27.410379" lon="153.015923">
				<ele>8</ele>
				<time>2015-05-07T08:38:11Z</time>
				<extensions>
				</extensions>
			</trkpt>
			<trkpt lat="-27.410339" lon="153.015649">
				<ele>8</ele>
				<time>2015-05-07T08:38:13Z</time>
				<extensions>
				</extensions>
			</trkpt>
			<trkpt lat="-27.410297" lon="153.015368">
				<ele>7</ele>
				<time>2015-05-07T08:38:15Z</time>
				<extensions>
				</extensions>
			</trkpt>
			<trkpt lat="-27.410254" lon="153.015094">
				<ele>7</ele>
				<time>2015-05-07T08:38:17Z</time>
				<extensions>
				</extensions>
			</trkpt>
			<trkpt lat="-27.410216" lon="153.014829">
				<ele>6</ele>
				<time>2015-05-07T08:38:19Z</time>
				<extensions>
				</extensions>
			</trkpt>
			<trkpt lat="-27.410181" lon="153.014580">
				<ele>6</ele>
				<time>2015-05-07T08:38:21Z</time>
				<extensions>
				</extensions>
			</trkpt>
			<trkpt lat="-27.410149" lon="153.014320">
				<ele>6</ele>
				<time>2015-05-07T08:38:23Z</time>
				<extensions>
				</extensions>
			</trkpt>
			<trkpt lat="-27.410128" lon="153.014052">
				<ele>7</ele>
				<time>2015-05-07T08:38:25Z</time>
				<extensions>
				</extensions>
			</trkpt>
			<trkpt lat="-27.410098" lon="153.013766">
				<ele>8</ele>
				<time>2015-05-07T08:38:27Z</time>
				<extensions>
				</extensions>
			</trkpt>
			<trkpt lat="-27.410066" lon="153.013478">
				<ele>8</ele>
				<time>2015-05-07T08:38:29Z</time>
				<extensions>
				</extensions>
			</trkpt>
			<trkpt lat="-27.410029" lon="153.013175">
				<ele>7</ele>
				<time>2015-05-07T08:38:31Z</time>
				<extensions>
				</extensions>
			</trkpt>
			<trkpt lat="-27.409987" lon="153.012876">
				<ele>7</ele>
				<time>2015-05-07T08:38:33Z</time>
				<extensions>
				</extensions>
			</trkpt>
			<trkpt lat="-27.409941" lon="153.012584">
				<ele>6</ele>
				<time>2015-05-07T08:38:35Z</time>
				<extensions>
				</extensions>
			</trkpt>
			<trkpt lat="-27.409893" lon="153.012297">
				<ele>7</ele>
				<time>2015-05-07T08:38:37Z</time>
				<extensions>
				</extensions>
			</trkpt>
			<trkpt lat="-27.409845" lon="153.012019">
				<ele>6</ele>
				<time>2015-05-07T08:38:39Z</time>
				<extensions>
				</extensions>
			</trkpt>
			<trkpt lat="-27.409804" lon="153.011734">
				<ele>6</ele>
				<time>2015-05-07T08:38:41Z</time>
				<extensions>
				</extensions>
			</trkpt>
			<trkpt lat="-27.409761" lon="153.011423">
				<ele>6</ele>
				<time>2015-05-07T08:38:43Z</time>
				<extensions>
				</extensions>
			</trkpt>
			<trkpt lat="-27.409717" lon="153.011094">
				<ele>7</ele>
				<time>2015-05-07T08:38:45Z</time>
				<extensions>
				</extensions>
			</trkpt>
			<trkpt lat="-27.409674" lon="153.010759">
				<ele>7</ele>
				<time>2015-05-07T08:38:47Z</time>
				<extensions>
				</extensions>
			</trkpt>
			<trkpt lat="-27.409629" lon="153.010443">
				<ele>7</ele>
				<time>2015-05-07T08:38:49Z</time>
				<extensions>
				</extensions>
			</trkpt>
			<trkpt lat="-27.409584" lon="153.010124">
				<ele>7</ele>
				<time>2015-05-07T08:38:51Z</time>
				<extensions>
				</extensions>
			</trkpt>
			<trkpt lat="-27.409541" lon="153.009823">
				<ele>7</ele>
				<time>2015-05-07T08:38:53Z</time>
				<extensions>
				</extensions>
			</trkpt>
			<trkpt lat="-27.409498" lon="153.009522">
				<ele>7</ele>
				<time>2015-05-07T08:38:55Z</time>
				<extensions>
				</extensions>
			</trkpt>
			<trkpt lat="-27.409447" lon="153.009217">
				<ele>7</ele>
				<time>2015-05-07T08:38:57Z</time>
				<extensions>
				</extensions>
			</trkpt>
			<trkpt lat="-27.409411" lon="153.008926">
				<ele>6</ele>
				<time>2015-05-07T08:38:59Z</time>
				<extensions>
				</extensions>
			</trkpt>
			<trkpt lat="-27.409374" lon="153.008640">
				<ele>7</ele>
				<time>2015-05-07T08:39:01Z</time>
				<extensions>
				</extensions>
			</trkpt>
			<trkpt lat="-27.409339" lon="153.008375">
				<ele>6</ele>
				<time>2015-05-07T08:39:03Z</time>
				<extensions>
				</extensions>
			</trkpt>
			<trkpt lat="-27.409312" lon="153.008174">
				<ele>5</ele>
				<time>2015-05-07T08:39:05Z</time>
				<extensions>
				</extensions>
			</trkpt>
			<trkpt lat="-27.409285" lon="153.007973">
				<ele>4</ele>
				<time>2015-05-07T08:39:10Z</time>
				<extensions>
				</extensions>
			</trkpt>
			<trkpt lat="-27.409232" lon="153.007764">
				<ele>6</ele>
				<time>2015-05-07T08:40:32Z</time>
				<extensions>
				</extensions>
			</trkpt>
			<trkpt lat="-27.409193" lon="153.007545">
				<ele>8</ele>
				<time>2015-05-07T08:40:34Z</time>
				<extensions>
				</extensions>
			</trkpt>
			<trkpt lat="-27.409157" lon="153.007213">
				<ele>11</ele>
				<time>2015-05-07T08:40:36Z</time>
				<extensions>
				</extensions>
			</trkpt>
			<trkpt lat="-27.409107" lon="153.006874">
				<ele>13</ele>
				<time>2015-05-07T08:40:38Z</time>
				<extensions>
				</extensions>
			</trkpt>
			<trkpt lat="-27.409056" lon="153.006535">
				<ele>13</ele>
				<time>2015-05-07T08:40:40Z</time>
				<extensions>
				</extensions>
			</trkpt>
			<trkpt lat="-27.409006" lon="153.006191">
				<ele>14</ele>
				<time>2015-05-07T08:40:42Z</time>
				<extensions>
				</extensions>
			</trkpt>
			<trkpt lat="-27.408956" lon="153.005843">
				<ele>15</ele>
				<time>2015-05-07T08:40:44Z</time>
				<extensions>
				</extensions>
			</trkpt>
			<trkpt lat="-27.408906" lon="153.005495">
				<ele>17</ele>
				<time>2015-05-07T08:40:46Z</time>
				<extensions>
				</extensions>
			</trkpt>
			<trkpt lat="-27.408858" lon="153.005150">
				<ele>18</ele>
				<time>2015-05-07T08:40:48Z</time>
				<extensions>
				</extensions>
			</trkpt>
			<trkpt lat="-27.408806" lon="153.004803">
				<ele>20</ele>
				<time>2015-05-07T08:40:50Z</time>
				<extensions>
				</extensions>
			</trkpt>
			<trkpt lat="-27.408753" lon="153.004440">
				<ele>20</ele>
				<time>2015-05-07T08:40:52Z</time>
				<extensions>
				</extensions>
			</trkpt>
			<trkpt lat="-27.408698" lon="153.004084">
				<ele>20</ele>
				<time>2015-05-07T08:40:54Z</time>
				<extensions>
				</extensions>
			</trkpt>
			<trkpt lat="-27.408645" lon="153.003741">
				<ele>21</ele>
				<time>2015-05-07T08:40:56Z</time>
				<extensions>
				</extensions>
			</trkpt>
			<trkpt lat="-27.408596" lon="153.003404">
				<ele>21</ele>
				<time>2015-05-07T08:40:58Z</time>
				<extensions>
				</extensions>
			</trkpt>
			<trkpt lat="-27.408541" lon="153.003071">
				<ele>22</ele>
				<time>2015-05-07T08:41:00Z</time>
				<extensions>
				</extensions>
			</trkpt>
			<trkpt lat="-27.408485" lon="153.002732">
				<ele>23</ele>
				<time>2015-05-07T08:41:02Z</time>
				<extensions>
				</extensions>
			</trkpt>
			<trkpt lat="-27.408438" lon="153.002405">
				<ele>24</ele>
				<time>2015-05-07T08:41:04Z</time>
				<extensions>
				</extensions>
			</trkpt>
			<trkpt lat="-27.408394" lon="153.002076">
				<ele>25</ele>
				<time>2015-05-07T08:41:06Z</time>
				<extensions>
				</extensions>
			</trkpt>
			<trkpt lat="-27.408340" lon="153.001747">
				<ele>28</ele>
				<time>2015-05-07T08:41:08Z</time>
				<extensions>
				</extensions>
			</trkpt>
			<trkpt lat="-27.408290" lon="153.001405">
				<ele>30</ele>
				<time>2015-05-07T08:41:10Z</time>
				<extensions>
				</extensions>
			</trkpt>
			<trkpt lat="-27.408239" lon="153.001061">
				<ele>32</ele>
				<time>2015-05-07T08:41:12Z</time>
				<extensions>
				</extensions>
			</trkpt>
			<trkpt lat="-27.408189" lon="153.000725">
				<ele>32</ele>
				<time>2015-05-07T08:41:14Z</time>
				<extensions>
				</extensions>
			</trkpt>
			<trkpt lat="-27.408123" lon="153.000397">
				<ele>32</ele>
				<time>2015-05-07T08:41:16Z</time>
				<extensions>
				</extensions>
			</trkpt>
			<trkpt lat="-27.407992" lon="153.000089">
				<ele>33</ele>
				<time>2015-05-07T08:41:18Z</time>
				<extensions>
				</extensions>
			</trkpt>
			<trkpt lat="-27.407844" lon="152.999804">
				<ele>34</ele>
				<time>2015-05-07T08:41:20Z</time>
				<extensions>
				</extensions>
			</trkpt>
			<trkpt lat="-27.407709" lon="152.999539">
				<ele>32</ele>
				<time>2015-05-07T08:41:22Z</time>
				<extensions>
				</extensions>
			</trkpt>
			<trkpt lat="-27.407604" lon="152.999320">
				<ele>29</ele>
				<time>2015-05-07T08:41:24Z</time>
				<extensions>
				</extensions>
			</trkpt>
			<trkpt lat="-27.407517" lon="152.999141">
				<ele>28</ele>
				<time>2015-05-07T08:41:26Z</time>
				<extensions>
				</extensions>
			</trkpt>
			<trkpt lat="-27.407419" lon="152.998931">
				<ele>26</ele>
				<time>2015-05-07T08:41:29Z</time>
				<extensions>
				</extensions>
			</trkpt>
			<trkpt lat="-27.407331" lon="152.998751">
				<ele>25</ele>
				<time>2015-05-07T08:41:32Z</time>
				<extensions>
				</extensions>
			</trkpt>
			<trkpt lat="-27.407239" lon="152.998482">
				<ele>26</ele>
				<time>2015-05-07T08:41:35Z</time>
				<extensions>
				</extensions>
			</trkpt>
			<trkpt lat="-27.407228" lon="152.998252">
				<ele>25</ele>
				<time>2015-05-07T08:41:37Z</time>
				<extensions>
				</extensions>
			</trkpt>
			<trkpt lat="-27.407262" lon="152.997989">
				<ele>24</ele>
				<time>2015-05-07T08:41:39Z</time>
				<extensions>
				</extensions>
			</trkpt>
			<trkpt lat="-27.407304" lon="152.997699">
				<ele>22</ele>
				<time>2015-05-07T08:41:41Z</time>
				<extensions>
				</extensions>
			</trkpt>
			<trkpt lat="-27.407349" lon="152.997402">
				<ele>20</ele>
				<time>2015-05-07T08:41:43Z</time>
				<extensions>
				</extensions>
			</trkpt>
			<trkpt lat="-27.407396" lon="152.997107">
				<ele>18</ele>
				<time>2015-05-07T08:41:45Z</time>
				<extensions>
				</extensions>
			</trkpt>
			<trkpt lat="-27.407439" lon="152.996825">
				<ele>16</ele>
				<time>2015-05-07T08:41:47Z</time>
				<extensions>
				</extensions>
			</trkpt>
			<trkpt lat="-27.407474" lon="152.996535">
				<ele>15</ele>
				<time>2015-05-07T08:41:49Z</time>
				<extensions>
				</extensions>
			</trkpt>
			<trkpt lat="-27.407479" lon="152.996236">
				<ele>15</ele>
				<time>2015-05-07T08:41:51Z</time>
				<extensions>
				</extensions>
			</trkpt>
			<trkpt lat="-27.407445" lon="152.995953">
				<ele>14</ele>
				<time>2015-05-07T08:41:53Z</time>
				<extensions>
				</extensions>
			</trkpt>
			<trkpt lat="-27.407404" lon="152.995651">
				<ele>13</ele>
				<time>2015-05-07T08:41:55Z</time>
				<extensions>
				</extensions>
			</trkpt>
			<trkpt lat="-27.407365" lon="152.995357">
				<ele>13</ele>
				<time>2015-05-07T08:41:57Z</time>
				<extensions>
				</extensions>
			</trkpt>
			<trkpt lat="-27.407322" lon="152.995067">
				<ele>12</ele>
				<time>2015-05-07T08:41:59Z</time>
				<extensions>
				</extensions>
			</trkpt>
			<trkpt lat="-27.407283" lon="152.994779">
				<ele>12</ele>
				<time>2015-05-07T08:42:01Z</time>
				<extensions>
				</extensions>
			</trkpt>
			<trkpt lat="-27.407241" lon="152.994493">
				<ele>12</ele>
				<time>2015-05-07T08:42:03Z</time>
				<extensions>
				</extensions>
			</trkpt>
			<trkpt lat="-27.407213" lon="152.994206">
				<ele>12</ele>
				<time>2015-05-07T08:42:05Z</time>
				<extensions>
				</extensions>
			</trkpt>
			<trkpt lat="-27.407189" lon="152.993914">
				<ele>11</ele>
				<time>2015-05-07T08:42:07Z</time>
				<extensions>
				</extensions>
			</trkpt>
			<trkpt lat="-27.407152" lon="152.993634">
				<ele>11</ele>
				<time>2015-05-07T08:42:09Z</time>
				<extensions>
				</extensions>
			</trkpt>
			<trkpt lat="-27.407107" lon="152.993370">
				<ele>11</ele>
				<time>2015-05-07T08:42:11Z</time>
				<extensions>
				</extensions>
			</trkpt>
			<trkpt lat="-27.407064" lon="152.993108">
				<ele>11</ele>
				<time>2015-05-07T08:42:13Z</time>
				<extensions>
				</extensions>
			</trkpt>
			<trkpt lat="-27.407020" lon="152.992844">
				<ele>12</ele>
				<time>2015-05-07T08:42:15Z</time>
				<extensions>
				</extensions>
			</trkpt>
			<trkpt lat="-27.406988" lon="152.992603">
				<ele>11</ele>
				<time>2015-05-07T08:42:17Z</time>
				<extensions>
				</extensions>
			</trkpt>
			<trkpt lat="-27.406979" lon="152.992381">
				<ele>10</ele>
				<time>2015-05-07T08:42:19Z</time>
				<extensions>
				</extensions>
			</trkpt>
			<trkpt lat="-27.407003" lon="152.992103">
				<ele>9</ele>
				<time>2015-05-07T08:42:22Z</time>
				<extensions>
				</extensions>
			</trkpt>
			<trkpt lat="-27.407041" lon="152.991898">
				<ele>8</ele>
				<time>2015-05-07T08:42:28Z</time>
				<extensions>
				</extensions>
			</trkpt>
			<trkpt lat="-27.407103" lon="152.991631">
				<ele>11</ele>
				<time>2015-05-07T08:43:32Z</time>
				<extensions>
				</extensions>
			</trkpt>
			<trkpt lat="-27.407160" lon="152.991388">
				<ele>11</ele>
				<time>2015-05-07T08:43:35Z</time>
				<extensions>
				</extensions>
			</trkpt>
			<trkpt lat="-27.407225" lon="152.991141">
				<ele>12</ele>
				<time>2015-05-07T08:43:39Z</time>
				<extensions>
				</extensions>
			</trkpt>
			<trkpt lat="-27.407192" lon="152.990889">
				<ele>13</ele>
				<time>2015-05-07T08:43:43Z</time>
				<extensions>
				</extensions>
			</trkpt>
			<trkpt lat="-27.406969" lon="152.990834">
				<ele>14</ele>
				<time>2015-05-07T08:43:46Z</time>
				<extensions>
				</extensions>
			</trkpt>
			<trkpt lat="-27.406752" lon="152.990822">
				<ele>16</ele>
				<time>2015-05-07T08:43:48Z</time>
				<extensions>
				</extensions>
			</trkpt>
			<trkpt lat="-27.406499" lon="152.990804">
				<ele>17</ele>
				<time>2015-05-07T08:43:50Z</time>
				<extensions>
				</extensions>
			</trkpt>
			<trkpt lat="-27.406255" lon="152.990775">
				<ele>16</ele>
				<time>2015-05-07T08:43:52Z</time>
				<extensions>
				</extensions>
			</trkpt>
			<trkpt lat="-27.406040" lon="152.990711">
				<ele>16</ele>
				<time>2015-05-07T08:43:54Z</time>
				<extensions>
				</extensions>
			</trkpt>
			<trkpt lat="-27.405874" lon="152.990579">
				<ele>15</ele>
				<time>2015-05-07T08:43:56Z</time>
				<extensions>
				</extensions>
			</trkpt>
			<trkpt lat="-27.405747" lon="152.990427">
				<ele>14</ele>
				<time>2015-05-07T08:43:58Z</time>
				<extensions>
				</extensions>
			</trkpt>
			<trkpt lat="-27.405624" lon="152.990265">
				<ele>16</ele>
				<time>2015-05-07T08:44:00Z</time>
				<extensions>
				</extensions>
			</trkpt>
			<trkpt lat="-27.405455" lon="152.990047">
				<ele>16</ele>
				<time>2015-05-07T08:44:03Z</time>
				<extensions>
				</extensions>
			</trkpt>
			<trkpt lat="-27.405336" lon="152.989891">
				<ele>16</ele>
				<time>2015-05-07T08:44:05Z</time>
				<extensions>
				</extensions>
			</trkpt>
			<trkpt lat="-27.405211" lon="152.989716">
				<ele>17</ele>
				<time>2015-05-07T08:44:07Z</time>
				<extensions>
				</extensions>
			</trkpt>
			<trkpt lat="-27.405097" lon="152.989533">
				<ele>17</ele>
				<time>2015-05-07T08:44:09Z</time>
				<extensions>
				</extensions>
			</trkpt>
			<trkpt lat="-27.404994" lon="152.989354">
				<ele>18</ele>
				<time>2015-05-07T08:44:11Z</time>
				<extensions>
				</extensions>
			</trkpt>
			<trkpt lat="-27.404849" lon="152.989100">
				<ele>18</ele>
				<time>2015-05-07T08:44:14Z</time>
				<extensions>
				</extensions>
			</trkpt>
			<trkpt lat="-27.404745" lon="152.988926">
				<ele>18</ele>
				<time>2015-05-07T08:44:16Z</time>
				<extensions>
				</extensions>
			</trkpt>
			<trkpt lat="-27.404623" lon="152.988776">
				<ele>18</ele>
				<time>2015-05-07T08:44:18Z</time>
				<extensions>
				</extensions>
			</trkpt>
			<trkpt lat="-27.404476" lon="152.988631">
				<ele>19</ele>
				<time>2015-05-07T08:44:20Z</time>
				<extensions>
				</extensions>
			</trkpt>
			<trkpt lat="-27.404303" lon="152.988486">
				<ele>19</ele>
				<time>2015-05-07T08:44:22Z</time>
				<extensions>
				</extensions>
			</trkpt>
			<trkpt lat="-27.404143" lon="152.988352">
				<ele>19</ele>
				<time>2015-05-07T08:44:24Z</time>
				<extensions>
				</extensions>
			</trkpt>
			<trkpt lat="-27.403993" lon="152.988226">
				<ele>19</ele>
				<time>2015-05-07T08:44:26Z</time>
				<extensions>
				</extensions>
			</trkpt>
			<trkpt lat="-27.403841" lon="152.988099">
				<ele>16</ele>
				<time>2015-05-07T08:44:29Z</time>
				<extensions>
				</extensions>
			</trkpt>
			<trkpt lat="-27.403656" lon="152.987937">
				<ele>17</ele>
				<time>2015-05-07T08:44:38Z</time>
				<extensions>
				</extensions>
			</trkpt>
			<trkpt lat="-27.403459" lon="152.987760">
				<ele>19</ele>
				<time>2015-05-07T08:44:41Z</time>
				<extensions>
				</extensions>
			</trkpt>
			<trkpt lat="-27.403297" lon="152.987620">
				<ele>20</ele>
				<time>2015-05-07T08:44:43Z</time>
				<extensions>
				</extensions>
			</trkpt>
			<trkpt lat="-27.403121" lon="152.987458">
				<ele>21</ele>
				<time>2015-05-07T08:44:45Z</time>
				<extensions>
				</extensions>
			</trkpt>
			<trkpt lat="-27.402954" lon="152.987294">
				<ele>20</ele>
				<time>2015-05-07T08:44:47Z</time>
				<extensions>
				</extensions>
			</trkpt>
			<trkpt lat="-27.402795" lon="152.987154">
				<ele>20</ele>
				<time>2015-05-07T08:44:49Z</time>
				<extensions>
				</extensions>
			</trkpt>
			<trkpt lat="-27.402618" lon="152.987045">
				<ele>21</ele>
				<time>2015-05-07T08:44:51Z</time>
				<extensions>
				</extensions>
			</trkpt>
			<trkpt lat="-27.402404" lon="152.986979">
				<ele>22</ele>
				<time>2015-05-07T08:44:53Z</time>
				<extensions>
				</extensions>
			</trkpt>
			<trkpt lat="-27.402149" lon="152.986942">
				<ele>23</ele>
				<time>2015-05-07T08:44:55Z</time>
				<extensions>
				</extensions>
			</trkpt>
			<trkpt lat="-27.401872" lon="152.986911">
				<ele>24</ele>
				<time>2015-05-07T08:44:57Z</time>
				<extensions>
				</extensions>
			</trkpt>
			<trkpt lat="-27.401608" lon="152.986876">
				<ele>25</ele>
				<time>2015-05-07T08:44:59Z</time>
				<extensions>
				</extensions>
			</trkpt>
			<trkpt lat="-27.401369" lon="152.986805">
				<ele>25</ele>
				<time>2015-05-07T08:45:01Z</time>
				<extensions>
				</extensions>
			</trkpt>
			<trkpt lat="-27.401140" lon="152.986676">
				<ele>26</ele>
				<time>2015-05-07T08:45:03Z</time>
				<extensions>
				</extensions>
			</trkpt>
			<trkpt lat="-27.400926" lon="152.986559">
				<ele>27</ele>
				<time>2015-05-07T08:45:05Z</time>
				<extensions>
				</extensions>
			</trkpt>
			<trkpt lat="-27.400710" lon="152.986471">
				<ele>28</ele>
				<time>2015-05-07T08:45:07Z</time>
				<extensions>
				</extensions>
			</trkpt>
			<trkpt lat="-27.400456" lon="152.986416">
				<ele>30</ele>
				<time>2015-05-07T08:45:09Z</time>
				<extensions>
				</extensions>
			</trkpt>
			<trkpt lat="-27.400180" lon="152.986380">
				<ele>32</ele>
				<time>2015-05-07T08:45:11Z</time>
				<extensions>
				</extensions>
			</trkpt>
			<trkpt lat="-27.399890" lon="152.986328">
				<ele>33</ele>
				<time>2015-05-07T08:45:13Z</time>
				<extensions>
				</extensions>
			</trkpt>
			<trkpt lat="-27.399581" lon="152.986250">
				<ele>37</ele>
				<time>2015-05-07T08:45:15Z</time>
				<extensions>
				</extensions>
			</trkpt>
			<trkpt lat="-27.399283" lon="152.986181">
				<ele>39</ele>
				<time>2015-05-07T08:45:17Z</time>
				<extensions>
				</extensions>
			</trkpt>
			<trkpt lat="-27.398997" lon="152.986170">
				<ele>42</ele>
				<time>2015-05-07T08:45:19Z</time>
				<extensions>
				</extensions>
			</trkpt>
			<trkpt lat="-27.398731" lon="152.986250">
				<ele>46</ele>
				<time>2015-05-07T08:45:21Z</time>
				<extensions>
				</extensions>
			</trkpt>
			<trkpt lat="-27.398489" lon="152.986404">
				<ele>49</ele>
				<time>2015-05-07T08:45:23Z</time>
				<extensions>
				</extensions>
			</trkpt>
			<trkpt lat="-27.398250" lon="152.986571">
				<ele>52</ele>
				<time>2015-05-07T08:45:25Z</time>
				<extensions>
				</extensions>
			</trkpt>
			<trkpt lat="-27.398007" lon="152.986732">
				<ele>53</ele>
				<time>2015-05-07T08:45:27Z</time>
				<extensions>
				</extensions>
			</trkpt>
			<trkpt lat="-27.397772" lon="152.986869">
				<ele>54</ele>
				<time>2015-05-07T08:45:29Z</time>
				<extensions>
				</extensions>
			</trkpt>
			<trkpt lat="-27.397546" lon="152.986941">
				<ele>54</ele>
				<time>2015-05-07T08:45:31Z</time>
				<extensions>
				</extensions>
			</trkpt>
			<trkpt lat="-27.397311" lon="152.986903">
				<ele>53</ele>
				<time>2015-05-07T08:45:33Z</time>
				<extensions>
				</extensions>
			</trkpt>
			<trkpt lat="-27.397059" lon="152.986800">
				<ele>53</ele>
				<time>2015-05-07T08:45:35Z</time>
				<extensions>
				</extensions>
			</trkpt>
			<trkpt lat="-27.396800" lon="152.986686">
				<ele>49</ele>
				<time>2015-05-07T08:45:37Z</time>
				<extensions>
				</extensions>
			</trkpt>
			<trkpt lat="-27.396526" lon="152.986561">
				<ele>45</ele>
				<time>2015-05-07T08:45:39Z</time>
				<extensions>
				</extensions>
			</trkpt>
			<trkpt lat="-27.396254" lon="152.986434">
				<ele>43</ele>
				<time>2015-05-07T08:45:41Z</time>
				<extensions>
				</extensions>
			</trkpt>
			<trkpt lat="-27.395991" lon="152.986313">
				<ele>41</ele>
				<time>2015-05-07T08:45:43Z</time>
				<extensions>
				</extensions>
			</trkpt>
			<trkpt lat="-27.395727" lon="152.986192">
				<ele>42</ele>
				<time>2015-05-07T08:45:45Z</time>
				<extensions>
				</extensions>
			</trkpt>
			<trkpt lat="-27.395487" lon="152.986082">
				<ele>42</ele>
				<time>2015-05-07T08:45:47Z</time>
				<extensions>
				</extensions>
			</trkpt>
			<trkpt lat="-27.395250" lon="152.985977">
				<ele>45</ele>
				<time>2015-05-07T08:45:49Z</time>
				<extensions>
				</extensions>
			</trkpt>
			<trkpt lat="-27.395019" lon="152.985872">
				<ele>48</ele>
				<time>2015-05-07T08:45:51Z</time>
				<extensions>
				</extensions>
			</trkpt>
			<trkpt lat="-27.394780" lon="152.985769">
				<ele>51</ele>
				<time>2015-05-07T08:45:53Z</time>
				<extensions>
				</extensions>
			</trkpt>
			<trkpt lat="-27.394553" lon="152.985674">
				<ele>52</ele>
				<time>2015-05-07T08:45:55Z</time>
				<extensions>
				</extensions>
			</trkpt>
			<trkpt lat="-27.394344" lon="152.985582">
				<ele>54</ele>
				<time>2015-05-07T08:45:57Z</time>
				<extensions>
				</extensions>
			</trkpt>
			<trkpt lat="-27.394099" lon="152.985482">
				<ele>56</ele>
				<time>2015-05-07T08:45:59Z</time>
				<extensions>
				</extensions>
			</trkpt>
			<trkpt lat="-27.393838" lon="152.985361">
				<ele>55</ele>
				<time>2015-05-07T08:46:01Z</time>
				<extensions>
				</extensions>
			</trkpt>
			<trkpt lat="-27.393549" lon="152.985225">
				<ele>52</ele>
				<time>2015-05-07T08:46:03Z</time>
				<extensions>
				</extensions>
			</trkpt>
			<trkpt lat="-27.393255" lon="152.985092">
				<ele>49</ele>
				<time>2015-05-07T08:46:05Z</time>
				<extensions>
				</extensions>
			</trkpt>
			<trkpt lat="-27.392963" lon="152.984964">
				<ele>47</ele>
				<time>2015-05-07T08:46:07Z</time>
				<extensions>
				</extensions>
			</trkpt>
			<trkpt lat="-27.392679" lon="152.984862">
				<ele>48</ele>
				<time>2015-05-07T08:46:09Z</time>
				<extensions>
				</extensions>
			</trkpt>
			<trkpt lat="-27.392417" lon="152.984829">
				<ele>51</ele>
				<time>2015-05-07T08:46:11Z</time>
				<extensions>
				</extensions>
			</trkpt>
			<trkpt lat="-27.392142" lon="152.984846">
				<ele>55</ele>
				<time>2015-05-07T08:46:13Z</time>
				<extensions>
				</extensions>
			</trkpt>
			<trkpt lat="-27.391868" lon="152.984893">
				<ele>56</ele>
				<time>2015-05-07T08:46:15Z</time>
				<extensions>
				</extensions>
			</trkpt>
			<trkpt lat="-27.391609" lon="152.984944">
				<ele>59</ele>
				<time>2015-05-07T08:46:17Z</time>
				<extensions>
				</extensions>
			</trkpt>
			<trkpt lat="-27.391322" lon="152.984993">
				<ele>62</ele>
				<time>2015-05-07T08:46:19Z</time>
				<extensions>
				</extensions>
			</trkpt>
			<trkpt lat="-27.391018" lon="152.985048">
				<ele>62</ele>
				<time>2015-05-07T08:46:21Z</time>
				<extensions>
				</extensions>
			</trkpt>
			<trkpt lat="-27.390747" lon="152.985095">
				<ele>62</ele>
				<time>2015-05-07T08:46:23Z</time>
				<extensions>
				</extensions>
			</trkpt>
			<trkpt lat="-27.390497" lon="152.985105">
				<ele>62</ele>
				<time>2015-05-07T08:46:25Z</time>
				<extensions>
				</extensions>
			</trkpt>
			<trkpt lat="-27.390225" lon="152.985081">
				<ele>61</ele>
				<time>2015-05-07T08:46:27Z</time>
				<extensions>
				</extensions>
			</trkpt>
			<trkpt lat="-27.389965" lon="152.985058">
				<ele>60</ele>
				<time>2015-05-07T08:46:29Z</time>
				<extensions>
				</extensions>
			</trkpt>
			<trkpt lat="-27.389705" lon="152.985033">
				<ele>59</ele>
				<time>2015-05-07T08:46:31Z</time>
				<extensions>
				</extensions>
			</trkpt>
			<trkpt lat="-27.389425" lon="152.985000">
				<ele>58</ele>
				<time>2015-05-07T08:46:33Z</time>
				<extensions>
				</extensions>
			</trkpt>
			<trkpt lat="-27.389115" lon="152.984964">
				<ele>57</ele>
				<time>2015-05-07T08:46:35Z</time>
				<extensions>
				</extensions>
			</trkpt>
			<trkpt lat="-27.388810" lon="152.984921">
				<ele>56</ele>
				<time>2015-05-07T08:46:37Z</time>
				<extensions>
				</extensions>
			</trkpt>
			<trkpt lat="-27.388507" lon="152.984876">
				<ele>54</ele>
				<time>2015-05-07T08:46:39Z</time>
				<extensions>
				</extensions>
			</trkpt>
			<trkpt lat="-27.388201" lon="152.984841">
				<ele>53</ele>
				<time>2015-05-07T08:46:41Z</time>
				<extensions>
				</extensions>
			</trkpt>
			<trkpt lat="-27.387892" lon="152.984816">
				<ele>53</ele>
				<time>2015-05-07T08:46:43Z</time>
				<extensions>
				</extensions>
			</trkpt>
			<trkpt lat="-27.387580" lon="152.984790">
				<ele>50</ele>
				<time>2015-05-07T08:46:45Z</time>
				<extensions>
				</extensions>
			</trkpt>
			<trkpt lat="-27.387268" lon="152.984759">
				<ele>50</ele>
				<time>2015-05-07T08:46:47Z</time>
				<extensions>
				</extensions>
			</trkpt>
			<trkpt lat="-27.386954" lon="152.984738">
				<ele>49</ele>
				<time>2015-05-07T08:46:49Z</time>
				<extensions>
				</extensions>
			</trkpt>
			<trkpt lat="-27.386629" lon="152.984737">
				<ele>50</ele>
				<time>2015-05-07T08:46:51Z</time>
				<extensions>
				</extensions>
			</trkpt>
			<trkpt lat="-27.386312" lon="152.984721">
				<ele>52</ele>
				<time>2015-05-07T08:46:53Z</time>
				<extensions>
				</extensions>
			</trkpt>
			<trkpt lat="-27.386006" lon="152.984639">
				<ele>52</ele>
				<time>2015-05-07T08:46:55Z</time>
				<extensions>
				</extensions>
			</trkpt>
			<trkpt lat="-27.385721" lon="152.984501">
				<ele>54</ele>
				<time>2015-05-07T08:46:57Z</time>
				<extensions>
				</extensions>
			</trkpt>
			<trkpt lat="-27.385459" lon="152.984304">
				<ele>55</ele>
				<time>2015-05-07T08:46:59Z</time>
				<extensions>
				</extensions>
			</trkpt>
			<trkpt lat="-27.385230" lon="152.984106">
				<ele>55</ele>
				<time>2015-05-07T08:47:01Z</time>
				<extensions>
				</extensions>
			</trkpt>
			<trkpt lat="-27.384995" lon="152.983932">
				<ele>54</ele>
				<time>2015-05-07T08:47:03Z</time>
				<extensions>
				</extensions>
			</trkpt>
			<trkpt lat="-27.384748" lon="152.983782">
				<ele>54</ele>
				<time>2015-05-07T08:47:05Z</time>
				<extensions>
				</extensions>
			</trkpt>
			<trkpt lat="-27.384484" lon="152.983649">
				<ele>54</ele>
				<time>2015-05-07T08:47:07Z</time>
				<extensions>
				</extensions>
			</trkpt>
			<trkpt lat="-27.384221" lon="152.983548">
				<ele>52</ele>
				<time>2015-05-07T08:47:09Z</time>
				<extensions>
				</extensions>
			</trkpt>
			<trkpt lat="-27.384005" lon="152.983483">
				<ele>48</ele>
				<time>2015-05-07T08:47:11Z</time>
				<extensions>
				</extensions>
			</trkpt>
			<trkpt lat="-27.383818" lon="152.983427">
				<ele>45</ele>
				<time>2015-05-07T08:47:14Z</time>
				<extensions>
				</extensions>
			</trkpt>
			<trkpt lat="-27.383640" lon="152.983381">
				<ele>48</ele>
				<time>2015-05-07T08:47:46Z</time>
				<extensions>
				</extensions>
			</trkpt>
			<trkpt lat="-27.383420" lon="152.983313">
				<ele>48</ele>
				<time>2015-05-07T08:47:49Z</time>
				<extensions>
				</extensions>
			</trkpt>
			<trkpt lat="-27.383176" lon="152.983243">
				<ele>48</ele>
				<time>2015-05-07T08:47:51Z</time>
				<extensions>
				</extensions>
			</trkpt>
			<trkpt lat="-27.382903" lon="152.983164">
				<ele>49</ele>
				<time>2015-05-07T08:47:53Z</time>
				<extensions>
				</extensions>
			</trkpt>
			<trkpt lat="-27.382623" lon="152.983084">
				<ele>45</ele>
				<time>2015-05-07T08:47:55Z</time>
				<extensions>
				</extensions>
			</trkpt>
			<trkpt lat="-27.382342" lon="152.982972">
				<ele>44</ele>
				<time>2015-05-07T08:47:57Z</time>
				<extensions>
				</extensions>
			</trkpt>
			<trkpt lat="-27.382075" lon="152.982806">
				<ele>42</ele>
				<time>2015-05-07T08:47:59Z</time>
				<extensions>
				</extensions>
			</trkpt>
			<trkpt lat="-27.381831" lon="152.982611">
				<ele>40</ele>
				<time>2015-05-07T08:48:01Z</time>
				<extensions>
				</extensions>
			</trkpt>
			<trkpt lat="-27.381623" lon="152.982394">
				<ele>40</ele>
				<time>2015-05-07T08:48:03Z</time>
				<extensions>
				</extensions>
			</trkpt>
			<trkpt lat="-27.381441" lon="152.982186">
				<ele>40</ele>
				<time>2015-05-07T08:48:05Z</time>
				<extensions>
				</extensions>
			</trkpt>
			<trkpt lat="-27.381222" lon="152.981957">
				<ele>41</ele>
				<time>2015-05-07T08:48:07Z</time>
				<extensions>
				</extensions>
			</trkpt>
			<trkpt lat="-27.380953" lon="152.981691">
				<ele>45</ele>
				<time>2015-05-07T08:48:09Z</time>
				<extensions>
				</extensions>
			</trkpt>
			<trkpt lat="-27.380804" lon="152.981555">
				<ele>44</ele>
				<time>2015-05-07T08:48:10Z</time>
				<extensions>
				</extensions>
			</trkpt>
			<trkpt lat="-27.380645" lon="152.981419">
				<ele>45</ele>
				<time>2015-05-07T08:48:11Z</time>
				<extensions>
				</extensions>
			</trkpt>
			<trkpt lat="-27.380490" lon="152.981302">
				<ele>45</ele>
				<time>2015-05-07T08:48:12Z</time>
				<extensions>
				</extensions>
			</trkpt>
			<trkpt lat="-27.380193" lon="152.981113">
				<ele>44</ele>
				<time>2015-05-07T08:48:14Z</time>
				<extensions>
				</extensions>
			</trkpt>
			<trkpt lat="-27.379910" lon="152.980962">
				<ele>42</ele>
				<time>2015-05-07T08:48:16Z</time>
				<extensions>
				</extensions>
			</trkpt>
			<trkpt lat="-27.379633" lon="152.980844">
				<ele>44</ele>
				<time>2015-05-07T08:48:18Z</time>
				<extensions>
				</extensions>
			</trkpt>
			<trkpt lat="-27.379340" lon="152.980745">
				<ele>47</ele>
				<time>2015-05-07T08:48:20Z</time>
				<extensions>
				</extensions>
			</trkpt>
			<trkpt lat="-27.379030" lon="152.980668">
				<ele>50</ele>
				<time>2015-05-07T08:48:22Z</time>
				<extensions>
				</extensions>
			</trkpt>
			<trkpt lat="-27.378756" lon="152.980623">
				<ele>49</ele>
				<time>2015-05-07T08:48:24Z</time>
				<extensions>
				</extensions>
			</trkpt>
			<trkpt lat="-27.378474" lon="152.980588">
				<ele>51</ele>
				<time>2015-05-07T08:48:26Z</time>
				<extensions>
				</extensions>
			</trkpt>
			<trkpt lat="-27.378179" lon="152.980553">
				<ele>53</ele>
				<time>2015-05-07T08:48:28Z</time>
				<extensions>
				</extensions>
			</trkpt>
			<trkpt lat="-27.377879" lon="152.980519">
				<ele>55</ele>
				<time>2015-05-07T08:48:30Z</time>
				<extensions>
				</extensions>
			</trkpt>
			<trkpt lat="-27.377585" lon="152.980487">
				<ele>56</ele>
				<time>2015-05-07T08:48:32Z</time>
				<extensions>
				</extensions>
			</trkpt>
			<trkpt lat="-27.377292" lon="152.980456">
				<ele>56</ele>
				<time>2015-05-07T08:48:34Z</time>
				<extensions>
				</extensions>
			</trkpt>
			<trkpt lat="-27.377004" lon="152.980426">
				<ele>56</ele>
				<time>2015-05-07T08:48:36Z</time>
				<extensions>
				</extensions>
			</trkpt>
			<trkpt lat="-27.376730" lon="152.980395">
				<ele>56</ele>
				<time>2015-05-07T08:48:38Z</time>
				<extensions>
				</extensions>
			</trkpt>
			<trkpt lat="-27.376459" lon="152.980366">
				<ele>55</ele>
				<time>2015-05-07T08:48:40Z</time>
				<extensions>
				</extensions>
			</trkpt>
			<trkpt lat="-27.376176" lon="152.980340">
				<ele>54</ele>
				<time>2015-05-07T08:48:42Z</time>
				<extensions>
				</extensions>
			</trkpt>
			<trkpt lat="-27.375875" lon="152.980316">
				<ele>55</ele>
				<time>2015-05-07T08:48:44Z</time>
				<extensions>
				</extensions>
			</trkpt>
			<trkpt lat="-27.375547" lon="152.980295">
				<ele>54</ele>
				<time>2015-05-07T08:48:46Z</time>
				<extensions>
				</extensions>
			</trkpt>
			<trkpt lat="-27.375201" lon="152.980277">
				<ele>53</ele>
				<time>2015-05-07T08:48:48Z</time>
				<extensions>
				</extensions>
			</trkpt>
			<trkpt lat="-27.374865" lon="152.980268">
				<ele>52</ele>
				<time>2015-05-07T08:48:50Z</time>
				<extensions>
				</extensions>
			</trkpt>
			<trkpt lat="-27.374532" lon="152.980266">
				<ele>51</ele>
				<time>2015-05-07T08:48:52Z</time>
				<extensions>
				</extensions>
			</trkpt>
			<trkpt lat="-27.374211" lon="152.980275">
				<ele>49</ele>
				<time>2015-05-07T08:48:54Z</time>
				<extensions>
				</extensions>
			</trkpt>
			<trkpt lat="-27.373911" lon="152.980283">
				<ele>49</ele>
				<time>2015-05-07T08:48:56Z</time>
				<extensions>
				</extensions>
			</trkpt>
			<trkpt lat="-27.373599" lon="152.980294">
				<ele>50</ele>
				<time>2015-05-07T08:48:58Z</time>
				<extensions>
				</extensions>
			</trkpt>
			<trkpt lat="-27.373280" lon="152.980306">
				<ele>51</ele>
				<time>2015-05-07T08:49:00Z</time>
				<extensions>
				</extensions>
			</trkpt>
			<trkpt lat="-27.372966" lon="152.980317">
				<ele>50</ele>
				<time>2015-05-07T08:49:02Z</time>
				<extensions>
				</extensions>
			</trkpt>
			<trkpt lat="-27.372662" lon="152.980323">
				<ele>50</ele>
				<time>2015-05-07T08:49:04Z</time>
				<extensions>
				</extensions>
			</trkpt>
			<trkpt lat="-27.372349" lon="152.980323">
				<ele>52</ele>
				<time>2015-05-07T08:49:06Z</time>
				<extensions>
				</extensions>
			</trkpt>
			<trkpt lat="-27.372036" lon="152.980306">
				<ele>50</ele>
				<time>2015-05-07T08:49:08Z</time>
				<extensions>
				</extensions>
			</trkpt>
			<trkpt lat="-27.371727" lon="152.980265">
				<ele>49</ele>
				<time>2015-05-07T08:49:10Z</time>
				<extensions>
				</extensions>
			</trkpt>
			<trkpt lat="-27.371417" lon="152.980203">
				<ele>48</ele>
				<time>2015-05-07T08:49:12Z</time>
				<extensions>
				</extensions>
			</trkpt>
			<trkpt lat="-27.371099" lon="152.980112">
				<ele>48</ele>
				<time>2015-05-07T08:49:14Z</time>
				<extensions>
				</extensions>
			</trkpt>
			<trkpt lat="-27.370784" lon="152.980001">
				<ele>46</ele>
				<time>2015-05-07T08:49:16Z</time>
				<extensions>
				</extensions>
			</trkpt>
			<trkpt lat="-27.370464" lon="152.979856">
				<ele>44</ele>
				<time>2015-05-07T08:49:18Z</time>
				<extensions>
				</extensions>
			</trkpt>
			<trkpt lat="-27.370295" lon="152.979774">
				<ele>43</ele>
				<time>2015-05-07T08:49:19Z</time>
				<extensions>
				</extensions>
			</trkpt>
			<trkpt lat="-27.370120" lon="152.979690">
				<ele>42</ele>
				<time>2015-05-07T08:49:20Z</time>
				<extensions>
				</extensions>
			</trkpt>
			<trkpt lat="-27.369951" lon="152.979609">
				<ele>42</ele>
				<time>2015-05-07T08:49:21Z</time>
				<extensions>
				</extensions>
			</trkpt>
			<trkpt lat="-27.369776" lon="152.979526">
				<ele>41</ele>
				<time>2015-05-07T08:49:22Z</time>
				<extensions>
				</extensions>
			</trkpt>
			<trkpt lat="-27.369602" lon="152.979442">
				<ele>39</ele>
				<time>2015-05-07T08:49:23Z</time>
				<extensions>
				</extensions>
			</trkpt>
			<trkpt lat="-27.369281" lon="152.979283">
				<ele>35</ele>
				<time>2015-05-07T08:49:25Z</time>
				<extensions>
				</extensions>
			</trkpt>
			<trkpt lat="-27.369115" lon="152.979203">
				<ele>34</ele>
				<time>2015-05-07T08:49:26Z</time>
				<extensions>
				</extensions>
			</trkpt>
			<trkpt lat="-27.368819" lon="152.979056">
				<ele>35</ele>
				<time>2015-05-07T08:49:28Z</time>
				<extensions>
				</extensions>
			</trkpt>
			<trkpt lat="-27.368524" lon="152.978908">
				<ele>34</ele>
				<time>2015-05-07T08:49:30Z</time>
				<extensions>
				</extensions>
			</trkpt>
			<trkpt lat="-27.368237" lon="152.978735">
				<ele>36</ele>
				<time>2015-05-07T08:49:32Z</time>
				<extensions>
				</extensions>
			</trkpt>
			<trkpt lat="-27.367965" lon="152.978541">
				<ele>36</ele>
				<time>2015-05-07T08:49:34Z</time>
				<extensions>
				</extensions>
			</trkpt>
			<trkpt lat="-27.367722" lon="152.978336">
				<ele>37</ele>
				<time>2015-05-07T08:49:36Z</time>
				<extensions>
				</extensions>
			</trkpt>
			<trkpt lat="-27.367503" lon="152.978124">
				<ele>36</ele>
				<time>2015-05-07T08:49:38Z</time>
				<extensions>
				</extensions>
			</trkpt>
			<trkpt lat="-27.367293" lon="152.977884">
				<ele>39</ele>
				<time>2015-05-07T08:49:40Z</time>
				<extensions>
				</extensions>
			</trkpt>
			<trkpt lat="-27.367098" lon="152.977628">
				<ele>38</ele>
				<time>2015-05-07T08:49:42Z</time>
				<extensions>
				</extensions>
			</trkpt>
			<trkpt lat="-27.366919" lon="152.977361">
				<ele>38</ele>
				<time>2015-05-07T08:49:44Z</time>
				<extensions>
				</extensions>
			</trkpt>
			<trkpt lat="-27.366711" lon="152.977059">
				<ele>37</ele>
				<time>2015-05-07T08:49:46Z</time>
				<extensions>
				</extensions>
			</trkpt>
			<trkpt lat="-27.366515" lon="152.976762">
				<ele>36</ele>
				<time>2015-05-07T08:49:48Z</time>
				<extensions>
				</extensions>
			</trkpt>
			<trkpt lat="-27.366329" lon="152.976475">
				<ele>36</ele>
				<time>2015-05-07T08:49:50Z</time>
				<extensions>
				</extensions>
			</trkpt>
			<trkpt lat="-27.366155" lon="152.976210">
				<ele>36</ele>
				<time>2015-05-07T08:49:52Z</time>
				<extensions>
				</extensions>
			</trkpt>
			<trkpt lat="-27.365981" lon="152.975951">
				<ele>36</ele>
				<time>2015-05-07T08:49:54Z</time>
				<extensions>
				</extensions>
			</trkpt>
			<trkpt lat="-27.365814" lon="152.975686">
				<ele>37</ele>
				<time>2015-05-07T08:49:56Z</time>
				<extensions>
				</extensions>
			</trkpt>
			<trkpt lat="-27.365638" lon="152.975411">
				<ele>40</ele>
				<time>2015-05-07T08:49:58Z</time>
				<extensions>
				</extensions>
			</trkpt>
			<trkpt lat="-27.365452" lon="152.975146">
				<ele>41</ele>
				<time>2015-05-07T08:50:00Z</time>
				<extensions>
				</extensions>
			</trkpt>
			<trkpt lat="-27.365258" lon="152.974900">
				<ele>43</ele>
				<time>2015-05-07T08:50:02Z</time>
				<extensions>
				</extensions>
			</trkpt>
			<trkpt lat="-27.365048" lon="152.974668">
				<ele>45</ele>
				<time>2015-05-07T08:50:04Z</time>
				<extensions>
				</extensions>
			</trkpt>
			<trkpt lat="-27.364834" lon="152.974462">
				<ele>45</ele>
				<time>2015-05-07T08:50:06Z</time>
				<extensions>
				</extensions>
			</trkpt>
			<trkpt lat="-27.364618" lon="152.974278">
				<ele>47</ele>
				<time>2015-05-07T08:50:08Z</time>
				<extensions>
				</extensions>
			</trkpt>
			<trkpt lat="-27.364382" lon="152.974116">
				<ele>48</ele>
				<time>2015-05-07T08:50:10Z</time>
				<extensions>
				</extensions>
			</trkpt>
			<trkpt lat="-27.364131" lon="152.973962">
				<ele>49</ele>
				<time>2015-05-07T08:50:12Z</time>
				<extensions>
				</extensions>
			</trkpt>
			<trkpt lat="-27.363847" lon="152.973815">
				<ele>50</ele>
				<time>2015-05-07T08:50:14Z</time>
				<extensions>
				</extensions>
			</trkpt>
			<trkpt lat="-27.363575" lon="152.973672">
				<ele>48</ele>
				<time>2015-05-07T08:50:16Z</time>
				<extensions>
				</extensions>
			</trkpt>
			<trkpt lat="-27.363331" lon="152.973518">
				<ele>47</ele>
				<time>2015-05-07T08:50:18Z</time>
				<extensions>
				</extensions>
			</trkpt>
			<trkpt lat="-27.363092" lon="152.973338">
				<ele>47</ele>
				<time>2015-05-07T08:50:20Z</time>
				<extensions>
				</extensions>
			</trkpt>
			<trkpt lat="-27.362877" lon="152.973145">
				<ele>45</ele>
				<time>2015-05-07T08:50:22Z</time>
				<extensions>
				</extensions>
			</trkpt>
			<trkpt lat="-27.362680" lon="152.972943">
				<ele>45</ele>
				<time>2015-05-07T08:50:24Z</time>
				<extensions>
				</extensions>
			</trkpt>
			<trkpt lat="-27.362472" lon="152.972739">
				<ele>45</ele>
				<time>2015-05-07T08:50:26Z</time>
				<extensions>
				</extensions>
			</trkpt>
			<trkpt lat="-27.362237" lon="152.972529">
				<ele>44</ele>
				<time>2015-05-07T08:50:28Z</time>
				<extensions>
				</extensions>
			</trkpt>
			<trkpt lat="-27.362003" lon="152.972350">
				<ele>43</ele>
				<time>2015-05-07T08:50:30Z</time>
				<extensions>
				</extensions>
			</trkpt>
			<trkpt lat="-27.361764" lon="152.972186">
				<ele>43</ele>
				<time>2015-05-07T08:50:32Z</time>
				<extensions>
				</extensions>
			</trkpt>
			<trkpt lat="-27.361506" lon="152.972024">
				<ele>41</ele>
				<time>2015-05-07T08:50:34Z</time>
				<extensions>
				</extensions>
			</trkpt>
			<trkpt lat="-27.361234" lon="152.971857">
				<ele>40</ele>
				<time>2015-05-07T08:50:36Z</time>
				<extensions>
				</extensions>
			</trkpt>
			<trkpt lat="-27.360970" lon="152.971703">
				<ele>38</ele>
				<time>2015-05-07T08:50:38Z</time>
				<extensions>
				</extensions>
			</trkpt>
			<trkpt lat="-27.360705" lon="152.971541">
				<ele>38</ele>
				<time>2015-05-07T08:50:40Z</time>
				<extensions>
				</extensions>
			</trkpt>
			<trkpt lat="-27.360444" lon="152.971381">
				<ele>36</ele>
				<time>2015-05-07T08:50:42Z</time>
				<extensions>
				</extensions>
			</trkpt>
			<trkpt lat="-27.360182" lon="152.971224">
				<ele>34</ele>
				<time>2015-05-07T08:50:44Z</time>
				<extensions>
				</extensions>
			</trkpt>
			<trkpt lat="-27.359908" lon="152.971055">
				<ele>33</ele>
				<time>2015-05-07T08:50:46Z</time>
				<extensions>
				</extensions>
			</trkpt>
			<trkpt lat="-27.359615" lon="152.970877">
				<ele>31</ele>
				<time>2015-05-07T08:50:48Z</time>
				<extensions>
				</extensions>
			</trkpt>
			<trkpt lat="-27.359329" lon="152.970702">
				<ele>29</ele>
				<time>2015-05-07T08:50:50Z</time>
				<extensions>
				</extensions>
			</trkpt>
			<trkpt lat="-27.359049" lon="152.970522">
				<ele>26</ele>
				<time>2015-05-07T08:50:52Z</time>
				<extensions>
				</extensions>
			</trkpt>
			<trkpt lat="-27.358777" lon="152.970346">
				<ele>24</ele>
				<time>2015-05-07T08:50:54Z</time>
				<extensions>
				</extensions>
			</trkpt>
			<trkpt lat="-27.358513" lon="152.970170">
				<ele>23</ele>
				<time>2015-05-07T08:50:56Z</time>
				<extensions>
				</extensions>
			</trkpt>
			<trkpt lat="-27.358275" lon="152.970002">
				<ele>23</ele>
				<time>2015-05-07T08:50:58Z</time>
				<extensions>
				</extensions>
			</trkpt>
			<trkpt lat="-27.358061" lon="152.969846">
				<ele>22</ele>
				<time>2015-05-07T08:51:00Z</time>
				<extensions>
				</extensions>
			</trkpt>
			<trkpt lat="-27.357891" lon="152.969739">
				<ele>19</ele>
				<time>2015-05-07T08:51:02Z</time>
				<extensions>
				</extensions>
			</trkpt>
			<trkpt lat="-27.357701" lon="152.969592">
				<ele>19</ele>
				<time>2015-05-07T08:51:05Z</time>
				<extensions>
				</extensions>
			</trkpt>
			<trkpt lat="-27.357656" lon="152.969367">
				<ele>21</ele>
				<time>2015-05-07T08:51:08Z</time>
				<extensions>
				</extensions>
			</trkpt>
			<trkpt lat="-27.357731" lon="152.969152">
				<ele>23</ele>
				<time>2015-05-07T08:51:10Z</time>
				<extensions>
				</extensions>
			</trkpt>
			<trkpt lat="-27.357836" lon="152.968925">
				<ele>25</ele>
				<time>2015-05-07T08:51:12Z</time>
				<extensions>
				</extensions>
			</trkpt>
			<trkpt lat="-27.357963" lon="152.968658">
				<ele>27</ele>
				<time>2015-05-07T08:51:14Z</time>
				<extensions>
				</extensions>
			</trkpt>
			<trkpt lat="-27.358110" lon="152.968344">
				<ele>29</ele>
				<time>2015-05-07T08:51:16Z</time>
				<extensions>
				</extensions>
			</trkpt>
			<trkpt lat="-27.358265" lon="152.968024">
				<ele>30</ele>
				<time>2015-05-07T08:51:18Z</time>
				<extensions>
				</extensions>
			</trkpt>
			<trkpt lat="-27.358415" lon="152.967705">
				<ele>31</ele>
				<time>2015-05-07T08:51:20Z</time>
				<extensions>
				</extensions>
			</trkpt>
			<trkpt lat="-27.358556" lon="152.967401">
				<ele>30</ele>
				<time>2015-05-07T08:51:22Z</time>
				<extensions>
				</extensions>
			</trkpt>
			<trkpt lat="-27.358670" lon="152.967115">
				<ele>30</ele>
				<time>2015-05-07T08:51:24Z</time>
				<extensions>
				</extensions>
			</trkpt>
			<trkpt lat="-27.358751" lon="152.966801">
				<ele>32</ele>
				<time>2015-05-07T08:51:26Z</time>
				<extensions>
				</extensions>
			</trkpt>
			<trkpt lat="-27.358779" lon="152.966466">
				<ele>32</ele>
				<time>2015-05-07T08:51:28Z</time>
				<extensions>
				</extensions>
			</trkpt>
			<trkpt lat="-27.358749" lon="152.966137">
				<ele>35</ele>
				<time>2015-05-07T08:51:30Z</time>
				<extensions>
				</extensions>
			</trkpt>
			<trkpt lat="-27.358678" lon="152.965804">
				<ele>35</ele>
				<time>2015-05-07T08:51:32Z</time>
				<extensions>
				</extensions>
			</trkpt>
			<trkpt lat="-27.358564" lon="152.965486">
				<ele>36</ele>
				<time>2015-05-07T08:51:34Z</time>
				<extensions>
				</extensions>
			</trkpt>
			<trkpt lat="-27.358401" lon="152.965191">
				<ele>37</ele>
				<time>2015-05-07T08:51:36Z</time>
				<extensions>
				</extensions>
			</trkpt>
			<trkpt lat="-27.358217" lon="152.964923">
				<ele>36</ele>
				<time>2015-05-07T08:51:38Z</time>
				<extensions>
				</extensions>
			</trkpt>
			<trkpt lat="-27.358020" lon="152.964678">
				<ele>34</ele>
				<time>2015-05-07T08:51:40Z</time>
				<extensions>
				</extensions>
			</trkpt>
			<trkpt lat="-27.357810" lon="152.964435">
				<ele>33</ele>
				<time>2015-05-07T08:51:42Z</time>
				<extensions>
				</extensions>
			</trkpt>
			<trkpt lat="-27.357589" lon="152.964199">
				<ele>31</ele>
				<time>2015-05-07T08:51:44Z</time>
				<extensions>
				</extensions>
			</trkpt>
			<trkpt lat="-27.357376" lon="152.963963">
				<ele>28</ele>
				<time>2015-05-07T08:51:46Z</time>
				<extensions>
				</extensions>
			</trkpt>
			<trkpt lat="-27.357159" lon="152.963725">
				<ele>26</ele>
				<time>2015-05-07T08:51:48Z</time>
				<extensions>
				</extensions>
			</trkpt>
			<trkpt lat="-27.356949" lon="152.963482">
				<ele>25</ele>
				<time>2015-05-07T08:51:50Z</time>
				<extensions>
				</extensions>
			</trkpt>
			<trkpt lat="-27.356747" lon="152.963228">
				<ele>23</ele>
				<time>2015-05-07T08:51:52Z</time>
				<extensions>
				</extensions>
			</trkpt>
			<trkpt lat="-27.356563" lon="152.962957">
				<ele>21</ele>
				<time>2015-05-07T08:51:54Z</time>
				<extensions>
				</extensions>
			</trkpt>
			<trkpt lat="-27.356413" lon="152.962663">
				<ele>20</ele>
				<time>2015-05-07T08:51:56Z</time>
				<extensions>
				</extensions>
			</trkpt>
			<trkpt lat="-27.356280" lon="152.962371">
				<ele>18</ele>
				<time>2015-05-07T08:51:58Z</time>
				<extensions>
				</extensions>
			</trkpt>
			<trkpt lat="-27.356158" lon="152.962118">
				<ele>17</ele>
				<time>2015-05-07T08:52:00Z</time>
				<extensions>
				</extensions>
			</trkpt>
			<trkpt lat="-27.356041" lon="152.961874">
				<ele>15</ele>
				<time>2015-05-07T08:52:02Z</time>
				<extensions>
				</extensions>
			</trkpt>
			<trkpt lat="-27.355943" lon="152.961653">
				<ele>14</ele>
				<time>2015-05-07T08:52:04Z</time>
				<extensions>
				</extensions>
			</trkpt>
			<trkpt lat="-27.355877" lon="152.961437">
				<ele>13</ele>
				<time>2015-05-07T08:52:06Z</time>
				<extensions>
				</extensions>
			</trkpt>
			<trkpt lat="-27.355789" lon="152.961162">
				<ele>13</ele>
				<time>2015-05-07T08:52:09Z</time>
				<extensions>
				</extensions>
			</trkpt>
			<trkpt lat="-27.355671" lon="152.960963">
				<ele>14</ele>
				<time>2015-05-07T08:52:11Z</time>
				<extensions>
				</extensions>
			</trkpt>
			<trkpt lat="-27.355561" lon="152.960726">
				<ele>16</ele>
				<time>2015-05-07T08:52:13Z</time>
				<extensions>
				</extensions>
			</trkpt>
			<trkpt lat="-27.355452" lon="152.960455">
				<ele>17</ele>
				<time>2015-05-07T08:52:15Z</time>
				<extensions>
				</extensions>
			</trkpt>
			<trkpt lat="-27.355343" lon="152.960190">
				<ele>17</ele>
				<time>2015-05-07T08:52:17Z</time>
				<extensions>
				</extensions>
			</trkpt>
			<trkpt lat="-27.355231" lon="152.959924">
				<ele>16</ele>
				<time>2015-05-07T08:52:19Z</time>
				<extensions>
				</extensions>
			</trkpt>
			<trkpt lat="-27.355132" lon="152.959661">
				<ele>16</ele>
				<time>2015-05-07T08:52:21Z</time>
				<extensions>
				</extensions>
			</trkpt>
			<trkpt lat="-27.355051" lon="152.959400">
				<ele>16</ele>
				<time>2015-05-07T08:52:23Z</time>
				<extensions>
				</extensions>
			</trkpt>
			<trkpt lat="-27.355005" lon="152.959133">
				<ele>16</ele>
				<time>2015-05-07T08:52:25Z</time>
				<extensions>
				</extensions>
			</trkpt>
			<trkpt lat="-27.354987" lon="152.958846">
				<ele>16</ele>
				<time>2015-05-07T08:52:27Z</time>
				<extensions>
				</extensions>
			</trkpt>
			<trkpt lat="-27.354985" lon="152.958577">
				<ele>15</ele>
				<time>2015-05-07T08:52:29Z</time>
				<extensions>
				</extensions>
			</trkpt>
			<trkpt lat="-27.354981" lon="152.958316">
				<ele>14</ele>
				<time>2015-05-07T08:52:31Z</time>
				<extensions>
				</extensions>
			</trkpt>
			<trkpt lat="-27.354974" lon="152.958069">
				<ele>12</ele>
				<time>2015-05-07T08:52:33Z</time>
				<extensions>
				</extensions>
			</trkpt>
			<trkpt lat="-27.354968" lon="152.957824">
				<ele>10</ele>
				<time>2015-05-07T08:52:35Z</time>
				<extensions>
				</extensions>
			</trkpt>
			<trkpt lat="-27.354974" lon="152.957545">
				<ele>6</ele>
				<time>2015-05-07T08:52:38Z</time>
				<extensions>
				</extensions>
			</trkpt>
			<trkpt lat="-27.355147" lon="152.957374">
				<ele>6</ele>
				<time>2015-05-07T08:52:42Z</time>
				<extensions>
				</extensions>
			</trkpt>
			<trkpt lat="-27.355339" lon="152.957357">
				<ele>7</ele>
				<time>2015-05-07T08:52:44Z</time>
				<extensions>
				</extensions>
			</trkpt>
			<trkpt lat="-27.355558" lon="152.957322">
				<ele>8</ele>
				<time>2015-05-07T08:52:46Z</time>
				<extensions>
				</extensions>
			</trkpt>
			<trkpt lat="-27.355758" lon="152.957265">
				<ele>7</ele>
				<time>2015-05-07T08:52:48Z</time>
				<extensions>
				</extensions>
			</trkpt>
			<trkpt lat="-27.355931" lon="152.957207">
				<ele>6</ele>
				<time>2015-05-07T08:52:50Z</time>
				<extensions>
				</extensions>
			</trkpt>
			<trkpt lat="-27.356147" lon="152.957046">
				<ele>6</ele>
				<time>2015-05-07T08:52:53Z</time>
				<extensions>
				</extensions>
			</trkpt>
			<trkpt lat="-27.356363" lon="152.956877">
				<ele>7</ele>
				<time>2015-05-07T08:52:56Z</time>
				<extensions>
				</extensions>
			</trkpt>
			<trkpt lat="-27.356563" lon="152.956706">
				<ele>7</ele>
				<time>2015-05-07T08:52:59Z</time>
				<extensions>
				</extensions>
			</trkpt>
			<trkpt lat="-27.356714" lon="152.956593">
				<ele>6</ele>
				<time>2015-05-07T08:53:02Z</time>
				<extensions>
				</extensions>
			</trkpt>
			<trkpt lat="-27.356895" lon="152.956650">
				<ele>8</ele>
				<time>2015-05-07T08:53:10Z</time>
				<extensions>
				</extensions>
			</trkpt>
		</trkseg>
	</trk>
</gpx>
